<?xml version="1.0" encoding="UTF-8" standalone="no" ?>
<gpx xmlns="http://www.topografix.com/GPX/1/1" xmlns:xsi="http://www.w3.org/2001/XMLSchema-instance" xsi:schemaLocation="http://www.topografix.com/GPX/1/1 http://www.topografix.com/GPX/1/1/gpx.xsd" version="1.1" creator="VisuGPX - https://www.visugpx.com">
  <metadata>
    <name>14 juillet 2018</name>
    <desc><![CDATA[Première sortie sur Menat, réalisation en solo, météo idéale, bonnes jambes]]></desc>
  </metadata>
  <trk>
    <name><![CDATA[14 juil. 2018 8:03:46 AM]]></name>
    <trkseg>
      <trkpt lat="46.31136" lon="2.75383">
        <ele>405.05</ele>
        <time>2018-07-14T06:04:20.224Z</time>
      </trkpt>
      <trkpt lat="46.31126" lon="2.75387">
        <ele>411.41</ele>
        <time>2018-07-14T06:04:23.000Z</time>
      </trkpt>
      <trkpt lat="46.31115" lon="2.75368">
        <ele>418.45</ele>
        <time>2018-07-14T06:04:25.000Z</time>
      </trkpt>
      <trkpt lat="46.31105" lon="2.75374">
        <ele>419.98</ele>
        <time>2018-07-14T06:04:28.000Z</time>
      </trkpt>
      <trkpt lat="46.31098" lon="2.75384">
        <ele>431.24</ele>
        <time>2018-07-14T06:04:41.000Z</time>
      </trkpt>
      <trkpt lat="46.31089" lon="2.75389">
        <ele>429.16</ele>
        <time>2018-07-14T06:04:44.000Z</time>
      </trkpt>
      <trkpt lat="46.31075" lon="2.75392">
        <ele>428.92</ele>
        <time>2018-07-14T06:04:47.000Z</time>
      </trkpt>
      <trkpt lat="46.31065" lon="2.75396">
        <ele>427.56</ele>
        <time>2018-07-14T06:04:49.000Z</time>
      </trkpt>
      <trkpt lat="46.31054" lon="2.754">
        <ele>426.28</ele>
        <time>2018-07-14T06:04:51.000Z</time>
      </trkpt>
      <trkpt lat="46.31044" lon="2.75407">
        <ele>425</ele>
        <time>2018-07-14T06:04:53.000Z</time>
      </trkpt>
      <trkpt lat="46.31035" lon="2.75414">
        <ele>424.27</ele>
        <time>2018-07-14T06:04:55.000Z</time>
      </trkpt>
      <trkpt lat="46.31025" lon="2.75419">
        <ele>422.52</ele>
        <time>2018-07-14T06:04:57.000Z</time>
      </trkpt>
      <trkpt lat="46.31015" lon="2.75423">
        <ele>421.19</ele>
        <time>2018-07-14T06:04:59.000Z</time>
      </trkpt>
      <trkpt lat="46.31006" lon="2.75425">
        <ele>420.03</ele>
        <time>2018-07-14T06:05:01.000Z</time>
      </trkpt>
      <trkpt lat="46.30996" lon="2.75424">
        <ele>418.9</ele>
        <time>2018-07-14T06:05:03.000Z</time>
      </trkpt>
      <trkpt lat="46.30987" lon="2.7542">
        <ele>418.27</ele>
        <time>2018-07-14T06:05:05.000Z</time>
      </trkpt>
      <trkpt lat="46.30978" lon="2.75415">
        <ele>417.95</ele>
        <time>2018-07-14T06:05:07.000Z</time>
      </trkpt>
      <trkpt lat="46.30967" lon="2.75408">
        <ele>418.1</ele>
        <time>2018-07-14T06:05:10.000Z</time>
      </trkpt>
      <trkpt lat="46.30959" lon="2.75401">
        <ele>417.61</ele>
        <time>2018-07-14T06:05:12.000Z</time>
      </trkpt>
      <trkpt lat="46.3095" lon="2.75395">
        <ele>417.22</ele>
        <time>2018-07-14T06:05:14.000Z</time>
      </trkpt>
      <trkpt lat="46.30938" lon="2.75387">
        <ele>419.04</ele>
        <time>2018-07-14T06:05:17.000Z</time>
      </trkpt>
      <trkpt lat="46.30927" lon="2.75379">
        <ele>419.88</ele>
        <time>2018-07-14T06:05:20.000Z</time>
      </trkpt>
      <trkpt lat="46.30916" lon="2.75377">
        <ele>419.92</ele>
        <time>2018-07-14T06:05:23.000Z</time>
      </trkpt>
      <trkpt lat="46.30909" lon="2.75387">
        <ele>420.68</ele>
        <time>2018-07-14T06:05:26.000Z</time>
      </trkpt>
      <trkpt lat="46.30909" lon="2.75401">
        <ele>421.87</ele>
        <time>2018-07-14T06:05:28.000Z</time>
      </trkpt>
      <trkpt lat="46.30907" lon="2.75417">
        <ele>421.61</ele>
        <time>2018-07-14T06:05:30.000Z</time>
      </trkpt>
      <trkpt lat="46.30906" lon="2.75434">
        <ele>421.27</ele>
        <time>2018-07-14T06:05:32.000Z</time>
      </trkpt>
      <trkpt lat="46.30904" lon="2.75452">
        <ele>420.52</ele>
        <time>2018-07-14T06:05:34.000Z</time>
      </trkpt>
      <trkpt lat="46.30903" lon="2.75471">
        <ele>419.47</ele>
        <time>2018-07-14T06:05:36.000Z</time>
      </trkpt>
      <trkpt lat="46.30902" lon="2.75492">
        <ele>418.79</ele>
        <time>2018-07-14T06:05:38.000Z</time>
      </trkpt>
      <trkpt lat="46.30902" lon="2.75516">
        <ele>418.2</ele>
        <time>2018-07-14T06:05:40.000Z</time>
      </trkpt>
      <trkpt lat="46.30903" lon="2.75541">
        <ele>417.47</ele>
        <time>2018-07-14T06:05:42.000Z</time>
      </trkpt>
      <trkpt lat="46.30904" lon="2.75554">
        <ele>417.19</ele>
        <time>2018-07-14T06:05:43.000Z</time>
      </trkpt>
      <trkpt lat="46.30904" lon="2.75568">
        <ele>416.92</ele>
        <time>2018-07-14T06:05:44.000Z</time>
      </trkpt>
      <trkpt lat="46.30904" lon="2.75582">
        <ele>416.68</ele>
        <time>2018-07-14T06:05:45.000Z</time>
      </trkpt>
      <trkpt lat="46.30904" lon="2.75597">
        <ele>416.25</ele>
        <time>2018-07-14T06:05:46.000Z</time>
      </trkpt>
      <trkpt lat="46.30904" lon="2.75613">
        <ele>415.48</ele>
        <time>2018-07-14T06:05:47.000Z</time>
      </trkpt>
      <trkpt lat="46.30904" lon="2.75629">
        <ele>414.67</ele>
        <time>2018-07-14T06:05:48.000Z</time>
      </trkpt>
      <trkpt lat="46.30904" lon="2.75646">
        <ele>414.08</ele>
        <time>2018-07-14T06:05:49.000Z</time>
      </trkpt>
      <trkpt lat="46.30904" lon="2.75662">
        <ele>413.34</ele>
        <time>2018-07-14T06:05:50.000Z</time>
      </trkpt>
      <trkpt lat="46.30903" lon="2.75679">
        <ele>412.56</ele>
        <time>2018-07-14T06:05:51.000Z</time>
      </trkpt>
      <trkpt lat="46.30903" lon="2.75696">
        <ele>411.9</ele>
        <time>2018-07-14T06:05:52.000Z</time>
      </trkpt>
      <trkpt lat="46.30903" lon="2.75713">
        <ele>411.19</ele>
        <time>2018-07-14T06:05:53.000Z</time>
      </trkpt>
      <trkpt lat="46.30903" lon="2.75731">
        <ele>410.37</ele>
        <time>2018-07-14T06:05:54.000Z</time>
      </trkpt>
      <trkpt lat="46.30903" lon="2.75748">
        <ele>409.63</ele>
        <time>2018-07-14T06:05:55.000Z</time>
      </trkpt>
      <trkpt lat="46.30902" lon="2.75766">
        <ele>408.96</ele>
        <time>2018-07-14T06:05:56.000Z</time>
      </trkpt>
      <trkpt lat="46.309" lon="2.75783">
        <ele>408.68</ele>
        <time>2018-07-14T06:05:57.000Z</time>
      </trkpt>
      <trkpt lat="46.30896" lon="2.758">
        <ele>408.12</ele>
        <time>2018-07-14T06:05:58.000Z</time>
      </trkpt>
      <trkpt lat="46.3089" lon="2.75814">
        <ele>407.86</ele>
        <time>2018-07-14T06:05:59.000Z</time>
      </trkpt>
      <trkpt lat="46.30882" lon="2.75828">
        <ele>407.87</ele>
        <time>2018-07-14T06:06:00.000Z</time>
      </trkpt>
      <trkpt lat="46.30872" lon="2.7584">
        <ele>407.81</ele>
        <time>2018-07-14T06:06:01.000Z</time>
      </trkpt>
      <trkpt lat="46.30863" lon="2.75851">
        <ele>407.79</ele>
        <time>2018-07-14T06:06:02.000Z</time>
      </trkpt>
      <trkpt lat="46.30854" lon="2.75863">
        <ele>407.69</ele>
        <time>2018-07-14T06:06:03.000Z</time>
      </trkpt>
      <trkpt lat="46.30845" lon="2.75874">
        <ele>407.48</ele>
        <time>2018-07-14T06:06:04.000Z</time>
      </trkpt>
      <trkpt lat="46.30837" lon="2.75886">
        <ele>407.33</ele>
        <time>2018-07-14T06:06:05.000Z</time>
      </trkpt>
      <trkpt lat="46.3083" lon="2.759">
        <ele>407.37</ele>
        <time>2018-07-14T06:06:06.000Z</time>
      </trkpt>
      <trkpt lat="46.30822" lon="2.75914">
        <ele>407.62</ele>
        <time>2018-07-14T06:06:07.000Z</time>
      </trkpt>
      <trkpt lat="46.30817" lon="2.75928">
        <ele>407.66</ele>
        <time>2018-07-14T06:06:08.000Z</time>
      </trkpt>
      <trkpt lat="46.30816" lon="2.75943">
        <ele>407.51</ele>
        <time>2018-07-14T06:06:09.000Z</time>
      </trkpt>
      <trkpt lat="46.30817" lon="2.75958">
        <ele>407.43</ele>
        <time>2018-07-14T06:06:10.000Z</time>
      </trkpt>
      <trkpt lat="46.30819" lon="2.75972">
        <ele>407.31</ele>
        <time>2018-07-14T06:06:11.000Z</time>
      </trkpt>
      <trkpt lat="46.30822" lon="2.75984">
        <ele>407.53</ele>
        <time>2018-07-14T06:06:12.000Z</time>
      </trkpt>
      <trkpt lat="46.30829" lon="2.76006">
        <ele>407.37</ele>
        <time>2018-07-14T06:06:14.000Z</time>
      </trkpt>
      <trkpt lat="46.30833" lon="2.76027">
        <ele>406.6</ele>
        <time>2018-07-14T06:06:16.000Z</time>
      </trkpt>
      <trkpt lat="46.30838" lon="2.76047">
        <ele>405.13</ele>
        <time>2018-07-14T06:06:18.000Z</time>
      </trkpt>
      <trkpt lat="46.30843" lon="2.76065">
        <ele>403.99</ele>
        <time>2018-07-14T06:06:20.000Z</time>
      </trkpt>
      <trkpt lat="46.30848" lon="2.76082">
        <ele>403</ele>
        <time>2018-07-14T06:06:22.000Z</time>
      </trkpt>
      <trkpt lat="46.30852" lon="2.76098">
        <ele>402.54</ele>
        <time>2018-07-14T06:06:24.000Z</time>
      </trkpt>
      <trkpt lat="46.30856" lon="2.76114">
        <ele>402.43</ele>
        <time>2018-07-14T06:06:26.000Z</time>
      </trkpt>
      <trkpt lat="46.30862" lon="2.76127">
        <ele>402.31</ele>
        <time>2018-07-14T06:06:28.000Z</time>
      </trkpt>
      <trkpt lat="46.30869" lon="2.76136">
        <ele>402.01</ele>
        <time>2018-07-14T06:06:30.000Z</time>
      </trkpt>
      <trkpt lat="46.30878" lon="2.76142">
        <ele>401.59</ele>
        <time>2018-07-14T06:06:32.000Z</time>
      </trkpt>
      <trkpt lat="46.30888" lon="2.76147">
        <ele>401.12</ele>
        <time>2018-07-14T06:06:34.000Z</time>
      </trkpt>
      <trkpt lat="46.30899" lon="2.76148">
        <ele>400.54</ele>
        <time>2018-07-14T06:06:36.000Z</time>
      </trkpt>
      <trkpt lat="46.3091" lon="2.76146">
        <ele>400.28</ele>
        <time>2018-07-14T06:06:38.000Z</time>
      </trkpt>
      <trkpt lat="46.3092" lon="2.7615">
        <ele>400</ele>
        <time>2018-07-14T06:06:40.000Z</time>
      </trkpt>
      <trkpt lat="46.30928" lon="2.76158">
        <ele>399.8</ele>
        <time>2018-07-14T06:06:42.000Z</time>
      </trkpt>
      <trkpt lat="46.30933" lon="2.76173">
        <ele>400.12</ele>
        <time>2018-07-14T06:06:44.000Z</time>
      </trkpt>
      <trkpt lat="46.30931" lon="2.7619">
        <ele>400.4</ele>
        <time>2018-07-14T06:06:46.000Z</time>
      </trkpt>
      <trkpt lat="46.30928" lon="2.76207">
        <ele>400.33</ele>
        <time>2018-07-14T06:06:48.000Z</time>
      </trkpt>
      <trkpt lat="46.30922" lon="2.76223">
        <ele>400.62</ele>
        <time>2018-07-14T06:06:50.000Z</time>
      </trkpt>
      <trkpt lat="46.30914" lon="2.76238">
        <ele>401.5</ele>
        <time>2018-07-14T06:06:52.000Z</time>
      </trkpt>
      <trkpt lat="46.30901" lon="2.76245">
        <ele>402.89</ele>
        <time>2018-07-14T06:06:54.000Z</time>
      </trkpt>
      <trkpt lat="46.30888" lon="2.76251">
        <ele>402.98</ele>
        <time>2018-07-14T06:06:56.000Z</time>
      </trkpt>
      <trkpt lat="46.30877" lon="2.76251">
        <ele>403.33</ele>
        <time>2018-07-14T06:06:58.000Z</time>
      </trkpt>
      <trkpt lat="46.30866" lon="2.76252">
        <ele>403.6</ele>
        <time>2018-07-14T06:07:00.000Z</time>
      </trkpt>
      <trkpt lat="46.30855" lon="2.76258">
        <ele>404.14</ele>
        <time>2018-07-14T06:07:02.000Z</time>
      </trkpt>
      <trkpt lat="46.30848" lon="2.76271">
        <ele>404.14</ele>
        <time>2018-07-14T06:07:04.000Z</time>
      </trkpt>
      <trkpt lat="46.30846" lon="2.76288">
        <ele>404.8</ele>
        <time>2018-07-14T06:07:06.000Z</time>
      </trkpt>
      <trkpt lat="46.30845" lon="2.76306">
        <ele>405.83</ele>
        <time>2018-07-14T06:07:08.000Z</time>
      </trkpt>
      <trkpt lat="46.30845" lon="2.76324">
        <ele>406.96</ele>
        <time>2018-07-14T06:07:10.000Z</time>
      </trkpt>
      <trkpt lat="46.30846" lon="2.7634">
        <ele>407.82</ele>
        <time>2018-07-14T06:07:12.000Z</time>
      </trkpt>
      <trkpt lat="46.30845" lon="2.76355">
        <ele>408.27</ele>
        <time>2018-07-14T06:07:14.000Z</time>
      </trkpt>
      <trkpt lat="46.30845" lon="2.7637">
        <ele>409.22</ele>
        <time>2018-07-14T06:07:16.000Z</time>
      </trkpt>
      <trkpt lat="46.30844" lon="2.76384">
        <ele>409.9</ele>
        <time>2018-07-14T06:07:18.000Z</time>
      </trkpt>
      <trkpt lat="46.30842" lon="2.76399">
        <ele>410.54</ele>
        <time>2018-07-14T06:07:20.000Z</time>
      </trkpt>
      <trkpt lat="46.3084" lon="2.76414">
        <ele>411.2</ele>
        <time>2018-07-14T06:07:22.000Z</time>
      </trkpt>
      <trkpt lat="46.30838" lon="2.76427">
        <ele>412.04</ele>
        <time>2018-07-14T06:07:24.000Z</time>
      </trkpt>
      <trkpt lat="46.30837" lon="2.76441">
        <ele>412.65</ele>
        <time>2018-07-14T06:07:26.000Z</time>
      </trkpt>
      <trkpt lat="46.30835" lon="2.76456">
        <ele>413.33</ele>
        <time>2018-07-14T06:07:28.000Z</time>
      </trkpt>
      <trkpt lat="46.30833" lon="2.7647">
        <ele>413.81</ele>
        <time>2018-07-14T06:07:30.000Z</time>
      </trkpt>
      <trkpt lat="46.30833" lon="2.76484">
        <ele>414.45</ele>
        <time>2018-07-14T06:07:32.000Z</time>
      </trkpt>
      <trkpt lat="46.30832" lon="2.76497">
        <ele>415.31</ele>
        <time>2018-07-14T06:07:34.000Z</time>
      </trkpt>
      <trkpt lat="46.30833" lon="2.76511">
        <ele>415.87</ele>
        <time>2018-07-14T06:07:36.000Z</time>
      </trkpt>
      <trkpt lat="46.30834" lon="2.76524">
        <ele>416.72</ele>
        <time>2018-07-14T06:07:38.000Z</time>
      </trkpt>
      <trkpt lat="46.30835" lon="2.76538">
        <ele>417.5</ele>
        <time>2018-07-14T06:07:40.000Z</time>
      </trkpt>
      <trkpt lat="46.30837" lon="2.76555">
        <ele>418.48</ele>
        <time>2018-07-14T06:07:43.000Z</time>
      </trkpt>
      <trkpt lat="46.30837" lon="2.76574">
        <ele>419.87</ele>
        <time>2018-07-14T06:07:46.000Z</time>
      </trkpt>
      <trkpt lat="46.30835" lon="2.7659">
        <ele>420.47</ele>
        <time>2018-07-14T06:07:48.000Z</time>
      </trkpt>
      <trkpt lat="46.30832" lon="2.76603">
        <ele>420.82</ele>
        <time>2018-07-14T06:07:50.000Z</time>
      </trkpt>
      <trkpt lat="46.30828" lon="2.76615">
        <ele>420.99</ele>
        <time>2018-07-14T06:07:52.000Z</time>
      </trkpt>
      <trkpt lat="46.30824" lon="2.76627">
        <ele>421.3</ele>
        <time>2018-07-14T06:07:54.000Z</time>
      </trkpt>
      <trkpt lat="46.30821" lon="2.76641">
        <ele>421.15</ele>
        <time>2018-07-14T06:07:56.000Z</time>
      </trkpt>
      <trkpt lat="46.30816" lon="2.76654">
        <ele>421.97</ele>
        <time>2018-07-14T06:07:58.000Z</time>
      </trkpt>
      <trkpt lat="46.30811" lon="2.76668">
        <ele>422.87</ele>
        <time>2018-07-14T06:08:00.000Z</time>
      </trkpt>
      <trkpt lat="46.30807" lon="2.76684">
        <ele>423.59</ele>
        <time>2018-07-14T06:08:02.000Z</time>
      </trkpt>
      <trkpt lat="46.30803" lon="2.76701">
        <ele>424.02</ele>
        <time>2018-07-14T06:08:04.000Z</time>
      </trkpt>
      <trkpt lat="46.30801" lon="2.76717">
        <ele>424.55</ele>
        <time>2018-07-14T06:08:06.000Z</time>
      </trkpt>
      <trkpt lat="46.308" lon="2.76735">
        <ele>424.66</ele>
        <time>2018-07-14T06:08:08.000Z</time>
      </trkpt>
      <trkpt lat="46.30798" lon="2.76753">
        <ele>425.18</ele>
        <time>2018-07-14T06:08:10.000Z</time>
      </trkpt>
      <trkpt lat="46.30795" lon="2.76769">
        <ele>425.85</ele>
        <time>2018-07-14T06:08:12.000Z</time>
      </trkpt>
      <trkpt lat="46.30792" lon="2.76784">
        <ele>426.91</ele>
        <time>2018-07-14T06:08:14.000Z</time>
      </trkpt>
      <trkpt lat="46.3079" lon="2.76802">
        <ele>427.65</ele>
        <time>2018-07-14T06:08:16.000Z</time>
      </trkpt>
      <trkpt lat="46.30788" lon="2.76818">
        <ele>428.71</ele>
        <time>2018-07-14T06:08:18.000Z</time>
      </trkpt>
      <trkpt lat="46.30786" lon="2.76836">
        <ele>429.33</ele>
        <time>2018-07-14T06:08:20.000Z</time>
      </trkpt>
      <trkpt lat="46.30784" lon="2.76853">
        <ele>429.94</ele>
        <time>2018-07-14T06:08:22.000Z</time>
      </trkpt>
      <trkpt lat="46.30782" lon="2.76869">
        <ele>430.4</ele>
        <time>2018-07-14T06:08:24.000Z</time>
      </trkpt>
      <trkpt lat="46.30779" lon="2.76886">
        <ele>430.87</ele>
        <time>2018-07-14T06:08:26.000Z</time>
      </trkpt>
      <trkpt lat="46.30775" lon="2.76901">
        <ele>431.14</ele>
        <time>2018-07-14T06:08:28.000Z</time>
      </trkpt>
      <trkpt lat="46.3077" lon="2.76916">
        <ele>431.55</ele>
        <time>2018-07-14T06:08:30.000Z</time>
      </trkpt>
      <trkpt lat="46.30764" lon="2.76932">
        <ele>431.88</ele>
        <time>2018-07-14T06:08:32.000Z</time>
      </trkpt>
      <trkpt lat="46.30759" lon="2.76951">
        <ele>431.75</ele>
        <time>2018-07-14T06:08:34.000Z</time>
      </trkpt>
      <trkpt lat="46.30755" lon="2.76971">
        <ele>431.99</ele>
        <time>2018-07-14T06:08:36.000Z</time>
      </trkpt>
      <trkpt lat="46.30753" lon="2.7699">
        <ele>432.57</ele>
        <time>2018-07-14T06:08:38.000Z</time>
      </trkpt>
      <trkpt lat="46.30751" lon="2.7701">
        <ele>433.16</ele>
        <time>2018-07-14T06:08:40.000Z</time>
      </trkpt>
      <trkpt lat="46.30751" lon="2.77028">
        <ele>433.89</ele>
        <time>2018-07-14T06:08:42.000Z</time>
      </trkpt>
      <trkpt lat="46.3075" lon="2.77047">
        <ele>434.69</ele>
        <time>2018-07-14T06:08:44.000Z</time>
      </trkpt>
      <trkpt lat="46.30749" lon="2.77066">
        <ele>435.57</ele>
        <time>2018-07-14T06:08:46.000Z</time>
      </trkpt>
      <trkpt lat="46.30748" lon="2.77085">
        <ele>435.99</ele>
        <time>2018-07-14T06:08:48.000Z</time>
      </trkpt>
      <trkpt lat="46.30748" lon="2.77104">
        <ele>436.08</ele>
        <time>2018-07-14T06:08:50.000Z</time>
      </trkpt>
      <trkpt lat="46.30747" lon="2.77122">
        <ele>436.53</ele>
        <time>2018-07-14T06:08:52.000Z</time>
      </trkpt>
      <trkpt lat="46.30744" lon="2.7714">
        <ele>437.18</ele>
        <time>2018-07-14T06:08:54.000Z</time>
      </trkpt>
      <trkpt lat="46.30742" lon="2.77156">
        <ele>437.8</ele>
        <time>2018-07-14T06:08:56.000Z</time>
      </trkpt>
      <trkpt lat="46.3074" lon="2.77174">
        <ele>438.03</ele>
        <time>2018-07-14T06:08:58.000Z</time>
      </trkpt>
      <trkpt lat="46.30736" lon="2.77192">
        <ele>438.21</ele>
        <time>2018-07-14T06:09:00.000Z</time>
      </trkpt>
      <trkpt lat="46.30734" lon="2.77211">
        <ele>437.94</ele>
        <time>2018-07-14T06:09:02.000Z</time>
      </trkpt>
      <trkpt lat="46.30732" lon="2.77229">
        <ele>438.15</ele>
        <time>2018-07-14T06:09:04.000Z</time>
      </trkpt>
      <trkpt lat="46.30732" lon="2.77249">
        <ele>438.3</ele>
        <time>2018-07-14T06:09:06.000Z</time>
      </trkpt>
      <trkpt lat="46.3073" lon="2.77269">
        <ele>438.64</ele>
        <time>2018-07-14T06:09:08.000Z</time>
      </trkpt>
      <trkpt lat="46.30729" lon="2.77289">
        <ele>438.71</ele>
        <time>2018-07-14T06:09:10.000Z</time>
      </trkpt>
      <trkpt lat="46.30728" lon="2.7731">
        <ele>438.61</ele>
        <time>2018-07-14T06:09:12.000Z</time>
      </trkpt>
      <trkpt lat="46.30728" lon="2.77332">
        <ele>438.91</ele>
        <time>2018-07-14T06:09:14.000Z</time>
      </trkpt>
      <trkpt lat="46.30727" lon="2.77355">
        <ele>438.93</ele>
        <time>2018-07-14T06:09:16.000Z</time>
      </trkpt>
      <trkpt lat="46.30727" lon="2.77377">
        <ele>439.08</ele>
        <time>2018-07-14T06:09:18.000Z</time>
      </trkpt>
      <trkpt lat="46.30724" lon="2.77398">
        <ele>439.05</ele>
        <time>2018-07-14T06:09:20.000Z</time>
      </trkpt>
      <trkpt lat="46.30719" lon="2.77419">
        <ele>439.03</ele>
        <time>2018-07-14T06:09:22.000Z</time>
      </trkpt>
      <trkpt lat="46.30711" lon="2.77439">
        <ele>438.86</ele>
        <time>2018-07-14T06:09:24.000Z</time>
      </trkpt>
      <trkpt lat="46.30703" lon="2.77458">
        <ele>438.97</ele>
        <time>2018-07-14T06:09:26.000Z</time>
      </trkpt>
      <trkpt lat="46.30696" lon="2.77478">
        <ele>439.23</ele>
        <time>2018-07-14T06:09:28.000Z</time>
      </trkpt>
      <trkpt lat="46.3069" lon="2.77497">
        <ele>439.44</ele>
        <time>2018-07-14T06:09:30.000Z</time>
      </trkpt>
      <trkpt lat="46.30683" lon="2.77515">
        <ele>439.86</ele>
        <time>2018-07-14T06:09:32.000Z</time>
      </trkpt>
      <trkpt lat="46.30676" lon="2.77534">
        <ele>440.09</ele>
        <time>2018-07-14T06:09:34.000Z</time>
      </trkpt>
      <trkpt lat="46.30666" lon="2.77551">
        <ele>439.93</ele>
        <time>2018-07-14T06:09:36.000Z</time>
      </trkpt>
      <trkpt lat="46.30656" lon="2.77567">
        <ele>439.61</ele>
        <time>2018-07-14T06:09:38.000Z</time>
      </trkpt>
      <trkpt lat="46.30644" lon="2.77582">
        <ele>439.26</ele>
        <time>2018-07-14T06:09:40.000Z</time>
      </trkpt>
      <trkpt lat="46.30631" lon="2.77595">
        <ele>438.91</ele>
        <time>2018-07-14T06:09:42.000Z</time>
      </trkpt>
      <trkpt lat="46.30619" lon="2.77608">
        <ele>438.01</ele>
        <time>2018-07-14T06:09:44.000Z</time>
      </trkpt>
      <trkpt lat="46.30607" lon="2.77619">
        <ele>437.67</ele>
        <time>2018-07-14T06:09:46.000Z</time>
      </trkpt>
      <trkpt lat="46.30594" lon="2.77631">
        <ele>437.27</ele>
        <time>2018-07-14T06:09:48.000Z</time>
      </trkpt>
      <trkpt lat="46.30582" lon="2.77642">
        <ele>436.91</ele>
        <time>2018-07-14T06:09:50.000Z</time>
      </trkpt>
      <trkpt lat="46.3057" lon="2.77654">
        <ele>436.56</ele>
        <time>2018-07-14T06:09:52.000Z</time>
      </trkpt>
      <trkpt lat="46.30557" lon="2.77665">
        <ele>436.42</ele>
        <time>2018-07-14T06:09:54.000Z</time>
      </trkpt>
      <trkpt lat="46.30546" lon="2.77677">
        <ele>436.46</ele>
        <time>2018-07-14T06:09:56.000Z</time>
      </trkpt>
      <trkpt lat="46.30536" lon="2.77689">
        <ele>436.3</ele>
        <time>2018-07-14T06:09:58.000Z</time>
      </trkpt>
      <trkpt lat="46.30526" lon="2.77702">
        <ele>436.26</ele>
        <time>2018-07-14T06:10:00.000Z</time>
      </trkpt>
      <trkpt lat="46.30518" lon="2.77718">
        <ele>436.14</ele>
        <time>2018-07-14T06:10:02.000Z</time>
      </trkpt>
      <trkpt lat="46.3051" lon="2.77734">
        <ele>436.07</ele>
        <time>2018-07-14T06:10:04.000Z</time>
      </trkpt>
      <trkpt lat="46.30504" lon="2.77751">
        <ele>436.4</ele>
        <time>2018-07-14T06:10:06.000Z</time>
      </trkpt>
      <trkpt lat="46.30499" lon="2.77768">
        <ele>436.87</ele>
        <time>2018-07-14T06:10:08.000Z</time>
      </trkpt>
      <trkpt lat="46.30492" lon="2.77785">
        <ele>437.31</ele>
        <time>2018-07-14T06:10:10.000Z</time>
      </trkpt>
      <trkpt lat="46.30486" lon="2.77802">
        <ele>437.95</ele>
        <time>2018-07-14T06:10:12.000Z</time>
      </trkpt>
      <trkpt lat="46.30479" lon="2.77818">
        <ele>438.02</ele>
        <time>2018-07-14T06:10:14.000Z</time>
      </trkpt>
      <trkpt lat="46.3047" lon="2.77833">
        <ele>437.97</ele>
        <time>2018-07-14T06:10:16.000Z</time>
      </trkpt>
      <trkpt lat="46.3046" lon="2.77848">
        <ele>438.27</ele>
        <time>2018-07-14T06:10:18.000Z</time>
      </trkpt>
      <trkpt lat="46.30451" lon="2.77863">
        <ele>438.78</ele>
        <time>2018-07-14T06:10:20.000Z</time>
      </trkpt>
      <trkpt lat="46.30442" lon="2.77878">
        <ele>439.17</ele>
        <time>2018-07-14T06:10:22.000Z</time>
      </trkpt>
      <trkpt lat="46.30433" lon="2.77892">
        <ele>439.89</ele>
        <time>2018-07-14T06:10:24.000Z</time>
      </trkpt>
      <trkpt lat="46.30424" lon="2.77905">
        <ele>440.85</ele>
        <time>2018-07-14T06:10:26.000Z</time>
      </trkpt>
      <trkpt lat="46.30415" lon="2.77918">
        <ele>441.6</ele>
        <time>2018-07-14T06:10:28.000Z</time>
      </trkpt>
      <trkpt lat="46.30406" lon="2.77931">
        <ele>442.07</ele>
        <time>2018-07-14T06:10:30.000Z</time>
      </trkpt>
      <trkpt lat="46.30398" lon="2.77945">
        <ele>442.32</ele>
        <time>2018-07-14T06:10:32.000Z</time>
      </trkpt>
      <trkpt lat="46.3039" lon="2.77959">
        <ele>442.5</ele>
        <time>2018-07-14T06:10:34.000Z</time>
      </trkpt>
      <trkpt lat="46.30383" lon="2.77973">
        <ele>442.53</ele>
        <time>2018-07-14T06:10:36.000Z</time>
      </trkpt>
      <trkpt lat="46.30376" lon="2.77988">
        <ele>442.9</ele>
        <time>2018-07-14T06:10:38.000Z</time>
      </trkpt>
      <trkpt lat="46.30369" lon="2.78002">
        <ele>443.46</ele>
        <time>2018-07-14T06:10:40.000Z</time>
      </trkpt>
      <trkpt lat="46.30362" lon="2.78017">
        <ele>443.92</ele>
        <time>2018-07-14T06:10:42.000Z</time>
      </trkpt>
      <trkpt lat="46.30354" lon="2.7803">
        <ele>444.01</ele>
        <time>2018-07-14T06:10:44.000Z</time>
      </trkpt>
      <trkpt lat="46.30347" lon="2.78045">
        <ele>444.23</ele>
        <time>2018-07-14T06:10:46.000Z</time>
      </trkpt>
      <trkpt lat="46.30339" lon="2.78061">
        <ele>444.7</ele>
        <time>2018-07-14T06:10:48.000Z</time>
      </trkpt>
      <trkpt lat="46.30332" lon="2.78076">
        <ele>445.47</ele>
        <time>2018-07-14T06:10:50.000Z</time>
      </trkpt>
      <trkpt lat="46.30325" lon="2.7809">
        <ele>446.06</ele>
        <time>2018-07-14T06:10:52.000Z</time>
      </trkpt>
      <trkpt lat="46.30318" lon="2.78104">
        <ele>446.51</ele>
        <time>2018-07-14T06:10:54.000Z</time>
      </trkpt>
      <trkpt lat="46.3031" lon="2.78118">
        <ele>446.94</ele>
        <time>2018-07-14T06:10:56.000Z</time>
      </trkpt>
      <trkpt lat="46.30304" lon="2.78133">
        <ele>447.32</ele>
        <time>2018-07-14T06:10:58.000Z</time>
      </trkpt>
      <trkpt lat="46.30299" lon="2.78148">
        <ele>447.81</ele>
        <time>2018-07-14T06:11:00.000Z</time>
      </trkpt>
      <trkpt lat="46.30293" lon="2.78163">
        <ele>448.25</ele>
        <time>2018-07-14T06:11:02.000Z</time>
      </trkpt>
      <trkpt lat="46.30288" lon="2.78179">
        <ele>448.22</ele>
        <time>2018-07-14T06:11:04.000Z</time>
      </trkpt>
      <trkpt lat="46.30281" lon="2.78192">
        <ele>448.23</ele>
        <time>2018-07-14T06:11:06.000Z</time>
      </trkpt>
      <trkpt lat="46.3027" lon="2.78199">
        <ele>448.61</ele>
        <time>2018-07-14T06:11:08.000Z</time>
      </trkpt>
      <trkpt lat="46.30259" lon="2.782">
        <ele>449.06</ele>
        <time>2018-07-14T06:11:10.000Z</time>
      </trkpt>
      <trkpt lat="46.30246" lon="2.78194">
        <ele>449.37</ele>
        <time>2018-07-14T06:11:12.000Z</time>
      </trkpt>
      <trkpt lat="46.30234" lon="2.78187">
        <ele>449.97</ele>
        <time>2018-07-14T06:11:14.000Z</time>
      </trkpt>
      <trkpt lat="46.30222" lon="2.78182">
        <ele>450.76</ele>
        <time>2018-07-14T06:11:16.000Z</time>
      </trkpt>
      <trkpt lat="46.3021" lon="2.78178">
        <ele>451.22</ele>
        <time>2018-07-14T06:11:18.000Z</time>
      </trkpt>
      <trkpt lat="46.30198" lon="2.78176">
        <ele>451.16</ele>
        <time>2018-07-14T06:11:20.000Z</time>
      </trkpt>
      <trkpt lat="46.30186" lon="2.78174">
        <ele>451.45</ele>
        <time>2018-07-14T06:11:22.000Z</time>
      </trkpt>
      <trkpt lat="46.30174" lon="2.78172">
        <ele>451.49</ele>
        <time>2018-07-14T06:11:24.000Z</time>
      </trkpt>
      <trkpt lat="46.30162" lon="2.78171">
        <ele>451.58</ele>
        <time>2018-07-14T06:11:26.000Z</time>
      </trkpt>
      <trkpt lat="46.30151" lon="2.7817">
        <ele>451.54</ele>
        <time>2018-07-14T06:11:28.000Z</time>
      </trkpt>
      <trkpt lat="46.3014" lon="2.78163">
        <ele>451.87</ele>
        <time>2018-07-14T06:11:30.000Z</time>
      </trkpt>
      <trkpt lat="46.30132" lon="2.78151">
        <ele>453.01</ele>
        <time>2018-07-14T06:11:32.000Z</time>
      </trkpt>
      <trkpt lat="46.30126" lon="2.78135">
        <ele>454.16</ele>
        <time>2018-07-14T06:11:34.000Z</time>
      </trkpt>
      <trkpt lat="46.3012" lon="2.78119">
        <ele>454.95</ele>
        <time>2018-07-14T06:11:36.000Z</time>
      </trkpt>
      <trkpt lat="46.30113" lon="2.78103">
        <ele>455.28</ele>
        <time>2018-07-14T06:11:38.000Z</time>
      </trkpt>
      <trkpt lat="46.30106" lon="2.78087">
        <ele>455.32</ele>
        <time>2018-07-14T06:11:40.000Z</time>
      </trkpt>
      <trkpt lat="46.301" lon="2.78071">
        <ele>455.48</ele>
        <time>2018-07-14T06:11:42.000Z</time>
      </trkpt>
      <trkpt lat="46.30094" lon="2.78053">
        <ele>455.86</ele>
        <time>2018-07-14T06:11:44.000Z</time>
      </trkpt>
      <trkpt lat="46.30087" lon="2.78036">
        <ele>456.3</ele>
        <time>2018-07-14T06:11:46.000Z</time>
      </trkpt>
      <trkpt lat="46.30082" lon="2.78018">
        <ele>456.8</ele>
        <time>2018-07-14T06:11:48.000Z</time>
      </trkpt>
      <trkpt lat="46.30077" lon="2.77999">
        <ele>457.08</ele>
        <time>2018-07-14T06:11:50.000Z</time>
      </trkpt>
      <trkpt lat="46.3007" lon="2.77979">
        <ele>457.1</ele>
        <time>2018-07-14T06:11:52.000Z</time>
      </trkpt>
      <trkpt lat="46.30064" lon="2.77959">
        <ele>456.75</ele>
        <time>2018-07-14T06:11:54.000Z</time>
      </trkpt>
      <trkpt lat="46.30058" lon="2.77937">
        <ele>456.2</ele>
        <time>2018-07-14T06:11:56.000Z</time>
      </trkpt>
      <trkpt lat="46.30053" lon="2.77915">
        <ele>455.56</ele>
        <time>2018-07-14T06:11:58.000Z</time>
      </trkpt>
      <trkpt lat="46.30047" lon="2.77895">
        <ele>455.08</ele>
        <time>2018-07-14T06:12:00.000Z</time>
      </trkpt>
      <trkpt lat="46.3004" lon="2.77875">
        <ele>454.78</ele>
        <time>2018-07-14T06:12:02.000Z</time>
      </trkpt>
      <trkpt lat="46.30034" lon="2.77854">
        <ele>454.47</ele>
        <time>2018-07-14T06:12:04.000Z</time>
      </trkpt>
      <trkpt lat="46.30026" lon="2.77834">
        <ele>454.28</ele>
        <time>2018-07-14T06:12:06.000Z</time>
      </trkpt>
      <trkpt lat="46.30018" lon="2.77815">
        <ele>454.27</ele>
        <time>2018-07-14T06:12:08.000Z</time>
      </trkpt>
      <trkpt lat="46.3001" lon="2.77794">
        <ele>454.19</ele>
        <time>2018-07-14T06:12:10.000Z</time>
      </trkpt>
      <trkpt lat="46.30003" lon="2.77774">
        <ele>453.77</ele>
        <time>2018-07-14T06:12:12.000Z</time>
      </trkpt>
      <trkpt lat="46.29995" lon="2.77753">
        <ele>453.15</ele>
        <time>2018-07-14T06:12:14.000Z</time>
      </trkpt>
      <trkpt lat="46.29988" lon="2.77734">
        <ele>452.27</ele>
        <time>2018-07-14T06:12:16.000Z</time>
      </trkpt>
      <trkpt lat="46.2998" lon="2.77714">
        <ele>451.8</ele>
        <time>2018-07-14T06:12:18.000Z</time>
      </trkpt>
      <trkpt lat="46.29972" lon="2.77695">
        <ele>451.2</ele>
        <time>2018-07-14T06:12:20.000Z</time>
      </trkpt>
      <trkpt lat="46.29965" lon="2.77675">
        <ele>450.23</ele>
        <time>2018-07-14T06:12:22.000Z</time>
      </trkpt>
      <trkpt lat="46.29958" lon="2.77655">
        <ele>449.68</ele>
        <time>2018-07-14T06:12:24.000Z</time>
      </trkpt>
      <trkpt lat="46.29952" lon="2.77633">
        <ele>448.68</ele>
        <time>2018-07-14T06:12:26.000Z</time>
      </trkpt>
      <trkpt lat="46.29945" lon="2.77612">
        <ele>447.74</ele>
        <time>2018-07-14T06:12:28.000Z</time>
      </trkpt>
      <trkpt lat="46.29937" lon="2.77591">
        <ele>447.1</ele>
        <time>2018-07-14T06:12:30.000Z</time>
      </trkpt>
      <trkpt lat="46.2993" lon="2.77569">
        <ele>445.97</ele>
        <time>2018-07-14T06:12:32.000Z</time>
      </trkpt>
      <trkpt lat="46.29923" lon="2.77548">
        <ele>445.01</ele>
        <time>2018-07-14T06:12:34.000Z</time>
      </trkpt>
      <trkpt lat="46.29916" lon="2.77527">
        <ele>445.03</ele>
        <time>2018-07-14T06:12:36.000Z</time>
      </trkpt>
      <trkpt lat="46.2991" lon="2.77507">
        <ele>444.93</ele>
        <time>2018-07-14T06:12:38.000Z</time>
      </trkpt>
      <trkpt lat="46.29903" lon="2.77488">
        <ele>445.58</ele>
        <time>2018-07-14T06:12:40.000Z</time>
      </trkpt>
      <trkpt lat="46.29895" lon="2.77476">
        <ele>445.17</ele>
        <time>2018-07-14T06:12:42.000Z</time>
      </trkpt>
      <trkpt lat="46.29884" lon="2.77491">
        <ele>446.95</ele>
        <time>2018-07-14T06:12:45.000Z</time>
      </trkpt>
      <trkpt lat="46.29877" lon="2.77509">
        <ele>446.88</ele>
        <time>2018-07-14T06:12:47.000Z</time>
      </trkpt>
      <trkpt lat="46.29869" lon="2.77527">
        <ele>447.31</ele>
        <time>2018-07-14T06:12:49.000Z</time>
      </trkpt>
      <trkpt lat="46.29864" lon="2.77546">
        <ele>447.77</ele>
        <time>2018-07-14T06:12:51.000Z</time>
      </trkpt>
      <trkpt lat="46.29859" lon="2.77565">
        <ele>448.14</ele>
        <time>2018-07-14T06:12:53.000Z</time>
      </trkpt>
      <trkpt lat="46.29855" lon="2.77584">
        <ele>448.4</ele>
        <time>2018-07-14T06:12:55.000Z</time>
      </trkpt>
      <trkpt lat="46.29851" lon="2.77603">
        <ele>448.34</ele>
        <time>2018-07-14T06:12:57.000Z</time>
      </trkpt>
      <trkpt lat="46.29846" lon="2.77623">
        <ele>448.14</ele>
        <time>2018-07-14T06:12:59.000Z</time>
      </trkpt>
      <trkpt lat="46.29841" lon="2.77642">
        <ele>447.94</ele>
        <time>2018-07-14T06:13:01.000Z</time>
      </trkpt>
      <trkpt lat="46.29835" lon="2.77661">
        <ele>448</ele>
        <time>2018-07-14T06:13:03.000Z</time>
      </trkpt>
      <trkpt lat="46.2983" lon="2.7768">
        <ele>447.94</ele>
        <time>2018-07-14T06:13:05.000Z</time>
      </trkpt>
      <trkpt lat="46.29825" lon="2.777">
        <ele>447.83</ele>
        <time>2018-07-14T06:13:07.000Z</time>
      </trkpt>
      <trkpt lat="46.29821" lon="2.77719">
        <ele>448</ele>
        <time>2018-07-14T06:13:09.000Z</time>
      </trkpt>
      <trkpt lat="46.29817" lon="2.77738">
        <ele>447.94</ele>
        <time>2018-07-14T06:13:11.000Z</time>
      </trkpt>
      <trkpt lat="46.29813" lon="2.77756">
        <ele>448.28</ele>
        <time>2018-07-14T06:13:13.000Z</time>
      </trkpt>
      <trkpt lat="46.29808" lon="2.77776">
        <ele>448.97</ele>
        <time>2018-07-14T06:13:15.000Z</time>
      </trkpt>
      <trkpt lat="46.29803" lon="2.77797">
        <ele>449.31</ele>
        <time>2018-07-14T06:13:17.000Z</time>
      </trkpt>
      <trkpt lat="46.29799" lon="2.77819">
        <ele>449.41</ele>
        <time>2018-07-14T06:13:19.000Z</time>
      </trkpt>
      <trkpt lat="46.29794" lon="2.7784">
        <ele>449.68</ele>
        <time>2018-07-14T06:13:21.000Z</time>
      </trkpt>
      <trkpt lat="46.29789" lon="2.77862">
        <ele>449.89</ele>
        <time>2018-07-14T06:13:23.000Z</time>
      </trkpt>
      <trkpt lat="46.29783" lon="2.77884">
        <ele>449.78</ele>
        <time>2018-07-14T06:13:25.000Z</time>
      </trkpt>
      <trkpt lat="46.29778" lon="2.77906">
        <ele>450.2</ele>
        <time>2018-07-14T06:13:27.000Z</time>
      </trkpt>
      <trkpt lat="46.29773" lon="2.77928">
        <ele>450.09</ele>
        <time>2018-07-14T06:13:29.000Z</time>
      </trkpt>
      <trkpt lat="46.29768" lon="2.7795">
        <ele>449.45</ele>
        <time>2018-07-14T06:13:31.000Z</time>
      </trkpt>
      <trkpt lat="46.29764" lon="2.77972">
        <ele>448.85</ele>
        <time>2018-07-14T06:13:33.000Z</time>
      </trkpt>
      <trkpt lat="46.29759" lon="2.77994">
        <ele>448.39</ele>
        <time>2018-07-14T06:13:35.000Z</time>
      </trkpt>
      <trkpt lat="46.29754" lon="2.78027">
        <ele>448.55</ele>
        <time>2018-07-14T06:13:38.000Z</time>
      </trkpt>
      <trkpt lat="46.2975" lon="2.78048">
        <ele>448.7</ele>
        <time>2018-07-14T06:13:40.000Z</time>
      </trkpt>
      <trkpt lat="46.29746" lon="2.78069">
        <ele>448.62</ele>
        <time>2018-07-14T06:13:42.000Z</time>
      </trkpt>
      <trkpt lat="46.29742" lon="2.7809">
        <ele>448.95</ele>
        <time>2018-07-14T06:13:44.000Z</time>
      </trkpt>
      <trkpt lat="46.29739" lon="2.7811">
        <ele>449.16</ele>
        <time>2018-07-14T06:13:46.000Z</time>
      </trkpt>
      <trkpt lat="46.29736" lon="2.7813">
        <ele>449.29</ele>
        <time>2018-07-14T06:13:48.000Z</time>
      </trkpt>
      <trkpt lat="46.29733" lon="2.78151">
        <ele>449.4</ele>
        <time>2018-07-14T06:13:50.000Z</time>
      </trkpt>
      <trkpt lat="46.29729" lon="2.78171">
        <ele>449.45</ele>
        <time>2018-07-14T06:13:52.000Z</time>
      </trkpt>
      <trkpt lat="46.29725" lon="2.78191">
        <ele>449.68</ele>
        <time>2018-07-14T06:13:54.000Z</time>
      </trkpt>
      <trkpt lat="46.29722" lon="2.7821">
        <ele>449.93</ele>
        <time>2018-07-14T06:13:56.000Z</time>
      </trkpt>
      <trkpt lat="46.29718" lon="2.78229">
        <ele>450.18</ele>
        <time>2018-07-14T06:13:58.000Z</time>
      </trkpt>
      <trkpt lat="46.29715" lon="2.78248">
        <ele>450.07</ele>
        <time>2018-07-14T06:14:00.000Z</time>
      </trkpt>
      <trkpt lat="46.29711" lon="2.78268">
        <ele>450.25</ele>
        <time>2018-07-14T06:14:02.000Z</time>
      </trkpt>
      <trkpt lat="46.29707" lon="2.78289">
        <ele>450.35</ele>
        <time>2018-07-14T06:14:04.000Z</time>
      </trkpt>
      <trkpt lat="46.29704" lon="2.78309">
        <ele>450.37</ele>
        <time>2018-07-14T06:14:06.000Z</time>
      </trkpt>
      <trkpt lat="46.29701" lon="2.78329">
        <ele>450.37</ele>
        <time>2018-07-14T06:14:08.000Z</time>
      </trkpt>
      <trkpt lat="46.29697" lon="2.78349">
        <ele>450.6</ele>
        <time>2018-07-14T06:14:10.000Z</time>
      </trkpt>
      <trkpt lat="46.29694" lon="2.78368">
        <ele>450.87</ele>
        <time>2018-07-14T06:14:12.000Z</time>
      </trkpt>
      <trkpt lat="46.29691" lon="2.78387">
        <ele>451.05</ele>
        <time>2018-07-14T06:14:14.000Z</time>
      </trkpt>
      <trkpt lat="46.29688" lon="2.78407">
        <ele>451.35</ele>
        <time>2018-07-14T06:14:16.000Z</time>
      </trkpt>
      <trkpt lat="46.29684" lon="2.78427">
        <ele>451.43</ele>
        <time>2018-07-14T06:14:18.000Z</time>
      </trkpt>
      <trkpt lat="46.29681" lon="2.78447">
        <ele>451.59</ele>
        <time>2018-07-14T06:14:20.000Z</time>
      </trkpt>
      <trkpt lat="46.29678" lon="2.78467">
        <ele>451.9</ele>
        <time>2018-07-14T06:14:22.000Z</time>
      </trkpt>
      <trkpt lat="46.29675" lon="2.78486">
        <ele>452.29</ele>
        <time>2018-07-14T06:14:24.000Z</time>
      </trkpt>
      <trkpt lat="46.29673" lon="2.78506">
        <ele>452.61</ele>
        <time>2018-07-14T06:14:26.000Z</time>
      </trkpt>
      <trkpt lat="46.29669" lon="2.78524">
        <ele>452.79</ele>
        <time>2018-07-14T06:14:28.000Z</time>
      </trkpt>
      <trkpt lat="46.29666" lon="2.78544">
        <ele>452.94</ele>
        <time>2018-07-14T06:14:30.000Z</time>
      </trkpt>
      <trkpt lat="46.29662" lon="2.78564">
        <ele>452.82</ele>
        <time>2018-07-14T06:14:32.000Z</time>
      </trkpt>
      <trkpt lat="46.29654" lon="2.78594">
        <ele>452.65</ele>
        <time>2018-07-14T06:14:35.000Z</time>
      </trkpt>
      <trkpt lat="46.29646" lon="2.78613">
        <ele>452.66</ele>
        <time>2018-07-14T06:14:37.000Z</time>
      </trkpt>
      <trkpt lat="46.29638" lon="2.7863">
        <ele>452.65</ele>
        <time>2018-07-14T06:14:39.000Z</time>
      </trkpt>
      <trkpt lat="46.29629" lon="2.78648">
        <ele>452.29</ele>
        <time>2018-07-14T06:14:41.000Z</time>
      </trkpt>
      <trkpt lat="46.29621" lon="2.78665">
        <ele>451.73</ele>
        <time>2018-07-14T06:14:43.000Z</time>
      </trkpt>
      <trkpt lat="46.29613" lon="2.78683">
        <ele>451.61</ele>
        <time>2018-07-14T06:14:45.000Z</time>
      </trkpt>
      <trkpt lat="46.29605" lon="2.78699">
        <ele>451.53</ele>
        <time>2018-07-14T06:14:47.000Z</time>
      </trkpt>
      <trkpt lat="46.29597" lon="2.78717">
        <ele>451.26</ele>
        <time>2018-07-14T06:14:49.000Z</time>
      </trkpt>
      <trkpt lat="46.29589" lon="2.78735">
        <ele>451.1</ele>
        <time>2018-07-14T06:14:51.000Z</time>
      </trkpt>
      <trkpt lat="46.29582" lon="2.78753">
        <ele>451.14</ele>
        <time>2018-07-14T06:14:53.000Z</time>
      </trkpt>
      <trkpt lat="46.29575" lon="2.78772">
        <ele>451.46</ele>
        <time>2018-07-14T06:14:55.000Z</time>
      </trkpt>
      <trkpt lat="46.29569" lon="2.78791">
        <ele>451.78</ele>
        <time>2018-07-14T06:14:57.000Z</time>
      </trkpt>
      <trkpt lat="46.29561" lon="2.78809">
        <ele>452.14</ele>
        <time>2018-07-14T06:14:59.000Z</time>
      </trkpt>
      <trkpt lat="46.29554" lon="2.78826">
        <ele>452.39</ele>
        <time>2018-07-14T06:15:01.000Z</time>
      </trkpt>
      <trkpt lat="46.29547" lon="2.78843">
        <ele>452.88</ele>
        <time>2018-07-14T06:15:03.000Z</time>
      </trkpt>
      <trkpt lat="46.2954" lon="2.78858">
        <ele>453.63</ele>
        <time>2018-07-14T06:15:05.000Z</time>
      </trkpt>
      <trkpt lat="46.29532" lon="2.78873">
        <ele>454.3</ele>
        <time>2018-07-14T06:15:07.000Z</time>
      </trkpt>
      <trkpt lat="46.29524" lon="2.78887">
        <ele>454.79</ele>
        <time>2018-07-14T06:15:09.000Z</time>
      </trkpt>
      <trkpt lat="46.29515" lon="2.78901">
        <ele>455.22</ele>
        <time>2018-07-14T06:15:11.000Z</time>
      </trkpt>
      <trkpt lat="46.29505" lon="2.78914">
        <ele>455.66</ele>
        <time>2018-07-14T06:15:13.000Z</time>
      </trkpt>
      <trkpt lat="46.29496" lon="2.78927">
        <ele>456.11</ele>
        <time>2018-07-14T06:15:15.000Z</time>
      </trkpt>
      <trkpt lat="46.29487" lon="2.78939">
        <ele>456.94</ele>
        <time>2018-07-14T06:15:17.000Z</time>
      </trkpt>
      <trkpt lat="46.29477" lon="2.78951">
        <ele>457.81</ele>
        <time>2018-07-14T06:15:19.000Z</time>
      </trkpt>
      <trkpt lat="46.29467" lon="2.78963">
        <ele>458.47</ele>
        <time>2018-07-14T06:15:21.000Z</time>
      </trkpt>
      <trkpt lat="46.29458" lon="2.78976">
        <ele>458.86</ele>
        <time>2018-07-14T06:15:23.000Z</time>
      </trkpt>
      <trkpt lat="46.29448" lon="2.78988">
        <ele>459.44</ele>
        <time>2018-07-14T06:15:25.000Z</time>
      </trkpt>
      <trkpt lat="46.29438" lon="2.79001">
        <ele>460.01</ele>
        <time>2018-07-14T06:15:27.000Z</time>
      </trkpt>
      <trkpt lat="46.29428" lon="2.79014">
        <ele>460.52</ele>
        <time>2018-07-14T06:15:29.000Z</time>
      </trkpt>
      <trkpt lat="46.29418" lon="2.79026">
        <ele>461.3</ele>
        <time>2018-07-14T06:15:31.000Z</time>
      </trkpt>
      <trkpt lat="46.29409" lon="2.79038">
        <ele>462.01</ele>
        <time>2018-07-14T06:15:33.000Z</time>
      </trkpt>
      <trkpt lat="46.29399" lon="2.79049">
        <ele>462.6</ele>
        <time>2018-07-14T06:15:35.000Z</time>
      </trkpt>
      <trkpt lat="46.2939" lon="2.79061">
        <ele>462.95</ele>
        <time>2018-07-14T06:15:37.000Z</time>
      </trkpt>
      <trkpt lat="46.2938" lon="2.79073">
        <ele>463.08</ele>
        <time>2018-07-14T06:15:39.000Z</time>
      </trkpt>
      <trkpt lat="46.29372" lon="2.79084">
        <ele>463.34</ele>
        <time>2018-07-14T06:15:41.000Z</time>
      </trkpt>
      <trkpt lat="46.29363" lon="2.79095">
        <ele>463.34</ele>
        <time>2018-07-14T06:15:43.000Z</time>
      </trkpt>
      <trkpt lat="46.29353" lon="2.79106">
        <ele>463.15</ele>
        <time>2018-07-14T06:15:45.000Z</time>
      </trkpt>
      <trkpt lat="46.29344" lon="2.79117">
        <ele>462.94</ele>
        <time>2018-07-14T06:15:47.000Z</time>
      </trkpt>
      <trkpt lat="46.29331" lon="2.79134">
        <ele>462.85</ele>
        <time>2018-07-14T06:15:50.000Z</time>
      </trkpt>
      <trkpt lat="46.29322" lon="2.79144">
        <ele>463.03</ele>
        <time>2018-07-14T06:15:52.000Z</time>
      </trkpt>
      <trkpt lat="46.29314" lon="2.79155">
        <ele>463.34</ele>
        <time>2018-07-14T06:15:54.000Z</time>
      </trkpt>
      <trkpt lat="46.29306" lon="2.79166">
        <ele>463.54</ele>
        <time>2018-07-14T06:15:56.000Z</time>
      </trkpt>
      <trkpt lat="46.29298" lon="2.79177">
        <ele>463.62</ele>
        <time>2018-07-14T06:15:58.000Z</time>
      </trkpt>
      <trkpt lat="46.2929" lon="2.79188">
        <ele>463.47</ele>
        <time>2018-07-14T06:16:00.000Z</time>
      </trkpt>
      <trkpt lat="46.29282" lon="2.79199">
        <ele>463.38</ele>
        <time>2018-07-14T06:16:02.000Z</time>
      </trkpt>
      <trkpt lat="46.29274" lon="2.79209">
        <ele>463.12</ele>
        <time>2018-07-14T06:16:04.000Z</time>
      </trkpt>
      <trkpt lat="46.29266" lon="2.79219">
        <ele>463.04</ele>
        <time>2018-07-14T06:16:06.000Z</time>
      </trkpt>
      <trkpt lat="46.29258" lon="2.7923">
        <ele>463.02</ele>
        <time>2018-07-14T06:16:08.000Z</time>
      </trkpt>
      <trkpt lat="46.29248" lon="2.79241">
        <ele>463.22</ele>
        <time>2018-07-14T06:16:10.000Z</time>
      </trkpt>
      <trkpt lat="46.2924" lon="2.79251">
        <ele>463.49</ele>
        <time>2018-07-14T06:16:12.000Z</time>
      </trkpt>
      <trkpt lat="46.29231" lon="2.79261">
        <ele>463.61</ele>
        <time>2018-07-14T06:16:14.000Z</time>
      </trkpt>
      <trkpt lat="46.29223" lon="2.79272">
        <ele>463.95</ele>
        <time>2018-07-14T06:16:16.000Z</time>
      </trkpt>
      <trkpt lat="46.29215" lon="2.79283">
        <ele>464.66</ele>
        <time>2018-07-14T06:16:18.000Z</time>
      </trkpt>
      <trkpt lat="46.29207" lon="2.79294">
        <ele>465.28</ele>
        <time>2018-07-14T06:16:20.000Z</time>
      </trkpt>
      <trkpt lat="46.29198" lon="2.79305">
        <ele>465.7</ele>
        <time>2018-07-14T06:16:22.000Z</time>
      </trkpt>
      <trkpt lat="46.29189" lon="2.79317">
        <ele>466.09</ele>
        <time>2018-07-14T06:16:24.000Z</time>
      </trkpt>
      <trkpt lat="46.2918" lon="2.7933">
        <ele>466.15</ele>
        <time>2018-07-14T06:16:26.000Z</time>
      </trkpt>
      <trkpt lat="46.29168" lon="2.7935">
        <ele>466.12</ele>
        <time>2018-07-14T06:16:29.000Z</time>
      </trkpt>
      <trkpt lat="46.29159" lon="2.79363">
        <ele>466.13</ele>
        <time>2018-07-14T06:16:31.000Z</time>
      </trkpt>
      <trkpt lat="46.2915" lon="2.79376">
        <ele>466.21</ele>
        <time>2018-07-14T06:16:33.000Z</time>
      </trkpt>
      <trkpt lat="46.29142" lon="2.79388">
        <ele>466.21</ele>
        <time>2018-07-14T06:16:35.000Z</time>
      </trkpt>
      <trkpt lat="46.29133" lon="2.79401">
        <ele>466.32</ele>
        <time>2018-07-14T06:16:37.000Z</time>
      </trkpt>
      <trkpt lat="46.29125" lon="2.79414">
        <ele>466.31</ele>
        <time>2018-07-14T06:16:39.000Z</time>
      </trkpt>
      <trkpt lat="46.29117" lon="2.79427">
        <ele>466.55</ele>
        <time>2018-07-14T06:16:41.000Z</time>
      </trkpt>
      <trkpt lat="46.29108" lon="2.7944">
        <ele>466.62</ele>
        <time>2018-07-14T06:16:43.000Z</time>
      </trkpt>
      <trkpt lat="46.29099" lon="2.79453">
        <ele>466.71</ele>
        <time>2018-07-14T06:16:45.000Z</time>
      </trkpt>
      <trkpt lat="46.29089" lon="2.79466">
        <ele>466.74</ele>
        <time>2018-07-14T06:16:47.000Z</time>
      </trkpt>
      <trkpt lat="46.2908" lon="2.79478">
        <ele>467.46</ele>
        <time>2018-07-14T06:16:49.000Z</time>
      </trkpt>
      <trkpt lat="46.29073" lon="2.79489">
        <ele>468.3</ele>
        <time>2018-07-14T06:16:51.000Z</time>
      </trkpt>
      <trkpt lat="46.29064" lon="2.795">
        <ele>469.01</ele>
        <time>2018-07-14T06:16:53.000Z</time>
      </trkpt>
      <trkpt lat="46.29055" lon="2.79512">
        <ele>469.79</ele>
        <time>2018-07-14T06:16:55.000Z</time>
      </trkpt>
      <trkpt lat="46.29047" lon="2.79525">
        <ele>470.33</ele>
        <time>2018-07-14T06:16:57.000Z</time>
      </trkpt>
      <trkpt lat="46.29039" lon="2.79537">
        <ele>470.93</ele>
        <time>2018-07-14T06:16:59.000Z</time>
      </trkpt>
      <trkpt lat="46.29029" lon="2.7955">
        <ele>471.38</ele>
        <time>2018-07-14T06:17:01.000Z</time>
      </trkpt>
      <trkpt lat="46.2902" lon="2.79562">
        <ele>472.21</ele>
        <time>2018-07-14T06:17:03.000Z</time>
      </trkpt>
      <trkpt lat="46.29012" lon="2.79574">
        <ele>473.09</ele>
        <time>2018-07-14T06:17:05.000Z</time>
      </trkpt>
      <trkpt lat="46.29002" lon="2.79585">
        <ele>474.05</ele>
        <time>2018-07-14T06:17:07.000Z</time>
      </trkpt>
      <trkpt lat="46.28993" lon="2.79595">
        <ele>474.6</ele>
        <time>2018-07-14T06:17:09.000Z</time>
      </trkpt>
      <trkpt lat="46.28983" lon="2.79604">
        <ele>474.79</ele>
        <time>2018-07-14T06:17:11.000Z</time>
      </trkpt>
      <trkpt lat="46.28973" lon="2.79613">
        <ele>474.67</ele>
        <time>2018-07-14T06:17:13.000Z</time>
      </trkpt>
      <trkpt lat="46.28964" lon="2.79621">
        <ele>474.57</ele>
        <time>2018-07-14T06:17:15.000Z</time>
      </trkpt>
      <trkpt lat="46.28955" lon="2.79628">
        <ele>474.71</ele>
        <time>2018-07-14T06:17:17.000Z</time>
      </trkpt>
      <trkpt lat="46.28946" lon="2.79634">
        <ele>474.88</ele>
        <time>2018-07-14T06:17:19.000Z</time>
      </trkpt>
      <trkpt lat="46.28935" lon="2.79642">
        <ele>475.1</ele>
        <time>2018-07-14T06:17:21.000Z</time>
      </trkpt>
      <trkpt lat="46.28925" lon="2.7965">
        <ele>475.4</ele>
        <time>2018-07-14T06:17:23.000Z</time>
      </trkpt>
      <trkpt lat="46.28917" lon="2.79658">
        <ele>475.92</ele>
        <time>2018-07-14T06:17:25.000Z</time>
      </trkpt>
      <trkpt lat="46.28907" lon="2.79666">
        <ele>476.62</ele>
        <time>2018-07-14T06:17:27.000Z</time>
      </trkpt>
      <trkpt lat="46.28898" lon="2.79675">
        <ele>477.19</ele>
        <time>2018-07-14T06:17:29.000Z</time>
      </trkpt>
      <trkpt lat="46.28889" lon="2.79683">
        <ele>477.66</ele>
        <time>2018-07-14T06:17:31.000Z</time>
      </trkpt>
      <trkpt lat="46.2888" lon="2.79691">
        <ele>478.04</ele>
        <time>2018-07-14T06:17:33.000Z</time>
      </trkpt>
      <trkpt lat="46.28871" lon="2.797">
        <ele>478.29</ele>
        <time>2018-07-14T06:17:35.000Z</time>
      </trkpt>
      <trkpt lat="46.28862" lon="2.79708">
        <ele>478.51</ele>
        <time>2018-07-14T06:17:37.000Z</time>
      </trkpt>
      <trkpt lat="46.28853" lon="2.79715">
        <ele>478.62</ele>
        <time>2018-07-14T06:17:39.000Z</time>
      </trkpt>
      <trkpt lat="46.28843" lon="2.79723">
        <ele>478.74</ele>
        <time>2018-07-14T06:17:41.000Z</time>
      </trkpt>
      <trkpt lat="46.28834" lon="2.7973">
        <ele>478.65</ele>
        <time>2018-07-14T06:17:43.000Z</time>
      </trkpt>
      <trkpt lat="46.28825" lon="2.79739">
        <ele>478.35</ele>
        <time>2018-07-14T06:17:45.000Z</time>
      </trkpt>
      <trkpt lat="46.28817" lon="2.79747">
        <ele>478.44</ele>
        <time>2018-07-14T06:17:47.000Z</time>
      </trkpt>
      <trkpt lat="46.28808" lon="2.79756">
        <ele>478.59</ele>
        <time>2018-07-14T06:17:49.000Z</time>
      </trkpt>
      <trkpt lat="46.28799" lon="2.79764">
        <ele>478.83</ele>
        <time>2018-07-14T06:17:51.000Z</time>
      </trkpt>
      <trkpt lat="46.28789" lon="2.79772">
        <ele>479.35</ele>
        <time>2018-07-14T06:17:53.000Z</time>
      </trkpt>
      <trkpt lat="46.28779" lon="2.79781">
        <ele>479.74</ele>
        <time>2018-07-14T06:17:55.000Z</time>
      </trkpt>
      <trkpt lat="46.28769" lon="2.79789">
        <ele>479.96</ele>
        <time>2018-07-14T06:17:57.000Z</time>
      </trkpt>
      <trkpt lat="46.28758" lon="2.79797">
        <ele>479.99</ele>
        <time>2018-07-14T06:17:59.000Z</time>
      </trkpt>
      <trkpt lat="46.2875" lon="2.79805">
        <ele>479.67</ele>
        <time>2018-07-14T06:18:01.000Z</time>
      </trkpt>
      <trkpt lat="46.28741" lon="2.79813">
        <ele>479.35</ele>
        <time>2018-07-14T06:18:03.000Z</time>
      </trkpt>
      <trkpt lat="46.28732" lon="2.79821">
        <ele>479.38</ele>
        <time>2018-07-14T06:18:05.000Z</time>
      </trkpt>
      <trkpt lat="46.28725" lon="2.79829">
        <ele>479.5</ele>
        <time>2018-07-14T06:18:07.000Z</time>
      </trkpt>
      <trkpt lat="46.28717" lon="2.79838">
        <ele>479.56</ele>
        <time>2018-07-14T06:18:09.000Z</time>
      </trkpt>
      <trkpt lat="46.28709" lon="2.79848">
        <ele>480.24</ele>
        <time>2018-07-14T06:18:11.000Z</time>
      </trkpt>
      <trkpt lat="46.28702" lon="2.79858">
        <ele>480.86</ele>
        <time>2018-07-14T06:18:13.000Z</time>
      </trkpt>
      <trkpt lat="46.28695" lon="2.79869">
        <ele>481.47</ele>
        <time>2018-07-14T06:18:15.000Z</time>
      </trkpt>
      <trkpt lat="46.28687" lon="2.79881">
        <ele>482.54</ele>
        <time>2018-07-14T06:18:17.000Z</time>
      </trkpt>
      <trkpt lat="46.2868" lon="2.79893">
        <ele>483.27</ele>
        <time>2018-07-14T06:18:19.000Z</time>
      </trkpt>
      <trkpt lat="46.28674" lon="2.79905">
        <ele>483.81</ele>
        <time>2018-07-14T06:18:21.000Z</time>
      </trkpt>
      <trkpt lat="46.28666" lon="2.79919">
        <ele>484.05</ele>
        <time>2018-07-14T06:18:23.000Z</time>
      </trkpt>
      <trkpt lat="46.28659" lon="2.79933">
        <ele>484.4</ele>
        <time>2018-07-14T06:18:25.000Z</time>
      </trkpt>
      <trkpt lat="46.28651" lon="2.79948">
        <ele>484.98</ele>
        <time>2018-07-14T06:18:27.000Z</time>
      </trkpt>
      <trkpt lat="46.28644" lon="2.79962">
        <ele>485.5</ele>
        <time>2018-07-14T06:18:29.000Z</time>
      </trkpt>
      <trkpt lat="46.28637" lon="2.79975">
        <ele>486.09</ele>
        <time>2018-07-14T06:18:31.000Z</time>
      </trkpt>
      <trkpt lat="46.2863" lon="2.79988">
        <ele>486.79</ele>
        <time>2018-07-14T06:18:33.000Z</time>
      </trkpt>
      <trkpt lat="46.28624" lon="2.80001">
        <ele>486.93</ele>
        <time>2018-07-14T06:18:35.000Z</time>
      </trkpt>
      <trkpt lat="46.28613" lon="2.8002">
        <ele>487.37</ele>
        <time>2018-07-14T06:18:38.000Z</time>
      </trkpt>
      <trkpt lat="46.28606" lon="2.80033">
        <ele>487.84</ele>
        <time>2018-07-14T06:18:40.000Z</time>
      </trkpt>
      <trkpt lat="46.286" lon="2.80044">
        <ele>488.75</ele>
        <time>2018-07-14T06:18:42.000Z</time>
      </trkpt>
      <trkpt lat="46.28593" lon="2.80057">
        <ele>489.43</ele>
        <time>2018-07-14T06:18:44.000Z</time>
      </trkpt>
      <trkpt lat="46.28585" lon="2.80069">
        <ele>490.19</ele>
        <time>2018-07-14T06:18:46.000Z</time>
      </trkpt>
      <trkpt lat="46.28578" lon="2.80082">
        <ele>491.54</ele>
        <time>2018-07-14T06:18:48.000Z</time>
      </trkpt>
      <trkpt lat="46.28571" lon="2.80096">
        <ele>492.7</ele>
        <time>2018-07-14T06:18:50.000Z</time>
      </trkpt>
      <trkpt lat="46.28565" lon="2.8011">
        <ele>493.77</ele>
        <time>2018-07-14T06:18:52.000Z</time>
      </trkpt>
      <trkpt lat="46.28559" lon="2.80123">
        <ele>494.25</ele>
        <time>2018-07-14T06:18:54.000Z</time>
      </trkpt>
      <trkpt lat="46.28553" lon="2.80137">
        <ele>494.46</ele>
        <time>2018-07-14T06:18:56.000Z</time>
      </trkpt>
      <trkpt lat="46.28547" lon="2.80152">
        <ele>494.36</ele>
        <time>2018-07-14T06:18:58.000Z</time>
      </trkpt>
      <trkpt lat="46.28541" lon="2.80167">
        <ele>494.39</ele>
        <time>2018-07-14T06:19:00.000Z</time>
      </trkpt>
      <trkpt lat="46.28536" lon="2.80183">
        <ele>494.25</ele>
        <time>2018-07-14T06:19:02.000Z</time>
      </trkpt>
      <trkpt lat="46.28531" lon="2.80199">
        <ele>494.61</ele>
        <time>2018-07-14T06:19:04.000Z</time>
      </trkpt>
      <trkpt lat="46.28527" lon="2.80216">
        <ele>494.77</ele>
        <time>2018-07-14T06:19:06.000Z</time>
      </trkpt>
      <trkpt lat="46.28522" lon="2.80233">
        <ele>495.44</ele>
        <time>2018-07-14T06:19:08.000Z</time>
      </trkpt>
      <trkpt lat="46.28517" lon="2.80251">
        <ele>496.15</ele>
        <time>2018-07-14T06:19:10.000Z</time>
      </trkpt>
      <trkpt lat="46.28513" lon="2.80269">
        <ele>496.83</ele>
        <time>2018-07-14T06:19:12.000Z</time>
      </trkpt>
      <trkpt lat="46.28508" lon="2.80287">
        <ele>497.18</ele>
        <time>2018-07-14T06:19:14.000Z</time>
      </trkpt>
      <trkpt lat="46.28505" lon="2.80303">
        <ele>497.65</ele>
        <time>2018-07-14T06:19:16.000Z</time>
      </trkpt>
      <trkpt lat="46.28501" lon="2.8032">
        <ele>497.87</ele>
        <time>2018-07-14T06:19:18.000Z</time>
      </trkpt>
      <trkpt lat="46.28497" lon="2.80336">
        <ele>497.84</ele>
        <time>2018-07-14T06:19:20.000Z</time>
      </trkpt>
      <trkpt lat="46.28492" lon="2.80352">
        <ele>497.54</ele>
        <time>2018-07-14T06:19:22.000Z</time>
      </trkpt>
      <trkpt lat="46.28488" lon="2.80369">
        <ele>497.63</ele>
        <time>2018-07-14T06:19:24.000Z</time>
      </trkpt>
      <trkpt lat="46.28483" lon="2.80385">
        <ele>497.74</ele>
        <time>2018-07-14T06:19:26.000Z</time>
      </trkpt>
      <trkpt lat="46.28478" lon="2.80401">
        <ele>497.95</ele>
        <time>2018-07-14T06:19:28.000Z</time>
      </trkpt>
      <trkpt lat="46.28473" lon="2.80416">
        <ele>498.36</ele>
        <time>2018-07-14T06:19:30.000Z</time>
      </trkpt>
      <trkpt lat="46.28468" lon="2.8043">
        <ele>499</ele>
        <time>2018-07-14T06:19:32.000Z</time>
      </trkpt>
      <trkpt lat="46.28463" lon="2.80445">
        <ele>499.44</ele>
        <time>2018-07-14T06:19:34.000Z</time>
      </trkpt>
      <trkpt lat="46.28458" lon="2.80461">
        <ele>499.94</ele>
        <time>2018-07-14T06:19:36.000Z</time>
      </trkpt>
      <trkpt lat="46.28452" lon="2.80477">
        <ele>500.53</ele>
        <time>2018-07-14T06:19:38.000Z</time>
      </trkpt>
      <trkpt lat="46.28447" lon="2.80494">
        <ele>500.89</ele>
        <time>2018-07-14T06:19:40.000Z</time>
      </trkpt>
      <trkpt lat="46.28442" lon="2.80511">
        <ele>501.22</ele>
        <time>2018-07-14T06:19:42.000Z</time>
      </trkpt>
      <trkpt lat="46.28437" lon="2.80528">
        <ele>501.5</ele>
        <time>2018-07-14T06:19:44.000Z</time>
      </trkpt>
      <trkpt lat="46.28433" lon="2.80545">
        <ele>501.81</ele>
        <time>2018-07-14T06:19:46.000Z</time>
      </trkpt>
      <trkpt lat="46.28428" lon="2.80562">
        <ele>502.06</ele>
        <time>2018-07-14T06:19:48.000Z</time>
      </trkpt>
      <trkpt lat="46.28424" lon="2.80579">
        <ele>502.39</ele>
        <time>2018-07-14T06:19:50.000Z</time>
      </trkpt>
      <trkpt lat="46.28421" lon="2.80595">
        <ele>502.39</ele>
        <time>2018-07-14T06:19:52.000Z</time>
      </trkpt>
      <trkpt lat="46.28417" lon="2.80611">
        <ele>502.31</ele>
        <time>2018-07-14T06:19:54.000Z</time>
      </trkpt>
      <trkpt lat="46.28413" lon="2.80629">
        <ele>501.83</ele>
        <time>2018-07-14T06:19:56.000Z</time>
      </trkpt>
      <trkpt lat="46.2841" lon="2.80647">
        <ele>501.47</ele>
        <time>2018-07-14T06:19:58.000Z</time>
      </trkpt>
      <trkpt lat="46.28406" lon="2.80664">
        <ele>500.96</ele>
        <time>2018-07-14T06:20:00.000Z</time>
      </trkpt>
      <trkpt lat="46.28402" lon="2.80681">
        <ele>500.81</ele>
        <time>2018-07-14T06:20:02.000Z</time>
      </trkpt>
      <trkpt lat="46.28399" lon="2.80697">
        <ele>500.57</ele>
        <time>2018-07-14T06:20:04.000Z</time>
      </trkpt>
      <trkpt lat="46.28396" lon="2.80714">
        <ele>500.49</ele>
        <time>2018-07-14T06:20:06.000Z</time>
      </trkpt>
      <trkpt lat="46.28391" lon="2.80732">
        <ele>500.8</ele>
        <time>2018-07-14T06:20:08.000Z</time>
      </trkpt>
      <trkpt lat="46.28386" lon="2.80751">
        <ele>501.11</ele>
        <time>2018-07-14T06:20:10.000Z</time>
      </trkpt>
      <trkpt lat="46.28383" lon="2.80768">
        <ele>501.49</ele>
        <time>2018-07-14T06:20:12.000Z</time>
      </trkpt>
      <trkpt lat="46.2838" lon="2.80784">
        <ele>501.78</ele>
        <time>2018-07-14T06:20:14.000Z</time>
      </trkpt>
      <trkpt lat="46.28378" lon="2.80801">
        <ele>502.18</ele>
        <time>2018-07-14T06:20:16.000Z</time>
      </trkpt>
      <trkpt lat="46.28375" lon="2.80817">
        <ele>502.57</ele>
        <time>2018-07-14T06:20:18.000Z</time>
      </trkpt>
      <trkpt lat="46.28373" lon="2.80833">
        <ele>502.87</ele>
        <time>2018-07-14T06:20:20.000Z</time>
      </trkpt>
      <trkpt lat="46.28371" lon="2.8085">
        <ele>503.28</ele>
        <time>2018-07-14T06:20:22.000Z</time>
      </trkpt>
      <trkpt lat="46.28369" lon="2.80868">
        <ele>503.69</ele>
        <time>2018-07-14T06:20:24.000Z</time>
      </trkpt>
      <trkpt lat="46.28367" lon="2.80886">
        <ele>503.99</ele>
        <time>2018-07-14T06:20:26.000Z</time>
      </trkpt>
      <trkpt lat="46.28365" lon="2.80903">
        <ele>504.09</ele>
        <time>2018-07-14T06:20:28.000Z</time>
      </trkpt>
      <trkpt lat="46.28362" lon="2.80921">
        <ele>504.45</ele>
        <time>2018-07-14T06:20:30.000Z</time>
      </trkpt>
      <trkpt lat="46.2836" lon="2.80938">
        <ele>505.04</ele>
        <time>2018-07-14T06:20:32.000Z</time>
      </trkpt>
      <trkpt lat="46.28358" lon="2.80954">
        <ele>505.77</ele>
        <time>2018-07-14T06:20:34.000Z</time>
      </trkpt>
      <trkpt lat="46.28357" lon="2.8097">
        <ele>506.46</ele>
        <time>2018-07-14T06:20:36.000Z</time>
      </trkpt>
      <trkpt lat="46.28355" lon="2.80986">
        <ele>507.06</ele>
        <time>2018-07-14T06:20:38.000Z</time>
      </trkpt>
      <trkpt lat="46.28354" lon="2.81003">
        <ele>507.43</ele>
        <time>2018-07-14T06:20:40.000Z</time>
      </trkpt>
      <trkpt lat="46.28355" lon="2.8102">
        <ele>507.75</ele>
        <time>2018-07-14T06:20:42.000Z</time>
      </trkpt>
      <trkpt lat="46.28355" lon="2.81035">
        <ele>508.21</ele>
        <time>2018-07-14T06:20:44.000Z</time>
      </trkpt>
      <trkpt lat="46.28355" lon="2.8105">
        <ele>509.12</ele>
        <time>2018-07-14T06:20:46.000Z</time>
      </trkpt>
      <trkpt lat="46.28356" lon="2.81064">
        <ele>509.58</ele>
        <time>2018-07-14T06:20:48.000Z</time>
      </trkpt>
      <trkpt lat="46.28357" lon="2.81078">
        <ele>509.9</ele>
        <time>2018-07-14T06:20:50.000Z</time>
      </trkpt>
      <trkpt lat="46.28358" lon="2.81092">
        <ele>510.4</ele>
        <time>2018-07-14T06:20:52.000Z</time>
      </trkpt>
      <trkpt lat="46.28359" lon="2.81107">
        <ele>510.79</ele>
        <time>2018-07-14T06:20:54.000Z</time>
      </trkpt>
      <trkpt lat="46.2836" lon="2.81121">
        <ele>511.4</ele>
        <time>2018-07-14T06:20:56.000Z</time>
      </trkpt>
      <trkpt lat="46.28361" lon="2.81137">
        <ele>511.77</ele>
        <time>2018-07-14T06:20:58.000Z</time>
      </trkpt>
      <trkpt lat="46.28361" lon="2.81152">
        <ele>511.92</ele>
        <time>2018-07-14T06:21:00.000Z</time>
      </trkpt>
      <trkpt lat="46.28362" lon="2.81168">
        <ele>511.78</ele>
        <time>2018-07-14T06:21:02.000Z</time>
      </trkpt>
      <trkpt lat="46.28361" lon="2.81184">
        <ele>511.73</ele>
        <time>2018-07-14T06:21:04.000Z</time>
      </trkpt>
      <trkpt lat="46.28361" lon="2.81203">
        <ele>511.09</ele>
        <time>2018-07-14T06:21:06.000Z</time>
      </trkpt>
      <trkpt lat="46.28362" lon="2.81221">
        <ele>510.9</ele>
        <time>2018-07-14T06:21:08.000Z</time>
      </trkpt>
      <trkpt lat="46.28363" lon="2.81239">
        <ele>510.86</ele>
        <time>2018-07-14T06:21:10.000Z</time>
      </trkpt>
      <trkpt lat="46.28364" lon="2.81256">
        <ele>510.7</ele>
        <time>2018-07-14T06:21:12.000Z</time>
      </trkpt>
      <trkpt lat="46.28365" lon="2.81274">
        <ele>511.06</ele>
        <time>2018-07-14T06:21:14.000Z</time>
      </trkpt>
      <trkpt lat="46.28365" lon="2.81291">
        <ele>511.26</ele>
        <time>2018-07-14T06:21:16.000Z</time>
      </trkpt>
      <trkpt lat="46.28366" lon="2.81308">
        <ele>511.72</ele>
        <time>2018-07-14T06:21:18.000Z</time>
      </trkpt>
      <trkpt lat="46.28368" lon="2.81325">
        <ele>512.15</ele>
        <time>2018-07-14T06:21:20.000Z</time>
      </trkpt>
      <trkpt lat="46.2837" lon="2.81342">
        <ele>512.51</ele>
        <time>2018-07-14T06:21:22.000Z</time>
      </trkpt>
      <trkpt lat="46.28372" lon="2.81361">
        <ele>513.09</ele>
        <time>2018-07-14T06:21:24.000Z</time>
      </trkpt>
      <trkpt lat="46.28374" lon="2.81379">
        <ele>513.33</ele>
        <time>2018-07-14T06:21:26.000Z</time>
      </trkpt>
      <trkpt lat="46.28376" lon="2.81398">
        <ele>513.48</ele>
        <time>2018-07-14T06:21:28.000Z</time>
      </trkpt>
      <trkpt lat="46.28379" lon="2.81416">
        <ele>513.62</ele>
        <time>2018-07-14T06:21:30.000Z</time>
      </trkpt>
      <trkpt lat="46.28381" lon="2.81435">
        <ele>513.9</ele>
        <time>2018-07-14T06:21:32.000Z</time>
      </trkpt>
      <trkpt lat="46.28383" lon="2.81453">
        <ele>514.26</ele>
        <time>2018-07-14T06:21:34.000Z</time>
      </trkpt>
      <trkpt lat="46.28385" lon="2.81471">
        <ele>514.54</ele>
        <time>2018-07-14T06:21:36.000Z</time>
      </trkpt>
      <trkpt lat="46.28387" lon="2.81488">
        <ele>515.14</ele>
        <time>2018-07-14T06:21:38.000Z</time>
      </trkpt>
      <trkpt lat="46.28389" lon="2.81506">
        <ele>515.5</ele>
        <time>2018-07-14T06:21:40.000Z</time>
      </trkpt>
      <trkpt lat="46.28391" lon="2.81525">
        <ele>515.73</ele>
        <time>2018-07-14T06:21:42.000Z</time>
      </trkpt>
      <trkpt lat="46.28393" lon="2.81541">
        <ele>516.15</ele>
        <time>2018-07-14T06:21:44.000Z</time>
      </trkpt>
      <trkpt lat="46.28395" lon="2.81557">
        <ele>516.79</ele>
        <time>2018-07-14T06:21:46.000Z</time>
      </trkpt>
      <trkpt lat="46.28396" lon="2.81572">
        <ele>517.07</ele>
        <time>2018-07-14T06:21:48.000Z</time>
      </trkpt>
      <trkpt lat="46.28397" lon="2.81588">
        <ele>517.6</ele>
        <time>2018-07-14T06:21:50.000Z</time>
      </trkpt>
      <trkpt lat="46.28399" lon="2.81603">
        <ele>518.07</ele>
        <time>2018-07-14T06:21:52.000Z</time>
      </trkpt>
      <trkpt lat="46.284" lon="2.81617">
        <ele>518.63</ele>
        <time>2018-07-14T06:21:54.000Z</time>
      </trkpt>
      <trkpt lat="46.28402" lon="2.81632">
        <ele>519.34</ele>
        <time>2018-07-14T06:21:56.000Z</time>
      </trkpt>
      <trkpt lat="46.28403" lon="2.81645">
        <ele>520.03</ele>
        <time>2018-07-14T06:21:58.000Z</time>
      </trkpt>
      <trkpt lat="46.28405" lon="2.8166">
        <ele>520.65</ele>
        <time>2018-07-14T06:22:00.000Z</time>
      </trkpt>
      <trkpt lat="46.28407" lon="2.81675">
        <ele>521.18</ele>
        <time>2018-07-14T06:22:02.000Z</time>
      </trkpt>
      <trkpt lat="46.28408" lon="2.8169">
        <ele>521.84</ele>
        <time>2018-07-14T06:22:04.000Z</time>
      </trkpt>
      <trkpt lat="46.2841" lon="2.81705">
        <ele>522.55</ele>
        <time>2018-07-14T06:22:06.000Z</time>
      </trkpt>
      <trkpt lat="46.28412" lon="2.81722">
        <ele>523.1</ele>
        <time>2018-07-14T06:22:08.000Z</time>
      </trkpt>
      <trkpt lat="46.28414" lon="2.8174">
        <ele>523.55</ele>
        <time>2018-07-14T06:22:10.000Z</time>
      </trkpt>
      <trkpt lat="46.28415" lon="2.81756">
        <ele>523.74</ele>
        <time>2018-07-14T06:22:12.000Z</time>
      </trkpt>
      <trkpt lat="46.28415" lon="2.81774">
        <ele>523.27</ele>
        <time>2018-07-14T06:22:14.000Z</time>
      </trkpt>
      <trkpt lat="46.28416" lon="2.81791">
        <ele>522.96</ele>
        <time>2018-07-14T06:22:16.000Z</time>
      </trkpt>
      <trkpt lat="46.28418" lon="2.81808">
        <ele>522.91</ele>
        <time>2018-07-14T06:22:18.000Z</time>
      </trkpt>
      <trkpt lat="46.2842" lon="2.81826">
        <ele>522.52</ele>
        <time>2018-07-14T06:22:20.000Z</time>
      </trkpt>
      <trkpt lat="46.28421" lon="2.81843">
        <ele>523.01</ele>
        <time>2018-07-14T06:22:22.000Z</time>
      </trkpt>
      <trkpt lat="46.28423" lon="2.8186">
        <ele>523</ele>
        <time>2018-07-14T06:22:24.000Z</time>
      </trkpt>
      <trkpt lat="46.28425" lon="2.81876">
        <ele>523.3</ele>
        <time>2018-07-14T06:22:26.000Z</time>
      </trkpt>
      <trkpt lat="46.28426" lon="2.81891">
        <ele>524.12</ele>
        <time>2018-07-14T06:22:28.000Z</time>
      </trkpt>
      <trkpt lat="46.28428" lon="2.81906">
        <ele>524.59</ele>
        <time>2018-07-14T06:22:30.000Z</time>
      </trkpt>
      <trkpt lat="46.28428" lon="2.81921">
        <ele>525.2</ele>
        <time>2018-07-14T06:22:32.000Z</time>
      </trkpt>
      <trkpt lat="46.28429" lon="2.81936">
        <ele>525.43</ele>
        <time>2018-07-14T06:22:34.000Z</time>
      </trkpt>
      <trkpt lat="46.28431" lon="2.81952">
        <ele>525.6</ele>
        <time>2018-07-14T06:22:36.000Z</time>
      </trkpt>
      <trkpt lat="46.28432" lon="2.81967">
        <ele>525.87</ele>
        <time>2018-07-14T06:22:38.000Z</time>
      </trkpt>
      <trkpt lat="46.28433" lon="2.81983">
        <ele>525.78</ele>
        <time>2018-07-14T06:22:40.000Z</time>
      </trkpt>
      <trkpt lat="46.28435" lon="2.82001">
        <ele>525.66</ele>
        <time>2018-07-14T06:22:42.000Z</time>
      </trkpt>
      <trkpt lat="46.28436" lon="2.82018">
        <ele>525.65</ele>
        <time>2018-07-14T06:22:44.000Z</time>
      </trkpt>
      <trkpt lat="46.28437" lon="2.82034">
        <ele>525.93</ele>
        <time>2018-07-14T06:22:46.000Z</time>
      </trkpt>
      <trkpt lat="46.28439" lon="2.82051">
        <ele>525.93</ele>
        <time>2018-07-14T06:22:48.000Z</time>
      </trkpt>
      <trkpt lat="46.2844" lon="2.82067">
        <ele>526.01</ele>
        <time>2018-07-14T06:22:50.000Z</time>
      </trkpt>
      <trkpt lat="46.28441" lon="2.82083">
        <ele>526.28</ele>
        <time>2018-07-14T06:22:52.000Z</time>
      </trkpt>
      <trkpt lat="46.28442" lon="2.82099">
        <ele>526.55</ele>
        <time>2018-07-14T06:22:54.000Z</time>
      </trkpt>
      <trkpt lat="46.28443" lon="2.82116">
        <ele>526.67</ele>
        <time>2018-07-14T06:22:56.000Z</time>
      </trkpt>
      <trkpt lat="46.28444" lon="2.82132">
        <ele>527.23</ele>
        <time>2018-07-14T06:22:58.000Z</time>
      </trkpt>
      <trkpt lat="46.28446" lon="2.82148">
        <ele>527.76</ele>
        <time>2018-07-14T06:23:00.000Z</time>
      </trkpt>
      <trkpt lat="46.28447" lon="2.82165">
        <ele>528.06</ele>
        <time>2018-07-14T06:23:02.000Z</time>
      </trkpt>
      <trkpt lat="46.28449" lon="2.82183">
        <ele>528.48</ele>
        <time>2018-07-14T06:23:04.000Z</time>
      </trkpt>
      <trkpt lat="46.28451" lon="2.82199">
        <ele>528.64</ele>
        <time>2018-07-14T06:23:06.000Z</time>
      </trkpt>
      <trkpt lat="46.28452" lon="2.82215">
        <ele>528.67</ele>
        <time>2018-07-14T06:23:08.000Z</time>
      </trkpt>
      <trkpt lat="46.28455" lon="2.82231">
        <ele>528.72</ele>
        <time>2018-07-14T06:23:10.000Z</time>
      </trkpt>
      <trkpt lat="46.28457" lon="2.82247">
        <ele>529.12</ele>
        <time>2018-07-14T06:23:12.000Z</time>
      </trkpt>
      <trkpt lat="46.28459" lon="2.82265">
        <ele>529.07</ele>
        <time>2018-07-14T06:23:14.000Z</time>
      </trkpt>
      <trkpt lat="46.2846" lon="2.82282">
        <ele>529.12</ele>
        <time>2018-07-14T06:23:16.000Z</time>
      </trkpt>
      <trkpt lat="46.28462" lon="2.82299">
        <ele>528.79</ele>
        <time>2018-07-14T06:23:18.000Z</time>
      </trkpt>
      <trkpt lat="46.28463" lon="2.82317">
        <ele>528.48</ele>
        <time>2018-07-14T06:23:20.000Z</time>
      </trkpt>
      <trkpt lat="46.28465" lon="2.82333">
        <ele>528.74</ele>
        <time>2018-07-14T06:23:22.000Z</time>
      </trkpt>
      <trkpt lat="46.28465" lon="2.82349">
        <ele>529.05</ele>
        <time>2018-07-14T06:23:24.000Z</time>
      </trkpt>
      <trkpt lat="46.28466" lon="2.82366">
        <ele>529.21</ele>
        <time>2018-07-14T06:23:26.000Z</time>
      </trkpt>
      <trkpt lat="46.28467" lon="2.82384">
        <ele>529.52</ele>
        <time>2018-07-14T06:23:28.000Z</time>
      </trkpt>
      <trkpt lat="46.28468" lon="2.82402">
        <ele>529.6</ele>
        <time>2018-07-14T06:23:30.000Z</time>
      </trkpt>
      <trkpt lat="46.28469" lon="2.8242">
        <ele>530.09</ele>
        <time>2018-07-14T06:23:32.000Z</time>
      </trkpt>
      <trkpt lat="46.28471" lon="2.82438">
        <ele>530.21</ele>
        <time>2018-07-14T06:23:34.000Z</time>
      </trkpt>
      <trkpt lat="46.28472" lon="2.82456">
        <ele>530.24</ele>
        <time>2018-07-14T06:23:36.000Z</time>
      </trkpt>
      <trkpt lat="46.28473" lon="2.82473">
        <ele>530.34</ele>
        <time>2018-07-14T06:23:38.000Z</time>
      </trkpt>
      <trkpt lat="46.28474" lon="2.8249">
        <ele>530.46</ele>
        <time>2018-07-14T06:23:40.000Z</time>
      </trkpt>
      <trkpt lat="46.28476" lon="2.82507">
        <ele>530.67</ele>
        <time>2018-07-14T06:23:42.000Z</time>
      </trkpt>
      <trkpt lat="46.28477" lon="2.82526">
        <ele>530.89</ele>
        <time>2018-07-14T06:23:44.000Z</time>
      </trkpt>
      <trkpt lat="46.28479" lon="2.82546">
        <ele>530.72</ele>
        <time>2018-07-14T06:23:46.000Z</time>
      </trkpt>
      <trkpt lat="46.28481" lon="2.82565">
        <ele>530.85</ele>
        <time>2018-07-14T06:23:48.000Z</time>
      </trkpt>
      <trkpt lat="46.28482" lon="2.82583">
        <ele>531.36</ele>
        <time>2018-07-14T06:23:50.000Z</time>
      </trkpt>
      <trkpt lat="46.28484" lon="2.82601">
        <ele>532.22</ele>
        <time>2018-07-14T06:23:52.000Z</time>
      </trkpt>
      <trkpt lat="46.28484" lon="2.82619">
        <ele>532.73</ele>
        <time>2018-07-14T06:23:54.000Z</time>
      </trkpt>
      <trkpt lat="46.28484" lon="2.82637">
        <ele>533.17</ele>
        <time>2018-07-14T06:23:56.000Z</time>
      </trkpt>
      <trkpt lat="46.28484" lon="2.82655">
        <ele>533.43</ele>
        <time>2018-07-14T06:23:58.000Z</time>
      </trkpt>
      <trkpt lat="46.28483" lon="2.82671">
        <ele>533.98</ele>
        <time>2018-07-14T06:24:00.000Z</time>
      </trkpt>
      <trkpt lat="46.28481" lon="2.82689">
        <ele>533.98</ele>
        <time>2018-07-14T06:24:02.000Z</time>
      </trkpt>
      <trkpt lat="46.2848" lon="2.82706">
        <ele>534.33</ele>
        <time>2018-07-14T06:24:04.000Z</time>
      </trkpt>
      <trkpt lat="46.28479" lon="2.82723">
        <ele>534.61</ele>
        <time>2018-07-14T06:24:06.000Z</time>
      </trkpt>
      <trkpt lat="46.28478" lon="2.8274">
        <ele>534.97</ele>
        <time>2018-07-14T06:24:08.000Z</time>
      </trkpt>
      <trkpt lat="46.28475" lon="2.82756">
        <ele>535.74</ele>
        <time>2018-07-14T06:24:10.000Z</time>
      </trkpt>
      <trkpt lat="46.28472" lon="2.82772">
        <ele>536.71</ele>
        <time>2018-07-14T06:24:12.000Z</time>
      </trkpt>
      <trkpt lat="46.28469" lon="2.82788">
        <ele>537.61</ele>
        <time>2018-07-14T06:24:14.000Z</time>
      </trkpt>
      <trkpt lat="46.28466" lon="2.82804">
        <ele>538.09</ele>
        <time>2018-07-14T06:24:16.000Z</time>
      </trkpt>
      <trkpt lat="46.28464" lon="2.8282">
        <ele>538.22</ele>
        <time>2018-07-14T06:24:18.000Z</time>
      </trkpt>
      <trkpt lat="46.28462" lon="2.82837">
        <ele>537.84</ele>
        <time>2018-07-14T06:24:20.000Z</time>
      </trkpt>
      <trkpt lat="46.2846" lon="2.82855">
        <ele>537</ele>
        <time>2018-07-14T06:24:22.000Z</time>
      </trkpt>
      <trkpt lat="46.28459" lon="2.82874">
        <ele>536.8</ele>
        <time>2018-07-14T06:24:24.000Z</time>
      </trkpt>
      <trkpt lat="46.28459" lon="2.82893">
        <ele>536.64</ele>
        <time>2018-07-14T06:24:26.000Z</time>
      </trkpt>
      <trkpt lat="46.28458" lon="2.82912">
        <ele>536.66</ele>
        <time>2018-07-14T06:24:28.000Z</time>
      </trkpt>
      <trkpt lat="46.28457" lon="2.8293">
        <ele>536.51</ele>
        <time>2018-07-14T06:24:30.000Z</time>
      </trkpt>
      <trkpt lat="46.28456" lon="2.82947">
        <ele>536.44</ele>
        <time>2018-07-14T06:24:32.000Z</time>
      </trkpt>
      <trkpt lat="46.28453" lon="2.82964">
        <ele>536.35</ele>
        <time>2018-07-14T06:24:34.000Z</time>
      </trkpt>
      <trkpt lat="46.28452" lon="2.82982">
        <ele>536.52</ele>
        <time>2018-07-14T06:24:36.000Z</time>
      </trkpt>
      <trkpt lat="46.28452" lon="2.82999">
        <ele>536.77</ele>
        <time>2018-07-14T06:24:38.000Z</time>
      </trkpt>
      <trkpt lat="46.2845" lon="2.83017">
        <ele>537.44</ele>
        <time>2018-07-14T06:24:40.000Z</time>
      </trkpt>
      <trkpt lat="46.28449" lon="2.83036">
        <ele>537.96</ele>
        <time>2018-07-14T06:24:42.000Z</time>
      </trkpt>
      <trkpt lat="46.28446" lon="2.83054">
        <ele>538.27</ele>
        <time>2018-07-14T06:24:44.000Z</time>
      </trkpt>
      <trkpt lat="46.2844" lon="2.83072">
        <ele>538.32</ele>
        <time>2018-07-14T06:24:46.000Z</time>
      </trkpt>
      <trkpt lat="46.28435" lon="2.83092">
        <ele>538.04</ele>
        <time>2018-07-14T06:24:48.000Z</time>
      </trkpt>
      <trkpt lat="46.2843" lon="2.83111">
        <ele>538.14</ele>
        <time>2018-07-14T06:24:50.000Z</time>
      </trkpt>
      <trkpt lat="46.28425" lon="2.83129">
        <ele>538.39</ele>
        <time>2018-07-14T06:24:52.000Z</time>
      </trkpt>
      <trkpt lat="46.28422" lon="2.83149">
        <ele>538.75</ele>
        <time>2018-07-14T06:24:54.000Z</time>
      </trkpt>
      <trkpt lat="46.28421" lon="2.83169">
        <ele>539.28</ele>
        <time>2018-07-14T06:24:56.000Z</time>
      </trkpt>
      <trkpt lat="46.2842" lon="2.83189">
        <ele>539.75</ele>
        <time>2018-07-14T06:24:58.000Z</time>
      </trkpt>
      <trkpt lat="46.28416" lon="2.83208">
        <ele>539.8</ele>
        <time>2018-07-14T06:25:00.000Z</time>
      </trkpt>
      <trkpt lat="46.28414" lon="2.83229">
        <ele>540.03</ele>
        <time>2018-07-14T06:25:02.000Z</time>
      </trkpt>
      <trkpt lat="46.2841" lon="2.83249">
        <ele>539.99</ele>
        <time>2018-07-14T06:25:04.000Z</time>
      </trkpt>
      <trkpt lat="46.28406" lon="2.8327">
        <ele>539.32</ele>
        <time>2018-07-14T06:25:06.000Z</time>
      </trkpt>
      <trkpt lat="46.28404" lon="2.83291">
        <ele>538.49</ele>
        <time>2018-07-14T06:25:08.000Z</time>
      </trkpt>
      <trkpt lat="46.28402" lon="2.83313">
        <ele>537.87</ele>
        <time>2018-07-14T06:25:10.000Z</time>
      </trkpt>
      <trkpt lat="46.28401" lon="2.83334">
        <ele>537.72</ele>
        <time>2018-07-14T06:25:12.000Z</time>
      </trkpt>
      <trkpt lat="46.284" lon="2.83354">
        <ele>537.77</ele>
        <time>2018-07-14T06:25:14.000Z</time>
      </trkpt>
      <trkpt lat="46.28396" lon="2.83372">
        <ele>537.87</ele>
        <time>2018-07-14T06:25:16.000Z</time>
      </trkpt>
      <trkpt lat="46.28393" lon="2.83392">
        <ele>537.88</ele>
        <time>2018-07-14T06:25:18.000Z</time>
      </trkpt>
      <trkpt lat="46.28391" lon="2.83412">
        <ele>537.93</ele>
        <time>2018-07-14T06:25:20.000Z</time>
      </trkpt>
      <trkpt lat="46.28386" lon="2.83433">
        <ele>538.32</ele>
        <time>2018-07-14T06:25:22.000Z</time>
      </trkpt>
      <trkpt lat="46.28383" lon="2.83454">
        <ele>538.81</ele>
        <time>2018-07-14T06:25:24.000Z</time>
      </trkpt>
      <trkpt lat="46.28378" lon="2.83476">
        <ele>539.11</ele>
        <time>2018-07-14T06:25:26.000Z</time>
      </trkpt>
      <trkpt lat="46.28373" lon="2.83498">
        <ele>539.35</ele>
        <time>2018-07-14T06:25:28.000Z</time>
      </trkpt>
      <trkpt lat="46.28367" lon="2.83519">
        <ele>539.67</ele>
        <time>2018-07-14T06:25:30.000Z</time>
      </trkpt>
      <trkpt lat="46.28363" lon="2.83541">
        <ele>539.7</ele>
        <time>2018-07-14T06:25:32.000Z</time>
      </trkpt>
      <trkpt lat="46.28357" lon="2.83564">
        <ele>539.17</ele>
        <time>2018-07-14T06:25:34.000Z</time>
      </trkpt>
      <trkpt lat="46.2835" lon="2.83584">
        <ele>539.57</ele>
        <time>2018-07-14T06:25:36.000Z</time>
      </trkpt>
      <trkpt lat="46.28343" lon="2.83607">
        <ele>539.12</ele>
        <time>2018-07-14T06:25:38.000Z</time>
      </trkpt>
      <trkpt lat="46.28339" lon="2.83628">
        <ele>538.99</ele>
        <time>2018-07-14T06:25:40.000Z</time>
      </trkpt>
      <trkpt lat="46.28334" lon="2.8365">
        <ele>538.67</ele>
        <time>2018-07-14T06:25:42.000Z</time>
      </trkpt>
      <trkpt lat="46.2833" lon="2.8367">
        <ele>538.11</ele>
        <time>2018-07-14T06:25:44.000Z</time>
      </trkpt>
      <trkpt lat="46.28324" lon="2.83692">
        <ele>537.12</ele>
        <time>2018-07-14T06:25:46.000Z</time>
      </trkpt>
      <trkpt lat="46.28318" lon="2.83713">
        <ele>536.13</ele>
        <time>2018-07-14T06:25:48.000Z</time>
      </trkpt>
      <trkpt lat="46.28313" lon="2.83734">
        <ele>535.6</ele>
        <time>2018-07-14T06:25:50.000Z</time>
      </trkpt>
      <trkpt lat="46.28307" lon="2.83754">
        <ele>535.46</ele>
        <time>2018-07-14T06:25:52.000Z</time>
      </trkpt>
      <trkpt lat="46.28302" lon="2.83774">
        <ele>535.36</ele>
        <time>2018-07-14T06:25:54.000Z</time>
      </trkpt>
      <trkpt lat="46.28297" lon="2.83795">
        <ele>534.7</ele>
        <time>2018-07-14T06:25:56.000Z</time>
      </trkpt>
      <trkpt lat="46.28292" lon="2.83816">
        <ele>534.81</ele>
        <time>2018-07-14T06:25:58.000Z</time>
      </trkpt>
      <trkpt lat="46.28288" lon="2.83837">
        <ele>534.92</ele>
        <time>2018-07-14T06:26:00.000Z</time>
      </trkpt>
      <trkpt lat="46.28283" lon="2.83859">
        <ele>535.04</ele>
        <time>2018-07-14T06:26:02.000Z</time>
      </trkpt>
      <trkpt lat="46.28278" lon="2.8388">
        <ele>535.49</ele>
        <time>2018-07-14T06:26:04.000Z</time>
      </trkpt>
      <trkpt lat="46.28274" lon="2.83901">
        <ele>536.28</ele>
        <time>2018-07-14T06:26:06.000Z</time>
      </trkpt>
      <trkpt lat="46.28269" lon="2.83921">
        <ele>536.88</ele>
        <time>2018-07-14T06:26:07.999Z</time>
      </trkpt>
      <trkpt lat="46.28265" lon="2.83943">
        <ele>537.47</ele>
        <time>2018-07-14T06:26:10.000Z</time>
      </trkpt>
      <trkpt lat="46.28262" lon="2.83964">
        <ele>537.39</ele>
        <time>2018-07-14T06:26:12.000Z</time>
      </trkpt>
      <trkpt lat="46.28257" lon="2.83984">
        <ele>537.2</ele>
        <time>2018-07-14T06:26:14.000Z</time>
      </trkpt>
      <trkpt lat="46.28253" lon="2.84003">
        <ele>536.74</ele>
        <time>2018-07-14T06:26:16.000Z</time>
      </trkpt>
      <trkpt lat="46.28249" lon="2.84023">
        <ele>536.15</ele>
        <time>2018-07-14T06:26:18.000Z</time>
      </trkpt>
      <trkpt lat="46.28246" lon="2.84043">
        <ele>535.71</ele>
        <time>2018-07-14T06:26:20.000Z</time>
      </trkpt>
      <trkpt lat="46.28244" lon="2.84064">
        <ele>535.54</ele>
        <time>2018-07-14T06:26:22.000Z</time>
      </trkpt>
      <trkpt lat="46.28243" lon="2.84086">
        <ele>535.17</ele>
        <time>2018-07-14T06:26:24.000Z</time>
      </trkpt>
      <trkpt lat="46.28242" lon="2.84109">
        <ele>535.22</ele>
        <time>2018-07-14T06:26:26.000Z</time>
      </trkpt>
      <trkpt lat="46.28241" lon="2.84132">
        <ele>535.55</ele>
        <time>2018-07-14T06:26:28.000Z</time>
      </trkpt>
      <trkpt lat="46.28239" lon="2.84154">
        <ele>535.72</ele>
        <time>2018-07-14T06:26:30.000Z</time>
      </trkpt>
      <trkpt lat="46.28238" lon="2.84176">
        <ele>535.95</ele>
        <time>2018-07-14T06:26:32.000Z</time>
      </trkpt>
      <trkpt lat="46.28237" lon="2.84198">
        <ele>535.58</ele>
        <time>2018-07-14T06:26:34.000Z</time>
      </trkpt>
      <trkpt lat="46.28236" lon="2.84221">
        <ele>535.16</ele>
        <time>2018-07-14T06:26:36.000Z</time>
      </trkpt>
      <trkpt lat="46.28235" lon="2.84243">
        <ele>535.06</ele>
        <time>2018-07-14T06:26:38.000Z</time>
      </trkpt>
      <trkpt lat="46.28234" lon="2.84264">
        <ele>535.2</ele>
        <time>2018-07-14T06:26:40.000Z</time>
      </trkpt>
      <trkpt lat="46.28232" lon="2.84285">
        <ele>535.45</ele>
        <time>2018-07-14T06:26:42.000Z</time>
      </trkpt>
      <trkpt lat="46.28231" lon="2.84306">
        <ele>535.61</ele>
        <time>2018-07-14T06:26:44.000Z</time>
      </trkpt>
      <trkpt lat="46.28231" lon="2.84327">
        <ele>535.58</ele>
        <time>2018-07-14T06:26:46.000Z</time>
      </trkpt>
      <trkpt lat="46.2823" lon="2.84349">
        <ele>535.6</ele>
        <time>2018-07-14T06:26:48.000Z</time>
      </trkpt>
      <trkpt lat="46.28229" lon="2.84371">
        <ele>535.75</ele>
        <time>2018-07-14T06:26:50.000Z</time>
      </trkpt>
      <trkpt lat="46.28228" lon="2.84393">
        <ele>535.97</ele>
        <time>2018-07-14T06:26:52.000Z</time>
      </trkpt>
      <trkpt lat="46.28227" lon="2.84414">
        <ele>535.97</ele>
        <time>2018-07-14T06:26:54.000Z</time>
      </trkpt>
      <trkpt lat="46.28226" lon="2.84437">
        <ele>536.22</ele>
        <time>2018-07-14T06:26:56.000Z</time>
      </trkpt>
      <trkpt lat="46.28225" lon="2.84458">
        <ele>536.31</ele>
        <time>2018-07-14T06:26:58.000Z</time>
      </trkpt>
      <trkpt lat="46.28223" lon="2.84478">
        <ele>536.64</ele>
        <time>2018-07-14T06:27:00.000Z</time>
      </trkpt>
      <trkpt lat="46.28221" lon="2.84499">
        <ele>537.06</ele>
        <time>2018-07-14T06:27:02.000Z</time>
      </trkpt>
      <trkpt lat="46.28219" lon="2.8452">
        <ele>537.55</ele>
        <time>2018-07-14T06:27:04.000Z</time>
      </trkpt>
      <trkpt lat="46.28216" lon="2.8454">
        <ele>537.93</ele>
        <time>2018-07-14T06:27:06.000Z</time>
      </trkpt>
      <trkpt lat="46.28214" lon="2.84559">
        <ele>538.54</ele>
        <time>2018-07-14T06:27:08.000Z</time>
      </trkpt>
      <trkpt lat="46.28213" lon="2.84578">
        <ele>539.35</ele>
        <time>2018-07-14T06:27:10.000Z</time>
      </trkpt>
      <trkpt lat="46.28212" lon="2.84596">
        <ele>539.68</ele>
        <time>2018-07-14T06:27:12.000Z</time>
      </trkpt>
      <trkpt lat="46.2821" lon="2.84616">
        <ele>539.99</ele>
        <time>2018-07-14T06:27:14.000Z</time>
      </trkpt>
      <trkpt lat="46.28209" lon="2.84635">
        <ele>539.91</ele>
        <time>2018-07-14T06:27:16.000Z</time>
      </trkpt>
      <trkpt lat="46.28208" lon="2.84655">
        <ele>539.98</ele>
        <time>2018-07-14T06:27:18.000Z</time>
      </trkpt>
      <trkpt lat="46.28207" lon="2.84673">
        <ele>540.41</ele>
        <time>2018-07-14T06:27:20.000Z</time>
      </trkpt>
      <trkpt lat="46.28205" lon="2.84691">
        <ele>540.93</ele>
        <time>2018-07-14T06:27:22.000Z</time>
      </trkpt>
      <trkpt lat="46.28204" lon="2.8471">
        <ele>540.98</ele>
        <time>2018-07-14T06:27:24.000Z</time>
      </trkpt>
      <trkpt lat="46.28202" lon="2.84729">
        <ele>541.09</ele>
        <time>2018-07-14T06:27:26.000Z</time>
      </trkpt>
      <trkpt lat="46.28201" lon="2.84747">
        <ele>541.23</ele>
        <time>2018-07-14T06:27:28.000Z</time>
      </trkpt>
      <trkpt lat="46.28199" lon="2.84763">
        <ele>541.27</ele>
        <time>2018-07-14T06:27:30.000Z</time>
      </trkpt>
      <trkpt lat="46.28197" lon="2.8478">
        <ele>541.35</ele>
        <time>2018-07-14T06:27:32.000Z</time>
      </trkpt>
      <trkpt lat="46.28195" lon="2.84798">
        <ele>541.3</ele>
        <time>2018-07-14T06:27:34.000Z</time>
      </trkpt>
      <trkpt lat="46.28193" lon="2.84817">
        <ele>541.12</ele>
        <time>2018-07-14T06:27:36.000Z</time>
      </trkpt>
      <trkpt lat="46.28192" lon="2.84836">
        <ele>541.55</ele>
        <time>2018-07-14T06:27:38.000Z</time>
      </trkpt>
      <trkpt lat="46.2819" lon="2.84854">
        <ele>542.08</ele>
        <time>2018-07-14T06:27:40.000Z</time>
      </trkpt>
      <trkpt lat="46.28189" lon="2.84872">
        <ele>542.41</ele>
        <time>2018-07-14T06:27:42.000Z</time>
      </trkpt>
      <trkpt lat="46.28188" lon="2.8489">
        <ele>542.86</ele>
        <time>2018-07-14T06:27:44.000Z</time>
      </trkpt>
      <trkpt lat="46.28186" lon="2.84908">
        <ele>543.22</ele>
        <time>2018-07-14T06:27:46.000Z</time>
      </trkpt>
      <trkpt lat="46.28183" lon="2.84926">
        <ele>543.65</ele>
        <time>2018-07-14T06:27:48.000Z</time>
      </trkpt>
      <trkpt lat="46.28181" lon="2.84944">
        <ele>543.95</ele>
        <time>2018-07-14T06:27:50.000Z</time>
      </trkpt>
      <trkpt lat="46.28179" lon="2.84963">
        <ele>543.92</ele>
        <time>2018-07-14T06:27:52.000Z</time>
      </trkpt>
      <trkpt lat="46.28177" lon="2.84982">
        <ele>544.04</ele>
        <time>2018-07-14T06:27:54.000Z</time>
      </trkpt>
      <trkpt lat="46.28175" lon="2.85001">
        <ele>544.46</ele>
        <time>2018-07-14T06:27:56.000Z</time>
      </trkpt>
      <trkpt lat="46.28173" lon="2.8502">
        <ele>544.84</ele>
        <time>2018-07-14T06:27:58.000Z</time>
      </trkpt>
      <trkpt lat="46.2817" lon="2.85038">
        <ele>545.41</ele>
        <time>2018-07-14T06:28:00.000Z</time>
      </trkpt>
      <trkpt lat="46.28166" lon="2.85055">
        <ele>545.99</ele>
        <time>2018-07-14T06:28:02.000Z</time>
      </trkpt>
      <trkpt lat="46.28162" lon="2.85073">
        <ele>546.54</ele>
        <time>2018-07-14T06:28:04.000Z</time>
      </trkpt>
      <trkpt lat="46.28157" lon="2.85091">
        <ele>546.74</ele>
        <time>2018-07-14T06:28:06.000Z</time>
      </trkpt>
      <trkpt lat="46.28153" lon="2.8511">
        <ele>546.63</ele>
        <time>2018-07-14T06:28:08.000Z</time>
      </trkpt>
      <trkpt lat="46.28148" lon="2.85128">
        <ele>546.76</ele>
        <time>2018-07-14T06:28:10.000Z</time>
      </trkpt>
      <trkpt lat="46.28143" lon="2.85148">
        <ele>546.35</ele>
        <time>2018-07-14T06:28:12.000Z</time>
      </trkpt>
      <trkpt lat="46.28138" lon="2.85167">
        <ele>546.15</ele>
        <time>2018-07-14T06:28:14.000Z</time>
      </trkpt>
      <trkpt lat="46.28133" lon="2.85186">
        <ele>545.91</ele>
        <time>2018-07-14T06:28:16.000Z</time>
      </trkpt>
      <trkpt lat="46.28128" lon="2.85206">
        <ele>545.65</ele>
        <time>2018-07-14T06:28:18.000Z</time>
      </trkpt>
      <trkpt lat="46.28122" lon="2.85225">
        <ele>545.83</ele>
        <time>2018-07-14T06:28:20.000Z</time>
      </trkpt>
      <trkpt lat="46.28117" lon="2.85243">
        <ele>546.04</ele>
        <time>2018-07-14T06:28:22.000Z</time>
      </trkpt>
      <trkpt lat="46.28113" lon="2.85261">
        <ele>546.25</ele>
        <time>2018-07-14T06:28:24.000Z</time>
      </trkpt>
      <trkpt lat="46.28109" lon="2.85281">
        <ele>546.94</ele>
        <time>2018-07-14T06:28:26.000Z</time>
      </trkpt>
      <trkpt lat="46.28105" lon="2.853">
        <ele>547.88</ele>
        <time>2018-07-14T06:28:28.000Z</time>
      </trkpt>
      <trkpt lat="46.28101" lon="2.85319">
        <ele>548.45</ele>
        <time>2018-07-14T06:28:30.000Z</time>
      </trkpt>
      <trkpt lat="46.28096" lon="2.85338">
        <ele>548.63</ele>
        <time>2018-07-14T06:28:32.000Z</time>
      </trkpt>
      <trkpt lat="46.28092" lon="2.85358">
        <ele>548.79</ele>
        <time>2018-07-14T06:28:34.000Z</time>
      </trkpt>
      <trkpt lat="46.28087" lon="2.85378">
        <ele>548.48</ele>
        <time>2018-07-14T06:28:36.000Z</time>
      </trkpt>
      <trkpt lat="46.28082" lon="2.85398">
        <ele>547.89</ele>
        <time>2018-07-14T06:28:38.000Z</time>
      </trkpt>
      <trkpt lat="46.28078" lon="2.85417">
        <ele>547.94</ele>
        <time>2018-07-14T06:28:40.000Z</time>
      </trkpt>
      <trkpt lat="46.28075" lon="2.85437">
        <ele>547.95</ele>
        <time>2018-07-14T06:28:42.000Z</time>
      </trkpt>
      <trkpt lat="46.28072" lon="2.85458">
        <ele>547.98</ele>
        <time>2018-07-14T06:28:44.000Z</time>
      </trkpt>
      <trkpt lat="46.28068" lon="2.8548">
        <ele>548.07</ele>
        <time>2018-07-14T06:28:46.000Z</time>
      </trkpt>
      <trkpt lat="46.28065" lon="2.85501">
        <ele>548.18</ele>
        <time>2018-07-14T06:28:48.000Z</time>
      </trkpt>
      <trkpt lat="46.28063" lon="2.85523">
        <ele>547.7</ele>
        <time>2018-07-14T06:28:50.000Z</time>
      </trkpt>
      <trkpt lat="46.28062" lon="2.85546">
        <ele>547.2</ele>
        <time>2018-07-14T06:28:52.000Z</time>
      </trkpt>
      <trkpt lat="46.28062" lon="2.85568">
        <ele>547.36</ele>
        <time>2018-07-14T06:28:54.000Z</time>
      </trkpt>
      <trkpt lat="46.28062" lon="2.85591">
        <ele>547.57</ele>
        <time>2018-07-14T06:28:56.000Z</time>
      </trkpt>
      <trkpt lat="46.28063" lon="2.85614">
        <ele>547.61</ele>
        <time>2018-07-14T06:28:58.000Z</time>
      </trkpt>
      <trkpt lat="46.28064" lon="2.85636">
        <ele>547.81</ele>
        <time>2018-07-14T06:29:00.000Z</time>
      </trkpt>
      <trkpt lat="46.28066" lon="2.8566">
        <ele>547.54</ele>
        <time>2018-07-14T06:29:02.000Z</time>
      </trkpt>
      <trkpt lat="46.28068" lon="2.85683">
        <ele>546.9</ele>
        <time>2018-07-14T06:29:04.000Z</time>
      </trkpt>
      <trkpt lat="46.2807" lon="2.85707">
        <ele>546.54</ele>
        <time>2018-07-14T06:29:06.000Z</time>
      </trkpt>
      <trkpt lat="46.28072" lon="2.8573">
        <ele>546.24</ele>
        <time>2018-07-14T06:29:08.000Z</time>
      </trkpt>
      <trkpt lat="46.28074" lon="2.85753">
        <ele>545.97</ele>
        <time>2018-07-14T06:29:10.000Z</time>
      </trkpt>
      <trkpt lat="46.28075" lon="2.85776">
        <ele>545.6</ele>
        <time>2018-07-14T06:29:12.000Z</time>
      </trkpt>
      <trkpt lat="46.28077" lon="2.85799">
        <ele>545.4</ele>
        <time>2018-07-14T06:29:14.000Z</time>
      </trkpt>
      <trkpt lat="46.28079" lon="2.85823">
        <ele>545.11</ele>
        <time>2018-07-14T06:29:16.000Z</time>
      </trkpt>
      <trkpt lat="46.28079" lon="2.85847">
        <ele>544.94</ele>
        <time>2018-07-14T06:29:18.000Z</time>
      </trkpt>
      <trkpt lat="46.28079" lon="2.85871">
        <ele>544.71</ele>
        <time>2018-07-14T06:29:20.000Z</time>
      </trkpt>
      <trkpt lat="46.28079" lon="2.85896">
        <ele>544.32</ele>
        <time>2018-07-14T06:29:22.000Z</time>
      </trkpt>
      <trkpt lat="46.28077" lon="2.8592">
        <ele>543.81</ele>
        <time>2018-07-14T06:29:24.000Z</time>
      </trkpt>
      <trkpt lat="46.28076" lon="2.85943">
        <ele>543.6</ele>
        <time>2018-07-14T06:29:26.000Z</time>
      </trkpt>
      <trkpt lat="46.28075" lon="2.85964">
        <ele>543.65</ele>
        <time>2018-07-14T06:29:28.000Z</time>
      </trkpt>
      <trkpt lat="46.28073" lon="2.85985">
        <ele>543.75</ele>
        <time>2018-07-14T06:29:30.000Z</time>
      </trkpt>
      <trkpt lat="46.28071" lon="2.86006">
        <ele>544.05</ele>
        <time>2018-07-14T06:29:32.000Z</time>
      </trkpt>
      <trkpt lat="46.28068" lon="2.86027">
        <ele>544.27</ele>
        <time>2018-07-14T06:29:34.000Z</time>
      </trkpt>
      <trkpt lat="46.28066" lon="2.86047">
        <ele>544.41</ele>
        <time>2018-07-14T06:29:36.000Z</time>
      </trkpt>
      <trkpt lat="46.28062" lon="2.86067">
        <ele>544.52</ele>
        <time>2018-07-14T06:29:38.000Z</time>
      </trkpt>
      <trkpt lat="46.28059" lon="2.86086">
        <ele>544.53</ele>
        <time>2018-07-14T06:29:40.000Z</time>
      </trkpt>
      <trkpt lat="46.28055" lon="2.86105">
        <ele>544.59</ele>
        <time>2018-07-14T06:29:42.000Z</time>
      </trkpt>
      <trkpt lat="46.28051" lon="2.86123">
        <ele>544.9</ele>
        <time>2018-07-14T06:29:44.000Z</time>
      </trkpt>
      <trkpt lat="46.28048" lon="2.86141">
        <ele>545.33</ele>
        <time>2018-07-14T06:29:46.000Z</time>
      </trkpt>
      <trkpt lat="46.28045" lon="2.86158">
        <ele>545.76</ele>
        <time>2018-07-14T06:29:48.000Z</time>
      </trkpt>
      <trkpt lat="46.28042" lon="2.86176">
        <ele>545.88</ele>
        <time>2018-07-14T06:29:50.000Z</time>
      </trkpt>
      <trkpt lat="46.28039" lon="2.86193">
        <ele>545.97</ele>
        <time>2018-07-14T06:29:52.000Z</time>
      </trkpt>
      <trkpt lat="46.28035" lon="2.86212">
        <ele>546.01</ele>
        <time>2018-07-14T06:29:54.000Z</time>
      </trkpt>
      <trkpt lat="46.28032" lon="2.86231">
        <ele>546.01</ele>
        <time>2018-07-14T06:29:56.000Z</time>
      </trkpt>
      <trkpt lat="46.28029" lon="2.86249">
        <ele>545.93</ele>
        <time>2018-07-14T06:29:58.000Z</time>
      </trkpt>
      <trkpt lat="46.28025" lon="2.86267">
        <ele>545.73</ele>
        <time>2018-07-14T06:30:00.000Z</time>
      </trkpt>
      <trkpt lat="46.28021" lon="2.86285">
        <ele>545.85</ele>
        <time>2018-07-14T06:30:02.000Z</time>
      </trkpt>
      <trkpt lat="46.28018" lon="2.86304">
        <ele>546.02</ele>
        <time>2018-07-14T06:30:04.000Z</time>
      </trkpt>
      <trkpt lat="46.28016" lon="2.86323">
        <ele>546.2</ele>
        <time>2018-07-14T06:30:06.000Z</time>
      </trkpt>
      <trkpt lat="46.28015" lon="2.86344">
        <ele>546.46</ele>
        <time>2018-07-14T06:30:08.000Z</time>
      </trkpt>
      <trkpt lat="46.28014" lon="2.86363">
        <ele>547.22</ele>
        <time>2018-07-14T06:30:10.000Z</time>
      </trkpt>
      <trkpt lat="46.28011" lon="2.86381">
        <ele>547.59</ele>
        <time>2018-07-14T06:30:12.000Z</time>
      </trkpt>
      <trkpt lat="46.28009" lon="2.864">
        <ele>548.39</ele>
        <time>2018-07-14T06:30:14.000Z</time>
      </trkpt>
      <trkpt lat="46.28007" lon="2.8642">
        <ele>548.68</ele>
        <time>2018-07-14T06:30:16.000Z</time>
      </trkpt>
      <trkpt lat="46.28004" lon="2.86438">
        <ele>548.83</ele>
        <time>2018-07-14T06:30:18.000Z</time>
      </trkpt>
      <trkpt lat="46.28" lon="2.86459">
        <ele>548.05</ele>
        <time>2018-07-14T06:30:20.000Z</time>
      </trkpt>
      <trkpt lat="46.27998" lon="2.8648">
        <ele>547.62</ele>
        <time>2018-07-14T06:30:22.000Z</time>
      </trkpt>
      <trkpt lat="46.27998" lon="2.86497">
        <ele>547.74</ele>
        <time>2018-07-14T06:30:24.000Z</time>
      </trkpt>
      <trkpt lat="46.27998" lon="2.86515">
        <ele>547.91</ele>
        <time>2018-07-14T06:30:26.000Z</time>
      </trkpt>
      <trkpt lat="46.27997" lon="2.86529">
        <ele>548.28</ele>
        <time>2018-07-14T06:30:28.000Z</time>
      </trkpt>
      <trkpt lat="46.27997" lon="2.86546">
        <ele>548.47</ele>
        <time>2018-07-14T06:30:30.000Z</time>
      </trkpt>
      <trkpt lat="46.27997" lon="2.86565">
        <ele>548.9</ele>
        <time>2018-07-14T06:30:32.000Z</time>
      </trkpt>
      <trkpt lat="46.27997" lon="2.86582">
        <ele>549.21</ele>
        <time>2018-07-14T06:30:34.000Z</time>
      </trkpt>
      <trkpt lat="46.27997" lon="2.86599">
        <ele>549.28</ele>
        <time>2018-07-14T06:30:36.000Z</time>
      </trkpt>
      <trkpt lat="46.27996" lon="2.86616">
        <ele>549.17</ele>
        <time>2018-07-14T06:30:38.000Z</time>
      </trkpt>
      <trkpt lat="46.27996" lon="2.86633">
        <ele>549.56</ele>
        <time>2018-07-14T06:30:40.000Z</time>
      </trkpt>
      <trkpt lat="46.27995" lon="2.86651">
        <ele>549.9</ele>
        <time>2018-07-14T06:30:42.000Z</time>
      </trkpt>
      <trkpt lat="46.27995" lon="2.8667">
        <ele>549.92</ele>
        <time>2018-07-14T06:30:44.000Z</time>
      </trkpt>
      <trkpt lat="46.27993" lon="2.86687">
        <ele>550.01</ele>
        <time>2018-07-14T06:30:46.000Z</time>
      </trkpt>
      <trkpt lat="46.27993" lon="2.86705">
        <ele>550.25</ele>
        <time>2018-07-14T06:30:48.000Z</time>
      </trkpt>
      <trkpt lat="46.27993" lon="2.86723">
        <ele>550.38</ele>
        <time>2018-07-14T06:30:50.000Z</time>
      </trkpt>
      <trkpt lat="46.27993" lon="2.86741">
        <ele>550.52</ele>
        <time>2018-07-14T06:30:52.000Z</time>
      </trkpt>
      <trkpt lat="46.27992" lon="2.86758">
        <ele>550.77</ele>
        <time>2018-07-14T06:30:54.000Z</time>
      </trkpt>
      <trkpt lat="46.27991" lon="2.86773">
        <ele>551.01</ele>
        <time>2018-07-14T06:30:56.000Z</time>
      </trkpt>
      <trkpt lat="46.2799" lon="2.86789">
        <ele>551.61</ele>
        <time>2018-07-14T06:30:58.000Z</time>
      </trkpt>
      <trkpt lat="46.27988" lon="2.86804">
        <ele>552.3</ele>
        <time>2018-07-14T06:31:00.000Z</time>
      </trkpt>
      <trkpt lat="46.27987" lon="2.8682">
        <ele>552.83</ele>
        <time>2018-07-14T06:31:02.000Z</time>
      </trkpt>
      <trkpt lat="46.27985" lon="2.86835">
        <ele>553.79</ele>
        <time>2018-07-14T06:31:04.000Z</time>
      </trkpt>
      <trkpt lat="46.27984" lon="2.86851">
        <ele>554.37</ele>
        <time>2018-07-14T06:31:06.000Z</time>
      </trkpt>
      <trkpt lat="46.27983" lon="2.86868">
        <ele>554.6</ele>
        <time>2018-07-14T06:31:08.000Z</time>
      </trkpt>
      <trkpt lat="46.27982" lon="2.86886">
        <ele>554.85</ele>
        <time>2018-07-14T06:31:10.000Z</time>
      </trkpt>
      <trkpt lat="46.27982" lon="2.86905">
        <ele>555</ele>
        <time>2018-07-14T06:31:12.000Z</time>
      </trkpt>
      <trkpt lat="46.27981" lon="2.86921">
        <ele>555.07</ele>
        <time>2018-07-14T06:31:14.000Z</time>
      </trkpt>
      <trkpt lat="46.2798" lon="2.86938">
        <ele>555.47</ele>
        <time>2018-07-14T06:31:16.000Z</time>
      </trkpt>
      <trkpt lat="46.27979" lon="2.86955">
        <ele>555.76</ele>
        <time>2018-07-14T06:31:18.000Z</time>
      </trkpt>
      <trkpt lat="46.27978" lon="2.86971">
        <ele>555.87</ele>
        <time>2018-07-14T06:31:20.000Z</time>
      </trkpt>
      <trkpt lat="46.27976" lon="2.86987">
        <ele>555.72</ele>
        <time>2018-07-14T06:31:22.000Z</time>
      </trkpt>
      <trkpt lat="46.27973" lon="2.87003">
        <ele>555.62</ele>
        <time>2018-07-14T06:31:24.000Z</time>
      </trkpt>
      <trkpt lat="46.27971" lon="2.8702">
        <ele>555.85</ele>
        <time>2018-07-14T06:31:26.000Z</time>
      </trkpt>
      <trkpt lat="46.27969" lon="2.87039">
        <ele>556.14</ele>
        <time>2018-07-14T06:31:28.000Z</time>
      </trkpt>
      <trkpt lat="46.27964" lon="2.87058">
        <ele>556.41</ele>
        <time>2018-07-14T06:31:30.000Z</time>
      </trkpt>
      <trkpt lat="46.27959" lon="2.87075">
        <ele>556.75</ele>
        <time>2018-07-14T06:31:32.000Z</time>
      </trkpt>
      <trkpt lat="46.27954" lon="2.87092">
        <ele>557.1</ele>
        <time>2018-07-14T06:31:34.000Z</time>
      </trkpt>
      <trkpt lat="46.27947" lon="2.87111">
        <ele>557.25</ele>
        <time>2018-07-14T06:31:36.000Z</time>
      </trkpt>
      <trkpt lat="46.2794" lon="2.8713">
        <ele>557.42</ele>
        <time>2018-07-14T06:31:38.000Z</time>
      </trkpt>
      <trkpt lat="46.2793" lon="2.87147">
        <ele>557.53</ele>
        <time>2018-07-14T06:31:40.000Z</time>
      </trkpt>
      <trkpt lat="46.2792" lon="2.87162">
        <ele>557.74</ele>
        <time>2018-07-14T06:31:42.000Z</time>
      </trkpt>
      <trkpt lat="46.2791" lon="2.87179">
        <ele>558.02</ele>
        <time>2018-07-14T06:31:44.000Z</time>
      </trkpt>
      <trkpt lat="46.27899" lon="2.87196">
        <ele>558.16</ele>
        <time>2018-07-14T06:31:46.000Z</time>
      </trkpt>
      <trkpt lat="46.27888" lon="2.87213">
        <ele>558.35</ele>
        <time>2018-07-14T06:31:48.000Z</time>
      </trkpt>
      <trkpt lat="46.27878" lon="2.8723">
        <ele>558.48</ele>
        <time>2018-07-14T06:31:50.000Z</time>
      </trkpt>
      <trkpt lat="46.27867" lon="2.87245">
        <ele>558.84</ele>
        <time>2018-07-14T06:31:52.000Z</time>
      </trkpt>
      <trkpt lat="46.27856" lon="2.87262">
        <ele>558.98</ele>
        <time>2018-07-14T06:31:54.000Z</time>
      </trkpt>
      <trkpt lat="46.27845" lon="2.8728">
        <ele>558.71</ele>
        <time>2018-07-14T06:31:56.000Z</time>
      </trkpt>
      <trkpt lat="46.27835" lon="2.87299">
        <ele>558.39</ele>
        <time>2018-07-14T06:31:58.000Z</time>
      </trkpt>
      <trkpt lat="46.27824" lon="2.87317">
        <ele>558.15</ele>
        <time>2018-07-14T06:32:00.000Z</time>
      </trkpt>
      <trkpt lat="46.27813" lon="2.87334">
        <ele>558.07</ele>
        <time>2018-07-14T06:32:02.000Z</time>
      </trkpt>
      <trkpt lat="46.27802" lon="2.87351">
        <ele>558.53</ele>
        <time>2018-07-14T06:32:04.000Z</time>
      </trkpt>
      <trkpt lat="46.27791" lon="2.87369">
        <ele>558.49</ele>
        <time>2018-07-14T06:32:06.000Z</time>
      </trkpt>
      <trkpt lat="46.2778" lon="2.87385">
        <ele>558.41</ele>
        <time>2018-07-14T06:32:08.000Z</time>
      </trkpt>
      <trkpt lat="46.27769" lon="2.87399">
        <ele>558.32</ele>
        <time>2018-07-14T06:32:10.000Z</time>
      </trkpt>
      <trkpt lat="46.27758" lon="2.87412">
        <ele>558.22</ele>
        <time>2018-07-14T06:32:12.000Z</time>
      </trkpt>
      <trkpt lat="46.27747" lon="2.87424">
        <ele>557.94</ele>
        <time>2018-07-14T06:32:14.000Z</time>
      </trkpt>
      <trkpt lat="46.27736" lon="2.87435">
        <ele>557.72</ele>
        <time>2018-07-14T06:32:16.000Z</time>
      </trkpt>
      <trkpt lat="46.27726" lon="2.87446">
        <ele>557.65</ele>
        <time>2018-07-14T06:32:18.000Z</time>
      </trkpt>
      <trkpt lat="46.27716" lon="2.87457">
        <ele>558.03</ele>
        <time>2018-07-14T06:32:20.000Z</time>
      </trkpt>
      <trkpt lat="46.27707" lon="2.87468">
        <ele>558.58</ele>
        <time>2018-07-14T06:32:22.000Z</time>
      </trkpt>
      <trkpt lat="46.27699" lon="2.87477">
        <ele>559.2</ele>
        <time>2018-07-14T06:32:24.000Z</time>
      </trkpt>
      <trkpt lat="46.27691" lon="2.87488">
        <ele>559.7</ele>
        <time>2018-07-14T06:32:26.000Z</time>
      </trkpt>
      <trkpt lat="46.27683" lon="2.875">
        <ele>560.1</ele>
        <time>2018-07-14T06:32:28.000Z</time>
      </trkpt>
      <trkpt lat="46.27672" lon="2.87512">
        <ele>560.48</ele>
        <time>2018-07-14T06:32:30.000Z</time>
      </trkpt>
      <trkpt lat="46.27662" lon="2.87525">
        <ele>560.58</ele>
        <time>2018-07-14T06:32:32.000Z</time>
      </trkpt>
      <trkpt lat="46.27653" lon="2.87538">
        <ele>560.56</ele>
        <time>2018-07-14T06:32:34.000Z</time>
      </trkpt>
      <trkpt lat="46.27645" lon="2.87551">
        <ele>560.9</ele>
        <time>2018-07-14T06:32:36.000Z</time>
      </trkpt>
      <trkpt lat="46.27636" lon="2.87564">
        <ele>561.33</ele>
        <time>2018-07-14T06:32:38.000Z</time>
      </trkpt>
      <trkpt lat="46.27629" lon="2.87577">
        <ele>561.76</ele>
        <time>2018-07-14T06:32:40.000Z</time>
      </trkpt>
      <trkpt lat="46.27622" lon="2.8759">
        <ele>562.38</ele>
        <time>2018-07-14T06:32:42.000Z</time>
      </trkpt>
      <trkpt lat="46.27615" lon="2.87603">
        <ele>563.33</ele>
        <time>2018-07-14T06:32:44.000Z</time>
      </trkpt>
      <trkpt lat="46.27607" lon="2.87614">
        <ele>564.45</ele>
        <time>2018-07-14T06:32:46.000Z</time>
      </trkpt>
      <trkpt lat="46.27599" lon="2.87627">
        <ele>565.1</ele>
        <time>2018-07-14T06:32:48.000Z</time>
      </trkpt>
      <trkpt lat="46.27591" lon="2.87642">
        <ele>565.52</ele>
        <time>2018-07-14T06:32:50.000Z</time>
      </trkpt>
      <trkpt lat="46.27582" lon="2.87656">
        <ele>566.04</ele>
        <time>2018-07-14T06:32:52.000Z</time>
      </trkpt>
      <trkpt lat="46.27573" lon="2.87672">
        <ele>565.89</ele>
        <time>2018-07-14T06:32:54.000Z</time>
      </trkpt>
      <trkpt lat="46.27563" lon="2.87688">
        <ele>565.88</ele>
        <time>2018-07-14T06:32:56.000Z</time>
      </trkpt>
      <trkpt lat="46.27553" lon="2.87704">
        <ele>565.7</ele>
        <time>2018-07-14T06:32:58.000Z</time>
      </trkpt>
      <trkpt lat="46.27542" lon="2.87721">
        <ele>565.38</ele>
        <time>2018-07-14T06:33:00.000Z</time>
      </trkpt>
      <trkpt lat="46.27532" lon="2.8774">
        <ele>565.05</ele>
        <time>2018-07-14T06:33:02.000Z</time>
      </trkpt>
      <trkpt lat="46.27522" lon="2.87759">
        <ele>564.92</ele>
        <time>2018-07-14T06:33:04.000Z</time>
      </trkpt>
      <trkpt lat="46.27513" lon="2.87778">
        <ele>565.01</ele>
        <time>2018-07-14T06:33:06.000Z</time>
      </trkpt>
      <trkpt lat="46.27504" lon="2.87796">
        <ele>565.09</ele>
        <time>2018-07-14T06:33:08.000Z</time>
      </trkpt>
      <trkpt lat="46.27496" lon="2.87814">
        <ele>565.09</ele>
        <time>2018-07-14T06:33:10.000Z</time>
      </trkpt>
      <trkpt lat="46.27488" lon="2.87832">
        <ele>564.6</ele>
        <time>2018-07-14T06:33:12.000Z</time>
      </trkpt>
      <trkpt lat="46.2748" lon="2.87849">
        <ele>564.13</ele>
        <time>2018-07-14T06:33:14.000Z</time>
      </trkpt>
      <trkpt lat="46.27472" lon="2.87865">
        <ele>564.22</ele>
        <time>2018-07-14T06:33:16.000Z</time>
      </trkpt>
      <trkpt lat="46.27465" lon="2.8788">
        <ele>564.45</ele>
        <time>2018-07-14T06:33:18.000Z</time>
      </trkpt>
      <trkpt lat="46.27458" lon="2.87896">
        <ele>564.39</ele>
        <time>2018-07-14T06:33:20.000Z</time>
      </trkpt>
      <trkpt lat="46.2745" lon="2.87911">
        <ele>564.02</ele>
        <time>2018-07-14T06:33:22.000Z</time>
      </trkpt>
      <trkpt lat="46.27443" lon="2.87925">
        <ele>563.69</ele>
        <time>2018-07-14T06:33:24.000Z</time>
      </trkpt>
      <trkpt lat="46.27437" lon="2.8794">
        <ele>563.65</ele>
        <time>2018-07-14T06:33:26.000Z</time>
      </trkpt>
      <trkpt lat="46.2743" lon="2.87954">
        <ele>563.41</ele>
        <time>2018-07-14T06:33:28.000Z</time>
      </trkpt>
      <trkpt lat="46.27423" lon="2.87968">
        <ele>563.65</ele>
        <time>2018-07-14T06:33:30.000Z</time>
      </trkpt>
      <trkpt lat="46.27416" lon="2.87982">
        <ele>564.22</ele>
        <time>2018-07-14T06:33:32.000Z</time>
      </trkpt>
      <trkpt lat="46.27408" lon="2.87997">
        <ele>564.8</ele>
        <time>2018-07-14T06:33:34.000Z</time>
      </trkpt>
      <trkpt lat="46.27401" lon="2.88012">
        <ele>565.18</ele>
        <time>2018-07-14T06:33:36.000Z</time>
      </trkpt>
      <trkpt lat="46.2739" lon="2.88035">
        <ele>566.24</ele>
        <time>2018-07-14T06:33:39.000Z</time>
      </trkpt>
      <trkpt lat="46.27383" lon="2.88051">
        <ele>566.67</ele>
        <time>2018-07-14T06:33:41.000Z</time>
      </trkpt>
      <trkpt lat="46.27378" lon="2.88069">
        <ele>567.03</ele>
        <time>2018-07-14T06:33:43.000Z</time>
      </trkpt>
      <trkpt lat="46.27372" lon="2.88085">
        <ele>567.39</ele>
        <time>2018-07-14T06:33:45.000Z</time>
      </trkpt>
      <trkpt lat="46.27368" lon="2.88103">
        <ele>567.21</ele>
        <time>2018-07-14T06:33:47.000Z</time>
      </trkpt>
      <trkpt lat="46.27365" lon="2.88122">
        <ele>567.59</ele>
        <time>2018-07-14T06:33:49.000Z</time>
      </trkpt>
      <trkpt lat="46.27363" lon="2.88141">
        <ele>568.13</ele>
        <time>2018-07-14T06:33:51.000Z</time>
      </trkpt>
      <trkpt lat="46.27361" lon="2.8816">
        <ele>568.81</ele>
        <time>2018-07-14T06:33:53.000Z</time>
      </trkpt>
      <trkpt lat="46.2736" lon="2.88178">
        <ele>569.84</ele>
        <time>2018-07-14T06:33:55.000Z</time>
      </trkpt>
      <trkpt lat="46.27358" lon="2.88195">
        <ele>570.63</ele>
        <time>2018-07-14T06:33:57.000Z</time>
      </trkpt>
      <trkpt lat="46.27355" lon="2.88211">
        <ele>570.96</ele>
        <time>2018-07-14T06:33:59.000Z</time>
      </trkpt>
      <trkpt lat="46.27354" lon="2.88228">
        <ele>571.64</ele>
        <time>2018-07-14T06:34:01.000Z</time>
      </trkpt>
      <trkpt lat="46.27353" lon="2.88245">
        <ele>571.53</ele>
        <time>2018-07-14T06:34:03.000Z</time>
      </trkpt>
      <trkpt lat="46.27353" lon="2.8826">
        <ele>571.65</ele>
        <time>2018-07-14T06:34:05.000Z</time>
      </trkpt>
      <trkpt lat="46.27352" lon="2.88275">
        <ele>571.99</ele>
        <time>2018-07-14T06:34:07.000Z</time>
      </trkpt>
      <trkpt lat="46.27352" lon="2.88289">
        <ele>572.45</ele>
        <time>2018-07-14T06:34:09.000Z</time>
      </trkpt>
      <trkpt lat="46.27353" lon="2.88308">
        <ele>573.24</ele>
        <time>2018-07-14T06:34:12.000Z</time>
      </trkpt>
      <trkpt lat="46.27353" lon="2.88326">
        <ele>573.71</ele>
        <time>2018-07-14T06:34:15.000Z</time>
      </trkpt>
      <trkpt lat="46.2735" lon="2.88345">
        <ele>573.97</ele>
        <time>2018-07-14T06:34:18.000Z</time>
      </trkpt>
      <trkpt lat="46.27349" lon="2.88361">
        <ele>574.38</ele>
        <time>2018-07-14T06:34:21.000Z</time>
      </trkpt>
      <trkpt lat="46.27349" lon="2.8838">
        <ele>575.09</ele>
        <time>2018-07-14T06:34:24.000Z</time>
      </trkpt>
      <trkpt lat="46.2735" lon="2.88394">
        <ele>575.65</ele>
        <time>2018-07-14T06:34:26.000Z</time>
      </trkpt>
      <trkpt lat="46.27351" lon="2.88414">
        <ele>576.65</ele>
        <time>2018-07-14T06:34:29.000Z</time>
      </trkpt>
      <trkpt lat="46.27351" lon="2.88428">
        <ele>577.67</ele>
        <time>2018-07-14T06:34:31.000Z</time>
      </trkpt>
      <trkpt lat="46.27353" lon="2.88447">
        <ele>578.07</ele>
        <time>2018-07-14T06:34:34.000Z</time>
      </trkpt>
      <trkpt lat="46.27353" lon="2.88462">
        <ele>577.78</ele>
        <time>2018-07-14T06:34:36.000Z</time>
      </trkpt>
      <trkpt lat="46.27353" lon="2.88477">
        <ele>578.01</ele>
        <time>2018-07-14T06:34:38.000Z</time>
      </trkpt>
      <trkpt lat="46.27353" lon="2.88491">
        <ele>578.07</ele>
        <time>2018-07-14T06:34:40.000Z</time>
      </trkpt>
      <trkpt lat="46.27353" lon="2.88507">
        <ele>577.91</ele>
        <time>2018-07-14T06:34:42.000Z</time>
      </trkpt>
      <trkpt lat="46.27353" lon="2.88523">
        <ele>577.7</ele>
        <time>2018-07-14T06:34:44.000Z</time>
      </trkpt>
      <trkpt lat="46.27353" lon="2.88539">
        <ele>577.46</ele>
        <time>2018-07-14T06:34:46.000Z</time>
      </trkpt>
      <trkpt lat="46.27353" lon="2.88554">
        <ele>577.62</ele>
        <time>2018-07-14T06:34:48.000Z</time>
      </trkpt>
      <trkpt lat="46.27351" lon="2.88568">
        <ele>578.03</ele>
        <time>2018-07-14T06:34:50.000Z</time>
      </trkpt>
      <trkpt lat="46.2735" lon="2.88584">
        <ele>578.36</ele>
        <time>2018-07-14T06:34:52.000Z</time>
      </trkpt>
      <trkpt lat="46.2735" lon="2.886">
        <ele>578.73</ele>
        <time>2018-07-14T06:34:54.000Z</time>
      </trkpt>
      <trkpt lat="46.27349" lon="2.88616">
        <ele>579.07</ele>
        <time>2018-07-14T06:34:56.000Z</time>
      </trkpt>
      <trkpt lat="46.27348" lon="2.88631">
        <ele>579.1</ele>
        <time>2018-07-14T06:34:58.000Z</time>
      </trkpt>
      <trkpt lat="46.27347" lon="2.88645">
        <ele>579.26</ele>
        <time>2018-07-14T06:35:00.000Z</time>
      </trkpt>
      <trkpt lat="46.27346" lon="2.8866">
        <ele>579.6</ele>
        <time>2018-07-14T06:35:02.000Z</time>
      </trkpt>
      <trkpt lat="46.27345" lon="2.88674">
        <ele>580.09</ele>
        <time>2018-07-14T06:35:04.000Z</time>
      </trkpt>
      <trkpt lat="46.27345" lon="2.88688">
        <ele>580.69</ele>
        <time>2018-07-14T06:35:06.000Z</time>
      </trkpt>
      <trkpt lat="46.27344" lon="2.88703">
        <ele>581.49</ele>
        <time>2018-07-14T06:35:08.000Z</time>
      </trkpt>
      <trkpt lat="46.27343" lon="2.88718">
        <ele>582.25</ele>
        <time>2018-07-14T06:35:10.000Z</time>
      </trkpt>
      <trkpt lat="46.27342" lon="2.88733">
        <ele>582.81</ele>
        <time>2018-07-14T06:35:12.000Z</time>
      </trkpt>
      <trkpt lat="46.27341" lon="2.88748">
        <ele>582.88</ele>
        <time>2018-07-14T06:35:14.000Z</time>
      </trkpt>
      <trkpt lat="46.27339" lon="2.88764">
        <ele>582.94</ele>
        <time>2018-07-14T06:35:16.000Z</time>
      </trkpt>
      <trkpt lat="46.27338" lon="2.8878">
        <ele>583.09</ele>
        <time>2018-07-14T06:35:18.000Z</time>
      </trkpt>
      <trkpt lat="46.27337" lon="2.88796">
        <ele>583.46</ele>
        <time>2018-07-14T06:35:20.000Z</time>
      </trkpt>
      <trkpt lat="46.27335" lon="2.88811">
        <ele>583.79</ele>
        <time>2018-07-14T06:35:22.000Z</time>
      </trkpt>
      <trkpt lat="46.27334" lon="2.88827">
        <ele>583.94</ele>
        <time>2018-07-14T06:35:24.000Z</time>
      </trkpt>
      <trkpt lat="46.27332" lon="2.88842">
        <ele>584.19</ele>
        <time>2018-07-14T06:35:26.000Z</time>
      </trkpt>
      <trkpt lat="46.2733" lon="2.88855">
        <ele>584.59</ele>
        <time>2018-07-14T06:35:28.000Z</time>
      </trkpt>
      <trkpt lat="46.27328" lon="2.88874">
        <ele>585.4</ele>
        <time>2018-07-14T06:35:31.000Z</time>
      </trkpt>
      <trkpt lat="46.27324" lon="2.8889">
        <ele>586.96</ele>
        <time>2018-07-14T06:35:34.000Z</time>
      </trkpt>
      <trkpt lat="46.2732" lon="2.88905">
        <ele>588.49</ele>
        <time>2018-07-14T06:35:37.000Z</time>
      </trkpt>
      <trkpt lat="46.27316" lon="2.88922">
        <ele>589.03</ele>
        <time>2018-07-14T06:35:40.000Z</time>
      </trkpt>
      <trkpt lat="46.27314" lon="2.8894">
        <ele>589.69</ele>
        <time>2018-07-14T06:35:43.000Z</time>
      </trkpt>
      <trkpt lat="46.27311" lon="2.88953">
        <ele>589.91</ele>
        <time>2018-07-14T06:35:45.000Z</time>
      </trkpt>
      <trkpt lat="46.27308" lon="2.88971">
        <ele>589.71</ele>
        <time>2018-07-14T06:35:48.000Z</time>
      </trkpt>
      <trkpt lat="46.27308" lon="2.88984">
        <ele>589.51</ele>
        <time>2018-07-14T06:35:50.000Z</time>
      </trkpt>
      <trkpt lat="46.27308" lon="2.89001">
        <ele>589.58</ele>
        <time>2018-07-14T06:35:52.000Z</time>
      </trkpt>
      <trkpt lat="46.27307" lon="2.89018">
        <ele>589.85</ele>
        <time>2018-07-14T06:35:54.000Z</time>
      </trkpt>
      <trkpt lat="46.27305" lon="2.89031">
        <ele>590.07</ele>
        <time>2018-07-14T06:35:56.000Z</time>
      </trkpt>
      <trkpt lat="46.27304" lon="2.89047">
        <ele>589.87</ele>
        <time>2018-07-14T06:35:58.000Z</time>
      </trkpt>
      <trkpt lat="46.27303" lon="2.89062">
        <ele>590.22</ele>
        <time>2018-07-14T06:36:00.000Z</time>
      </trkpt>
      <trkpt lat="46.27303" lon="2.89077">
        <ele>590.94</ele>
        <time>2018-07-14T06:36:02.000Z</time>
      </trkpt>
      <trkpt lat="46.27301" lon="2.89093">
        <ele>591.41</ele>
        <time>2018-07-14T06:36:04.000Z</time>
      </trkpt>
      <trkpt lat="46.273" lon="2.89109">
        <ele>592.01</ele>
        <time>2018-07-14T06:36:06.000Z</time>
      </trkpt>
      <trkpt lat="46.27299" lon="2.89127">
        <ele>592.68</ele>
        <time>2018-07-14T06:36:08.000Z</time>
      </trkpt>
      <trkpt lat="46.27296" lon="2.89145">
        <ele>593.33</ele>
        <time>2018-07-14T06:36:10.000Z</time>
      </trkpt>
      <trkpt lat="46.27292" lon="2.89163">
        <ele>593.77</ele>
        <time>2018-07-14T06:36:12.000Z</time>
      </trkpt>
      <trkpt lat="46.27287" lon="2.89179">
        <ele>593.8</ele>
        <time>2018-07-14T06:36:14.000Z</time>
      </trkpt>
      <trkpt lat="46.27281" lon="2.89195">
        <ele>593.94</ele>
        <time>2018-07-14T06:36:16.000Z</time>
      </trkpt>
      <trkpt lat="46.27273" lon="2.89209">
        <ele>594.19</ele>
        <time>2018-07-14T06:36:18.000Z</time>
      </trkpt>
      <trkpt lat="46.27264" lon="2.89222">
        <ele>594.28</ele>
        <time>2018-07-14T06:36:20.000Z</time>
      </trkpt>
      <trkpt lat="46.27255" lon="2.89232">
        <ele>594.22</ele>
        <time>2018-07-14T06:36:22.000Z</time>
      </trkpt>
      <trkpt lat="46.27246" lon="2.89242">
        <ele>594.56</ele>
        <time>2018-07-14T06:36:24.000Z</time>
      </trkpt>
      <trkpt lat="46.27235" lon="2.89252">
        <ele>595.18</ele>
        <time>2018-07-14T06:36:26.000Z</time>
      </trkpt>
      <trkpt lat="46.27224" lon="2.89263">
        <ele>595.76</ele>
        <time>2018-07-14T06:36:28.000Z</time>
      </trkpt>
      <trkpt lat="46.27214" lon="2.89273">
        <ele>596.58</ele>
        <time>2018-07-14T06:36:30.000Z</time>
      </trkpt>
      <trkpt lat="46.27203" lon="2.89279">
        <ele>598.34</ele>
        <time>2018-07-14T06:36:33.000Z</time>
      </trkpt>
      <trkpt lat="46.27194" lon="2.8927">
        <ele>599.51</ele>
        <time>2018-07-14T06:36:37.000Z</time>
      </trkpt>
      <trkpt lat="46.27186" lon="2.89256">
        <ele>598.45</ele>
        <time>2018-07-14T06:36:40.000Z</time>
      </trkpt>
      <trkpt lat="46.27177" lon="2.89242">
        <ele>597.98</ele>
        <time>2018-07-14T06:36:43.000Z</time>
      </trkpt>
      <trkpt lat="46.2717" lon="2.89232">
        <ele>598</ele>
        <time>2018-07-14T06:36:45.000Z</time>
      </trkpt>
      <trkpt lat="46.27163" lon="2.89223">
        <ele>598.09</ele>
        <time>2018-07-14T06:36:47.000Z</time>
      </trkpt>
      <trkpt lat="46.27155" lon="2.89212">
        <ele>598.25</ele>
        <time>2018-07-14T06:36:49.000Z</time>
      </trkpt>
      <trkpt lat="46.27148" lon="2.89202">
        <ele>598.33</ele>
        <time>2018-07-14T06:36:51.000Z</time>
      </trkpt>
      <trkpt lat="46.2714" lon="2.89193">
        <ele>598.27</ele>
        <time>2018-07-14T06:36:53.000Z</time>
      </trkpt>
      <trkpt lat="46.27132" lon="2.89185">
        <ele>598.31</ele>
        <time>2018-07-14T06:36:55.000Z</time>
      </trkpt>
      <trkpt lat="46.27124" lon="2.89175">
        <ele>598.46</ele>
        <time>2018-07-14T06:36:57.000Z</time>
      </trkpt>
      <trkpt lat="46.27116" lon="2.89165">
        <ele>598.52</ele>
        <time>2018-07-14T06:36:59.000Z</time>
      </trkpt>
      <trkpt lat="46.27108" lon="2.89155">
        <ele>598.7</ele>
        <time>2018-07-14T06:37:01.000Z</time>
      </trkpt>
      <trkpt lat="46.27101" lon="2.89144">
        <ele>598.86</ele>
        <time>2018-07-14T06:37:03.000Z</time>
      </trkpt>
      <trkpt lat="46.27093" lon="2.89133">
        <ele>598.92</ele>
        <time>2018-07-14T06:37:05.000Z</time>
      </trkpt>
      <trkpt lat="46.27085" lon="2.89122">
        <ele>599.27</ele>
        <time>2018-07-14T06:37:07.000Z</time>
      </trkpt>
      <trkpt lat="46.27075" lon="2.89111">
        <ele>599.55</ele>
        <time>2018-07-14T06:37:09.000Z</time>
      </trkpt>
      <trkpt lat="46.27066" lon="2.89099">
        <ele>599.72</ele>
        <time>2018-07-14T06:37:11.000Z</time>
      </trkpt>
      <trkpt lat="46.27058" lon="2.89088">
        <ele>599.77</ele>
        <time>2018-07-14T06:37:13.000Z</time>
      </trkpt>
      <trkpt lat="46.27048" lon="2.89076">
        <ele>599.6</ele>
        <time>2018-07-14T06:37:15.000Z</time>
      </trkpt>
      <trkpt lat="46.27039" lon="2.89063">
        <ele>599.61</ele>
        <time>2018-07-14T06:37:17.000Z</time>
      </trkpt>
      <trkpt lat="46.27031" lon="2.89049">
        <ele>599.68</ele>
        <time>2018-07-14T06:37:19.000Z</time>
      </trkpt>
      <trkpt lat="46.27022" lon="2.89036">
        <ele>599.86</ele>
        <time>2018-07-14T06:37:21.000Z</time>
      </trkpt>
      <trkpt lat="46.27014" lon="2.89024">
        <ele>600.12</ele>
        <time>2018-07-14T06:37:23.000Z</time>
      </trkpt>
      <trkpt lat="46.27006" lon="2.89014">
        <ele>600.67</ele>
        <time>2018-07-14T06:37:25.000Z</time>
      </trkpt>
      <trkpt lat="46.26999" lon="2.89004">
        <ele>601.23</ele>
        <time>2018-07-14T06:37:27.000Z</time>
      </trkpt>
      <trkpt lat="46.26991" lon="2.88993">
        <ele>601.76</ele>
        <time>2018-07-14T06:37:29.000Z</time>
      </trkpt>
      <trkpt lat="46.26985" lon="2.88979">
        <ele>601.89</ele>
        <time>2018-07-14T06:37:31.000Z</time>
      </trkpt>
      <trkpt lat="46.26979" lon="2.88967">
        <ele>602.5</ele>
        <time>2018-07-14T06:37:33.000Z</time>
      </trkpt>
      <trkpt lat="46.26972" lon="2.88957">
        <ele>602.71</ele>
        <time>2018-07-14T06:37:35.000Z</time>
      </trkpt>
      <trkpt lat="46.26965" lon="2.88948">
        <ele>602.97</ele>
        <time>2018-07-14T06:37:37.000Z</time>
      </trkpt>
      <trkpt lat="46.26959" lon="2.88937">
        <ele>603.29</ele>
        <time>2018-07-14T06:37:39.000Z</time>
      </trkpt>
      <trkpt lat="46.26948" lon="2.88924">
        <ele>603.72</ele>
        <time>2018-07-14T06:37:42.000Z</time>
      </trkpt>
      <trkpt lat="46.2694" lon="2.88916">
        <ele>604.09</ele>
        <time>2018-07-14T06:37:44.000Z</time>
      </trkpt>
      <trkpt lat="46.26931" lon="2.88906">
        <ele>604.33</ele>
        <time>2018-07-14T06:37:46.000Z</time>
      </trkpt>
      <trkpt lat="46.26924" lon="2.88895">
        <ele>604.43</ele>
        <time>2018-07-14T06:37:48.000Z</time>
      </trkpt>
      <trkpt lat="46.26916" lon="2.88886">
        <ele>604.39</ele>
        <time>2018-07-14T06:37:50.000Z</time>
      </trkpt>
      <trkpt lat="46.26909" lon="2.88878">
        <ele>604.66</ele>
        <time>2018-07-14T06:37:52.000Z</time>
      </trkpt>
      <trkpt lat="46.26901" lon="2.8887">
        <ele>605.06</ele>
        <time>2018-07-14T06:37:54.000Z</time>
      </trkpt>
      <trkpt lat="46.26893" lon="2.88861">
        <ele>605.52</ele>
        <time>2018-07-14T06:37:56.000Z</time>
      </trkpt>
      <trkpt lat="46.26886" lon="2.88851">
        <ele>606.43</ele>
        <time>2018-07-14T06:37:58.000Z</time>
      </trkpt>
      <trkpt lat="46.26878" lon="2.88842">
        <ele>607.2</ele>
        <time>2018-07-14T06:38:00.000Z</time>
      </trkpt>
      <trkpt lat="46.2687" lon="2.88835">
        <ele>608.19</ele>
        <time>2018-07-14T06:38:02.000Z</time>
      </trkpt>
      <trkpt lat="46.26862" lon="2.88828">
        <ele>608.86</ele>
        <time>2018-07-14T06:38:04.000Z</time>
      </trkpt>
      <trkpt lat="46.26854" lon="2.88821">
        <ele>609.25</ele>
        <time>2018-07-14T06:38:06.000Z</time>
      </trkpt>
      <trkpt lat="46.26846" lon="2.88813">
        <ele>609.24</ele>
        <time>2018-07-14T06:38:08.000Z</time>
      </trkpt>
      <trkpt lat="46.26838" lon="2.88804">
        <ele>609.24</ele>
        <time>2018-07-14T06:38:10.000Z</time>
      </trkpt>
      <trkpt lat="46.26831" lon="2.88794">
        <ele>609.83</ele>
        <time>2018-07-14T06:38:12.000Z</time>
      </trkpt>
      <trkpt lat="46.26823" lon="2.88785">
        <ele>609.91</ele>
        <time>2018-07-14T06:38:14.000Z</time>
      </trkpt>
      <trkpt lat="46.26814" lon="2.88776">
        <ele>609.95</ele>
        <time>2018-07-14T06:38:16.000Z</time>
      </trkpt>
      <trkpt lat="46.26806" lon="2.88768">
        <ele>610.16</ele>
        <time>2018-07-14T06:38:18.000Z</time>
      </trkpt>
      <trkpt lat="46.26797" lon="2.88758">
        <ele>610.12</ele>
        <time>2018-07-14T06:38:20.000Z</time>
      </trkpt>
      <trkpt lat="46.26788" lon="2.88747">
        <ele>610.27</ele>
        <time>2018-07-14T06:38:22.000Z</time>
      </trkpt>
      <trkpt lat="46.26779" lon="2.88738">
        <ele>610.55</ele>
        <time>2018-07-14T06:38:24.000Z</time>
      </trkpt>
      <trkpt lat="46.2677" lon="2.88728">
        <ele>611.24</ele>
        <time>2018-07-14T06:38:26.000Z</time>
      </trkpt>
      <trkpt lat="46.26762" lon="2.88717">
        <ele>611.83</ele>
        <time>2018-07-14T06:38:28.000Z</time>
      </trkpt>
      <trkpt lat="46.26754" lon="2.88705">
        <ele>612.33</ele>
        <time>2018-07-14T06:38:30.000Z</time>
      </trkpt>
      <trkpt lat="46.26745" lon="2.88694">
        <ele>612.88</ele>
        <time>2018-07-14T06:38:32.000Z</time>
      </trkpt>
      <trkpt lat="46.26736" lon="2.88683">
        <ele>612.97</ele>
        <time>2018-07-14T06:38:34.000Z</time>
      </trkpt>
      <trkpt lat="46.26727" lon="2.88673">
        <ele>612.86</ele>
        <time>2018-07-14T06:38:36.000Z</time>
      </trkpt>
      <trkpt lat="46.26719" lon="2.88662">
        <ele>612.83</ele>
        <time>2018-07-14T06:38:38.000Z</time>
      </trkpt>
      <trkpt lat="46.26711" lon="2.88652">
        <ele>613.16</ele>
        <time>2018-07-14T06:38:40.000Z</time>
      </trkpt>
      <trkpt lat="46.26701" lon="2.88642">
        <ele>613.44</ele>
        <time>2018-07-14T06:38:42.000Z</time>
      </trkpt>
      <trkpt lat="46.26692" lon="2.88632">
        <ele>613.85</ele>
        <time>2018-07-14T06:38:44.000Z</time>
      </trkpt>
      <trkpt lat="46.26683" lon="2.88623">
        <ele>614.33</ele>
        <time>2018-07-14T06:38:46.000Z</time>
      </trkpt>
      <trkpt lat="46.26675" lon="2.88614">
        <ele>614.72</ele>
        <time>2018-07-14T06:38:48.000Z</time>
      </trkpt>
      <trkpt lat="46.26665" lon="2.88605">
        <ele>614.47</ele>
        <time>2018-07-14T06:38:50.000Z</time>
      </trkpt>
      <trkpt lat="46.26655" lon="2.88595">
        <ele>614.48</ele>
        <time>2018-07-14T06:38:52.000Z</time>
      </trkpt>
      <trkpt lat="46.26645" lon="2.88585">
        <ele>613.94</ele>
        <time>2018-07-14T06:38:54.000Z</time>
      </trkpt>
      <trkpt lat="46.26634" lon="2.88575">
        <ele>613.53</ele>
        <time>2018-07-14T06:38:56.000Z</time>
      </trkpt>
      <trkpt lat="46.26624" lon="2.88564">
        <ele>613.54</ele>
        <time>2018-07-14T06:38:58.000Z</time>
      </trkpt>
      <trkpt lat="46.26613" lon="2.88554">
        <ele>613.69</ele>
        <time>2018-07-14T06:39:00.000Z</time>
      </trkpt>
      <trkpt lat="46.26603" lon="2.88544">
        <ele>614.22</ele>
        <time>2018-07-14T06:39:02.000Z</time>
      </trkpt>
      <trkpt lat="46.26592" lon="2.88533">
        <ele>614.78</ele>
        <time>2018-07-14T06:39:04.000Z</time>
      </trkpt>
      <trkpt lat="46.26581" lon="2.88522">
        <ele>615.05</ele>
        <time>2018-07-14T06:39:06.000Z</time>
      </trkpt>
      <trkpt lat="46.26571" lon="2.88511">
        <ele>615.15</ele>
        <time>2018-07-14T06:39:08.000Z</time>
      </trkpt>
      <trkpt lat="46.26561" lon="2.885">
        <ele>615.22</ele>
        <time>2018-07-14T06:39:10.000Z</time>
      </trkpt>
      <trkpt lat="46.26551" lon="2.8849">
        <ele>615.24</ele>
        <time>2018-07-14T06:39:12.000Z</time>
      </trkpt>
      <trkpt lat="46.26542" lon="2.8848">
        <ele>615.65</ele>
        <time>2018-07-14T06:39:14.000Z</time>
      </trkpt>
      <trkpt lat="46.26532" lon="2.88471">
        <ele>616.13</ele>
        <time>2018-07-14T06:39:16.000Z</time>
      </trkpt>
      <trkpt lat="46.26522" lon="2.88462">
        <ele>616.56</ele>
        <time>2018-07-14T06:39:18.000Z</time>
      </trkpt>
      <trkpt lat="46.2651" lon="2.88455">
        <ele>616.99</ele>
        <time>2018-07-14T06:39:20.000Z</time>
      </trkpt>
      <trkpt lat="46.26498" lon="2.88449">
        <ele>617.51</ele>
        <time>2018-07-14T06:39:22.000Z</time>
      </trkpt>
      <trkpt lat="46.26485" lon="2.88444">
        <ele>617.81</ele>
        <time>2018-07-14T06:39:24.000Z</time>
      </trkpt>
      <trkpt lat="46.26473" lon="2.8844">
        <ele>618.11</ele>
        <time>2018-07-14T06:39:26.000Z</time>
      </trkpt>
      <trkpt lat="46.2646" lon="2.88437">
        <ele>618.38</ele>
        <time>2018-07-14T06:39:28.000Z</time>
      </trkpt>
      <trkpt lat="46.26447" lon="2.88436">
        <ele>618.71</ele>
        <time>2018-07-14T06:39:30.000Z</time>
      </trkpt>
      <trkpt lat="46.26435" lon="2.88436">
        <ele>619.18</ele>
        <time>2018-07-14T06:39:32.000Z</time>
      </trkpt>
      <trkpt lat="46.26422" lon="2.88437">
        <ele>619.57</ele>
        <time>2018-07-14T06:39:34.000Z</time>
      </trkpt>
      <trkpt lat="46.26409" lon="2.88439">
        <ele>619.88</ele>
        <time>2018-07-14T06:39:36.000Z</time>
      </trkpt>
      <trkpt lat="46.26396" lon="2.88442">
        <ele>620.14</ele>
        <time>2018-07-14T06:39:38.000Z</time>
      </trkpt>
      <trkpt lat="46.26383" lon="2.88446">
        <ele>620.32</ele>
        <time>2018-07-14T06:39:40.000Z</time>
      </trkpt>
      <trkpt lat="46.26371" lon="2.88451">
        <ele>620.51</ele>
        <time>2018-07-14T06:39:42.000Z</time>
      </trkpt>
      <trkpt lat="46.2636" lon="2.88457">
        <ele>620.61</ele>
        <time>2018-07-14T06:39:44.000Z</time>
      </trkpt>
      <trkpt lat="46.26348" lon="2.88463">
        <ele>620.84</ele>
        <time>2018-07-14T06:39:46.000Z</time>
      </trkpt>
      <trkpt lat="46.26337" lon="2.88471">
        <ele>621.16</ele>
        <time>2018-07-14T06:39:48.000Z</time>
      </trkpt>
      <trkpt lat="46.26325" lon="2.88479">
        <ele>621.7</ele>
        <time>2018-07-14T06:39:50.000Z</time>
      </trkpt>
      <trkpt lat="46.26313" lon="2.88488">
        <ele>622.16</ele>
        <time>2018-07-14T06:39:52.000Z</time>
      </trkpt>
      <trkpt lat="46.26301" lon="2.88497">
        <ele>622.33</ele>
        <time>2018-07-14T06:39:54.000Z</time>
      </trkpt>
      <trkpt lat="46.26288" lon="2.88506">
        <ele>622.11</ele>
        <time>2018-07-14T06:39:56.000Z</time>
      </trkpt>
      <trkpt lat="46.26275" lon="2.88515">
        <ele>621.61</ele>
        <time>2018-07-14T06:39:58.000Z</time>
      </trkpt>
      <trkpt lat="46.26262" lon="2.88525">
        <ele>621.51</ele>
        <time>2018-07-14T06:40:00.000Z</time>
      </trkpt>
      <trkpt lat="46.2625" lon="2.88534">
        <ele>621.51</ele>
        <time>2018-07-14T06:40:02.000Z</time>
      </trkpt>
      <trkpt lat="46.26238" lon="2.88543">
        <ele>621.75</ele>
        <time>2018-07-14T06:40:04.000Z</time>
      </trkpt>
      <trkpt lat="46.26225" lon="2.88552">
        <ele>622.13</ele>
        <time>2018-07-14T06:40:06.000Z</time>
      </trkpt>
      <trkpt lat="46.26212" lon="2.8856">
        <ele>622.49</ele>
        <time>2018-07-14T06:40:08.000Z</time>
      </trkpt>
      <trkpt lat="46.26199" lon="2.88569">
        <ele>622.85</ele>
        <time>2018-07-14T06:40:10.000Z</time>
      </trkpt>
      <trkpt lat="46.26186" lon="2.88577">
        <ele>623.59</ele>
        <time>2018-07-14T06:40:12.000Z</time>
      </trkpt>
      <trkpt lat="46.26173" lon="2.88584">
        <ele>624.19</ele>
        <time>2018-07-14T06:40:14.000Z</time>
      </trkpt>
      <trkpt lat="46.26159" lon="2.8859">
        <ele>624.81</ele>
        <time>2018-07-14T06:40:16.000Z</time>
      </trkpt>
      <trkpt lat="46.26143" lon="2.88595">
        <ele>624.84</ele>
        <time>2018-07-14T06:40:18.000Z</time>
      </trkpt>
      <trkpt lat="46.26133" lon="2.88598">
        <ele>624.65</ele>
        <time>2018-07-14T06:40:19.000Z</time>
      </trkpt>
      <trkpt lat="46.26117" lon="2.886">
        <ele>624.67</ele>
        <time>2018-07-14T06:40:21.000Z</time>
      </trkpt>
      <trkpt lat="46.26101" lon="2.88599">
        <ele>624.67</ele>
        <time>2018-07-14T06:40:23.000Z</time>
      </trkpt>
      <trkpt lat="46.26084" lon="2.88595">
        <ele>623.82</ele>
        <time>2018-07-14T06:40:25.000Z</time>
      </trkpt>
      <trkpt lat="46.26075" lon="2.88593">
        <ele>623.42</ele>
        <time>2018-07-14T06:40:26.000Z</time>
      </trkpt>
      <trkpt lat="46.26065" lon="2.8859">
        <ele>623.03</ele>
        <time>2018-07-14T06:40:27.000Z</time>
      </trkpt>
      <trkpt lat="46.26056" lon="2.88586">
        <ele>622.67</ele>
        <time>2018-07-14T06:40:28.000Z</time>
      </trkpt>
      <trkpt lat="46.26046" lon="2.88581">
        <ele>621.89</ele>
        <time>2018-07-14T06:40:29.000Z</time>
      </trkpt>
      <trkpt lat="46.26038" lon="2.88575">
        <ele>621.69</ele>
        <time>2018-07-14T06:40:30.000Z</time>
      </trkpt>
      <trkpt lat="46.26028" lon="2.88568">
        <ele>621.56</ele>
        <time>2018-07-14T06:40:31.000Z</time>
      </trkpt>
      <trkpt lat="46.2602" lon="2.88561">
        <ele>621.03</ele>
        <time>2018-07-14T06:40:32.000Z</time>
      </trkpt>
      <trkpt lat="46.26012" lon="2.88553">
        <ele>620.59</ele>
        <time>2018-07-14T06:40:33.000Z</time>
      </trkpt>
      <trkpt lat="46.26003" lon="2.88544">
        <ele>619.99</ele>
        <time>2018-07-14T06:40:34.000Z</time>
      </trkpt>
      <trkpt lat="46.25995" lon="2.88534">
        <ele>619.67</ele>
        <time>2018-07-14T06:40:35.000Z</time>
      </trkpt>
      <trkpt lat="46.25987" lon="2.88523">
        <ele>618.92</ele>
        <time>2018-07-14T06:40:36.000Z</time>
      </trkpt>
      <trkpt lat="46.25978" lon="2.88513">
        <ele>618.44</ele>
        <time>2018-07-14T06:40:37.000Z</time>
      </trkpt>
      <trkpt lat="46.2597" lon="2.88501">
        <ele>617.93</ele>
        <time>2018-07-14T06:40:38.000Z</time>
      </trkpt>
      <trkpt lat="46.25962" lon="2.8849">
        <ele>617.29</ele>
        <time>2018-07-14T06:40:39.000Z</time>
      </trkpt>
      <trkpt lat="46.25954" lon="2.88479">
        <ele>616.79</ele>
        <time>2018-07-14T06:40:40.000Z</time>
      </trkpt>
      <trkpt lat="46.25946" lon="2.88468">
        <ele>616.38</ele>
        <time>2018-07-14T06:40:41.000Z</time>
      </trkpt>
      <trkpt lat="46.25938" lon="2.88456">
        <ele>615.77</ele>
        <time>2018-07-14T06:40:42.000Z</time>
      </trkpt>
      <trkpt lat="46.25931" lon="2.88445">
        <ele>615.17</ele>
        <time>2018-07-14T06:40:43.000Z</time>
      </trkpt>
      <trkpt lat="46.25923" lon="2.88434">
        <ele>614.55</ele>
        <time>2018-07-14T06:40:44.000Z</time>
      </trkpt>
      <trkpt lat="46.25916" lon="2.88422">
        <ele>614.02</ele>
        <time>2018-07-14T06:40:45.000Z</time>
      </trkpt>
      <trkpt lat="46.25908" lon="2.88411">
        <ele>613.54</ele>
        <time>2018-07-14T06:40:46.000Z</time>
      </trkpt>
      <trkpt lat="46.259" lon="2.88399">
        <ele>613.01</ele>
        <time>2018-07-14T06:40:47.000Z</time>
      </trkpt>
      <trkpt lat="46.25893" lon="2.88388">
        <ele>612.25</ele>
        <time>2018-07-14T06:40:48.000Z</time>
      </trkpt>
      <trkpt lat="46.25885" lon="2.88376">
        <ele>611.74</ele>
        <time>2018-07-14T06:40:49.000Z</time>
      </trkpt>
      <trkpt lat="46.25877" lon="2.88365">
        <ele>611.1</ele>
        <time>2018-07-14T06:40:50.000Z</time>
      </trkpt>
      <trkpt lat="46.25869" lon="2.88353">
        <ele>610.56</ele>
        <time>2018-07-14T06:40:51.000Z</time>
      </trkpt>
      <trkpt lat="46.25861" lon="2.88342">
        <ele>610.01</ele>
        <time>2018-07-14T06:40:52.000Z</time>
      </trkpt>
      <trkpt lat="46.25853" lon="2.88331">
        <ele>609.48</ele>
        <time>2018-07-14T06:40:53.000Z</time>
      </trkpt>
      <trkpt lat="46.25844" lon="2.88319">
        <ele>609</ele>
        <time>2018-07-14T06:40:54.000Z</time>
      </trkpt>
      <trkpt lat="46.25836" lon="2.88307">
        <ele>608.5</ele>
        <time>2018-07-14T06:40:55.000Z</time>
      </trkpt>
      <trkpt lat="46.25828" lon="2.88295">
        <ele>608.02</ele>
        <time>2018-07-14T06:40:56.000Z</time>
      </trkpt>
      <trkpt lat="46.2582" lon="2.88282">
        <ele>607.52</ele>
        <time>2018-07-14T06:40:57.000Z</time>
      </trkpt>
      <trkpt lat="46.25811" lon="2.8827">
        <ele>607.03</ele>
        <time>2018-07-14T06:40:58.000Z</time>
      </trkpt>
      <trkpt lat="46.25803" lon="2.88258">
        <ele>606.5</ele>
        <time>2018-07-14T06:40:59.000Z</time>
      </trkpt>
      <trkpt lat="46.25796" lon="2.88246">
        <ele>605.99</ele>
        <time>2018-07-14T06:41:00.000Z</time>
      </trkpt>
      <trkpt lat="46.25788" lon="2.88234">
        <ele>605.59</ele>
        <time>2018-07-14T06:41:01.000Z</time>
      </trkpt>
      <trkpt lat="46.25779" lon="2.88221">
        <ele>604.99</ele>
        <time>2018-07-14T06:41:02.000Z</time>
      </trkpt>
      <trkpt lat="46.25771" lon="2.88208">
        <ele>604.18</ele>
        <time>2018-07-14T06:41:03.000Z</time>
      </trkpt>
      <trkpt lat="46.25763" lon="2.88194">
        <ele>603.33</ele>
        <time>2018-07-14T06:41:04.000Z</time>
      </trkpt>
      <trkpt lat="46.25754" lon="2.88181">
        <ele>602.43</ele>
        <time>2018-07-14T06:41:05.000Z</time>
      </trkpt>
      <trkpt lat="46.25745" lon="2.88168">
        <ele>601.67</ele>
        <time>2018-07-14T06:41:06.000Z</time>
      </trkpt>
      <trkpt lat="46.25737" lon="2.88155">
        <ele>600.94</ele>
        <time>2018-07-14T06:41:07.000Z</time>
      </trkpt>
      <trkpt lat="46.25728" lon="2.88142">
        <ele>600.15</ele>
        <time>2018-07-14T06:41:08.000Z</time>
      </trkpt>
      <trkpt lat="46.2572" lon="2.88128">
        <ele>599.44</ele>
        <time>2018-07-14T06:41:09.000Z</time>
      </trkpt>
      <trkpt lat="46.2571" lon="2.88114">
        <ele>598.85</ele>
        <time>2018-07-14T06:41:10.000Z</time>
      </trkpt>
      <trkpt lat="46.25702" lon="2.88101">
        <ele>598.17</ele>
        <time>2018-07-14T06:41:11.000Z</time>
      </trkpt>
      <trkpt lat="46.25692" lon="2.88087">
        <ele>597.48</ele>
        <time>2018-07-14T06:41:12.000Z</time>
      </trkpt>
      <trkpt lat="46.25683" lon="2.88074">
        <ele>596.75</ele>
        <time>2018-07-14T06:41:13.000Z</time>
      </trkpt>
      <trkpt lat="46.25674" lon="2.88061">
        <ele>595.94</ele>
        <time>2018-07-14T06:41:14.000Z</time>
      </trkpt>
      <trkpt lat="46.25665" lon="2.88047">
        <ele>595.25</ele>
        <time>2018-07-14T06:41:15.000Z</time>
      </trkpt>
      <trkpt lat="46.25655" lon="2.88034">
        <ele>594.72</ele>
        <time>2018-07-14T06:41:16.000Z</time>
      </trkpt>
      <trkpt lat="46.25646" lon="2.88021">
        <ele>594.17</ele>
        <time>2018-07-14T06:41:17.000Z</time>
      </trkpt>
      <trkpt lat="46.25637" lon="2.88008">
        <ele>593.54</ele>
        <time>2018-07-14T06:41:18.000Z</time>
      </trkpt>
      <trkpt lat="46.25628" lon="2.87995">
        <ele>592.9</ele>
        <time>2018-07-14T06:41:19.000Z</time>
      </trkpt>
      <trkpt lat="46.25619" lon="2.87981">
        <ele>592.24</ele>
        <time>2018-07-14T06:41:20.000Z</time>
      </trkpt>
      <trkpt lat="46.2561" lon="2.87967">
        <ele>591.72</ele>
        <time>2018-07-14T06:41:21.000Z</time>
      </trkpt>
      <trkpt lat="46.25601" lon="2.87953">
        <ele>591.18</ele>
        <time>2018-07-14T06:41:22.000Z</time>
      </trkpt>
      <trkpt lat="46.25592" lon="2.8794">
        <ele>590.67</ele>
        <time>2018-07-14T06:41:23.000Z</time>
      </trkpt>
      <trkpt lat="46.25584" lon="2.87926">
        <ele>590.14</ele>
        <time>2018-07-14T06:41:24.000Z</time>
      </trkpt>
      <trkpt lat="46.25575" lon="2.87913">
        <ele>589.63</ele>
        <time>2018-07-14T06:41:25.000Z</time>
      </trkpt>
      <trkpt lat="46.25566" lon="2.879">
        <ele>589.09</ele>
        <time>2018-07-14T06:41:26.000Z</time>
      </trkpt>
      <trkpt lat="46.25557" lon="2.87888">
        <ele>588.64</ele>
        <time>2018-07-14T06:41:27.000Z</time>
      </trkpt>
      <trkpt lat="46.25547" lon="2.87876">
        <ele>588.28</ele>
        <time>2018-07-14T06:41:28.000Z</time>
      </trkpt>
      <trkpt lat="46.25537" lon="2.87865">
        <ele>587.88</ele>
        <time>2018-07-14T06:41:29.000Z</time>
      </trkpt>
      <trkpt lat="46.25526" lon="2.87853">
        <ele>587.49</ele>
        <time>2018-07-14T06:41:30.000Z</time>
      </trkpt>
      <trkpt lat="46.25515" lon="2.87843">
        <ele>586.83</ele>
        <time>2018-07-14T06:41:31.000Z</time>
      </trkpt>
      <trkpt lat="46.25504" lon="2.87834">
        <ele>586.26</ele>
        <time>2018-07-14T06:41:32.000Z</time>
      </trkpt>
      <trkpt lat="46.25492" lon="2.87825">
        <ele>585.84</ele>
        <time>2018-07-14T06:41:33.000Z</time>
      </trkpt>
      <trkpt lat="46.2548" lon="2.87818">
        <ele>585.29</ele>
        <time>2018-07-14T06:41:34.000Z</time>
      </trkpt>
      <trkpt lat="46.25468" lon="2.87811">
        <ele>584.56</ele>
        <time>2018-07-14T06:41:35.000Z</time>
      </trkpt>
      <trkpt lat="46.25455" lon="2.87805">
        <ele>583.69</ele>
        <time>2018-07-14T06:41:36.000Z</time>
      </trkpt>
      <trkpt lat="46.25443" lon="2.878">
        <ele>582.7</ele>
        <time>2018-07-14T06:41:37.000Z</time>
      </trkpt>
      <trkpt lat="46.25431" lon="2.87796">
        <ele>581.88</ele>
        <time>2018-07-14T06:41:38.000Z</time>
      </trkpt>
      <trkpt lat="46.25418" lon="2.87792">
        <ele>581.09</ele>
        <time>2018-07-14T06:41:39.000Z</time>
      </trkpt>
      <trkpt lat="46.25406" lon="2.8779">
        <ele>580.32</ele>
        <time>2018-07-14T06:41:40.000Z</time>
      </trkpt>
      <trkpt lat="46.25394" lon="2.87788">
        <ele>579.65</ele>
        <time>2018-07-14T06:41:41.000Z</time>
      </trkpt>
      <trkpt lat="46.25382" lon="2.87787">
        <ele>579.05</ele>
        <time>2018-07-14T06:41:42.000Z</time>
      </trkpt>
      <trkpt lat="46.2537" lon="2.87787">
        <ele>578.34</ele>
        <time>2018-07-14T06:41:43.000Z</time>
      </trkpt>
      <trkpt lat="46.25358" lon="2.87787">
        <ele>577.6</ele>
        <time>2018-07-14T06:41:44.000Z</time>
      </trkpt>
      <trkpt lat="46.25348" lon="2.87788">
        <ele>576.9</ele>
        <time>2018-07-14T06:41:45.000Z</time>
      </trkpt>
      <trkpt lat="46.25337" lon="2.87789">
        <ele>576.23</ele>
        <time>2018-07-14T06:41:46.000Z</time>
      </trkpt>
      <trkpt lat="46.25326" lon="2.87791">
        <ele>575.7</ele>
        <time>2018-07-14T06:41:47.000Z</time>
      </trkpt>
      <trkpt lat="46.25315" lon="2.87792">
        <ele>575.21</ele>
        <time>2018-07-14T06:41:48.000Z</time>
      </trkpt>
      <trkpt lat="46.25304" lon="2.87793">
        <ele>574.79</ele>
        <time>2018-07-14T06:41:49.000Z</time>
      </trkpt>
      <trkpt lat="46.25293" lon="2.87795">
        <ele>574.37</ele>
        <time>2018-07-14T06:41:50.000Z</time>
      </trkpt>
      <trkpt lat="46.25282" lon="2.87797">
        <ele>573.86</ele>
        <time>2018-07-14T06:41:51.000Z</time>
      </trkpt>
      <trkpt lat="46.25271" lon="2.87798">
        <ele>573.32</ele>
        <time>2018-07-14T06:41:52.000Z</time>
      </trkpt>
      <trkpt lat="46.2526" lon="2.87799">
        <ele>572.77</ele>
        <time>2018-07-14T06:41:53.000Z</time>
      </trkpt>
      <trkpt lat="46.2525" lon="2.878">
        <ele>572.22</ele>
        <time>2018-07-14T06:41:54.000Z</time>
      </trkpt>
      <trkpt lat="46.2524" lon="2.87802">
        <ele>571.81</ele>
        <time>2018-07-14T06:41:55.000Z</time>
      </trkpt>
      <trkpt lat="46.2523" lon="2.87803">
        <ele>571.34</ele>
        <time>2018-07-14T06:41:56.000Z</time>
      </trkpt>
      <trkpt lat="46.25221" lon="2.87804">
        <ele>570.93</ele>
        <time>2018-07-14T06:41:57.000Z</time>
      </trkpt>
      <trkpt lat="46.25212" lon="2.87806">
        <ele>570.65</ele>
        <time>2018-07-14T06:41:58.000Z</time>
      </trkpt>
      <trkpt lat="46.25202" lon="2.87807">
        <ele>570.34</ele>
        <time>2018-07-14T06:41:59.000Z</time>
      </trkpt>
      <trkpt lat="46.25193" lon="2.87807">
        <ele>570.06</ele>
        <time>2018-07-14T06:42:00.000Z</time>
      </trkpt>
      <trkpt lat="46.25176" lon="2.87809">
        <ele>569.28</ele>
        <time>2018-07-14T06:42:02.000Z</time>
      </trkpt>
      <trkpt lat="46.2516" lon="2.87811">
        <ele>568.61</ele>
        <time>2018-07-14T06:42:04.000Z</time>
      </trkpt>
      <trkpt lat="46.25145" lon="2.87812">
        <ele>568.11</ele>
        <time>2018-07-14T06:42:06.000Z</time>
      </trkpt>
      <trkpt lat="46.25133" lon="2.87812">
        <ele>567.66</ele>
        <time>2018-07-14T06:42:08.000Z</time>
      </trkpt>
      <trkpt lat="46.25121" lon="2.87813">
        <ele>567.35</ele>
        <time>2018-07-14T06:42:10.000Z</time>
      </trkpt>
      <trkpt lat="46.2511" lon="2.87815">
        <ele>567.72</ele>
        <time>2018-07-14T06:42:12.000Z</time>
      </trkpt>
      <trkpt lat="46.25098" lon="2.87816">
        <ele>568.55</ele>
        <time>2018-07-14T06:42:14.000Z</time>
      </trkpt>
      <trkpt lat="46.25087" lon="2.87818">
        <ele>568.21</ele>
        <time>2018-07-14T06:42:16.000Z</time>
      </trkpt>
      <trkpt lat="46.25075" lon="2.8782">
        <ele>567.59</ele>
        <time>2018-07-14T06:42:18.000Z</time>
      </trkpt>
      <trkpt lat="46.25063" lon="2.87821">
        <ele>566.95</ele>
        <time>2018-07-14T06:42:20.000Z</time>
      </trkpt>
      <trkpt lat="46.2505" lon="2.87823">
        <ele>566.91</ele>
        <time>2018-07-14T06:42:22.000Z</time>
      </trkpt>
      <trkpt lat="46.25039" lon="2.87824">
        <ele>566.77</ele>
        <time>2018-07-14T06:42:24.000Z</time>
      </trkpt>
      <trkpt lat="46.25028" lon="2.87825">
        <ele>566.6</ele>
        <time>2018-07-14T06:42:26.000Z</time>
      </trkpt>
      <trkpt lat="46.25016" lon="2.87826">
        <ele>566.24</ele>
        <time>2018-07-14T06:42:28.000Z</time>
      </trkpt>
      <trkpt lat="46.25004" lon="2.87826">
        <ele>566.25</ele>
        <time>2018-07-14T06:42:30.000Z</time>
      </trkpt>
      <trkpt lat="46.24994" lon="2.87826">
        <ele>566.52</ele>
        <time>2018-07-14T06:42:32.000Z</time>
      </trkpt>
      <trkpt lat="46.24984" lon="2.87828">
        <ele>566.84</ele>
        <time>2018-07-14T06:42:34.000Z</time>
      </trkpt>
      <trkpt lat="46.24974" lon="2.87829">
        <ele>567.42</ele>
        <time>2018-07-14T06:42:36.000Z</time>
      </trkpt>
      <trkpt lat="46.24963" lon="2.8783">
        <ele>568.08</ele>
        <time>2018-07-14T06:42:38.000Z</time>
      </trkpt>
      <trkpt lat="46.24951" lon="2.87831">
        <ele>568.63</ele>
        <time>2018-07-14T06:42:40.000Z</time>
      </trkpt>
      <trkpt lat="46.2494" lon="2.87833">
        <ele>568.69</ele>
        <time>2018-07-14T06:42:42.000Z</time>
      </trkpt>
      <trkpt lat="46.24929" lon="2.87834">
        <ele>569.22</ele>
        <time>2018-07-14T06:42:44.000Z</time>
      </trkpt>
      <trkpt lat="46.24919" lon="2.87835">
        <ele>570.03</ele>
        <time>2018-07-14T06:42:46.000Z</time>
      </trkpt>
      <trkpt lat="46.24908" lon="2.87836">
        <ele>570.86</ele>
        <time>2018-07-14T06:42:48.000Z</time>
      </trkpt>
      <trkpt lat="46.24898" lon="2.87838">
        <ele>571.76</ele>
        <time>2018-07-14T06:42:50.000Z</time>
      </trkpt>
      <trkpt lat="46.24888" lon="2.8784">
        <ele>572.4</ele>
        <time>2018-07-14T06:42:52.000Z</time>
      </trkpt>
      <trkpt lat="46.24878" lon="2.87843">
        <ele>572.95</ele>
        <time>2018-07-14T06:42:54.000Z</time>
      </trkpt>
      <trkpt lat="46.24868" lon="2.87845">
        <ele>573.31</ele>
        <time>2018-07-14T06:42:56.000Z</time>
      </trkpt>
      <trkpt lat="46.24857" lon="2.87846">
        <ele>573.97</ele>
        <time>2018-07-14T06:42:58.000Z</time>
      </trkpt>
      <trkpt lat="46.24847" lon="2.87847">
        <ele>574.4</ele>
        <time>2018-07-14T06:43:00.000Z</time>
      </trkpt>
      <trkpt lat="46.24836" lon="2.87848">
        <ele>574.63</ele>
        <time>2018-07-14T06:43:02.000Z</time>
      </trkpt>
      <trkpt lat="46.24826" lon="2.8785">
        <ele>575.2</ele>
        <time>2018-07-14T06:43:04.000Z</time>
      </trkpt>
      <trkpt lat="46.24816" lon="2.87852">
        <ele>575.99</ele>
        <time>2018-07-14T06:43:06.000Z</time>
      </trkpt>
      <trkpt lat="46.24806" lon="2.87853">
        <ele>576.5</ele>
        <time>2018-07-14T06:43:08.000Z</time>
      </trkpt>
      <trkpt lat="46.24796" lon="2.87855">
        <ele>577.06</ele>
        <time>2018-07-14T06:43:10.000Z</time>
      </trkpt>
      <trkpt lat="46.24785" lon="2.87856">
        <ele>577.35</ele>
        <time>2018-07-14T06:43:12.000Z</time>
      </trkpt>
      <trkpt lat="46.24774" lon="2.87857">
        <ele>577.88</ele>
        <time>2018-07-14T06:43:14.000Z</time>
      </trkpt>
      <trkpt lat="46.24763" lon="2.87859">
        <ele>578.43</ele>
        <time>2018-07-14T06:43:16.000Z</time>
      </trkpt>
      <trkpt lat="46.24751" lon="2.8786">
        <ele>578.87</ele>
        <time>2018-07-14T06:43:18.000Z</time>
      </trkpt>
      <trkpt lat="46.2474" lon="2.87861">
        <ele>579.2</ele>
        <time>2018-07-14T06:43:20.000Z</time>
      </trkpt>
      <trkpt lat="46.24727" lon="2.87862">
        <ele>579.81</ele>
        <time>2018-07-14T06:43:22.000Z</time>
      </trkpt>
      <trkpt lat="46.24715" lon="2.87865">
        <ele>580.24</ele>
        <time>2018-07-14T06:43:24.000Z</time>
      </trkpt>
      <trkpt lat="46.24704" lon="2.87866">
        <ele>580.46</ele>
        <time>2018-07-14T06:43:26.000Z</time>
      </trkpt>
      <trkpt lat="46.24693" lon="2.87867">
        <ele>580.38</ele>
        <time>2018-07-14T06:43:28.000Z</time>
      </trkpt>
      <trkpt lat="46.24682" lon="2.87869">
        <ele>580.91</ele>
        <time>2018-07-14T06:43:30.000Z</time>
      </trkpt>
      <trkpt lat="46.24672" lon="2.8787">
        <ele>581.52</ele>
        <time>2018-07-14T06:43:32.000Z</time>
      </trkpt>
      <trkpt lat="46.24662" lon="2.87871">
        <ele>582</ele>
        <time>2018-07-14T06:43:34.000Z</time>
      </trkpt>
      <trkpt lat="46.24652" lon="2.87872">
        <ele>582.4</ele>
        <time>2018-07-14T06:43:36.000Z</time>
      </trkpt>
      <trkpt lat="46.24641" lon="2.87873">
        <ele>583.03</ele>
        <time>2018-07-14T06:43:38.000Z</time>
      </trkpt>
      <trkpt lat="46.24629" lon="2.87874">
        <ele>584.53</ele>
        <time>2018-07-14T06:43:41.000Z</time>
      </trkpt>
      <trkpt lat="46.24616" lon="2.87876">
        <ele>586.31</ele>
        <time>2018-07-14T06:43:44.000Z</time>
      </trkpt>
      <trkpt lat="46.24602" lon="2.87877">
        <ele>587.65</ele>
        <time>2018-07-14T06:43:47.000Z</time>
      </trkpt>
      <trkpt lat="46.24593" lon="2.87878">
        <ele>588.35</ele>
        <time>2018-07-14T06:43:49.000Z</time>
      </trkpt>
      <trkpt lat="46.24583" lon="2.87879">
        <ele>588.43</ele>
        <time>2018-07-14T06:43:51.000Z</time>
      </trkpt>
      <trkpt lat="46.24574" lon="2.87881">
        <ele>588.7</ele>
        <time>2018-07-14T06:43:53.000Z</time>
      </trkpt>
      <trkpt lat="46.24563" lon="2.87882">
        <ele>588.95</ele>
        <time>2018-07-14T06:43:55.000Z</time>
      </trkpt>
      <trkpt lat="46.24553" lon="2.87883">
        <ele>589.33</ele>
        <time>2018-07-14T06:43:57.000Z</time>
      </trkpt>
      <trkpt lat="46.24543" lon="2.87884">
        <ele>590.07</ele>
        <time>2018-07-14T06:43:59.000Z</time>
      </trkpt>
      <trkpt lat="46.2453" lon="2.8788">
        <ele>591.33</ele>
        <time>2018-07-14T06:44:02.000Z</time>
      </trkpt>
      <trkpt lat="46.24517" lon="2.87874">
        <ele>592.98</ele>
        <time>2018-07-14T06:44:05.000Z</time>
      </trkpt>
      <trkpt lat="46.24505" lon="2.87867">
        <ele>594.46</ele>
        <time>2018-07-14T06:44:08.000Z</time>
      </trkpt>
      <trkpt lat="46.24496" lon="2.87862">
        <ele>595.66</ele>
        <time>2018-07-14T06:44:10.000Z</time>
      </trkpt>
      <trkpt lat="46.24486" lon="2.87855">
        <ele>597.23</ele>
        <time>2018-07-14T06:44:12.000Z</time>
      </trkpt>
      <trkpt lat="46.24477" lon="2.87847">
        <ele>598.66</ele>
        <time>2018-07-14T06:44:14.000Z</time>
      </trkpt>
      <trkpt lat="46.24468" lon="2.87839">
        <ele>599.51</ele>
        <time>2018-07-14T06:44:16.000Z</time>
      </trkpt>
      <trkpt lat="46.24458" lon="2.8783">
        <ele>599.92</ele>
        <time>2018-07-14T06:44:18.000Z</time>
      </trkpt>
      <trkpt lat="46.24449" lon="2.87821">
        <ele>599.76</ele>
        <time>2018-07-14T06:44:20.000Z</time>
      </trkpt>
      <trkpt lat="46.24439" lon="2.87811">
        <ele>599.66</ele>
        <time>2018-07-14T06:44:22.000Z</time>
      </trkpt>
      <trkpt lat="46.24428" lon="2.87802">
        <ele>599.51</ele>
        <time>2018-07-14T06:44:24.000Z</time>
      </trkpt>
      <trkpt lat="46.24416" lon="2.87794">
        <ele>599.77</ele>
        <time>2018-07-14T06:44:26.000Z</time>
      </trkpt>
      <trkpt lat="46.24404" lon="2.87788">
        <ele>600.23</ele>
        <time>2018-07-14T06:44:28.000Z</time>
      </trkpt>
      <trkpt lat="46.24392" lon="2.87781">
        <ele>600.65</ele>
        <time>2018-07-14T06:44:30.000Z</time>
      </trkpt>
      <trkpt lat="46.2438" lon="2.87777">
        <ele>601.17</ele>
        <time>2018-07-14T06:44:32.000Z</time>
      </trkpt>
      <trkpt lat="46.24368" lon="2.87772">
        <ele>601.85</ele>
        <time>2018-07-14T06:44:34.000Z</time>
      </trkpt>
      <trkpt lat="46.24355" lon="2.87767">
        <ele>601.96</ele>
        <time>2018-07-14T06:44:36.000Z</time>
      </trkpt>
      <trkpt lat="46.24343" lon="2.87762">
        <ele>602.28</ele>
        <time>2018-07-14T06:44:38.000Z</time>
      </trkpt>
      <trkpt lat="46.24329" lon="2.87757">
        <ele>602.71</ele>
        <time>2018-07-14T06:44:40.000Z</time>
      </trkpt>
      <trkpt lat="46.24316" lon="2.87751">
        <ele>602.94</ele>
        <time>2018-07-14T06:44:42.000Z</time>
      </trkpt>
      <trkpt lat="46.24303" lon="2.87745">
        <ele>603.01</ele>
        <time>2018-07-14T06:44:44.000Z</time>
      </trkpt>
      <trkpt lat="46.24289" lon="2.8774">
        <ele>602.65</ele>
        <time>2018-07-14T06:44:46.000Z</time>
      </trkpt>
      <trkpt lat="46.24274" lon="2.87734">
        <ele>602.16</ele>
        <time>2018-07-14T06:44:48.000Z</time>
      </trkpt>
      <trkpt lat="46.2426" lon="2.87729">
        <ele>601.66</ele>
        <time>2018-07-14T06:44:50.000Z</time>
      </trkpt>
      <trkpt lat="46.24246" lon="2.87724">
        <ele>601.51</ele>
        <time>2018-07-14T06:44:52.000Z</time>
      </trkpt>
      <trkpt lat="46.24232" lon="2.87719">
        <ele>601.35</ele>
        <time>2018-07-14T06:44:54.000Z</time>
      </trkpt>
      <trkpt lat="46.24218" lon="2.87713">
        <ele>601.5</ele>
        <time>2018-07-14T06:44:56.000Z</time>
      </trkpt>
      <trkpt lat="46.24204" lon="2.87708">
        <ele>601.69</ele>
        <time>2018-07-14T06:44:58.000Z</time>
      </trkpt>
      <trkpt lat="46.24189" lon="2.87701">
        <ele>601.54</ele>
        <time>2018-07-14T06:45:00.000Z</time>
      </trkpt>
      <trkpt lat="46.24176" lon="2.87695">
        <ele>601.11</ele>
        <time>2018-07-14T06:45:02.000Z</time>
      </trkpt>
      <trkpt lat="46.24162" lon="2.87689">
        <ele>600.93</ele>
        <time>2018-07-14T06:45:04.000Z</time>
      </trkpt>
      <trkpt lat="46.24149" lon="2.87684">
        <ele>600.75</ele>
        <time>2018-07-14T06:45:06.000Z</time>
      </trkpt>
      <trkpt lat="46.24135" lon="2.87678">
        <ele>600.88</ele>
        <time>2018-07-14T06:45:08.000Z</time>
      </trkpt>
      <trkpt lat="46.24122" lon="2.87673">
        <ele>601.04</ele>
        <time>2018-07-14T06:45:10.000Z</time>
      </trkpt>
      <trkpt lat="46.24108" lon="2.87666">
        <ele>601.05</ele>
        <time>2018-07-14T06:45:12.000Z</time>
      </trkpt>
      <trkpt lat="46.24094" lon="2.8766">
        <ele>601.26</ele>
        <time>2018-07-14T06:45:14.000Z</time>
      </trkpt>
      <trkpt lat="46.24081" lon="2.87654">
        <ele>601.78</ele>
        <time>2018-07-14T06:45:16.000Z</time>
      </trkpt>
      <trkpt lat="46.24067" lon="2.87648">
        <ele>602.16</ele>
        <time>2018-07-14T06:45:18.000Z</time>
      </trkpt>
      <trkpt lat="46.24053" lon="2.87643">
        <ele>602.27</ele>
        <time>2018-07-14T06:45:20.000Z</time>
      </trkpt>
      <trkpt lat="46.24039" lon="2.87638">
        <ele>602.21</ele>
        <time>2018-07-14T06:45:22.000Z</time>
      </trkpt>
      <trkpt lat="46.24025" lon="2.87633">
        <ele>602.24</ele>
        <time>2018-07-14T06:45:24.000Z</time>
      </trkpt>
      <trkpt lat="46.24011" lon="2.87627">
        <ele>602.7</ele>
        <time>2018-07-14T06:45:26.000Z</time>
      </trkpt>
      <trkpt lat="46.23998" lon="2.8762">
        <ele>603.26</ele>
        <time>2018-07-14T06:45:28.000Z</time>
      </trkpt>
      <trkpt lat="46.23986" lon="2.87612">
        <ele>603.31</ele>
        <time>2018-07-14T06:45:30.000Z</time>
      </trkpt>
      <trkpt lat="46.23974" lon="2.87603">
        <ele>603.25</ele>
        <time>2018-07-14T06:45:32.000Z</time>
      </trkpt>
      <trkpt lat="46.23963" lon="2.87594">
        <ele>603.28</ele>
        <time>2018-07-14T06:45:34.000Z</time>
      </trkpt>
      <trkpt lat="46.23951" lon="2.87584">
        <ele>603.2</ele>
        <time>2018-07-14T06:45:36.000Z</time>
      </trkpt>
      <trkpt lat="46.23939" lon="2.87574">
        <ele>602.85</ele>
        <time>2018-07-14T06:45:38.000Z</time>
      </trkpt>
      <trkpt lat="46.23929" lon="2.87564">
        <ele>602.93</ele>
        <time>2018-07-14T06:45:40.000Z</time>
      </trkpt>
      <trkpt lat="46.2392" lon="2.87553">
        <ele>603</ele>
        <time>2018-07-14T06:45:42.000Z</time>
      </trkpt>
      <trkpt lat="46.23911" lon="2.87542">
        <ele>602.99</ele>
        <time>2018-07-14T06:45:44.000Z</time>
      </trkpt>
      <trkpt lat="46.23901" lon="2.87532">
        <ele>603.04</ele>
        <time>2018-07-14T06:45:46.000Z</time>
      </trkpt>
      <trkpt lat="46.23893" lon="2.87521">
        <ele>603.03</ele>
        <time>2018-07-14T06:45:48.000Z</time>
      </trkpt>
      <trkpt lat="46.23884" lon="2.8751">
        <ele>602.77</ele>
        <time>2018-07-14T06:45:50.000Z</time>
      </trkpt>
      <trkpt lat="46.23875" lon="2.87499">
        <ele>602.5</ele>
        <time>2018-07-14T06:45:52.000Z</time>
      </trkpt>
      <trkpt lat="46.23866" lon="2.87488">
        <ele>602.24</ele>
        <time>2018-07-14T06:45:54.000Z</time>
      </trkpt>
      <trkpt lat="46.23857" lon="2.87478">
        <ele>601.91</ele>
        <time>2018-07-14T06:45:56.000Z</time>
      </trkpt>
      <trkpt lat="46.23846" lon="2.87469">
        <ele>601.68</ele>
        <time>2018-07-14T06:45:58.000Z</time>
      </trkpt>
      <trkpt lat="46.23836" lon="2.87459">
        <ele>601.67</ele>
        <time>2018-07-14T06:46:00.000Z</time>
      </trkpt>
      <trkpt lat="46.23825" lon="2.87449">
        <ele>601.78</ele>
        <time>2018-07-14T06:46:02.000Z</time>
      </trkpt>
      <trkpt lat="46.23813" lon="2.87439">
        <ele>601.79</ele>
        <time>2018-07-14T06:46:04.000Z</time>
      </trkpt>
      <trkpt lat="46.23803" lon="2.87429">
        <ele>601.99</ele>
        <time>2018-07-14T06:46:06.000Z</time>
      </trkpt>
      <trkpt lat="46.23792" lon="2.87419">
        <ele>602.16</ele>
        <time>2018-07-14T06:46:08.000Z</time>
      </trkpt>
      <trkpt lat="46.2378" lon="2.87408">
        <ele>602.01</ele>
        <time>2018-07-14T06:46:10.000Z</time>
      </trkpt>
      <trkpt lat="46.2377" lon="2.87397">
        <ele>601.8</ele>
        <time>2018-07-14T06:46:12.000Z</time>
      </trkpt>
      <trkpt lat="46.23761" lon="2.87387">
        <ele>601.75</ele>
        <time>2018-07-14T06:46:14.000Z</time>
      </trkpt>
      <trkpt lat="46.2375" lon="2.87379">
        <ele>601.79</ele>
        <time>2018-07-14T06:46:16.000Z</time>
      </trkpt>
      <trkpt lat="46.23738" lon="2.87368">
        <ele>601.11</ele>
        <time>2018-07-14T06:46:18.000Z</time>
      </trkpt>
      <trkpt lat="46.23726" lon="2.87354">
        <ele>600.4</ele>
        <time>2018-07-14T06:46:20.000Z</time>
      </trkpt>
      <trkpt lat="46.23714" lon="2.87338">
        <ele>600.12</ele>
        <time>2018-07-14T06:46:22.000Z</time>
      </trkpt>
      <trkpt lat="46.23701" lon="2.87323">
        <ele>599.68</ele>
        <time>2018-07-14T06:46:24.000Z</time>
      </trkpt>
      <trkpt lat="46.23687" lon="2.87309">
        <ele>598.89</ele>
        <time>2018-07-14T06:46:26.000Z</time>
      </trkpt>
      <trkpt lat="46.23673" lon="2.87295">
        <ele>598.22</ele>
        <time>2018-07-14T06:46:28.000Z</time>
      </trkpt>
      <trkpt lat="46.2366" lon="2.8728">
        <ele>597.97</ele>
        <time>2018-07-14T06:46:30.000Z</time>
      </trkpt>
      <trkpt lat="46.23648" lon="2.87265">
        <ele>597.93</ele>
        <time>2018-07-14T06:46:32.000Z</time>
      </trkpt>
      <trkpt lat="46.23633" lon="2.8725">
        <ele>597.76</ele>
        <time>2018-07-14T06:46:34.000Z</time>
      </trkpt>
      <trkpt lat="46.2362" lon="2.87235">
        <ele>597.7</ele>
        <time>2018-07-14T06:46:36.000Z</time>
      </trkpt>
      <trkpt lat="46.23605" lon="2.87221">
        <ele>597.68</ele>
        <time>2018-07-14T06:46:38.000Z</time>
      </trkpt>
      <trkpt lat="46.2359" lon="2.87208">
        <ele>597.95</ele>
        <time>2018-07-14T06:46:40.000Z</time>
      </trkpt>
      <trkpt lat="46.23581" lon="2.87203">
        <ele>598.09</ele>
        <time>2018-07-14T06:46:41.000Z</time>
      </trkpt>
      <trkpt lat="46.23573" lon="2.87198">
        <ele>598.17</ele>
        <time>2018-07-14T06:46:42.000Z</time>
      </trkpt>
      <trkpt lat="46.23564" lon="2.87193">
        <ele>598.26</ele>
        <time>2018-07-14T06:46:43.000Z</time>
      </trkpt>
      <trkpt lat="46.23555" lon="2.87189">
        <ele>598.19</ele>
        <time>2018-07-14T06:46:44.000Z</time>
      </trkpt>
      <trkpt lat="46.23546" lon="2.87184">
        <ele>598.09</ele>
        <time>2018-07-14T06:46:45.000Z</time>
      </trkpt>
      <trkpt lat="46.23536" lon="2.8718">
        <ele>598.08</ele>
        <time>2018-07-14T06:46:46.000Z</time>
      </trkpt>
      <trkpt lat="46.23527" lon="2.87176">
        <ele>598.25</ele>
        <time>2018-07-14T06:46:47.000Z</time>
      </trkpt>
      <trkpt lat="46.23517" lon="2.87171">
        <ele>598.33</ele>
        <time>2018-07-14T06:46:48.000Z</time>
      </trkpt>
      <trkpt lat="46.23509" lon="2.87167">
        <ele>598.39</ele>
        <time>2018-07-14T06:46:49.000Z</time>
      </trkpt>
      <trkpt lat="46.23499" lon="2.87163">
        <ele>598.34</ele>
        <time>2018-07-14T06:46:50.000Z</time>
      </trkpt>
      <trkpt lat="46.23491" lon="2.87159">
        <ele>598.28</ele>
        <time>2018-07-14T06:46:51.000Z</time>
      </trkpt>
      <trkpt lat="46.23481" lon="2.87155">
        <ele>598.22</ele>
        <time>2018-07-14T06:46:52.000Z</time>
      </trkpt>
      <trkpt lat="46.23473" lon="2.8715">
        <ele>598</ele>
        <time>2018-07-14T06:46:53.000Z</time>
      </trkpt>
      <trkpt lat="46.23464" lon="2.87146">
        <ele>597.83</ele>
        <time>2018-07-14T06:46:54.000Z</time>
      </trkpt>
      <trkpt lat="46.23455" lon="2.87141">
        <ele>597.63</ele>
        <time>2018-07-14T06:46:55.000Z</time>
      </trkpt>
      <trkpt lat="46.23439" lon="2.87133">
        <ele>597.4</ele>
        <time>2018-07-14T06:46:57.000Z</time>
      </trkpt>
      <trkpt lat="46.23423" lon="2.87126">
        <ele>597.41</ele>
        <time>2018-07-14T06:46:59.000Z</time>
      </trkpt>
      <trkpt lat="46.23408" lon="2.87118">
        <ele>597.61</ele>
        <time>2018-07-14T06:47:01.000Z</time>
      </trkpt>
      <trkpt lat="46.23394" lon="2.87109">
        <ele>597.95</ele>
        <time>2018-07-14T06:47:03.000Z</time>
      </trkpt>
      <trkpt lat="46.23381" lon="2.87103">
        <ele>598.37</ele>
        <time>2018-07-14T06:47:05.000Z</time>
      </trkpt>
      <trkpt lat="46.23367" lon="2.87097">
        <ele>598.46</ele>
        <time>2018-07-14T06:47:07.000Z</time>
      </trkpt>
      <trkpt lat="46.23354" lon="2.87092">
        <ele>598.37</ele>
        <time>2018-07-14T06:47:09.000Z</time>
      </trkpt>
      <trkpt lat="46.23341" lon="2.87086">
        <ele>598.47</ele>
        <time>2018-07-14T06:47:11.000Z</time>
      </trkpt>
      <trkpt lat="46.23328" lon="2.87079">
        <ele>598.72</ele>
        <time>2018-07-14T06:47:13.000Z</time>
      </trkpt>
      <trkpt lat="46.23314" lon="2.87071">
        <ele>598.67</ele>
        <time>2018-07-14T06:47:15.000Z</time>
      </trkpt>
      <trkpt lat="46.23301" lon="2.87061">
        <ele>598.63</ele>
        <time>2018-07-14T06:47:17.000Z</time>
      </trkpt>
      <trkpt lat="46.23288" lon="2.8705">
        <ele>598.92</ele>
        <time>2018-07-14T06:47:19.000Z</time>
      </trkpt>
      <trkpt lat="46.23277" lon="2.87038">
        <ele>599.27</ele>
        <time>2018-07-14T06:47:21.000Z</time>
      </trkpt>
      <trkpt lat="46.23266" lon="2.87025">
        <ele>599.52</ele>
        <time>2018-07-14T06:47:23.000Z</time>
      </trkpt>
      <trkpt lat="46.23256" lon="2.8701">
        <ele>600</ele>
        <time>2018-07-14T06:47:25.000Z</time>
      </trkpt>
      <trkpt lat="46.23246" lon="2.86997">
        <ele>600.25</ele>
        <time>2018-07-14T06:47:27.000Z</time>
      </trkpt>
      <trkpt lat="46.23236" lon="2.86983">
        <ele>600.73</ele>
        <time>2018-07-14T06:47:29.000Z</time>
      </trkpt>
      <trkpt lat="46.23227" lon="2.86967">
        <ele>600.99</ele>
        <time>2018-07-14T06:47:31.000Z</time>
      </trkpt>
      <trkpt lat="46.23218" lon="2.86952">
        <ele>601.08</ele>
        <time>2018-07-14T06:47:33.000Z</time>
      </trkpt>
      <trkpt lat="46.23211" lon="2.86937">
        <ele>601.31</ele>
        <time>2018-07-14T06:47:35.000Z</time>
      </trkpt>
      <trkpt lat="46.23203" lon="2.86922">
        <ele>601.9</ele>
        <time>2018-07-14T06:47:37.000Z</time>
      </trkpt>
      <trkpt lat="46.23195" lon="2.86909">
        <ele>602.65</ele>
        <time>2018-07-14T06:47:39.000Z</time>
      </trkpt>
      <trkpt lat="46.23188" lon="2.86895">
        <ele>603.48</ele>
        <time>2018-07-14T06:47:41.000Z</time>
      </trkpt>
      <trkpt lat="46.23181" lon="2.8688">
        <ele>604.32</ele>
        <time>2018-07-14T06:47:43.000Z</time>
      </trkpt>
      <trkpt lat="46.23173" lon="2.86866">
        <ele>604.61</ele>
        <time>2018-07-14T06:47:45.000Z</time>
      </trkpt>
      <trkpt lat="46.23164" lon="2.86851">
        <ele>604.86</ele>
        <time>2018-07-14T06:47:47.000Z</time>
      </trkpt>
      <trkpt lat="46.23155" lon="2.86835">
        <ele>605.03</ele>
        <time>2018-07-14T06:47:49.000Z</time>
      </trkpt>
      <trkpt lat="46.23147" lon="2.86819">
        <ele>605.51</ele>
        <time>2018-07-14T06:47:51.000Z</time>
      </trkpt>
      <trkpt lat="46.23138" lon="2.86803">
        <ele>605.84</ele>
        <time>2018-07-14T06:47:52.999Z</time>
      </trkpt>
      <trkpt lat="46.23129" lon="2.86788">
        <ele>606.17</ele>
        <time>2018-07-14T06:47:55.000Z</time>
      </trkpt>
      <trkpt lat="46.2312" lon="2.86771">
        <ele>606.47</ele>
        <time>2018-07-14T06:47:57.000Z</time>
      </trkpt>
      <trkpt lat="46.23111" lon="2.86755">
        <ele>606.76</ele>
        <time>2018-07-14T06:47:59.000Z</time>
      </trkpt>
      <trkpt lat="46.23103" lon="2.86738">
        <ele>606.92</ele>
        <time>2018-07-14T06:48:01.000Z</time>
      </trkpt>
      <trkpt lat="46.23094" lon="2.86722">
        <ele>606.93</ele>
        <time>2018-07-14T06:48:03.000Z</time>
      </trkpt>
      <trkpt lat="46.23086" lon="2.86706">
        <ele>607.16</ele>
        <time>2018-07-14T06:48:05.000Z</time>
      </trkpt>
      <trkpt lat="46.23078" lon="2.86691">
        <ele>607.19</ele>
        <time>2018-07-14T06:48:07.000Z</time>
      </trkpt>
      <trkpt lat="46.2307" lon="2.86676">
        <ele>607</ele>
        <time>2018-07-14T06:48:09.000Z</time>
      </trkpt>
      <trkpt lat="46.23061" lon="2.8666">
        <ele>606.91</ele>
        <time>2018-07-14T06:48:11.000Z</time>
      </trkpt>
      <trkpt lat="46.23052" lon="2.86643">
        <ele>606.83</ele>
        <time>2018-07-14T06:48:13.000Z</time>
      </trkpt>
      <trkpt lat="46.23043" lon="2.86626">
        <ele>606.64</ele>
        <time>2018-07-14T06:48:15.000Z</time>
      </trkpt>
      <trkpt lat="46.23033" lon="2.86609">
        <ele>606.6</ele>
        <time>2018-07-14T06:48:17.000Z</time>
      </trkpt>
      <trkpt lat="46.23023" lon="2.86592">
        <ele>606.35</ele>
        <time>2018-07-14T06:48:19.000Z</time>
      </trkpt>
      <trkpt lat="46.23013" lon="2.86574">
        <ele>606.32</ele>
        <time>2018-07-14T06:48:21.000Z</time>
      </trkpt>
      <trkpt lat="46.23004" lon="2.86556">
        <ele>606.36</ele>
        <time>2018-07-14T06:48:23.000Z</time>
      </trkpt>
      <trkpt lat="46.22994" lon="2.8654">
        <ele>606.74</ele>
        <time>2018-07-14T06:48:25.000Z</time>
      </trkpt>
      <trkpt lat="46.22985" lon="2.86523">
        <ele>607.11</ele>
        <time>2018-07-14T06:48:27.000Z</time>
      </trkpt>
      <trkpt lat="46.22976" lon="2.86506">
        <ele>607.29</ele>
        <time>2018-07-14T06:48:29.000Z</time>
      </trkpt>
      <trkpt lat="46.22965" lon="2.86489">
        <ele>607.07</ele>
        <time>2018-07-14T06:48:31.000Z</time>
      </trkpt>
      <trkpt lat="46.22955" lon="2.86471">
        <ele>606.66</ele>
        <time>2018-07-14T06:48:33.000Z</time>
      </trkpt>
      <trkpt lat="46.22944" lon="2.86454">
        <ele>606.28</ele>
        <time>2018-07-14T06:48:35.000Z</time>
      </trkpt>
      <trkpt lat="46.22936" lon="2.86437">
        <ele>606.22</ele>
        <time>2018-07-14T06:48:37.000Z</time>
      </trkpt>
      <trkpt lat="46.22927" lon="2.86421">
        <ele>606.35</ele>
        <time>2018-07-14T06:48:39.000Z</time>
      </trkpt>
      <trkpt lat="46.22917" lon="2.86406">
        <ele>606.43</ele>
        <time>2018-07-14T06:48:41.000Z</time>
      </trkpt>
      <trkpt lat="46.22908" lon="2.86392">
        <ele>606.65</ele>
        <time>2018-07-14T06:48:43.000Z</time>
      </trkpt>
      <trkpt lat="46.229" lon="2.86378">
        <ele>607.27</ele>
        <time>2018-07-14T06:48:45.000Z</time>
      </trkpt>
      <trkpt lat="46.22891" lon="2.86363">
        <ele>607.48</ele>
        <time>2018-07-14T06:48:47.000Z</time>
      </trkpt>
      <trkpt lat="46.22882" lon="2.86348">
        <ele>607.83</ele>
        <time>2018-07-14T06:48:49.000Z</time>
      </trkpt>
      <trkpt lat="46.22872" lon="2.86333">
        <ele>607.92</ele>
        <time>2018-07-14T06:48:51.000Z</time>
      </trkpt>
      <trkpt lat="46.22863" lon="2.8632">
        <ele>608.08</ele>
        <time>2018-07-14T06:48:53.000Z</time>
      </trkpt>
      <trkpt lat="46.22854" lon="2.86306">
        <ele>608.13</ele>
        <time>2018-07-14T06:48:55.000Z</time>
      </trkpt>
      <trkpt lat="46.22844" lon="2.86291">
        <ele>607.99</ele>
        <time>2018-07-14T06:48:57.000Z</time>
      </trkpt>
      <trkpt lat="46.22836" lon="2.86275">
        <ele>607.87</ele>
        <time>2018-07-14T06:48:59.000Z</time>
      </trkpt>
      <trkpt lat="46.22828" lon="2.86259">
        <ele>607.68</ele>
        <time>2018-07-14T06:49:01.000Z</time>
      </trkpt>
      <trkpt lat="46.22822" lon="2.8624">
        <ele>607.28</ele>
        <time>2018-07-14T06:49:03.000Z</time>
      </trkpt>
      <trkpt lat="46.22817" lon="2.8622">
        <ele>606.95</ele>
        <time>2018-07-14T06:49:05.000Z</time>
      </trkpt>
      <trkpt lat="46.22813" lon="2.86199">
        <ele>606.84</ele>
        <time>2018-07-14T06:49:07.000Z</time>
      </trkpt>
      <trkpt lat="46.22809" lon="2.86177">
        <ele>606.68</ele>
        <time>2018-07-14T06:49:09.000Z</time>
      </trkpt>
      <trkpt lat="46.22806" lon="2.86154">
        <ele>606.42</ele>
        <time>2018-07-14T06:49:11.000Z</time>
      </trkpt>
      <trkpt lat="46.22803" lon="2.86132">
        <ele>606.43</ele>
        <time>2018-07-14T06:49:13.000Z</time>
      </trkpt>
      <trkpt lat="46.22801" lon="2.86109">
        <ele>606.12</ele>
        <time>2018-07-14T06:49:15.000Z</time>
      </trkpt>
      <trkpt lat="46.22796" lon="2.86089">
        <ele>606.22</ele>
        <time>2018-07-14T06:49:17.000Z</time>
      </trkpt>
      <trkpt lat="46.22785" lon="2.86077">
        <ele>606.81</ele>
        <time>2018-07-14T06:49:19.000Z</time>
      </trkpt>
      <trkpt lat="46.2277" lon="2.86069">
        <ele>607.23</ele>
        <time>2018-07-14T06:49:21.000Z</time>
      </trkpt>
      <trkpt lat="46.22756" lon="2.86057">
        <ele>607.19</ele>
        <time>2018-07-14T06:49:23.000Z</time>
      </trkpt>
      <trkpt lat="46.22743" lon="2.86045">
        <ele>607.71</ele>
        <time>2018-07-14T06:49:25.000Z</time>
      </trkpt>
      <trkpt lat="46.22732" lon="2.86029">
        <ele>608.34</ele>
        <time>2018-07-14T06:49:27.000Z</time>
      </trkpt>
      <trkpt lat="46.22721" lon="2.86013">
        <ele>608.65</ele>
        <time>2018-07-14T06:49:29.000Z</time>
      </trkpt>
      <trkpt lat="46.2271" lon="2.85996">
        <ele>608.28</ele>
        <time>2018-07-14T06:49:31.000Z</time>
      </trkpt>
      <trkpt lat="46.22699" lon="2.8598">
        <ele>608.34</ele>
        <time>2018-07-14T06:49:33.000Z</time>
      </trkpt>
      <trkpt lat="46.2269" lon="2.85965">
        <ele>608.45</ele>
        <time>2018-07-14T06:49:35.000Z</time>
      </trkpt>
      <trkpt lat="46.2268" lon="2.8595">
        <ele>608.33</ele>
        <time>2018-07-14T06:49:37.000Z</time>
      </trkpt>
      <trkpt lat="46.22671" lon="2.85936">
        <ele>608.73</ele>
        <time>2018-07-14T06:49:39.000Z</time>
      </trkpt>
      <trkpt lat="46.22661" lon="2.85923">
        <ele>608.89</ele>
        <time>2018-07-14T06:49:41.000Z</time>
      </trkpt>
      <trkpt lat="46.22652" lon="2.85911">
        <ele>608.82</ele>
        <time>2018-07-14T06:49:43.000Z</time>
      </trkpt>
      <trkpt lat="46.22644" lon="2.85899">
        <ele>608.31</ele>
        <time>2018-07-14T06:49:45.000Z</time>
      </trkpt>
      <trkpt lat="46.22636" lon="2.85888">
        <ele>608.07</ele>
        <time>2018-07-14T06:49:47.000Z</time>
      </trkpt>
      <trkpt lat="46.22627" lon="2.85877">
        <ele>607.76</ele>
        <time>2018-07-14T06:49:49.000Z</time>
      </trkpt>
      <trkpt lat="46.22619" lon="2.85867">
        <ele>607.38</ele>
        <time>2018-07-14T06:49:51.000Z</time>
      </trkpt>
      <trkpt lat="46.22612" lon="2.85857">
        <ele>607.12</ele>
        <time>2018-07-14T06:49:53.000Z</time>
      </trkpt>
      <trkpt lat="46.22605" lon="2.85848">
        <ele>606.97</ele>
        <time>2018-07-14T06:49:55.000Z</time>
      </trkpt>
      <trkpt lat="46.22598" lon="2.85838">
        <ele>606.86</ele>
        <time>2018-07-14T06:49:57.000Z</time>
      </trkpt>
      <trkpt lat="46.2259" lon="2.85827">
        <ele>606.87</ele>
        <time>2018-07-14T06:49:59.000Z</time>
      </trkpt>
      <trkpt lat="46.22583" lon="2.85818">
        <ele>607.02</ele>
        <time>2018-07-14T06:50:01.000Z</time>
      </trkpt>
      <trkpt lat="46.22577" lon="2.85809">
        <ele>607.23</ele>
        <time>2018-07-14T06:50:03.000Z</time>
      </trkpt>
      <trkpt lat="46.22567" lon="2.85796">
        <ele>607.86</ele>
        <time>2018-07-14T06:50:06.000Z</time>
      </trkpt>
      <trkpt lat="46.2256" lon="2.85787">
        <ele>608.41</ele>
        <time>2018-07-14T06:50:08.000Z</time>
      </trkpt>
      <trkpt lat="46.22554" lon="2.85777">
        <ele>608.85</ele>
        <time>2018-07-14T06:50:10.000Z</time>
      </trkpt>
      <trkpt lat="46.22547" lon="2.85768">
        <ele>609.41</ele>
        <time>2018-07-14T06:50:12.000Z</time>
      </trkpt>
      <trkpt lat="46.22541" lon="2.85757">
        <ele>609.95</ele>
        <time>2018-07-14T06:50:14.000Z</time>
      </trkpt>
      <trkpt lat="46.22535" lon="2.85746">
        <ele>610.43</ele>
        <time>2018-07-14T06:50:16.000Z</time>
      </trkpt>
      <trkpt lat="46.22529" lon="2.85734">
        <ele>610.55</ele>
        <time>2018-07-14T06:50:18.000Z</time>
      </trkpt>
      <trkpt lat="46.22524" lon="2.85723">
        <ele>610.66</ele>
        <time>2018-07-14T06:50:20.000Z</time>
      </trkpt>
      <trkpt lat="46.22518" lon="2.85712">
        <ele>610.79</ele>
        <time>2018-07-14T06:50:22.000Z</time>
      </trkpt>
      <trkpt lat="46.22509" lon="2.85698">
        <ele>611.3</ele>
        <time>2018-07-14T06:50:25.000Z</time>
      </trkpt>
      <trkpt lat="46.22503" lon="2.85684">
        <ele>612.48</ele>
        <time>2018-07-14T06:50:28.000Z</time>
      </trkpt>
      <trkpt lat="46.22495" lon="2.8567">
        <ele>614.21</ele>
        <time>2018-07-14T06:50:31.000Z</time>
      </trkpt>
      <trkpt lat="46.22487" lon="2.85658">
        <ele>615.68</ele>
        <time>2018-07-14T06:50:34.000Z</time>
      </trkpt>
      <trkpt lat="46.22478" lon="2.85644">
        <ele>616.65</ele>
        <time>2018-07-14T06:50:37.000Z</time>
      </trkpt>
      <trkpt lat="46.2247" lon="2.8563">
        <ele>618.47</ele>
        <time>2018-07-14T06:50:40.000Z</time>
      </trkpt>
      <trkpt lat="46.22464" lon="2.8562">
        <ele>619.27</ele>
        <time>2018-07-14T06:50:42.000Z</time>
      </trkpt>
      <trkpt lat="46.22455" lon="2.85606">
        <ele>620.85</ele>
        <time>2018-07-14T06:50:45.000Z</time>
      </trkpt>
      <trkpt lat="46.22446" lon="2.85595">
        <ele>623</ele>
        <time>2018-07-14T06:50:48.000Z</time>
      </trkpt>
      <trkpt lat="46.22437" lon="2.85583">
        <ele>624.82</ele>
        <time>2018-07-14T06:50:51.000Z</time>
      </trkpt>
      <trkpt lat="46.22429" lon="2.85568">
        <ele>626.19</ele>
        <time>2018-07-14T06:50:54.000Z</time>
      </trkpt>
      <trkpt lat="46.22424" lon="2.85556">
        <ele>627.37</ele>
        <time>2018-07-14T06:50:56.000Z</time>
      </trkpt>
      <trkpt lat="46.22417" lon="2.85542">
        <ele>628.34</ele>
        <time>2018-07-14T06:50:58.000Z</time>
      </trkpt>
      <trkpt lat="46.22412" lon="2.85529">
        <ele>628.8</ele>
        <time>2018-07-14T06:51:00.000Z</time>
      </trkpt>
      <trkpt lat="46.22406" lon="2.85515">
        <ele>629.21</ele>
        <time>2018-07-14T06:51:02.000Z</time>
      </trkpt>
      <trkpt lat="46.22401" lon="2.85501">
        <ele>629.45</ele>
        <time>2018-07-14T06:51:04.000Z</time>
      </trkpt>
      <trkpt lat="46.22396" lon="2.85486">
        <ele>630.02</ele>
        <time>2018-07-14T06:51:06.000Z</time>
      </trkpt>
      <trkpt lat="46.2239" lon="2.8547">
        <ele>629.97</ele>
        <time>2018-07-14T06:51:08.000Z</time>
      </trkpt>
      <trkpt lat="46.22383" lon="2.85453">
        <ele>629.59</ele>
        <time>2018-07-14T06:51:10.000Z</time>
      </trkpt>
      <trkpt lat="46.22377" lon="2.85438">
        <ele>629.77</ele>
        <time>2018-07-14T06:51:12.000Z</time>
      </trkpt>
      <trkpt lat="46.22371" lon="2.85421">
        <ele>629.92</ele>
        <time>2018-07-14T06:51:14.000Z</time>
      </trkpt>
      <trkpt lat="46.22365" lon="2.85404">
        <ele>630.07</ele>
        <time>2018-07-14T06:51:16.000Z</time>
      </trkpt>
      <trkpt lat="46.22358" lon="2.85386">
        <ele>630.09</ele>
        <time>2018-07-14T06:51:18.000Z</time>
      </trkpt>
      <trkpt lat="46.22352" lon="2.85368">
        <ele>630.13</ele>
        <time>2018-07-14T06:51:20.000Z</time>
      </trkpt>
      <trkpt lat="46.22343" lon="2.85351">
        <ele>630.02</ele>
        <time>2018-07-14T06:51:22.000Z</time>
      </trkpt>
      <trkpt lat="46.22335" lon="2.85335">
        <ele>630.16</ele>
        <time>2018-07-14T06:51:24.000Z</time>
      </trkpt>
      <trkpt lat="46.22326" lon="2.8532">
        <ele>629.92</ele>
        <time>2018-07-14T06:51:26.000Z</time>
      </trkpt>
      <trkpt lat="46.22316" lon="2.85303">
        <ele>629.79</ele>
        <time>2018-07-14T06:51:28.000Z</time>
      </trkpt>
      <trkpt lat="46.22305" lon="2.85286">
        <ele>629.63</ele>
        <time>2018-07-14T06:51:30.000Z</time>
      </trkpt>
      <trkpt lat="46.22295" lon="2.85268">
        <ele>629.59</ele>
        <time>2018-07-14T06:51:32.000Z</time>
      </trkpt>
      <trkpt lat="46.22285" lon="2.85248">
        <ele>629.56</ele>
        <time>2018-07-14T06:51:34.000Z</time>
      </trkpt>
      <trkpt lat="46.22274" lon="2.85229">
        <ele>629.69</ele>
        <time>2018-07-14T06:51:36.000Z</time>
      </trkpt>
      <trkpt lat="46.22263" lon="2.85211">
        <ele>629.96</ele>
        <time>2018-07-14T06:51:38.000Z</time>
      </trkpt>
      <trkpt lat="46.22252" lon="2.85192">
        <ele>630.07</ele>
        <time>2018-07-14T06:51:40.000Z</time>
      </trkpt>
      <trkpt lat="46.22245" lon="2.85182">
        <ele>630.03</ele>
        <time>2018-07-14T06:51:41.000Z</time>
      </trkpt>
      <trkpt lat="46.2224" lon="2.85172">
        <ele>630.08</ele>
        <time>2018-07-14T06:51:42.000Z</time>
      </trkpt>
      <trkpt lat="46.22233" lon="2.85162">
        <ele>629.88</ele>
        <time>2018-07-14T06:51:43.000Z</time>
      </trkpt>
      <trkpt lat="46.22228" lon="2.85152">
        <ele>629.61</ele>
        <time>2018-07-14T06:51:44.000Z</time>
      </trkpt>
      <trkpt lat="46.22222" lon="2.85142">
        <ele>629.3</ele>
        <time>2018-07-14T06:51:45.000Z</time>
      </trkpt>
      <trkpt lat="46.22215" lon="2.85132">
        <ele>629</ele>
        <time>2018-07-14T06:51:46.000Z</time>
      </trkpt>
      <trkpt lat="46.22209" lon="2.85122">
        <ele>628.54</ele>
        <time>2018-07-14T06:51:47.000Z</time>
      </trkpt>
      <trkpt lat="46.22202" lon="2.85112">
        <ele>628.22</ele>
        <time>2018-07-14T06:51:48.000Z</time>
      </trkpt>
      <trkpt lat="46.22195" lon="2.85102">
        <ele>627.91</ele>
        <time>2018-07-14T06:51:49.000Z</time>
      </trkpt>
      <trkpt lat="46.22189" lon="2.85093">
        <ele>627.71</ele>
        <time>2018-07-14T06:51:50.000Z</time>
      </trkpt>
      <trkpt lat="46.22176" lon="2.85077">
        <ele>627.29</ele>
        <time>2018-07-14T06:51:52.000Z</time>
      </trkpt>
      <trkpt lat="46.22163" lon="2.85063">
        <ele>626.81</ele>
        <time>2018-07-14T06:51:54.000Z</time>
      </trkpt>
      <trkpt lat="46.22152" lon="2.85048">
        <ele>626.58</ele>
        <time>2018-07-14T06:51:56.000Z</time>
      </trkpt>
      <trkpt lat="46.22141" lon="2.85033">
        <ele>626.49</ele>
        <time>2018-07-14T06:51:58.000Z</time>
      </trkpt>
      <trkpt lat="46.2213" lon="2.8502">
        <ele>626.57</ele>
        <time>2018-07-14T06:52:00.000Z</time>
      </trkpt>
      <trkpt lat="46.2212" lon="2.85008">
        <ele>626.6</ele>
        <time>2018-07-14T06:52:02.000Z</time>
      </trkpt>
      <trkpt lat="46.2211" lon="2.84996">
        <ele>626.7</ele>
        <time>2018-07-14T06:52:04.000Z</time>
      </trkpt>
      <trkpt lat="46.221" lon="2.84984">
        <ele>626.84</ele>
        <time>2018-07-14T06:52:06.000Z</time>
      </trkpt>
      <trkpt lat="46.22089" lon="2.84975">
        <ele>626.75</ele>
        <time>2018-07-14T06:52:08.000Z</time>
      </trkpt>
      <trkpt lat="46.22077" lon="2.84967">
        <ele>626.55</ele>
        <time>2018-07-14T06:52:10.000Z</time>
      </trkpt>
      <trkpt lat="46.22065" lon="2.84957">
        <ele>626.27</ele>
        <time>2018-07-14T06:52:12.000Z</time>
      </trkpt>
      <trkpt lat="46.22054" lon="2.84949">
        <ele>625.98</ele>
        <time>2018-07-14T06:52:14.000Z</time>
      </trkpt>
      <trkpt lat="46.22043" lon="2.8494">
        <ele>625.67</ele>
        <time>2018-07-14T06:52:16.000Z</time>
      </trkpt>
      <trkpt lat="46.2203" lon="2.84931">
        <ele>625.32</ele>
        <time>2018-07-14T06:52:18.000Z</time>
      </trkpt>
      <trkpt lat="46.22018" lon="2.84924">
        <ele>625.16</ele>
        <time>2018-07-14T06:52:20.000Z</time>
      </trkpt>
      <trkpt lat="46.22006" lon="2.84916">
        <ele>624.81</ele>
        <time>2018-07-14T06:52:22.000Z</time>
      </trkpt>
      <trkpt lat="46.21993" lon="2.84908">
        <ele>624.16</ele>
        <time>2018-07-14T06:52:24.000Z</time>
      </trkpt>
      <trkpt lat="46.21982" lon="2.84901">
        <ele>623.72</ele>
        <time>2018-07-14T06:52:26.000Z</time>
      </trkpt>
      <trkpt lat="46.2197" lon="2.84892">
        <ele>623.36</ele>
        <time>2018-07-14T06:52:28.000Z</time>
      </trkpt>
      <trkpt lat="46.21959" lon="2.84884">
        <ele>623.4</ele>
        <time>2018-07-14T06:52:30.000Z</time>
      </trkpt>
      <trkpt lat="46.21948" lon="2.84876">
        <ele>623.44</ele>
        <time>2018-07-14T06:52:32.000Z</time>
      </trkpt>
      <trkpt lat="46.21936" lon="2.8487">
        <ele>623.25</ele>
        <time>2018-07-14T06:52:34.000Z</time>
      </trkpt>
      <trkpt lat="46.21925" lon="2.84863">
        <ele>623.13</ele>
        <time>2018-07-14T06:52:36.000Z</time>
      </trkpt>
      <trkpt lat="46.21913" lon="2.84857">
        <ele>623.28</ele>
        <time>2018-07-14T06:52:38.000Z</time>
      </trkpt>
      <trkpt lat="46.21902" lon="2.8485">
        <ele>623.76</ele>
        <time>2018-07-14T06:52:40.000Z</time>
      </trkpt>
      <trkpt lat="46.21891" lon="2.84843">
        <ele>624.33</ele>
        <time>2018-07-14T06:52:42.000Z</time>
      </trkpt>
      <trkpt lat="46.21882" lon="2.84837">
        <ele>624.62</ele>
        <time>2018-07-14T06:52:44.000Z</time>
      </trkpt>
      <trkpt lat="46.21872" lon="2.84831">
        <ele>624.81</ele>
        <time>2018-07-14T06:52:46.000Z</time>
      </trkpt>
      <trkpt lat="46.21862" lon="2.84826">
        <ele>625.09</ele>
        <time>2018-07-14T06:52:48.000Z</time>
      </trkpt>
      <trkpt lat="46.21851" lon="2.84821">
        <ele>625.38</ele>
        <time>2018-07-14T06:52:50.000Z</time>
      </trkpt>
      <trkpt lat="46.2184" lon="2.84815">
        <ele>625.66</ele>
        <time>2018-07-14T06:52:52.000Z</time>
      </trkpt>
      <trkpt lat="46.2183" lon="2.84808">
        <ele>626.12</ele>
        <time>2018-07-14T06:52:54.000Z</time>
      </trkpt>
      <trkpt lat="46.2182" lon="2.84801">
        <ele>626.34</ele>
        <time>2018-07-14T06:52:56.000Z</time>
      </trkpt>
      <trkpt lat="46.21809" lon="2.84795">
        <ele>626.8</ele>
        <time>2018-07-14T06:52:58.000Z</time>
      </trkpt>
      <trkpt lat="46.21798" lon="2.84788">
        <ele>628.17</ele>
        <time>2018-07-14T06:53:00.000Z</time>
      </trkpt>
      <trkpt lat="46.21787" lon="2.84782">
        <ele>628.92</ele>
        <time>2018-07-14T06:53:02.000Z</time>
      </trkpt>
      <trkpt lat="46.21775" lon="2.84776">
        <ele>629.2</ele>
        <time>2018-07-14T06:53:04.000Z</time>
      </trkpt>
      <trkpt lat="46.21763" lon="2.8477">
        <ele>629.99</ele>
        <time>2018-07-14T06:53:06.000Z</time>
      </trkpt>
      <trkpt lat="46.2175" lon="2.84763">
        <ele>630.67</ele>
        <time>2018-07-14T06:53:08.000Z</time>
      </trkpt>
      <trkpt lat="46.21738" lon="2.84757">
        <ele>631.03</ele>
        <time>2018-07-14T06:53:10.000Z</time>
      </trkpt>
      <trkpt lat="46.21726" lon="2.8475">
        <ele>631.52</ele>
        <time>2018-07-14T06:53:12.000Z</time>
      </trkpt>
      <trkpt lat="46.21714" lon="2.84743">
        <ele>632.07</ele>
        <time>2018-07-14T06:53:14.000Z</time>
      </trkpt>
      <trkpt lat="46.21701" lon="2.84736">
        <ele>632.59</ele>
        <time>2018-07-14T06:53:16.000Z</time>
      </trkpt>
      <trkpt lat="46.21687" lon="2.84728">
        <ele>632.91</ele>
        <time>2018-07-14T06:53:18.000Z</time>
      </trkpt>
      <trkpt lat="46.21674" lon="2.8472">
        <ele>632.53</ele>
        <time>2018-07-14T06:53:20.000Z</time>
      </trkpt>
      <trkpt lat="46.21661" lon="2.84712">
        <ele>632.26</ele>
        <time>2018-07-14T06:53:22.000Z</time>
      </trkpt>
      <trkpt lat="46.21648" lon="2.84702">
        <ele>632.21</ele>
        <time>2018-07-14T06:53:24.000Z</time>
      </trkpt>
      <trkpt lat="46.21636" lon="2.8469">
        <ele>632.2</ele>
        <time>2018-07-14T06:53:26.000Z</time>
      </trkpt>
      <trkpt lat="46.21625" lon="2.84678">
        <ele>632.32</ele>
        <time>2018-07-14T06:53:28.000Z</time>
      </trkpt>
      <trkpt lat="46.21615" lon="2.84665">
        <ele>632.74</ele>
        <time>2018-07-14T06:53:30.000Z</time>
      </trkpt>
      <trkpt lat="46.21606" lon="2.84653">
        <ele>633.08</ele>
        <time>2018-07-14T06:53:32.000Z</time>
      </trkpt>
      <trkpt lat="46.21598" lon="2.84639">
        <ele>633.53</ele>
        <time>2018-07-14T06:53:34.000Z</time>
      </trkpt>
      <trkpt lat="46.21592" lon="2.84625">
        <ele>634.09</ele>
        <time>2018-07-14T06:53:36.000Z</time>
      </trkpt>
      <trkpt lat="46.21586" lon="2.84611">
        <ele>634.75</ele>
        <time>2018-07-14T06:53:38.000Z</time>
      </trkpt>
      <trkpt lat="46.21579" lon="2.84596">
        <ele>635.37</ele>
        <time>2018-07-14T06:53:40.000Z</time>
      </trkpt>
      <trkpt lat="46.21574" lon="2.8458">
        <ele>635.99</ele>
        <time>2018-07-14T06:53:42.000Z</time>
      </trkpt>
      <trkpt lat="46.21569" lon="2.84565">
        <ele>636.46</ele>
        <time>2018-07-14T06:53:44.000Z</time>
      </trkpt>
      <trkpt lat="46.21565" lon="2.8455">
        <ele>637.07</ele>
        <time>2018-07-14T06:53:46.000Z</time>
      </trkpt>
      <trkpt lat="46.21561" lon="2.84535">
        <ele>637.93</ele>
        <time>2018-07-14T06:53:48.000Z</time>
      </trkpt>
      <trkpt lat="46.21558" lon="2.8452">
        <ele>638.84</ele>
        <time>2018-07-14T06:53:50.000Z</time>
      </trkpt>
      <trkpt lat="46.21555" lon="2.84506">
        <ele>639.66</ele>
        <time>2018-07-14T06:53:52.000Z</time>
      </trkpt>
      <trkpt lat="46.21552" lon="2.84492">
        <ele>640.46</ele>
        <time>2018-07-14T06:53:54.000Z</time>
      </trkpt>
      <trkpt lat="46.21549" lon="2.84479">
        <ele>641.44</ele>
        <time>2018-07-14T06:53:56.000Z</time>
      </trkpt>
      <trkpt lat="46.21545" lon="2.84466">
        <ele>642.09</ele>
        <time>2018-07-14T06:53:58.000Z</time>
      </trkpt>
      <trkpt lat="46.21542" lon="2.84453">
        <ele>642.67</ele>
        <time>2018-07-14T06:54:00.000Z</time>
      </trkpt>
      <trkpt lat="46.21537" lon="2.84436">
        <ele>643.76</ele>
        <time>2018-07-14T06:54:03.000Z</time>
      </trkpt>
      <trkpt lat="46.21534" lon="2.84424">
        <ele>644.39</ele>
        <time>2018-07-14T06:54:05.000Z</time>
      </trkpt>
      <trkpt lat="46.21531" lon="2.8441">
        <ele>645.4</ele>
        <time>2018-07-14T06:54:07.000Z</time>
      </trkpt>
      <trkpt lat="46.21528" lon="2.84398">
        <ele>646.43</ele>
        <time>2018-07-14T06:54:09.000Z</time>
      </trkpt>
      <trkpt lat="46.21525" lon="2.84385">
        <ele>647.36</ele>
        <time>2018-07-14T06:54:11.000Z</time>
      </trkpt>
      <trkpt lat="46.21521" lon="2.84372">
        <ele>647.97</ele>
        <time>2018-07-14T06:54:13.000Z</time>
      </trkpt>
      <trkpt lat="46.21518" lon="2.84359">
        <ele>648.75</ele>
        <time>2018-07-14T06:54:15.000Z</time>
      </trkpt>
      <trkpt lat="46.21514" lon="2.8434">
        <ele>649.97</ele>
        <time>2018-07-14T06:54:18.000Z</time>
      </trkpt>
      <trkpt lat="46.21512" lon="2.84328">
        <ele>651.1</ele>
        <time>2018-07-14T06:54:20.000Z</time>
      </trkpt>
      <trkpt lat="46.21508" lon="2.84309">
        <ele>652.64</ele>
        <time>2018-07-14T06:54:23.000Z</time>
      </trkpt>
      <trkpt lat="46.21503" lon="2.84294">
        <ele>654.11</ele>
        <time>2018-07-14T06:54:26.000Z</time>
      </trkpt>
      <trkpt lat="46.21497" lon="2.84277">
        <ele>655.51</ele>
        <time>2018-07-14T06:54:29.000Z</time>
      </trkpt>
      <trkpt lat="46.21494" lon="2.84263">
        <ele>656.18</ele>
        <time>2018-07-14T06:54:31.000Z</time>
      </trkpt>
      <trkpt lat="46.2149" lon="2.84245">
        <ele>656.73</ele>
        <time>2018-07-14T06:54:33.000Z</time>
      </trkpt>
      <trkpt lat="46.21486" lon="2.8423">
        <ele>657.18</ele>
        <time>2018-07-14T06:54:35.000Z</time>
      </trkpt>
      <trkpt lat="46.21482" lon="2.84215">
        <ele>657.74</ele>
        <time>2018-07-14T06:54:37.000Z</time>
      </trkpt>
      <trkpt lat="46.21478" lon="2.84199">
        <ele>658.4</ele>
        <time>2018-07-14T06:54:39.000Z</time>
      </trkpt>
      <trkpt lat="46.21474" lon="2.84184">
        <ele>659.15</ele>
        <time>2018-07-14T06:54:41.000Z</time>
      </trkpt>
      <trkpt lat="46.2147" lon="2.84169">
        <ele>659.51</ele>
        <time>2018-07-14T06:54:43.000Z</time>
      </trkpt>
      <trkpt lat="46.21466" lon="2.84154">
        <ele>660.11</ele>
        <time>2018-07-14T06:54:45.000Z</time>
      </trkpt>
      <trkpt lat="46.21462" lon="2.84138">
        <ele>660.8</ele>
        <time>2018-07-14T06:54:47.000Z</time>
      </trkpt>
      <trkpt lat="46.21458" lon="2.84121">
        <ele>661.84</ele>
        <time>2018-07-14T06:54:49.000Z</time>
      </trkpt>
      <trkpt lat="46.21453" lon="2.84105">
        <ele>662.85</ele>
        <time>2018-07-14T06:54:51.000Z</time>
      </trkpt>
      <trkpt lat="46.21449" lon="2.84088">
        <ele>663.24</ele>
        <time>2018-07-14T06:54:53.000Z</time>
      </trkpt>
      <trkpt lat="46.21444" lon="2.84071">
        <ele>663.08</ele>
        <time>2018-07-14T06:54:55.000Z</time>
      </trkpt>
      <trkpt lat="46.2144" lon="2.84055">
        <ele>662.84</ele>
        <time>2018-07-14T06:54:57.000Z</time>
      </trkpt>
      <trkpt lat="46.21436" lon="2.84037">
        <ele>663.05</ele>
        <time>2018-07-14T06:54:59.000Z</time>
      </trkpt>
      <trkpt lat="46.21431" lon="2.84021">
        <ele>663.31</ele>
        <time>2018-07-14T06:55:01.000Z</time>
      </trkpt>
      <trkpt lat="46.21425" lon="2.84004">
        <ele>663.76</ele>
        <time>2018-07-14T06:55:03.000Z</time>
      </trkpt>
      <trkpt lat="46.21417" lon="2.83987">
        <ele>663.48</ele>
        <time>2018-07-14T06:55:05.000Z</time>
      </trkpt>
      <trkpt lat="46.21408" lon="2.83972">
        <ele>663.29</ele>
        <time>2018-07-14T06:55:07.000Z</time>
      </trkpt>
      <trkpt lat="46.21399" lon="2.83955">
        <ele>662.61</ele>
        <time>2018-07-14T06:55:09.000Z</time>
      </trkpt>
      <trkpt lat="46.21391" lon="2.83937">
        <ele>662.05</ele>
        <time>2018-07-14T06:55:11.000Z</time>
      </trkpt>
      <trkpt lat="46.21384" lon="2.83919">
        <ele>661.23</ele>
        <time>2018-07-14T06:55:13.000Z</time>
      </trkpt>
      <trkpt lat="46.21378" lon="2.839">
        <ele>660.43</ele>
        <time>2018-07-14T06:55:15.000Z</time>
      </trkpt>
      <trkpt lat="46.21373" lon="2.8388">
        <ele>659.54</ele>
        <time>2018-07-14T06:55:17.000Z</time>
      </trkpt>
      <trkpt lat="46.21367" lon="2.83861">
        <ele>659.08</ele>
        <time>2018-07-14T06:55:19.000Z</time>
      </trkpt>
      <trkpt lat="46.21363" lon="2.83842">
        <ele>659.04</ele>
        <time>2018-07-14T06:55:21.000Z</time>
      </trkpt>
      <trkpt lat="46.21359" lon="2.83823">
        <ele>659.15</ele>
        <time>2018-07-14T06:55:23.000Z</time>
      </trkpt>
      <trkpt lat="46.21354" lon="2.83804">
        <ele>659.48</ele>
        <time>2018-07-14T06:55:25.000Z</time>
      </trkpt>
      <trkpt lat="46.21349" lon="2.83784">
        <ele>659.83</ele>
        <time>2018-07-14T06:55:27.000Z</time>
      </trkpt>
      <trkpt lat="46.21344" lon="2.83765">
        <ele>660.12</ele>
        <time>2018-07-14T06:55:29.000Z</time>
      </trkpt>
      <trkpt lat="46.21339" lon="2.83745">
        <ele>660.26</ele>
        <time>2018-07-14T06:55:31.000Z</time>
      </trkpt>
      <trkpt lat="46.21335" lon="2.83725">
        <ele>660.1</ele>
        <time>2018-07-14T06:55:33.000Z</time>
      </trkpt>
      <trkpt lat="46.2133" lon="2.83706">
        <ele>659.6</ele>
        <time>2018-07-14T06:55:35.000Z</time>
      </trkpt>
      <trkpt lat="46.21325" lon="2.83686">
        <ele>659.02</ele>
        <time>2018-07-14T06:55:37.000Z</time>
      </trkpt>
      <trkpt lat="46.2132" lon="2.83666">
        <ele>658.56</ele>
        <time>2018-07-14T06:55:39.000Z</time>
      </trkpt>
      <trkpt lat="46.21315" lon="2.83645">
        <ele>658.01</ele>
        <time>2018-07-14T06:55:41.000Z</time>
      </trkpt>
      <trkpt lat="46.21309" lon="2.83626">
        <ele>657.47</ele>
        <time>2018-07-14T06:55:43.000Z</time>
      </trkpt>
      <trkpt lat="46.21303" lon="2.83606">
        <ele>656.92</ele>
        <time>2018-07-14T06:55:45.000Z</time>
      </trkpt>
      <trkpt lat="46.21296" lon="2.83587">
        <ele>656.54</ele>
        <time>2018-07-14T06:55:47.000Z</time>
      </trkpt>
      <trkpt lat="46.21288" lon="2.83567">
        <ele>655.92</ele>
        <time>2018-07-14T06:55:49.000Z</time>
      </trkpt>
      <trkpt lat="46.2128" lon="2.83549">
        <ele>655.36</ele>
        <time>2018-07-14T06:55:51.000Z</time>
      </trkpt>
      <trkpt lat="46.21272" lon="2.8353">
        <ele>654.98</ele>
        <time>2018-07-14T06:55:53.000Z</time>
      </trkpt>
      <trkpt lat="46.21263" lon="2.83512">
        <ele>654.26</ele>
        <time>2018-07-14T06:55:55.000Z</time>
      </trkpt>
      <trkpt lat="46.21254" lon="2.83494">
        <ele>653.43</ele>
        <time>2018-07-14T06:55:57.000Z</time>
      </trkpt>
      <trkpt lat="46.21245" lon="2.83475">
        <ele>652.57</ele>
        <time>2018-07-14T06:55:59.000Z</time>
      </trkpt>
      <trkpt lat="46.21236" lon="2.83458">
        <ele>651.74</ele>
        <time>2018-07-14T06:56:01.000Z</time>
      </trkpt>
      <trkpt lat="46.21226" lon="2.83443">
        <ele>650.94</ele>
        <time>2018-07-14T06:56:03.000Z</time>
      </trkpt>
      <trkpt lat="46.21215" lon="2.83427">
        <ele>650.02</ele>
        <time>2018-07-14T06:56:05.000Z</time>
      </trkpt>
      <trkpt lat="46.21204" lon="2.8341">
        <ele>649.06</ele>
        <time>2018-07-14T06:56:07.000Z</time>
      </trkpt>
      <trkpt lat="46.21195" lon="2.83393">
        <ele>648.73</ele>
        <time>2018-07-14T06:56:09.000Z</time>
      </trkpt>
      <trkpt lat="46.21185" lon="2.83377">
        <ele>648.87</ele>
        <time>2018-07-14T06:56:11.000Z</time>
      </trkpt>
      <trkpt lat="46.21174" lon="2.83361">
        <ele>649.01</ele>
        <time>2018-07-14T06:56:13.000Z</time>
      </trkpt>
      <trkpt lat="46.21164" lon="2.83345">
        <ele>649.09</ele>
        <time>2018-07-14T06:56:15.000Z</time>
      </trkpt>
      <trkpt lat="46.21154" lon="2.83329">
        <ele>649.33</ele>
        <time>2018-07-14T06:56:17.000Z</time>
      </trkpt>
      <trkpt lat="46.21145" lon="2.83314">
        <ele>649.54</ele>
        <time>2018-07-14T06:56:19.000Z</time>
      </trkpt>
      <trkpt lat="46.21135" lon="2.83298">
        <ele>649.63</ele>
        <time>2018-07-14T06:56:21.000Z</time>
      </trkpt>
      <trkpt lat="46.21126" lon="2.83281">
        <ele>649.99</ele>
        <time>2018-07-14T06:56:23.000Z</time>
      </trkpt>
      <trkpt lat="46.21116" lon="2.83263">
        <ele>650.21</ele>
        <time>2018-07-14T06:56:25.000Z</time>
      </trkpt>
      <trkpt lat="46.21106" lon="2.83246">
        <ele>650.22</ele>
        <time>2018-07-14T06:56:27.000Z</time>
      </trkpt>
      <trkpt lat="46.21095" lon="2.83229">
        <ele>649.92</ele>
        <time>2018-07-14T06:56:29.000Z</time>
      </trkpt>
      <trkpt lat="46.21083" lon="2.83212">
        <ele>649.67</ele>
        <time>2018-07-14T06:56:31.000Z</time>
      </trkpt>
      <trkpt lat="46.2107" lon="2.83194">
        <ele>649.63</ele>
        <time>2018-07-14T06:56:33.000Z</time>
      </trkpt>
      <trkpt lat="46.21063" lon="2.83184">
        <ele>649.4</ele>
        <time>2018-07-14T06:56:34.000Z</time>
      </trkpt>
      <trkpt lat="46.21056" lon="2.83175">
        <ele>649.12</ele>
        <time>2018-07-14T06:56:35.000Z</time>
      </trkpt>
      <trkpt lat="46.2105" lon="2.83166">
        <ele>648.9</ele>
        <time>2018-07-14T06:56:36.000Z</time>
      </trkpt>
      <trkpt lat="46.21043" lon="2.83157">
        <ele>648.82</ele>
        <time>2018-07-14T06:56:37.000Z</time>
      </trkpt>
      <trkpt lat="46.21035" lon="2.83149">
        <ele>648.86</ele>
        <time>2018-07-14T06:56:38.000Z</time>
      </trkpt>
      <trkpt lat="46.21028" lon="2.83142">
        <ele>649.09</ele>
        <time>2018-07-14T06:56:39.000Z</time>
      </trkpt>
      <trkpt lat="46.2102" lon="2.83135">
        <ele>649.06</ele>
        <time>2018-07-14T06:56:40.000Z</time>
      </trkpt>
      <trkpt lat="46.21011" lon="2.83128">
        <ele>649.11</ele>
        <time>2018-07-14T06:56:41.000Z</time>
      </trkpt>
      <trkpt lat="46.21003" lon="2.83123">
        <ele>649.12</ele>
        <time>2018-07-14T06:56:42.000Z</time>
      </trkpt>
      <trkpt lat="46.20995" lon="2.83117">
        <ele>649.26</ele>
        <time>2018-07-14T06:56:43.000Z</time>
      </trkpt>
      <trkpt lat="46.20979" lon="2.83107">
        <ele>649.02</ele>
        <time>2018-07-14T06:56:45.000Z</time>
      </trkpt>
      <trkpt lat="46.20963" lon="2.83097">
        <ele>649.23</ele>
        <time>2018-07-14T06:56:47.000Z</time>
      </trkpt>
      <trkpt lat="46.20948" lon="2.83087">
        <ele>649.51</ele>
        <time>2018-07-14T06:56:49.000Z</time>
      </trkpt>
      <trkpt lat="46.20933" lon="2.83076">
        <ele>649.36</ele>
        <time>2018-07-14T06:56:51.000Z</time>
      </trkpt>
      <trkpt lat="46.20918" lon="2.83065">
        <ele>648.86</ele>
        <time>2018-07-14T06:56:53.000Z</time>
      </trkpt>
      <trkpt lat="46.20905" lon="2.83056">
        <ele>648.69</ele>
        <time>2018-07-14T06:56:55.000Z</time>
      </trkpt>
      <trkpt lat="46.20891" lon="2.83046">
        <ele>648.24</ele>
        <time>2018-07-14T06:56:57.000Z</time>
      </trkpt>
      <trkpt lat="46.20878" lon="2.83036">
        <ele>647.86</ele>
        <time>2018-07-14T06:56:59.000Z</time>
      </trkpt>
      <trkpt lat="46.20865" lon="2.83026">
        <ele>647.89</ele>
        <time>2018-07-14T06:57:01.000Z</time>
      </trkpt>
      <trkpt lat="46.20852" lon="2.83015">
        <ele>647.85</ele>
        <time>2018-07-14T06:57:03.000Z</time>
      </trkpt>
      <trkpt lat="46.20839" lon="2.83003">
        <ele>647.89</ele>
        <time>2018-07-14T06:57:05.000Z</time>
      </trkpt>
      <trkpt lat="46.20825" lon="2.8299">
        <ele>647.98</ele>
        <time>2018-07-14T06:57:07.000Z</time>
      </trkpt>
      <trkpt lat="46.20813" lon="2.82976">
        <ele>647.66</ele>
        <time>2018-07-14T06:57:09.000Z</time>
      </trkpt>
      <trkpt lat="46.20802" lon="2.8296">
        <ele>647.63</ele>
        <time>2018-07-14T06:57:11.000Z</time>
      </trkpt>
      <trkpt lat="46.2079" lon="2.82945">
        <ele>647.5</ele>
        <time>2018-07-14T06:57:13.000Z</time>
      </trkpt>
      <trkpt lat="46.20781" lon="2.82929">
        <ele>647.32</ele>
        <time>2018-07-14T06:57:15.000Z</time>
      </trkpt>
      <trkpt lat="46.20772" lon="2.82912">
        <ele>647.03</ele>
        <time>2018-07-14T06:57:17.000Z</time>
      </trkpt>
      <trkpt lat="46.20764" lon="2.82895">
        <ele>646.62</ele>
        <time>2018-07-14T06:57:19.000Z</time>
      </trkpt>
      <trkpt lat="46.20757" lon="2.82876">
        <ele>646.24</ele>
        <time>2018-07-14T06:57:21.000Z</time>
      </trkpt>
      <trkpt lat="46.20749" lon="2.82858">
        <ele>645.97</ele>
        <time>2018-07-14T06:57:23.000Z</time>
      </trkpt>
      <trkpt lat="46.20743" lon="2.82839">
        <ele>645.44</ele>
        <time>2018-07-14T06:57:25.000Z</time>
      </trkpt>
      <trkpt lat="46.20738" lon="2.82821">
        <ele>645.03</ele>
        <time>2018-07-14T06:57:27.000Z</time>
      </trkpt>
      <trkpt lat="46.20734" lon="2.82803">
        <ele>644.98</ele>
        <time>2018-07-14T06:57:29.000Z</time>
      </trkpt>
      <trkpt lat="46.2073" lon="2.82784">
        <ele>644.99</ele>
        <time>2018-07-14T06:57:31.000Z</time>
      </trkpt>
      <trkpt lat="46.20725" lon="2.82766">
        <ele>644.94</ele>
        <time>2018-07-14T06:57:33.000Z</time>
      </trkpt>
      <trkpt lat="46.20721" lon="2.82748">
        <ele>644.85</ele>
        <time>2018-07-14T06:57:35.000Z</time>
      </trkpt>
      <trkpt lat="46.20716" lon="2.8273">
        <ele>644.71</ele>
        <time>2018-07-14T06:57:37.000Z</time>
      </trkpt>
      <trkpt lat="46.20712" lon="2.82712">
        <ele>644.89</ele>
        <time>2018-07-14T06:57:39.000Z</time>
      </trkpt>
      <trkpt lat="46.20708" lon="2.82695">
        <ele>644.94</ele>
        <time>2018-07-14T06:57:41.000Z</time>
      </trkpt>
      <trkpt lat="46.20704" lon="2.82678">
        <ele>645.13</ele>
        <time>2018-07-14T06:57:43.000Z</time>
      </trkpt>
      <trkpt lat="46.20701" lon="2.82663">
        <ele>645.39</ele>
        <time>2018-07-14T06:57:45.000Z</time>
      </trkpt>
      <trkpt lat="46.20698" lon="2.82647">
        <ele>645.42</ele>
        <time>2018-07-14T06:57:47.000Z</time>
      </trkpt>
      <trkpt lat="46.20694" lon="2.82631">
        <ele>645.43</ele>
        <time>2018-07-14T06:57:49.000Z</time>
      </trkpt>
      <trkpt lat="46.20689" lon="2.82614">
        <ele>645.73</ele>
        <time>2018-07-14T06:57:51.000Z</time>
      </trkpt>
      <trkpt lat="46.20684" lon="2.82598">
        <ele>646.32</ele>
        <time>2018-07-14T06:57:53.000Z</time>
      </trkpt>
      <trkpt lat="46.20681" lon="2.82582">
        <ele>647.31</ele>
        <time>2018-07-14T06:57:55.000Z</time>
      </trkpt>
      <trkpt lat="46.20677" lon="2.82567">
        <ele>648.52</ele>
        <time>2018-07-14T06:57:57.000Z</time>
      </trkpt>
      <trkpt lat="46.20673" lon="2.82552">
        <ele>649.51</ele>
        <time>2018-07-14T06:57:59.000Z</time>
      </trkpt>
      <trkpt lat="46.2067" lon="2.82537">
        <ele>650.17</ele>
        <time>2018-07-14T06:58:01.000Z</time>
      </trkpt>
      <trkpt lat="46.20665" lon="2.82522">
        <ele>650.9</ele>
        <time>2018-07-14T06:58:03.000Z</time>
      </trkpt>
      <trkpt lat="46.20661" lon="2.82506">
        <ele>651.59</ele>
        <time>2018-07-14T06:58:05.000Z</time>
      </trkpt>
      <trkpt lat="46.20657" lon="2.8249">
        <ele>651.85</ele>
        <time>2018-07-14T06:58:07.000Z</time>
      </trkpt>
      <trkpt lat="46.20653" lon="2.82474">
        <ele>652.12</ele>
        <time>2018-07-14T06:58:09.000Z</time>
      </trkpt>
      <trkpt lat="46.20648" lon="2.82457">
        <ele>652.18</ele>
        <time>2018-07-14T06:58:11.000Z</time>
      </trkpt>
      <trkpt lat="46.20644" lon="2.82441">
        <ele>652.49</ele>
        <time>2018-07-14T06:58:13.000Z</time>
      </trkpt>
      <trkpt lat="46.20638" lon="2.82427">
        <ele>653.05</ele>
        <time>2018-07-14T06:58:15.000Z</time>
      </trkpt>
      <trkpt lat="46.20634" lon="2.82414">
        <ele>653.67</ele>
        <time>2018-07-14T06:58:17.000Z</time>
      </trkpt>
      <trkpt lat="46.20628" lon="2.824">
        <ele>654.26</ele>
        <time>2018-07-14T06:58:19.000Z</time>
      </trkpt>
      <trkpt lat="46.20623" lon="2.82388">
        <ele>654.84</ele>
        <time>2018-07-14T06:58:21.000Z</time>
      </trkpt>
      <trkpt lat="46.20617" lon="2.82374">
        <ele>655.68</ele>
        <time>2018-07-14T06:58:23.000Z</time>
      </trkpt>
      <trkpt lat="46.20612" lon="2.82361">
        <ele>656.68</ele>
        <time>2018-07-14T06:58:25.000Z</time>
      </trkpt>
      <trkpt lat="46.20607" lon="2.82348">
        <ele>657.15</ele>
        <time>2018-07-14T06:58:27.000Z</time>
      </trkpt>
      <trkpt lat="46.20601" lon="2.82335">
        <ele>658.06</ele>
        <time>2018-07-14T06:58:29.000Z</time>
      </trkpt>
      <trkpt lat="46.20595" lon="2.8232">
        <ele>658.87</ele>
        <time>2018-07-14T06:58:31.000Z</time>
      </trkpt>
      <trkpt lat="46.20588" lon="2.82303">
        <ele>659.12</ele>
        <time>2018-07-14T06:58:33.000Z</time>
      </trkpt>
      <trkpt lat="46.2058" lon="2.82286">
        <ele>659.42</ele>
        <time>2018-07-14T06:58:35.000Z</time>
      </trkpt>
      <trkpt lat="46.20572" lon="2.82268">
        <ele>660.13</ele>
        <time>2018-07-14T06:58:37.000Z</time>
      </trkpt>
      <trkpt lat="46.20565" lon="2.82251">
        <ele>660.61</ele>
        <time>2018-07-14T06:58:39.000Z</time>
      </trkpt>
      <trkpt lat="46.20557" lon="2.82234">
        <ele>660.99</ele>
        <time>2018-07-14T06:58:41.000Z</time>
      </trkpt>
      <trkpt lat="46.2055" lon="2.82216">
        <ele>661.05</ele>
        <time>2018-07-14T06:58:43.000Z</time>
      </trkpt>
      <trkpt lat="46.20542" lon="2.82198">
        <ele>661.22</ele>
        <time>2018-07-14T06:58:45.000Z</time>
      </trkpt>
      <trkpt lat="46.20534" lon="2.82181">
        <ele>661.7</ele>
        <time>2018-07-14T06:58:47.000Z</time>
      </trkpt>
      <trkpt lat="46.20526" lon="2.82162">
        <ele>661.78</ele>
        <time>2018-07-14T06:58:49.000Z</time>
      </trkpt>
      <trkpt lat="46.20519" lon="2.82143">
        <ele>661.73</ele>
        <time>2018-07-14T06:58:51.000Z</time>
      </trkpt>
      <trkpt lat="46.2051" lon="2.82125">
        <ele>661.98</ele>
        <time>2018-07-14T06:58:53.000Z</time>
      </trkpt>
      <trkpt lat="46.20502" lon="2.82107">
        <ele>662.08</ele>
        <time>2018-07-14T06:58:55.000Z</time>
      </trkpt>
      <trkpt lat="46.20493" lon="2.82088">
        <ele>662.3</ele>
        <time>2018-07-14T06:58:57.000Z</time>
      </trkpt>
      <trkpt lat="46.20484" lon="2.82067">
        <ele>662.69</ele>
        <time>2018-07-14T06:58:59.000Z</time>
      </trkpt>
      <trkpt lat="46.20478" lon="2.82054">
        <ele>663.13</ele>
        <time>2018-07-14T06:59:00.000Z</time>
      </trkpt>
      <trkpt lat="46.20472" lon="2.82043">
        <ele>663.69</ele>
        <time>2018-07-14T06:59:01.000Z</time>
      </trkpt>
      <trkpt lat="46.20466" lon="2.8203">
        <ele>664.23</ele>
        <time>2018-07-14T06:59:02.000Z</time>
      </trkpt>
      <trkpt lat="46.2046" lon="2.82017">
        <ele>664.29</ele>
        <time>2018-07-14T06:59:03.000Z</time>
      </trkpt>
      <trkpt lat="46.20454" lon="2.82005">
        <ele>664.48</ele>
        <time>2018-07-14T06:59:04.000Z</time>
      </trkpt>
      <trkpt lat="46.20448" lon="2.81993">
        <ele>664.9</ele>
        <time>2018-07-14T06:59:05.000Z</time>
      </trkpt>
      <trkpt lat="46.20443" lon="2.81981">
        <ele>664.64</ele>
        <time>2018-07-14T06:59:06.000Z</time>
      </trkpt>
      <trkpt lat="46.20437" lon="2.81968">
        <ele>664.37</ele>
        <time>2018-07-14T06:59:07.000Z</time>
      </trkpt>
      <trkpt lat="46.20432" lon="2.81954">
        <ele>664.05</ele>
        <time>2018-07-14T06:59:08.000Z</time>
      </trkpt>
      <trkpt lat="46.20426" lon="2.81941">
        <ele>663.73</ele>
        <time>2018-07-14T06:59:09.000Z</time>
      </trkpt>
      <trkpt lat="46.2042" lon="2.81927">
        <ele>663.29</ele>
        <time>2018-07-14T06:59:10.000Z</time>
      </trkpt>
      <trkpt lat="46.20415" lon="2.81912">
        <ele>662.79</ele>
        <time>2018-07-14T06:59:11.000Z</time>
      </trkpt>
      <trkpt lat="46.2041" lon="2.81898">
        <ele>662.57</ele>
        <time>2018-07-14T06:59:12.000Z</time>
      </trkpt>
      <trkpt lat="46.20405" lon="2.81883">
        <ele>662.13</ele>
        <time>2018-07-14T06:59:13.000Z</time>
      </trkpt>
      <trkpt lat="46.204" lon="2.8187">
        <ele>661.43</ele>
        <time>2018-07-14T06:59:14.000Z</time>
      </trkpt>
      <trkpt lat="46.20395" lon="2.81856">
        <ele>661.31</ele>
        <time>2018-07-14T06:59:15.000Z</time>
      </trkpt>
      <trkpt lat="46.20389" lon="2.81844">
        <ele>660.88</ele>
        <time>2018-07-14T06:59:16.000Z</time>
      </trkpt>
      <trkpt lat="46.20384" lon="2.81832">
        <ele>660.62</ele>
        <time>2018-07-14T06:59:17.000Z</time>
      </trkpt>
      <trkpt lat="46.20377" lon="2.8182">
        <ele>660.49</ele>
        <time>2018-07-14T06:59:18.000Z</time>
      </trkpt>
      <trkpt lat="46.20371" lon="2.81808">
        <ele>660.06</ele>
        <time>2018-07-14T06:59:19.000Z</time>
      </trkpt>
      <trkpt lat="46.20364" lon="2.81798">
        <ele>659.49</ele>
        <time>2018-07-14T06:59:20.000Z</time>
      </trkpt>
      <trkpt lat="46.20358" lon="2.81788">
        <ele>658.95</ele>
        <time>2018-07-14T06:59:21.000Z</time>
      </trkpt>
      <trkpt lat="46.20347" lon="2.8177">
        <ele>657.84</ele>
        <time>2018-07-14T06:59:23.000Z</time>
      </trkpt>
      <trkpt lat="46.20334" lon="2.81753">
        <ele>657.05</ele>
        <time>2018-07-14T06:59:25.000Z</time>
      </trkpt>
      <trkpt lat="46.20321" lon="2.81737">
        <ele>656.06</ele>
        <time>2018-07-14T06:59:27.000Z</time>
      </trkpt>
      <trkpt lat="46.20308" lon="2.81721">
        <ele>654.84</ele>
        <time>2018-07-14T06:59:29.000Z</time>
      </trkpt>
      <trkpt lat="46.20296" lon="2.81707">
        <ele>653.74</ele>
        <time>2018-07-14T06:59:31.000Z</time>
      </trkpt>
      <trkpt lat="46.20283" lon="2.81693">
        <ele>652.82</ele>
        <time>2018-07-14T06:59:33.000Z</time>
      </trkpt>
      <trkpt lat="46.20271" lon="2.81679">
        <ele>652.79</ele>
        <time>2018-07-14T06:59:35.000Z</time>
      </trkpt>
      <trkpt lat="46.20259" lon="2.81668">
        <ele>652.87</ele>
        <time>2018-07-14T06:59:37.000Z</time>
      </trkpt>
      <trkpt lat="46.20248" lon="2.81657">
        <ele>652.71</ele>
        <time>2018-07-14T06:59:39.000Z</time>
      </trkpt>
      <trkpt lat="46.20239" lon="2.81647">
        <ele>652.42</ele>
        <time>2018-07-14T06:59:41.000Z</time>
      </trkpt>
      <trkpt lat="46.20231" lon="2.81638">
        <ele>652.43</ele>
        <time>2018-07-14T06:59:43.000Z</time>
      </trkpt>
      <trkpt lat="46.20223" lon="2.8163">
        <ele>652.6</ele>
        <time>2018-07-14T06:59:45.000Z</time>
      </trkpt>
      <trkpt lat="46.20213" lon="2.81623">
        <ele>652.48</ele>
        <time>2018-07-14T06:59:47.000Z</time>
      </trkpt>
      <trkpt lat="46.20205" lon="2.81616">
        <ele>652.61</ele>
        <time>2018-07-14T06:59:49.000Z</time>
      </trkpt>
      <trkpt lat="46.20197" lon="2.81609">
        <ele>652.7</ele>
        <time>2018-07-14T06:59:51.000Z</time>
      </trkpt>
      <trkpt lat="46.2019" lon="2.81601">
        <ele>652.8</ele>
        <time>2018-07-14T06:59:53.000Z</time>
      </trkpt>
      <trkpt lat="46.20182" lon="2.81592">
        <ele>652.94</ele>
        <time>2018-07-14T06:59:55.000Z</time>
      </trkpt>
      <trkpt lat="46.20172" lon="2.8158">
        <ele>653</ele>
        <time>2018-07-14T06:59:58.000Z</time>
      </trkpt>
      <trkpt lat="46.20162" lon="2.81568">
        <ele>653.15</ele>
        <time>2018-07-14T07:00:01.000Z</time>
      </trkpt>
      <trkpt lat="46.20154" lon="2.81561">
        <ele>653.23</ele>
        <time>2018-07-14T07:00:03.000Z</time>
      </trkpt>
      <trkpt lat="46.20146" lon="2.81553">
        <ele>653.13</ele>
        <time>2018-07-14T07:00:05.000Z</time>
      </trkpt>
      <trkpt lat="46.20138" lon="2.81547">
        <ele>653.44</ele>
        <time>2018-07-14T07:00:07.000Z</time>
      </trkpt>
      <trkpt lat="46.20131" lon="2.81539">
        <ele>654.04</ele>
        <time>2018-07-14T07:00:09.000Z</time>
      </trkpt>
      <trkpt lat="46.2012" lon="2.81529">
        <ele>654.77</ele>
        <time>2018-07-14T07:00:12.000Z</time>
      </trkpt>
      <trkpt lat="46.20109" lon="2.81519">
        <ele>654.93</ele>
        <time>2018-07-14T07:00:15.000Z</time>
      </trkpt>
      <trkpt lat="46.20101" lon="2.8151">
        <ele>654.63</ele>
        <time>2018-07-14T07:00:17.000Z</time>
      </trkpt>
      <trkpt lat="46.20094" lon="2.81501">
        <ele>654.57</ele>
        <time>2018-07-14T07:00:19.000Z</time>
      </trkpt>
      <trkpt lat="46.20087" lon="2.81494">
        <ele>654.57</ele>
        <time>2018-07-14T07:00:21.000Z</time>
      </trkpt>
      <trkpt lat="46.20077" lon="2.81481">
        <ele>654.84</ele>
        <time>2018-07-14T07:00:24.000Z</time>
      </trkpt>
      <trkpt lat="46.20069" lon="2.81471">
        <ele>654.7</ele>
        <time>2018-07-14T07:00:26.000Z</time>
      </trkpt>
      <trkpt lat="46.20062" lon="2.81461">
        <ele>654.97</ele>
        <time>2018-07-14T07:00:28.000Z</time>
      </trkpt>
      <trkpt lat="46.20055" lon="2.81451">
        <ele>655.51</ele>
        <time>2018-07-14T07:00:30.000Z</time>
      </trkpt>
      <trkpt lat="46.20047" lon="2.81443">
        <ele>655.63</ele>
        <time>2018-07-14T07:00:32.000Z</time>
      </trkpt>
      <trkpt lat="46.20038" lon="2.81434">
        <ele>655.52</ele>
        <time>2018-07-14T07:00:34.000Z</time>
      </trkpt>
      <trkpt lat="46.2003" lon="2.81425">
        <ele>655.96</ele>
        <time>2018-07-14T07:00:36.000Z</time>
      </trkpt>
      <trkpt lat="46.20022" lon="2.81416">
        <ele>656.12</ele>
        <time>2018-07-14T07:00:38.000Z</time>
      </trkpt>
      <trkpt lat="46.20013" lon="2.81407">
        <ele>656.54</ele>
        <time>2018-07-14T07:00:40.000Z</time>
      </trkpt>
      <trkpt lat="46.20006" lon="2.81399">
        <ele>656.92</ele>
        <time>2018-07-14T07:00:42.000Z</time>
      </trkpt>
      <trkpt lat="46.19999" lon="2.81392">
        <ele>657.81</ele>
        <time>2018-07-14T07:00:44.000Z</time>
      </trkpt>
      <trkpt lat="46.19991" lon="2.81384">
        <ele>658.73</ele>
        <time>2018-07-14T07:00:46.000Z</time>
      </trkpt>
      <trkpt lat="46.19983" lon="2.81377">
        <ele>659.66</ele>
        <time>2018-07-14T07:00:48.000Z</time>
      </trkpt>
      <trkpt lat="46.19972" lon="2.81368">
        <ele>659.77</ele>
        <time>2018-07-14T07:00:51.000Z</time>
      </trkpt>
      <trkpt lat="46.1996" lon="2.81358">
        <ele>658.92</ele>
        <time>2018-07-14T07:00:54.000Z</time>
      </trkpt>
      <trkpt lat="46.1995" lon="2.81348">
        <ele>659</ele>
        <time>2018-07-14T07:00:57.000Z</time>
      </trkpt>
      <trkpt lat="46.19941" lon="2.81338">
        <ele>659.32</ele>
        <time>2018-07-14T07:01:00.000Z</time>
      </trkpt>
      <trkpt lat="46.19932" lon="2.81331">
        <ele>660.47</ele>
        <time>2018-07-14T07:01:03.000Z</time>
      </trkpt>
      <trkpt lat="46.19922" lon="2.81325">
        <ele>661.72</ele>
        <time>2018-07-14T07:01:06.000Z</time>
      </trkpt>
      <trkpt lat="46.19911" lon="2.81318">
        <ele>662.69</ele>
        <time>2018-07-14T07:01:09.000Z</time>
      </trkpt>
      <trkpt lat="46.19901" lon="2.8131">
        <ele>663.63</ele>
        <time>2018-07-14T07:01:12.000Z</time>
      </trkpt>
      <trkpt lat="46.19893" lon="2.81303">
        <ele>664.22</ele>
        <time>2018-07-14T07:01:14.000Z</time>
      </trkpt>
      <trkpt lat="46.19881" lon="2.81293">
        <ele>665.19</ele>
        <time>2018-07-14T07:01:17.000Z</time>
      </trkpt>
      <trkpt lat="46.19873" lon="2.81283">
        <ele>666.12</ele>
        <time>2018-07-14T07:01:20.000Z</time>
      </trkpt>
      <trkpt lat="46.19863" lon="2.81274">
        <ele>667.23</ele>
        <time>2018-07-14T07:01:23.000Z</time>
      </trkpt>
      <trkpt lat="46.19853" lon="2.81263">
        <ele>668.24</ele>
        <time>2018-07-14T07:01:26.000Z</time>
      </trkpt>
      <trkpt lat="46.19842" lon="2.81252">
        <ele>670.04</ele>
        <time>2018-07-14T07:01:29.000Z</time>
      </trkpt>
      <trkpt lat="46.19833" lon="2.81245">
        <ele>671.21</ele>
        <time>2018-07-14T07:01:31.000Z</time>
      </trkpt>
      <trkpt lat="46.19823" lon="2.81234">
        <ele>673.23</ele>
        <time>2018-07-14T07:01:34.000Z</time>
      </trkpt>
      <trkpt lat="46.19812" lon="2.81224">
        <ele>675.25</ele>
        <time>2018-07-14T07:01:37.000Z</time>
      </trkpt>
      <trkpt lat="46.19801" lon="2.81214">
        <ele>676.62</ele>
        <time>2018-07-14T07:01:40.000Z</time>
      </trkpt>
      <trkpt lat="46.19789" lon="2.81205">
        <ele>677.32</ele>
        <time>2018-07-14T07:01:43.000Z</time>
      </trkpt>
      <trkpt lat="46.19781" lon="2.81199">
        <ele>677.78</ele>
        <time>2018-07-14T07:01:45.000Z</time>
      </trkpt>
      <trkpt lat="46.19773" lon="2.81191">
        <ele>678.27</ele>
        <time>2018-07-14T07:01:47.000Z</time>
      </trkpt>
      <trkpt lat="46.19765" lon="2.81183">
        <ele>679</ele>
        <time>2018-07-14T07:01:49.000Z</time>
      </trkpt>
      <trkpt lat="46.19758" lon="2.81174">
        <ele>679.67</ele>
        <time>2018-07-14T07:01:51.000Z</time>
      </trkpt>
      <trkpt lat="46.1975" lon="2.81167">
        <ele>681.04</ele>
        <time>2018-07-14T07:01:53.000Z</time>
      </trkpt>
      <trkpt lat="46.19742" lon="2.81159">
        <ele>682.05</ele>
        <time>2018-07-14T07:01:55.000Z</time>
      </trkpt>
      <trkpt lat="46.19734" lon="2.81151">
        <ele>682.98</ele>
        <time>2018-07-14T07:01:57.000Z</time>
      </trkpt>
      <trkpt lat="46.19725" lon="2.81142">
        <ele>683.63</ele>
        <time>2018-07-14T07:01:59.000Z</time>
      </trkpt>
      <trkpt lat="46.19717" lon="2.81134">
        <ele>684.18</ele>
        <time>2018-07-14T07:02:01.000Z</time>
      </trkpt>
      <trkpt lat="46.19708" lon="2.81126">
        <ele>684.81</ele>
        <time>2018-07-14T07:02:03.000Z</time>
      </trkpt>
      <trkpt lat="46.19699" lon="2.81118">
        <ele>685.18</ele>
        <time>2018-07-14T07:02:05.000Z</time>
      </trkpt>
      <trkpt lat="46.1969" lon="2.81111">
        <ele>685.3</ele>
        <time>2018-07-14T07:02:07.000Z</time>
      </trkpt>
      <trkpt lat="46.19681" lon="2.81104">
        <ele>685.63</ele>
        <time>2018-07-14T07:02:09.000Z</time>
      </trkpt>
      <trkpt lat="46.19671" lon="2.81101">
        <ele>685.85</ele>
        <time>2018-07-14T07:02:11.000Z</time>
      </trkpt>
      <trkpt lat="46.1966" lon="2.81106">
        <ele>686.07</ele>
        <time>2018-07-14T07:02:13.000Z</time>
      </trkpt>
      <trkpt lat="46.19647" lon="2.81115">
        <ele>685.97</ele>
        <time>2018-07-14T07:02:15.000Z</time>
      </trkpt>
      <trkpt lat="46.19631" lon="2.81119">
        <ele>686.3</ele>
        <time>2018-07-14T07:02:17.000Z</time>
      </trkpt>
      <trkpt lat="46.19614" lon="2.81117">
        <ele>686.63</ele>
        <time>2018-07-14T07:02:19.000Z</time>
      </trkpt>
      <trkpt lat="46.19598" lon="2.81116">
        <ele>686.45</ele>
        <time>2018-07-14T07:02:21.000Z</time>
      </trkpt>
      <trkpt lat="46.19581" lon="2.81117">
        <ele>686.23</ele>
        <time>2018-07-14T07:02:23.000Z</time>
      </trkpt>
      <trkpt lat="46.19563" lon="2.81118">
        <ele>685.87</ele>
        <time>2018-07-14T07:02:25.000Z</time>
      </trkpt>
      <trkpt lat="46.19544" lon="2.81118">
        <ele>685.29</ele>
        <time>2018-07-14T07:02:27.000Z</time>
      </trkpt>
      <trkpt lat="46.19534" lon="2.81118">
        <ele>684.97</ele>
        <time>2018-07-14T07:02:28.000Z</time>
      </trkpt>
      <trkpt lat="46.19524" lon="2.81117">
        <ele>684.48</ele>
        <time>2018-07-14T07:02:29.000Z</time>
      </trkpt>
      <trkpt lat="46.19513" lon="2.81115">
        <ele>684.15</ele>
        <time>2018-07-14T07:02:30.000Z</time>
      </trkpt>
      <trkpt lat="46.19502" lon="2.81113">
        <ele>683.67</ele>
        <time>2018-07-14T07:02:31.000Z</time>
      </trkpt>
      <trkpt lat="46.1949" lon="2.8111">
        <ele>683.05</ele>
        <time>2018-07-14T07:02:32.000Z</time>
      </trkpt>
      <trkpt lat="46.19479" lon="2.81106">
        <ele>682.57</ele>
        <time>2018-07-14T07:02:33.000Z</time>
      </trkpt>
      <trkpt lat="46.19468" lon="2.811">
        <ele>682.1</ele>
        <time>2018-07-14T07:02:34.000Z</time>
      </trkpt>
      <trkpt lat="46.19456" lon="2.81094">
        <ele>681.54</ele>
        <time>2018-07-14T07:02:35.000Z</time>
      </trkpt>
      <trkpt lat="46.19445" lon="2.81087">
        <ele>680.64</ele>
        <time>2018-07-14T07:02:36.000Z</time>
      </trkpt>
      <trkpt lat="46.19434" lon="2.81079">
        <ele>679.73</ele>
        <time>2018-07-14T07:02:37.000Z</time>
      </trkpt>
      <trkpt lat="46.19422" lon="2.8107">
        <ele>678.67</ele>
        <time>2018-07-14T07:02:38.000Z</time>
      </trkpt>
      <trkpt lat="46.1941" lon="2.8106">
        <ele>677.65</ele>
        <time>2018-07-14T07:02:39.000Z</time>
      </trkpt>
      <trkpt lat="46.19397" lon="2.8105">
        <ele>676.72</ele>
        <time>2018-07-14T07:02:40.000Z</time>
      </trkpt>
      <trkpt lat="46.19386" lon="2.8104">
        <ele>675.67</ele>
        <time>2018-07-14T07:02:41.000Z</time>
      </trkpt>
      <trkpt lat="46.19373" lon="2.8103">
        <ele>674.7</ele>
        <time>2018-07-14T07:02:42.000Z</time>
      </trkpt>
      <trkpt lat="46.19361" lon="2.81021">
        <ele>673.84</ele>
        <time>2018-07-14T07:02:43.000Z</time>
      </trkpt>
      <trkpt lat="46.19349" lon="2.81012">
        <ele>673.04</ele>
        <time>2018-07-14T07:02:44.000Z</time>
      </trkpt>
      <trkpt lat="46.19336" lon="2.81005">
        <ele>672.36</ele>
        <time>2018-07-14T07:02:45.000Z</time>
      </trkpt>
      <trkpt lat="46.19322" lon="2.80999">
        <ele>671.8</ele>
        <time>2018-07-14T07:02:46.000Z</time>
      </trkpt>
      <trkpt lat="46.19308" lon="2.80994">
        <ele>671.49</ele>
        <time>2018-07-14T07:02:47.000Z</time>
      </trkpt>
      <trkpt lat="46.19294" lon="2.8099">
        <ele>670.9</ele>
        <time>2018-07-14T07:02:48.000Z</time>
      </trkpt>
      <trkpt lat="46.1928" lon="2.80988">
        <ele>670.03</ele>
        <time>2018-07-14T07:02:49.000Z</time>
      </trkpt>
      <trkpt lat="46.19265" lon="2.80987">
        <ele>669.18</ele>
        <time>2018-07-14T07:02:50.000Z</time>
      </trkpt>
      <trkpt lat="46.1925" lon="2.80987">
        <ele>668.28</ele>
        <time>2018-07-14T07:02:51.000Z</time>
      </trkpt>
      <trkpt lat="46.19235" lon="2.80987">
        <ele>666.89</ele>
        <time>2018-07-14T07:02:52.000Z</time>
      </trkpt>
      <trkpt lat="46.19218" lon="2.80987">
        <ele>665.02</ele>
        <time>2018-07-14T07:02:53.000Z</time>
      </trkpt>
      <trkpt lat="46.19202" lon="2.80988">
        <ele>663.47</ele>
        <time>2018-07-14T07:02:54.000Z</time>
      </trkpt>
      <trkpt lat="46.19186" lon="2.80989">
        <ele>661.48</ele>
        <time>2018-07-14T07:02:55.000Z</time>
      </trkpt>
      <trkpt lat="46.19169" lon="2.8099">
        <ele>659.86</ele>
        <time>2018-07-14T07:02:56.000Z</time>
      </trkpt>
      <trkpt lat="46.19153" lon="2.80991">
        <ele>658.35</ele>
        <time>2018-07-14T07:02:57.000Z</time>
      </trkpt>
      <trkpt lat="46.19137" lon="2.80992">
        <ele>656.94</ele>
        <time>2018-07-14T07:02:58.000Z</time>
      </trkpt>
      <trkpt lat="46.19121" lon="2.80993">
        <ele>655.66</ele>
        <time>2018-07-14T07:02:59.000Z</time>
      </trkpt>
      <trkpt lat="46.19104" lon="2.80993">
        <ele>654.35</ele>
        <time>2018-07-14T07:03:00.000Z</time>
      </trkpt>
      <trkpt lat="46.19088" lon="2.80994">
        <ele>652.69</ele>
        <time>2018-07-14T07:03:01.000Z</time>
      </trkpt>
      <trkpt lat="46.19072" lon="2.80994">
        <ele>651.09</ele>
        <time>2018-07-14T07:03:02.000Z</time>
      </trkpt>
      <trkpt lat="46.19056" lon="2.80995">
        <ele>649.49</ele>
        <time>2018-07-14T07:03:03.000Z</time>
      </trkpt>
      <trkpt lat="46.1904" lon="2.80996">
        <ele>648.2</ele>
        <time>2018-07-14T07:03:04.000Z</time>
      </trkpt>
      <trkpt lat="46.19024" lon="2.80996">
        <ele>646.61</ele>
        <time>2018-07-14T07:03:05.000Z</time>
      </trkpt>
      <trkpt lat="46.19008" lon="2.80997">
        <ele>645.1</ele>
        <time>2018-07-14T07:03:06.000Z</time>
      </trkpt>
      <trkpt lat="46.18992" lon="2.80997">
        <ele>643.78</ele>
        <time>2018-07-14T07:03:07.000Z</time>
      </trkpt>
      <trkpt lat="46.18976" lon="2.80998">
        <ele>642.48</ele>
        <time>2018-07-14T07:03:08.000Z</time>
      </trkpt>
      <trkpt lat="46.1896" lon="2.80998">
        <ele>641.4</ele>
        <time>2018-07-14T07:03:09.000Z</time>
      </trkpt>
      <trkpt lat="46.18944" lon="2.80999">
        <ele>640.11</ele>
        <time>2018-07-14T07:03:10.000Z</time>
      </trkpt>
      <trkpt lat="46.18929" lon="2.80999">
        <ele>638.81</ele>
        <time>2018-07-14T07:03:11.000Z</time>
      </trkpt>
      <trkpt lat="46.18913" lon="2.80999">
        <ele>637.13</ele>
        <time>2018-07-14T07:03:12.000Z</time>
      </trkpt>
      <trkpt lat="46.18898" lon="2.81">
        <ele>635.49</ele>
        <time>2018-07-14T07:03:13.000Z</time>
      </trkpt>
      <trkpt lat="46.18882" lon="2.81">
        <ele>633.94</ele>
        <time>2018-07-14T07:03:14.000Z</time>
      </trkpt>
      <trkpt lat="46.18866" lon="2.81">
        <ele>632.35</ele>
        <time>2018-07-14T07:03:15.000Z</time>
      </trkpt>
      <trkpt lat="46.1885" lon="2.81001">
        <ele>630.84</ele>
        <time>2018-07-14T07:03:16.000Z</time>
      </trkpt>
      <trkpt lat="46.18834" lon="2.81002">
        <ele>629.41</ele>
        <time>2018-07-14T07:03:17.000Z</time>
      </trkpt>
      <trkpt lat="46.18818" lon="2.81003">
        <ele>628.05</ele>
        <time>2018-07-14T07:03:18.000Z</time>
      </trkpt>
      <trkpt lat="46.18802" lon="2.81006">
        <ele>626.55</ele>
        <time>2018-07-14T07:03:19.000Z</time>
      </trkpt>
      <trkpt lat="46.18787" lon="2.81009">
        <ele>625.16</ele>
        <time>2018-07-14T07:03:20.000Z</time>
      </trkpt>
      <trkpt lat="46.18772" lon="2.81013">
        <ele>623.78</ele>
        <time>2018-07-14T07:03:21.000Z</time>
      </trkpt>
      <trkpt lat="46.18757" lon="2.81019">
        <ele>622.63</ele>
        <time>2018-07-14T07:03:22.000Z</time>
      </trkpt>
      <trkpt lat="46.18742" lon="2.81026">
        <ele>621.6</ele>
        <time>2018-07-14T07:03:23.000Z</time>
      </trkpt>
      <trkpt lat="46.18727" lon="2.81034">
        <ele>620.59</ele>
        <time>2018-07-14T07:03:24.000Z</time>
      </trkpt>
      <trkpt lat="46.18713" lon="2.81044">
        <ele>619.58</ele>
        <time>2018-07-14T07:03:25.000Z</time>
      </trkpt>
      <trkpt lat="46.18699" lon="2.81054">
        <ele>618.44</ele>
        <time>2018-07-14T07:03:26.000Z</time>
      </trkpt>
      <trkpt lat="46.18685" lon="2.81066">
        <ele>617.28</ele>
        <time>2018-07-14T07:03:27.000Z</time>
      </trkpt>
      <trkpt lat="46.18672" lon="2.81079">
        <ele>616</ele>
        <time>2018-07-14T07:03:28.000Z</time>
      </trkpt>
      <trkpt lat="46.1866" lon="2.81092">
        <ele>614.9</ele>
        <time>2018-07-14T07:03:29.000Z</time>
      </trkpt>
      <trkpt lat="46.18649" lon="2.81107">
        <ele>613.94</ele>
        <time>2018-07-14T07:03:30.000Z</time>
      </trkpt>
      <trkpt lat="46.18638" lon="2.81122">
        <ele>612.85</ele>
        <time>2018-07-14T07:03:31.000Z</time>
      </trkpt>
      <trkpt lat="46.18627" lon="2.81138">
        <ele>611.83</ele>
        <time>2018-07-14T07:03:32.000Z</time>
      </trkpt>
      <trkpt lat="46.18617" lon="2.81154">
        <ele>610.79</ele>
        <time>2018-07-14T07:03:33.000Z</time>
      </trkpt>
      <trkpt lat="46.18608" lon="2.81172">
        <ele>609.73</ele>
        <time>2018-07-14T07:03:34.000Z</time>
      </trkpt>
      <trkpt lat="46.186" lon="2.81189">
        <ele>608.72</ele>
        <time>2018-07-14T07:03:35.000Z</time>
      </trkpt>
      <trkpt lat="46.18592" lon="2.81207">
        <ele>607.72</ele>
        <time>2018-07-14T07:03:36.000Z</time>
      </trkpt>
      <trkpt lat="46.18584" lon="2.81225">
        <ele>606.78</ele>
        <time>2018-07-14T07:03:37.000Z</time>
      </trkpt>
      <trkpt lat="46.18578" lon="2.81243">
        <ele>605.98</ele>
        <time>2018-07-14T07:03:38.000Z</time>
      </trkpt>
      <trkpt lat="46.1857" lon="2.81261">
        <ele>605.25</ele>
        <time>2018-07-14T07:03:39.000Z</time>
      </trkpt>
      <trkpt lat="46.18564" lon="2.81279">
        <ele>604.39</ele>
        <time>2018-07-14T07:03:40.000Z</time>
      </trkpt>
      <trkpt lat="46.18556" lon="2.81296">
        <ele>603.54</ele>
        <time>2018-07-14T07:03:41.000Z</time>
      </trkpt>
      <trkpt lat="46.18549" lon="2.81313">
        <ele>602.72</ele>
        <time>2018-07-14T07:03:42.000Z</time>
      </trkpt>
      <trkpt lat="46.18542" lon="2.8133">
        <ele>601.95</ele>
        <time>2018-07-14T07:03:43.000Z</time>
      </trkpt>
      <trkpt lat="46.18535" lon="2.81346">
        <ele>601.21</ele>
        <time>2018-07-14T07:03:44.000Z</time>
      </trkpt>
      <trkpt lat="46.18527" lon="2.81362">
        <ele>600.47</ele>
        <time>2018-07-14T07:03:45.000Z</time>
      </trkpt>
      <trkpt lat="46.1852" lon="2.81378">
        <ele>599.78</ele>
        <time>2018-07-14T07:03:46.000Z</time>
      </trkpt>
      <trkpt lat="46.18513" lon="2.81393">
        <ele>598.98</ele>
        <time>2018-07-14T07:03:47.000Z</time>
      </trkpt>
      <trkpt lat="46.18506" lon="2.81409">
        <ele>598.15</ele>
        <time>2018-07-14T07:03:48.000Z</time>
      </trkpt>
      <trkpt lat="46.185" lon="2.81424">
        <ele>597.33</ele>
        <time>2018-07-14T07:03:49.000Z</time>
      </trkpt>
      <trkpt lat="46.18494" lon="2.8144">
        <ele>596.52</ele>
        <time>2018-07-14T07:03:50.000Z</time>
      </trkpt>
      <trkpt lat="46.18488" lon="2.81456">
        <ele>595.81</ele>
        <time>2018-07-14T07:03:51.000Z</time>
      </trkpt>
      <trkpt lat="46.18481" lon="2.81472">
        <ele>595.12</ele>
        <time>2018-07-14T07:03:52.000Z</time>
      </trkpt>
      <trkpt lat="46.18475" lon="2.81488">
        <ele>594.39</ele>
        <time>2018-07-14T07:03:53.000Z</time>
      </trkpt>
      <trkpt lat="46.18469" lon="2.81504">
        <ele>593.69</ele>
        <time>2018-07-14T07:03:54.000Z</time>
      </trkpt>
      <trkpt lat="46.18464" lon="2.8152">
        <ele>593.01</ele>
        <time>2018-07-14T07:03:55.000Z</time>
      </trkpt>
      <trkpt lat="46.18457" lon="2.81536">
        <ele>592.28</ele>
        <time>2018-07-14T07:03:56.000Z</time>
      </trkpt>
      <trkpt lat="46.18451" lon="2.81551">
        <ele>591.57</ele>
        <time>2018-07-14T07:03:57.000Z</time>
      </trkpt>
      <trkpt lat="46.18445" lon="2.81566">
        <ele>590.89</ele>
        <time>2018-07-14T07:03:58.000Z</time>
      </trkpt>
      <trkpt lat="46.18439" lon="2.81581">
        <ele>590.22</ele>
        <time>2018-07-14T07:03:59.000Z</time>
      </trkpt>
      <trkpt lat="46.18433" lon="2.81597">
        <ele>589.7</ele>
        <time>2018-07-14T07:04:00.000Z</time>
      </trkpt>
      <trkpt lat="46.18428" lon="2.81612">
        <ele>589.13</ele>
        <time>2018-07-14T07:04:01.000Z</time>
      </trkpt>
      <trkpt lat="46.18422" lon="2.81627">
        <ele>588.54</ele>
        <time>2018-07-14T07:04:02.000Z</time>
      </trkpt>
      <trkpt lat="46.18417" lon="2.81642">
        <ele>587.96</ele>
        <time>2018-07-14T07:04:03.000Z</time>
      </trkpt>
      <trkpt lat="46.18412" lon="2.81657">
        <ele>587.32</ele>
        <time>2018-07-14T07:04:04.000Z</time>
      </trkpt>
      <trkpt lat="46.18407" lon="2.81672">
        <ele>586.72</ele>
        <time>2018-07-14T07:04:05.000Z</time>
      </trkpt>
      <trkpt lat="46.18403" lon="2.81687">
        <ele>586.01</ele>
        <time>2018-07-14T07:04:06.000Z</time>
      </trkpt>
      <trkpt lat="46.18399" lon="2.81703">
        <ele>585.14</ele>
        <time>2018-07-14T07:04:07.000Z</time>
      </trkpt>
      <trkpt lat="46.18397" lon="2.81718">
        <ele>584.78</ele>
        <time>2018-07-14T07:04:08.000Z</time>
      </trkpt>
      <trkpt lat="46.18395" lon="2.81735">
        <ele>584.43</ele>
        <time>2018-07-14T07:04:09.000Z</time>
      </trkpt>
      <trkpt lat="46.18393" lon="2.81751">
        <ele>584.23</ele>
        <time>2018-07-14T07:04:10.000Z</time>
      </trkpt>
      <trkpt lat="46.18391" lon="2.81767">
        <ele>584.02</ele>
        <time>2018-07-14T07:04:11.000Z</time>
      </trkpt>
      <trkpt lat="46.18391" lon="2.81784">
        <ele>583.9</ele>
        <time>2018-07-14T07:04:12.000Z</time>
      </trkpt>
      <trkpt lat="46.18392" lon="2.81801">
        <ele>583.68</ele>
        <time>2018-07-14T07:04:13.000Z</time>
      </trkpt>
      <trkpt lat="46.18392" lon="2.81818">
        <ele>583.5</ele>
        <time>2018-07-14T07:04:14.000Z</time>
      </trkpt>
      <trkpt lat="46.18394" lon="2.81835">
        <ele>583.23</ele>
        <time>2018-07-14T07:04:15.000Z</time>
      </trkpt>
      <trkpt lat="46.18395" lon="2.81852">
        <ele>582.74</ele>
        <time>2018-07-14T07:04:16.000Z</time>
      </trkpt>
      <trkpt lat="46.18396" lon="2.81869">
        <ele>582.34</ele>
        <time>2018-07-14T07:04:17.000Z</time>
      </trkpt>
      <trkpt lat="46.18398" lon="2.81887">
        <ele>581.85</ele>
        <time>2018-07-14T07:04:18.000Z</time>
      </trkpt>
      <trkpt lat="46.18401" lon="2.81903">
        <ele>581.34</ele>
        <time>2018-07-14T07:04:19.000Z</time>
      </trkpt>
      <trkpt lat="46.18404" lon="2.81919">
        <ele>580.96</ele>
        <time>2018-07-14T07:04:20.000Z</time>
      </trkpt>
      <trkpt lat="46.18409" lon="2.81936">
        <ele>580.48</ele>
        <time>2018-07-14T07:04:21.000Z</time>
      </trkpt>
      <trkpt lat="46.18414" lon="2.81953">
        <ele>579.87</ele>
        <time>2018-07-14T07:04:22.000Z</time>
      </trkpt>
      <trkpt lat="46.18418" lon="2.81969">
        <ele>579.54</ele>
        <time>2018-07-14T07:04:23.000Z</time>
      </trkpt>
      <trkpt lat="46.18423" lon="2.81985">
        <ele>579.14</ele>
        <time>2018-07-14T07:04:24.000Z</time>
      </trkpt>
      <trkpt lat="46.18427" lon="2.82">
        <ele>578.58</ele>
        <time>2018-07-14T07:04:25.000Z</time>
      </trkpt>
      <trkpt lat="46.18431" lon="2.82016">
        <ele>578.16</ele>
        <time>2018-07-14T07:04:26.000Z</time>
      </trkpt>
      <trkpt lat="46.18436" lon="2.82032">
        <ele>577.64</ele>
        <time>2018-07-14T07:04:27.000Z</time>
      </trkpt>
      <trkpt lat="46.1844" lon="2.8205">
        <ele>577.18</ele>
        <time>2018-07-14T07:04:28.000Z</time>
      </trkpt>
      <trkpt lat="46.18444" lon="2.82067">
        <ele>576.72</ele>
        <time>2018-07-14T07:04:29.000Z</time>
      </trkpt>
      <trkpt lat="46.18448" lon="2.82086">
        <ele>576.4</ele>
        <time>2018-07-14T07:04:30.000Z</time>
      </trkpt>
      <trkpt lat="46.18451" lon="2.82104">
        <ele>575.93</ele>
        <time>2018-07-14T07:04:31.000Z</time>
      </trkpt>
      <trkpt lat="46.18453" lon="2.82125">
        <ele>575.59</ele>
        <time>2018-07-14T07:04:32.000Z</time>
      </trkpt>
      <trkpt lat="46.18455" lon="2.82144">
        <ele>575.27</ele>
        <time>2018-07-14T07:04:33.000Z</time>
      </trkpt>
      <trkpt lat="46.18456" lon="2.82163">
        <ele>574.99</ele>
        <time>2018-07-14T07:04:34.000Z</time>
      </trkpt>
      <trkpt lat="46.18456" lon="2.82182">
        <ele>574.92</ele>
        <time>2018-07-14T07:04:35.000Z</time>
      </trkpt>
      <trkpt lat="46.18456" lon="2.822">
        <ele>574.85</ele>
        <time>2018-07-14T07:04:36.000Z</time>
      </trkpt>
      <trkpt lat="46.18455" lon="2.8222">
        <ele>574.67</ele>
        <time>2018-07-14T07:04:37.000Z</time>
      </trkpt>
      <trkpt lat="46.18453" lon="2.8224">
        <ele>574.38</ele>
        <time>2018-07-14T07:04:38.000Z</time>
      </trkpt>
      <trkpt lat="46.1845" lon="2.82259">
        <ele>574.1</ele>
        <time>2018-07-14T07:04:39.000Z</time>
      </trkpt>
      <trkpt lat="46.18447" lon="2.82279">
        <ele>573.15</ele>
        <time>2018-07-14T07:04:40.000Z</time>
      </trkpt>
      <trkpt lat="46.18443" lon="2.82298">
        <ele>572.4</ele>
        <time>2018-07-14T07:04:41.000Z</time>
      </trkpt>
      <trkpt lat="46.18438" lon="2.82317">
        <ele>571.77</ele>
        <time>2018-07-14T07:04:42.000Z</time>
      </trkpt>
      <trkpt lat="46.18433" lon="2.82336">
        <ele>571.13</ele>
        <time>2018-07-14T07:04:43.000Z</time>
      </trkpt>
      <trkpt lat="46.18428" lon="2.82354">
        <ele>570.74</ele>
        <time>2018-07-14T07:04:44.000Z</time>
      </trkpt>
      <trkpt lat="46.18423" lon="2.82371">
        <ele>570.29</ele>
        <time>2018-07-14T07:04:45.000Z</time>
      </trkpt>
      <trkpt lat="46.18417" lon="2.82389">
        <ele>569.86</ele>
        <time>2018-07-14T07:04:46.000Z</time>
      </trkpt>
      <trkpt lat="46.18412" lon="2.82406">
        <ele>569.5</ele>
        <time>2018-07-14T07:04:47.000Z</time>
      </trkpt>
      <trkpt lat="46.18406" lon="2.82423">
        <ele>569.13</ele>
        <time>2018-07-14T07:04:48.000Z</time>
      </trkpt>
      <trkpt lat="46.18401" lon="2.8244">
        <ele>568.64</ele>
        <time>2018-07-14T07:04:49.000Z</time>
      </trkpt>
      <trkpt lat="46.18396" lon="2.82456">
        <ele>568.32</ele>
        <time>2018-07-14T07:04:50.000Z</time>
      </trkpt>
      <trkpt lat="46.18391" lon="2.82472">
        <ele>567.97</ele>
        <time>2018-07-14T07:04:51.000Z</time>
      </trkpt>
      <trkpt lat="46.18385" lon="2.82488">
        <ele>567.45</ele>
        <time>2018-07-14T07:04:52.000Z</time>
      </trkpt>
      <trkpt lat="46.1838" lon="2.82504">
        <ele>566.8</ele>
        <time>2018-07-14T07:04:53.000Z</time>
      </trkpt>
      <trkpt lat="46.18375" lon="2.8252">
        <ele>566.19</ele>
        <time>2018-07-14T07:04:54.000Z</time>
      </trkpt>
      <trkpt lat="46.1837" lon="2.82535">
        <ele>565.65</ele>
        <time>2018-07-14T07:04:55.000Z</time>
      </trkpt>
      <trkpt lat="46.18365" lon="2.82551">
        <ele>564.99</ele>
        <time>2018-07-14T07:04:56.000Z</time>
      </trkpt>
      <trkpt lat="46.1836" lon="2.82566">
        <ele>564.33</ele>
        <time>2018-07-14T07:04:57.000Z</time>
      </trkpt>
      <trkpt lat="46.18356" lon="2.82581">
        <ele>563.8</ele>
        <time>2018-07-14T07:04:58.000Z</time>
      </trkpt>
      <trkpt lat="46.18351" lon="2.82596">
        <ele>563.27</ele>
        <time>2018-07-14T07:04:59.000Z</time>
      </trkpt>
      <trkpt lat="46.18346" lon="2.82611">
        <ele>562.78</ele>
        <time>2018-07-14T07:05:00.000Z</time>
      </trkpt>
      <trkpt lat="46.18341" lon="2.82625">
        <ele>562.11</ele>
        <time>2018-07-14T07:05:01.000Z</time>
      </trkpt>
      <trkpt lat="46.18336" lon="2.8264">
        <ele>561.57</ele>
        <time>2018-07-14T07:05:02.000Z</time>
      </trkpt>
      <trkpt lat="46.18331" lon="2.82654">
        <ele>561.03</ele>
        <time>2018-07-14T07:05:03.000Z</time>
      </trkpt>
      <trkpt lat="46.18326" lon="2.82668">
        <ele>560.6</ele>
        <time>2018-07-14T07:05:04.000Z</time>
      </trkpt>
      <trkpt lat="46.18321" lon="2.82682">
        <ele>560.16</ele>
        <time>2018-07-14T07:05:05.000Z</time>
      </trkpt>
      <trkpt lat="46.18317" lon="2.82696">
        <ele>559.68</ele>
        <time>2018-07-14T07:05:06.000Z</time>
      </trkpt>
      <trkpt lat="46.18312" lon="2.8271">
        <ele>559.24</ele>
        <time>2018-07-14T07:05:07.000Z</time>
      </trkpt>
      <trkpt lat="46.18307" lon="2.82724">
        <ele>558.86</ele>
        <time>2018-07-14T07:05:08.000Z</time>
      </trkpt>
      <trkpt lat="46.18303" lon="2.82739">
        <ele>558.55</ele>
        <time>2018-07-14T07:05:09.000Z</time>
      </trkpt>
      <trkpt lat="46.18298" lon="2.82752">
        <ele>558.24</ele>
        <time>2018-07-14T07:05:10.000Z</time>
      </trkpt>
      <trkpt lat="46.18294" lon="2.82766">
        <ele>557.84</ele>
        <time>2018-07-14T07:05:11.000Z</time>
      </trkpt>
      <trkpt lat="46.1829" lon="2.8278">
        <ele>557.37</ele>
        <time>2018-07-14T07:05:12.000Z</time>
      </trkpt>
      <trkpt lat="46.18285" lon="2.82793">
        <ele>557.06</ele>
        <time>2018-07-14T07:05:13.000Z</time>
      </trkpt>
      <trkpt lat="46.18281" lon="2.82806">
        <ele>556.77</ele>
        <time>2018-07-14T07:05:14.000Z</time>
      </trkpt>
      <trkpt lat="46.18276" lon="2.82819">
        <ele>556.48</ele>
        <time>2018-07-14T07:05:15.000Z</time>
      </trkpt>
      <trkpt lat="46.18272" lon="2.82832">
        <ele>556.23</ele>
        <time>2018-07-14T07:05:16.000Z</time>
      </trkpt>
      <trkpt lat="46.18267" lon="2.82845">
        <ele>555.89</ele>
        <time>2018-07-14T07:05:17.000Z</time>
      </trkpt>
      <trkpt lat="46.18262" lon="2.82858">
        <ele>555.6</ele>
        <time>2018-07-14T07:05:18.000Z</time>
      </trkpt>
      <trkpt lat="46.18258" lon="2.82871">
        <ele>555.32</ele>
        <time>2018-07-14T07:05:19.000Z</time>
      </trkpt>
      <trkpt lat="46.18253" lon="2.82884">
        <ele>555.15</ele>
        <time>2018-07-14T07:05:20.000Z</time>
      </trkpt>
      <trkpt lat="46.18249" lon="2.82896">
        <ele>555.01</ele>
        <time>2018-07-14T07:05:21.000Z</time>
      </trkpt>
      <trkpt lat="46.18245" lon="2.82909">
        <ele>554.79</ele>
        <time>2018-07-14T07:05:22.000Z</time>
      </trkpt>
      <trkpt lat="46.1824" lon="2.82922">
        <ele>554.57</ele>
        <time>2018-07-14T07:05:23.000Z</time>
      </trkpt>
      <trkpt lat="46.18236" lon="2.82934">
        <ele>554.32</ele>
        <time>2018-07-14T07:05:24.000Z</time>
      </trkpt>
      <trkpt lat="46.18232" lon="2.82947">
        <ele>554.06</ele>
        <time>2018-07-14T07:05:25.000Z</time>
      </trkpt>
      <trkpt lat="46.18227" lon="2.82961">
        <ele>553.67</ele>
        <time>2018-07-14T07:05:26.000Z</time>
      </trkpt>
      <trkpt lat="46.18223" lon="2.82973">
        <ele>553.55</ele>
        <time>2018-07-14T07:05:27.000Z</time>
      </trkpt>
      <trkpt lat="46.18219" lon="2.82986">
        <ele>553.25</ele>
        <time>2018-07-14T07:05:28.000Z</time>
      </trkpt>
      <trkpt lat="46.18215" lon="2.82999">
        <ele>553.12</ele>
        <time>2018-07-14T07:05:29.000Z</time>
      </trkpt>
      <trkpt lat="46.1821" lon="2.83011">
        <ele>552.99</ele>
        <time>2018-07-14T07:05:30.000Z</time>
      </trkpt>
      <trkpt lat="46.18206" lon="2.83024">
        <ele>552.83</ele>
        <time>2018-07-14T07:05:31.000Z</time>
      </trkpt>
      <trkpt lat="46.18201" lon="2.83036">
        <ele>552.78</ele>
        <time>2018-07-14T07:05:32.000Z</time>
      </trkpt>
      <trkpt lat="46.18197" lon="2.83048">
        <ele>552.65</ele>
        <time>2018-07-14T07:05:33.000Z</time>
      </trkpt>
      <trkpt lat="46.18193" lon="2.8306">
        <ele>552.4</ele>
        <time>2018-07-14T07:05:34.000Z</time>
      </trkpt>
      <trkpt lat="46.18189" lon="2.83073">
        <ele>552.1</ele>
        <time>2018-07-14T07:05:35.000Z</time>
      </trkpt>
      <trkpt lat="46.18184" lon="2.83086">
        <ele>551.88</ele>
        <time>2018-07-14T07:05:36.000Z</time>
      </trkpt>
      <trkpt lat="46.18181" lon="2.831">
        <ele>551.64</ele>
        <time>2018-07-14T07:05:37.000Z</time>
      </trkpt>
      <trkpt lat="46.18177" lon="2.83113">
        <ele>551.4</ele>
        <time>2018-07-14T07:05:38.000Z</time>
      </trkpt>
      <trkpt lat="46.18174" lon="2.83127">
        <ele>551.26</ele>
        <time>2018-07-14T07:05:39.000Z</time>
      </trkpt>
      <trkpt lat="46.18171" lon="2.83139">
        <ele>551.17</ele>
        <time>2018-07-14T07:05:40.000Z</time>
      </trkpt>
      <trkpt lat="46.18168" lon="2.83153">
        <ele>550.89</ele>
        <time>2018-07-14T07:05:41.000Z</time>
      </trkpt>
      <trkpt lat="46.18166" lon="2.83166">
        <ele>550.5</ele>
        <time>2018-07-14T07:05:42.000Z</time>
      </trkpt>
      <trkpt lat="46.18164" lon="2.8318">
        <ele>550.24</ele>
        <time>2018-07-14T07:05:43.000Z</time>
      </trkpt>
      <trkpt lat="46.18163" lon="2.83195">
        <ele>550.12</ele>
        <time>2018-07-14T07:05:44.000Z</time>
      </trkpt>
      <trkpt lat="46.18161" lon="2.83209">
        <ele>550</ele>
        <time>2018-07-14T07:05:45.000Z</time>
      </trkpt>
      <trkpt lat="46.18161" lon="2.83224">
        <ele>549.79</ele>
        <time>2018-07-14T07:05:46.000Z</time>
      </trkpt>
      <trkpt lat="46.1816" lon="2.83239">
        <ele>549.67</ele>
        <time>2018-07-14T07:05:47.000Z</time>
      </trkpt>
      <trkpt lat="46.1816" lon="2.83254">
        <ele>549.45</ele>
        <time>2018-07-14T07:05:48.000Z</time>
      </trkpt>
      <trkpt lat="46.1816" lon="2.83269">
        <ele>549.32</ele>
        <time>2018-07-14T07:05:49.000Z</time>
      </trkpt>
      <trkpt lat="46.18161" lon="2.83283">
        <ele>549.17</ele>
        <time>2018-07-14T07:05:50.000Z</time>
      </trkpt>
      <trkpt lat="46.18161" lon="2.83298">
        <ele>548.87</ele>
        <time>2018-07-14T07:05:51.000Z</time>
      </trkpt>
      <trkpt lat="46.18162" lon="2.83312">
        <ele>548.76</ele>
        <time>2018-07-14T07:05:52.000Z</time>
      </trkpt>
      <trkpt lat="46.18162" lon="2.83325">
        <ele>548.43</ele>
        <time>2018-07-14T07:05:53.000Z</time>
      </trkpt>
      <trkpt lat="46.18163" lon="2.83339">
        <ele>548.18</ele>
        <time>2018-07-14T07:05:54.000Z</time>
      </trkpt>
      <trkpt lat="46.18163" lon="2.83352">
        <ele>547.98</ele>
        <time>2018-07-14T07:05:55.000Z</time>
      </trkpt>
      <trkpt lat="46.18163" lon="2.83366">
        <ele>547.84</ele>
        <time>2018-07-14T07:05:56.000Z</time>
      </trkpt>
      <trkpt lat="46.18162" lon="2.8338">
        <ele>547.73</ele>
        <time>2018-07-14T07:05:57.000Z</time>
      </trkpt>
      <trkpt lat="46.18161" lon="2.83395">
        <ele>547.59</ele>
        <time>2018-07-14T07:05:58.000Z</time>
      </trkpt>
      <trkpt lat="46.18161" lon="2.83409">
        <ele>547.37</ele>
        <time>2018-07-14T07:05:59.000Z</time>
      </trkpt>
      <trkpt lat="46.1816" lon="2.83424">
        <ele>547.3</ele>
        <time>2018-07-14T07:06:00.000Z</time>
      </trkpt>
      <trkpt lat="46.18158" lon="2.83439">
        <ele>547.25</ele>
        <time>2018-07-14T07:06:01.000Z</time>
      </trkpt>
      <trkpt lat="46.18156" lon="2.83452">
        <ele>547.29</ele>
        <time>2018-07-14T07:06:02.000Z</time>
      </trkpt>
      <trkpt lat="46.18153" lon="2.83466">
        <ele>547.45</ele>
        <time>2018-07-14T07:06:03.000Z</time>
      </trkpt>
      <trkpt lat="46.18151" lon="2.8348">
        <ele>547.58</ele>
        <time>2018-07-14T07:06:04.000Z</time>
      </trkpt>
      <trkpt lat="46.18148" lon="2.83494">
        <ele>547.7</ele>
        <time>2018-07-14T07:06:05.000Z</time>
      </trkpt>
      <trkpt lat="46.18145" lon="2.83507">
        <ele>547.61</ele>
        <time>2018-07-14T07:06:06.000Z</time>
      </trkpt>
      <trkpt lat="46.1814" lon="2.83521">
        <ele>547.46</ele>
        <time>2018-07-14T07:06:07.000Z</time>
      </trkpt>
      <trkpt lat="46.18135" lon="2.83534">
        <ele>547.45</ele>
        <time>2018-07-14T07:06:08.000Z</time>
      </trkpt>
      <trkpt lat="46.1813" lon="2.83547">
        <ele>547.36</ele>
        <time>2018-07-14T07:06:09.000Z</time>
      </trkpt>
      <trkpt lat="46.18125" lon="2.83559">
        <ele>547.13</ele>
        <time>2018-07-14T07:06:10.000Z</time>
      </trkpt>
      <trkpt lat="46.18119" lon="2.83572">
        <ele>546.97</ele>
        <time>2018-07-14T07:06:11.000Z</time>
      </trkpt>
      <trkpt lat="46.18114" lon="2.83584">
        <ele>546.82</ele>
        <time>2018-07-14T07:06:12.000Z</time>
      </trkpt>
      <trkpt lat="46.18109" lon="2.83596">
        <ele>546.66</ele>
        <time>2018-07-14T07:06:13.000Z</time>
      </trkpt>
      <trkpt lat="46.18104" lon="2.83609">
        <ele>546.25</ele>
        <time>2018-07-14T07:06:14.000Z</time>
      </trkpt>
      <trkpt lat="46.18099" lon="2.83622">
        <ele>546.04</ele>
        <time>2018-07-14T07:06:15.000Z</time>
      </trkpt>
      <trkpt lat="46.18094" lon="2.83635">
        <ele>545.95</ele>
        <time>2018-07-14T07:06:16.000Z</time>
      </trkpt>
      <trkpt lat="46.18089" lon="2.83647">
        <ele>545.75</ele>
        <time>2018-07-14T07:06:17.000Z</time>
      </trkpt>
      <trkpt lat="46.18083" lon="2.8366">
        <ele>545.62</ele>
        <time>2018-07-14T07:06:18.000Z</time>
      </trkpt>
      <trkpt lat="46.18078" lon="2.83673">
        <ele>545.28</ele>
        <time>2018-07-14T07:06:19.000Z</time>
      </trkpt>
      <trkpt lat="46.18072" lon="2.83686">
        <ele>544.77</ele>
        <time>2018-07-14T07:06:20.000Z</time>
      </trkpt>
      <trkpt lat="46.18066" lon="2.83699">
        <ele>544.04</ele>
        <time>2018-07-14T07:06:21.000Z</time>
      </trkpt>
      <trkpt lat="46.18061" lon="2.83712">
        <ele>543.2</ele>
        <time>2018-07-14T07:06:22.000Z</time>
      </trkpt>
      <trkpt lat="46.18056" lon="2.83725">
        <ele>542.51</ele>
        <time>2018-07-14T07:06:23.000Z</time>
      </trkpt>
      <trkpt lat="46.1805" lon="2.83737">
        <ele>541.69</ele>
        <time>2018-07-14T07:06:24.000Z</time>
      </trkpt>
      <trkpt lat="46.18045" lon="2.83749">
        <ele>541.19</ele>
        <time>2018-07-14T07:06:25.000Z</time>
      </trkpt>
      <trkpt lat="46.18039" lon="2.83762">
        <ele>540.68</ele>
        <time>2018-07-14T07:06:26.000Z</time>
      </trkpt>
      <trkpt lat="46.18034" lon="2.83775">
        <ele>540.15</ele>
        <time>2018-07-14T07:06:27.000Z</time>
      </trkpt>
      <trkpt lat="46.18029" lon="2.83787">
        <ele>539.68</ele>
        <time>2018-07-14T07:06:28.000Z</time>
      </trkpt>
      <trkpt lat="46.18023" lon="2.838">
        <ele>539.49</ele>
        <time>2018-07-14T07:06:29.000Z</time>
      </trkpt>
      <trkpt lat="46.18018" lon="2.83812">
        <ele>539.32</ele>
        <time>2018-07-14T07:06:30.000Z</time>
      </trkpt>
      <trkpt lat="46.18012" lon="2.83824">
        <ele>539.01</ele>
        <time>2018-07-14T07:06:31.000Z</time>
      </trkpt>
      <trkpt lat="46.18007" lon="2.83836">
        <ele>538.59</ele>
        <time>2018-07-14T07:06:32.000Z</time>
      </trkpt>
      <trkpt lat="46.18002" lon="2.83849">
        <ele>538.13</ele>
        <time>2018-07-14T07:06:33.000Z</time>
      </trkpt>
      <trkpt lat="46.17997" lon="2.83861">
        <ele>538.01</ele>
        <time>2018-07-14T07:06:34.000Z</time>
      </trkpt>
      <trkpt lat="46.17991" lon="2.83873">
        <ele>537.69</ele>
        <time>2018-07-14T07:06:35.000Z</time>
      </trkpt>
      <trkpt lat="46.17986" lon="2.83886">
        <ele>537.43</ele>
        <time>2018-07-14T07:06:36.000Z</time>
      </trkpt>
      <trkpt lat="46.1798" lon="2.83897">
        <ele>537.12</ele>
        <time>2018-07-14T07:06:37.000Z</time>
      </trkpt>
      <trkpt lat="46.17975" lon="2.83909">
        <ele>536.94</ele>
        <time>2018-07-14T07:06:38.000Z</time>
      </trkpt>
      <trkpt lat="46.1797" lon="2.83921">
        <ele>536.69</ele>
        <time>2018-07-14T07:06:39.000Z</time>
      </trkpt>
      <trkpt lat="46.17964" lon="2.83932">
        <ele>536.38</ele>
        <time>2018-07-14T07:06:40.000Z</time>
      </trkpt>
      <trkpt lat="46.17958" lon="2.83944">
        <ele>536.3</ele>
        <time>2018-07-14T07:06:41.000Z</time>
      </trkpt>
      <trkpt lat="46.17952" lon="2.83956">
        <ele>536.24</ele>
        <time>2018-07-14T07:06:42.000Z</time>
      </trkpt>
      <trkpt lat="46.17947" lon="2.83968">
        <ele>535.97</ele>
        <time>2018-07-14T07:06:43.000Z</time>
      </trkpt>
      <trkpt lat="46.17941" lon="2.8398">
        <ele>535.58</ele>
        <time>2018-07-14T07:06:44.000Z</time>
      </trkpt>
      <trkpt lat="46.17936" lon="2.83992">
        <ele>535.32</ele>
        <time>2018-07-14T07:06:45.000Z</time>
      </trkpt>
      <trkpt lat="46.1793" lon="2.84005">
        <ele>535.06</ele>
        <time>2018-07-14T07:06:46.000Z</time>
      </trkpt>
      <trkpt lat="46.17924" lon="2.84015">
        <ele>535.6</ele>
        <time>2018-07-14T07:06:47.000Z</time>
      </trkpt>
      <trkpt lat="46.17918" lon="2.84025">
        <ele>535.62</ele>
        <time>2018-07-14T07:06:48.000Z</time>
      </trkpt>
      <trkpt lat="46.17912" lon="2.84034">
        <ele>535.76</ele>
        <time>2018-07-14T07:06:49.000Z</time>
      </trkpt>
      <trkpt lat="46.17898" lon="2.84046">
        <ele>535.95</ele>
        <time>2018-07-14T07:06:51.000Z</time>
      </trkpt>
      <trkpt lat="46.17881" lon="2.84045">
        <ele>535.95</ele>
        <time>2018-07-14T07:06:53.000Z</time>
      </trkpt>
      <trkpt lat="46.17872" lon="2.84039">
        <ele>536.51</ele>
        <time>2018-07-14T07:06:54.000Z</time>
      </trkpt>
      <trkpt lat="46.17864" lon="2.84035">
        <ele>536.42</ele>
        <time>2018-07-14T07:06:55.000Z</time>
      </trkpt>
      <trkpt lat="46.17848" lon="2.84026">
        <ele>536.11</ele>
        <time>2018-07-14T07:06:57.000Z</time>
      </trkpt>
      <trkpt lat="46.17835" lon="2.84019">
        <ele>535.52</ele>
        <time>2018-07-14T07:06:59.000Z</time>
      </trkpt>
      <trkpt lat="46.17826" lon="2.84015">
        <ele>534.79</ele>
        <time>2018-07-14T07:07:01.000Z</time>
      </trkpt>
      <trkpt lat="46.17816" lon="2.84013">
        <ele>534.26</ele>
        <time>2018-07-14T07:07:03.000Z</time>
      </trkpt>
      <trkpt lat="46.17806" lon="2.84009">
        <ele>533.62</ele>
        <time>2018-07-14T07:07:06.000Z</time>
      </trkpt>
      <trkpt lat="46.17795" lon="2.84002">
        <ele>533.03</ele>
        <time>2018-07-14T07:07:09.000Z</time>
      </trkpt>
      <trkpt lat="46.17783" lon="2.83998">
        <ele>532.36</ele>
        <time>2018-07-14T07:07:12.000Z</time>
      </trkpt>
      <trkpt lat="46.17772" lon="2.83994">
        <ele>531.49</ele>
        <time>2018-07-14T07:07:15.000Z</time>
      </trkpt>
      <trkpt lat="46.17761" lon="2.83993">
        <ele>530.8</ele>
        <time>2018-07-14T07:07:18.000Z</time>
      </trkpt>
      <trkpt lat="46.17751" lon="2.83989">
        <ele>529.87</ele>
        <time>2018-07-14T07:07:22.000Z</time>
      </trkpt>
      <trkpt lat="46.17741" lon="2.83987">
        <ele>530.16</ele>
        <time>2018-07-14T07:07:25.000Z</time>
      </trkpt>
      <trkpt lat="46.1773" lon="2.83982">
        <ele>531.23</ele>
        <time>2018-07-14T07:07:28.000Z</time>
      </trkpt>
      <trkpt lat="46.17721" lon="2.83976">
        <ele>533.69</ele>
        <time>2018-07-14T07:07:31.000Z</time>
      </trkpt>
      <trkpt lat="46.17711" lon="2.83975">
        <ele>534.97</ele>
        <time>2018-07-14T07:07:33.000Z</time>
      </trkpt>
      <trkpt lat="46.17698" lon="2.83974">
        <ele>535.89</ele>
        <time>2018-07-14T07:07:36.000Z</time>
      </trkpt>
      <trkpt lat="46.17686" lon="2.83974">
        <ele>536.63</ele>
        <time>2018-07-14T07:07:38.000Z</time>
      </trkpt>
      <trkpt lat="46.17675" lon="2.83975">
        <ele>536.57</ele>
        <time>2018-07-14T07:07:40.000Z</time>
      </trkpt>
      <trkpt lat="46.17664" lon="2.83975">
        <ele>537.2</ele>
        <time>2018-07-14T07:07:42.000Z</time>
      </trkpt>
      <trkpt lat="46.17653" lon="2.83977">
        <ele>537.05</ele>
        <time>2018-07-14T07:07:44.000Z</time>
      </trkpt>
      <trkpt lat="46.17641" lon="2.83979">
        <ele>536.92</ele>
        <time>2018-07-14T07:07:46.000Z</time>
      </trkpt>
      <trkpt lat="46.17627" lon="2.83982">
        <ele>537.17</ele>
        <time>2018-07-14T07:07:48.000Z</time>
      </trkpt>
      <trkpt lat="46.17612" lon="2.83984">
        <ele>537.36</ele>
        <time>2018-07-14T07:07:50.000Z</time>
      </trkpt>
      <trkpt lat="46.17599" lon="2.83985">
        <ele>537.7</ele>
        <time>2018-07-14T07:07:52.000Z</time>
      </trkpt>
      <trkpt lat="46.17585" lon="2.83985">
        <ele>538.13</ele>
        <time>2018-07-14T07:07:54.000Z</time>
      </trkpt>
      <trkpt lat="46.17569" lon="2.83983">
        <ele>538.83</ele>
        <time>2018-07-14T07:07:56.000Z</time>
      </trkpt>
      <trkpt lat="46.17559" lon="2.83982">
        <ele>539.46</ele>
        <time>2018-07-14T07:07:57.000Z</time>
      </trkpt>
      <trkpt lat="46.17548" lon="2.8398">
        <ele>539.89</ele>
        <time>2018-07-14T07:07:58.000Z</time>
      </trkpt>
      <trkpt lat="46.17537" lon="2.83977">
        <ele>540.66</ele>
        <time>2018-07-14T07:07:59.000Z</time>
      </trkpt>
      <trkpt lat="46.17527" lon="2.83974">
        <ele>542.08</ele>
        <time>2018-07-14T07:08:00.000Z</time>
      </trkpt>
      <trkpt lat="46.17519" lon="2.8397">
        <ele>543.33</ele>
        <time>2018-07-14T07:08:01.000Z</time>
      </trkpt>
      <trkpt lat="46.17503" lon="2.8396">
        <ele>544.48</ele>
        <time>2018-07-14T07:08:03.000Z</time>
      </trkpt>
      <trkpt lat="46.17494" lon="2.83954">
        <ele>545.39</ele>
        <time>2018-07-14T07:08:04.000Z</time>
      </trkpt>
      <trkpt lat="46.17486" lon="2.83949">
        <ele>546.4</ele>
        <time>2018-07-14T07:08:05.000Z</time>
      </trkpt>
      <trkpt lat="46.17471" lon="2.83938">
        <ele>547.45</ele>
        <time>2018-07-14T07:08:07.000Z</time>
      </trkpt>
      <trkpt lat="46.17458" lon="2.83928">
        <ele>547.71</ele>
        <time>2018-07-14T07:08:09.000Z</time>
      </trkpt>
      <trkpt lat="46.17448" lon="2.83918">
        <ele>547.57</ele>
        <time>2018-07-14T07:08:11.000Z</time>
      </trkpt>
      <trkpt lat="46.17438" lon="2.83908">
        <ele>547.61</ele>
        <time>2018-07-14T07:08:13.000Z</time>
      </trkpt>
      <trkpt lat="46.17427" lon="2.83899">
        <ele>548.22</ele>
        <time>2018-07-14T07:08:15.000Z</time>
      </trkpt>
      <trkpt lat="46.17419" lon="2.8389">
        <ele>549.27</ele>
        <time>2018-07-14T07:08:17.000Z</time>
      </trkpt>
      <trkpt lat="46.17411" lon="2.8388">
        <ele>550.27</ele>
        <time>2018-07-14T07:08:19.000Z</time>
      </trkpt>
      <trkpt lat="46.17403" lon="2.8387">
        <ele>551.38</ele>
        <time>2018-07-14T07:08:21.000Z</time>
      </trkpt>
      <trkpt lat="46.17395" lon="2.8386">
        <ele>551.89</ele>
        <time>2018-07-14T07:08:23.000Z</time>
      </trkpt>
      <trkpt lat="46.17387" lon="2.83849">
        <ele>552.44</ele>
        <time>2018-07-14T07:08:25.000Z</time>
      </trkpt>
      <trkpt lat="46.17379" lon="2.83841">
        <ele>553.22</ele>
        <time>2018-07-14T07:08:27.000Z</time>
      </trkpt>
      <trkpt lat="46.17371" lon="2.83832">
        <ele>553.17</ele>
        <time>2018-07-14T07:08:29.000Z</time>
      </trkpt>
      <trkpt lat="46.17361" lon="2.8382">
        <ele>553.85</ele>
        <time>2018-07-14T07:08:32.000Z</time>
      </trkpt>
      <trkpt lat="46.17351" lon="2.8381">
        <ele>554.2</ele>
        <time>2018-07-14T07:08:35.000Z</time>
      </trkpt>
      <trkpt lat="46.1734" lon="2.838">
        <ele>554.88</ele>
        <time>2018-07-14T07:08:38.000Z</time>
      </trkpt>
      <trkpt lat="46.1733" lon="2.8379">
        <ele>555.87</ele>
        <time>2018-07-14T07:08:41.000Z</time>
      </trkpt>
      <trkpt lat="46.17321" lon="2.83777">
        <ele>556.79</ele>
        <time>2018-07-14T07:08:44.000Z</time>
      </trkpt>
      <trkpt lat="46.17311" lon="2.83764">
        <ele>557.76</ele>
        <time>2018-07-14T07:08:47.000Z</time>
      </trkpt>
      <trkpt lat="46.17302" lon="2.83751">
        <ele>558.42</ele>
        <time>2018-07-14T07:08:50.000Z</time>
      </trkpt>
      <trkpt lat="46.17296" lon="2.83735">
        <ele>559.19</ele>
        <time>2018-07-14T07:08:53.000Z</time>
      </trkpt>
      <trkpt lat="46.17291" lon="2.83723">
        <ele>559.82</ele>
        <time>2018-07-14T07:08:55.000Z</time>
      </trkpt>
      <trkpt lat="46.17287" lon="2.83709">
        <ele>560.24</ele>
        <time>2018-07-14T07:08:57.000Z</time>
      </trkpt>
      <trkpt lat="46.17284" lon="2.83696">
        <ele>561.07</ele>
        <time>2018-07-14T07:08:59.000Z</time>
      </trkpt>
      <trkpt lat="46.17278" lon="2.83684">
        <ele>561.77</ele>
        <time>2018-07-14T07:09:01.000Z</time>
      </trkpt>
      <trkpt lat="46.17271" lon="2.83674">
        <ele>562.24</ele>
        <time>2018-07-14T07:09:03.000Z</time>
      </trkpt>
      <trkpt lat="46.17264" lon="2.83665">
        <ele>562.63</ele>
        <time>2018-07-14T07:09:05.000Z</time>
      </trkpt>
      <trkpt lat="46.17256" lon="2.83655">
        <ele>562.46</ele>
        <time>2018-07-14T07:09:07.000Z</time>
      </trkpt>
      <trkpt lat="46.17249" lon="2.83646">
        <ele>561.81</ele>
        <time>2018-07-14T07:09:09.000Z</time>
      </trkpt>
      <trkpt lat="46.17241" lon="2.83636">
        <ele>561.2</ele>
        <time>2018-07-14T07:09:11.000Z</time>
      </trkpt>
      <trkpt lat="46.17233" lon="2.83625">
        <ele>561.02</ele>
        <time>2018-07-14T07:09:13.000Z</time>
      </trkpt>
      <trkpt lat="46.17225" lon="2.83615">
        <ele>561.28</ele>
        <time>2018-07-14T07:09:15.000Z</time>
      </trkpt>
      <trkpt lat="46.17216" lon="2.83605">
        <ele>561.72</ele>
        <time>2018-07-14T07:09:17.000Z</time>
      </trkpt>
      <trkpt lat="46.17208" lon="2.83595">
        <ele>562.13</ele>
        <time>2018-07-14T07:09:19.000Z</time>
      </trkpt>
      <trkpt lat="46.17201" lon="2.83584">
        <ele>562.55</ele>
        <time>2018-07-14T07:09:21.000Z</time>
      </trkpt>
      <trkpt lat="46.17193" lon="2.83574">
        <ele>562.84</ele>
        <time>2018-07-14T07:09:23.000Z</time>
      </trkpt>
      <trkpt lat="46.17185" lon="2.83564">
        <ele>563.03</ele>
        <time>2018-07-14T07:09:25.000Z</time>
      </trkpt>
      <trkpt lat="46.17178" lon="2.83554">
        <ele>563.51</ele>
        <time>2018-07-14T07:09:27.000Z</time>
      </trkpt>
      <trkpt lat="46.1717" lon="2.83544">
        <ele>564.55</ele>
        <time>2018-07-14T07:09:29.000Z</time>
      </trkpt>
      <trkpt lat="46.17162" lon="2.83532">
        <ele>565.29</ele>
        <time>2018-07-14T07:09:31.000Z</time>
      </trkpt>
      <trkpt lat="46.17153" lon="2.83518">
        <ele>565.45</ele>
        <time>2018-07-14T07:09:32.999Z</time>
      </trkpt>
      <trkpt lat="46.17144" lon="2.83504">
        <ele>565.49</ele>
        <time>2018-07-14T07:09:35.000Z</time>
      </trkpt>
      <trkpt lat="46.17134" lon="2.83493">
        <ele>565.54</ele>
        <time>2018-07-14T07:09:37.000Z</time>
      </trkpt>
      <trkpt lat="46.17122" lon="2.83481">
        <ele>565.11</ele>
        <time>2018-07-14T07:09:39.000Z</time>
      </trkpt>
      <trkpt lat="46.17109" lon="2.83471">
        <ele>564.77</ele>
        <time>2018-07-14T07:09:41.000Z</time>
      </trkpt>
      <trkpt lat="46.17095" lon="2.83465">
        <ele>564.36</ele>
        <time>2018-07-14T07:09:43.000Z</time>
      </trkpt>
      <trkpt lat="46.1708" lon="2.83463">
        <ele>564.24</ele>
        <time>2018-07-14T07:09:45.000Z</time>
      </trkpt>
      <trkpt lat="46.17064" lon="2.83458">
        <ele>563.6</ele>
        <time>2018-07-14T07:09:47.000Z</time>
      </trkpt>
      <trkpt lat="46.17048" lon="2.83451">
        <ele>563.65</ele>
        <time>2018-07-14T07:09:49.000Z</time>
      </trkpt>
      <trkpt lat="46.1703" lon="2.83442">
        <ele>563.32</ele>
        <time>2018-07-14T07:09:51.000Z</time>
      </trkpt>
      <trkpt lat="46.17021" lon="2.83437">
        <ele>563.21</ele>
        <time>2018-07-14T07:09:52.000Z</time>
      </trkpt>
      <trkpt lat="46.17012" lon="2.83432">
        <ele>562.81</ele>
        <time>2018-07-14T07:09:53.000Z</time>
      </trkpt>
      <trkpt lat="46.17002" lon="2.83428">
        <ele>562.45</ele>
        <time>2018-07-14T07:09:54.000Z</time>
      </trkpt>
      <trkpt lat="46.16992" lon="2.83425">
        <ele>562.13</ele>
        <time>2018-07-14T07:09:55.000Z</time>
      </trkpt>
      <trkpt lat="46.16981" lon="2.83425">
        <ele>562.05</ele>
        <time>2018-07-14T07:09:56.000Z</time>
      </trkpt>
      <trkpt lat="46.1697" lon="2.83424">
        <ele>561.97</ele>
        <time>2018-07-14T07:09:57.000Z</time>
      </trkpt>
      <trkpt lat="46.1696" lon="2.83423">
        <ele>561.89</ele>
        <time>2018-07-14T07:09:58.000Z</time>
      </trkpt>
      <trkpt lat="46.1695" lon="2.83421">
        <ele>561.88</ele>
        <time>2018-07-14T07:09:59.000Z</time>
      </trkpt>
      <trkpt lat="46.16938" lon="2.83418">
        <ele>562.28</ele>
        <time>2018-07-14T07:10:00.000Z</time>
      </trkpt>
      <trkpt lat="46.16928" lon="2.83412">
        <ele>561.74</ele>
        <time>2018-07-14T07:10:01.000Z</time>
      </trkpt>
      <trkpt lat="46.1692" lon="2.83403">
        <ele>561.25</ele>
        <time>2018-07-14T07:10:02.000Z</time>
      </trkpt>
      <trkpt lat="46.16913" lon="2.83394">
        <ele>560.98</ele>
        <time>2018-07-14T07:10:03.000Z</time>
      </trkpt>
      <trkpt lat="46.169" lon="2.83378">
        <ele>560.54</ele>
        <time>2018-07-14T07:10:05.000Z</time>
      </trkpt>
      <trkpt lat="46.1689" lon="2.83364">
        <ele>560.63</ele>
        <time>2018-07-14T07:10:07.000Z</time>
      </trkpt>
      <trkpt lat="46.16881" lon="2.83351">
        <ele>560.67</ele>
        <time>2018-07-14T07:10:09.000Z</time>
      </trkpt>
      <trkpt lat="46.16872" lon="2.83342">
        <ele>560.16</ele>
        <time>2018-07-14T07:10:11.000Z</time>
      </trkpt>
      <trkpt lat="46.16864" lon="2.83333">
        <ele>559.73</ele>
        <time>2018-07-14T07:10:13.000Z</time>
      </trkpt>
      <trkpt lat="46.16857" lon="2.83323">
        <ele>559.37</ele>
        <time>2018-07-14T07:10:15.000Z</time>
      </trkpt>
      <trkpt lat="46.16847" lon="2.83312">
        <ele>558.7</ele>
        <time>2018-07-14T07:10:18.000Z</time>
      </trkpt>
      <trkpt lat="46.16836" lon="2.83301">
        <ele>557.82</ele>
        <time>2018-07-14T07:10:21.000Z</time>
      </trkpt>
      <trkpt lat="46.16825" lon="2.83289">
        <ele>556.89</ele>
        <time>2018-07-14T07:10:24.000Z</time>
      </trkpt>
      <trkpt lat="46.16818" lon="2.8328">
        <ele>556.04</ele>
        <time>2018-07-14T07:10:26.000Z</time>
      </trkpt>
      <trkpt lat="46.1681" lon="2.83272">
        <ele>555.43</ele>
        <time>2018-07-14T07:10:28.000Z</time>
      </trkpt>
      <trkpt lat="46.16802" lon="2.83264">
        <ele>555.06</ele>
        <time>2018-07-14T07:10:30.000Z</time>
      </trkpt>
      <trkpt lat="46.16793" lon="2.83252">
        <ele>554.95</ele>
        <time>2018-07-14T07:10:33.000Z</time>
      </trkpt>
      <trkpt lat="46.16784" lon="2.8324">
        <ele>554.75</ele>
        <time>2018-07-14T07:10:36.000Z</time>
      </trkpt>
      <trkpt lat="46.16777" lon="2.83228">
        <ele>555.38</ele>
        <time>2018-07-14T07:10:39.000Z</time>
      </trkpt>
      <trkpt lat="46.16769" lon="2.83214">
        <ele>556.3</ele>
        <time>2018-07-14T07:10:42.000Z</time>
      </trkpt>
      <trkpt lat="46.16761" lon="2.83201">
        <ele>557.07</ele>
        <time>2018-07-14T07:10:45.000Z</time>
      </trkpt>
      <trkpt lat="46.16752" lon="2.83192">
        <ele>557.36</ele>
        <time>2018-07-14T07:10:48.000Z</time>
      </trkpt>
      <trkpt lat="46.16742" lon="2.83179">
        <ele>557.83</ele>
        <time>2018-07-14T07:10:51.000Z</time>
      </trkpt>
      <trkpt lat="46.16734" lon="2.83168">
        <ele>558.22</ele>
        <time>2018-07-14T07:10:54.000Z</time>
      </trkpt>
      <trkpt lat="46.16731" lon="2.83154">
        <ele>559.47</ele>
        <time>2018-07-14T07:10:58.000Z</time>
      </trkpt>
      <trkpt lat="46.16725" lon="2.8314">
        <ele>560.4</ele>
        <time>2018-07-14T07:11:02.000Z</time>
      </trkpt>
      <trkpt lat="46.16712" lon="2.83139">
        <ele>560.87</ele>
        <time>2018-07-14T07:11:05.000Z</time>
      </trkpt>
      <trkpt lat="46.167" lon="2.83143">
        <ele>561.56</ele>
        <time>2018-07-14T07:11:07.000Z</time>
      </trkpt>
      <trkpt lat="46.16689" lon="2.83148">
        <ele>562.3</ele>
        <time>2018-07-14T07:11:09.000Z</time>
      </trkpt>
      <trkpt lat="46.1668" lon="2.8315">
        <ele>562.56</ele>
        <time>2018-07-14T07:11:11.000Z</time>
      </trkpt>
      <trkpt lat="46.16666" lon="2.83158">
        <ele>563.64</ele>
        <time>2018-07-14T07:11:14.000Z</time>
      </trkpt>
      <trkpt lat="46.16657" lon="2.83165">
        <ele>564.45</ele>
        <time>2018-07-14T07:11:16.000Z</time>
      </trkpt>
      <trkpt lat="46.16641" lon="2.83173">
        <ele>565.47</ele>
        <time>2018-07-14T07:11:18.000Z</time>
      </trkpt>
      <trkpt lat="46.1663" lon="2.83177">
        <ele>565.91</ele>
        <time>2018-07-14T07:11:20.000Z</time>
      </trkpt>
      <trkpt lat="46.1662" lon="2.83182">
        <ele>566.77</ele>
        <time>2018-07-14T07:11:22.000Z</time>
      </trkpt>
      <trkpt lat="46.16608" lon="2.83186">
        <ele>567.52</ele>
        <time>2018-07-14T07:11:24.000Z</time>
      </trkpt>
      <trkpt lat="46.16596" lon="2.83191">
        <ele>568.47</ele>
        <time>2018-07-14T07:11:26.000Z</time>
      </trkpt>
      <trkpt lat="46.16585" lon="2.83196">
        <ele>569.53</ele>
        <time>2018-07-14T07:11:28.000Z</time>
      </trkpt>
      <trkpt lat="46.16571" lon="2.83199">
        <ele>570.44</ele>
        <time>2018-07-14T07:11:30.000Z</time>
      </trkpt>
      <trkpt lat="46.16559" lon="2.83204">
        <ele>570.08</ele>
        <time>2018-07-14T07:11:32.000Z</time>
      </trkpt>
      <trkpt lat="46.16548" lon="2.83211">
        <ele>570.26</ele>
        <time>2018-07-14T07:11:34.000Z</time>
      </trkpt>
      <trkpt lat="46.16535" lon="2.83217">
        <ele>569.95</ele>
        <time>2018-07-14T07:11:36.000Z</time>
      </trkpt>
      <trkpt lat="46.16524" lon="2.83223">
        <ele>569.96</ele>
        <time>2018-07-14T07:11:38.000Z</time>
      </trkpt>
      <trkpt lat="46.16514" lon="2.83228">
        <ele>570.26</ele>
        <time>2018-07-14T07:11:40.000Z</time>
      </trkpt>
      <trkpt lat="46.16505" lon="2.83234">
        <ele>570.4</ele>
        <time>2018-07-14T07:11:42.000Z</time>
      </trkpt>
      <trkpt lat="46.16494" lon="2.83241">
        <ele>570.5</ele>
        <time>2018-07-14T07:11:44.000Z</time>
      </trkpt>
      <trkpt lat="46.16478" lon="2.8325">
        <ele>570.73</ele>
        <time>2018-07-14T07:11:46.000Z</time>
      </trkpt>
      <trkpt lat="46.16461" lon="2.83259">
        <ele>570.83</ele>
        <time>2018-07-14T07:11:48.000Z</time>
      </trkpt>
      <trkpt lat="46.16446" lon="2.83267">
        <ele>571.22</ele>
        <time>2018-07-14T07:11:50.000Z</time>
      </trkpt>
      <trkpt lat="46.16437" lon="2.83272">
        <ele>571.62</ele>
        <time>2018-07-14T07:11:51.000Z</time>
      </trkpt>
      <trkpt lat="46.16429" lon="2.83276">
        <ele>571.77</ele>
        <time>2018-07-14T07:11:52.000Z</time>
      </trkpt>
      <trkpt lat="46.16419" lon="2.8328">
        <ele>571.51</ele>
        <time>2018-07-14T07:11:53.000Z</time>
      </trkpt>
      <trkpt lat="46.1641" lon="2.83284">
        <ele>571.53</ele>
        <time>2018-07-14T07:11:54.000Z</time>
      </trkpt>
      <trkpt lat="46.16401" lon="2.83288">
        <ele>571.24</ele>
        <time>2018-07-14T07:11:55.000Z</time>
      </trkpt>
      <trkpt lat="46.16391" lon="2.83292">
        <ele>571.1</ele>
        <time>2018-07-14T07:11:56.000Z</time>
      </trkpt>
      <trkpt lat="46.16382" lon="2.83296">
        <ele>570.16</ele>
        <time>2018-07-14T07:11:57.000Z</time>
      </trkpt>
      <trkpt lat="46.16365" lon="2.83302">
        <ele>569.36</ele>
        <time>2018-07-14T07:11:59.000Z</time>
      </trkpt>
      <trkpt lat="46.16348" lon="2.83309">
        <ele>568.69</ele>
        <time>2018-07-14T07:12:01.000Z</time>
      </trkpt>
      <trkpt lat="46.16331" lon="2.83317">
        <ele>568.27</ele>
        <time>2018-07-14T07:12:03.000Z</time>
      </trkpt>
      <trkpt lat="46.16315" lon="2.83325">
        <ele>567.68</ele>
        <time>2018-07-14T07:12:05.000Z</time>
      </trkpt>
      <trkpt lat="46.163" lon="2.83332">
        <ele>567.59</ele>
        <time>2018-07-14T07:12:07.000Z</time>
      </trkpt>
      <trkpt lat="46.16285" lon="2.83339">
        <ele>568.1</ele>
        <time>2018-07-14T07:12:09.000Z</time>
      </trkpt>
      <trkpt lat="46.16272" lon="2.83345">
        <ele>568.8</ele>
        <time>2018-07-14T07:12:11.000Z</time>
      </trkpt>
      <trkpt lat="46.16261" lon="2.83352">
        <ele>568.49</ele>
        <time>2018-07-14T07:12:13.000Z</time>
      </trkpt>
      <trkpt lat="46.1625" lon="2.83357">
        <ele>567.09</ele>
        <time>2018-07-14T07:12:16.000Z</time>
      </trkpt>
      <trkpt lat="46.16241" lon="2.83361">
        <ele>565.93</ele>
        <time>2018-07-14T07:12:19.000Z</time>
      </trkpt>
      <trkpt lat="46.16232" lon="2.83369">
        <ele>566.01</ele>
        <time>2018-07-14T07:12:23.000Z</time>
      </trkpt>
      <trkpt lat="46.16221" lon="2.83375">
        <ele>566.27</ele>
        <time>2018-07-14T07:12:26.000Z</time>
      </trkpt>
      <trkpt lat="46.16211" lon="2.83379">
        <ele>565.47</ele>
        <time>2018-07-14T07:12:28.000Z</time>
      </trkpt>
      <trkpt lat="46.16199" lon="2.83383">
        <ele>563.38</ele>
        <time>2018-07-14T07:12:31.000Z</time>
      </trkpt>
      <trkpt lat="46.16187" lon="2.8339">
        <ele>561.54</ele>
        <time>2018-07-14T07:12:34.000Z</time>
      </trkpt>
      <trkpt lat="46.16176" lon="2.83396">
        <ele>561.63</ele>
        <time>2018-07-14T07:12:37.000Z</time>
      </trkpt>
      <trkpt lat="46.16165" lon="2.83401">
        <ele>562.17</ele>
        <time>2018-07-14T07:12:40.000Z</time>
      </trkpt>
      <trkpt lat="46.16156" lon="2.83405">
        <ele>563.33</ele>
        <time>2018-07-14T07:12:43.000Z</time>
      </trkpt>
      <trkpt lat="46.16146" lon="2.83407">
        <ele>564.03</ele>
        <time>2018-07-14T07:12:46.000Z</time>
      </trkpt>
      <trkpt lat="46.16137" lon="2.83412">
        <ele>565.15</ele>
        <time>2018-07-14T07:12:49.000Z</time>
      </trkpt>
      <trkpt lat="46.16128" lon="2.83416">
        <ele>566.85</ele>
        <time>2018-07-14T07:12:53.000Z</time>
      </trkpt>
      <trkpt lat="46.16119" lon="2.8342">
        <ele>567.36</ele>
        <time>2018-07-14T07:12:57.000Z</time>
      </trkpt>
      <trkpt lat="46.1611" lon="2.83422">
        <ele>565.84</ele>
        <time>2018-07-14T07:13:03.000Z</time>
      </trkpt>
      <trkpt lat="46.16099" lon="2.83426">
        <ele>563.89</ele>
        <time>2018-07-14T07:13:08.000Z</time>
      </trkpt>
      <trkpt lat="46.1609" lon="2.83431">
        <ele>563.26</ele>
        <time>2018-07-14T07:13:11.000Z</time>
      </trkpt>
      <trkpt lat="46.1608" lon="2.83436">
        <ele>563.4</ele>
        <time>2018-07-14T07:13:14.000Z</time>
      </trkpt>
      <trkpt lat="46.1607" lon="2.83442">
        <ele>564.04</ele>
        <time>2018-07-14T07:13:17.000Z</time>
      </trkpt>
      <trkpt lat="46.16058" lon="2.83447">
        <ele>564.81</ele>
        <time>2018-07-14T07:13:21.000Z</time>
      </trkpt>
      <trkpt lat="46.16048" lon="2.83454">
        <ele>565.6</ele>
        <time>2018-07-14T07:13:24.000Z</time>
      </trkpt>
      <trkpt lat="46.16038" lon="2.8346">
        <ele>565.92</ele>
        <time>2018-07-14T07:13:26.000Z</time>
      </trkpt>
      <trkpt lat="46.16026" lon="2.83467">
        <ele>566.69</ele>
        <time>2018-07-14T07:13:28.000Z</time>
      </trkpt>
      <trkpt lat="46.16011" lon="2.83473">
        <ele>566.85</ele>
        <time>2018-07-14T07:13:30.000Z</time>
      </trkpt>
      <trkpt lat="46.15998" lon="2.83478">
        <ele>566.89</ele>
        <time>2018-07-14T07:13:32.000Z</time>
      </trkpt>
      <trkpt lat="46.15984" lon="2.83483">
        <ele>566.69</ele>
        <time>2018-07-14T07:13:34.000Z</time>
      </trkpt>
      <trkpt lat="46.15968" lon="2.83489">
        <ele>565.93</ele>
        <time>2018-07-14T07:13:36.000Z</time>
      </trkpt>
      <trkpt lat="46.15953" lon="2.83495">
        <ele>566.38</ele>
        <time>2018-07-14T07:13:38.000Z</time>
      </trkpt>
      <trkpt lat="46.15933" lon="2.83504">
        <ele>567.14</ele>
        <time>2018-07-14T07:13:41.000Z</time>
      </trkpt>
      <trkpt lat="46.15922" lon="2.83509">
        <ele>567.71</ele>
        <time>2018-07-14T07:13:43.000Z</time>
      </trkpt>
      <trkpt lat="46.15912" lon="2.83516">
        <ele>567.68</ele>
        <time>2018-07-14T07:13:45.000Z</time>
      </trkpt>
      <trkpt lat="46.15897" lon="2.83523">
        <ele>567.37</ele>
        <time>2018-07-14T07:13:47.000Z</time>
      </trkpt>
      <trkpt lat="46.15881" lon="2.83528">
        <ele>566.87</ele>
        <time>2018-07-14T07:13:49.000Z</time>
      </trkpt>
      <trkpt lat="46.15864" lon="2.83526">
        <ele>565.76</ele>
        <time>2018-07-14T07:13:51.000Z</time>
      </trkpt>
      <trkpt lat="46.15849" lon="2.83527">
        <ele>564.67</ele>
        <time>2018-07-14T07:13:53.000Z</time>
      </trkpt>
      <trkpt lat="46.15838" lon="2.83537">
        <ele>562.52</ele>
        <time>2018-07-14T07:13:55.000Z</time>
      </trkpt>
      <trkpt lat="46.15829" lon="2.8355">
        <ele>561.39</ele>
        <time>2018-07-14T07:13:57.000Z</time>
      </trkpt>
      <trkpt lat="46.15816" lon="2.83561">
        <ele>559.92</ele>
        <time>2018-07-14T07:13:59.000Z</time>
      </trkpt>
      <trkpt lat="46.158" lon="2.8357">
        <ele>558.28</ele>
        <time>2018-07-14T07:14:01.000Z</time>
      </trkpt>
      <trkpt lat="46.15784" lon="2.83577">
        <ele>556.87</ele>
        <time>2018-07-14T07:14:03.000Z</time>
      </trkpt>
      <trkpt lat="46.15768" lon="2.83585">
        <ele>555.52</ele>
        <time>2018-07-14T07:14:05.000Z</time>
      </trkpt>
      <trkpt lat="46.15754" lon="2.83592">
        <ele>554.57</ele>
        <time>2018-07-14T07:14:07.000Z</time>
      </trkpt>
      <trkpt lat="46.15739" lon="2.83599">
        <ele>554.06</ele>
        <time>2018-07-14T07:14:09.000Z</time>
      </trkpt>
      <trkpt lat="46.15724" lon="2.83606">
        <ele>553.7</ele>
        <time>2018-07-14T07:14:11.000Z</time>
      </trkpt>
      <trkpt lat="46.15709" lon="2.83614">
        <ele>553.65</ele>
        <time>2018-07-14T07:14:13.000Z</time>
      </trkpt>
      <trkpt lat="46.15694" lon="2.83622">
        <ele>553.39</ele>
        <time>2018-07-14T07:14:15.000Z</time>
      </trkpt>
      <trkpt lat="46.1568" lon="2.8363">
        <ele>553.06</ele>
        <time>2018-07-14T07:14:17.000Z</time>
      </trkpt>
      <trkpt lat="46.15664" lon="2.83638">
        <ele>552.72</ele>
        <time>2018-07-14T07:14:19.000Z</time>
      </trkpt>
      <trkpt lat="46.15651" lon="2.83645">
        <ele>552.77</ele>
        <time>2018-07-14T07:14:21.000Z</time>
      </trkpt>
      <trkpt lat="46.15636" lon="2.83654">
        <ele>552.74</ele>
        <time>2018-07-14T07:14:23.000Z</time>
      </trkpt>
      <trkpt lat="46.15621" lon="2.83663">
        <ele>552.79</ele>
        <time>2018-07-14T07:14:25.000Z</time>
      </trkpt>
      <trkpt lat="46.15612" lon="2.83667">
        <ele>552.91</ele>
        <time>2018-07-14T07:14:26.000Z</time>
      </trkpt>
      <trkpt lat="46.15597" lon="2.83675">
        <ele>553</ele>
        <time>2018-07-14T07:14:28.000Z</time>
      </trkpt>
      <trkpt lat="46.15582" lon="2.83683">
        <ele>553.35</ele>
        <time>2018-07-14T07:14:30.000Z</time>
      </trkpt>
      <trkpt lat="46.15567" lon="2.83692">
        <ele>554.16</ele>
        <time>2018-07-14T07:14:32.000Z</time>
      </trkpt>
      <trkpt lat="46.15554" lon="2.83702">
        <ele>554.95</ele>
        <time>2018-07-14T07:14:34.000Z</time>
      </trkpt>
      <trkpt lat="46.15539" lon="2.83714">
        <ele>554.81</ele>
        <time>2018-07-14T07:14:36.000Z</time>
      </trkpt>
      <trkpt lat="46.15524" lon="2.83726">
        <ele>555.72</ele>
        <time>2018-07-14T07:14:38.000Z</time>
      </trkpt>
      <trkpt lat="46.15508" lon="2.83738">
        <ele>556.08</ele>
        <time>2018-07-14T07:14:40.000Z</time>
      </trkpt>
      <trkpt lat="46.15495" lon="2.83751">
        <ele>555.99</ele>
        <time>2018-07-14T07:14:42.000Z</time>
      </trkpt>
      <trkpt lat="46.15483" lon="2.83765">
        <ele>555.6</ele>
        <time>2018-07-14T07:14:44.000Z</time>
      </trkpt>
      <trkpt lat="46.15472" lon="2.83782">
        <ele>555.78</ele>
        <time>2018-07-14T07:14:46.000Z</time>
      </trkpt>
      <trkpt lat="46.15461" lon="2.83798">
        <ele>555.14</ele>
        <time>2018-07-14T07:14:48.000Z</time>
      </trkpt>
      <trkpt lat="46.15451" lon="2.83815">
        <ele>554.46</ele>
        <time>2018-07-14T07:14:50.000Z</time>
      </trkpt>
      <trkpt lat="46.15439" lon="2.8383">
        <ele>553.42</ele>
        <time>2018-07-14T07:14:52.000Z</time>
      </trkpt>
      <trkpt lat="46.15427" lon="2.83846">
        <ele>552.7</ele>
        <time>2018-07-14T07:14:54.000Z</time>
      </trkpt>
      <trkpt lat="46.15421" lon="2.83855">
        <ele>552.02</ele>
        <time>2018-07-14T07:14:55.000Z</time>
      </trkpt>
      <trkpt lat="46.15414" lon="2.83864">
        <ele>551.62</ele>
        <time>2018-07-14T07:14:56.000Z</time>
      </trkpt>
      <trkpt lat="46.15402" lon="2.83882">
        <ele>550.82</ele>
        <time>2018-07-14T07:14:58.000Z</time>
      </trkpt>
      <trkpt lat="46.15391" lon="2.83898">
        <ele>550.17</ele>
        <time>2018-07-14T07:15:00.000Z</time>
      </trkpt>
      <trkpt lat="46.1538" lon="2.83912">
        <ele>549.87</ele>
        <time>2018-07-14T07:15:02.000Z</time>
      </trkpt>
      <trkpt lat="46.15369" lon="2.83928">
        <ele>549.19</ele>
        <time>2018-07-14T07:15:04.000Z</time>
      </trkpt>
      <trkpt lat="46.15359" lon="2.83945">
        <ele>548.82</ele>
        <time>2018-07-14T07:15:06.000Z</time>
      </trkpt>
      <trkpt lat="46.15348" lon="2.83962">
        <ele>548.26</ele>
        <time>2018-07-14T07:15:08.000Z</time>
      </trkpt>
      <trkpt lat="46.15337" lon="2.83978">
        <ele>548.29</ele>
        <time>2018-07-14T07:15:10.000Z</time>
      </trkpt>
      <trkpt lat="46.15327" lon="2.83993">
        <ele>548.78</ele>
        <time>2018-07-14T07:15:12.000Z</time>
      </trkpt>
      <trkpt lat="46.15316" lon="2.84006">
        <ele>549.13</ele>
        <time>2018-07-14T07:15:14.000Z</time>
      </trkpt>
      <trkpt lat="46.15304" lon="2.84016">
        <ele>549.1</ele>
        <time>2018-07-14T07:15:16.000Z</time>
      </trkpt>
      <trkpt lat="46.15291" lon="2.84023">
        <ele>548.69</ele>
        <time>2018-07-14T07:15:18.000Z</time>
      </trkpt>
      <trkpt lat="46.15279" lon="2.84024">
        <ele>549.02</ele>
        <time>2018-07-14T07:15:20.000Z</time>
      </trkpt>
      <trkpt lat="46.15268" lon="2.84023">
        <ele>548.92</ele>
        <time>2018-07-14T07:15:22.000Z</time>
      </trkpt>
      <trkpt lat="46.15256" lon="2.84019">
        <ele>548.41</ele>
        <time>2018-07-14T07:15:24.000Z</time>
      </trkpt>
      <trkpt lat="46.15244" lon="2.84012">
        <ele>548.12</ele>
        <time>2018-07-14T07:15:26.000Z</time>
      </trkpt>
      <trkpt lat="46.15234" lon="2.84004">
        <ele>547.64</ele>
        <time>2018-07-14T07:15:28.000Z</time>
      </trkpt>
      <trkpt lat="46.15225" lon="2.83996">
        <ele>547.21</ele>
        <time>2018-07-14T07:15:30.000Z</time>
      </trkpt>
      <trkpt lat="46.15217" lon="2.83988">
        <ele>547.13</ele>
        <time>2018-07-14T07:15:32.000Z</time>
      </trkpt>
      <trkpt lat="46.15212" lon="2.83975">
        <ele>547.42</ele>
        <time>2018-07-14T07:15:35.000Z</time>
      </trkpt>
      <trkpt lat="46.15204" lon="2.83962">
        <ele>548.39</ele>
        <time>2018-07-14T07:15:38.000Z</time>
      </trkpt>
      <trkpt lat="46.15198" lon="2.83953">
        <ele>549.29</ele>
        <time>2018-07-14T07:15:40.000Z</time>
      </trkpt>
      <trkpt lat="46.15192" lon="2.83943">
        <ele>549.75</ele>
        <time>2018-07-14T07:15:42.000Z</time>
      </trkpt>
      <trkpt lat="46.15185" lon="2.83928">
        <ele>549.97</ele>
        <time>2018-07-14T07:15:45.000Z</time>
      </trkpt>
      <trkpt lat="46.15179" lon="2.83914">
        <ele>550.27</ele>
        <time>2018-07-14T07:15:48.000Z</time>
      </trkpt>
      <trkpt lat="46.15168" lon="2.83908">
        <ele>550.75</ele>
        <time>2018-07-14T07:15:51.000Z</time>
      </trkpt>
      <trkpt lat="46.15159" lon="2.83902">
        <ele>551.1</ele>
        <time>2018-07-14T07:15:53.000Z</time>
      </trkpt>
      <trkpt lat="46.15149" lon="2.83899">
        <ele>551.23</ele>
        <time>2018-07-14T07:15:55.000Z</time>
      </trkpt>
      <trkpt lat="46.15138" lon="2.83891">
        <ele>551.7</ele>
        <time>2018-07-14T07:15:58.000Z</time>
      </trkpt>
      <trkpt lat="46.15127" lon="2.83881">
        <ele>551.73</ele>
        <time>2018-07-14T07:16:01.000Z</time>
      </trkpt>
      <trkpt lat="46.15117" lon="2.83871">
        <ele>551.02</ele>
        <time>2018-07-14T07:16:04.000Z</time>
      </trkpt>
      <trkpt lat="46.15109" lon="2.83859">
        <ele>550.17</ele>
        <time>2018-07-14T07:16:07.000Z</time>
      </trkpt>
      <trkpt lat="46.151" lon="2.83851">
        <ele>549.66</ele>
        <time>2018-07-14T07:16:10.000Z</time>
      </trkpt>
      <trkpt lat="46.15089" lon="2.83843">
        <ele>549.43</ele>
        <time>2018-07-14T07:16:13.000Z</time>
      </trkpt>
      <trkpt lat="46.15081" lon="2.83835">
        <ele>549.9</ele>
        <time>2018-07-14T07:16:16.000Z</time>
      </trkpt>
      <trkpt lat="46.15071" lon="2.8383">
        <ele>551.21</ele>
        <time>2018-07-14T07:16:20.000Z</time>
      </trkpt>
      <trkpt lat="46.15059" lon="2.83826">
        <ele>551.87</ele>
        <time>2018-07-14T07:16:24.000Z</time>
      </trkpt>
      <trkpt lat="46.15051" lon="2.83821">
        <ele>552.3</ele>
        <time>2018-07-14T07:16:27.000Z</time>
      </trkpt>
      <trkpt lat="46.15042" lon="2.83816">
        <ele>552.73</ele>
        <time>2018-07-14T07:16:30.000Z</time>
      </trkpt>
      <trkpt lat="46.15031" lon="2.83816">
        <ele>552.7</ele>
        <time>2018-07-14T07:16:34.000Z</time>
      </trkpt>
      <trkpt lat="46.1502" lon="2.83818">
        <ele>552.19</ele>
        <time>2018-07-14T07:16:37.000Z</time>
      </trkpt>
      <trkpt lat="46.15009" lon="2.8382">
        <ele>551.98</ele>
        <time>2018-07-14T07:16:39.000Z</time>
      </trkpt>
      <trkpt lat="46.14998" lon="2.8382">
        <ele>551.68</ele>
        <time>2018-07-14T07:16:41.000Z</time>
      </trkpt>
      <trkpt lat="46.14985" lon="2.83821">
        <ele>551.58</ele>
        <time>2018-07-14T07:16:43.000Z</time>
      </trkpt>
      <trkpt lat="46.1497" lon="2.83822">
        <ele>551.7</ele>
        <time>2018-07-14T07:16:45.000Z</time>
      </trkpt>
      <trkpt lat="46.14954" lon="2.83821">
        <ele>551.74</ele>
        <time>2018-07-14T07:16:47.000Z</time>
      </trkpt>
      <trkpt lat="46.14942" lon="2.8382">
        <ele>551.6</ele>
        <time>2018-07-14T07:16:49.000Z</time>
      </trkpt>
      <trkpt lat="46.14929" lon="2.8382">
        <ele>551.4</ele>
        <time>2018-07-14T07:16:51.000Z</time>
      </trkpt>
      <trkpt lat="46.14919" lon="2.83822">
        <ele>551.56</ele>
        <time>2018-07-14T07:16:54.000Z</time>
      </trkpt>
      <trkpt lat="46.14909" lon="2.83829">
        <ele>552.05</ele>
        <time>2018-07-14T07:16:58.000Z</time>
      </trkpt>
      <trkpt lat="46.149" lon="2.83824">
        <ele>553.83</ele>
        <time>2018-07-14T07:17:02.000Z</time>
      </trkpt>
      <trkpt lat="46.14888" lon="2.83821">
        <ele>562.04</ele>
        <time>2018-07-14T07:17:09.000Z</time>
      </trkpt>
      <trkpt lat="46.14877" lon="2.83819">
        <ele>563.71</ele>
        <time>2018-07-14T07:17:12.000Z</time>
      </trkpt>
      <trkpt lat="46.14867" lon="2.83814">
        <ele>564.33</ele>
        <time>2018-07-14T07:17:15.000Z</time>
      </trkpt>
      <trkpt lat="46.14858" lon="2.83803">
        <ele>566.24</ele>
        <time>2018-07-14T07:17:19.000Z</time>
      </trkpt>
      <trkpt lat="46.14852" lon="2.83788">
        <ele>569.85</ele>
        <time>2018-07-14T07:17:23.000Z</time>
      </trkpt>
      <trkpt lat="46.14842" lon="2.83777">
        <ele>573.68</ele>
        <time>2018-07-14T07:17:27.000Z</time>
      </trkpt>
      <trkpt lat="46.14834" lon="2.83771">
        <ele>575.11</ele>
        <time>2018-07-14T07:17:30.000Z</time>
      </trkpt>
      <trkpt lat="46.14825" lon="2.83766">
        <ele>576.04</ele>
        <time>2018-07-14T07:17:33.000Z</time>
      </trkpt>
      <trkpt lat="46.14816" lon="2.8376">
        <ele>577.01</ele>
        <time>2018-07-14T07:17:36.000Z</time>
      </trkpt>
      <trkpt lat="46.14808" lon="2.83754">
        <ele>578.55</ele>
        <time>2018-07-14T07:17:39.000Z</time>
      </trkpt>
      <trkpt lat="46.148" lon="2.83747">
        <ele>579.45</ele>
        <time>2018-07-14T07:17:42.000Z</time>
      </trkpt>
      <trkpt lat="46.14791" lon="2.83741">
        <ele>580.55</ele>
        <time>2018-07-14T07:17:45.000Z</time>
      </trkpt>
      <trkpt lat="46.14782" lon="2.83734">
        <ele>581.45</ele>
        <time>2018-07-14T07:17:48.000Z</time>
      </trkpt>
      <trkpt lat="46.1477" lon="2.83727">
        <ele>582.46</ele>
        <time>2018-07-14T07:17:51.000Z</time>
      </trkpt>
      <trkpt lat="46.14758" lon="2.83722">
        <ele>583.13</ele>
        <time>2018-07-14T07:17:54.000Z</time>
      </trkpt>
      <trkpt lat="46.14748" lon="2.83711">
        <ele>583.57</ele>
        <time>2018-07-14T07:17:57.000Z</time>
      </trkpt>
      <trkpt lat="46.14739" lon="2.83703">
        <ele>584.55</ele>
        <time>2018-07-14T07:18:00.000Z</time>
      </trkpt>
      <trkpt lat="46.14731" lon="2.83699">
        <ele>585.36</ele>
        <time>2018-07-14T07:18:03.000Z</time>
      </trkpt>
      <trkpt lat="46.1472" lon="2.83693">
        <ele>586.69</ele>
        <time>2018-07-14T07:18:07.000Z</time>
      </trkpt>
      <trkpt lat="46.14711" lon="2.83687">
        <ele>587.2</ele>
        <time>2018-07-14T07:18:11.000Z</time>
      </trkpt>
      <trkpt lat="46.147" lon="2.83685">
        <ele>587.89</ele>
        <time>2018-07-14T07:18:16.000Z</time>
      </trkpt>
      <trkpt lat="46.1469" lon="2.83685">
        <ele>588.16</ele>
        <time>2018-07-14T07:18:19.000Z</time>
      </trkpt>
      <trkpt lat="46.14677" lon="2.83685">
        <ele>588.26</ele>
        <time>2018-07-14T07:18:22.000Z</time>
      </trkpt>
      <trkpt lat="46.14667" lon="2.83685">
        <ele>589.5</ele>
        <time>2018-07-14T07:18:26.000Z</time>
      </trkpt>
      <trkpt lat="46.14656" lon="2.83688">
        <ele>591.77</ele>
        <time>2018-07-14T07:18:33.000Z</time>
      </trkpt>
      <trkpt lat="46.14647" lon="2.83696">
        <ele>594</ele>
        <time>2018-07-14T07:18:36.000Z</time>
      </trkpt>
      <trkpt lat="46.14633" lon="2.83699">
        <ele>595.63</ele>
        <time>2018-07-14T07:18:39.000Z</time>
      </trkpt>
      <trkpt lat="46.14624" lon="2.83702">
        <ele>596.08</ele>
        <time>2018-07-14T07:18:41.000Z</time>
      </trkpt>
      <trkpt lat="46.14613" lon="2.8371">
        <ele>598.12</ele>
        <time>2018-07-14T07:18:44.000Z</time>
      </trkpt>
      <trkpt lat="46.14605" lon="2.83718">
        <ele>600.8</ele>
        <time>2018-07-14T07:18:47.000Z</time>
      </trkpt>
      <trkpt lat="46.14599" lon="2.83727">
        <ele>602.8</ele>
        <time>2018-07-14T07:18:50.000Z</time>
      </trkpt>
      <trkpt lat="46.14595" lon="2.8374">
        <ele>604.67</ele>
        <time>2018-07-14T07:18:53.000Z</time>
      </trkpt>
      <trkpt lat="46.14589" lon="2.83756">
        <ele>606.91</ele>
        <time>2018-07-14T07:18:57.000Z</time>
      </trkpt>
      <trkpt lat="46.14582" lon="2.83769">
        <ele>608.35</ele>
        <time>2018-07-14T07:19:01.000Z</time>
      </trkpt>
      <trkpt lat="46.14576" lon="2.83782">
        <ele>609.05</ele>
        <time>2018-07-14T07:19:06.000Z</time>
      </trkpt>
      <trkpt lat="46.14574" lon="2.83797">
        <ele>609.57</ele>
        <time>2018-07-14T07:19:09.000Z</time>
      </trkpt>
      <trkpt lat="46.14573" lon="2.83812">
        <ele>610.35</ele>
        <time>2018-07-14T07:19:12.000Z</time>
      </trkpt>
      <trkpt lat="46.14568" lon="2.83825">
        <ele>610.42</ele>
        <time>2018-07-14T07:19:15.000Z</time>
      </trkpt>
      <trkpt lat="46.14563" lon="2.83838">
        <ele>610.15</ele>
        <time>2018-07-14T07:19:18.000Z</time>
      </trkpt>
      <trkpt lat="46.14561" lon="2.83855">
        <ele>611.43</ele>
        <time>2018-07-14T07:19:21.000Z</time>
      </trkpt>
      <trkpt lat="46.14557" lon="2.83868">
        <ele>612.5</ele>
        <time>2018-07-14T07:19:24.000Z</time>
      </trkpt>
      <trkpt lat="46.14557" lon="2.83884">
        <ele>613.74</ele>
        <time>2018-07-14T07:19:27.000Z</time>
      </trkpt>
      <trkpt lat="46.14556" lon="2.83899">
        <ele>615.03</ele>
        <time>2018-07-14T07:19:30.000Z</time>
      </trkpt>
      <trkpt lat="46.14556" lon="2.83916">
        <ele>616.44</ele>
        <time>2018-07-14T07:19:33.000Z</time>
      </trkpt>
      <trkpt lat="46.14552" lon="2.8393">
        <ele>617.99</ele>
        <time>2018-07-14T07:19:36.000Z</time>
      </trkpt>
      <trkpt lat="46.14545" lon="2.83943">
        <ele>620.43</ele>
        <time>2018-07-14T07:19:40.000Z</time>
      </trkpt>
      <trkpt lat="46.14544" lon="2.83958">
        <ele>622.84</ele>
        <time>2018-07-14T07:19:44.000Z</time>
      </trkpt>
      <trkpt lat="46.14544" lon="2.83972">
        <ele>623.95</ele>
        <time>2018-07-14T07:19:47.000Z</time>
      </trkpt>
      <trkpt lat="46.1454" lon="2.83988">
        <ele>624.55</ele>
        <time>2018-07-14T07:19:50.000Z</time>
      </trkpt>
      <trkpt lat="46.14537" lon="2.84001">
        <ele>625.68</ele>
        <time>2018-07-14T07:19:53.000Z</time>
      </trkpt>
      <trkpt lat="46.14539" lon="2.84017">
        <ele>626.92</ele>
        <time>2018-07-14T07:19:56.000Z</time>
      </trkpt>
      <trkpt lat="46.14541" lon="2.84032">
        <ele>628.83</ele>
        <time>2018-07-14T07:19:59.000Z</time>
      </trkpt>
      <trkpt lat="46.1454" lon="2.84046">
        <ele>631.07</ele>
        <time>2018-07-14T07:20:02.000Z</time>
      </trkpt>
      <trkpt lat="46.1454" lon="2.84059">
        <ele>633.76</ele>
        <time>2018-07-14T07:20:05.000Z</time>
      </trkpt>
      <trkpt lat="46.14539" lon="2.84074">
        <ele>635.35</ele>
        <time>2018-07-14T07:20:09.000Z</time>
      </trkpt>
      <trkpt lat="46.14539" lon="2.84089">
        <ele>636.23</ele>
        <time>2018-07-14T07:20:13.000Z</time>
      </trkpt>
      <trkpt lat="46.14539" lon="2.84105">
        <ele>636.34</ele>
        <time>2018-07-14T07:20:16.000Z</time>
      </trkpt>
      <trkpt lat="46.14537" lon="2.84122">
        <ele>636.88</ele>
        <time>2018-07-14T07:20:19.000Z</time>
      </trkpt>
      <trkpt lat="46.14533" lon="2.84139">
        <ele>637.36</ele>
        <time>2018-07-14T07:20:22.000Z</time>
      </trkpt>
      <trkpt lat="46.1453" lon="2.84154">
        <ele>638.85</ele>
        <time>2018-07-14T07:20:26.000Z</time>
      </trkpt>
      <trkpt lat="46.14527" lon="2.84167">
        <ele>640.8</ele>
        <time>2018-07-14T07:20:29.000Z</time>
      </trkpt>
      <trkpt lat="46.14523" lon="2.84179">
        <ele>643.04</ele>
        <time>2018-07-14T07:20:32.000Z</time>
      </trkpt>
      <trkpt lat="46.14516" lon="2.84194">
        <ele>644.39</ele>
        <time>2018-07-14T07:20:36.000Z</time>
      </trkpt>
      <trkpt lat="46.14513" lon="2.84209">
        <ele>644.04</ele>
        <time>2018-07-14T07:20:39.000Z</time>
      </trkpt>
      <trkpt lat="46.14513" lon="2.84226">
        <ele>642.91</ele>
        <time>2018-07-14T07:20:43.000Z</time>
      </trkpt>
      <trkpt lat="46.1451" lon="2.84242">
        <ele>643.29</ele>
        <time>2018-07-14T07:20:47.000Z</time>
      </trkpt>
      <trkpt lat="46.14506" lon="2.84257">
        <ele>644.32</ele>
        <time>2018-07-14T07:20:50.000Z</time>
      </trkpt>
      <trkpt lat="46.14502" lon="2.8427">
        <ele>644.68</ele>
        <time>2018-07-14T07:20:52.000Z</time>
      </trkpt>
      <trkpt lat="46.14495" lon="2.84286">
        <ele>644.18</ele>
        <time>2018-07-14T07:20:55.000Z</time>
      </trkpt>
      <trkpt lat="46.14493" lon="2.84305">
        <ele>643.25</ele>
        <time>2018-07-14T07:20:58.000Z</time>
      </trkpt>
      <trkpt lat="46.14492" lon="2.84318">
        <ele>643.15</ele>
        <time>2018-07-14T07:21:00.000Z</time>
      </trkpt>
      <trkpt lat="46.14491" lon="2.84331">
        <ele>642.89</ele>
        <time>2018-07-14T07:21:02.000Z</time>
      </trkpt>
      <trkpt lat="46.14491" lon="2.84346">
        <ele>643.13</ele>
        <time>2018-07-14T07:21:04.000Z</time>
      </trkpt>
      <trkpt lat="46.14489" lon="2.84359">
        <ele>643.54</ele>
        <time>2018-07-14T07:21:06.000Z</time>
      </trkpt>
      <trkpt lat="46.14486" lon="2.84377">
        <ele>643.71</ele>
        <time>2018-07-14T07:21:09.000Z</time>
      </trkpt>
      <trkpt lat="46.14485" lon="2.8439">
        <ele>643.95</ele>
        <time>2018-07-14T07:21:11.000Z</time>
      </trkpt>
      <trkpt lat="46.14485" lon="2.84408">
        <ele>644.35</ele>
        <time>2018-07-14T07:21:14.000Z</time>
      </trkpt>
      <trkpt lat="46.14488" lon="2.84425">
        <ele>644.46</ele>
        <time>2018-07-14T07:21:17.000Z</time>
      </trkpt>
      <trkpt lat="46.14491" lon="2.84443">
        <ele>644.47</ele>
        <time>2018-07-14T07:21:20.000Z</time>
      </trkpt>
      <trkpt lat="46.14495" lon="2.84459">
        <ele>644.33</ele>
        <time>2018-07-14T07:21:23.000Z</time>
      </trkpt>
      <trkpt lat="46.14499" lon="2.84474">
        <ele>643.85</ele>
        <time>2018-07-14T07:21:26.000Z</time>
      </trkpt>
      <trkpt lat="46.14504" lon="2.84489">
        <ele>643.78</ele>
        <time>2018-07-14T07:21:29.000Z</time>
      </trkpt>
      <trkpt lat="46.1451" lon="2.84502">
        <ele>644.7</ele>
        <time>2018-07-14T07:21:32.000Z</time>
      </trkpt>
      <trkpt lat="46.14516" lon="2.84516">
        <ele>645.1</ele>
        <time>2018-07-14T07:21:35.000Z</time>
      </trkpt>
      <trkpt lat="46.14523" lon="2.84531">
        <ele>644.68</ele>
        <time>2018-07-14T07:21:38.000Z</time>
      </trkpt>
      <trkpt lat="46.1453" lon="2.84547">
        <ele>644.54</ele>
        <time>2018-07-14T07:21:41.000Z</time>
      </trkpt>
      <trkpt lat="46.14536" lon="2.8456">
        <ele>644.92</ele>
        <time>2018-07-14T07:21:44.000Z</time>
      </trkpt>
      <trkpt lat="46.1454" lon="2.84573">
        <ele>645.26</ele>
        <time>2018-07-14T07:21:47.000Z</time>
      </trkpt>
      <trkpt lat="46.14543" lon="2.84589">
        <ele>645.6</ele>
        <time>2018-07-14T07:21:50.000Z</time>
      </trkpt>
      <trkpt lat="46.14546" lon="2.84604">
        <ele>646.04</ele>
        <time>2018-07-14T07:21:53.000Z</time>
      </trkpt>
      <trkpt lat="46.14548" lon="2.84619">
        <ele>646.43</ele>
        <time>2018-07-14T07:21:56.000Z</time>
      </trkpt>
      <trkpt lat="46.14548" lon="2.84636">
        <ele>646.83</ele>
        <time>2018-07-14T07:21:59.000Z</time>
      </trkpt>
      <trkpt lat="46.14547" lon="2.84654">
        <ele>647.44</ele>
        <time>2018-07-14T07:22:02.000Z</time>
      </trkpt>
      <trkpt lat="46.14548" lon="2.8467">
        <ele>648.79</ele>
        <time>2018-07-14T07:22:05.000Z</time>
      </trkpt>
      <trkpt lat="46.14548" lon="2.84683">
        <ele>649</ele>
        <time>2018-07-14T07:22:07.000Z</time>
      </trkpt>
      <trkpt lat="46.14547" lon="2.84696">
        <ele>649</ele>
        <time>2018-07-14T07:22:09.000Z</time>
      </trkpt>
      <trkpt lat="46.14545" lon="2.84712">
        <ele>649.16</ele>
        <time>2018-07-14T07:22:12.000Z</time>
      </trkpt>
      <trkpt lat="46.14542" lon="2.84729">
        <ele>649.13</ele>
        <time>2018-07-14T07:22:15.000Z</time>
      </trkpt>
      <trkpt lat="46.14542" lon="2.84742">
        <ele>650.25</ele>
        <time>2018-07-14T07:22:18.000Z</time>
      </trkpt>
      <trkpt lat="46.14542" lon="2.84759">
        <ele>651.55</ele>
        <time>2018-07-14T07:22:22.000Z</time>
      </trkpt>
      <trkpt lat="46.14541" lon="2.84776">
        <ele>653.49</ele>
        <time>2018-07-14T07:22:26.000Z</time>
      </trkpt>
      <trkpt lat="46.1454" lon="2.84789">
        <ele>655.21</ele>
        <time>2018-07-14T07:22:29.000Z</time>
      </trkpt>
      <trkpt lat="46.14541" lon="2.84804">
        <ele>657.12</ele>
        <time>2018-07-14T07:22:32.000Z</time>
      </trkpt>
      <trkpt lat="46.14537" lon="2.84817">
        <ele>658.63</ele>
        <time>2018-07-14T07:22:35.000Z</time>
      </trkpt>
      <trkpt lat="46.14531" lon="2.84831">
        <ele>660.4</ele>
        <time>2018-07-14T07:22:38.000Z</time>
      </trkpt>
      <trkpt lat="46.14527" lon="2.84845">
        <ele>661.87</ele>
        <time>2018-07-14T07:22:41.000Z</time>
      </trkpt>
      <trkpt lat="46.14522" lon="2.84858">
        <ele>662.95</ele>
        <time>2018-07-14T07:22:44.000Z</time>
      </trkpt>
      <trkpt lat="46.14519" lon="2.8487">
        <ele>663.61</ele>
        <time>2018-07-14T07:22:47.000Z</time>
      </trkpt>
      <trkpt lat="46.14511" lon="2.84883">
        <ele>663.28</ele>
        <time>2018-07-14T07:22:50.000Z</time>
      </trkpt>
      <trkpt lat="46.14505" lon="2.84895">
        <ele>663.66</ele>
        <time>2018-07-14T07:22:53.000Z</time>
      </trkpt>
      <trkpt lat="46.14499" lon="2.84905">
        <ele>664.6</ele>
        <time>2018-07-14T07:22:56.000Z</time>
      </trkpt>
      <trkpt lat="46.14489" lon="2.84913">
        <ele>664.98</ele>
        <time>2018-07-14T07:22:59.000Z</time>
      </trkpt>
      <trkpt lat="46.1448" lon="2.84922">
        <ele>665.69</ele>
        <time>2018-07-14T07:23:02.000Z</time>
      </trkpt>
      <trkpt lat="46.14468" lon="2.84934">
        <ele>666.07</ele>
        <time>2018-07-14T07:23:05.000Z</time>
      </trkpt>
      <trkpt lat="46.1446" lon="2.84945">
        <ele>665.6</ele>
        <time>2018-07-14T07:23:07.000Z</time>
      </trkpt>
      <trkpt lat="46.14452" lon="2.8496">
        <ele>665.22</ele>
        <time>2018-07-14T07:23:10.000Z</time>
      </trkpt>
      <trkpt lat="46.14445" lon="2.84976">
        <ele>665.57</ele>
        <time>2018-07-14T07:23:13.000Z</time>
      </trkpt>
      <trkpt lat="46.1444" lon="2.84993">
        <ele>666.28</ele>
        <time>2018-07-14T07:23:16.000Z</time>
      </trkpt>
      <trkpt lat="46.14436" lon="2.85011">
        <ele>667.27</ele>
        <time>2018-07-14T07:23:19.000Z</time>
      </trkpt>
      <trkpt lat="46.14434" lon="2.85024">
        <ele>667.52</ele>
        <time>2018-07-14T07:23:21.000Z</time>
      </trkpt>
      <trkpt lat="46.1443" lon="2.85042">
        <ele>668.13</ele>
        <time>2018-07-14T07:23:24.000Z</time>
      </trkpt>
      <trkpt lat="46.14426" lon="2.85056">
        <ele>668.22</ele>
        <time>2018-07-14T07:23:26.000Z</time>
      </trkpt>
      <trkpt lat="46.14423" lon="2.85072">
        <ele>667.69</ele>
        <time>2018-07-14T07:23:28.000Z</time>
      </trkpt>
      <trkpt lat="46.1442" lon="2.85087">
        <ele>666.84</ele>
        <time>2018-07-14T07:23:30.000Z</time>
      </trkpt>
      <trkpt lat="46.14418" lon="2.85102">
        <ele>666.49</ele>
        <time>2018-07-14T07:23:32.000Z</time>
      </trkpt>
      <trkpt lat="46.14416" lon="2.85117">
        <ele>665.76</ele>
        <time>2018-07-14T07:23:34.000Z</time>
      </trkpt>
      <trkpt lat="46.14414" lon="2.85132">
        <ele>665.37</ele>
        <time>2018-07-14T07:23:36.000Z</time>
      </trkpt>
      <trkpt lat="46.14413" lon="2.85147">
        <ele>665.05</ele>
        <time>2018-07-14T07:23:38.000Z</time>
      </trkpt>
      <trkpt lat="46.14411" lon="2.85163">
        <ele>664.78</ele>
        <time>2018-07-14T07:23:40.000Z</time>
      </trkpt>
      <trkpt lat="46.1441" lon="2.85179">
        <ele>664.58</ele>
        <time>2018-07-14T07:23:42.000Z</time>
      </trkpt>
      <trkpt lat="46.1441" lon="2.85197">
        <ele>664.5</ele>
        <time>2018-07-14T07:23:44.000Z</time>
      </trkpt>
      <trkpt lat="46.14412" lon="2.85216">
        <ele>664.74</ele>
        <time>2018-07-14T07:23:46.000Z</time>
      </trkpt>
      <trkpt lat="46.14415" lon="2.85234">
        <ele>664.73</ele>
        <time>2018-07-14T07:23:48.000Z</time>
      </trkpt>
      <trkpt lat="46.14422" lon="2.85259">
        <ele>665.47</ele>
        <time>2018-07-14T07:23:51.000Z</time>
      </trkpt>
      <trkpt lat="46.1443" lon="2.85282">
        <ele>666.18</ele>
        <time>2018-07-14T07:23:54.000Z</time>
      </trkpt>
      <trkpt lat="46.14435" lon="2.85295">
        <ele>666.55</ele>
        <time>2018-07-14T07:23:56.000Z</time>
      </trkpt>
      <trkpt lat="46.14439" lon="2.85309">
        <ele>667.04</ele>
        <time>2018-07-14T07:23:58.000Z</time>
      </trkpt>
      <trkpt lat="46.14444" lon="2.85323">
        <ele>667.48</ele>
        <time>2018-07-14T07:24:00.000Z</time>
      </trkpt>
      <trkpt lat="46.1445" lon="2.85338">
        <ele>667.95</ele>
        <time>2018-07-14T07:24:02.000Z</time>
      </trkpt>
      <trkpt lat="46.14456" lon="2.85354">
        <ele>668.26</ele>
        <time>2018-07-14T07:24:04.000Z</time>
      </trkpt>
      <trkpt lat="46.14462" lon="2.85368">
        <ele>668.89</ele>
        <time>2018-07-14T07:24:06.000Z</time>
      </trkpt>
      <trkpt lat="46.14467" lon="2.85382">
        <ele>669.34</ele>
        <time>2018-07-14T07:24:08.000Z</time>
      </trkpt>
      <trkpt lat="46.14472" lon="2.85393">
        <ele>669.49</ele>
        <time>2018-07-14T07:24:10.000Z</time>
      </trkpt>
      <trkpt lat="46.14477" lon="2.85404">
        <ele>669.74</ele>
        <time>2018-07-14T07:24:12.000Z</time>
      </trkpt>
      <trkpt lat="46.14481" lon="2.85416">
        <ele>670.27</ele>
        <time>2018-07-14T07:24:14.000Z</time>
      </trkpt>
      <trkpt lat="46.14486" lon="2.85439">
        <ele>670.43</ele>
        <time>2018-07-14T07:24:17.000Z</time>
      </trkpt>
      <trkpt lat="46.14487" lon="2.8546">
        <ele>670.87</ele>
        <time>2018-07-14T07:24:19.000Z</time>
      </trkpt>
      <trkpt lat="46.14486" lon="2.85479">
        <ele>671.89</ele>
        <time>2018-07-14T07:24:21.000Z</time>
      </trkpt>
      <trkpt lat="46.14483" lon="2.85495">
        <ele>673.07</ele>
        <time>2018-07-14T07:24:23.000Z</time>
      </trkpt>
      <trkpt lat="46.14478" lon="2.85509">
        <ele>674.57</ele>
        <time>2018-07-14T07:24:25.000Z</time>
      </trkpt>
      <trkpt lat="46.14466" lon="2.8553">
        <ele>675.31</ele>
        <time>2018-07-14T07:24:28.000Z</time>
      </trkpt>
      <trkpt lat="46.14457" lon="2.85542">
        <ele>675.69</ele>
        <time>2018-07-14T07:24:30.000Z</time>
      </trkpt>
      <trkpt lat="46.14446" lon="2.85551">
        <ele>676.17</ele>
        <time>2018-07-14T07:24:32.000Z</time>
      </trkpt>
      <trkpt lat="46.14436" lon="2.8556">
        <ele>676.77</ele>
        <time>2018-07-14T07:24:34.000Z</time>
      </trkpt>
      <trkpt lat="46.14425" lon="2.85569">
        <ele>677.49</ele>
        <time>2018-07-14T07:24:36.000Z</time>
      </trkpt>
      <trkpt lat="46.14414" lon="2.85579">
        <ele>678.19</ele>
        <time>2018-07-14T07:24:38.000Z</time>
      </trkpt>
      <trkpt lat="46.14402" lon="2.85589">
        <ele>678.67</ele>
        <time>2018-07-14T07:24:40.000Z</time>
      </trkpt>
      <trkpt lat="46.14391" lon="2.85598">
        <ele>679.15</ele>
        <time>2018-07-14T07:24:42.000Z</time>
      </trkpt>
      <trkpt lat="46.14378" lon="2.85608">
        <ele>679.76</ele>
        <time>2018-07-14T07:24:44.000Z</time>
      </trkpt>
      <trkpt lat="46.14366" lon="2.85617">
        <ele>680.24</ele>
        <time>2018-07-14T07:24:46.000Z</time>
      </trkpt>
      <trkpt lat="46.14354" lon="2.85627">
        <ele>680.81</ele>
        <time>2018-07-14T07:24:48.000Z</time>
      </trkpt>
      <trkpt lat="46.14343" lon="2.85636">
        <ele>681.27</ele>
        <time>2018-07-14T07:24:50.000Z</time>
      </trkpt>
      <trkpt lat="46.1433" lon="2.85646">
        <ele>682.03</ele>
        <time>2018-07-14T07:24:52.000Z</time>
      </trkpt>
      <trkpt lat="46.14318" lon="2.85656">
        <ele>682.38</ele>
        <time>2018-07-14T07:24:54.000Z</time>
      </trkpt>
      <trkpt lat="46.14306" lon="2.85666">
        <ele>682.91</ele>
        <time>2018-07-14T07:24:56.000Z</time>
      </trkpt>
      <trkpt lat="46.14293" lon="2.85676">
        <ele>683.35</ele>
        <time>2018-07-14T07:24:58.000Z</time>
      </trkpt>
      <trkpt lat="46.1428" lon="2.85685">
        <ele>684.04</ele>
        <time>2018-07-14T07:25:00.000Z</time>
      </trkpt>
      <trkpt lat="46.14266" lon="2.85695">
        <ele>684.56</ele>
        <time>2018-07-14T07:25:02.000Z</time>
      </trkpt>
      <trkpt lat="46.14252" lon="2.85706">
        <ele>684.96</ele>
        <time>2018-07-14T07:25:04.000Z</time>
      </trkpt>
      <trkpt lat="46.14238" lon="2.85717">
        <ele>685.44</ele>
        <time>2018-07-14T07:25:06.000Z</time>
      </trkpt>
      <trkpt lat="46.14224" lon="2.85729">
        <ele>685.74</ele>
        <time>2018-07-14T07:25:08.000Z</time>
      </trkpt>
      <trkpt lat="46.1421" lon="2.8574">
        <ele>685.96</ele>
        <time>2018-07-14T07:25:10.000Z</time>
      </trkpt>
      <trkpt lat="46.14196" lon="2.85751">
        <ele>686.15</ele>
        <time>2018-07-14T07:25:12.000Z</time>
      </trkpt>
      <trkpt lat="46.14182" lon="2.85763">
        <ele>686.17</ele>
        <time>2018-07-14T07:25:14.000Z</time>
      </trkpt>
      <trkpt lat="46.1417" lon="2.85774">
        <ele>686.39</ele>
        <time>2018-07-14T07:25:16.000Z</time>
      </trkpt>
      <trkpt lat="46.14159" lon="2.85783">
        <ele>686.74</ele>
        <time>2018-07-14T07:25:18.000Z</time>
      </trkpt>
      <trkpt lat="46.14147" lon="2.85791">
        <ele>686.49</ele>
        <time>2018-07-14T07:25:20.000Z</time>
      </trkpt>
      <trkpt lat="46.14137" lon="2.85799">
        <ele>686.21</ele>
        <time>2018-07-14T07:25:22.000Z</time>
      </trkpt>
      <trkpt lat="46.14128" lon="2.85807">
        <ele>685.83</ele>
        <time>2018-07-14T07:25:24.000Z</time>
      </trkpt>
      <trkpt lat="46.14119" lon="2.85814">
        <ele>685.6</ele>
        <time>2018-07-14T07:25:26.000Z</time>
      </trkpt>
      <trkpt lat="46.1411" lon="2.85821">
        <ele>685.65</ele>
        <time>2018-07-14T07:25:28.000Z</time>
      </trkpt>
      <trkpt lat="46.14102" lon="2.85827">
        <ele>685.69</ele>
        <time>2018-07-14T07:25:30.000Z</time>
      </trkpt>
      <trkpt lat="46.14093" lon="2.85835">
        <ele>685.46</ele>
        <time>2018-07-14T07:25:32.000Z</time>
      </trkpt>
      <trkpt lat="46.14084" lon="2.85843">
        <ele>685.41</ele>
        <time>2018-07-14T07:25:34.000Z</time>
      </trkpt>
      <trkpt lat="46.14075" lon="2.8585">
        <ele>685.34</ele>
        <time>2018-07-14T07:25:36.000Z</time>
      </trkpt>
      <trkpt lat="46.14066" lon="2.85858">
        <ele>685.06</ele>
        <time>2018-07-14T07:25:38.000Z</time>
      </trkpt>
      <trkpt lat="46.14058" lon="2.85867">
        <ele>684.88</ele>
        <time>2018-07-14T07:25:40.000Z</time>
      </trkpt>
      <trkpt lat="46.14048" lon="2.85877">
        <ele>684.77</ele>
        <time>2018-07-14T07:25:42.000Z</time>
      </trkpt>
      <trkpt lat="46.14039" lon="2.85885">
        <ele>684.67</ele>
        <time>2018-07-14T07:25:44.000Z</time>
      </trkpt>
      <trkpt lat="46.14027" lon="2.85893">
        <ele>684.48</ele>
        <time>2018-07-14T07:25:46.000Z</time>
      </trkpt>
      <trkpt lat="46.14016" lon="2.85902">
        <ele>684.69</ele>
        <time>2018-07-14T07:25:48.000Z</time>
      </trkpt>
      <trkpt lat="46.14005" lon="2.85908">
        <ele>684.84</ele>
        <time>2018-07-14T07:25:50.000Z</time>
      </trkpt>
      <trkpt lat="46.13993" lon="2.85914">
        <ele>685.02</ele>
        <time>2018-07-14T07:25:52.000Z</time>
      </trkpt>
      <trkpt lat="46.13981" lon="2.85923">
        <ele>685.06</ele>
        <time>2018-07-14T07:25:54.000Z</time>
      </trkpt>
      <trkpt lat="46.13969" lon="2.85933">
        <ele>685.54</ele>
        <time>2018-07-14T07:25:56.000Z</time>
      </trkpt>
      <trkpt lat="46.13958" lon="2.85943">
        <ele>685.87</ele>
        <time>2018-07-14T07:25:58.000Z</time>
      </trkpt>
      <trkpt lat="46.13945" lon="2.85953">
        <ele>686.08</ele>
        <time>2018-07-14T07:26:00.000Z</time>
      </trkpt>
      <trkpt lat="46.13933" lon="2.85963">
        <ele>686.5</ele>
        <time>2018-07-14T07:26:02.000Z</time>
      </trkpt>
      <trkpt lat="46.13921" lon="2.85973">
        <ele>686.36</ele>
        <time>2018-07-14T07:26:04.000Z</time>
      </trkpt>
      <trkpt lat="46.1391" lon="2.85985">
        <ele>686.1</ele>
        <time>2018-07-14T07:26:06.000Z</time>
      </trkpt>
      <trkpt lat="46.13898" lon="2.85995">
        <ele>685.78</ele>
        <time>2018-07-14T07:26:08.000Z</time>
      </trkpt>
      <trkpt lat="46.13884" lon="2.86004">
        <ele>685.6</ele>
        <time>2018-07-14T07:26:10.000Z</time>
      </trkpt>
      <trkpt lat="46.13871" lon="2.86013">
        <ele>685.46</ele>
        <time>2018-07-14T07:26:12.000Z</time>
      </trkpt>
      <trkpt lat="46.13858" lon="2.8602">
        <ele>685.17</ele>
        <time>2018-07-14T07:26:14.000Z</time>
      </trkpt>
      <trkpt lat="46.13845" lon="2.86025">
        <ele>685.1</ele>
        <time>2018-07-14T07:26:16.000Z</time>
      </trkpt>
      <trkpt lat="46.1383" lon="2.8603">
        <ele>684.86</ele>
        <time>2018-07-14T07:26:18.000Z</time>
      </trkpt>
      <trkpt lat="46.13814" lon="2.86035">
        <ele>684.68</ele>
        <time>2018-07-14T07:26:20.000Z</time>
      </trkpt>
      <trkpt lat="46.13798" lon="2.8604">
        <ele>684.92</ele>
        <time>2018-07-14T07:26:22.000Z</time>
      </trkpt>
      <trkpt lat="46.13781" lon="2.86045">
        <ele>685.43</ele>
        <time>2018-07-14T07:26:24.000Z</time>
      </trkpt>
      <trkpt lat="46.13765" lon="2.8605">
        <ele>685.87</ele>
        <time>2018-07-14T07:26:26.000Z</time>
      </trkpt>
      <trkpt lat="46.13749" lon="2.86055">
        <ele>685.96</ele>
        <time>2018-07-14T07:26:28.000Z</time>
      </trkpt>
      <trkpt lat="46.13732" lon="2.8606">
        <ele>685.98</ele>
        <time>2018-07-14T07:26:30.000Z</time>
      </trkpt>
      <trkpt lat="46.13717" lon="2.86066">
        <ele>686.06</ele>
        <time>2018-07-14T07:26:32.000Z</time>
      </trkpt>
      <trkpt lat="46.13701" lon="2.86071">
        <ele>685.74</ele>
        <time>2018-07-14T07:26:34.000Z</time>
      </trkpt>
      <trkpt lat="46.13685" lon="2.86076">
        <ele>685.83</ele>
        <time>2018-07-14T07:26:36.000Z</time>
      </trkpt>
      <trkpt lat="46.1367" lon="2.86081">
        <ele>685.61</ele>
        <time>2018-07-14T07:26:38.000Z</time>
      </trkpt>
      <trkpt lat="46.13655" lon="2.86087">
        <ele>685.16</ele>
        <time>2018-07-14T07:26:40.000Z</time>
      </trkpt>
      <trkpt lat="46.1364" lon="2.86092">
        <ele>684.75</ele>
        <time>2018-07-14T07:26:42.000Z</time>
      </trkpt>
      <trkpt lat="46.13623" lon="2.86098">
        <ele>684.15</ele>
        <time>2018-07-14T07:26:44.000Z</time>
      </trkpt>
      <trkpt lat="46.13607" lon="2.86103">
        <ele>683.76</ele>
        <time>2018-07-14T07:26:46.000Z</time>
      </trkpt>
      <trkpt lat="46.13591" lon="2.86109">
        <ele>683.8</ele>
        <time>2018-07-14T07:26:48.000Z</time>
      </trkpt>
      <trkpt lat="46.13575" lon="2.86114">
        <ele>683.93</ele>
        <time>2018-07-14T07:26:50.000Z</time>
      </trkpt>
      <trkpt lat="46.13559" lon="2.86118">
        <ele>684.22</ele>
        <time>2018-07-14T07:26:52.000Z</time>
      </trkpt>
      <trkpt lat="46.13544" lon="2.86123">
        <ele>684.56</ele>
        <time>2018-07-14T07:26:54.000Z</time>
      </trkpt>
      <trkpt lat="46.13529" lon="2.86127">
        <ele>684.58</ele>
        <time>2018-07-14T07:26:56.000Z</time>
      </trkpt>
      <trkpt lat="46.13514" lon="2.86131">
        <ele>684.35</ele>
        <time>2018-07-14T07:26:58.000Z</time>
      </trkpt>
      <trkpt lat="46.13498" lon="2.86135">
        <ele>683.97</ele>
        <time>2018-07-14T07:27:00.000Z</time>
      </trkpt>
      <trkpt lat="46.13483" lon="2.86139">
        <ele>683.44</ele>
        <time>2018-07-14T07:27:02.000Z</time>
      </trkpt>
      <trkpt lat="46.13468" lon="2.86143">
        <ele>683.23</ele>
        <time>2018-07-14T07:27:04.000Z</time>
      </trkpt>
      <trkpt lat="46.13454" lon="2.86148">
        <ele>683.57</ele>
        <time>2018-07-14T07:27:06.000Z</time>
      </trkpt>
      <trkpt lat="46.13439" lon="2.86152">
        <ele>683.9</ele>
        <time>2018-07-14T07:27:08.000Z</time>
      </trkpt>
      <trkpt lat="46.13425" lon="2.86157">
        <ele>684.09</ele>
        <time>2018-07-14T07:27:10.000Z</time>
      </trkpt>
      <trkpt lat="46.13412" lon="2.86161">
        <ele>684.44</ele>
        <time>2018-07-14T07:27:12.000Z</time>
      </trkpt>
      <trkpt lat="46.13398" lon="2.86167">
        <ele>684.5</ele>
        <time>2018-07-14T07:27:14.000Z</time>
      </trkpt>
      <trkpt lat="46.13385" lon="2.86172">
        <ele>684.66</ele>
        <time>2018-07-14T07:27:16.000Z</time>
      </trkpt>
      <trkpt lat="46.13372" lon="2.86176">
        <ele>685.04</ele>
        <time>2018-07-14T07:27:18.000Z</time>
      </trkpt>
      <trkpt lat="46.1336" lon="2.86182">
        <ele>685.6</ele>
        <time>2018-07-14T07:27:20.000Z</time>
      </trkpt>
      <trkpt lat="46.13348" lon="2.86191">
        <ele>685.77</ele>
        <time>2018-07-14T07:27:22.000Z</time>
      </trkpt>
      <trkpt lat="46.13337" lon="2.86203">
        <ele>686.05</ele>
        <time>2018-07-14T07:27:24.000Z</time>
      </trkpt>
      <trkpt lat="46.13326" lon="2.86217">
        <ele>685.81</ele>
        <time>2018-07-14T07:27:26.000Z</time>
      </trkpt>
      <trkpt lat="46.13316" lon="2.86232">
        <ele>686.07</ele>
        <time>2018-07-14T07:27:28.000Z</time>
      </trkpt>
      <trkpt lat="46.13305" lon="2.86251">
        <ele>686.65</ele>
        <time>2018-07-14T07:27:30.000Z</time>
      </trkpt>
      <trkpt lat="46.13299" lon="2.86261">
        <ele>686.62</ele>
        <time>2018-07-14T07:27:31.000Z</time>
      </trkpt>
      <trkpt lat="46.13294" lon="2.86271">
        <ele>686.97</ele>
        <time>2018-07-14T07:27:32.000Z</time>
      </trkpt>
      <trkpt lat="46.13287" lon="2.86281">
        <ele>687.25</ele>
        <time>2018-07-14T07:27:33.000Z</time>
      </trkpt>
      <trkpt lat="46.13281" lon="2.86291">
        <ele>687.39</ele>
        <time>2018-07-14T07:27:34.000Z</time>
      </trkpt>
      <trkpt lat="46.13274" lon="2.86301">
        <ele>687.52</ele>
        <time>2018-07-14T07:27:35.000Z</time>
      </trkpt>
      <trkpt lat="46.13268" lon="2.86311">
        <ele>687.64</ele>
        <time>2018-07-14T07:27:36.000Z</time>
      </trkpt>
      <trkpt lat="46.13261" lon="2.86322">
        <ele>687.69</ele>
        <time>2018-07-14T07:27:37.000Z</time>
      </trkpt>
      <trkpt lat="46.13255" lon="2.86332">
        <ele>687.58</ele>
        <time>2018-07-14T07:27:38.000Z</time>
      </trkpt>
      <trkpt lat="46.13248" lon="2.86342">
        <ele>687.44</ele>
        <time>2018-07-14T07:27:39.000Z</time>
      </trkpt>
      <trkpt lat="46.13241" lon="2.86353">
        <ele>687.39</ele>
        <time>2018-07-14T07:27:40.000Z</time>
      </trkpt>
      <trkpt lat="46.13235" lon="2.86364">
        <ele>687.3</ele>
        <time>2018-07-14T07:27:41.000Z</time>
      </trkpt>
      <trkpt lat="46.13228" lon="2.86376">
        <ele>687.01</ele>
        <time>2018-07-14T07:27:42.000Z</time>
      </trkpt>
      <trkpt lat="46.13221" lon="2.86386">
        <ele>686.74</ele>
        <time>2018-07-14T07:27:43.000Z</time>
      </trkpt>
      <trkpt lat="46.13214" lon="2.86397">
        <ele>686.52</ele>
        <time>2018-07-14T07:27:44.000Z</time>
      </trkpt>
      <trkpt lat="46.13207" lon="2.86408">
        <ele>686.24</ele>
        <time>2018-07-14T07:27:45.000Z</time>
      </trkpt>
      <trkpt lat="46.13199" lon="2.86419">
        <ele>686.07</ele>
        <time>2018-07-14T07:27:46.000Z</time>
      </trkpt>
      <trkpt lat="46.13192" lon="2.86429">
        <ele>685.95</ele>
        <time>2018-07-14T07:27:47.000Z</time>
      </trkpt>
      <trkpt lat="46.13184" lon="2.8644">
        <ele>685.87</ele>
        <time>2018-07-14T07:27:48.000Z</time>
      </trkpt>
      <trkpt lat="46.13176" lon="2.86452">
        <ele>685.75</ele>
        <time>2018-07-14T07:27:49.000Z</time>
      </trkpt>
      <trkpt lat="46.13168" lon="2.86463">
        <ele>685.47</ele>
        <time>2018-07-14T07:27:50.000Z</time>
      </trkpt>
      <trkpt lat="46.1316" lon="2.86475">
        <ele>685.06</ele>
        <time>2018-07-14T07:27:51.000Z</time>
      </trkpt>
      <trkpt lat="46.13152" lon="2.86486">
        <ele>684.47</ele>
        <time>2018-07-14T07:27:52.000Z</time>
      </trkpt>
      <trkpt lat="46.13144" lon="2.86498">
        <ele>683.27</ele>
        <time>2018-07-14T07:27:53.000Z</time>
      </trkpt>
      <trkpt lat="46.13136" lon="2.8651">
        <ele>682.29</ele>
        <time>2018-07-14T07:27:54.000Z</time>
      </trkpt>
      <trkpt lat="46.13127" lon="2.86522">
        <ele>681.41</ele>
        <time>2018-07-14T07:27:55.000Z</time>
      </trkpt>
      <trkpt lat="46.13119" lon="2.86534">
        <ele>680.8</ele>
        <time>2018-07-14T07:27:56.000Z</time>
      </trkpt>
      <trkpt lat="46.1311" lon="2.86546">
        <ele>679.96</ele>
        <time>2018-07-14T07:27:57.000Z</time>
      </trkpt>
      <trkpt lat="46.13101" lon="2.86559">
        <ele>679.3</ele>
        <time>2018-07-14T07:27:58.000Z</time>
      </trkpt>
      <trkpt lat="46.13092" lon="2.86573">
        <ele>678.64</ele>
        <time>2018-07-14T07:27:59.000Z</time>
      </trkpt>
      <trkpt lat="46.13083" lon="2.86587">
        <ele>677.9</ele>
        <time>2018-07-14T07:28:00.000Z</time>
      </trkpt>
      <trkpt lat="46.13075" lon="2.866">
        <ele>677.24</ele>
        <time>2018-07-14T07:28:01.000Z</time>
      </trkpt>
      <trkpt lat="46.13065" lon="2.86614">
        <ele>676.38</ele>
        <time>2018-07-14T07:28:02.000Z</time>
      </trkpt>
      <trkpt lat="46.13056" lon="2.86628">
        <ele>675.58</ele>
        <time>2018-07-14T07:28:03.000Z</time>
      </trkpt>
      <trkpt lat="46.13046" lon="2.86643">
        <ele>674.7</ele>
        <time>2018-07-14T07:28:04.000Z</time>
      </trkpt>
      <trkpt lat="46.13036" lon="2.86658">
        <ele>673.7</ele>
        <time>2018-07-14T07:28:05.000Z</time>
      </trkpt>
      <trkpt lat="46.13027" lon="2.86672">
        <ele>673.11</ele>
        <time>2018-07-14T07:28:06.000Z</time>
      </trkpt>
      <trkpt lat="46.13017" lon="2.86686">
        <ele>672.54</ele>
        <time>2018-07-14T07:28:07.000Z</time>
      </trkpt>
      <trkpt lat="46.13007" lon="2.867">
        <ele>672.08</ele>
        <time>2018-07-14T07:28:08.000Z</time>
      </trkpt>
      <trkpt lat="46.12998" lon="2.86715">
        <ele>671.32</ele>
        <time>2018-07-14T07:28:09.000Z</time>
      </trkpt>
      <trkpt lat="46.12988" lon="2.86728">
        <ele>670.62</ele>
        <time>2018-07-14T07:28:10.000Z</time>
      </trkpt>
      <trkpt lat="46.12979" lon="2.86741">
        <ele>670.3</ele>
        <time>2018-07-14T07:28:11.000Z</time>
      </trkpt>
      <trkpt lat="46.1297" lon="2.86754">
        <ele>669.95</ele>
        <time>2018-07-14T07:28:12.000Z</time>
      </trkpt>
      <trkpt lat="46.1296" lon="2.86766">
        <ele>669.68</ele>
        <time>2018-07-14T07:28:13.000Z</time>
      </trkpt>
      <trkpt lat="46.12951" lon="2.86779">
        <ele>669.31</ele>
        <time>2018-07-14T07:28:14.000Z</time>
      </trkpt>
      <trkpt lat="46.12943" lon="2.86792">
        <ele>669.01</ele>
        <time>2018-07-14T07:28:15.000Z</time>
      </trkpt>
      <trkpt lat="46.12935" lon="2.86803">
        <ele>668.73</ele>
        <time>2018-07-14T07:28:16.000Z</time>
      </trkpt>
      <trkpt lat="46.12926" lon="2.86814">
        <ele>668.42</ele>
        <time>2018-07-14T07:28:17.000Z</time>
      </trkpt>
      <trkpt lat="46.12917" lon="2.86825">
        <ele>668.33</ele>
        <time>2018-07-14T07:28:18.000Z</time>
      </trkpt>
      <trkpt lat="46.12909" lon="2.86836">
        <ele>668.26</ele>
        <time>2018-07-14T07:28:19.000Z</time>
      </trkpt>
      <trkpt lat="46.129" lon="2.86846">
        <ele>668.31</ele>
        <time>2018-07-14T07:28:20.000Z</time>
      </trkpt>
      <trkpt lat="46.12891" lon="2.86856">
        <ele>668.5</ele>
        <time>2018-07-14T07:28:21.000Z</time>
      </trkpt>
      <trkpt lat="46.12883" lon="2.86866">
        <ele>668.67</ele>
        <time>2018-07-14T07:28:22.000Z</time>
      </trkpt>
      <trkpt lat="46.12874" lon="2.86876">
        <ele>668.73</ele>
        <time>2018-07-14T07:28:23.000Z</time>
      </trkpt>
      <trkpt lat="46.12866" lon="2.86886">
        <ele>668.81</ele>
        <time>2018-07-14T07:28:24.000Z</time>
      </trkpt>
      <trkpt lat="46.12857" lon="2.86896">
        <ele>668.72</ele>
        <time>2018-07-14T07:28:25.000Z</time>
      </trkpt>
      <trkpt lat="46.12848" lon="2.86906">
        <ele>668.46</ele>
        <time>2018-07-14T07:28:26.000Z</time>
      </trkpt>
      <trkpt lat="46.1284" lon="2.86915">
        <ele>668.18</ele>
        <time>2018-07-14T07:28:27.000Z</time>
      </trkpt>
      <trkpt lat="46.1283" lon="2.86926">
        <ele>667.78</ele>
        <time>2018-07-14T07:28:28.000Z</time>
      </trkpt>
      <trkpt lat="46.12821" lon="2.86936">
        <ele>667.45</ele>
        <time>2018-07-14T07:28:29.000Z</time>
      </trkpt>
      <trkpt lat="46.12812" lon="2.86946">
        <ele>666.99</ele>
        <time>2018-07-14T07:28:30.000Z</time>
      </trkpt>
      <trkpt lat="46.12802" lon="2.86957">
        <ele>666.56</ele>
        <time>2018-07-14T07:28:31.000Z</time>
      </trkpt>
      <trkpt lat="46.12792" lon="2.86967">
        <ele>666.27</ele>
        <time>2018-07-14T07:28:32.000Z</time>
      </trkpt>
      <trkpt lat="46.12782" lon="2.86979">
        <ele>665.88</ele>
        <time>2018-07-14T07:28:33.000Z</time>
      </trkpt>
      <trkpt lat="46.12772" lon="2.8699">
        <ele>665.45</ele>
        <time>2018-07-14T07:28:34.000Z</time>
      </trkpt>
      <trkpt lat="46.12761" lon="2.87002">
        <ele>665</ele>
        <time>2018-07-14T07:28:35.000Z</time>
      </trkpt>
      <trkpt lat="46.1275" lon="2.87014">
        <ele>664.4</ele>
        <time>2018-07-14T07:28:36.000Z</time>
      </trkpt>
      <trkpt lat="46.1274" lon="2.87026">
        <ele>663.88</ele>
        <time>2018-07-14T07:28:37.000Z</time>
      </trkpt>
      <trkpt lat="46.12729" lon="2.87038">
        <ele>663.31</ele>
        <time>2018-07-14T07:28:38.000Z</time>
      </trkpt>
      <trkpt lat="46.12718" lon="2.8705">
        <ele>662.68</ele>
        <time>2018-07-14T07:28:39.000Z</time>
      </trkpt>
      <trkpt lat="46.12707" lon="2.87062">
        <ele>662.03</ele>
        <time>2018-07-14T07:28:40.000Z</time>
      </trkpt>
      <trkpt lat="46.12696" lon="2.87074">
        <ele>661.14</ele>
        <time>2018-07-14T07:28:41.000Z</time>
      </trkpt>
      <trkpt lat="46.12685" lon="2.87086">
        <ele>660.56</ele>
        <time>2018-07-14T07:28:42.000Z</time>
      </trkpt>
      <trkpt lat="46.12674" lon="2.87098">
        <ele>659.74</ele>
        <time>2018-07-14T07:28:43.000Z</time>
      </trkpt>
      <trkpt lat="46.12664" lon="2.8711">
        <ele>658.96</ele>
        <time>2018-07-14T07:28:44.000Z</time>
      </trkpt>
      <trkpt lat="46.12653" lon="2.87122">
        <ele>658.2</ele>
        <time>2018-07-14T07:28:45.000Z</time>
      </trkpt>
      <trkpt lat="46.12642" lon="2.87134">
        <ele>657.18</ele>
        <time>2018-07-14T07:28:46.000Z</time>
      </trkpt>
      <trkpt lat="46.12631" lon="2.87144">
        <ele>656.28</ele>
        <time>2018-07-14T07:28:47.000Z</time>
      </trkpt>
      <trkpt lat="46.12619" lon="2.87155">
        <ele>655.32</ele>
        <time>2018-07-14T07:28:48.000Z</time>
      </trkpt>
      <trkpt lat="46.12608" lon="2.87166">
        <ele>654.46</ele>
        <time>2018-07-14T07:28:49.000Z</time>
      </trkpt>
      <trkpt lat="46.12597" lon="2.87177">
        <ele>653.84</ele>
        <time>2018-07-14T07:28:50.000Z</time>
      </trkpt>
      <trkpt lat="46.12585" lon="2.87188">
        <ele>653.14</ele>
        <time>2018-07-14T07:28:51.000Z</time>
      </trkpt>
      <trkpt lat="46.12574" lon="2.87199">
        <ele>652.49</ele>
        <time>2018-07-14T07:28:52.000Z</time>
      </trkpt>
      <trkpt lat="46.12561" lon="2.87209">
        <ele>651.55</ele>
        <time>2018-07-14T07:28:53.000Z</time>
      </trkpt>
      <trkpt lat="46.12548" lon="2.87219">
        <ele>650.57</ele>
        <time>2018-07-14T07:28:54.000Z</time>
      </trkpt>
      <trkpt lat="46.12534" lon="2.87229">
        <ele>649.32</ele>
        <time>2018-07-14T07:28:55.000Z</time>
      </trkpt>
      <trkpt lat="46.1252" lon="2.87238">
        <ele>647.78</ele>
        <time>2018-07-14T07:28:56.000Z</time>
      </trkpt>
      <trkpt lat="46.12507" lon="2.87247">
        <ele>646.46</ele>
        <time>2018-07-14T07:28:57.000Z</time>
      </trkpt>
      <trkpt lat="46.12493" lon="2.87257">
        <ele>645.16</ele>
        <time>2018-07-14T07:28:58.000Z</time>
      </trkpt>
      <trkpt lat="46.12479" lon="2.87267">
        <ele>643.57</ele>
        <time>2018-07-14T07:28:59.000Z</time>
      </trkpt>
      <trkpt lat="46.12464" lon="2.87277">
        <ele>640.97</ele>
        <time>2018-07-14T07:29:00.000Z</time>
      </trkpt>
      <trkpt lat="46.1245" lon="2.87287">
        <ele>638.8</ele>
        <time>2018-07-14T07:29:01.000Z</time>
      </trkpt>
      <trkpt lat="46.12435" lon="2.87297">
        <ele>636.81</ele>
        <time>2018-07-14T07:29:02.000Z</time>
      </trkpt>
      <trkpt lat="46.12421" lon="2.87308">
        <ele>634.47</ele>
        <time>2018-07-14T07:29:03.000Z</time>
      </trkpt>
      <trkpt lat="46.12407" lon="2.87318">
        <ele>632.25</ele>
        <time>2018-07-14T07:29:04.000Z</time>
      </trkpt>
      <trkpt lat="46.12393" lon="2.8733">
        <ele>630.21</ele>
        <time>2018-07-14T07:29:05.000Z</time>
      </trkpt>
      <trkpt lat="46.1238" lon="2.87342">
        <ele>628.42</ele>
        <time>2018-07-14T07:29:06.000Z</time>
      </trkpt>
      <trkpt lat="46.12366" lon="2.87354">
        <ele>626.77</ele>
        <time>2018-07-14T07:29:07.000Z</time>
      </trkpt>
      <trkpt lat="46.12354" lon="2.87367">
        <ele>625.3</ele>
        <time>2018-07-14T07:29:08.000Z</time>
      </trkpt>
      <trkpt lat="46.12341" lon="2.87381">
        <ele>623.87</ele>
        <time>2018-07-14T07:29:09.000Z</time>
      </trkpt>
      <trkpt lat="46.1233" lon="2.87397">
        <ele>622.37</ele>
        <time>2018-07-14T07:29:10.000Z</time>
      </trkpt>
      <trkpt lat="46.12319" lon="2.87414">
        <ele>620.84</ele>
        <time>2018-07-14T07:29:11.000Z</time>
      </trkpt>
      <trkpt lat="46.12309" lon="2.87431">
        <ele>619.39</ele>
        <time>2018-07-14T07:29:12.000Z</time>
      </trkpt>
      <trkpt lat="46.12299" lon="2.87448">
        <ele>618.2</ele>
        <time>2018-07-14T07:29:13.000Z</time>
      </trkpt>
      <trkpt lat="46.12289" lon="2.87466">
        <ele>616.73</ele>
        <time>2018-07-14T07:29:14.000Z</time>
      </trkpt>
      <trkpt lat="46.1228" lon="2.87485">
        <ele>615.26</ele>
        <time>2018-07-14T07:29:15.000Z</time>
      </trkpt>
      <trkpt lat="46.1227" lon="2.87503">
        <ele>613.88</ele>
        <time>2018-07-14T07:29:16.000Z</time>
      </trkpt>
      <trkpt lat="46.1226" lon="2.87522">
        <ele>612.5</ele>
        <time>2018-07-14T07:29:17.000Z</time>
      </trkpt>
      <trkpt lat="46.1225" lon="2.8754">
        <ele>611.31</ele>
        <time>2018-07-14T07:29:18.000Z</time>
      </trkpt>
      <trkpt lat="46.1224" lon="2.87559">
        <ele>610.12</ele>
        <time>2018-07-14T07:29:19.000Z</time>
      </trkpt>
      <trkpt lat="46.12231" lon="2.87578">
        <ele>608.76</ele>
        <time>2018-07-14T07:29:20.000Z</time>
      </trkpt>
      <trkpt lat="46.12222" lon="2.87596">
        <ele>607.61</ele>
        <time>2018-07-14T07:29:21.000Z</time>
      </trkpt>
      <trkpt lat="46.12214" lon="2.87616">
        <ele>606.53</ele>
        <time>2018-07-14T07:29:22.000Z</time>
      </trkpt>
      <trkpt lat="46.12207" lon="2.87635">
        <ele>605.57</ele>
        <time>2018-07-14T07:29:23.000Z</time>
      </trkpt>
      <trkpt lat="46.12201" lon="2.87654">
        <ele>604.48</ele>
        <time>2018-07-14T07:29:24.000Z</time>
      </trkpt>
      <trkpt lat="46.12196" lon="2.87674">
        <ele>603.47</ele>
        <time>2018-07-14T07:29:25.000Z</time>
      </trkpt>
      <trkpt lat="46.12192" lon="2.87693">
        <ele>602.5</ele>
        <time>2018-07-14T07:29:26.000Z</time>
      </trkpt>
      <trkpt lat="46.1219" lon="2.87713">
        <ele>601.72</ele>
        <time>2018-07-14T07:29:27.000Z</time>
      </trkpt>
      <trkpt lat="46.12188" lon="2.87731">
        <ele>600.85</ele>
        <time>2018-07-14T07:29:28.000Z</time>
      </trkpt>
      <trkpt lat="46.12188" lon="2.8775">
        <ele>600.09</ele>
        <time>2018-07-14T07:29:29.000Z</time>
      </trkpt>
      <trkpt lat="46.12188" lon="2.87768">
        <ele>599.43</ele>
        <time>2018-07-14T07:29:30.000Z</time>
      </trkpt>
      <trkpt lat="46.12189" lon="2.87786">
        <ele>598.7</ele>
        <time>2018-07-14T07:29:31.000Z</time>
      </trkpt>
      <trkpt lat="46.1219" lon="2.87803">
        <ele>597.95</ele>
        <time>2018-07-14T07:29:32.000Z</time>
      </trkpt>
      <trkpt lat="46.12191" lon="2.87819">
        <ele>597.38</ele>
        <time>2018-07-14T07:29:33.000Z</time>
      </trkpt>
      <trkpt lat="46.12192" lon="2.87835">
        <ele>596.59</ele>
        <time>2018-07-14T07:29:34.000Z</time>
      </trkpt>
      <trkpt lat="46.12193" lon="2.87852">
        <ele>595.83</ele>
        <time>2018-07-14T07:29:35.000Z</time>
      </trkpt>
      <trkpt lat="46.12192" lon="2.87868">
        <ele>594.96</ele>
        <time>2018-07-14T07:29:36.000Z</time>
      </trkpt>
      <trkpt lat="46.12191" lon="2.87884">
        <ele>594.08</ele>
        <time>2018-07-14T07:29:37.000Z</time>
      </trkpt>
      <trkpt lat="46.1219" lon="2.879">
        <ele>593.18</ele>
        <time>2018-07-14T07:29:38.000Z</time>
      </trkpt>
      <trkpt lat="46.12187" lon="2.87916">
        <ele>592.22</ele>
        <time>2018-07-14T07:29:39.000Z</time>
      </trkpt>
      <trkpt lat="46.12183" lon="2.87931">
        <ele>591.26</ele>
        <time>2018-07-14T07:29:40.000Z</time>
      </trkpt>
      <trkpt lat="46.12179" lon="2.87945">
        <ele>590.43</ele>
        <time>2018-07-14T07:29:41.000Z</time>
      </trkpt>
      <trkpt lat="46.12174" lon="2.87959">
        <ele>589.6</ele>
        <time>2018-07-14T07:29:42.000Z</time>
      </trkpt>
      <trkpt lat="46.12169" lon="2.87973">
        <ele>588.83</ele>
        <time>2018-07-14T07:29:43.000Z</time>
      </trkpt>
      <trkpt lat="46.12163" lon="2.87986">
        <ele>588.23</ele>
        <time>2018-07-14T07:29:44.000Z</time>
      </trkpt>
      <trkpt lat="46.12157" lon="2.87997">
        <ele>587.7</ele>
        <time>2018-07-14T07:29:45.000Z</time>
      </trkpt>
      <trkpt lat="46.1215" lon="2.88008">
        <ele>587.14</ele>
        <time>2018-07-14T07:29:46.000Z</time>
      </trkpt>
      <trkpt lat="46.12144" lon="2.88019">
        <ele>586.62</ele>
        <time>2018-07-14T07:29:47.000Z</time>
      </trkpt>
      <trkpt lat="46.12138" lon="2.8803">
        <ele>586.29</ele>
        <time>2018-07-14T07:29:48.000Z</time>
      </trkpt>
      <trkpt lat="46.12131" lon="2.88041">
        <ele>585.79</ele>
        <time>2018-07-14T07:29:49.000Z</time>
      </trkpt>
      <trkpt lat="46.12125" lon="2.88052">
        <ele>585.33</ele>
        <time>2018-07-14T07:29:50.000Z</time>
      </trkpt>
      <trkpt lat="46.12119" lon="2.88064">
        <ele>584.86</ele>
        <time>2018-07-14T07:29:51.000Z</time>
      </trkpt>
      <trkpt lat="46.12112" lon="2.88076">
        <ele>584.35</ele>
        <time>2018-07-14T07:29:52.000Z</time>
      </trkpt>
      <trkpt lat="46.12106" lon="2.88089">
        <ele>583.84</ele>
        <time>2018-07-14T07:29:53.000Z</time>
      </trkpt>
      <trkpt lat="46.121" lon="2.881">
        <ele>583.36</ele>
        <time>2018-07-14T07:29:54.000Z</time>
      </trkpt>
      <trkpt lat="46.12093" lon="2.88112">
        <ele>582.88</ele>
        <time>2018-07-14T07:29:55.000Z</time>
      </trkpt>
      <trkpt lat="46.12087" lon="2.88123">
        <ele>582.41</ele>
        <time>2018-07-14T07:29:56.000Z</time>
      </trkpt>
      <trkpt lat="46.1208" lon="2.88135">
        <ele>581.94</ele>
        <time>2018-07-14T07:29:57.000Z</time>
      </trkpt>
      <trkpt lat="46.12074" lon="2.88145">
        <ele>581.64</ele>
        <time>2018-07-14T07:29:58.000Z</time>
      </trkpt>
      <trkpt lat="46.12067" lon="2.88155">
        <ele>581.38</ele>
        <time>2018-07-14T07:29:59.000Z</time>
      </trkpt>
      <trkpt lat="46.1206" lon="2.88165">
        <ele>581.24</ele>
        <time>2018-07-14T07:30:00.000Z</time>
      </trkpt>
      <trkpt lat="46.12053" lon="2.88174">
        <ele>581.18</ele>
        <time>2018-07-14T07:30:01.000Z</time>
      </trkpt>
      <trkpt lat="46.12046" lon="2.88185">
        <ele>581.11</ele>
        <time>2018-07-14T07:30:02.000Z</time>
      </trkpt>
      <trkpt lat="46.12039" lon="2.88196">
        <ele>580.81</ele>
        <time>2018-07-14T07:30:03.000Z</time>
      </trkpt>
      <trkpt lat="46.12032" lon="2.88208">
        <ele>580.5</ele>
        <time>2018-07-14T07:30:04.000Z</time>
      </trkpt>
      <trkpt lat="46.12025" lon="2.88219">
        <ele>580.33</ele>
        <time>2018-07-14T07:30:05.000Z</time>
      </trkpt>
      <trkpt lat="46.12018" lon="2.8823">
        <ele>580.08</ele>
        <time>2018-07-14T07:30:06.000Z</time>
      </trkpt>
      <trkpt lat="46.12011" lon="2.88242">
        <ele>579.79</ele>
        <time>2018-07-14T07:30:07.000Z</time>
      </trkpt>
      <trkpt lat="46.12005" lon="2.88253">
        <ele>579.56</ele>
        <time>2018-07-14T07:30:08.000Z</time>
      </trkpt>
      <trkpt lat="46.11998" lon="2.88264">
        <ele>579.22</ele>
        <time>2018-07-14T07:30:09.000Z</time>
      </trkpt>
      <trkpt lat="46.11991" lon="2.88275">
        <ele>578.93</ele>
        <time>2018-07-14T07:30:10.000Z</time>
      </trkpt>
      <trkpt lat="46.11984" lon="2.88285">
        <ele>578.6</ele>
        <time>2018-07-14T07:30:11.000Z</time>
      </trkpt>
      <trkpt lat="46.11977" lon="2.88296">
        <ele>578.35</ele>
        <time>2018-07-14T07:30:12.000Z</time>
      </trkpt>
      <trkpt lat="46.11969" lon="2.88307">
        <ele>578.3</ele>
        <time>2018-07-14T07:30:13.000Z</time>
      </trkpt>
      <trkpt lat="46.11962" lon="2.88319">
        <ele>578.18</ele>
        <time>2018-07-14T07:30:14.000Z</time>
      </trkpt>
      <trkpt lat="46.11955" lon="2.88329">
        <ele>578.16</ele>
        <time>2018-07-14T07:30:15.000Z</time>
      </trkpt>
      <trkpt lat="46.11948" lon="2.88339">
        <ele>578.51</ele>
        <time>2018-07-14T07:30:16.000Z</time>
      </trkpt>
      <trkpt lat="46.11941" lon="2.88349">
        <ele>578.87</ele>
        <time>2018-07-14T07:30:17.000Z</time>
      </trkpt>
      <trkpt lat="46.11934" lon="2.8836">
        <ele>579.15</ele>
        <time>2018-07-14T07:30:18.000Z</time>
      </trkpt>
      <trkpt lat="46.11927" lon="2.88371">
        <ele>579.3</ele>
        <time>2018-07-14T07:30:19.000Z</time>
      </trkpt>
      <trkpt lat="46.11921" lon="2.88382">
        <ele>579.52</ele>
        <time>2018-07-14T07:30:20.000Z</time>
      </trkpt>
      <trkpt lat="46.11914" lon="2.88393">
        <ele>579.68</ele>
        <time>2018-07-14T07:30:21.000Z</time>
      </trkpt>
      <trkpt lat="46.11907" lon="2.88405">
        <ele>579.73</ele>
        <time>2018-07-14T07:30:22.000Z</time>
      </trkpt>
      <trkpt lat="46.119" lon="2.88416">
        <ele>579.99</ele>
        <time>2018-07-14T07:30:23.000Z</time>
      </trkpt>
      <trkpt lat="46.11894" lon="2.88428">
        <ele>580</ele>
        <time>2018-07-14T07:30:24.000Z</time>
      </trkpt>
      <trkpt lat="46.11887" lon="2.8844">
        <ele>579.82</ele>
        <time>2018-07-14T07:30:25.000Z</time>
      </trkpt>
      <trkpt lat="46.11881" lon="2.88451">
        <ele>579.79</ele>
        <time>2018-07-14T07:30:26.000Z</time>
      </trkpt>
      <trkpt lat="46.11874" lon="2.88461">
        <ele>580.05</ele>
        <time>2018-07-14T07:30:27.000Z</time>
      </trkpt>
      <trkpt lat="46.11866" lon="2.88471">
        <ele>580.04</ele>
        <time>2018-07-14T07:30:28.000Z</time>
      </trkpt>
      <trkpt lat="46.11859" lon="2.8848">
        <ele>579.94</ele>
        <time>2018-07-14T07:30:29.000Z</time>
      </trkpt>
      <trkpt lat="46.11851" lon="2.88488">
        <ele>580</ele>
        <time>2018-07-14T07:30:30.000Z</time>
      </trkpt>
      <trkpt lat="46.11842" lon="2.88496">
        <ele>580.15</ele>
        <time>2018-07-14T07:30:31.000Z</time>
      </trkpt>
      <trkpt lat="46.11834" lon="2.88505">
        <ele>580.17</ele>
        <time>2018-07-14T07:30:32.000Z</time>
      </trkpt>
      <trkpt lat="46.11824" lon="2.8851">
        <ele>580.24</ele>
        <time>2018-07-14T07:30:33.000Z</time>
      </trkpt>
      <trkpt lat="46.11815" lon="2.88514">
        <ele>580.31</ele>
        <time>2018-07-14T07:30:34.000Z</time>
      </trkpt>
      <trkpt lat="46.11806" lon="2.88518">
        <ele>580.46</ele>
        <time>2018-07-14T07:30:35.000Z</time>
      </trkpt>
      <trkpt lat="46.11797" lon="2.88523">
        <ele>580.97</ele>
        <time>2018-07-14T07:30:36.000Z</time>
      </trkpt>
      <trkpt lat="46.11788" lon="2.88527">
        <ele>581.04</ele>
        <time>2018-07-14T07:30:36.999Z</time>
      </trkpt>
      <trkpt lat="46.11779" lon="2.88532">
        <ele>581.05</ele>
        <time>2018-07-14T07:30:37.999Z</time>
      </trkpt>
      <trkpt lat="46.11769" lon="2.88536">
        <ele>580.95</ele>
        <time>2018-07-14T07:30:39.000Z</time>
      </trkpt>
      <trkpt lat="46.11754" lon="2.88548">
        <ele>580.14</ele>
        <time>2018-07-14T07:30:41.000Z</time>
      </trkpt>
      <trkpt lat="46.11739" lon="2.8856">
        <ele>579.04</ele>
        <time>2018-07-14T07:30:43.000Z</time>
      </trkpt>
      <trkpt lat="46.1173" lon="2.88568">
        <ele>578.88</ele>
        <time>2018-07-14T07:30:44.000Z</time>
      </trkpt>
      <trkpt lat="46.11722" lon="2.88577">
        <ele>578.94</ele>
        <time>2018-07-14T07:30:45.000Z</time>
      </trkpt>
      <trkpt lat="46.11714" lon="2.88586">
        <ele>578.94</ele>
        <time>2018-07-14T07:30:46.000Z</time>
      </trkpt>
      <trkpt lat="46.11706" lon="2.88596">
        <ele>579.02</ele>
        <time>2018-07-14T07:30:47.000Z</time>
      </trkpt>
      <trkpt lat="46.11699" lon="2.88606">
        <ele>579</ele>
        <time>2018-07-14T07:30:48.000Z</time>
      </trkpt>
      <trkpt lat="46.11694" lon="2.88617">
        <ele>579.02</ele>
        <time>2018-07-14T07:30:49.000Z</time>
      </trkpt>
      <trkpt lat="46.11692" lon="2.88631">
        <ele>579.72</ele>
        <time>2018-07-14T07:30:50.000Z</time>
      </trkpt>
      <trkpt lat="46.11687" lon="2.88644">
        <ele>579.92</ele>
        <time>2018-07-14T07:30:51.000Z</time>
      </trkpt>
      <trkpt lat="46.11682" lon="2.88658">
        <ele>579.95</ele>
        <time>2018-07-14T07:30:52.000Z</time>
      </trkpt>
      <trkpt lat="46.11677" lon="2.88673">
        <ele>579.75</ele>
        <time>2018-07-14T07:30:53.000Z</time>
      </trkpt>
      <trkpt lat="46.11673" lon="2.88689">
        <ele>579.4</ele>
        <time>2018-07-14T07:30:54.000Z</time>
      </trkpt>
      <trkpt lat="46.1167" lon="2.88704">
        <ele>579.16</ele>
        <time>2018-07-14T07:30:55.000Z</time>
      </trkpt>
      <trkpt lat="46.11669" lon="2.88719">
        <ele>578.95</ele>
        <time>2018-07-14T07:30:56.000Z</time>
      </trkpt>
      <trkpt lat="46.11668" lon="2.88733">
        <ele>578.85</ele>
        <time>2018-07-14T07:30:57.000Z</time>
      </trkpt>
      <trkpt lat="46.11667" lon="2.88748">
        <ele>578.82</ele>
        <time>2018-07-14T07:30:58.000Z</time>
      </trkpt>
      <trkpt lat="46.11667" lon="2.88763">
        <ele>579.3</ele>
        <time>2018-07-14T07:30:59.000Z</time>
      </trkpt>
      <trkpt lat="46.11667" lon="2.88778">
        <ele>579.63</ele>
        <time>2018-07-14T07:31:00.000Z</time>
      </trkpt>
      <trkpt lat="46.11667" lon="2.88791">
        <ele>579.31</ele>
        <time>2018-07-14T07:31:01.000Z</time>
      </trkpt>
      <trkpt lat="46.11668" lon="2.88804">
        <ele>578.88</ele>
        <time>2018-07-14T07:31:02.000Z</time>
      </trkpt>
      <trkpt lat="46.1167" lon="2.88817">
        <ele>578.3</ele>
        <time>2018-07-14T07:31:03.000Z</time>
      </trkpt>
      <trkpt lat="46.11672" lon="2.88843">
        <ele>577.29</ele>
        <time>2018-07-14T07:31:05.000Z</time>
      </trkpt>
      <trkpt lat="46.11675" lon="2.88867">
        <ele>575.76</ele>
        <time>2018-07-14T07:31:07.000Z</time>
      </trkpt>
      <trkpt lat="46.11678" lon="2.88892">
        <ele>574.95</ele>
        <time>2018-07-14T07:31:09.000Z</time>
      </trkpt>
      <trkpt lat="46.11679" lon="2.88905">
        <ele>574.61</ele>
        <time>2018-07-14T07:31:10.000Z</time>
      </trkpt>
      <trkpt lat="46.1168" lon="2.8893">
        <ele>574.93</ele>
        <time>2018-07-14T07:31:12.000Z</time>
      </trkpt>
      <trkpt lat="46.11682" lon="2.88942">
        <ele>574.81</ele>
        <time>2018-07-14T07:31:13.000Z</time>
      </trkpt>
      <trkpt lat="46.11682" lon="2.88956">
        <ele>574.75</ele>
        <time>2018-07-14T07:31:14.000Z</time>
      </trkpt>
      <trkpt lat="46.11683" lon="2.88981">
        <ele>574.73</ele>
        <time>2018-07-14T07:31:16.000Z</time>
      </trkpt>
      <trkpt lat="46.1168" lon="2.89007">
        <ele>574.77</ele>
        <time>2018-07-14T07:31:18.000Z</time>
      </trkpt>
      <trkpt lat="46.11679" lon="2.89021">
        <ele>574.68</ele>
        <time>2018-07-14T07:31:19.000Z</time>
      </trkpt>
      <trkpt lat="46.11677" lon="2.89036">
        <ele>575.02</ele>
        <time>2018-07-14T07:31:20.000Z</time>
      </trkpt>
      <trkpt lat="46.11676" lon="2.89049">
        <ele>576</ele>
        <time>2018-07-14T07:31:21.000Z</time>
      </trkpt>
      <trkpt lat="46.11673" lon="2.89065">
        <ele>575.85</ele>
        <time>2018-07-14T07:31:22.000Z</time>
      </trkpt>
      <trkpt lat="46.11671" lon="2.89081">
        <ele>575.93</ele>
        <time>2018-07-14T07:31:23.000Z</time>
      </trkpt>
      <trkpt lat="46.11668" lon="2.89097">
        <ele>575.97</ele>
        <time>2018-07-14T07:31:24.000Z</time>
      </trkpt>
      <trkpt lat="46.11665" lon="2.89115">
        <ele>575.69</ele>
        <time>2018-07-14T07:31:25.000Z</time>
      </trkpt>
      <trkpt lat="46.11663" lon="2.8913">
        <ele>575.44</ele>
        <time>2018-07-14T07:31:26.000Z</time>
      </trkpt>
      <trkpt lat="46.11659" lon="2.89144">
        <ele>575.37</ele>
        <time>2018-07-14T07:31:27.000Z</time>
      </trkpt>
      <trkpt lat="46.11655" lon="2.8916">
        <ele>575.24</ele>
        <time>2018-07-14T07:31:28.000Z</time>
      </trkpt>
      <trkpt lat="46.11652" lon="2.89176">
        <ele>575.24</ele>
        <time>2018-07-14T07:31:29.000Z</time>
      </trkpt>
      <trkpt lat="46.11649" lon="2.89193">
        <ele>575.14</ele>
        <time>2018-07-14T07:31:30.000Z</time>
      </trkpt>
      <trkpt lat="46.11645" lon="2.89209">
        <ele>575.07</ele>
        <time>2018-07-14T07:31:31.000Z</time>
      </trkpt>
      <trkpt lat="46.11641" lon="2.89226">
        <ele>574.96</ele>
        <time>2018-07-14T07:31:32.000Z</time>
      </trkpt>
      <trkpt lat="46.11638" lon="2.89243">
        <ele>574.73</ele>
        <time>2018-07-14T07:31:33.000Z</time>
      </trkpt>
      <trkpt lat="46.11635" lon="2.8926">
        <ele>574.6</ele>
        <time>2018-07-14T07:31:34.000Z</time>
      </trkpt>
      <trkpt lat="46.11633" lon="2.89278">
        <ele>574.46</ele>
        <time>2018-07-14T07:31:35.000Z</time>
      </trkpt>
      <trkpt lat="46.11631" lon="2.89294">
        <ele>574.27</ele>
        <time>2018-07-14T07:31:36.000Z</time>
      </trkpt>
      <trkpt lat="46.1163" lon="2.89312">
        <ele>573.74</ele>
        <time>2018-07-14T07:31:37.000Z</time>
      </trkpt>
      <trkpt lat="46.11629" lon="2.8933">
        <ele>573.38</ele>
        <time>2018-07-14T07:31:38.000Z</time>
      </trkpt>
      <trkpt lat="46.11628" lon="2.89349">
        <ele>572.98</ele>
        <time>2018-07-14T07:31:39.000Z</time>
      </trkpt>
      <trkpt lat="46.11627" lon="2.89367">
        <ele>572.5</ele>
        <time>2018-07-14T07:31:40.000Z</time>
      </trkpt>
      <trkpt lat="46.11626" lon="2.89385">
        <ele>572</ele>
        <time>2018-07-14T07:31:41.000Z</time>
      </trkpt>
      <trkpt lat="46.11625" lon="2.89403">
        <ele>571.66</ele>
        <time>2018-07-14T07:31:42.000Z</time>
      </trkpt>
      <trkpt lat="46.11623" lon="2.89421">
        <ele>571.24</ele>
        <time>2018-07-14T07:31:43.000Z</time>
      </trkpt>
      <trkpt lat="46.11623" lon="2.89439">
        <ele>570.86</ele>
        <time>2018-07-14T07:31:44.000Z</time>
      </trkpt>
      <trkpt lat="46.11622" lon="2.89457">
        <ele>570.6</ele>
        <time>2018-07-14T07:31:45.000Z</time>
      </trkpt>
      <trkpt lat="46.11621" lon="2.89475">
        <ele>570.44</ele>
        <time>2018-07-14T07:31:46.000Z</time>
      </trkpt>
      <trkpt lat="46.1162" lon="2.89494">
        <ele>570.24</ele>
        <time>2018-07-14T07:31:47.000Z</time>
      </trkpt>
      <trkpt lat="46.11618" lon="2.89512">
        <ele>569.77</ele>
        <time>2018-07-14T07:31:48.000Z</time>
      </trkpt>
      <trkpt lat="46.11617" lon="2.89531">
        <ele>569.22</ele>
        <time>2018-07-14T07:31:49.000Z</time>
      </trkpt>
      <trkpt lat="46.11617" lon="2.8955">
        <ele>568.75</ele>
        <time>2018-07-14T07:31:50.000Z</time>
      </trkpt>
      <trkpt lat="46.11615" lon="2.89569">
        <ele>568.23</ele>
        <time>2018-07-14T07:31:51.000Z</time>
      </trkpt>
      <trkpt lat="46.11613" lon="2.89588">
        <ele>567.61</ele>
        <time>2018-07-14T07:31:52.000Z</time>
      </trkpt>
      <trkpt lat="46.1161" lon="2.89608">
        <ele>566.98</ele>
        <time>2018-07-14T07:31:53.000Z</time>
      </trkpt>
      <trkpt lat="46.11607" lon="2.89627">
        <ele>566.54</ele>
        <time>2018-07-14T07:31:54.000Z</time>
      </trkpt>
      <trkpt lat="46.11603" lon="2.89647">
        <ele>566.03</ele>
        <time>2018-07-14T07:31:55.000Z</time>
      </trkpt>
      <trkpt lat="46.11599" lon="2.89667">
        <ele>565.3</ele>
        <time>2018-07-14T07:31:56.000Z</time>
      </trkpt>
      <trkpt lat="46.11594" lon="2.89685">
        <ele>564.64</ele>
        <time>2018-07-14T07:31:57.000Z</time>
      </trkpt>
      <trkpt lat="46.11588" lon="2.89707">
        <ele>562.07</ele>
        <time>2018-07-14T07:31:58.000Z</time>
      </trkpt>
      <trkpt lat="46.11582" lon="2.89728">
        <ele>559.65</ele>
        <time>2018-07-14T07:31:59.000Z</time>
      </trkpt>
      <trkpt lat="46.11578" lon="2.89748">
        <ele>557.55</ele>
        <time>2018-07-14T07:32:00.000Z</time>
      </trkpt>
      <trkpt lat="46.11576" lon="2.89769">
        <ele>555.97</ele>
        <time>2018-07-14T07:32:01.000Z</time>
      </trkpt>
      <trkpt lat="46.11577" lon="2.8979">
        <ele>554.59</ele>
        <time>2018-07-14T07:32:02.000Z</time>
      </trkpt>
      <trkpt lat="46.11581" lon="2.89811">
        <ele>553.08</ele>
        <time>2018-07-14T07:32:03.000Z</time>
      </trkpt>
      <trkpt lat="46.11586" lon="2.89832">
        <ele>552.09</ele>
        <time>2018-07-14T07:32:04.000Z</time>
      </trkpt>
      <trkpt lat="46.11591" lon="2.89851">
        <ele>551.3</ele>
        <time>2018-07-14T07:32:05.000Z</time>
      </trkpt>
      <trkpt lat="46.11596" lon="2.89871">
        <ele>550.78</ele>
        <time>2018-07-14T07:32:06.000Z</time>
      </trkpt>
      <trkpt lat="46.11601" lon="2.89891">
        <ele>550.35</ele>
        <time>2018-07-14T07:32:07.000Z</time>
      </trkpt>
      <trkpt lat="46.11605" lon="2.89911">
        <ele>550.15</ele>
        <time>2018-07-14T07:32:08.000Z</time>
      </trkpt>
      <trkpt lat="46.11608" lon="2.89931">
        <ele>550.39</ele>
        <time>2018-07-14T07:32:09.000Z</time>
      </trkpt>
      <trkpt lat="46.1161" lon="2.89952">
        <ele>550.42</ele>
        <time>2018-07-14T07:32:10.000Z</time>
      </trkpt>
      <trkpt lat="46.1161" lon="2.89971">
        <ele>550.37</ele>
        <time>2018-07-14T07:32:11.000Z</time>
      </trkpt>
      <trkpt lat="46.11607" lon="2.89991">
        <ele>550</ele>
        <time>2018-07-14T07:32:12.000Z</time>
      </trkpt>
      <trkpt lat="46.11603" lon="2.9001">
        <ele>549.4</ele>
        <time>2018-07-14T07:32:13.000Z</time>
      </trkpt>
      <trkpt lat="46.11595" lon="2.90029">
        <ele>548.94</ele>
        <time>2018-07-14T07:32:14.000Z</time>
      </trkpt>
      <trkpt lat="46.11587" lon="2.90045">
        <ele>548.37</ele>
        <time>2018-07-14T07:32:15.000Z</time>
      </trkpt>
      <trkpt lat="46.11578" lon="2.90059">
        <ele>547.37</ele>
        <time>2018-07-14T07:32:16.000Z</time>
      </trkpt>
      <trkpt lat="46.11569" lon="2.90071">
        <ele>546.54</ele>
        <time>2018-07-14T07:32:17.000Z</time>
      </trkpt>
      <trkpt lat="46.11556" lon="2.90077">
        <ele>545.87</ele>
        <time>2018-07-14T07:32:18.000Z</time>
      </trkpt>
      <trkpt lat="46.11548" lon="2.90087">
        <ele>545.13</ele>
        <time>2018-07-14T07:32:19.000Z</time>
      </trkpt>
      <trkpt lat="46.11538" lon="2.90095">
        <ele>544.66</ele>
        <time>2018-07-14T07:32:20.000Z</time>
      </trkpt>
      <trkpt lat="46.11524" lon="2.90103">
        <ele>544.26</ele>
        <time>2018-07-14T07:32:21.000Z</time>
      </trkpt>
      <trkpt lat="46.11512" lon="2.90113">
        <ele>543.82</ele>
        <time>2018-07-14T07:32:22.000Z</time>
      </trkpt>
      <trkpt lat="46.11501" lon="2.90124">
        <ele>543.34</ele>
        <time>2018-07-14T07:32:23.000Z</time>
      </trkpt>
      <trkpt lat="46.1149" lon="2.90137">
        <ele>542.74</ele>
        <time>2018-07-14T07:32:24.000Z</time>
      </trkpt>
      <trkpt lat="46.11478" lon="2.90151">
        <ele>542.2</ele>
        <time>2018-07-14T07:32:25.000Z</time>
      </trkpt>
      <trkpt lat="46.11466" lon="2.90164">
        <ele>541.63</ele>
        <time>2018-07-14T07:32:26.000Z</time>
      </trkpt>
      <trkpt lat="46.11454" lon="2.90177">
        <ele>541.04</ele>
        <time>2018-07-14T07:32:27.000Z</time>
      </trkpt>
      <trkpt lat="46.11443" lon="2.9019">
        <ele>540.46</ele>
        <time>2018-07-14T07:32:28.000Z</time>
      </trkpt>
      <trkpt lat="46.11432" lon="2.90204">
        <ele>539.9</ele>
        <time>2018-07-14T07:32:29.000Z</time>
      </trkpt>
      <trkpt lat="46.11421" lon="2.90217">
        <ele>539.34</ele>
        <time>2018-07-14T07:32:30.000Z</time>
      </trkpt>
      <trkpt lat="46.11411" lon="2.90232">
        <ele>538.82</ele>
        <time>2018-07-14T07:32:31.000Z</time>
      </trkpt>
      <trkpt lat="46.11401" lon="2.90246">
        <ele>538.38</ele>
        <time>2018-07-14T07:32:32.000Z</time>
      </trkpt>
      <trkpt lat="46.11391" lon="2.9026">
        <ele>537.83</ele>
        <time>2018-07-14T07:32:33.000Z</time>
      </trkpt>
      <trkpt lat="46.11381" lon="2.90275">
        <ele>537.28</ele>
        <time>2018-07-14T07:32:34.000Z</time>
      </trkpt>
      <trkpt lat="46.11371" lon="2.90289">
        <ele>536.77</ele>
        <time>2018-07-14T07:32:35.000Z</time>
      </trkpt>
      <trkpt lat="46.1136" lon="2.90302">
        <ele>536.21</ele>
        <time>2018-07-14T07:32:36.000Z</time>
      </trkpt>
      <trkpt lat="46.11349" lon="2.90315">
        <ele>535.62</ele>
        <time>2018-07-14T07:32:37.000Z</time>
      </trkpt>
      <trkpt lat="46.11338" lon="2.90329">
        <ele>534.97</ele>
        <time>2018-07-14T07:32:38.000Z</time>
      </trkpt>
      <trkpt lat="46.11328" lon="2.90343">
        <ele>534.44</ele>
        <time>2018-07-14T07:32:39.000Z</time>
      </trkpt>
      <trkpt lat="46.11319" lon="2.90357">
        <ele>533.82</ele>
        <time>2018-07-14T07:32:40.000Z</time>
      </trkpt>
      <trkpt lat="46.1131" lon="2.90372">
        <ele>533.14</ele>
        <time>2018-07-14T07:32:41.000Z</time>
      </trkpt>
      <trkpt lat="46.11301" lon="2.90387">
        <ele>532.53</ele>
        <time>2018-07-14T07:32:42.000Z</time>
      </trkpt>
      <trkpt lat="46.11294" lon="2.90404">
        <ele>531.89</ele>
        <time>2018-07-14T07:32:43.000Z</time>
      </trkpt>
      <trkpt lat="46.11287" lon="2.9042">
        <ele>531.49</ele>
        <time>2018-07-14T07:32:44.000Z</time>
      </trkpt>
      <trkpt lat="46.11279" lon="2.90438">
        <ele>529.59</ele>
        <time>2018-07-14T07:32:45.000Z</time>
      </trkpt>
      <trkpt lat="46.11268" lon="2.90456">
        <ele>525.68</ele>
        <time>2018-07-14T07:32:46.000Z</time>
      </trkpt>
      <trkpt lat="46.11258" lon="2.90473">
        <ele>522.19</ele>
        <time>2018-07-14T07:32:47.000Z</time>
      </trkpt>
      <trkpt lat="46.11247" lon="2.90492">
        <ele>518.85</ele>
        <time>2018-07-14T07:32:48.000Z</time>
      </trkpt>
      <trkpt lat="46.11239" lon="2.9051">
        <ele>516.71</ele>
        <time>2018-07-14T07:32:49.000Z</time>
      </trkpt>
      <trkpt lat="46.11231" lon="2.90529">
        <ele>514.35</ele>
        <time>2018-07-14T07:32:50.000Z</time>
      </trkpt>
      <trkpt lat="46.11225" lon="2.90549">
        <ele>512.39</ele>
        <time>2018-07-14T07:32:51.000Z</time>
      </trkpt>
      <trkpt lat="46.11218" lon="2.90568">
        <ele>510.1</ele>
        <time>2018-07-14T07:32:52.000Z</time>
      </trkpt>
      <trkpt lat="46.11214" lon="2.90589">
        <ele>507.64</ele>
        <time>2018-07-14T07:32:53.000Z</time>
      </trkpt>
      <trkpt lat="46.11211" lon="2.9061">
        <ele>506.79</ele>
        <time>2018-07-14T07:32:54.000Z</time>
      </trkpt>
      <trkpt lat="46.1121" lon="2.90631">
        <ele>505.93</ele>
        <time>2018-07-14T07:32:55.000Z</time>
      </trkpt>
      <trkpt lat="46.11208" lon="2.90654">
        <ele>505</ele>
        <time>2018-07-14T07:32:56.000Z</time>
      </trkpt>
      <trkpt lat="46.11206" lon="2.90676">
        <ele>504.06</ele>
        <time>2018-07-14T07:32:57.000Z</time>
      </trkpt>
      <trkpt lat="46.11201" lon="2.90697">
        <ele>502.84</ele>
        <time>2018-07-14T07:32:58.000Z</time>
      </trkpt>
      <trkpt lat="46.11194" lon="2.90717">
        <ele>501.76</ele>
        <time>2018-07-14T07:32:59.000Z</time>
      </trkpt>
      <trkpt lat="46.11184" lon="2.90733">
        <ele>500.77</ele>
        <time>2018-07-14T07:33:00.000Z</time>
      </trkpt>
      <trkpt lat="46.11172" lon="2.90748">
        <ele>499.7</ele>
        <time>2018-07-14T07:33:01.000Z</time>
      </trkpt>
      <trkpt lat="46.1116" lon="2.90761">
        <ele>498.81</ele>
        <time>2018-07-14T07:33:02.000Z</time>
      </trkpt>
      <trkpt lat="46.11147" lon="2.90772">
        <ele>497.9</ele>
        <time>2018-07-14T07:33:03.000Z</time>
      </trkpt>
      <trkpt lat="46.11133" lon="2.9078">
        <ele>497.04</ele>
        <time>2018-07-14T07:33:04.000Z</time>
      </trkpt>
      <trkpt lat="46.11116" lon="2.90784">
        <ele>496.12</ele>
        <time>2018-07-14T07:33:05.000Z</time>
      </trkpt>
      <trkpt lat="46.111" lon="2.90789">
        <ele>495.19</ele>
        <time>2018-07-14T07:33:06.000Z</time>
      </trkpt>
      <trkpt lat="46.11083" lon="2.90793">
        <ele>494.38</ele>
        <time>2018-07-14T07:33:07.000Z</time>
      </trkpt>
      <trkpt lat="46.11066" lon="2.90799">
        <ele>493.55</ele>
        <time>2018-07-14T07:33:08.000Z</time>
      </trkpt>
      <trkpt lat="46.11052" lon="2.90808">
        <ele>492.6</ele>
        <time>2018-07-14T07:33:09.000Z</time>
      </trkpt>
      <trkpt lat="46.11036" lon="2.90819">
        <ele>491.76</ele>
        <time>2018-07-14T07:33:10.000Z</time>
      </trkpt>
      <trkpt lat="46.11023" lon="2.90833">
        <ele>491.05</ele>
        <time>2018-07-14T07:33:11.000Z</time>
      </trkpt>
      <trkpt lat="46.1101" lon="2.90847">
        <ele>490.49</ele>
        <time>2018-07-14T07:33:12.000Z</time>
      </trkpt>
      <trkpt lat="46.10998" lon="2.90864">
        <ele>489.75</ele>
        <time>2018-07-14T07:33:13.000Z</time>
      </trkpt>
      <trkpt lat="46.10989" lon="2.90881">
        <ele>488.62</ele>
        <time>2018-07-14T07:33:14.000Z</time>
      </trkpt>
      <trkpt lat="46.1098" lon="2.90898">
        <ele>487.4</ele>
        <time>2018-07-14T07:33:15.000Z</time>
      </trkpt>
      <trkpt lat="46.1097" lon="2.90915">
        <ele>486.15</ele>
        <time>2018-07-14T07:33:16.000Z</time>
      </trkpt>
      <trkpt lat="46.10961" lon="2.90932">
        <ele>485.03</ele>
        <time>2018-07-14T07:33:17.000Z</time>
      </trkpt>
      <trkpt lat="46.10951" lon="2.90948">
        <ele>484.06</ele>
        <time>2018-07-14T07:33:18.000Z</time>
      </trkpt>
      <trkpt lat="46.10941" lon="2.90964">
        <ele>483.24</ele>
        <time>2018-07-14T07:33:19.000Z</time>
      </trkpt>
      <trkpt lat="46.1093" lon="2.90978">
        <ele>482.5</ele>
        <time>2018-07-14T07:33:20.000Z</time>
      </trkpt>
      <trkpt lat="46.1092" lon="2.90992">
        <ele>481.57</ele>
        <time>2018-07-14T07:33:21.000Z</time>
      </trkpt>
      <trkpt lat="46.10909" lon="2.91007">
        <ele>480.4</ele>
        <time>2018-07-14T07:33:22.000Z</time>
      </trkpt>
      <trkpt lat="46.10899" lon="2.91022">
        <ele>479.49</ele>
        <time>2018-07-14T07:33:23.000Z</time>
      </trkpt>
      <trkpt lat="46.10889" lon="2.91038">
        <ele>478.27</ele>
        <time>2018-07-14T07:33:24.000Z</time>
      </trkpt>
      <trkpt lat="46.10878" lon="2.91053">
        <ele>476.93</ele>
        <time>2018-07-14T07:33:25.000Z</time>
      </trkpt>
      <trkpt lat="46.10865" lon="2.91068">
        <ele>475.03</ele>
        <time>2018-07-14T07:33:26.000Z</time>
      </trkpt>
      <trkpt lat="46.10851" lon="2.91083">
        <ele>473.23</ele>
        <time>2018-07-14T07:33:27.000Z</time>
      </trkpt>
      <trkpt lat="46.10838" lon="2.91097">
        <ele>471.36</ele>
        <time>2018-07-14T07:33:28.000Z</time>
      </trkpt>
      <trkpt lat="46.10825" lon="2.91112">
        <ele>469.53</ele>
        <time>2018-07-14T07:33:29.000Z</time>
      </trkpt>
      <trkpt lat="46.10812" lon="2.91128">
        <ele>468.08</ele>
        <time>2018-07-14T07:33:30.000Z</time>
      </trkpt>
      <trkpt lat="46.10799" lon="2.91143">
        <ele>466.71</ele>
        <time>2018-07-14T07:33:31.000Z</time>
      </trkpt>
      <trkpt lat="46.10786" lon="2.91158">
        <ele>464.99</ele>
        <time>2018-07-14T07:33:32.000Z</time>
      </trkpt>
      <trkpt lat="46.10773" lon="2.91173">
        <ele>463.4</ele>
        <time>2018-07-14T07:33:33.000Z</time>
      </trkpt>
      <trkpt lat="46.10759" lon="2.91186">
        <ele>462.13</ele>
        <time>2018-07-14T07:33:34.000Z</time>
      </trkpt>
      <trkpt lat="46.10746" lon="2.91199">
        <ele>460.66</ele>
        <time>2018-07-14T07:33:35.000Z</time>
      </trkpt>
      <trkpt lat="46.10732" lon="2.91212">
        <ele>458.59</ele>
        <time>2018-07-14T07:33:36.000Z</time>
      </trkpt>
      <trkpt lat="46.10717" lon="2.91224">
        <ele>456.72</ele>
        <time>2018-07-14T07:33:37.000Z</time>
      </trkpt>
      <trkpt lat="46.10703" lon="2.91237">
        <ele>454.99</ele>
        <time>2018-07-14T07:33:38.000Z</time>
      </trkpt>
      <trkpt lat="46.1069" lon="2.91249">
        <ele>453.41</ele>
        <time>2018-07-14T07:33:39.000Z</time>
      </trkpt>
      <trkpt lat="46.10678" lon="2.91261">
        <ele>451.96</ele>
        <time>2018-07-14T07:33:40.000Z</time>
      </trkpt>
      <trkpt lat="46.10666" lon="2.91272">
        <ele>450.56</ele>
        <time>2018-07-14T07:33:41.000Z</time>
      </trkpt>
      <trkpt lat="46.10654" lon="2.91284">
        <ele>449.27</ele>
        <time>2018-07-14T07:33:42.000Z</time>
      </trkpt>
      <trkpt lat="46.10643" lon="2.91296">
        <ele>447.93</ele>
        <time>2018-07-14T07:33:43.000Z</time>
      </trkpt>
      <trkpt lat="46.10632" lon="2.91308">
        <ele>446.99</ele>
        <time>2018-07-14T07:33:44.000Z</time>
      </trkpt>
      <trkpt lat="46.10622" lon="2.91319">
        <ele>446.16</ele>
        <time>2018-07-14T07:33:45.000Z</time>
      </trkpt>
      <trkpt lat="46.10611" lon="2.91331">
        <ele>445.27</ele>
        <time>2018-07-14T07:33:46.000Z</time>
      </trkpt>
      <trkpt lat="46.10601" lon="2.91342">
        <ele>444.28</ele>
        <time>2018-07-14T07:33:47.000Z</time>
      </trkpt>
      <trkpt lat="46.10591" lon="2.91353">
        <ele>443.76</ele>
        <time>2018-07-14T07:33:48.000Z</time>
      </trkpt>
      <trkpt lat="46.10581" lon="2.91364">
        <ele>442.83</ele>
        <time>2018-07-14T07:33:49.000Z</time>
      </trkpt>
      <trkpt lat="46.10571" lon="2.91375">
        <ele>442.22</ele>
        <time>2018-07-14T07:33:50.000Z</time>
      </trkpt>
      <trkpt lat="46.10561" lon="2.91386">
        <ele>441.81</ele>
        <time>2018-07-14T07:33:51.000Z</time>
      </trkpt>
      <trkpt lat="46.10551" lon="2.91395">
        <ele>441.52</ele>
        <time>2018-07-14T07:33:52.000Z</time>
      </trkpt>
      <trkpt lat="46.10541" lon="2.91405">
        <ele>440.69</ele>
        <time>2018-07-14T07:33:53.000Z</time>
      </trkpt>
      <trkpt lat="46.10531" lon="2.91415">
        <ele>439.97</ele>
        <time>2018-07-14T07:33:54.000Z</time>
      </trkpt>
      <trkpt lat="46.1052" lon="2.91424">
        <ele>439.15</ele>
        <time>2018-07-14T07:33:55.000Z</time>
      </trkpt>
      <trkpt lat="46.10511" lon="2.91434">
        <ele>438.41</ele>
        <time>2018-07-14T07:33:56.000Z</time>
      </trkpt>
      <trkpt lat="46.105" lon="2.91443">
        <ele>437.4</ele>
        <time>2018-07-14T07:33:57.000Z</time>
      </trkpt>
      <trkpt lat="46.1049" lon="2.91452">
        <ele>436.43</ele>
        <time>2018-07-14T07:33:58.000Z</time>
      </trkpt>
      <trkpt lat="46.10482" lon="2.91462">
        <ele>435.74</ele>
        <time>2018-07-14T07:33:59.000Z</time>
      </trkpt>
      <trkpt lat="46.10474" lon="2.91473">
        <ele>435.12</ele>
        <time>2018-07-14T07:34:00.000Z</time>
      </trkpt>
      <trkpt lat="46.10466" lon="2.91484">
        <ele>434.44</ele>
        <time>2018-07-14T07:34:01.000Z</time>
      </trkpt>
      <trkpt lat="46.10458" lon="2.91496">
        <ele>433.86</ele>
        <time>2018-07-14T07:34:02.000Z</time>
      </trkpt>
      <trkpt lat="46.10451" lon="2.91509">
        <ele>433.34</ele>
        <time>2018-07-14T07:34:03.000Z</time>
      </trkpt>
      <trkpt lat="46.10444" lon="2.91522">
        <ele>432.74</ele>
        <time>2018-07-14T07:34:04.000Z</time>
      </trkpt>
      <trkpt lat="46.10436" lon="2.91534">
        <ele>432.15</ele>
        <time>2018-07-14T07:34:05.000Z</time>
      </trkpt>
      <trkpt lat="46.1043" lon="2.91548">
        <ele>431.58</ele>
        <time>2018-07-14T07:34:06.000Z</time>
      </trkpt>
      <trkpt lat="46.10424" lon="2.91561">
        <ele>430.9</ele>
        <time>2018-07-14T07:34:07.000Z</time>
      </trkpt>
      <trkpt lat="46.10418" lon="2.91574">
        <ele>430.15</ele>
        <time>2018-07-14T07:34:08.000Z</time>
      </trkpt>
      <trkpt lat="46.10412" lon="2.91588">
        <ele>429.43</ele>
        <time>2018-07-14T07:34:09.000Z</time>
      </trkpt>
      <trkpt lat="46.10407" lon="2.91601">
        <ele>428.7</ele>
        <time>2018-07-14T07:34:10.000Z</time>
      </trkpt>
      <trkpt lat="46.10402" lon="2.91615">
        <ele>427.93</ele>
        <time>2018-07-14T07:34:11.000Z</time>
      </trkpt>
      <trkpt lat="46.10397" lon="2.91629">
        <ele>427.16</ele>
        <time>2018-07-14T07:34:12.000Z</time>
      </trkpt>
      <trkpt lat="46.10393" lon="2.91643">
        <ele>426.25</ele>
        <time>2018-07-14T07:34:13.000Z</time>
      </trkpt>
      <trkpt lat="46.1039" lon="2.91657">
        <ele>425.42</ele>
        <time>2018-07-14T07:34:14.000Z</time>
      </trkpt>
      <trkpt lat="46.10387" lon="2.91673">
        <ele>424.43</ele>
        <time>2018-07-14T07:34:15.000Z</time>
      </trkpt>
      <trkpt lat="46.10384" lon="2.91688">
        <ele>423.27</ele>
        <time>2018-07-14T07:34:16.000Z</time>
      </trkpt>
      <trkpt lat="46.10383" lon="2.91703">
        <ele>422.35</ele>
        <time>2018-07-14T07:34:17.000Z</time>
      </trkpt>
      <trkpt lat="46.10383" lon="2.91719">
        <ele>421.44</ele>
        <time>2018-07-14T07:34:18.000Z</time>
      </trkpt>
      <trkpt lat="46.10382" lon="2.91736">
        <ele>420.56</ele>
        <time>2018-07-14T07:34:19.000Z</time>
      </trkpt>
      <trkpt lat="46.10383" lon="2.91751">
        <ele>419.73</ele>
        <time>2018-07-14T07:34:20.000Z</time>
      </trkpt>
      <trkpt lat="46.10385" lon="2.91767">
        <ele>418.89</ele>
        <time>2018-07-14T07:34:21.000Z</time>
      </trkpt>
      <trkpt lat="46.10386" lon="2.91783">
        <ele>418.13</ele>
        <time>2018-07-14T07:34:22.000Z</time>
      </trkpt>
      <trkpt lat="46.10388" lon="2.91799">
        <ele>417.33</ele>
        <time>2018-07-14T07:34:23.000Z</time>
      </trkpt>
      <trkpt lat="46.10388" lon="2.91815">
        <ele>416.49</ele>
        <time>2018-07-14T07:34:24.000Z</time>
      </trkpt>
      <trkpt lat="46.10389" lon="2.9183">
        <ele>415.67</ele>
        <time>2018-07-14T07:34:25.000Z</time>
      </trkpt>
      <trkpt lat="46.10388" lon="2.91844">
        <ele>415.04</ele>
        <time>2018-07-14T07:34:26.000Z</time>
      </trkpt>
      <trkpt lat="46.10387" lon="2.91858">
        <ele>414.48</ele>
        <time>2018-07-14T07:34:27.000Z</time>
      </trkpt>
      <trkpt lat="46.10385" lon="2.91872">
        <ele>413.65</ele>
        <time>2018-07-14T07:34:28.000Z</time>
      </trkpt>
      <trkpt lat="46.10383" lon="2.91887">
        <ele>413.03</ele>
        <time>2018-07-14T07:34:29.000Z</time>
      </trkpt>
      <trkpt lat="46.1038" lon="2.91902">
        <ele>412.28</ele>
        <time>2018-07-14T07:34:30.000Z</time>
      </trkpt>
      <trkpt lat="46.10379" lon="2.91917">
        <ele>411.53</ele>
        <time>2018-07-14T07:34:31.000Z</time>
      </trkpt>
      <trkpt lat="46.10379" lon="2.91932">
        <ele>410.8</ele>
        <time>2018-07-14T07:34:32.000Z</time>
      </trkpt>
      <trkpt lat="46.10378" lon="2.91946">
        <ele>409.98</ele>
        <time>2018-07-14T07:34:33.000Z</time>
      </trkpt>
      <trkpt lat="46.10376" lon="2.9196">
        <ele>409.15</ele>
        <time>2018-07-14T07:34:34.000Z</time>
      </trkpt>
      <trkpt lat="46.10378" lon="2.91976">
        <ele>408.25</ele>
        <time>2018-07-14T07:34:35.000Z</time>
      </trkpt>
      <trkpt lat="46.10379" lon="2.9199">
        <ele>407.39</ele>
        <time>2018-07-14T07:34:36.000Z</time>
      </trkpt>
      <trkpt lat="46.1038" lon="2.92004">
        <ele>406.46</ele>
        <time>2018-07-14T07:34:37.000Z</time>
      </trkpt>
      <trkpt lat="46.10381" lon="2.92018">
        <ele>405.66</ele>
        <time>2018-07-14T07:34:38.000Z</time>
      </trkpt>
      <trkpt lat="46.10382" lon="2.92034">
        <ele>405.59</ele>
        <time>2018-07-14T07:34:39.000Z</time>
      </trkpt>
      <trkpt lat="46.10382" lon="2.9205">
        <ele>405.71</ele>
        <time>2018-07-14T07:34:40.000Z</time>
      </trkpt>
      <trkpt lat="46.10383" lon="2.92065">
        <ele>405.67</ele>
        <time>2018-07-14T07:34:41.000Z</time>
      </trkpt>
      <trkpt lat="46.10383" lon="2.92079">
        <ele>405.52</ele>
        <time>2018-07-14T07:34:42.000Z</time>
      </trkpt>
      <trkpt lat="46.10384" lon="2.92094">
        <ele>405.39</ele>
        <time>2018-07-14T07:34:43.000Z</time>
      </trkpt>
      <trkpt lat="46.10385" lon="2.92108">
        <ele>405.55</ele>
        <time>2018-07-14T07:34:44.000Z</time>
      </trkpt>
      <trkpt lat="46.10386" lon="2.92122">
        <ele>405.59</ele>
        <time>2018-07-14T07:34:45.000Z</time>
      </trkpt>
      <trkpt lat="46.10387" lon="2.92136">
        <ele>405.33</ele>
        <time>2018-07-14T07:34:46.000Z</time>
      </trkpt>
      <trkpt lat="46.10388" lon="2.92149">
        <ele>405.16</ele>
        <time>2018-07-14T07:34:47.000Z</time>
      </trkpt>
      <trkpt lat="46.10387" lon="2.92162">
        <ele>404.53</ele>
        <time>2018-07-14T07:34:48.000Z</time>
      </trkpt>
      <trkpt lat="46.10385" lon="2.92175">
        <ele>403.85</ele>
        <time>2018-07-14T07:34:49.000Z</time>
      </trkpt>
      <trkpt lat="46.1038" lon="2.92188">
        <ele>403.39</ele>
        <time>2018-07-14T07:34:50.000Z</time>
      </trkpt>
      <trkpt lat="46.10374" lon="2.922">
        <ele>402.94</ele>
        <time>2018-07-14T07:34:51.000Z</time>
      </trkpt>
      <trkpt lat="46.10366" lon="2.92208">
        <ele>403.45</ele>
        <time>2018-07-14T07:34:52.000Z</time>
      </trkpt>
      <trkpt lat="46.10349" lon="2.92218">
        <ele>403.26</ele>
        <time>2018-07-14T07:34:54.000Z</time>
      </trkpt>
      <trkpt lat="46.1034" lon="2.9222">
        <ele>403.11</ele>
        <time>2018-07-14T07:34:55.000Z</time>
      </trkpt>
      <trkpt lat="46.10328" lon="2.92222">
        <ele>403.03</ele>
        <time>2018-07-14T07:34:56.000Z</time>
      </trkpt>
      <trkpt lat="46.10318" lon="2.92223">
        <ele>402.94</ele>
        <time>2018-07-14T07:34:57.000Z</time>
      </trkpt>
      <trkpt lat="46.10308" lon="2.92225">
        <ele>402.8</ele>
        <time>2018-07-14T07:34:58.000Z</time>
      </trkpt>
      <trkpt lat="46.10298" lon="2.92225">
        <ele>402.43</ele>
        <time>2018-07-14T07:34:59.000Z</time>
      </trkpt>
      <trkpt lat="46.10289" lon="2.92226">
        <ele>402.13</ele>
        <time>2018-07-14T07:35:00.000Z</time>
      </trkpt>
      <trkpt lat="46.10269" lon="2.92228">
        <ele>401.87</ele>
        <time>2018-07-14T07:35:02.000Z</time>
      </trkpt>
      <trkpt lat="46.10257" lon="2.9223">
        <ele>401.43</ele>
        <time>2018-07-14T07:35:04.000Z</time>
      </trkpt>
      <trkpt lat="46.10246" lon="2.92235">
        <ele>400.47</ele>
        <time>2018-07-14T07:35:06.000Z</time>
      </trkpt>
      <trkpt lat="46.10238" lon="2.92245">
        <ele>399.35</ele>
        <time>2018-07-14T07:35:08.000Z</time>
      </trkpt>
      <trkpt lat="46.10227" lon="2.92259">
        <ele>398.1</ele>
        <time>2018-07-14T07:35:10.000Z</time>
      </trkpt>
      <trkpt lat="46.1022" lon="2.92266">
        <ele>397.56</ele>
        <time>2018-07-14T07:35:11.000Z</time>
      </trkpt>
      <trkpt lat="46.10214" lon="2.92277">
        <ele>397.18</ele>
        <time>2018-07-14T07:35:12.000Z</time>
      </trkpt>
      <trkpt lat="46.10204" lon="2.92292">
        <ele>397.82</ele>
        <time>2018-07-14T07:35:13.000Z</time>
      </trkpt>
      <trkpt lat="46.10194" lon="2.92305">
        <ele>398.18</ele>
        <time>2018-07-14T07:35:14.000Z</time>
      </trkpt>
      <trkpt lat="46.10184" lon="2.92319">
        <ele>398.39</ele>
        <time>2018-07-14T07:35:15.000Z</time>
      </trkpt>
      <trkpt lat="46.10181" lon="2.92335">
        <ele>398.5</ele>
        <time>2018-07-14T07:35:16.000Z</time>
      </trkpt>
      <trkpt lat="46.10179" lon="2.9235">
        <ele>398.18</ele>
        <time>2018-07-14T07:35:17.000Z</time>
      </trkpt>
      <trkpt lat="46.10176" lon="2.92363">
        <ele>397.84</ele>
        <time>2018-07-14T07:35:18.000Z</time>
      </trkpt>
      <trkpt lat="46.10175" lon="2.92376">
        <ele>397.66</ele>
        <time>2018-07-14T07:35:19.000Z</time>
      </trkpt>
      <trkpt lat="46.10173" lon="2.92391">
        <ele>396.71</ele>
        <time>2018-07-14T07:35:20.000Z</time>
      </trkpt>
      <trkpt lat="46.10173" lon="2.92405">
        <ele>396.37</ele>
        <time>2018-07-14T07:35:21.000Z</time>
      </trkpt>
      <trkpt lat="46.10177" lon="2.92421">
        <ele>396.39</ele>
        <time>2018-07-14T07:35:22.000Z</time>
      </trkpt>
      <trkpt lat="46.10179" lon="2.92437">
        <ele>396.77</ele>
        <time>2018-07-14T07:35:23.000Z</time>
      </trkpt>
      <trkpt lat="46.10179" lon="2.92451">
        <ele>397.14</ele>
        <time>2018-07-14T07:35:24.000Z</time>
      </trkpt>
      <trkpt lat="46.10177" lon="2.92465">
        <ele>397.63</ele>
        <time>2018-07-14T07:35:25.000Z</time>
      </trkpt>
      <trkpt lat="46.10175" lon="2.9248">
        <ele>398.28</ele>
        <time>2018-07-14T07:35:26.000Z</time>
      </trkpt>
      <trkpt lat="46.10171" lon="2.92494">
        <ele>398.91</ele>
        <time>2018-07-14T07:35:27.000Z</time>
      </trkpt>
      <trkpt lat="46.10165" lon="2.92506">
        <ele>399.14</ele>
        <time>2018-07-14T07:35:28.000Z</time>
      </trkpt>
      <trkpt lat="46.10159" lon="2.92516">
        <ele>399.21</ele>
        <time>2018-07-14T07:35:29.000Z</time>
      </trkpt>
      <trkpt lat="46.10152" lon="2.92526">
        <ele>399.19</ele>
        <time>2018-07-14T07:35:30.000Z</time>
      </trkpt>
      <trkpt lat="46.10142" lon="2.92532">
        <ele>399.1</ele>
        <time>2018-07-14T07:35:31.000Z</time>
      </trkpt>
      <trkpt lat="46.10133" lon="2.92538">
        <ele>399.2</ele>
        <time>2018-07-14T07:35:32.000Z</time>
      </trkpt>
      <trkpt lat="46.10123" lon="2.92543">
        <ele>398.95</ele>
        <time>2018-07-14T07:35:33.000Z</time>
      </trkpt>
      <trkpt lat="46.10112" lon="2.92545">
        <ele>398.67</ele>
        <time>2018-07-14T07:35:34.000Z</time>
      </trkpt>
      <trkpt lat="46.10102" lon="2.92547">
        <ele>398.92</ele>
        <time>2018-07-14T07:35:35.000Z</time>
      </trkpt>
      <trkpt lat="46.10093" lon="2.9255">
        <ele>398.78</ele>
        <time>2018-07-14T07:35:36.000Z</time>
      </trkpt>
      <trkpt lat="46.10083" lon="2.92554">
        <ele>398.77</ele>
        <time>2018-07-14T07:35:37.000Z</time>
      </trkpt>
      <trkpt lat="46.10074" lon="2.9256">
        <ele>399.2</ele>
        <time>2018-07-14T07:35:38.000Z</time>
      </trkpt>
      <trkpt lat="46.10066" lon="2.92568">
        <ele>399.26</ele>
        <time>2018-07-14T07:35:39.000Z</time>
      </trkpt>
      <trkpt lat="46.10059" lon="2.92578">
        <ele>398.92</ele>
        <time>2018-07-14T07:35:40.000Z</time>
      </trkpt>
      <trkpt lat="46.10053" lon="2.92588">
        <ele>398.76</ele>
        <time>2018-07-14T07:35:41.000Z</time>
      </trkpt>
      <trkpt lat="46.10044" lon="2.92608">
        <ele>399.36</ele>
        <time>2018-07-14T07:35:43.000Z</time>
      </trkpt>
      <trkpt lat="46.10039" lon="2.92632">
        <ele>400.06</ele>
        <time>2018-07-14T07:35:45.000Z</time>
      </trkpt>
      <trkpt lat="46.10037" lon="2.92656">
        <ele>400.68</ele>
        <time>2018-07-14T07:35:47.000Z</time>
      </trkpt>
      <trkpt lat="46.10038" lon="2.92675">
        <ele>400.99</ele>
        <time>2018-07-14T07:35:49.000Z</time>
      </trkpt>
      <trkpt lat="46.10047" lon="2.92687">
        <ele>401.71</ele>
        <time>2018-07-14T07:35:51.000Z</time>
      </trkpt>
      <trkpt lat="46.10061" lon="2.92697">
        <ele>401.83</ele>
        <time>2018-07-14T07:35:53.000Z</time>
      </trkpt>
      <trkpt lat="46.10073" lon="2.92713">
        <ele>401.62</ele>
        <time>2018-07-14T07:35:55.000Z</time>
      </trkpt>
      <trkpt lat="46.1008" lon="2.92728">
        <ele>401.21</ele>
        <time>2018-07-14T07:35:57.000Z</time>
      </trkpt>
      <trkpt lat="46.10082" lon="2.92742">
        <ele>400.59</ele>
        <time>2018-07-14T07:35:59.000Z</time>
      </trkpt>
      <trkpt lat="46.10082" lon="2.92757">
        <ele>400.51</ele>
        <time>2018-07-14T07:36:02.000Z</time>
      </trkpt>
      <trkpt lat="46.1008" lon="2.92772">
        <ele>400.37</ele>
        <time>2018-07-14T07:36:04.000Z</time>
      </trkpt>
      <trkpt lat="46.10078" lon="2.92787">
        <ele>400.17</ele>
        <time>2018-07-14T07:36:06.000Z</time>
      </trkpt>
      <trkpt lat="46.10077" lon="2.92802">
        <ele>400.5</ele>
        <time>2018-07-14T07:36:08.000Z</time>
      </trkpt>
      <trkpt lat="46.10076" lon="2.92817">
        <ele>400.66</ele>
        <time>2018-07-14T07:36:10.000Z</time>
      </trkpt>
      <trkpt lat="46.10077" lon="2.92833">
        <ele>399.75</ele>
        <time>2018-07-14T07:36:12.000Z</time>
      </trkpt>
      <trkpt lat="46.10075" lon="2.92849">
        <ele>400.73</ele>
        <time>2018-07-14T07:36:14.000Z</time>
      </trkpt>
      <trkpt lat="46.10077" lon="2.92864">
        <ele>402.27</ele>
        <time>2018-07-14T07:36:16.000Z</time>
      </trkpt>
      <trkpt lat="46.10083" lon="2.92878">
        <ele>404</ele>
        <time>2018-07-14T07:36:18.000Z</time>
      </trkpt>
      <trkpt lat="46.10093" lon="2.92888">
        <ele>404.84</ele>
        <time>2018-07-14T07:36:20.000Z</time>
      </trkpt>
      <trkpt lat="46.10106" lon="2.92896">
        <ele>405.26</ele>
        <time>2018-07-14T07:36:22.000Z</time>
      </trkpt>
      <trkpt lat="46.1012" lon="2.92898">
        <ele>406.63</ele>
        <time>2018-07-14T07:36:24.000Z</time>
      </trkpt>
      <trkpt lat="46.10136" lon="2.92894">
        <ele>407.26</ele>
        <time>2018-07-14T07:36:26.000Z</time>
      </trkpt>
      <trkpt lat="46.10151" lon="2.92892">
        <ele>406.58</ele>
        <time>2018-07-14T07:36:28.000Z</time>
      </trkpt>
      <trkpt lat="46.10167" lon="2.92895">
        <ele>405.56</ele>
        <time>2018-07-14T07:36:30.000Z</time>
      </trkpt>
      <trkpt lat="46.10184" lon="2.92898">
        <ele>404.26</ele>
        <time>2018-07-14T07:36:32.000Z</time>
      </trkpt>
      <trkpt lat="46.10201" lon="2.92901">
        <ele>403.02</ele>
        <time>2018-07-14T07:36:34.000Z</time>
      </trkpt>
      <trkpt lat="46.10218" lon="2.92904">
        <ele>402.52</ele>
        <time>2018-07-14T07:36:36.000Z</time>
      </trkpt>
      <trkpt lat="46.10236" lon="2.92908">
        <ele>401.54</ele>
        <time>2018-07-14T07:36:38.000Z</time>
      </trkpt>
      <trkpt lat="46.10254" lon="2.92909">
        <ele>401.04</ele>
        <time>2018-07-14T07:36:40.000Z</time>
      </trkpt>
      <trkpt lat="46.10272" lon="2.92911">
        <ele>400.51</ele>
        <time>2018-07-14T07:36:42.000Z</time>
      </trkpt>
      <trkpt lat="46.10286" lon="2.92914">
        <ele>399.97</ele>
        <time>2018-07-14T07:36:44.000Z</time>
      </trkpt>
      <trkpt lat="46.10301" lon="2.92918">
        <ele>399.37</ele>
        <time>2018-07-14T07:36:46.000Z</time>
      </trkpt>
      <trkpt lat="46.10315" lon="2.92922">
        <ele>398.88</ele>
        <time>2018-07-14T07:36:48.000Z</time>
      </trkpt>
      <trkpt lat="46.10329" lon="2.92927">
        <ele>398.44</ele>
        <time>2018-07-14T07:36:50.000Z</time>
      </trkpt>
      <trkpt lat="46.10342" lon="2.92933">
        <ele>398.7</ele>
        <time>2018-07-14T07:36:52.000Z</time>
      </trkpt>
      <trkpt lat="46.10354" lon="2.92939">
        <ele>399.32</ele>
        <time>2018-07-14T07:36:54.000Z</time>
      </trkpt>
      <trkpt lat="46.10368" lon="2.92948">
        <ele>400.35</ele>
        <time>2018-07-14T07:36:56.000Z</time>
      </trkpt>
      <trkpt lat="46.10379" lon="2.92956">
        <ele>400.09</ele>
        <time>2018-07-14T07:36:58.000Z</time>
      </trkpt>
      <trkpt lat="46.10391" lon="2.92963">
        <ele>399.49</ele>
        <time>2018-07-14T07:37:00.000Z</time>
      </trkpt>
      <trkpt lat="46.10403" lon="2.9297">
        <ele>398.83</ele>
        <time>2018-07-14T07:37:02.000Z</time>
      </trkpt>
      <trkpt lat="46.10415" lon="2.92981">
        <ele>398.13</ele>
        <time>2018-07-14T07:37:04.000Z</time>
      </trkpt>
      <trkpt lat="46.10429" lon="2.92995">
        <ele>397.53</ele>
        <time>2018-07-14T07:37:06.000Z</time>
      </trkpt>
      <trkpt lat="46.10444" lon="2.9301">
        <ele>396.96</ele>
        <time>2018-07-14T07:37:08.000Z</time>
      </trkpt>
      <trkpt lat="46.10456" lon="2.93022">
        <ele>396.65</ele>
        <time>2018-07-14T07:37:10.000Z</time>
      </trkpt>
      <trkpt lat="46.10468" lon="2.93033">
        <ele>396.45</ele>
        <time>2018-07-14T07:37:12.000Z</time>
      </trkpt>
      <trkpt lat="46.1048" lon="2.93044">
        <ele>396.33</ele>
        <time>2018-07-14T07:37:14.000Z</time>
      </trkpt>
      <trkpt lat="46.10492" lon="2.93053">
        <ele>396.47</ele>
        <time>2018-07-14T07:37:16.000Z</time>
      </trkpt>
      <trkpt lat="46.10505" lon="2.93061">
        <ele>396.58</ele>
        <time>2018-07-14T07:37:18.000Z</time>
      </trkpt>
      <trkpt lat="46.10518" lon="2.9307">
        <ele>396.59</ele>
        <time>2018-07-14T07:37:20.000Z</time>
      </trkpt>
      <trkpt lat="46.10529" lon="2.93079">
        <ele>396.14</ele>
        <time>2018-07-14T07:37:22.000Z</time>
      </trkpt>
      <trkpt lat="46.10539" lon="2.93087">
        <ele>395.85</ele>
        <time>2018-07-14T07:37:24.000Z</time>
      </trkpt>
      <trkpt lat="46.10549" lon="2.93094">
        <ele>395.49</ele>
        <time>2018-07-14T07:37:26.000Z</time>
      </trkpt>
      <trkpt lat="46.1056" lon="2.93098">
        <ele>395.21</ele>
        <time>2018-07-14T07:37:28.000Z</time>
      </trkpt>
      <trkpt lat="46.10576" lon="2.93104">
        <ele>395.3</ele>
        <time>2018-07-14T07:37:30.000Z</time>
      </trkpt>
      <trkpt lat="46.10587" lon="2.93117">
        <ele>395.47</ele>
        <time>2018-07-14T07:37:32.000Z</time>
      </trkpt>
      <trkpt lat="46.106" lon="2.9313">
        <ele>395.42</ele>
        <time>2018-07-14T07:37:34.000Z</time>
      </trkpt>
      <trkpt lat="46.10611" lon="2.93138">
        <ele>395.59</ele>
        <time>2018-07-14T07:37:36.000Z</time>
      </trkpt>
      <trkpt lat="46.10623" lon="2.93151">
        <ele>395.72</ele>
        <time>2018-07-14T07:37:38.000Z</time>
      </trkpt>
      <trkpt lat="46.10635" lon="2.93167">
        <ele>396.49</ele>
        <time>2018-07-14T07:37:40.000Z</time>
      </trkpt>
      <trkpt lat="46.10642" lon="2.93178">
        <ele>396.76</ele>
        <time>2018-07-14T07:37:41.000Z</time>
      </trkpt>
      <trkpt lat="46.1065" lon="2.93196">
        <ele>397.52</ele>
        <time>2018-07-14T07:37:43.000Z</time>
      </trkpt>
      <trkpt lat="46.10657" lon="2.93218">
        <ele>399.01</ele>
        <time>2018-07-14T07:37:45.000Z</time>
      </trkpt>
      <trkpt lat="46.10663" lon="2.93231">
        <ele>399.4</ele>
        <time>2018-07-14T07:37:47.000Z</time>
      </trkpt>
      <trkpt lat="46.10669" lon="2.93245">
        <ele>399.11</ele>
        <time>2018-07-14T07:37:49.000Z</time>
      </trkpt>
      <trkpt lat="46.10673" lon="2.93267">
        <ele>400.72</ele>
        <time>2018-07-14T07:37:51.000Z</time>
      </trkpt>
      <trkpt lat="46.10677" lon="2.9329">
        <ele>402.58</ele>
        <time>2018-07-14T07:37:53.000Z</time>
      </trkpt>
      <trkpt lat="46.10679" lon="2.93302">
        <ele>403.1</ele>
        <time>2018-07-14T07:37:54.000Z</time>
      </trkpt>
      <trkpt lat="46.1068" lon="2.93316">
        <ele>403.8</ele>
        <time>2018-07-14T07:37:55.000Z</time>
      </trkpt>
      <trkpt lat="46.10681" lon="2.93339">
        <ele>405.29</ele>
        <time>2018-07-14T07:37:57.000Z</time>
      </trkpt>
      <trkpt lat="46.1068" lon="2.93362">
        <ele>406.44</ele>
        <time>2018-07-14T07:37:59.000Z</time>
      </trkpt>
      <trkpt lat="46.1068" lon="2.93386">
        <ele>407.04</ele>
        <time>2018-07-14T07:38:01.000Z</time>
      </trkpt>
      <trkpt lat="46.10679" lon="2.93409">
        <ele>407.83</ele>
        <time>2018-07-14T07:38:03.000Z</time>
      </trkpt>
      <trkpt lat="46.10675" lon="2.93429">
        <ele>408.78</ele>
        <time>2018-07-14T07:38:05.000Z</time>
      </trkpt>
      <trkpt lat="46.10669" lon="2.93445">
        <ele>410.83</ele>
        <time>2018-07-14T07:38:07.000Z</time>
      </trkpt>
      <trkpt lat="46.10659" lon="2.9346">
        <ele>414.59</ele>
        <time>2018-07-14T07:38:09.000Z</time>
      </trkpt>
      <trkpt lat="46.10651" lon="2.93475">
        <ele>415.16</ele>
        <time>2018-07-14T07:38:11.000Z</time>
      </trkpt>
      <trkpt lat="46.10643" lon="2.93489">
        <ele>415.95</ele>
        <time>2018-07-14T07:38:13.000Z</time>
      </trkpt>
      <trkpt lat="46.10635" lon="2.93505">
        <ele>415.58</ele>
        <time>2018-07-14T07:38:15.000Z</time>
      </trkpt>
      <trkpt lat="46.10626" lon="2.9352">
        <ele>415.24</ele>
        <time>2018-07-14T07:38:17.000Z</time>
      </trkpt>
      <trkpt lat="46.10617" lon="2.93533">
        <ele>415.21</ele>
        <time>2018-07-14T07:38:19.000Z</time>
      </trkpt>
      <trkpt lat="46.10608" lon="2.93544">
        <ele>415.76</ele>
        <time>2018-07-14T07:38:21.000Z</time>
      </trkpt>
      <trkpt lat="46.10599" lon="2.93554">
        <ele>417</ele>
        <time>2018-07-14T07:38:23.000Z</time>
      </trkpt>
      <trkpt lat="46.1059" lon="2.93564">
        <ele>417.56</ele>
        <time>2018-07-14T07:38:25.000Z</time>
      </trkpt>
      <trkpt lat="46.10579" lon="2.9358">
        <ele>416.89</ele>
        <time>2018-07-14T07:38:27.000Z</time>
      </trkpt>
      <trkpt lat="46.10571" lon="2.93599">
        <ele>415.94</ele>
        <time>2018-07-14T07:38:29.000Z</time>
      </trkpt>
      <trkpt lat="46.10562" lon="2.9362">
        <ele>415</ele>
        <time>2018-07-14T07:38:31.000Z</time>
      </trkpt>
      <trkpt lat="46.10556" lon="2.93639">
        <ele>415.04</ele>
        <time>2018-07-14T07:38:33.000Z</time>
      </trkpt>
      <trkpt lat="46.10549" lon="2.93658">
        <ele>414.74</ele>
        <time>2018-07-14T07:38:35.000Z</time>
      </trkpt>
      <trkpt lat="46.10542" lon="2.93677">
        <ele>414.59</ele>
        <time>2018-07-14T07:38:37.000Z</time>
      </trkpt>
      <trkpt lat="46.10536" lon="2.93701">
        <ele>413.09</ele>
        <time>2018-07-14T07:38:39.000Z</time>
      </trkpt>
      <trkpt lat="46.10531" lon="2.93722">
        <ele>412.85</ele>
        <time>2018-07-14T07:38:41.000Z</time>
      </trkpt>
      <trkpt lat="46.10532" lon="2.93742">
        <ele>414.18</ele>
        <time>2018-07-14T07:38:43.000Z</time>
      </trkpt>
      <trkpt lat="46.10535" lon="2.93761">
        <ele>415.39</ele>
        <time>2018-07-14T07:38:45.000Z</time>
      </trkpt>
      <trkpt lat="46.10542" lon="2.93776">
        <ele>417.36</ele>
        <time>2018-07-14T07:38:47.000Z</time>
      </trkpt>
      <trkpt lat="46.10551" lon="2.93789">
        <ele>419.68</ele>
        <time>2018-07-14T07:38:49.000Z</time>
      </trkpt>
      <trkpt lat="46.10561" lon="2.93805">
        <ele>419.7</ele>
        <time>2018-07-14T07:38:51.000Z</time>
      </trkpt>
      <trkpt lat="46.10572" lon="2.93817">
        <ele>420.22</ele>
        <time>2018-07-14T07:38:53.000Z</time>
      </trkpt>
      <trkpt lat="46.10585" lon="2.93828">
        <ele>421.93</ele>
        <time>2018-07-14T07:38:55.000Z</time>
      </trkpt>
      <trkpt lat="46.10597" lon="2.93838">
        <ele>422.86</ele>
        <time>2018-07-14T07:38:57.000Z</time>
      </trkpt>
      <trkpt lat="46.10607" lon="2.93848">
        <ele>424.51</ele>
        <time>2018-07-14T07:38:59.000Z</time>
      </trkpt>
      <trkpt lat="46.10616" lon="2.93855">
        <ele>426.51</ele>
        <time>2018-07-14T07:39:01.000Z</time>
      </trkpt>
      <trkpt lat="46.10626" lon="2.93863">
        <ele>428.13</ele>
        <time>2018-07-14T07:39:03.000Z</time>
      </trkpt>
      <trkpt lat="46.10638" lon="2.93872">
        <ele>429.44</ele>
        <time>2018-07-14T07:39:05.000Z</time>
      </trkpt>
      <trkpt lat="46.10651" lon="2.93885">
        <ele>430.73</ele>
        <time>2018-07-14T07:39:07.000Z</time>
      </trkpt>
      <trkpt lat="46.10663" lon="2.93894">
        <ele>432.5</ele>
        <time>2018-07-14T07:39:09.000Z</time>
      </trkpt>
      <trkpt lat="46.10675" lon="2.93909">
        <ele>434.37</ele>
        <time>2018-07-14T07:39:11.000Z</time>
      </trkpt>
      <trkpt lat="46.10685" lon="2.93927">
        <ele>436.63</ele>
        <time>2018-07-14T07:39:13.000Z</time>
      </trkpt>
      <trkpt lat="46.10696" lon="2.93941">
        <ele>437.33</ele>
        <time>2018-07-14T07:39:15.000Z</time>
      </trkpt>
      <trkpt lat="46.10706" lon="2.93955">
        <ele>437.72</ele>
        <time>2018-07-14T07:39:17.000Z</time>
      </trkpt>
      <trkpt lat="46.10717" lon="2.9397">
        <ele>437.97</ele>
        <time>2018-07-14T07:39:19.000Z</time>
      </trkpt>
      <trkpt lat="46.10726" lon="2.93989">
        <ele>438.33</ele>
        <time>2018-07-14T07:39:21.000Z</time>
      </trkpt>
      <trkpt lat="46.10736" lon="2.94009">
        <ele>438.64</ele>
        <time>2018-07-14T07:39:23.000Z</time>
      </trkpt>
      <trkpt lat="46.1074" lon="2.94021">
        <ele>438.81</ele>
        <time>2018-07-14T07:39:24.000Z</time>
      </trkpt>
      <trkpt lat="46.10745" lon="2.94034">
        <ele>439.59</ele>
        <time>2018-07-14T07:39:25.000Z</time>
      </trkpt>
      <trkpt lat="46.10754" lon="2.94055">
        <ele>440.72</ele>
        <time>2018-07-14T07:39:27.000Z</time>
      </trkpt>
      <trkpt lat="46.10764" lon="2.94069">
        <ele>440.33</ele>
        <time>2018-07-14T07:39:29.000Z</time>
      </trkpt>
      <trkpt lat="46.10775" lon="2.94083">
        <ele>438.83</ele>
        <time>2018-07-14T07:39:31.000Z</time>
      </trkpt>
      <trkpt lat="46.10785" lon="2.94094">
        <ele>437.87</ele>
        <time>2018-07-14T07:39:33.000Z</time>
      </trkpt>
      <trkpt lat="46.10795" lon="2.94106">
        <ele>436.13</ele>
        <time>2018-07-14T07:39:35.000Z</time>
      </trkpt>
      <trkpt lat="46.10803" lon="2.94118">
        <ele>435.15</ele>
        <time>2018-07-14T07:39:37.000Z</time>
      </trkpt>
      <trkpt lat="46.10811" lon="2.94132">
        <ele>433.65</ele>
        <time>2018-07-14T07:39:39.000Z</time>
      </trkpt>
      <trkpt lat="46.10816" lon="2.94145">
        <ele>432.87</ele>
        <time>2018-07-14T07:39:41.000Z</time>
      </trkpt>
      <trkpt lat="46.1082" lon="2.94159">
        <ele>433.32</ele>
        <time>2018-07-14T07:39:43.000Z</time>
      </trkpt>
      <trkpt lat="46.10822" lon="2.94174">
        <ele>433.74</ele>
        <time>2018-07-14T07:39:45.000Z</time>
      </trkpt>
      <trkpt lat="46.10821" lon="2.94193">
        <ele>435.24</ele>
        <time>2018-07-14T07:39:47.000Z</time>
      </trkpt>
      <trkpt lat="46.10819" lon="2.94212">
        <ele>437.36</ele>
        <time>2018-07-14T07:39:49.000Z</time>
      </trkpt>
      <trkpt lat="46.10821" lon="2.94233">
        <ele>437.79</ele>
        <time>2018-07-14T07:39:51.000Z</time>
      </trkpt>
      <trkpt lat="46.10825" lon="2.94253">
        <ele>437.84</ele>
        <time>2018-07-14T07:39:53.000Z</time>
      </trkpt>
      <trkpt lat="46.10829" lon="2.94273">
        <ele>438.61</ele>
        <time>2018-07-14T07:39:55.000Z</time>
      </trkpt>
      <trkpt lat="46.10834" lon="2.94294">
        <ele>438</ele>
        <time>2018-07-14T07:39:57.000Z</time>
      </trkpt>
      <trkpt lat="46.10839" lon="2.94314">
        <ele>437.08</ele>
        <time>2018-07-14T07:39:59.000Z</time>
      </trkpt>
      <trkpt lat="46.10846" lon="2.94334">
        <ele>435.94</ele>
        <time>2018-07-14T07:40:01.000Z</time>
      </trkpt>
      <trkpt lat="46.10854" lon="2.94353">
        <ele>434.71</ele>
        <time>2018-07-14T07:40:03.000Z</time>
      </trkpt>
      <trkpt lat="46.10863" lon="2.9437">
        <ele>435.5</ele>
        <time>2018-07-14T07:40:05.000Z</time>
      </trkpt>
      <trkpt lat="46.10872" lon="2.9439">
        <ele>435.01</ele>
        <time>2018-07-14T07:40:07.000Z</time>
      </trkpt>
      <trkpt lat="46.1088" lon="2.94409">
        <ele>435.29</ele>
        <time>2018-07-14T07:40:09.000Z</time>
      </trkpt>
      <trkpt lat="46.10889" lon="2.94428">
        <ele>435.53</ele>
        <time>2018-07-14T07:40:11.000Z</time>
      </trkpt>
      <trkpt lat="46.10896" lon="2.94448">
        <ele>437.37</ele>
        <time>2018-07-14T07:40:13.000Z</time>
      </trkpt>
      <trkpt lat="46.10902" lon="2.94469">
        <ele>438.63</ele>
        <time>2018-07-14T07:40:15.000Z</time>
      </trkpt>
      <trkpt lat="46.10908" lon="2.94488">
        <ele>439.15</ele>
        <time>2018-07-14T07:40:17.000Z</time>
      </trkpt>
      <trkpt lat="46.10913" lon="2.94507">
        <ele>439.1</ele>
        <time>2018-07-14T07:40:19.000Z</time>
      </trkpt>
      <trkpt lat="46.10918" lon="2.94527">
        <ele>438.42</ele>
        <time>2018-07-14T07:40:21.000Z</time>
      </trkpt>
      <trkpt lat="46.10923" lon="2.94547">
        <ele>437.72</ele>
        <time>2018-07-14T07:40:23.000Z</time>
      </trkpt>
      <trkpt lat="46.10929" lon="2.94568">
        <ele>435.36</ele>
        <time>2018-07-14T07:40:25.000Z</time>
      </trkpt>
      <trkpt lat="46.10936" lon="2.9459">
        <ele>433.15</ele>
        <time>2018-07-14T07:40:27.000Z</time>
      </trkpt>
      <trkpt lat="46.10942" lon="2.94611">
        <ele>431.81</ele>
        <time>2018-07-14T07:40:29.000Z</time>
      </trkpt>
      <trkpt lat="46.10948" lon="2.94632">
        <ele>431.07</ele>
        <time>2018-07-14T07:40:31.000Z</time>
      </trkpt>
      <trkpt lat="46.10953" lon="2.94651">
        <ele>430.98</ele>
        <time>2018-07-14T07:40:33.000Z</time>
      </trkpt>
      <trkpt lat="46.10959" lon="2.94671">
        <ele>431.12</ele>
        <time>2018-07-14T07:40:35.000Z</time>
      </trkpt>
      <trkpt lat="46.10965" lon="2.9469">
        <ele>430.94</ele>
        <time>2018-07-14T07:40:37.000Z</time>
      </trkpt>
      <trkpt lat="46.10972" lon="2.9471">
        <ele>430.72</ele>
        <time>2018-07-14T07:40:39.000Z</time>
      </trkpt>
      <trkpt lat="46.10979" lon="2.94729">
        <ele>430.22</ele>
        <time>2018-07-14T07:40:41.000Z</time>
      </trkpt>
      <trkpt lat="46.10986" lon="2.94747">
        <ele>430.13</ele>
        <time>2018-07-14T07:40:43.000Z</time>
      </trkpt>
      <trkpt lat="46.10991" lon="2.94765">
        <ele>429.96</ele>
        <time>2018-07-14T07:40:45.000Z</time>
      </trkpt>
      <trkpt lat="46.10997" lon="2.94785">
        <ele>430.37</ele>
        <time>2018-07-14T07:40:47.000Z</time>
      </trkpt>
      <trkpt lat="46.11004" lon="2.94805">
        <ele>430.4</ele>
        <time>2018-07-14T07:40:49.000Z</time>
      </trkpt>
      <trkpt lat="46.11011" lon="2.94826">
        <ele>430.59</ele>
        <time>2018-07-14T07:40:51.000Z</time>
      </trkpt>
      <trkpt lat="46.11019" lon="2.94844">
        <ele>431.49</ele>
        <time>2018-07-14T07:40:53.000Z</time>
      </trkpt>
      <trkpt lat="46.11025" lon="2.94862">
        <ele>432.48</ele>
        <time>2018-07-14T07:40:55.000Z</time>
      </trkpt>
      <trkpt lat="46.11032" lon="2.94881">
        <ele>432.53</ele>
        <time>2018-07-14T07:40:57.000Z</time>
      </trkpt>
      <trkpt lat="46.11038" lon="2.94901">
        <ele>432.2</ele>
        <time>2018-07-14T07:40:59.000Z</time>
      </trkpt>
      <trkpt lat="46.11042" lon="2.94923">
        <ele>432.2</ele>
        <time>2018-07-14T07:41:01.000Z</time>
      </trkpt>
      <trkpt lat="46.11046" lon="2.94946">
        <ele>431.96</ele>
        <time>2018-07-14T07:41:03.000Z</time>
      </trkpt>
      <trkpt lat="46.11049" lon="2.94968">
        <ele>433.08</ele>
        <time>2018-07-14T07:41:05.000Z</time>
      </trkpt>
      <trkpt lat="46.11053" lon="2.94989">
        <ele>432.84</ele>
        <time>2018-07-14T07:41:07.000Z</time>
      </trkpt>
      <trkpt lat="46.11057" lon="2.95009">
        <ele>431.17</ele>
        <time>2018-07-14T07:41:09.000Z</time>
      </trkpt>
      <trkpt lat="46.11062" lon="2.95029">
        <ele>429.97</ele>
        <time>2018-07-14T07:41:11.000Z</time>
      </trkpt>
      <trkpt lat="46.11066" lon="2.95049">
        <ele>428.56</ele>
        <time>2018-07-14T07:41:13.000Z</time>
      </trkpt>
      <trkpt lat="46.1107" lon="2.95068">
        <ele>427.47</ele>
        <time>2018-07-14T07:41:15.000Z</time>
      </trkpt>
      <trkpt lat="46.11075" lon="2.95087">
        <ele>426.64</ele>
        <time>2018-07-14T07:41:17.000Z</time>
      </trkpt>
      <trkpt lat="46.11079" lon="2.95107">
        <ele>425.72</ele>
        <time>2018-07-14T07:41:19.000Z</time>
      </trkpt>
      <trkpt lat="46.11083" lon="2.95128">
        <ele>425.3</ele>
        <time>2018-07-14T07:41:21.000Z</time>
      </trkpt>
      <trkpt lat="46.11087" lon="2.95148">
        <ele>424.34</ele>
        <time>2018-07-14T07:41:23.000Z</time>
      </trkpt>
      <trkpt lat="46.11091" lon="2.95166">
        <ele>423.51</ele>
        <time>2018-07-14T07:41:25.000Z</time>
      </trkpt>
      <trkpt lat="46.11094" lon="2.95184">
        <ele>423.04</ele>
        <time>2018-07-14T07:41:27.000Z</time>
      </trkpt>
      <trkpt lat="46.11096" lon="2.952">
        <ele>422.72</ele>
        <time>2018-07-14T07:41:29.000Z</time>
      </trkpt>
      <trkpt lat="46.11096" lon="2.95218">
        <ele>422.8</ele>
        <time>2018-07-14T07:41:31.000Z</time>
      </trkpt>
      <trkpt lat="46.11097" lon="2.95236">
        <ele>422.59</ele>
        <time>2018-07-14T07:41:33.000Z</time>
      </trkpt>
      <trkpt lat="46.11098" lon="2.95256">
        <ele>422.47</ele>
        <time>2018-07-14T07:41:35.000Z</time>
      </trkpt>
      <trkpt lat="46.11099" lon="2.95276">
        <ele>422.54</ele>
        <time>2018-07-14T07:41:37.000Z</time>
      </trkpt>
      <trkpt lat="46.111" lon="2.95294">
        <ele>423.7</ele>
        <time>2018-07-14T07:41:39.000Z</time>
      </trkpt>
      <trkpt lat="46.11102" lon="2.95318">
        <ele>424.73</ele>
        <time>2018-07-14T07:41:41.000Z</time>
      </trkpt>
      <trkpt lat="46.11102" lon="2.95342">
        <ele>425.22</ele>
        <time>2018-07-14T07:41:43.000Z</time>
      </trkpt>
      <trkpt lat="46.11099" lon="2.95364">
        <ele>425.25</ele>
        <time>2018-07-14T07:41:45.000Z</time>
      </trkpt>
      <trkpt lat="46.11097" lon="2.95386">
        <ele>424.56</ele>
        <time>2018-07-14T07:41:47.000Z</time>
      </trkpt>
      <trkpt lat="46.11097" lon="2.95407">
        <ele>424.2</ele>
        <time>2018-07-14T07:41:49.000Z</time>
      </trkpt>
      <trkpt lat="46.11097" lon="2.95428">
        <ele>423.87</ele>
        <time>2018-07-14T07:41:51.000Z</time>
      </trkpt>
      <trkpt lat="46.11099" lon="2.95448">
        <ele>423.49</ele>
        <time>2018-07-14T07:41:53.000Z</time>
      </trkpt>
      <trkpt lat="46.11103" lon="2.9547">
        <ele>421.42</ele>
        <time>2018-07-14T07:41:55.000Z</time>
      </trkpt>
      <trkpt lat="46.11105" lon="2.95483">
        <ele>420.31</ele>
        <time>2018-07-14T07:41:56.000Z</time>
      </trkpt>
      <trkpt lat="46.11112" lon="2.95506">
        <ele>418.72</ele>
        <time>2018-07-14T07:41:58.000Z</time>
      </trkpt>
      <trkpt lat="46.11118" lon="2.95524">
        <ele>417.67</ele>
        <time>2018-07-14T07:42:00.000Z</time>
      </trkpt>
      <trkpt lat="46.11124" lon="2.95544">
        <ele>416.92</ele>
        <time>2018-07-14T07:42:02.000Z</time>
      </trkpt>
      <trkpt lat="46.11131" lon="2.95563">
        <ele>416.78</ele>
        <time>2018-07-14T07:42:04.000Z</time>
      </trkpt>
      <trkpt lat="46.1114" lon="2.95583">
        <ele>416.62</ele>
        <time>2018-07-14T07:42:06.000Z</time>
      </trkpt>
      <trkpt lat="46.11147" lon="2.956">
        <ele>416.99</ele>
        <time>2018-07-14T07:42:08.000Z</time>
      </trkpt>
      <trkpt lat="46.11157" lon="2.95619">
        <ele>417.04</ele>
        <time>2018-07-14T07:42:10.000Z</time>
      </trkpt>
      <trkpt lat="46.11168" lon="2.95636">
        <ele>417.17</ele>
        <time>2018-07-14T07:42:12.000Z</time>
      </trkpt>
      <trkpt lat="46.1118" lon="2.95651">
        <ele>416.53</ele>
        <time>2018-07-14T07:42:14.000Z</time>
      </trkpt>
      <trkpt lat="46.11193" lon="2.95666">
        <ele>416</ele>
        <time>2018-07-14T07:42:16.000Z</time>
      </trkpt>
      <trkpt lat="46.11206" lon="2.9568">
        <ele>415.77</ele>
        <time>2018-07-14T07:42:18.000Z</time>
      </trkpt>
      <trkpt lat="46.11219" lon="2.95692">
        <ele>415.38</ele>
        <time>2018-07-14T07:42:20.000Z</time>
      </trkpt>
      <trkpt lat="46.11232" lon="2.95704">
        <ele>414.8</ele>
        <time>2018-07-14T07:42:22.000Z</time>
      </trkpt>
      <trkpt lat="46.11247" lon="2.95714">
        <ele>414.36</ele>
        <time>2018-07-14T07:42:24.000Z</time>
      </trkpt>
      <trkpt lat="46.1126" lon="2.95723">
        <ele>413.53</ele>
        <time>2018-07-14T07:42:26.000Z</time>
      </trkpt>
      <trkpt lat="46.11275" lon="2.95731">
        <ele>412.57</ele>
        <time>2018-07-14T07:42:28.000Z</time>
      </trkpt>
      <trkpt lat="46.1129" lon="2.95738">
        <ele>412.1</ele>
        <time>2018-07-14T07:42:30.000Z</time>
      </trkpt>
      <trkpt lat="46.11304" lon="2.95743">
        <ele>412.07</ele>
        <time>2018-07-14T07:42:32.000Z</time>
      </trkpt>
      <trkpt lat="46.11319" lon="2.95748">
        <ele>412.05</ele>
        <time>2018-07-14T07:42:34.000Z</time>
      </trkpt>
      <trkpt lat="46.11327" lon="2.95752">
        <ele>411.91</ele>
        <time>2018-07-14T07:42:35.000Z</time>
      </trkpt>
      <trkpt lat="46.11345" lon="2.95757">
        <ele>410.95</ele>
        <time>2018-07-14T07:42:37.000Z</time>
      </trkpt>
      <trkpt lat="46.11361" lon="2.95761">
        <ele>410.13</ele>
        <time>2018-07-14T07:42:39.000Z</time>
      </trkpt>
      <trkpt lat="46.11377" lon="2.95764">
        <ele>409.12</ele>
        <time>2018-07-14T07:42:41.000Z</time>
      </trkpt>
      <trkpt lat="46.11393" lon="2.95764">
        <ele>408.23</ele>
        <time>2018-07-14T07:42:43.000Z</time>
      </trkpt>
      <trkpt lat="46.11408" lon="2.95763">
        <ele>408.04</ele>
        <time>2018-07-14T07:42:45.000Z</time>
      </trkpt>
      <trkpt lat="46.11423" lon="2.95762">
        <ele>408.08</ele>
        <time>2018-07-14T07:42:47.000Z</time>
      </trkpt>
      <trkpt lat="46.11437" lon="2.95763">
        <ele>407.92</ele>
        <time>2018-07-14T07:42:49.000Z</time>
      </trkpt>
      <trkpt lat="46.11452" lon="2.95765">
        <ele>407.19</ele>
        <time>2018-07-14T07:42:51.000Z</time>
      </trkpt>
      <trkpt lat="46.11467" lon="2.95766">
        <ele>406.41</ele>
        <time>2018-07-14T07:42:53.000Z</time>
      </trkpt>
      <trkpt lat="46.11483" lon="2.95769">
        <ele>405.98</ele>
        <time>2018-07-14T07:42:55.000Z</time>
      </trkpt>
      <trkpt lat="46.11498" lon="2.95772">
        <ele>405.43</ele>
        <time>2018-07-14T07:42:57.000Z</time>
      </trkpt>
      <trkpt lat="46.11512" lon="2.95774">
        <ele>404.71</ele>
        <time>2018-07-14T07:42:59.000Z</time>
      </trkpt>
      <trkpt lat="46.11526" lon="2.95776">
        <ele>404.13</ele>
        <time>2018-07-14T07:43:01.000Z</time>
      </trkpt>
      <trkpt lat="46.1154" lon="2.95778">
        <ele>404.34</ele>
        <time>2018-07-14T07:43:03.000Z</time>
      </trkpt>
      <trkpt lat="46.11555" lon="2.9578">
        <ele>403.97</ele>
        <time>2018-07-14T07:43:05.000Z</time>
      </trkpt>
      <trkpt lat="46.1157" lon="2.95784">
        <ele>403.35</ele>
        <time>2018-07-14T07:43:07.000Z</time>
      </trkpt>
      <trkpt lat="46.11585" lon="2.95787">
        <ele>402.88</ele>
        <time>2018-07-14T07:43:09.000Z</time>
      </trkpt>
      <trkpt lat="46.11601" lon="2.95788">
        <ele>402.23</ele>
        <time>2018-07-14T07:43:11.000Z</time>
      </trkpt>
      <trkpt lat="46.11618" lon="2.95787">
        <ele>401.32</ele>
        <time>2018-07-14T07:43:13.000Z</time>
      </trkpt>
      <trkpt lat="46.11635" lon="2.95789">
        <ele>400.87</ele>
        <time>2018-07-14T07:43:15.000Z</time>
      </trkpt>
      <trkpt lat="46.11652" lon="2.95789">
        <ele>400.09</ele>
        <time>2018-07-14T07:43:17.000Z</time>
      </trkpt>
      <trkpt lat="46.11668" lon="2.95791">
        <ele>399.05</ele>
        <time>2018-07-14T07:43:19.000Z</time>
      </trkpt>
      <trkpt lat="46.11684" lon="2.95792">
        <ele>398.11</ele>
        <time>2018-07-14T07:43:21.000Z</time>
      </trkpt>
      <trkpt lat="46.11701" lon="2.95792">
        <ele>397.11</ele>
        <time>2018-07-14T07:43:23.000Z</time>
      </trkpt>
      <trkpt lat="46.11717" lon="2.95792">
        <ele>396.12</ele>
        <time>2018-07-14T07:43:25.000Z</time>
      </trkpt>
      <trkpt lat="46.11731" lon="2.9579">
        <ele>395.34</ele>
        <time>2018-07-14T07:43:27.000Z</time>
      </trkpt>
      <trkpt lat="46.11745" lon="2.95789">
        <ele>395.35</ele>
        <time>2018-07-14T07:43:29.000Z</time>
      </trkpt>
      <trkpt lat="46.11761" lon="2.95789">
        <ele>394.53</ele>
        <time>2018-07-14T07:43:31.000Z</time>
      </trkpt>
      <trkpt lat="46.11775" lon="2.95796">
        <ele>393.75</ele>
        <time>2018-07-14T07:43:33.000Z</time>
      </trkpt>
      <trkpt lat="46.11788" lon="2.95804">
        <ele>392.24</ele>
        <time>2018-07-14T07:43:35.000Z</time>
      </trkpt>
      <trkpt lat="46.118" lon="2.95812">
        <ele>391.27</ele>
        <time>2018-07-14T07:43:37.000Z</time>
      </trkpt>
      <trkpt lat="46.11809" lon="2.95828">
        <ele>393.43</ele>
        <time>2018-07-14T07:43:39.000Z</time>
      </trkpt>
      <trkpt lat="46.11819" lon="2.9585">
        <ele>398.66</ele>
        <time>2018-07-14T07:43:41.000Z</time>
      </trkpt>
      <trkpt lat="46.11831" lon="2.95866">
        <ele>400.67</ele>
        <time>2018-07-14T07:43:43.000Z</time>
      </trkpt>
      <trkpt lat="46.11843" lon="2.95878">
        <ele>401.85</ele>
        <time>2018-07-14T07:43:45.000Z</time>
      </trkpt>
      <trkpt lat="46.11855" lon="2.95886">
        <ele>401.77</ele>
        <time>2018-07-14T07:43:47.000Z</time>
      </trkpt>
      <trkpt lat="46.11866" lon="2.95894">
        <ele>401.9</ele>
        <time>2018-07-14T07:43:49.000Z</time>
      </trkpt>
      <trkpt lat="46.11876" lon="2.95903">
        <ele>401.78</ele>
        <time>2018-07-14T07:43:51.000Z</time>
      </trkpt>
      <trkpt lat="46.11885" lon="2.95909">
        <ele>401.62</ele>
        <time>2018-07-14T07:43:53.000Z</time>
      </trkpt>
      <trkpt lat="46.11894" lon="2.95919">
        <ele>401.34</ele>
        <time>2018-07-14T07:43:55.000Z</time>
      </trkpt>
      <trkpt lat="46.11906" lon="2.9593">
        <ele>401.18</ele>
        <time>2018-07-14T07:43:57.000Z</time>
      </trkpt>
      <trkpt lat="46.11918" lon="2.95945">
        <ele>401.49</ele>
        <time>2018-07-14T07:43:59.000Z</time>
      </trkpt>
      <trkpt lat="46.11932" lon="2.9596">
        <ele>400.91</ele>
        <time>2018-07-14T07:44:01.000Z</time>
      </trkpt>
      <trkpt lat="46.11947" lon="2.95973">
        <ele>400.42</ele>
        <time>2018-07-14T07:44:03.000Z</time>
      </trkpt>
      <trkpt lat="46.11961" lon="2.95986">
        <ele>400.15</ele>
        <time>2018-07-14T07:44:05.000Z</time>
      </trkpt>
      <trkpt lat="46.11974" lon="2.95998">
        <ele>400.4</ele>
        <time>2018-07-14T07:44:07.000Z</time>
      </trkpt>
      <trkpt lat="46.11983" lon="2.96006">
        <ele>400.36</ele>
        <time>2018-07-14T07:44:09.000Z</time>
      </trkpt>
      <trkpt lat="46.11994" lon="2.96015">
        <ele>400.31</ele>
        <time>2018-07-14T07:44:11.000Z</time>
      </trkpt>
      <trkpt lat="46.12005" lon="2.96023">
        <ele>399.98</ele>
        <time>2018-07-14T07:44:13.000Z</time>
      </trkpt>
      <trkpt lat="46.12015" lon="2.96034">
        <ele>399.69</ele>
        <time>2018-07-14T07:44:15.000Z</time>
      </trkpt>
      <trkpt lat="46.12025" lon="2.96046">
        <ele>399.67</ele>
        <time>2018-07-14T07:44:17.000Z</time>
      </trkpt>
      <trkpt lat="46.12035" lon="2.96061">
        <ele>400.48</ele>
        <time>2018-07-14T07:44:19.000Z</time>
      </trkpt>
      <trkpt lat="46.12045" lon="2.96075">
        <ele>401.08</ele>
        <time>2018-07-14T07:44:21.000Z</time>
      </trkpt>
      <trkpt lat="46.12053" lon="2.96091">
        <ele>401.12</ele>
        <time>2018-07-14T07:44:23.000Z</time>
      </trkpt>
      <trkpt lat="46.12061" lon="2.9611">
        <ele>400.96</ele>
        <time>2018-07-14T07:44:25.000Z</time>
      </trkpt>
      <trkpt lat="46.1207" lon="2.96131">
        <ele>401.49</ele>
        <time>2018-07-14T07:44:27.000Z</time>
      </trkpt>
      <trkpt lat="46.12079" lon="2.96148">
        <ele>403.11</ele>
        <time>2018-07-14T07:44:29.000Z</time>
      </trkpt>
      <trkpt lat="46.12089" lon="2.96163">
        <ele>403.98</ele>
        <time>2018-07-14T07:44:31.000Z</time>
      </trkpt>
      <trkpt lat="46.121" lon="2.96176">
        <ele>404.69</ele>
        <time>2018-07-14T07:44:33.000Z</time>
      </trkpt>
      <trkpt lat="46.12111" lon="2.9619">
        <ele>403.94</ele>
        <time>2018-07-14T07:44:35.000Z</time>
      </trkpt>
      <trkpt lat="46.12123" lon="2.96203">
        <ele>403.3</ele>
        <time>2018-07-14T07:44:37.000Z</time>
      </trkpt>
      <trkpt lat="46.12133" lon="2.96216">
        <ele>403.44</ele>
        <time>2018-07-14T07:44:39.000Z</time>
      </trkpt>
      <trkpt lat="46.12143" lon="2.96231">
        <ele>403.48</ele>
        <time>2018-07-14T07:44:41.000Z</time>
      </trkpt>
      <trkpt lat="46.1215" lon="2.96246">
        <ele>403.52</ele>
        <time>2018-07-14T07:44:43.000Z</time>
      </trkpt>
      <trkpt lat="46.12157" lon="2.9626">
        <ele>403.46</ele>
        <time>2018-07-14T07:44:45.000Z</time>
      </trkpt>
      <trkpt lat="46.12164" lon="2.96272">
        <ele>404.04</ele>
        <time>2018-07-14T07:44:47.000Z</time>
      </trkpt>
      <trkpt lat="46.12174" lon="2.96283">
        <ele>402.8</ele>
        <time>2018-07-14T07:44:49.000Z</time>
      </trkpt>
      <trkpt lat="46.12187" lon="2.96289">
        <ele>401.22</ele>
        <time>2018-07-14T07:44:51.000Z</time>
      </trkpt>
      <trkpt lat="46.12198" lon="2.96292">
        <ele>400.08</ele>
        <time>2018-07-14T07:44:53.000Z</time>
      </trkpt>
      <trkpt lat="46.12209" lon="2.963">
        <ele>399.78</ele>
        <time>2018-07-14T07:44:56.000Z</time>
      </trkpt>
      <trkpt lat="46.12214" lon="2.96312">
        <ele>401.01</ele>
        <time>2018-07-14T07:44:59.000Z</time>
      </trkpt>
      <trkpt lat="46.1222" lon="2.96327">
        <ele>401.94</ele>
        <time>2018-07-14T07:45:02.000Z</time>
      </trkpt>
      <trkpt lat="46.12228" lon="2.96339">
        <ele>402.3</ele>
        <time>2018-07-14T07:45:05.000Z</time>
      </trkpt>
      <trkpt lat="46.12233" lon="2.96352">
        <ele>402.99</ele>
        <time>2018-07-14T07:45:08.000Z</time>
      </trkpt>
      <trkpt lat="46.12231" lon="2.96366">
        <ele>403.99</ele>
        <time>2018-07-14T07:45:11.000Z</time>
      </trkpt>
      <trkpt lat="46.1223" lon="2.96382">
        <ele>405.25</ele>
        <time>2018-07-14T07:45:14.000Z</time>
      </trkpt>
      <trkpt lat="46.12227" lon="2.96396">
        <ele>406.38</ele>
        <time>2018-07-14T07:45:16.000Z</time>
      </trkpt>
      <trkpt lat="46.12227" lon="2.96412">
        <ele>407.47</ele>
        <time>2018-07-14T07:45:19.000Z</time>
      </trkpt>
      <trkpt lat="46.12229" lon="2.96425">
        <ele>408.22</ele>
        <time>2018-07-14T07:45:22.000Z</time>
      </trkpt>
      <trkpt lat="46.1223" lon="2.96439">
        <ele>409.83</ele>
        <time>2018-07-14T07:45:25.000Z</time>
      </trkpt>
      <trkpt lat="46.12234" lon="2.96455">
        <ele>411.57</ele>
        <time>2018-07-14T07:45:29.000Z</time>
      </trkpt>
      <trkpt lat="46.12236" lon="2.9647">
        <ele>414.65</ele>
        <time>2018-07-14T07:45:33.000Z</time>
      </trkpt>
      <trkpt lat="46.12238" lon="2.96488">
        <ele>418.23</ele>
        <time>2018-07-14T07:45:36.000Z</time>
      </trkpt>
      <trkpt lat="46.12238" lon="2.96504">
        <ele>421.02</ele>
        <time>2018-07-14T07:45:39.000Z</time>
      </trkpt>
      <trkpt lat="46.12238" lon="2.96518">
        <ele>422.95</ele>
        <time>2018-07-14T07:45:42.000Z</time>
      </trkpt>
      <trkpt lat="46.12241" lon="2.96533">
        <ele>424.36</ele>
        <time>2018-07-14T07:45:45.000Z</time>
      </trkpt>
      <trkpt lat="46.12245" lon="2.96547">
        <ele>425.46</ele>
        <time>2018-07-14T07:45:48.000Z</time>
      </trkpt>
      <trkpt lat="46.12249" lon="2.96562">
        <ele>427.31</ele>
        <time>2018-07-14T07:45:51.000Z</time>
      </trkpt>
      <trkpt lat="46.12256" lon="2.96575">
        <ele>429.33</ele>
        <time>2018-07-14T07:45:54.000Z</time>
      </trkpt>
      <trkpt lat="46.12262" lon="2.9659">
        <ele>431.44</ele>
        <time>2018-07-14T07:45:58.000Z</time>
      </trkpt>
      <trkpt lat="46.12265" lon="2.96602">
        <ele>431.07</ele>
        <time>2018-07-14T07:46:01.000Z</time>
      </trkpt>
      <trkpt lat="46.12267" lon="2.96616">
        <ele>432.58</ele>
        <time>2018-07-14T07:46:04.000Z</time>
      </trkpt>
      <trkpt lat="46.12266" lon="2.96632">
        <ele>433.91</ele>
        <time>2018-07-14T07:46:08.000Z</time>
      </trkpt>
      <trkpt lat="46.12264" lon="2.96646">
        <ele>436.65</ele>
        <time>2018-07-14T07:46:13.000Z</time>
      </trkpt>
      <trkpt lat="46.12265" lon="2.9666">
        <ele>439.59</ele>
        <time>2018-07-14T07:46:17.000Z</time>
      </trkpt>
      <trkpt lat="46.12265" lon="2.96675">
        <ele>441.65</ele>
        <time>2018-07-14T07:46:21.000Z</time>
      </trkpt>
      <trkpt lat="46.12265" lon="2.96692">
        <ele>447.94</ele>
        <time>2018-07-14T07:46:25.000Z</time>
      </trkpt>
      <trkpt lat="46.12265" lon="2.96707">
        <ele>452.89</ele>
        <time>2018-07-14T07:46:29.000Z</time>
      </trkpt>
      <trkpt lat="46.12265" lon="2.96722">
        <ele>455.18</ele>
        <time>2018-07-14T07:46:33.000Z</time>
      </trkpt>
      <trkpt lat="46.12265" lon="2.96737">
        <ele>456.11</ele>
        <time>2018-07-14T07:46:37.000Z</time>
      </trkpt>
      <trkpt lat="46.12264" lon="2.96752">
        <ele>455.68</ele>
        <time>2018-07-14T07:46:40.000Z</time>
      </trkpt>
      <trkpt lat="46.12262" lon="2.96764">
        <ele>454.14</ele>
        <time>2018-07-14T07:46:42.000Z</time>
      </trkpt>
      <trkpt lat="46.12255" lon="2.96779">
        <ele>453.61</ele>
        <time>2018-07-14T07:46:45.000Z</time>
      </trkpt>
      <trkpt lat="46.12252" lon="2.96791">
        <ele>453.87</ele>
        <time>2018-07-14T07:46:47.000Z</time>
      </trkpt>
      <trkpt lat="46.12252" lon="2.96806">
        <ele>453.51</ele>
        <time>2018-07-14T07:46:49.000Z</time>
      </trkpt>
      <trkpt lat="46.12252" lon="2.96823">
        <ele>453.24</ele>
        <time>2018-07-14T07:46:52.000Z</time>
      </trkpt>
      <trkpt lat="46.12246" lon="2.96837">
        <ele>454.28</ele>
        <time>2018-07-14T07:46:55.000Z</time>
      </trkpt>
      <trkpt lat="46.1224" lon="2.96847">
        <ele>455.7</ele>
        <time>2018-07-14T07:46:58.000Z</time>
      </trkpt>
      <trkpt lat="46.1224" lon="2.96863">
        <ele>457.49</ele>
        <time>2018-07-14T07:47:04.000Z</time>
      </trkpt>
      <trkpt lat="46.12242" lon="2.96877">
        <ele>461.57</ele>
        <time>2018-07-14T07:47:08.000Z</time>
      </trkpt>
      <trkpt lat="46.12245" lon="2.9689">
        <ele>465.15</ele>
        <time>2018-07-14T07:47:12.000Z</time>
      </trkpt>
      <trkpt lat="46.12254" lon="2.96899">
        <ele>468.87</ele>
        <time>2018-07-14T07:47:18.000Z</time>
      </trkpt>
      <trkpt lat="46.12264" lon="2.96906">
        <ele>468.98</ele>
        <time>2018-07-14T07:47:23.000Z</time>
      </trkpt>
      <trkpt lat="46.12273" lon="2.9691">
        <ele>465.99</ele>
        <time>2018-07-14T07:47:27.000Z</time>
      </trkpt>
      <trkpt lat="46.12281" lon="2.96901">
        <ele>464.59</ele>
        <time>2018-07-14T07:47:33.000Z</time>
      </trkpt>
      <trkpt lat="46.12288" lon="2.96892">
        <ele>466.73</ele>
        <time>2018-07-14T07:47:37.000Z</time>
      </trkpt>
      <trkpt lat="46.12294" lon="2.96882">
        <ele>468.76</ele>
        <time>2018-07-14T07:47:40.000Z</time>
      </trkpt>
      <trkpt lat="46.12301" lon="2.96873">
        <ele>470.3</ele>
        <time>2018-07-14T07:47:43.000Z</time>
      </trkpt>
      <trkpt lat="46.12311" lon="2.96864">
        <ele>471.23</ele>
        <time>2018-07-14T07:47:47.000Z</time>
      </trkpt>
      <trkpt lat="46.12322" lon="2.96858">
        <ele>472.59</ele>
        <time>2018-07-14T07:47:50.000Z</time>
      </trkpt>
      <trkpt lat="46.12328" lon="2.96846">
        <ele>473.77</ele>
        <time>2018-07-14T07:47:53.000Z</time>
      </trkpt>
      <trkpt lat="46.12332" lon="2.96833">
        <ele>474.38</ele>
        <time>2018-07-14T07:47:56.000Z</time>
      </trkpt>
      <trkpt lat="46.12336" lon="2.96817">
        <ele>475.87</ele>
        <time>2018-07-14T07:47:59.000Z</time>
      </trkpt>
      <trkpt lat="46.12343" lon="2.96806">
        <ele>477.01</ele>
        <time>2018-07-14T07:48:02.000Z</time>
      </trkpt>
      <trkpt lat="46.12351" lon="2.96792">
        <ele>478.23</ele>
        <time>2018-07-14T07:48:05.000Z</time>
      </trkpt>
      <trkpt lat="46.12356" lon="2.96781">
        <ele>478.56</ele>
        <time>2018-07-14T07:48:07.000Z</time>
      </trkpt>
      <trkpt lat="46.12363" lon="2.96769">
        <ele>479.32</ele>
        <time>2018-07-14T07:48:09.000Z</time>
      </trkpt>
      <trkpt lat="46.12369" lon="2.96755">
        <ele>480.31</ele>
        <time>2018-07-14T07:48:11.000Z</time>
      </trkpt>
      <trkpt lat="46.12374" lon="2.96743">
        <ele>481.12</ele>
        <time>2018-07-14T07:48:13.000Z</time>
      </trkpt>
      <trkpt lat="46.12384" lon="2.96735">
        <ele>482.51</ele>
        <time>2018-07-14T07:48:16.000Z</time>
      </trkpt>
      <trkpt lat="46.12394" lon="2.96728">
        <ele>482.08</ele>
        <time>2018-07-14T07:48:19.000Z</time>
      </trkpt>
      <trkpt lat="46.12402" lon="2.96723">
        <ele>482.15</ele>
        <time>2018-07-14T07:48:21.000Z</time>
      </trkpt>
      <trkpt lat="46.12411" lon="2.96716">
        <ele>482.12</ele>
        <time>2018-07-14T07:48:23.000Z</time>
      </trkpt>
      <trkpt lat="46.1242" lon="2.96707">
        <ele>483.46</ele>
        <time>2018-07-14T07:48:26.000Z</time>
      </trkpt>
      <trkpt lat="46.12432" lon="2.96699">
        <ele>483.76</ele>
        <time>2018-07-14T07:48:29.000Z</time>
      </trkpt>
      <trkpt lat="46.12441" lon="2.96692">
        <ele>483.73</ele>
        <time>2018-07-14T07:48:31.000Z</time>
      </trkpt>
      <trkpt lat="46.12449" lon="2.96686">
        <ele>483.82</ele>
        <time>2018-07-14T07:48:33.000Z</time>
      </trkpt>
      <trkpt lat="46.12458" lon="2.96678">
        <ele>483.41</ele>
        <time>2018-07-14T07:48:35.000Z</time>
      </trkpt>
      <trkpt lat="46.1247" lon="2.9667">
        <ele>483.06</ele>
        <time>2018-07-14T07:48:37.000Z</time>
      </trkpt>
      <trkpt lat="46.12481" lon="2.96661">
        <ele>482.43</ele>
        <time>2018-07-14T07:48:39.000Z</time>
      </trkpt>
      <trkpt lat="46.12492" lon="2.96654">
        <ele>481.78</ele>
        <time>2018-07-14T07:48:41.000Z</time>
      </trkpt>
      <trkpt lat="46.12503" lon="2.96648">
        <ele>481.91</ele>
        <time>2018-07-14T07:48:43.000Z</time>
      </trkpt>
      <trkpt lat="46.12513" lon="2.96638">
        <ele>481.82</ele>
        <time>2018-07-14T07:48:46.000Z</time>
      </trkpt>
      <trkpt lat="46.12522" lon="2.96634">
        <ele>481.69</ele>
        <time>2018-07-14T07:48:49.000Z</time>
      </trkpt>
      <trkpt lat="46.12531" lon="2.96627">
        <ele>482.35</ele>
        <time>2018-07-14T07:48:51.000Z</time>
      </trkpt>
      <trkpt lat="46.1254" lon="2.96621">
        <ele>482.38</ele>
        <time>2018-07-14T07:48:53.000Z</time>
      </trkpt>
      <trkpt lat="46.12551" lon="2.96614">
        <ele>482.54</ele>
        <time>2018-07-14T07:48:55.000Z</time>
      </trkpt>
      <trkpt lat="46.12562" lon="2.96612">
        <ele>482.96</ele>
        <time>2018-07-14T07:48:57.000Z</time>
      </trkpt>
      <trkpt lat="46.12574" lon="2.9661">
        <ele>482.34</ele>
        <time>2018-07-14T07:48:59.000Z</time>
      </trkpt>
      <trkpt lat="46.12585" lon="2.96605">
        <ele>481.52</ele>
        <time>2018-07-14T07:49:01.000Z</time>
      </trkpt>
      <trkpt lat="46.12596" lon="2.96599">
        <ele>480.78</ele>
        <time>2018-07-14T07:49:03.000Z</time>
      </trkpt>
      <trkpt lat="46.12606" lon="2.96596">
        <ele>481.03</ele>
        <time>2018-07-14T07:49:05.000Z</time>
      </trkpt>
      <trkpt lat="46.12616" lon="2.96593">
        <ele>481.2</ele>
        <time>2018-07-14T07:49:07.000Z</time>
      </trkpt>
      <trkpt lat="46.12626" lon="2.96589">
        <ele>481.42</ele>
        <time>2018-07-14T07:49:09.000Z</time>
      </trkpt>
      <trkpt lat="46.12634" lon="2.96582">
        <ele>481.24</ele>
        <time>2018-07-14T07:49:11.000Z</time>
      </trkpt>
      <trkpt lat="46.12647" lon="2.96576">
        <ele>481.13</ele>
        <time>2018-07-14T07:49:14.000Z</time>
      </trkpt>
      <trkpt lat="46.12656" lon="2.96566">
        <ele>480.79</ele>
        <time>2018-07-14T07:49:16.000Z</time>
      </trkpt>
      <trkpt lat="46.12662" lon="2.96553">
        <ele>478.24</ele>
        <time>2018-07-14T07:49:18.000Z</time>
      </trkpt>
      <trkpt lat="46.12668" lon="2.96541">
        <ele>475.82</ele>
        <time>2018-07-14T07:49:20.000Z</time>
      </trkpt>
      <trkpt lat="46.12678" lon="2.9653">
        <ele>471.77</ele>
        <time>2018-07-14T07:49:23.000Z</time>
      </trkpt>
      <trkpt lat="46.12687" lon="2.96519">
        <ele>468.93</ele>
        <time>2018-07-14T07:49:26.000Z</time>
      </trkpt>
      <trkpt lat="46.12696" lon="2.96509">
        <ele>466.22</ele>
        <time>2018-07-14T07:49:29.000Z</time>
      </trkpt>
      <trkpt lat="46.12702" lon="2.96498">
        <ele>463.62</ele>
        <time>2018-07-14T07:49:33.000Z</time>
      </trkpt>
      <trkpt lat="46.12711" lon="2.96493">
        <ele>462.63</ele>
        <time>2018-07-14T07:49:36.000Z</time>
      </trkpt>
      <trkpt lat="46.12723" lon="2.96485">
        <ele>461.75</ele>
        <time>2018-07-14T07:49:39.000Z</time>
      </trkpt>
      <trkpt lat="46.12731" lon="2.96475">
        <ele>461.01</ele>
        <time>2018-07-14T07:49:41.000Z</time>
      </trkpt>
      <trkpt lat="46.1274" lon="2.9647">
        <ele>461.49</ele>
        <time>2018-07-14T07:49:44.000Z</time>
      </trkpt>
      <trkpt lat="46.12748" lon="2.96461">
        <ele>463.14</ele>
        <time>2018-07-14T07:49:50.000Z</time>
      </trkpt>
      <trkpt lat="46.12753" lon="2.96447">
        <ele>462.89</ele>
        <time>2018-07-14T07:49:53.000Z</time>
      </trkpt>
      <trkpt lat="46.12754" lon="2.96432">
        <ele>463.58</ele>
        <time>2018-07-14T07:49:56.000Z</time>
      </trkpt>
      <trkpt lat="46.12765" lon="2.96424">
        <ele>463.35</ele>
        <time>2018-07-14T07:49:59.000Z</time>
      </trkpt>
      <trkpt lat="46.12777" lon="2.96415">
        <ele>462.37</ele>
        <time>2018-07-14T07:50:02.000Z</time>
      </trkpt>
      <trkpt lat="46.12786" lon="2.96408">
        <ele>460.94</ele>
        <time>2018-07-14T07:50:04.000Z</time>
      </trkpt>
      <trkpt lat="46.12796" lon="2.96401">
        <ele>459.08</ele>
        <time>2018-07-14T07:50:06.000Z</time>
      </trkpt>
      <trkpt lat="46.12805" lon="2.96396">
        <ele>457.3</ele>
        <time>2018-07-14T07:50:08.000Z</time>
      </trkpt>
      <trkpt lat="46.12817" lon="2.96389">
        <ele>455.55</ele>
        <time>2018-07-14T07:50:11.000Z</time>
      </trkpt>
      <trkpt lat="46.12827" lon="2.96379">
        <ele>453.96</ele>
        <time>2018-07-14T07:50:14.000Z</time>
      </trkpt>
      <trkpt lat="46.12839" lon="2.96373">
        <ele>452.51</ele>
        <time>2018-07-14T07:50:17.000Z</time>
      </trkpt>
      <trkpt lat="46.1285" lon="2.96369">
        <ele>451.21</ele>
        <time>2018-07-14T07:50:20.000Z</time>
      </trkpt>
      <trkpt lat="46.1286" lon="2.96368">
        <ele>453.34</ele>
        <time>2018-07-14T07:50:24.000Z</time>
      </trkpt>
      <trkpt lat="46.12864" lon="2.96355">
        <ele>456.31</ele>
        <time>2018-07-14T07:50:29.000Z</time>
      </trkpt>
      <trkpt lat="46.12868" lon="2.96343">
        <ele>458</ele>
        <time>2018-07-14T07:50:32.000Z</time>
      </trkpt>
      <trkpt lat="46.12874" lon="2.96331">
        <ele>457.48</ele>
        <time>2018-07-14T07:50:34.000Z</time>
      </trkpt>
      <trkpt lat="46.1288" lon="2.96318">
        <ele>458.61</ele>
        <time>2018-07-14T07:50:37.000Z</time>
      </trkpt>
      <trkpt lat="46.12884" lon="2.96305">
        <ele>460.31</ele>
        <time>2018-07-14T07:50:40.000Z</time>
      </trkpt>
      <trkpt lat="46.12887" lon="2.9629">
        <ele>461.56</ele>
        <time>2018-07-14T07:50:43.000Z</time>
      </trkpt>
      <trkpt lat="46.12893" lon="2.96274">
        <ele>462.13</ele>
        <time>2018-07-14T07:50:46.000Z</time>
      </trkpt>
      <trkpt lat="46.12897" lon="2.96262">
        <ele>462.01</ele>
        <time>2018-07-14T07:50:49.000Z</time>
      </trkpt>
      <trkpt lat="46.12902" lon="2.96247">
        <ele>466.41</ele>
        <time>2018-07-14T07:50:54.000Z</time>
      </trkpt>
      <trkpt lat="46.12911" lon="2.96238">
        <ele>466.03</ele>
        <time>2018-07-14T07:50:58.000Z</time>
      </trkpt>
      <trkpt lat="46.12921" lon="2.96231">
        <ele>464.37</ele>
        <time>2018-07-14T07:51:01.000Z</time>
      </trkpt>
      <trkpt lat="46.1293" lon="2.96223">
        <ele>462.31</ele>
        <time>2018-07-14T07:51:04.000Z</time>
      </trkpt>
      <trkpt lat="46.12941" lon="2.96217">
        <ele>461.15</ele>
        <time>2018-07-14T07:51:07.000Z</time>
      </trkpt>
      <trkpt lat="46.12949" lon="2.96208">
        <ele>460.46</ele>
        <time>2018-07-14T07:51:10.000Z</time>
      </trkpt>
      <trkpt lat="46.12958" lon="2.96196">
        <ele>459.9</ele>
        <time>2018-07-14T07:51:13.000Z</time>
      </trkpt>
      <trkpt lat="46.12964" lon="2.96186">
        <ele>460.91</ele>
        <time>2018-07-14T07:51:16.000Z</time>
      </trkpt>
      <trkpt lat="46.12973" lon="2.96174">
        <ele>461.63</ele>
        <time>2018-07-14T07:51:19.000Z</time>
      </trkpt>
      <trkpt lat="46.12979" lon="2.96164">
        <ele>461.82</ele>
        <time>2018-07-14T07:51:21.000Z</time>
      </trkpt>
      <trkpt lat="46.12986" lon="2.9615">
        <ele>463.44</ele>
        <time>2018-07-14T07:51:24.000Z</time>
      </trkpt>
      <trkpt lat="46.12986" lon="2.96133">
        <ele>469.14</ele>
        <time>2018-07-14T07:51:28.000Z</time>
      </trkpt>
      <trkpt lat="46.12981" lon="2.96118">
        <ele>474.34</ele>
        <time>2018-07-14T07:51:32.000Z</time>
      </trkpt>
      <trkpt lat="46.12978" lon="2.96102">
        <ele>475.9</ele>
        <time>2018-07-14T07:51:36.000Z</time>
      </trkpt>
      <trkpt lat="46.12983" lon="2.96089">
        <ele>479.15</ele>
        <time>2018-07-14T07:51:40.000Z</time>
      </trkpt>
      <trkpt lat="46.12995" lon="2.96083">
        <ele>482.53</ele>
        <time>2018-07-14T07:51:42.000Z</time>
      </trkpt>
      <trkpt lat="46.13005" lon="2.9608">
        <ele>484.22</ele>
        <time>2018-07-14T07:51:44.999Z</time>
      </trkpt>
      <trkpt lat="46.13015" lon="2.96075">
        <ele>484.37</ele>
        <time>2018-07-14T07:51:49.000Z</time>
      </trkpt>
      <trkpt lat="46.13026" lon="2.96073">
        <ele>484.94</ele>
        <time>2018-07-14T07:51:52.000Z</time>
      </trkpt>
      <trkpt lat="46.13036" lon="2.96067">
        <ele>483.87</ele>
        <time>2018-07-14T07:51:55.000Z</time>
      </trkpt>
      <trkpt lat="46.13044" lon="2.96059">
        <ele>482.75</ele>
        <time>2018-07-14T07:51:58.000Z</time>
      </trkpt>
      <trkpt lat="46.13052" lon="2.9605">
        <ele>481.71</ele>
        <time>2018-07-14T07:52:02.000Z</time>
      </trkpt>
      <trkpt lat="46.13059" lon="2.96036">
        <ele>480.81</ele>
        <time>2018-07-14T07:52:06.000Z</time>
      </trkpt>
      <trkpt lat="46.13067" lon="2.96023">
        <ele>477.65</ele>
        <time>2018-07-14T07:52:09.000Z</time>
      </trkpt>
      <trkpt lat="46.13076" lon="2.96013">
        <ele>476.05</ele>
        <time>2018-07-14T07:52:12.000Z</time>
      </trkpt>
      <trkpt lat="46.13085" lon="2.96001">
        <ele>476.47</ele>
        <time>2018-07-14T07:52:15.000Z</time>
      </trkpt>
      <trkpt lat="46.13095" lon="2.9599">
        <ele>476.62</ele>
        <time>2018-07-14T07:52:18.000Z</time>
      </trkpt>
      <trkpt lat="46.13101" lon="2.9598">
        <ele>477.06</ele>
        <time>2018-07-14T07:52:21.000Z</time>
      </trkpt>
      <trkpt lat="46.13106" lon="2.95969">
        <ele>476.57</ele>
        <time>2018-07-14T07:52:23.000Z</time>
      </trkpt>
      <trkpt lat="46.13111" lon="2.95955">
        <ele>476.21</ele>
        <time>2018-07-14T07:52:26.000Z</time>
      </trkpt>
      <trkpt lat="46.13117" lon="2.95943">
        <ele>476.26</ele>
        <time>2018-07-14T07:52:30.000Z</time>
      </trkpt>
      <trkpt lat="46.13123" lon="2.95934">
        <ele>476.42</ele>
        <time>2018-07-14T07:52:34.000Z</time>
      </trkpt>
      <trkpt lat="46.13129" lon="2.95922">
        <ele>477.48</ele>
        <time>2018-07-14T07:52:38.000Z</time>
      </trkpt>
      <trkpt lat="46.13136" lon="2.9591">
        <ele>481.47</ele>
        <time>2018-07-14T07:52:42.000Z</time>
      </trkpt>
      <trkpt lat="46.13143" lon="2.959">
        <ele>485.54</ele>
        <time>2018-07-14T07:52:47.000Z</time>
      </trkpt>
      <trkpt lat="46.13148" lon="2.95888">
        <ele>488.53</ele>
        <time>2018-07-14T07:52:51.000Z</time>
      </trkpt>
      <trkpt lat="46.13153" lon="2.95875">
        <ele>491.87</ele>
        <time>2018-07-14T07:52:55.000Z</time>
      </trkpt>
      <trkpt lat="46.13156" lon="2.95862">
        <ele>495.34</ele>
        <time>2018-07-14T07:52:59.000Z</time>
      </trkpt>
      <trkpt lat="46.13161" lon="2.9585">
        <ele>498.02</ele>
        <time>2018-07-14T07:53:02.000Z</time>
      </trkpt>
      <trkpt lat="46.13163" lon="2.95832">
        <ele>501.02</ele>
        <time>2018-07-14T07:53:05.000Z</time>
      </trkpt>
      <trkpt lat="46.13164" lon="2.95817">
        <ele>504.02</ele>
        <time>2018-07-14T07:53:08.000Z</time>
      </trkpt>
      <trkpt lat="46.13159" lon="2.95802">
        <ele>507.72</ele>
        <time>2018-07-14T07:53:13.000Z</time>
      </trkpt>
      <trkpt lat="46.13155" lon="2.95783">
        <ele>510.04</ele>
        <time>2018-07-14T07:53:16.000Z</time>
      </trkpt>
      <trkpt lat="46.13154" lon="2.9577">
        <ele>511.45</ele>
        <time>2018-07-14T07:53:18.000Z</time>
      </trkpt>
      <trkpt lat="46.13155" lon="2.95756">
        <ele>513.23</ele>
        <time>2018-07-14T07:53:20.000Z</time>
      </trkpt>
      <trkpt lat="46.13156" lon="2.95743">
        <ele>514.84</ele>
        <time>2018-07-14T07:53:22.000Z</time>
      </trkpt>
      <trkpt lat="46.13151" lon="2.95728">
        <ele>516.25</ele>
        <time>2018-07-14T07:53:25.000Z</time>
      </trkpt>
      <trkpt lat="46.13146" lon="2.95714">
        <ele>517.16</ele>
        <time>2018-07-14T07:53:28.000Z</time>
      </trkpt>
      <trkpt lat="46.13144" lon="2.957">
        <ele>517.87</ele>
        <time>2018-07-14T07:53:31.000Z</time>
      </trkpt>
      <trkpt lat="46.13141" lon="2.95687">
        <ele>520.8</ele>
        <time>2018-07-14T07:53:34.000Z</time>
      </trkpt>
      <trkpt lat="46.13139" lon="2.95672">
        <ele>522.98</ele>
        <time>2018-07-14T07:53:37.000Z</time>
      </trkpt>
      <trkpt lat="46.13137" lon="2.95659">
        <ele>525.2</ele>
        <time>2018-07-14T07:53:40.000Z</time>
      </trkpt>
      <trkpt lat="46.13134" lon="2.95642">
        <ele>526.63</ele>
        <time>2018-07-14T07:53:44.000Z</time>
      </trkpt>
      <trkpt lat="46.13131" lon="2.95627">
        <ele>529.41</ele>
        <time>2018-07-14T07:53:48.000Z</time>
      </trkpt>
      <trkpt lat="46.13124" lon="2.95616">
        <ele>531.9</ele>
        <time>2018-07-14T07:53:52.000Z</time>
      </trkpt>
      <trkpt lat="46.13115" lon="2.95607">
        <ele>535.76</ele>
        <time>2018-07-14T07:53:56.000Z</time>
      </trkpt>
      <trkpt lat="46.13105" lon="2.95601">
        <ele>537.89</ele>
        <time>2018-07-14T07:53:59.000Z</time>
      </trkpt>
      <trkpt lat="46.13096" lon="2.95594">
        <ele>540.35</ele>
        <time>2018-07-14T07:54:01.000Z</time>
      </trkpt>
      <trkpt lat="46.13085" lon="2.95587">
        <ele>543.52</ele>
        <time>2018-07-14T07:54:04.000Z</time>
      </trkpt>
      <trkpt lat="46.13075" lon="2.95583">
        <ele>546.95</ele>
        <time>2018-07-14T07:54:07.000Z</time>
      </trkpt>
      <trkpt lat="46.13065" lon="2.9558">
        <ele>549.61</ele>
        <time>2018-07-14T07:54:10.000Z</time>
      </trkpt>
      <trkpt lat="46.13056" lon="2.95577">
        <ele>552.68</ele>
        <time>2018-07-14T07:54:13.000Z</time>
      </trkpt>
      <trkpt lat="46.13046" lon="2.95574">
        <ele>555.2</ele>
        <time>2018-07-14T07:54:16.000Z</time>
      </trkpt>
      <trkpt lat="46.13034" lon="2.95572">
        <ele>557.59</ele>
        <time>2018-07-14T07:54:19.000Z</time>
      </trkpt>
      <trkpt lat="46.13023" lon="2.95569">
        <ele>559.57</ele>
        <time>2018-07-14T07:54:22.000Z</time>
      </trkpt>
      <trkpt lat="46.13014" lon="2.95568">
        <ele>561.7</ele>
        <time>2018-07-14T07:54:25.000Z</time>
      </trkpt>
      <trkpt lat="46.13004" lon="2.95566">
        <ele>563.38</ele>
        <time>2018-07-14T07:54:28.000Z</time>
      </trkpt>
      <trkpt lat="46.12994" lon="2.95566">
        <ele>564.63</ele>
        <time>2018-07-14T07:54:31.000Z</time>
      </trkpt>
      <trkpt lat="46.12982" lon="2.95567">
        <ele>565</ele>
        <time>2018-07-14T07:54:34.000Z</time>
      </trkpt>
      <trkpt lat="46.1297" lon="2.95568">
        <ele>564.96</ele>
        <time>2018-07-14T07:54:36.000Z</time>
      </trkpt>
      <trkpt lat="46.12962" lon="2.95571">
        <ele>565.23</ele>
        <time>2018-07-14T07:54:38.000Z</time>
      </trkpt>
      <trkpt lat="46.1295" lon="2.95576">
        <ele>565.07</ele>
        <time>2018-07-14T07:54:40.000Z</time>
      </trkpt>
      <trkpt lat="46.1294" lon="2.95583">
        <ele>564.93</ele>
        <time>2018-07-14T07:54:42.000Z</time>
      </trkpt>
      <trkpt lat="46.12933" lon="2.95594">
        <ele>565.68</ele>
        <time>2018-07-14T07:54:44.000Z</time>
      </trkpt>
      <trkpt lat="46.12927" lon="2.95605">
        <ele>566.67</ele>
        <time>2018-07-14T07:54:46.000Z</time>
      </trkpt>
      <trkpt lat="46.12919" lon="2.95621">
        <ele>567.87</ele>
        <time>2018-07-14T07:54:49.000Z</time>
      </trkpt>
      <trkpt lat="46.12914" lon="2.95634">
        <ele>567.36</ele>
        <time>2018-07-14T07:54:51.000Z</time>
      </trkpt>
      <trkpt lat="46.1291" lon="2.95645">
        <ele>567.36</ele>
        <time>2018-07-14T07:54:53.000Z</time>
      </trkpt>
      <trkpt lat="46.12904" lon="2.95658">
        <ele>567.07</ele>
        <time>2018-07-14T07:54:55.000Z</time>
      </trkpt>
      <trkpt lat="46.12896" lon="2.9567">
        <ele>566.42</ele>
        <time>2018-07-14T07:54:57.000Z</time>
      </trkpt>
      <trkpt lat="46.12888" lon="2.95681">
        <ele>565.33</ele>
        <time>2018-07-14T07:54:59.000Z</time>
      </trkpt>
      <trkpt lat="46.12879" lon="2.95691">
        <ele>563.82</ele>
        <time>2018-07-14T07:55:01.000Z</time>
      </trkpt>
      <trkpt lat="46.12869" lon="2.957">
        <ele>562.77</ele>
        <time>2018-07-14T07:55:03.000Z</time>
      </trkpt>
      <trkpt lat="46.1286" lon="2.95707">
        <ele>562.23</ele>
        <time>2018-07-14T07:55:05.000Z</time>
      </trkpt>
      <trkpt lat="46.12851" lon="2.95716">
        <ele>561.42</ele>
        <time>2018-07-14T07:55:07.000Z</time>
      </trkpt>
      <trkpt lat="46.12843" lon="2.95724">
        <ele>560.64</ele>
        <time>2018-07-14T07:55:09.000Z</time>
      </trkpt>
      <trkpt lat="46.12833" lon="2.95735">
        <ele>560.01</ele>
        <time>2018-07-14T07:55:11.000Z</time>
      </trkpt>
      <trkpt lat="46.12825" lon="2.95747">
        <ele>558.7</ele>
        <time>2018-07-14T07:55:13.000Z</time>
      </trkpt>
      <trkpt lat="46.12816" lon="2.95758">
        <ele>557.99</ele>
        <time>2018-07-14T07:55:15.000Z</time>
      </trkpt>
      <trkpt lat="46.12809" lon="2.9577">
        <ele>556.93</ele>
        <time>2018-07-14T07:55:17.000Z</time>
      </trkpt>
      <trkpt lat="46.12803" lon="2.95781">
        <ele>555.35</ele>
        <time>2018-07-14T07:55:19.000Z</time>
      </trkpt>
      <trkpt lat="46.12796" lon="2.95792">
        <ele>553.83</ele>
        <time>2018-07-14T07:55:21.000Z</time>
      </trkpt>
      <trkpt lat="46.12788" lon="2.95803">
        <ele>552.98</ele>
        <time>2018-07-14T07:55:23.000Z</time>
      </trkpt>
      <trkpt lat="46.1278" lon="2.95812">
        <ele>551.91</ele>
        <time>2018-07-14T07:55:25.000Z</time>
      </trkpt>
      <trkpt lat="46.12772" lon="2.95822">
        <ele>550.7</ele>
        <time>2018-07-14T07:55:27.000Z</time>
      </trkpt>
      <trkpt lat="46.12764" lon="2.95831">
        <ele>550.03</ele>
        <time>2018-07-14T07:55:29.000Z</time>
      </trkpt>
      <trkpt lat="46.12755" lon="2.95836">
        <ele>550.26</ele>
        <time>2018-07-14T07:55:31.000Z</time>
      </trkpt>
      <trkpt lat="46.12746" lon="2.95839">
        <ele>550.2</ele>
        <time>2018-07-14T07:55:33.000Z</time>
      </trkpt>
      <trkpt lat="46.12733" lon="2.9584">
        <ele>550.24</ele>
        <time>2018-07-14T07:55:36.000Z</time>
      </trkpt>
      <trkpt lat="46.1272" lon="2.9584">
        <ele>551.03</ele>
        <time>2018-07-14T07:55:39.000Z</time>
      </trkpt>
      <trkpt lat="46.12709" lon="2.9584">
        <ele>551.78</ele>
        <time>2018-07-14T07:55:42.000Z</time>
      </trkpt>
      <trkpt lat="46.12698" lon="2.95838">
        <ele>551.7</ele>
        <time>2018-07-14T07:55:45.000Z</time>
      </trkpt>
      <trkpt lat="46.12688" lon="2.95833">
        <ele>551.89</ele>
        <time>2018-07-14T07:55:47.000Z</time>
      </trkpt>
      <trkpt lat="46.1268" lon="2.95826">
        <ele>552.02</ele>
        <time>2018-07-14T07:55:49.000Z</time>
      </trkpt>
      <trkpt lat="46.1267" lon="2.95818">
        <ele>552.54</ele>
        <time>2018-07-14T07:55:51.000Z</time>
      </trkpt>
      <trkpt lat="46.1266" lon="2.95811">
        <ele>552.82</ele>
        <time>2018-07-14T07:55:53.000Z</time>
      </trkpt>
      <trkpt lat="46.12647" lon="2.95805">
        <ele>553.49</ele>
        <time>2018-07-14T07:55:55.000Z</time>
      </trkpt>
      <trkpt lat="46.12635" lon="2.95801">
        <ele>554.45</ele>
        <time>2018-07-14T07:55:57.000Z</time>
      </trkpt>
      <trkpt lat="46.12624" lon="2.95798">
        <ele>555.51</ele>
        <time>2018-07-14T07:55:59.000Z</time>
      </trkpt>
      <trkpt lat="46.12614" lon="2.95794">
        <ele>556.36</ele>
        <time>2018-07-14T07:56:01.000Z</time>
      </trkpt>
      <trkpt lat="46.12605" lon="2.95791">
        <ele>556.85</ele>
        <time>2018-07-14T07:56:03.000Z</time>
      </trkpt>
      <trkpt lat="46.12596" lon="2.95787">
        <ele>557.34</ele>
        <time>2018-07-14T07:56:05.000Z</time>
      </trkpt>
      <trkpt lat="46.12581" lon="2.95784">
        <ele>558.19</ele>
        <time>2018-07-14T07:56:08.000Z</time>
      </trkpt>
      <trkpt lat="46.12569" lon="2.95781">
        <ele>558.76</ele>
        <time>2018-07-14T07:56:10.000Z</time>
      </trkpt>
      <trkpt lat="46.1256" lon="2.95778">
        <ele>559.31</ele>
        <time>2018-07-14T07:56:12.000Z</time>
      </trkpt>
      <trkpt lat="46.12549" lon="2.95774">
        <ele>560.09</ele>
        <time>2018-07-14T07:56:14.000Z</time>
      </trkpt>
      <trkpt lat="46.12539" lon="2.9577">
        <ele>560.59</ele>
        <time>2018-07-14T07:56:16.000Z</time>
      </trkpt>
      <trkpt lat="46.1253" lon="2.95765">
        <ele>560.88</ele>
        <time>2018-07-14T07:56:18.000Z</time>
      </trkpt>
      <trkpt lat="46.12518" lon="2.95755">
        <ele>561.68</ele>
        <time>2018-07-14T07:56:21.000Z</time>
      </trkpt>
      <trkpt lat="46.1251" lon="2.95746">
        <ele>562.28</ele>
        <time>2018-07-14T07:56:23.000Z</time>
      </trkpt>
      <trkpt lat="46.12503" lon="2.95735">
        <ele>562.62</ele>
        <time>2018-07-14T07:56:25.000Z</time>
      </trkpt>
      <trkpt lat="46.12495" lon="2.95725">
        <ele>563.03</ele>
        <time>2018-07-14T07:56:27.000Z</time>
      </trkpt>
      <trkpt lat="46.12486" lon="2.95715">
        <ele>563.19</ele>
        <time>2018-07-14T07:56:29.000Z</time>
      </trkpt>
      <trkpt lat="46.12478" lon="2.95706">
        <ele>563.34</ele>
        <time>2018-07-14T07:56:31.000Z</time>
      </trkpt>
      <trkpt lat="46.12471" lon="2.95697">
        <ele>563.47</ele>
        <time>2018-07-14T07:56:33.000Z</time>
      </trkpt>
      <trkpt lat="46.12464" lon="2.95687">
        <ele>563.95</ele>
        <time>2018-07-14T07:56:35.000Z</time>
      </trkpt>
      <trkpt lat="46.12459" lon="2.95676">
        <ele>564.58</ele>
        <time>2018-07-14T07:56:37.000Z</time>
      </trkpt>
      <trkpt lat="46.12456" lon="2.95661">
        <ele>565.05</ele>
        <time>2018-07-14T07:56:39.000Z</time>
      </trkpt>
      <trkpt lat="46.12453" lon="2.95644">
        <ele>564.87</ele>
        <time>2018-07-14T07:56:41.000Z</time>
      </trkpt>
      <trkpt lat="46.1245" lon="2.95628">
        <ele>564.26</ele>
        <time>2018-07-14T07:56:43.000Z</time>
      </trkpt>
      <trkpt lat="46.12446" lon="2.95613">
        <ele>563.12</ele>
        <time>2018-07-14T07:56:45.000Z</time>
      </trkpt>
      <trkpt lat="46.12442" lon="2.95597">
        <ele>562.56</ele>
        <time>2018-07-14T07:56:47.000Z</time>
      </trkpt>
      <trkpt lat="46.12438" lon="2.9558">
        <ele>561.39</ele>
        <time>2018-07-14T07:56:49.000Z</time>
      </trkpt>
      <trkpt lat="46.12437" lon="2.95562">
        <ele>560.26</ele>
        <time>2018-07-14T07:56:51.000Z</time>
      </trkpt>
      <trkpt lat="46.12436" lon="2.95544">
        <ele>558.97</ele>
        <time>2018-07-14T07:56:53.000Z</time>
      </trkpt>
      <trkpt lat="46.12437" lon="2.95528">
        <ele>558.54</ele>
        <time>2018-07-14T07:56:55.000Z</time>
      </trkpt>
      <trkpt lat="46.12438" lon="2.95513">
        <ele>558.1</ele>
        <time>2018-07-14T07:56:57.000Z</time>
      </trkpt>
      <trkpt lat="46.12436" lon="2.95497">
        <ele>557.86</ele>
        <time>2018-07-14T07:56:59.000Z</time>
      </trkpt>
      <trkpt lat="46.12434" lon="2.95482">
        <ele>557.69</ele>
        <time>2018-07-14T07:57:01.000Z</time>
      </trkpt>
      <trkpt lat="46.12432" lon="2.95466">
        <ele>557.55</ele>
        <time>2018-07-14T07:57:03.000Z</time>
      </trkpt>
      <trkpt lat="46.1243" lon="2.9545">
        <ele>557.25</ele>
        <time>2018-07-14T07:57:05.000Z</time>
      </trkpt>
      <trkpt lat="46.12428" lon="2.95434">
        <ele>556.04</ele>
        <time>2018-07-14T07:57:07.000Z</time>
      </trkpt>
      <trkpt lat="46.12425" lon="2.95419">
        <ele>553.94</ele>
        <time>2018-07-14T07:57:09.000Z</time>
      </trkpt>
      <trkpt lat="46.12423" lon="2.95403">
        <ele>551.35</ele>
        <time>2018-07-14T07:57:11.000Z</time>
      </trkpt>
      <trkpt lat="46.12419" lon="2.95388">
        <ele>550.95</ele>
        <time>2018-07-14T07:57:13.000Z</time>
      </trkpt>
      <trkpt lat="46.12415" lon="2.95375">
        <ele>550.56</ele>
        <time>2018-07-14T07:57:15.000Z</time>
      </trkpt>
      <trkpt lat="46.1241" lon="2.95362">
        <ele>550.78</ele>
        <time>2018-07-14T07:57:17.000Z</time>
      </trkpt>
      <trkpt lat="46.12404" lon="2.95351">
        <ele>550.35</ele>
        <time>2018-07-14T07:57:19.000Z</time>
      </trkpt>
      <trkpt lat="46.12397" lon="2.95341">
        <ele>550.43</ele>
        <time>2018-07-14T07:57:21.000Z</time>
      </trkpt>
      <trkpt lat="46.12391" lon="2.95329">
        <ele>550.3</ele>
        <time>2018-07-14T07:57:23.000Z</time>
      </trkpt>
      <trkpt lat="46.12384" lon="2.95316">
        <ele>549.73</ele>
        <time>2018-07-14T07:57:25.000Z</time>
      </trkpt>
      <trkpt lat="46.12377" lon="2.95303">
        <ele>549.1</ele>
        <time>2018-07-14T07:57:27.000Z</time>
      </trkpt>
      <trkpt lat="46.12371" lon="2.95289">
        <ele>547.99</ele>
        <time>2018-07-14T07:57:29.000Z</time>
      </trkpt>
      <trkpt lat="46.12363" lon="2.95274">
        <ele>546.68</ele>
        <time>2018-07-14T07:57:31.000Z</time>
      </trkpt>
      <trkpt lat="46.12354" lon="2.95259">
        <ele>546</ele>
        <time>2018-07-14T07:57:33.000Z</time>
      </trkpt>
      <trkpt lat="46.12343" lon="2.95244">
        <ele>545.47</ele>
        <time>2018-07-14T07:57:35.000Z</time>
      </trkpt>
      <trkpt lat="46.12331" lon="2.95228">
        <ele>545.36</ele>
        <time>2018-07-14T07:57:37.000Z</time>
      </trkpt>
      <trkpt lat="46.1232" lon="2.95212">
        <ele>545.12</ele>
        <time>2018-07-14T07:57:39.000Z</time>
      </trkpt>
      <trkpt lat="46.1231" lon="2.95196">
        <ele>545.27</ele>
        <time>2018-07-14T07:57:41.000Z</time>
      </trkpt>
      <trkpt lat="46.12299" lon="2.9518">
        <ele>545.43</ele>
        <time>2018-07-14T07:57:43.000Z</time>
      </trkpt>
      <trkpt lat="46.12287" lon="2.95164">
        <ele>546.24</ele>
        <time>2018-07-14T07:57:45.000Z</time>
      </trkpt>
      <trkpt lat="46.12279" lon="2.95142">
        <ele>545.75</ele>
        <time>2018-07-14T07:57:47.000Z</time>
      </trkpt>
      <trkpt lat="46.12277" lon="2.95129">
        <ele>545.52</ele>
        <time>2018-07-14T07:57:48.000Z</time>
      </trkpt>
      <trkpt lat="46.12276" lon="2.95115">
        <ele>544.73</ele>
        <time>2018-07-14T07:57:49.000Z</time>
      </trkpt>
      <trkpt lat="46.12277" lon="2.951">
        <ele>544.25</ele>
        <time>2018-07-14T07:57:50.000Z</time>
      </trkpt>
      <trkpt lat="46.12279" lon="2.95087">
        <ele>543.32</ele>
        <time>2018-07-14T07:57:51.000Z</time>
      </trkpt>
      <trkpt lat="46.12281" lon="2.95073">
        <ele>542.39</ele>
        <time>2018-07-14T07:57:52.000Z</time>
      </trkpt>
      <trkpt lat="46.12284" lon="2.95059">
        <ele>541.36</ele>
        <time>2018-07-14T07:57:53.000Z</time>
      </trkpt>
      <trkpt lat="46.12286" lon="2.95044">
        <ele>540.31</ele>
        <time>2018-07-14T07:57:54.000Z</time>
      </trkpt>
      <trkpt lat="46.12288" lon="2.95029">
        <ele>539.29</ele>
        <time>2018-07-14T07:57:55.000Z</time>
      </trkpt>
      <trkpt lat="46.12288" lon="2.95013">
        <ele>538.4</ele>
        <time>2018-07-14T07:57:56.000Z</time>
      </trkpt>
      <trkpt lat="46.12287" lon="2.94999">
        <ele>538.01</ele>
        <time>2018-07-14T07:57:57.000Z</time>
      </trkpt>
      <trkpt lat="46.12287" lon="2.94984">
        <ele>537.5</ele>
        <time>2018-07-14T07:57:58.000Z</time>
      </trkpt>
      <trkpt lat="46.12286" lon="2.94969">
        <ele>537.09</ele>
        <time>2018-07-14T07:57:59.000Z</time>
      </trkpt>
      <trkpt lat="46.12284" lon="2.94955">
        <ele>536.86</ele>
        <time>2018-07-14T07:58:00.000Z</time>
      </trkpt>
      <trkpt lat="46.12282" lon="2.94942">
        <ele>536.84</ele>
        <time>2018-07-14T07:58:01.000Z</time>
      </trkpt>
      <trkpt lat="46.12278" lon="2.94929">
        <ele>536.44</ele>
        <time>2018-07-14T07:58:02.000Z</time>
      </trkpt>
      <trkpt lat="46.12271" lon="2.94906">
        <ele>535.64</ele>
        <time>2018-07-14T07:58:04.000Z</time>
      </trkpt>
      <trkpt lat="46.12261" lon="2.9489">
        <ele>533.94</ele>
        <time>2018-07-14T07:58:06.000Z</time>
      </trkpt>
      <trkpt lat="46.12251" lon="2.94877">
        <ele>533.26</ele>
        <time>2018-07-14T07:58:08.000Z</time>
      </trkpt>
      <trkpt lat="46.12242" lon="2.94865">
        <ele>532.83</ele>
        <time>2018-07-14T07:58:10.000Z</time>
      </trkpt>
      <trkpt lat="46.1223" lon="2.94853">
        <ele>533.15</ele>
        <time>2018-07-14T07:58:12.000Z</time>
      </trkpt>
      <trkpt lat="46.12217" lon="2.94841">
        <ele>534.1</ele>
        <time>2018-07-14T07:58:14.000Z</time>
      </trkpt>
      <trkpt lat="46.12203" lon="2.94831">
        <ele>534.66</ele>
        <time>2018-07-14T07:58:16.000Z</time>
      </trkpt>
      <trkpt lat="46.12194" lon="2.94826">
        <ele>535.67</ele>
        <time>2018-07-14T07:58:17.000Z</time>
      </trkpt>
      <trkpt lat="46.12181" lon="2.94818">
        <ele>536.78</ele>
        <time>2018-07-14T07:58:19.000Z</time>
      </trkpt>
      <trkpt lat="46.12167" lon="2.9481">
        <ele>537.95</ele>
        <time>2018-07-14T07:58:21.000Z</time>
      </trkpt>
      <trkpt lat="46.12154" lon="2.94802">
        <ele>539.26</ele>
        <time>2018-07-14T07:58:23.000Z</time>
      </trkpt>
      <trkpt lat="46.12144" lon="2.94795">
        <ele>540.44</ele>
        <time>2018-07-14T07:58:25.000Z</time>
      </trkpt>
      <trkpt lat="46.12135" lon="2.94791">
        <ele>541.35</ele>
        <time>2018-07-14T07:58:27.000Z</time>
      </trkpt>
      <trkpt lat="46.12123" lon="2.94786">
        <ele>543.64</ele>
        <time>2018-07-14T07:58:30.000Z</time>
      </trkpt>
      <trkpt lat="46.1211" lon="2.94782">
        <ele>545.2</ele>
        <time>2018-07-14T07:58:32.000Z</time>
      </trkpt>
      <trkpt lat="46.12099" lon="2.94781">
        <ele>546.1</ele>
        <time>2018-07-14T07:58:34.000Z</time>
      </trkpt>
      <trkpt lat="46.12086" lon="2.94779">
        <ele>547.63</ele>
        <time>2018-07-14T07:58:37.000Z</time>
      </trkpt>
      <trkpt lat="46.12075" lon="2.94776">
        <ele>549.16</ele>
        <time>2018-07-14T07:58:39.000Z</time>
      </trkpt>
      <trkpt lat="46.12064" lon="2.94773">
        <ele>550.44</ele>
        <time>2018-07-14T07:58:41.000Z</time>
      </trkpt>
      <trkpt lat="46.12052" lon="2.94769">
        <ele>551.35</ele>
        <time>2018-07-14T07:58:43.000Z</time>
      </trkpt>
      <trkpt lat="46.12039" lon="2.94764">
        <ele>551.57</ele>
        <time>2018-07-14T07:58:45.000Z</time>
      </trkpt>
      <trkpt lat="46.12023" lon="2.94765">
        <ele>551.15</ele>
        <time>2018-07-14T07:58:47.000Z</time>
      </trkpt>
      <trkpt lat="46.12014" lon="2.94767">
        <ele>550.68</ele>
        <time>2018-07-14T07:58:48.000Z</time>
      </trkpt>
      <trkpt lat="46.12004" lon="2.94769">
        <ele>550.23</ele>
        <time>2018-07-14T07:58:49.000Z</time>
      </trkpt>
      <trkpt lat="46.11993" lon="2.94771">
        <ele>549.71</ele>
        <time>2018-07-14T07:58:50.000Z</time>
      </trkpt>
      <trkpt lat="46.11984" lon="2.94772">
        <ele>549.21</ele>
        <time>2018-07-14T07:58:51.000Z</time>
      </trkpt>
      <trkpt lat="46.11974" lon="2.94771">
        <ele>549.04</ele>
        <time>2018-07-14T07:58:52.000Z</time>
      </trkpt>
      <trkpt lat="46.11964" lon="2.94769">
        <ele>548.96</ele>
        <time>2018-07-14T07:58:53.000Z</time>
      </trkpt>
      <trkpt lat="46.11955" lon="2.94766">
        <ele>549.03</ele>
        <time>2018-07-14T07:58:54.000Z</time>
      </trkpt>
      <trkpt lat="46.11946" lon="2.94762">
        <ele>549.11</ele>
        <time>2018-07-14T07:58:55.000Z</time>
      </trkpt>
      <trkpt lat="46.1193" lon="2.9475">
        <ele>549.31</ele>
        <time>2018-07-14T07:58:57.000Z</time>
      </trkpt>
      <trkpt lat="46.11914" lon="2.94738">
        <ele>549.19</ele>
        <time>2018-07-14T07:58:59.000Z</time>
      </trkpt>
      <trkpt lat="46.11906" lon="2.94731">
        <ele>548.72</ele>
        <time>2018-07-14T07:59:00.000Z</time>
      </trkpt>
      <trkpt lat="46.11892" lon="2.94716">
        <ele>547.7</ele>
        <time>2018-07-14T07:59:02.000Z</time>
      </trkpt>
      <trkpt lat="46.11886" lon="2.94705">
        <ele>547.28</ele>
        <time>2018-07-14T07:59:03.000Z</time>
      </trkpt>
      <trkpt lat="46.11877" lon="2.94684">
        <ele>547.23</ele>
        <time>2018-07-14T07:59:05.000Z</time>
      </trkpt>
      <trkpt lat="46.11872" lon="2.94667">
        <ele>546.66</ele>
        <time>2018-07-14T07:59:07.000Z</time>
      </trkpt>
      <trkpt lat="46.11866" lon="2.94653">
        <ele>545.96</ele>
        <time>2018-07-14T07:59:09.000Z</time>
      </trkpt>
      <trkpt lat="46.1186" lon="2.9464">
        <ele>545.66</ele>
        <time>2018-07-14T07:59:11.000Z</time>
      </trkpt>
      <trkpt lat="46.11854" lon="2.94627">
        <ele>545.96</ele>
        <time>2018-07-14T07:59:13.000Z</time>
      </trkpt>
      <trkpt lat="46.11845" lon="2.94612">
        <ele>546.2</ele>
        <time>2018-07-14T07:59:15.000Z</time>
      </trkpt>
      <trkpt lat="46.11836" lon="2.94599">
        <ele>546.79</ele>
        <time>2018-07-14T07:59:17.000Z</time>
      </trkpt>
      <trkpt lat="46.11829" lon="2.94587">
        <ele>547.39</ele>
        <time>2018-07-14T07:59:19.000Z</time>
      </trkpt>
      <trkpt lat="46.11823" lon="2.94576">
        <ele>547.99</ele>
        <time>2018-07-14T07:59:21.000Z</time>
      </trkpt>
      <trkpt lat="46.11815" lon="2.94564">
        <ele>548.69</ele>
        <time>2018-07-14T07:59:23.000Z</time>
      </trkpt>
      <trkpt lat="46.11807" lon="2.94552">
        <ele>549.08</ele>
        <time>2018-07-14T07:59:25.000Z</time>
      </trkpt>
      <trkpt lat="46.11799" lon="2.94539">
        <ele>549.39</ele>
        <time>2018-07-14T07:59:27.000Z</time>
      </trkpt>
      <trkpt lat="46.11794" lon="2.94524">
        <ele>549.67</ele>
        <time>2018-07-14T07:59:29.000Z</time>
      </trkpt>
      <trkpt lat="46.11791" lon="2.94505">
        <ele>549.61</ele>
        <time>2018-07-14T07:59:31.000Z</time>
      </trkpt>
      <trkpt lat="46.11787" lon="2.94486">
        <ele>549.69</ele>
        <time>2018-07-14T07:59:33.000Z</time>
      </trkpt>
      <trkpt lat="46.11785" lon="2.94468">
        <ele>549.08</ele>
        <time>2018-07-14T07:59:35.000Z</time>
      </trkpt>
      <trkpt lat="46.11783" lon="2.94447">
        <ele>548.67</ele>
        <time>2018-07-14T07:59:37.000Z</time>
      </trkpt>
      <trkpt lat="46.11781" lon="2.94425">
        <ele>547.58</ele>
        <time>2018-07-14T07:59:39.000Z</time>
      </trkpt>
      <trkpt lat="46.11779" lon="2.94404">
        <ele>546.86</ele>
        <time>2018-07-14T07:59:41.000Z</time>
      </trkpt>
      <trkpt lat="46.11779" lon="2.94384">
        <ele>546.32</ele>
        <time>2018-07-14T07:59:43.000Z</time>
      </trkpt>
      <trkpt lat="46.11786" lon="2.94361">
        <ele>546.58</ele>
        <time>2018-07-14T07:59:45.000Z</time>
      </trkpt>
      <trkpt lat="46.11795" lon="2.94339">
        <ele>546.38</ele>
        <time>2018-07-14T07:59:47.000Z</time>
      </trkpt>
      <trkpt lat="46.11805" lon="2.94321">
        <ele>546.24</ele>
        <time>2018-07-14T07:59:49.000Z</time>
      </trkpt>
      <trkpt lat="46.11819" lon="2.94308">
        <ele>546.7</ele>
        <time>2018-07-14T07:59:51.000Z</time>
      </trkpt>
      <trkpt lat="46.11833" lon="2.943">
        <ele>547.15</ele>
        <time>2018-07-14T07:59:53.000Z</time>
      </trkpt>
      <trkpt lat="46.11847" lon="2.94293">
        <ele>547.47</ele>
        <time>2018-07-14T07:59:55.000Z</time>
      </trkpt>
      <trkpt lat="46.11861" lon="2.94284">
        <ele>547.59</ele>
        <time>2018-07-14T07:59:57.000Z</time>
      </trkpt>
      <trkpt lat="46.11874" lon="2.94279">
        <ele>547.83</ele>
        <time>2018-07-14T07:59:59.000Z</time>
      </trkpt>
      <trkpt lat="46.1189" lon="2.94272">
        <ele>547.53</ele>
        <time>2018-07-14T08:00:01.000Z</time>
      </trkpt>
      <trkpt lat="46.11907" lon="2.94266">
        <ele>547.58</ele>
        <time>2018-07-14T08:00:03.000Z</time>
      </trkpt>
      <trkpt lat="46.11921" lon="2.94259">
        <ele>547.74</ele>
        <time>2018-07-14T08:00:05.000Z</time>
      </trkpt>
      <trkpt lat="46.11932" lon="2.94252">
        <ele>547.99</ele>
        <time>2018-07-14T08:00:07.000Z</time>
      </trkpt>
      <trkpt lat="46.11942" lon="2.94247">
        <ele>547.6</ele>
        <time>2018-07-14T08:00:09.000Z</time>
      </trkpt>
      <trkpt lat="46.11951" lon="2.94243">
        <ele>546.77</ele>
        <time>2018-07-14T08:00:11.000Z</time>
      </trkpt>
      <trkpt lat="46.1196" lon="2.9424">
        <ele>545.98</ele>
        <time>2018-07-14T08:00:13.000Z</time>
      </trkpt>
      <trkpt lat="46.11969" lon="2.94235">
        <ele>544.53</ele>
        <time>2018-07-14T08:00:15.000Z</time>
      </trkpt>
      <trkpt lat="46.11979" lon="2.94231">
        <ele>542.99</ele>
        <time>2018-07-14T08:00:17.000Z</time>
      </trkpt>
      <trkpt lat="46.11987" lon="2.94224">
        <ele>541.83</ele>
        <time>2018-07-14T08:00:19.000Z</time>
      </trkpt>
      <trkpt lat="46.11998" lon="2.94215">
        <ele>539.89</ele>
        <time>2018-07-14T08:00:22.000Z</time>
      </trkpt>
      <trkpt lat="46.12005" lon="2.94207">
        <ele>538.6</ele>
        <time>2018-07-14T08:00:24.000Z</time>
      </trkpt>
      <trkpt lat="46.12013" lon="2.94198">
        <ele>537.75</ele>
        <time>2018-07-14T08:00:26.000Z</time>
      </trkpt>
      <trkpt lat="46.12022" lon="2.94188">
        <ele>536.99</ele>
        <time>2018-07-14T08:00:28.000Z</time>
      </trkpt>
      <trkpt lat="46.12032" lon="2.94179">
        <ele>536.34</ele>
        <time>2018-07-14T08:00:30.000Z</time>
      </trkpt>
      <trkpt lat="46.12042" lon="2.94172">
        <ele>536.24</ele>
        <time>2018-07-14T08:00:32.000Z</time>
      </trkpt>
      <trkpt lat="46.1205" lon="2.94165">
        <ele>536.06</ele>
        <time>2018-07-14T08:00:34.000Z</time>
      </trkpt>
      <trkpt lat="46.12059" lon="2.94158">
        <ele>534.81</ele>
        <time>2018-07-14T08:00:36.000Z</time>
      </trkpt>
      <trkpt lat="46.12067" lon="2.94151">
        <ele>534.67</ele>
        <time>2018-07-14T08:00:38.000Z</time>
      </trkpt>
      <trkpt lat="46.12075" lon="2.94143">
        <ele>534.06</ele>
        <time>2018-07-14T08:00:40.000Z</time>
      </trkpt>
      <trkpt lat="46.12083" lon="2.94136">
        <ele>533.19</ele>
        <time>2018-07-14T08:00:42.000Z</time>
      </trkpt>
      <trkpt lat="46.12091" lon="2.9413">
        <ele>532.81</ele>
        <time>2018-07-14T08:00:44.000Z</time>
      </trkpt>
      <trkpt lat="46.121" lon="2.94124">
        <ele>532.16</ele>
        <time>2018-07-14T08:00:46.000Z</time>
      </trkpt>
      <trkpt lat="46.1211" lon="2.9412">
        <ele>531.3</ele>
        <time>2018-07-14T08:00:48.000Z</time>
      </trkpt>
      <trkpt lat="46.12122" lon="2.94117">
        <ele>530.59</ele>
        <time>2018-07-14T08:00:51.000Z</time>
      </trkpt>
      <trkpt lat="46.12134" lon="2.94119">
        <ele>531.21</ele>
        <time>2018-07-14T08:00:54.000Z</time>
      </trkpt>
      <trkpt lat="46.12143" lon="2.94126">
        <ele>531.76</ele>
        <time>2018-07-14T08:00:58.000Z</time>
      </trkpt>
      <trkpt lat="46.12153" lon="2.94137">
        <ele>534.29</ele>
        <time>2018-07-14T08:01:01.000Z</time>
      </trkpt>
      <trkpt lat="46.12162" lon="2.94141">
        <ele>534.88</ele>
        <time>2018-07-14T08:01:03.000Z</time>
      </trkpt>
      <trkpt lat="46.12175" lon="2.94146">
        <ele>535.4</ele>
        <time>2018-07-14T08:01:06.000Z</time>
      </trkpt>
      <trkpt lat="46.12185" lon="2.94147">
        <ele>536.21</ele>
        <time>2018-07-14T08:01:08.000Z</time>
      </trkpt>
      <trkpt lat="46.12195" lon="2.94148">
        <ele>537.21</ele>
        <time>2018-07-14T08:01:10.000Z</time>
      </trkpt>
      <trkpt lat="46.12204" lon="2.94149">
        <ele>537.89</ele>
        <time>2018-07-14T08:01:12.000Z</time>
      </trkpt>
      <trkpt lat="46.12217" lon="2.9415">
        <ele>538.56</ele>
        <time>2018-07-14T08:01:15.000Z</time>
      </trkpt>
      <trkpt lat="46.12227" lon="2.94151">
        <ele>539.28</ele>
        <time>2018-07-14T08:01:17.000Z</time>
      </trkpt>
      <trkpt lat="46.12237" lon="2.94154">
        <ele>539.4</ele>
        <time>2018-07-14T08:01:19.000Z</time>
      </trkpt>
      <trkpt lat="46.12249" lon="2.94155">
        <ele>539.01</ele>
        <time>2018-07-14T08:01:21.000Z</time>
      </trkpt>
      <trkpt lat="46.1226" lon="2.94154">
        <ele>538.72</ele>
        <time>2018-07-14T08:01:23.000Z</time>
      </trkpt>
      <trkpt lat="46.12272" lon="2.94154">
        <ele>538.78</ele>
        <time>2018-07-14T08:01:25.000Z</time>
      </trkpt>
      <trkpt lat="46.12285" lon="2.94154">
        <ele>538.33</ele>
        <time>2018-07-14T08:01:27.000Z</time>
      </trkpt>
      <trkpt lat="46.12296" lon="2.94155">
        <ele>537.71</ele>
        <time>2018-07-14T08:01:29.000Z</time>
      </trkpt>
      <trkpt lat="46.12307" lon="2.94155">
        <ele>538.54</ele>
        <time>2018-07-14T08:01:31.000Z</time>
      </trkpt>
      <trkpt lat="46.12317" lon="2.94155">
        <ele>538.93</ele>
        <time>2018-07-14T08:01:33.000Z</time>
      </trkpt>
      <trkpt lat="46.12327" lon="2.94158">
        <ele>539.48</ele>
        <time>2018-07-14T08:01:35.000Z</time>
      </trkpt>
      <trkpt lat="46.12337" lon="2.94162">
        <ele>539.85</ele>
        <time>2018-07-14T08:01:37.000Z</time>
      </trkpt>
      <trkpt lat="46.12345" lon="2.94169">
        <ele>540.91</ele>
        <time>2018-07-14T08:01:39.000Z</time>
      </trkpt>
      <trkpt lat="46.12352" lon="2.94181">
        <ele>542.65</ele>
        <time>2018-07-14T08:01:41.000Z</time>
      </trkpt>
      <trkpt lat="46.12357" lon="2.94196">
        <ele>543.19</ele>
        <time>2018-07-14T08:01:43.000Z</time>
      </trkpt>
      <trkpt lat="46.1236" lon="2.94209">
        <ele>543.88</ele>
        <time>2018-07-14T08:01:45.000Z</time>
      </trkpt>
      <trkpt lat="46.12361" lon="2.94225">
        <ele>545.22</ele>
        <time>2018-07-14T08:01:48.000Z</time>
      </trkpt>
      <trkpt lat="46.12362" lon="2.94241">
        <ele>546.51</ele>
        <time>2018-07-14T08:01:51.000Z</time>
      </trkpt>
      <trkpt lat="46.12367" lon="2.94254">
        <ele>547.47</ele>
        <time>2018-07-14T08:01:54.000Z</time>
      </trkpt>
      <trkpt lat="46.12377" lon="2.94267">
        <ele>549.23</ele>
        <time>2018-07-14T08:01:58.000Z</time>
      </trkpt>
      <trkpt lat="46.12385" lon="2.94274">
        <ele>550.11</ele>
        <time>2018-07-14T08:02:00.000Z</time>
      </trkpt>
      <trkpt lat="46.12396" lon="2.94283">
        <ele>550.99</ele>
        <time>2018-07-14T08:02:02.000Z</time>
      </trkpt>
      <trkpt lat="46.12405" lon="2.94295">
        <ele>551.97</ele>
        <time>2018-07-14T08:02:04.000Z</time>
      </trkpt>
      <trkpt lat="46.12415" lon="2.94305">
        <ele>553.25</ele>
        <time>2018-07-14T08:02:06.000Z</time>
      </trkpt>
      <trkpt lat="46.12425" lon="2.94315">
        <ele>554.73</ele>
        <time>2018-07-14T08:02:08.000Z</time>
      </trkpt>
      <trkpt lat="46.12436" lon="2.94327">
        <ele>556.14</ele>
        <time>2018-07-14T08:02:10.000Z</time>
      </trkpt>
      <trkpt lat="46.1245" lon="2.9434">
        <ele>557.77</ele>
        <time>2018-07-14T08:02:12.000Z</time>
      </trkpt>
      <trkpt lat="46.12463" lon="2.94356">
        <ele>558.93</ele>
        <time>2018-07-14T08:02:14.000Z</time>
      </trkpt>
      <trkpt lat="46.12476" lon="2.94373">
        <ele>559.99</ele>
        <time>2018-07-14T08:02:16.000Z</time>
      </trkpt>
      <trkpt lat="46.12487" lon="2.94389">
        <ele>560.85</ele>
        <time>2018-07-14T08:02:18.000Z</time>
      </trkpt>
      <trkpt lat="46.12502" lon="2.94405">
        <ele>561.5</ele>
        <time>2018-07-14T08:02:20.000Z</time>
      </trkpt>
      <trkpt lat="46.12515" lon="2.94423">
        <ele>562.96</ele>
        <time>2018-07-14T08:02:22.000Z</time>
      </trkpt>
      <trkpt lat="46.12523" lon="2.9443">
        <ele>563.66</ele>
        <time>2018-07-14T08:02:23.000Z</time>
      </trkpt>
      <trkpt lat="46.12532" lon="2.94438">
        <ele>564.29</ele>
        <time>2018-07-14T08:02:24.000Z</time>
      </trkpt>
      <trkpt lat="46.12546" lon="2.94449">
        <ele>565.25</ele>
        <time>2018-07-14T08:02:26.000Z</time>
      </trkpt>
      <trkpt lat="46.1256" lon="2.94457">
        <ele>566.07</ele>
        <time>2018-07-14T08:02:28.000Z</time>
      </trkpt>
      <trkpt lat="46.12573" lon="2.94464">
        <ele>566.66</ele>
        <time>2018-07-14T08:02:30.000Z</time>
      </trkpt>
      <trkpt lat="46.12587" lon="2.94474">
        <ele>567.62</ele>
        <time>2018-07-14T08:02:32.000Z</time>
      </trkpt>
      <trkpt lat="46.12596" lon="2.9448">
        <ele>568.18</ele>
        <time>2018-07-14T08:02:33.000Z</time>
      </trkpt>
      <trkpt lat="46.12605" lon="2.94486">
        <ele>568.79</ele>
        <time>2018-07-14T08:02:34.000Z</time>
      </trkpt>
      <trkpt lat="46.12614" lon="2.94492">
        <ele>569.49</ele>
        <time>2018-07-14T08:02:35.000Z</time>
      </trkpt>
      <trkpt lat="46.12622" lon="2.94499">
        <ele>570.16</ele>
        <time>2018-07-14T08:02:36.000Z</time>
      </trkpt>
      <trkpt lat="46.12631" lon="2.94506">
        <ele>570.83</ele>
        <time>2018-07-14T08:02:37.000Z</time>
      </trkpt>
      <trkpt lat="46.12648" lon="2.94519">
        <ele>571.85</ele>
        <time>2018-07-14T08:02:39.000Z</time>
      </trkpt>
      <trkpt lat="46.12657" lon="2.94526">
        <ele>572.43</ele>
        <time>2018-07-14T08:02:40.000Z</time>
      </trkpt>
      <trkpt lat="46.12665" lon="2.94532">
        <ele>572.9</ele>
        <time>2018-07-14T08:02:41.000Z</time>
      </trkpt>
      <trkpt lat="46.12677" lon="2.94542">
        <ele>573.7</ele>
        <time>2018-07-14T08:02:43.000Z</time>
      </trkpt>
      <trkpt lat="46.12688" lon="2.94553">
        <ele>574.4</ele>
        <time>2018-07-14T08:02:45.000Z</time>
      </trkpt>
      <trkpt lat="46.12698" lon="2.94565">
        <ele>575.33</ele>
        <time>2018-07-14T08:02:47.000Z</time>
      </trkpt>
      <trkpt lat="46.12706" lon="2.94575">
        <ele>576.87</ele>
        <time>2018-07-14T08:02:49.000Z</time>
      </trkpt>
      <trkpt lat="46.12715" lon="2.94589">
        <ele>578.93</ele>
        <time>2018-07-14T08:02:52.000Z</time>
      </trkpt>
      <trkpt lat="46.12722" lon="2.946">
        <ele>579.79</ele>
        <time>2018-07-14T08:02:54.000Z</time>
      </trkpt>
      <trkpt lat="46.1273" lon="2.94611">
        <ele>580.82</ele>
        <time>2018-07-14T08:02:56.000Z</time>
      </trkpt>
      <trkpt lat="46.12739" lon="2.9462">
        <ele>582.14</ele>
        <time>2018-07-14T08:02:58.000Z</time>
      </trkpt>
      <trkpt lat="46.12748" lon="2.94628">
        <ele>582.84</ele>
        <time>2018-07-14T08:03:00.000Z</time>
      </trkpt>
      <trkpt lat="46.12761" lon="2.94632">
        <ele>585.56</ele>
        <time>2018-07-14T08:03:02.000Z</time>
      </trkpt>
      <trkpt lat="46.12774" lon="2.94632">
        <ele>588.05</ele>
        <time>2018-07-14T08:03:04.000Z</time>
      </trkpt>
      <trkpt lat="46.12791" lon="2.94637">
        <ele>588.46</ele>
        <time>2018-07-14T08:03:06.000Z</time>
      </trkpt>
      <trkpt lat="46.12805" lon="2.94637">
        <ele>588.64</ele>
        <time>2018-07-14T08:03:08.000Z</time>
      </trkpt>
      <trkpt lat="46.12822" lon="2.94636">
        <ele>588.59</ele>
        <time>2018-07-14T08:03:10.000Z</time>
      </trkpt>
      <trkpt lat="46.12836" lon="2.94636">
        <ele>588.37</ele>
        <time>2018-07-14T08:03:12.000Z</time>
      </trkpt>
      <trkpt lat="46.12851" lon="2.94638">
        <ele>585.84</ele>
        <time>2018-07-14T08:03:14.000Z</time>
      </trkpt>
      <trkpt lat="46.12866" lon="2.94641">
        <ele>584.08</ele>
        <time>2018-07-14T08:03:16.000Z</time>
      </trkpt>
      <trkpt lat="46.1288" lon="2.9465">
        <ele>578.37</ele>
        <time>2018-07-14T08:03:18.000Z</time>
      </trkpt>
      <trkpt lat="46.12892" lon="2.94659">
        <ele>574.08</ele>
        <time>2018-07-14T08:03:20.000Z</time>
      </trkpt>
      <trkpt lat="46.12905" lon="2.94668">
        <ele>571.09</ele>
        <time>2018-07-14T08:03:22.000Z</time>
      </trkpt>
      <trkpt lat="46.12918" lon="2.94673">
        <ele>568.28</ele>
        <time>2018-07-14T08:03:24.000Z</time>
      </trkpt>
      <trkpt lat="46.1293" lon="2.94674">
        <ele>566.91</ele>
        <time>2018-07-14T08:03:26.000Z</time>
      </trkpt>
      <trkpt lat="46.12942" lon="2.94671">
        <ele>565.71</ele>
        <time>2018-07-14T08:03:28.000Z</time>
      </trkpt>
      <trkpt lat="46.12954" lon="2.94668">
        <ele>564.88</ele>
        <time>2018-07-14T08:03:30.000Z</time>
      </trkpt>
      <trkpt lat="46.12967" lon="2.94663">
        <ele>564.24</ele>
        <time>2018-07-14T08:03:32.000Z</time>
      </trkpt>
      <trkpt lat="46.1298" lon="2.94656">
        <ele>563.87</ele>
        <time>2018-07-14T08:03:34.000Z</time>
      </trkpt>
      <trkpt lat="46.12994" lon="2.9465">
        <ele>563.19</ele>
        <time>2018-07-14T08:03:36.000Z</time>
      </trkpt>
      <trkpt lat="46.13007" lon="2.94647">
        <ele>562.72</ele>
        <time>2018-07-14T08:03:38.000Z</time>
      </trkpt>
      <trkpt lat="46.1302" lon="2.94646">
        <ele>561.89</ele>
        <time>2018-07-14T08:03:40.000Z</time>
      </trkpt>
      <trkpt lat="46.13033" lon="2.94643">
        <ele>561.47</ele>
        <time>2018-07-14T08:03:42.000Z</time>
      </trkpt>
      <trkpt lat="46.13044" lon="2.94637">
        <ele>561.17</ele>
        <time>2018-07-14T08:03:44.000Z</time>
      </trkpt>
      <trkpt lat="46.13055" lon="2.94627">
        <ele>561.38</ele>
        <time>2018-07-14T08:03:46.000Z</time>
      </trkpt>
      <trkpt lat="46.13065" lon="2.94615">
        <ele>562.01</ele>
        <time>2018-07-14T08:03:48.000Z</time>
      </trkpt>
      <trkpt lat="46.13075" lon="2.94602">
        <ele>562.33</ele>
        <time>2018-07-14T08:03:50.000Z</time>
      </trkpt>
      <trkpt lat="46.13085" lon="2.94589">
        <ele>562.35</ele>
        <time>2018-07-14T08:03:52.000Z</time>
      </trkpt>
      <trkpt lat="46.13095" lon="2.94577">
        <ele>561.83</ele>
        <time>2018-07-14T08:03:54.000Z</time>
      </trkpt>
      <trkpt lat="46.13107" lon="2.94566">
        <ele>561.39</ele>
        <time>2018-07-14T08:03:56.000Z</time>
      </trkpt>
      <trkpt lat="46.13118" lon="2.9456">
        <ele>561.5</ele>
        <time>2018-07-14T08:03:58.000Z</time>
      </trkpt>
      <trkpt lat="46.13128" lon="2.94555">
        <ele>561.78</ele>
        <time>2018-07-14T08:04:00.000Z</time>
      </trkpt>
      <trkpt lat="46.13139" lon="2.94549">
        <ele>562.25</ele>
        <time>2018-07-14T08:04:03.000Z</time>
      </trkpt>
      <trkpt lat="46.13148" lon="2.94545">
        <ele>562.37</ele>
        <time>2018-07-14T08:04:05.000Z</time>
      </trkpt>
      <trkpt lat="46.13157" lon="2.94543">
        <ele>562.42</ele>
        <time>2018-07-14T08:04:07.000Z</time>
      </trkpt>
      <trkpt lat="46.13168" lon="2.94542">
        <ele>563.22</ele>
        <time>2018-07-14T08:04:11.000Z</time>
      </trkpt>
      <trkpt lat="46.13179" lon="2.94534">
        <ele>563.71</ele>
        <time>2018-07-14T08:04:14.000Z</time>
      </trkpt>
      <trkpt lat="46.13189" lon="2.94531">
        <ele>564.07</ele>
        <time>2018-07-14T08:04:16.000Z</time>
      </trkpt>
      <trkpt lat="46.132" lon="2.94526">
        <ele>564.37</ele>
        <time>2018-07-14T08:04:18.000Z</time>
      </trkpt>
      <trkpt lat="46.1321" lon="2.9452">
        <ele>564.83</ele>
        <time>2018-07-14T08:04:20.000Z</time>
      </trkpt>
      <trkpt lat="46.1322" lon="2.94509">
        <ele>565.49</ele>
        <time>2018-07-14T08:04:22.000Z</time>
      </trkpt>
      <trkpt lat="46.13228" lon="2.94495">
        <ele>566.84</ele>
        <time>2018-07-14T08:04:24.000Z</time>
      </trkpt>
      <trkpt lat="46.13233" lon="2.94484">
        <ele>567.83</ele>
        <time>2018-07-14T08:04:26.000Z</time>
      </trkpt>
      <trkpt lat="46.1324" lon="2.94474">
        <ele>568.33</ele>
        <time>2018-07-14T08:04:28.000Z</time>
      </trkpt>
      <trkpt lat="46.13249" lon="2.94465">
        <ele>569.04</ele>
        <time>2018-07-14T08:04:31.000Z</time>
      </trkpt>
      <trkpt lat="46.13259" lon="2.94455">
        <ele>568.99</ele>
        <time>2018-07-14T08:04:34.000Z</time>
      </trkpt>
      <trkpt lat="46.13266" lon="2.94444">
        <ele>568.95</ele>
        <time>2018-07-14T08:04:37.000Z</time>
      </trkpt>
      <trkpt lat="46.13275" lon="2.94432">
        <ele>569.14</ele>
        <time>2018-07-14T08:04:40.000Z</time>
      </trkpt>
      <trkpt lat="46.13282" lon="2.9442">
        <ele>569.26</ele>
        <time>2018-07-14T08:04:43.000Z</time>
      </trkpt>
      <trkpt lat="46.13287" lon="2.94408">
        <ele>569.72</ele>
        <time>2018-07-14T08:04:46.000Z</time>
      </trkpt>
      <trkpt lat="46.13291" lon="2.94394">
        <ele>569.87</ele>
        <time>2018-07-14T08:04:49.000Z</time>
      </trkpt>
      <trkpt lat="46.13294" lon="2.94379">
        <ele>570.07</ele>
        <time>2018-07-14T08:04:52.000Z</time>
      </trkpt>
      <trkpt lat="46.13298" lon="2.94367">
        <ele>570.24</ele>
        <time>2018-07-14T08:04:55.000Z</time>
      </trkpt>
      <trkpt lat="46.13305" lon="2.94353">
        <ele>570.1</ele>
        <time>2018-07-14T08:04:58.000Z</time>
      </trkpt>
      <trkpt lat="46.13313" lon="2.94346">
        <ele>569.87</ele>
        <time>2018-07-14T08:05:00.000Z</time>
      </trkpt>
      <trkpt lat="46.13322" lon="2.94339">
        <ele>570.16</ele>
        <time>2018-07-14T08:05:02.000Z</time>
      </trkpt>
      <trkpt lat="46.13334" lon="2.9433">
        <ele>571.41</ele>
        <time>2018-07-14T08:05:05.000Z</time>
      </trkpt>
      <trkpt lat="46.13342" lon="2.94323">
        <ele>572.51</ele>
        <time>2018-07-14T08:05:07.000Z</time>
      </trkpt>
      <trkpt lat="46.13351" lon="2.94315">
        <ele>574.36</ele>
        <time>2018-07-14T08:05:09.000Z</time>
      </trkpt>
      <trkpt lat="46.13359" lon="2.94308">
        <ele>576.22</ele>
        <time>2018-07-14T08:05:11.000Z</time>
      </trkpt>
      <trkpt lat="46.13367" lon="2.94297">
        <ele>577.15</ele>
        <time>2018-07-14T08:05:13.000Z</time>
      </trkpt>
      <trkpt lat="46.13373" lon="2.94283">
        <ele>577.59</ele>
        <time>2018-07-14T08:05:15.000Z</time>
      </trkpt>
      <trkpt lat="46.13378" lon="2.94269">
        <ele>577.19</ele>
        <time>2018-07-14T08:05:17.000Z</time>
      </trkpt>
      <trkpt lat="46.13384" lon="2.94254">
        <ele>576.81</ele>
        <time>2018-07-14T08:05:19.000Z</time>
      </trkpt>
      <trkpt lat="46.1339" lon="2.9424">
        <ele>576.74</ele>
        <time>2018-07-14T08:05:21.000Z</time>
      </trkpt>
      <trkpt lat="46.13398" lon="2.94228">
        <ele>576.62</ele>
        <time>2018-07-14T08:05:23.000Z</time>
      </trkpt>
      <trkpt lat="46.13407" lon="2.94219">
        <ele>576.95</ele>
        <time>2018-07-14T08:05:25.000Z</time>
      </trkpt>
      <trkpt lat="46.13417" lon="2.94212">
        <ele>577.49</ele>
        <time>2018-07-14T08:05:27.000Z</time>
      </trkpt>
      <trkpt lat="46.13428" lon="2.94208">
        <ele>577.93</ele>
        <time>2018-07-14T08:05:29.000Z</time>
      </trkpt>
      <trkpt lat="46.13439" lon="2.94206">
        <ele>578</ele>
        <time>2018-07-14T08:05:31.000Z</time>
      </trkpt>
      <trkpt lat="46.1345" lon="2.94206">
        <ele>577.72</ele>
        <time>2018-07-14T08:05:33.000Z</time>
      </trkpt>
      <trkpt lat="46.13459" lon="2.94208">
        <ele>577.36</ele>
        <time>2018-07-14T08:05:35.000Z</time>
      </trkpt>
      <trkpt lat="46.13469" lon="2.94211">
        <ele>577.39</ele>
        <time>2018-07-14T08:05:37.000Z</time>
      </trkpt>
      <trkpt lat="46.13478" lon="2.94214">
        <ele>577.71</ele>
        <time>2018-07-14T08:05:39.000Z</time>
      </trkpt>
      <trkpt lat="46.13487" lon="2.94216">
        <ele>578.26</ele>
        <time>2018-07-14T08:05:41.000Z</time>
      </trkpt>
      <trkpt lat="46.13497" lon="2.94216">
        <ele>578.86</ele>
        <time>2018-07-14T08:05:43.000Z</time>
      </trkpt>
      <trkpt lat="46.13511" lon="2.94218">
        <ele>579.73</ele>
        <time>2018-07-14T08:05:46.000Z</time>
      </trkpt>
      <trkpt lat="46.13523" lon="2.94218">
        <ele>580.22</ele>
        <time>2018-07-14T08:05:48.000Z</time>
      </trkpt>
      <trkpt lat="46.13537" lon="2.94218">
        <ele>580.75</ele>
        <time>2018-07-14T08:05:50.000Z</time>
      </trkpt>
      <trkpt lat="46.13549" lon="2.94218">
        <ele>581.02</ele>
        <time>2018-07-14T08:05:52.000Z</time>
      </trkpt>
      <trkpt lat="46.13561" lon="2.94218">
        <ele>581.29</ele>
        <time>2018-07-14T08:05:54.000Z</time>
      </trkpt>
      <trkpt lat="46.13572" lon="2.94216">
        <ele>581.48</ele>
        <time>2018-07-14T08:05:56.000Z</time>
      </trkpt>
      <trkpt lat="46.13583" lon="2.94214">
        <ele>581.77</ele>
        <time>2018-07-14T08:05:58.000Z</time>
      </trkpt>
      <trkpt lat="46.13593" lon="2.9421">
        <ele>582.68</ele>
        <time>2018-07-14T08:06:00.000Z</time>
      </trkpt>
      <trkpt lat="46.13602" lon="2.94206">
        <ele>583.61</ele>
        <time>2018-07-14T08:06:02.000Z</time>
      </trkpt>
      <trkpt lat="46.13611" lon="2.94198">
        <ele>584.69</ele>
        <time>2018-07-14T08:06:04.000Z</time>
      </trkpt>
      <trkpt lat="46.13618" lon="2.9419">
        <ele>585.82</ele>
        <time>2018-07-14T08:06:06.000Z</time>
      </trkpt>
      <trkpt lat="46.13628" lon="2.94177">
        <ele>588.3</ele>
        <time>2018-07-14T08:06:09.000Z</time>
      </trkpt>
      <trkpt lat="46.13636" lon="2.94164">
        <ele>589.64</ele>
        <time>2018-07-14T08:06:12.000Z</time>
      </trkpt>
      <trkpt lat="46.13641" lon="2.94149">
        <ele>590.91</ele>
        <time>2018-07-14T08:06:15.000Z</time>
      </trkpt>
      <trkpt lat="46.13647" lon="2.94134">
        <ele>591.76</ele>
        <time>2018-07-14T08:06:18.000Z</time>
      </trkpt>
      <trkpt lat="46.13651" lon="2.94119">
        <ele>592.08</ele>
        <time>2018-07-14T08:06:21.000Z</time>
      </trkpt>
      <trkpt lat="46.13654" lon="2.94102">
        <ele>593.43</ele>
        <time>2018-07-14T08:06:24.000Z</time>
      </trkpt>
      <trkpt lat="46.13658" lon="2.94086">
        <ele>594.56</ele>
        <time>2018-07-14T08:06:27.000Z</time>
      </trkpt>
      <trkpt lat="46.13664" lon="2.94071">
        <ele>595.29</ele>
        <time>2018-07-14T08:06:30.000Z</time>
      </trkpt>
      <trkpt lat="46.13673" lon="2.94064">
        <ele>595.72</ele>
        <time>2018-07-14T08:06:33.000Z</time>
      </trkpt>
      <trkpt lat="46.13683" lon="2.94059">
        <ele>596.51</ele>
        <time>2018-07-14T08:06:36.000Z</time>
      </trkpt>
      <trkpt lat="46.13693" lon="2.94055">
        <ele>597.23</ele>
        <time>2018-07-14T08:06:39.000Z</time>
      </trkpt>
      <trkpt lat="46.13705" lon="2.9405">
        <ele>597.51</ele>
        <time>2018-07-14T08:06:42.000Z</time>
      </trkpt>
      <trkpt lat="46.13715" lon="2.9404">
        <ele>597.4</ele>
        <time>2018-07-14T08:06:45.000Z</time>
      </trkpt>
      <trkpt lat="46.13722" lon="2.9403">
        <ele>597.59</ele>
        <time>2018-07-14T08:06:48.000Z</time>
      </trkpt>
      <trkpt lat="46.13727" lon="2.94015">
        <ele>598.42</ele>
        <time>2018-07-14T08:06:51.000Z</time>
      </trkpt>
      <trkpt lat="46.13729" lon="2.94">
        <ele>599.64</ele>
        <time>2018-07-14T08:06:54.000Z</time>
      </trkpt>
      <trkpt lat="46.13729" lon="2.93984">
        <ele>600.41</ele>
        <time>2018-07-14T08:06:57.000Z</time>
      </trkpt>
      <trkpt lat="46.13729" lon="2.93966">
        <ele>601.22</ele>
        <time>2018-07-14T08:07:00.000Z</time>
      </trkpt>
      <trkpt lat="46.1373" lon="2.93952">
        <ele>602.58</ele>
        <time>2018-07-14T08:07:03.000Z</time>
      </trkpt>
      <trkpt lat="46.13733" lon="2.93934">
        <ele>603.94</ele>
        <time>2018-07-14T08:07:06.000Z</time>
      </trkpt>
      <trkpt lat="46.13734" lon="2.93917">
        <ele>606.14</ele>
        <time>2018-07-14T08:07:09.000Z</time>
      </trkpt>
      <trkpt lat="46.13733" lon="2.93898">
        <ele>607.69</ele>
        <time>2018-07-14T08:07:12.000Z</time>
      </trkpt>
      <trkpt lat="46.13731" lon="2.93885">
        <ele>607.67</ele>
        <time>2018-07-14T08:07:14.000Z</time>
      </trkpt>
      <trkpt lat="46.13731" lon="2.93872">
        <ele>607.77</ele>
        <time>2018-07-14T08:07:16.000Z</time>
      </trkpt>
      <trkpt lat="46.13731" lon="2.93858">
        <ele>608.2</ele>
        <time>2018-07-14T08:07:18.000Z</time>
      </trkpt>
      <trkpt lat="46.13731" lon="2.93843">
        <ele>607.98</ele>
        <time>2018-07-14T08:07:20.000Z</time>
      </trkpt>
      <trkpt lat="46.1373" lon="2.93828">
        <ele>607.66</ele>
        <time>2018-07-14T08:07:22.000Z</time>
      </trkpt>
      <trkpt lat="46.13731" lon="2.93814">
        <ele>608.12</ele>
        <time>2018-07-14T08:07:24.000Z</time>
      </trkpt>
      <trkpt lat="46.13733" lon="2.93799">
        <ele>608.23</ele>
        <time>2018-07-14T08:07:26.000Z</time>
      </trkpt>
      <trkpt lat="46.13733" lon="2.93785">
        <ele>608.71</ele>
        <time>2018-07-14T08:07:28.000Z</time>
      </trkpt>
      <trkpt lat="46.13733" lon="2.93772">
        <ele>608.96</ele>
        <time>2018-07-14T08:07:30.000Z</time>
      </trkpt>
      <trkpt lat="46.13733" lon="2.93757">
        <ele>609.29</ele>
        <time>2018-07-14T08:07:32.000Z</time>
      </trkpt>
      <trkpt lat="46.13734" lon="2.93744">
        <ele>609.88</ele>
        <time>2018-07-14T08:07:34.000Z</time>
      </trkpt>
      <trkpt lat="46.13735" lon="2.93731">
        <ele>610.53</ele>
        <time>2018-07-14T08:07:36.000Z</time>
      </trkpt>
      <trkpt lat="46.13734" lon="2.93717">
        <ele>610.91</ele>
        <time>2018-07-14T08:07:38.000Z</time>
      </trkpt>
      <trkpt lat="46.13734" lon="2.93704">
        <ele>611.13</ele>
        <time>2018-07-14T08:07:40.000Z</time>
      </trkpt>
      <trkpt lat="46.13734" lon="2.9369">
        <ele>611.24</ele>
        <time>2018-07-14T08:07:42.000Z</time>
      </trkpt>
      <trkpt lat="46.13734" lon="2.93677">
        <ele>611.42</ele>
        <time>2018-07-14T08:07:44.000Z</time>
      </trkpt>
      <trkpt lat="46.13736" lon="2.93658">
        <ele>611.37</ele>
        <time>2018-07-14T08:07:47.000Z</time>
      </trkpt>
      <trkpt lat="46.1374" lon="2.9364">
        <ele>611.43</ele>
        <time>2018-07-14T08:07:50.000Z</time>
      </trkpt>
      <trkpt lat="46.13743" lon="2.93627">
        <ele>610.74</ele>
        <time>2018-07-14T08:07:52.000Z</time>
      </trkpt>
      <trkpt lat="46.13747" lon="2.93614">
        <ele>610.72</ele>
        <time>2018-07-14T08:07:54.000Z</time>
      </trkpt>
      <trkpt lat="46.13751" lon="2.93601">
        <ele>610.95</ele>
        <time>2018-07-14T08:07:56.000Z</time>
      </trkpt>
      <trkpt lat="46.13753" lon="2.93587">
        <ele>611.06</ele>
        <time>2018-07-14T08:07:58.000Z</time>
      </trkpt>
      <trkpt lat="46.13754" lon="2.93573">
        <ele>611.55</ele>
        <time>2018-07-14T08:08:00.000Z</time>
      </trkpt>
      <trkpt lat="46.13753" lon="2.93558">
        <ele>611.79</ele>
        <time>2018-07-14T08:08:02.000Z</time>
      </trkpt>
      <trkpt lat="46.13753" lon="2.93542">
        <ele>612.11</ele>
        <time>2018-07-14T08:08:04.000Z</time>
      </trkpt>
      <trkpt lat="46.13752" lon="2.93526">
        <ele>612.45</ele>
        <time>2018-07-14T08:08:06.000Z</time>
      </trkpt>
      <trkpt lat="46.13752" lon="2.93509">
        <ele>612.63</ele>
        <time>2018-07-14T08:08:08.000Z</time>
      </trkpt>
      <trkpt lat="46.13752" lon="2.93492">
        <ele>613.2</ele>
        <time>2018-07-14T08:08:10.000Z</time>
      </trkpt>
      <trkpt lat="46.13752" lon="2.93475">
        <ele>613.66</ele>
        <time>2018-07-14T08:08:12.000Z</time>
      </trkpt>
      <trkpt lat="46.13754" lon="2.9346">
        <ele>613.66</ele>
        <time>2018-07-14T08:08:14.000Z</time>
      </trkpt>
      <trkpt lat="46.13756" lon="2.93445">
        <ele>613.59</ele>
        <time>2018-07-14T08:08:16.000Z</time>
      </trkpt>
      <trkpt lat="46.1376" lon="2.93429">
        <ele>613.55</ele>
        <time>2018-07-14T08:08:18.000Z</time>
      </trkpt>
      <trkpt lat="46.13763" lon="2.93413">
        <ele>613.22</ele>
        <time>2018-07-14T08:08:20.000Z</time>
      </trkpt>
      <trkpt lat="46.13768" lon="2.93397">
        <ele>613.35</ele>
        <time>2018-07-14T08:08:22.000Z</time>
      </trkpt>
      <trkpt lat="46.13774" lon="2.93381">
        <ele>613.41</ele>
        <time>2018-07-14T08:08:24.000Z</time>
      </trkpt>
      <trkpt lat="46.1378" lon="2.93365">
        <ele>613.76</ele>
        <time>2018-07-14T08:08:26.000Z</time>
      </trkpt>
      <trkpt lat="46.13786" lon="2.9335">
        <ele>614.06</ele>
        <time>2018-07-14T08:08:28.000Z</time>
      </trkpt>
      <trkpt lat="46.13791" lon="2.93336">
        <ele>614.45</ele>
        <time>2018-07-14T08:08:30.000Z</time>
      </trkpt>
      <trkpt lat="46.13796" lon="2.93321">
        <ele>614.83</ele>
        <time>2018-07-14T08:08:32.000Z</time>
      </trkpt>
      <trkpt lat="46.13799" lon="2.93308">
        <ele>614.83</ele>
        <time>2018-07-14T08:08:34.000Z</time>
      </trkpt>
      <trkpt lat="46.13802" lon="2.93296">
        <ele>614.83</ele>
        <time>2018-07-14T08:08:36.000Z</time>
      </trkpt>
      <trkpt lat="46.13806" lon="2.93284">
        <ele>614.88</ele>
        <time>2018-07-14T08:08:38.000Z</time>
      </trkpt>
      <trkpt lat="46.13812" lon="2.93272">
        <ele>615.08</ele>
        <time>2018-07-14T08:08:40.000Z</time>
      </trkpt>
      <trkpt lat="46.13816" lon="2.93261">
        <ele>615.24</ele>
        <time>2018-07-14T08:08:42.000Z</time>
      </trkpt>
      <trkpt lat="46.13821" lon="2.93245">
        <ele>615.48</ele>
        <time>2018-07-14T08:08:45.000Z</time>
      </trkpt>
      <trkpt lat="46.13829" lon="2.9323">
        <ele>616.16</ele>
        <time>2018-07-14T08:08:48.000Z</time>
      </trkpt>
      <trkpt lat="46.13837" lon="2.93218">
        <ele>616.78</ele>
        <time>2018-07-14T08:08:51.000Z</time>
      </trkpt>
      <trkpt lat="46.13846" lon="2.93206">
        <ele>617.95</ele>
        <time>2018-07-14T08:08:54.000Z</time>
      </trkpt>
      <trkpt lat="46.13856" lon="2.93196">
        <ele>618.6</ele>
        <time>2018-07-14T08:08:57.000Z</time>
      </trkpt>
      <trkpt lat="46.13865" lon="2.93186">
        <ele>619.61</ele>
        <time>2018-07-14T08:09:00.000Z</time>
      </trkpt>
      <trkpt lat="46.13873" lon="2.93178">
        <ele>620.18</ele>
        <time>2018-07-14T08:09:02.000Z</time>
      </trkpt>
      <trkpt lat="46.13881" lon="2.93166">
        <ele>621.37</ele>
        <time>2018-07-14T08:09:05.000Z</time>
      </trkpt>
      <trkpt lat="46.13887" lon="2.93153">
        <ele>621.88</ele>
        <time>2018-07-14T08:09:08.000Z</time>
      </trkpt>
      <trkpt lat="46.13891" lon="2.93139">
        <ele>621.7</ele>
        <time>2018-07-14T08:09:11.000Z</time>
      </trkpt>
      <trkpt lat="46.13892" lon="2.93124">
        <ele>622.24</ele>
        <time>2018-07-14T08:09:14.000Z</time>
      </trkpt>
      <trkpt lat="46.13896" lon="2.93109">
        <ele>622.6</ele>
        <time>2018-07-14T08:09:17.000Z</time>
      </trkpt>
      <trkpt lat="46.13899" lon="2.93094">
        <ele>624.63</ele>
        <time>2018-07-14T08:09:20.000Z</time>
      </trkpt>
      <trkpt lat="46.13904" lon="2.93079">
        <ele>625.11</ele>
        <time>2018-07-14T08:09:23.000Z</time>
      </trkpt>
      <trkpt lat="46.13908" lon="2.93063">
        <ele>625.89</ele>
        <time>2018-07-14T08:09:26.000Z</time>
      </trkpt>
      <trkpt lat="46.13914" lon="2.93049">
        <ele>626.37</ele>
        <time>2018-07-14T08:09:29.000Z</time>
      </trkpt>
      <trkpt lat="46.13923" lon="2.93041">
        <ele>626.24</ele>
        <time>2018-07-14T08:09:32.000Z</time>
      </trkpt>
      <trkpt lat="46.13933" lon="2.93036">
        <ele>626.01</ele>
        <time>2018-07-14T08:09:35.000Z</time>
      </trkpt>
      <trkpt lat="46.13945" lon="2.93029">
        <ele>626.54</ele>
        <time>2018-07-14T08:09:38.000Z</time>
      </trkpt>
      <trkpt lat="46.13955" lon="2.93019">
        <ele>626.62</ele>
        <time>2018-07-14T08:09:41.000Z</time>
      </trkpt>
      <trkpt lat="46.13961" lon="2.93004">
        <ele>626.54</ele>
        <time>2018-07-14T08:09:44.000Z</time>
      </trkpt>
      <trkpt lat="46.13965" lon="2.92988">
        <ele>628.02</ele>
        <time>2018-07-14T08:09:47.000Z</time>
      </trkpt>
      <trkpt lat="46.13961" lon="2.92975">
        <ele>630.62</ele>
        <time>2018-07-14T08:09:51.000Z</time>
      </trkpt>
      <trkpt lat="46.13952" lon="2.92973">
        <ele>633.43</ele>
        <time>2018-07-14T08:09:54.000Z</time>
      </trkpt>
      <trkpt lat="46.1394" lon="2.92981">
        <ele>636.2</ele>
        <time>2018-07-14T08:09:57.000Z</time>
      </trkpt>
      <trkpt lat="46.13929" lon="2.92979">
        <ele>638.59</ele>
        <time>2018-07-14T08:10:00.000Z</time>
      </trkpt>
      <trkpt lat="46.1392" lon="2.92973">
        <ele>640.19</ele>
        <time>2018-07-14T08:10:03.000Z</time>
      </trkpt>
      <trkpt lat="46.13911" lon="2.92969">
        <ele>641.77</ele>
        <time>2018-07-14T08:10:06.000Z</time>
      </trkpt>
      <trkpt lat="46.13901" lon="2.92961">
        <ele>643.03</ele>
        <time>2018-07-14T08:10:09.000Z</time>
      </trkpt>
      <trkpt lat="46.13892" lon="2.92951">
        <ele>644.06</ele>
        <time>2018-07-14T08:10:12.000Z</time>
      </trkpt>
      <trkpt lat="46.13887" lon="2.92936">
        <ele>644.88</ele>
        <time>2018-07-14T08:10:15.000Z</time>
      </trkpt>
      <trkpt lat="46.13878" lon="2.92922">
        <ele>645.18</ele>
        <time>2018-07-14T08:10:18.000Z</time>
      </trkpt>
      <trkpt lat="46.13873" lon="2.9291">
        <ele>645.38</ele>
        <time>2018-07-14T08:10:20.000Z</time>
      </trkpt>
      <trkpt lat="46.13871" lon="2.92892">
        <ele>646.24</ele>
        <time>2018-07-14T08:10:23.000Z</time>
      </trkpt>
      <trkpt lat="46.13877" lon="2.92877">
        <ele>647.06</ele>
        <time>2018-07-14T08:10:25.000Z</time>
      </trkpt>
      <trkpt lat="46.13884" lon="2.92862">
        <ele>647.75</ele>
        <time>2018-07-14T08:10:27.000Z</time>
      </trkpt>
      <trkpt lat="46.13891" lon="2.9285">
        <ele>648.35</ele>
        <time>2018-07-14T08:10:29.000Z</time>
      </trkpt>
      <trkpt lat="46.13899" lon="2.92842">
        <ele>649.03</ele>
        <time>2018-07-14T08:10:31.000Z</time>
      </trkpt>
      <trkpt lat="46.13908" lon="2.92836">
        <ele>649.54</ele>
        <time>2018-07-14T08:10:34.000Z</time>
      </trkpt>
      <trkpt lat="46.13917" lon="2.92828">
        <ele>648.84</ele>
        <time>2018-07-14T08:10:37.000Z</time>
      </trkpt>
      <trkpt lat="46.13928" lon="2.9282">
        <ele>648.09</ele>
        <time>2018-07-14T08:10:40.000Z</time>
      </trkpt>
      <trkpt lat="46.13939" lon="2.92818">
        <ele>646.9</ele>
        <time>2018-07-14T08:10:43.000Z</time>
      </trkpt>
      <trkpt lat="46.13948" lon="2.92818">
        <ele>647.05</ele>
        <time>2018-07-14T08:10:45.000Z</time>
      </trkpt>
      <trkpt lat="46.13958" lon="2.92816">
        <ele>648.46</ele>
        <time>2018-07-14T08:10:47.000Z</time>
      </trkpt>
      <trkpt lat="46.13968" lon="2.92811">
        <ele>649.1</ele>
        <time>2018-07-14T08:10:49.000Z</time>
      </trkpt>
      <trkpt lat="46.13975" lon="2.92796">
        <ele>650.3</ele>
        <time>2018-07-14T08:10:52.000Z</time>
      </trkpt>
      <trkpt lat="46.13977" lon="2.9278">
        <ele>650.97</ele>
        <time>2018-07-14T08:10:55.000Z</time>
      </trkpt>
      <trkpt lat="46.13978" lon="2.92762">
        <ele>651.25</ele>
        <time>2018-07-14T08:10:58.000Z</time>
      </trkpt>
      <trkpt lat="46.13984" lon="2.92745">
        <ele>651.41</ele>
        <time>2018-07-14T08:11:01.000Z</time>
      </trkpt>
      <trkpt lat="46.13988" lon="2.92733">
        <ele>651.56</ele>
        <time>2018-07-14T08:11:03.000Z</time>
      </trkpt>
      <trkpt lat="46.13994" lon="2.92722">
        <ele>651.99</ele>
        <time>2018-07-14T08:11:05.000Z</time>
      </trkpt>
      <trkpt lat="46.13997" lon="2.92706">
        <ele>652.56</ele>
        <time>2018-07-14T08:11:08.000Z</time>
      </trkpt>
      <trkpt lat="46.14002" lon="2.92693">
        <ele>652.88</ele>
        <time>2018-07-14T08:11:11.000Z</time>
      </trkpt>
      <trkpt lat="46.14005" lon="2.92681">
        <ele>652.61</ele>
        <time>2018-07-14T08:11:14.000Z</time>
      </trkpt>
      <trkpt lat="46.14011" lon="2.92668">
        <ele>652.98</ele>
        <time>2018-07-14T08:11:17.000Z</time>
      </trkpt>
      <trkpt lat="46.14018" lon="2.92655">
        <ele>652.81</ele>
        <time>2018-07-14T08:11:20.000Z</time>
      </trkpt>
      <trkpt lat="46.14027" lon="2.92642">
        <ele>652.21</ele>
        <time>2018-07-14T08:11:23.000Z</time>
      </trkpt>
      <trkpt lat="46.14034" lon="2.92634">
        <ele>651.78</ele>
        <time>2018-07-14T08:11:25.000Z</time>
      </trkpt>
      <trkpt lat="46.14043" lon="2.92624">
        <ele>650.57</ele>
        <time>2018-07-14T08:11:27.000Z</time>
      </trkpt>
      <trkpt lat="46.14053" lon="2.92614">
        <ele>649.67</ele>
        <time>2018-07-14T08:11:29.000Z</time>
      </trkpt>
      <trkpt lat="46.14061" lon="2.92607">
        <ele>649.6</ele>
        <time>2018-07-14T08:11:31.000Z</time>
      </trkpt>
      <trkpt lat="46.14069" lon="2.92601">
        <ele>649.85</ele>
        <time>2018-07-14T08:11:33.000Z</time>
      </trkpt>
      <trkpt lat="46.14077" lon="2.92593">
        <ele>649.63</ele>
        <time>2018-07-14T08:11:35.000Z</time>
      </trkpt>
      <trkpt lat="46.14086" lon="2.92583">
        <ele>649.25</ele>
        <time>2018-07-14T08:11:37.000Z</time>
      </trkpt>
      <trkpt lat="46.14095" lon="2.92574">
        <ele>648.77</ele>
        <time>2018-07-14T08:11:39.000Z</time>
      </trkpt>
      <trkpt lat="46.14105" lon="2.92565">
        <ele>648.72</ele>
        <time>2018-07-14T08:11:41.000Z</time>
      </trkpt>
      <trkpt lat="46.14115" lon="2.92556">
        <ele>648.97</ele>
        <time>2018-07-14T08:11:43.000Z</time>
      </trkpt>
      <trkpt lat="46.14124" lon="2.92546">
        <ele>649.08</ele>
        <time>2018-07-14T08:11:45.000Z</time>
      </trkpt>
      <trkpt lat="46.14135" lon="2.92535">
        <ele>649.05</ele>
        <time>2018-07-14T08:11:47.000Z</time>
      </trkpt>
      <trkpt lat="46.14147" lon="2.92523">
        <ele>648.35</ele>
        <time>2018-07-14T08:11:49.000Z</time>
      </trkpt>
      <trkpt lat="46.1416" lon="2.92513">
        <ele>647.69</ele>
        <time>2018-07-14T08:11:51.000Z</time>
      </trkpt>
      <trkpt lat="46.14172" lon="2.92505">
        <ele>647.52</ele>
        <time>2018-07-14T08:11:53.000Z</time>
      </trkpt>
      <trkpt lat="46.14185" lon="2.92496">
        <ele>647.98</ele>
        <time>2018-07-14T08:11:55.000Z</time>
      </trkpt>
      <trkpt lat="46.14196" lon="2.92485">
        <ele>648.9</ele>
        <time>2018-07-14T08:11:57.000Z</time>
      </trkpt>
      <trkpt lat="46.14208" lon="2.92469">
        <ele>649.51</ele>
        <time>2018-07-14T08:11:59.000Z</time>
      </trkpt>
      <trkpt lat="46.14217" lon="2.92453">
        <ele>650.28</ele>
        <time>2018-07-14T08:12:01.000Z</time>
      </trkpt>
      <trkpt lat="46.14227" lon="2.92437">
        <ele>651.12</ele>
        <time>2018-07-14T08:12:03.000Z</time>
      </trkpt>
      <trkpt lat="46.14237" lon="2.9242">
        <ele>652</ele>
        <time>2018-07-14T08:12:05.000Z</time>
      </trkpt>
      <trkpt lat="46.14248" lon="2.92402">
        <ele>651.65</ele>
        <time>2018-07-14T08:12:07.000Z</time>
      </trkpt>
      <trkpt lat="46.1426" lon="2.92384">
        <ele>651.3</ele>
        <time>2018-07-14T08:12:09.000Z</time>
      </trkpt>
      <trkpt lat="46.14271" lon="2.92364">
        <ele>651.03</ele>
        <time>2018-07-14T08:12:11.000Z</time>
      </trkpt>
      <trkpt lat="46.14277" lon="2.92354">
        <ele>650.87</ele>
        <time>2018-07-14T08:12:12.000Z</time>
      </trkpt>
      <trkpt lat="46.14282" lon="2.92343">
        <ele>650.5</ele>
        <time>2018-07-14T08:12:13.000Z</time>
      </trkpt>
      <trkpt lat="46.14288" lon="2.92331">
        <ele>649.85</ele>
        <time>2018-07-14T08:12:14.000Z</time>
      </trkpt>
      <trkpt lat="46.14294" lon="2.92318">
        <ele>649.43</ele>
        <time>2018-07-14T08:12:15.000Z</time>
      </trkpt>
      <trkpt lat="46.14299" lon="2.92304">
        <ele>648.97</ele>
        <time>2018-07-14T08:12:16.000Z</time>
      </trkpt>
      <trkpt lat="46.14304" lon="2.92291">
        <ele>648.83</ele>
        <time>2018-07-14T08:12:17.000Z</time>
      </trkpt>
      <trkpt lat="46.14309" lon="2.92277">
        <ele>648.65</ele>
        <time>2018-07-14T08:12:18.000Z</time>
      </trkpt>
      <trkpt lat="46.14313" lon="2.92264">
        <ele>648.36</ele>
        <time>2018-07-14T08:12:19.000Z</time>
      </trkpt>
      <trkpt lat="46.14318" lon="2.9225">
        <ele>647.89</ele>
        <time>2018-07-14T08:12:20.000Z</time>
      </trkpt>
      <trkpt lat="46.14323" lon="2.92237">
        <ele>647.51</ele>
        <time>2018-07-14T08:12:21.000Z</time>
      </trkpt>
      <trkpt lat="46.14328" lon="2.92224">
        <ele>647.46</ele>
        <time>2018-07-14T08:12:22.000Z</time>
      </trkpt>
      <trkpt lat="46.14333" lon="2.92211">
        <ele>647.46</ele>
        <time>2018-07-14T08:12:23.000Z</time>
      </trkpt>
      <trkpt lat="46.14338" lon="2.92198">
        <ele>647.37</ele>
        <time>2018-07-14T08:12:24.000Z</time>
      </trkpt>
      <trkpt lat="46.14342" lon="2.92186">
        <ele>647.28</ele>
        <time>2018-07-14T08:12:25.000Z</time>
      </trkpt>
      <trkpt lat="46.14346" lon="2.92174">
        <ele>647.27</ele>
        <time>2018-07-14T08:12:26.000Z</time>
      </trkpt>
      <trkpt lat="46.14355" lon="2.92154">
        <ele>646.99</ele>
        <time>2018-07-14T08:12:28.000Z</time>
      </trkpt>
      <trkpt lat="46.14362" lon="2.92133">
        <ele>647</ele>
        <time>2018-07-14T08:12:30.000Z</time>
      </trkpt>
      <trkpt lat="46.14369" lon="2.92113">
        <ele>646.93</ele>
        <time>2018-07-14T08:12:32.000Z</time>
      </trkpt>
      <trkpt lat="46.14376" lon="2.92096">
        <ele>647.06</ele>
        <time>2018-07-14T08:12:33.999Z</time>
      </trkpt>
      <trkpt lat="46.14383" lon="2.92079">
        <ele>647.77</ele>
        <time>2018-07-14T08:12:36.000Z</time>
      </trkpt>
      <trkpt lat="46.14391" lon="2.92062">
        <ele>648.04</ele>
        <time>2018-07-14T08:12:38.000Z</time>
      </trkpt>
      <trkpt lat="46.14398" lon="2.92044">
        <ele>648.62</ele>
        <time>2018-07-14T08:12:40.000Z</time>
      </trkpt>
      <trkpt lat="46.14404" lon="2.92026">
        <ele>648.64</ele>
        <time>2018-07-14T08:12:42.000Z</time>
      </trkpt>
      <trkpt lat="46.1441" lon="2.92006">
        <ele>648.31</ele>
        <time>2018-07-14T08:12:44.000Z</time>
      </trkpt>
      <trkpt lat="46.14417" lon="2.91986">
        <ele>647.97</ele>
        <time>2018-07-14T08:12:46.000Z</time>
      </trkpt>
      <trkpt lat="46.14424" lon="2.91966">
        <ele>648.09</ele>
        <time>2018-07-14T08:12:48.000Z</time>
      </trkpt>
      <trkpt lat="46.14431" lon="2.91947">
        <ele>648</ele>
        <time>2018-07-14T08:12:50.000Z</time>
      </trkpt>
      <trkpt lat="46.14439" lon="2.91929">
        <ele>648.27</ele>
        <time>2018-07-14T08:12:52.000Z</time>
      </trkpt>
      <trkpt lat="46.14447" lon="2.91913">
        <ele>648.44</ele>
        <time>2018-07-14T08:12:54.000Z</time>
      </trkpt>
      <trkpt lat="46.14459" lon="2.91901">
        <ele>648.21</ele>
        <time>2018-07-14T08:12:56.000Z</time>
      </trkpt>
      <trkpt lat="46.14472" lon="2.91894">
        <ele>647.89</ele>
        <time>2018-07-14T08:12:58.000Z</time>
      </trkpt>
      <trkpt lat="46.14484" lon="2.91889">
        <ele>647.39</ele>
        <time>2018-07-14T08:13:00.000Z</time>
      </trkpt>
      <trkpt lat="46.14496" lon="2.91885">
        <ele>646.94</ele>
        <time>2018-07-14T08:13:02.000Z</time>
      </trkpt>
      <trkpt lat="46.14507" lon="2.91883">
        <ele>646.15</ele>
        <time>2018-07-14T08:13:04.000Z</time>
      </trkpt>
      <trkpt lat="46.14518" lon="2.91883">
        <ele>645.53</ele>
        <time>2018-07-14T08:13:06.000Z</time>
      </trkpt>
      <trkpt lat="46.14528" lon="2.91882">
        <ele>645.05</ele>
        <time>2018-07-14T08:13:08.000Z</time>
      </trkpt>
      <trkpt lat="46.14539" lon="2.91881">
        <ele>644.67</ele>
        <time>2018-07-14T08:13:10.000Z</time>
      </trkpt>
      <trkpt lat="46.1455" lon="2.9188">
        <ele>644.9</ele>
        <time>2018-07-14T08:13:12.000Z</time>
      </trkpt>
      <trkpt lat="46.1456" lon="2.91879">
        <ele>645.77</ele>
        <time>2018-07-14T08:13:14.000Z</time>
      </trkpt>
      <trkpt lat="46.1457" lon="2.91879">
        <ele>646.84</ele>
        <time>2018-07-14T08:13:16.000Z</time>
      </trkpt>
      <trkpt lat="46.1458" lon="2.9188">
        <ele>647.58</ele>
        <time>2018-07-14T08:13:18.000Z</time>
      </trkpt>
      <trkpt lat="46.1459" lon="2.91879">
        <ele>648.22</ele>
        <time>2018-07-14T08:13:20.000Z</time>
      </trkpt>
      <trkpt lat="46.146" lon="2.91878">
        <ele>648.69</ele>
        <time>2018-07-14T08:13:22.000Z</time>
      </trkpt>
      <trkpt lat="46.14612" lon="2.91878">
        <ele>649.02</ele>
        <time>2018-07-14T08:13:24.000Z</time>
      </trkpt>
      <trkpt lat="46.14623" lon="2.91879">
        <ele>649.71</ele>
        <time>2018-07-14T08:13:26.000Z</time>
      </trkpt>
      <trkpt lat="46.14633" lon="2.91879">
        <ele>650.24</ele>
        <time>2018-07-14T08:13:28.000Z</time>
      </trkpt>
      <trkpt lat="46.14644" lon="2.91878">
        <ele>651</ele>
        <time>2018-07-14T08:13:30.000Z</time>
      </trkpt>
      <trkpt lat="46.14654" lon="2.91877">
        <ele>651.74</ele>
        <time>2018-07-14T08:13:32.000Z</time>
      </trkpt>
      <trkpt lat="46.14664" lon="2.91877">
        <ele>652.67</ele>
        <time>2018-07-14T08:13:34.000Z</time>
      </trkpt>
      <trkpt lat="46.14675" lon="2.91875">
        <ele>653.42</ele>
        <time>2018-07-14T08:13:36.000Z</time>
      </trkpt>
      <trkpt lat="46.14685" lon="2.91872">
        <ele>653.96</ele>
        <time>2018-07-14T08:13:38.000Z</time>
      </trkpt>
      <trkpt lat="46.14696" lon="2.9187">
        <ele>654.51</ele>
        <time>2018-07-14T08:13:40.000Z</time>
      </trkpt>
      <trkpt lat="46.14705" lon="2.91867">
        <ele>655.22</ele>
        <time>2018-07-14T08:13:42.000Z</time>
      </trkpt>
      <trkpt lat="46.14716" lon="2.91864">
        <ele>655.7</ele>
        <time>2018-07-14T08:13:44.000Z</time>
      </trkpt>
      <trkpt lat="46.14726" lon="2.91859">
        <ele>656.16</ele>
        <time>2018-07-14T08:13:46.000Z</time>
      </trkpt>
      <trkpt lat="46.14736" lon="2.91855">
        <ele>656.63</ele>
        <time>2018-07-14T08:13:48.000Z</time>
      </trkpt>
      <trkpt lat="46.14747" lon="2.9185">
        <ele>656.8</ele>
        <time>2018-07-14T08:13:50.000Z</time>
      </trkpt>
      <trkpt lat="46.14757" lon="2.91847">
        <ele>657.25</ele>
        <time>2018-07-14T08:13:52.000Z</time>
      </trkpt>
      <trkpt lat="46.14768" lon="2.91843">
        <ele>657.83</ele>
        <time>2018-07-14T08:13:54.000Z</time>
      </trkpt>
      <trkpt lat="46.14779" lon="2.91839">
        <ele>658.4</ele>
        <time>2018-07-14T08:13:56.000Z</time>
      </trkpt>
      <trkpt lat="46.1479" lon="2.91834">
        <ele>658.72</ele>
        <time>2018-07-14T08:13:58.000Z</time>
      </trkpt>
      <trkpt lat="46.14801" lon="2.91829">
        <ele>659.12</ele>
        <time>2018-07-14T08:14:00.000Z</time>
      </trkpt>
      <trkpt lat="46.14812" lon="2.91825">
        <ele>659.17</ele>
        <time>2018-07-14T08:14:02.000Z</time>
      </trkpt>
      <trkpt lat="46.14824" lon="2.9182">
        <ele>659.02</ele>
        <time>2018-07-14T08:14:04.000Z</time>
      </trkpt>
      <trkpt lat="46.14835" lon="2.91815">
        <ele>658.88</ele>
        <time>2018-07-14T08:14:06.000Z</time>
      </trkpt>
      <trkpt lat="46.14846" lon="2.91811">
        <ele>658.49</ele>
        <time>2018-07-14T08:14:08.000Z</time>
      </trkpt>
      <trkpt lat="46.14858" lon="2.91806">
        <ele>658.06</ele>
        <time>2018-07-14T08:14:10.000Z</time>
      </trkpt>
      <trkpt lat="46.14869" lon="2.91801">
        <ele>657.94</ele>
        <time>2018-07-14T08:14:12.000Z</time>
      </trkpt>
      <trkpt lat="46.14879" lon="2.91797">
        <ele>658.04</ele>
        <time>2018-07-14T08:14:14.000Z</time>
      </trkpt>
      <trkpt lat="46.1489" lon="2.91793">
        <ele>658.22</ele>
        <time>2018-07-14T08:14:16.000Z</time>
      </trkpt>
      <trkpt lat="46.149" lon="2.91788">
        <ele>658.19</ele>
        <time>2018-07-14T08:14:18.000Z</time>
      </trkpt>
      <trkpt lat="46.1491" lon="2.91781">
        <ele>658.27</ele>
        <time>2018-07-14T08:14:20.000Z</time>
      </trkpt>
      <trkpt lat="46.1492" lon="2.91772">
        <ele>658.43</ele>
        <time>2018-07-14T08:14:22.000Z</time>
      </trkpt>
      <trkpt lat="46.1493" lon="2.91763">
        <ele>658.7</ele>
        <time>2018-07-14T08:14:24.000Z</time>
      </trkpt>
      <trkpt lat="46.14938" lon="2.91753">
        <ele>659.13</ele>
        <time>2018-07-14T08:14:26.000Z</time>
      </trkpt>
      <trkpt lat="46.14946" lon="2.91742">
        <ele>659.59</ele>
        <time>2018-07-14T08:14:28.000Z</time>
      </trkpt>
      <trkpt lat="46.14954" lon="2.91732">
        <ele>660.24</ele>
        <time>2018-07-14T08:14:30.000Z</time>
      </trkpt>
      <trkpt lat="46.14963" lon="2.91723">
        <ele>660.8</ele>
        <time>2018-07-14T08:14:32.000Z</time>
      </trkpt>
      <trkpt lat="46.14972" lon="2.91715">
        <ele>661.58</ele>
        <time>2018-07-14T08:14:34.000Z</time>
      </trkpt>
      <trkpt lat="46.14982" lon="2.91708">
        <ele>662.24</ele>
        <time>2018-07-14T08:14:36.000Z</time>
      </trkpt>
      <trkpt lat="46.14991" lon="2.91701">
        <ele>662.88</ele>
        <time>2018-07-14T08:14:38.000Z</time>
      </trkpt>
      <trkpt lat="46.15001" lon="2.91696">
        <ele>663.19</ele>
        <time>2018-07-14T08:14:40.000Z</time>
      </trkpt>
      <trkpt lat="46.15011" lon="2.91692">
        <ele>663.74</ele>
        <time>2018-07-14T08:14:42.000Z</time>
      </trkpt>
      <trkpt lat="46.15021" lon="2.91688">
        <ele>664.28</ele>
        <time>2018-07-14T08:14:44.000Z</time>
      </trkpt>
      <trkpt lat="46.1503" lon="2.91683">
        <ele>665.1</ele>
        <time>2018-07-14T08:14:46.000Z</time>
      </trkpt>
      <trkpt lat="46.1504" lon="2.91679">
        <ele>665.72</ele>
        <time>2018-07-14T08:14:48.000Z</time>
      </trkpt>
      <trkpt lat="46.1505" lon="2.91675">
        <ele>666.62</ele>
        <time>2018-07-14T08:14:50.000Z</time>
      </trkpt>
      <trkpt lat="46.15059" lon="2.91671">
        <ele>667.65</ele>
        <time>2018-07-14T08:14:52.000Z</time>
      </trkpt>
      <trkpt lat="46.15069" lon="2.91667">
        <ele>668.34</ele>
        <time>2018-07-14T08:14:54.000Z</time>
      </trkpt>
      <trkpt lat="46.15079" lon="2.91662">
        <ele>668.83</ele>
        <time>2018-07-14T08:14:56.000Z</time>
      </trkpt>
      <trkpt lat="46.15088" lon="2.91658">
        <ele>669.3</ele>
        <time>2018-07-14T08:14:58.000Z</time>
      </trkpt>
      <trkpt lat="46.15097" lon="2.91653">
        <ele>669.59</ele>
        <time>2018-07-14T08:15:00.000Z</time>
      </trkpt>
      <trkpt lat="46.15106" lon="2.91647">
        <ele>669.7</ele>
        <time>2018-07-14T08:15:02.000Z</time>
      </trkpt>
      <trkpt lat="46.15116" lon="2.91643">
        <ele>669.82</ele>
        <time>2018-07-14T08:15:04.000Z</time>
      </trkpt>
      <trkpt lat="46.15126" lon="2.91639">
        <ele>669.81</ele>
        <time>2018-07-14T08:15:06.000Z</time>
      </trkpt>
      <trkpt lat="46.15135" lon="2.91634">
        <ele>669.9</ele>
        <time>2018-07-14T08:15:08.000Z</time>
      </trkpt>
      <trkpt lat="46.15146" lon="2.91629">
        <ele>670.05</ele>
        <time>2018-07-14T08:15:10.000Z</time>
      </trkpt>
      <trkpt lat="46.15156" lon="2.91624">
        <ele>669.99</ele>
        <time>2018-07-14T08:15:12.000Z</time>
      </trkpt>
      <trkpt lat="46.15167" lon="2.91618">
        <ele>669.6</ele>
        <time>2018-07-14T08:15:14.000Z</time>
      </trkpt>
      <trkpt lat="46.15177" lon="2.9161">
        <ele>669.55</ele>
        <time>2018-07-14T08:15:16.000Z</time>
      </trkpt>
      <trkpt lat="46.15186" lon="2.91601">
        <ele>669.79</ele>
        <time>2018-07-14T08:15:18.000Z</time>
      </trkpt>
      <trkpt lat="46.15193" lon="2.9159">
        <ele>670.06</ele>
        <time>2018-07-14T08:15:20.000Z</time>
      </trkpt>
      <trkpt lat="46.152" lon="2.91579">
        <ele>670.6</ele>
        <time>2018-07-14T08:15:22.000Z</time>
      </trkpt>
      <trkpt lat="46.15207" lon="2.91567">
        <ele>670.92</ele>
        <time>2018-07-14T08:15:24.000Z</time>
      </trkpt>
      <trkpt lat="46.15215" lon="2.91557">
        <ele>671.23</ele>
        <time>2018-07-14T08:15:26.000Z</time>
      </trkpt>
      <trkpt lat="46.15226" lon="2.91551">
        <ele>671.22</ele>
        <time>2018-07-14T08:15:28.000Z</time>
      </trkpt>
      <trkpt lat="46.15238" lon="2.91548">
        <ele>671.29</ele>
        <time>2018-07-14T08:15:30.000Z</time>
      </trkpt>
      <trkpt lat="46.15252" lon="2.91545">
        <ele>671.39</ele>
        <time>2018-07-14T08:15:32.000Z</time>
      </trkpt>
      <trkpt lat="46.15266" lon="2.91544">
        <ele>672.5</ele>
        <time>2018-07-14T08:15:34.000Z</time>
      </trkpt>
      <trkpt lat="46.15279" lon="2.91543">
        <ele>673.74</ele>
        <time>2018-07-14T08:15:36.000Z</time>
      </trkpt>
      <trkpt lat="46.15291" lon="2.91542">
        <ele>674.55</ele>
        <time>2018-07-14T08:15:38.000Z</time>
      </trkpt>
      <trkpt lat="46.15303" lon="2.91539">
        <ele>674.26</ele>
        <time>2018-07-14T08:15:40.000Z</time>
      </trkpt>
      <trkpt lat="46.15314" lon="2.91537">
        <ele>674.41</ele>
        <time>2018-07-14T08:15:42.000Z</time>
      </trkpt>
      <trkpt lat="46.15326" lon="2.91536">
        <ele>674.88</ele>
        <time>2018-07-14T08:15:44.000Z</time>
      </trkpt>
      <trkpt lat="46.15338" lon="2.91534">
        <ele>675.43</ele>
        <time>2018-07-14T08:15:46.000Z</time>
      </trkpt>
      <trkpt lat="46.15351" lon="2.91531">
        <ele>675.72</ele>
        <time>2018-07-14T08:15:48.000Z</time>
      </trkpt>
      <trkpt lat="46.15362" lon="2.91531">
        <ele>676.09</ele>
        <time>2018-07-14T08:15:50.000Z</time>
      </trkpt>
      <trkpt lat="46.15371" lon="2.91539">
        <ele>676.57</ele>
        <time>2018-07-14T08:15:53.000Z</time>
      </trkpt>
      <trkpt lat="46.15377" lon="2.91551">
        <ele>675.46</ele>
        <time>2018-07-14T08:15:55.000Z</time>
      </trkpt>
      <trkpt lat="46.15383" lon="2.91567">
        <ele>674.75</ele>
        <time>2018-07-14T08:15:57.000Z</time>
      </trkpt>
      <trkpt lat="46.15389" lon="2.91582">
        <ele>673.99</ele>
        <time>2018-07-14T08:15:59.000Z</time>
      </trkpt>
      <trkpt lat="46.15395" lon="2.91595">
        <ele>673.7</ele>
        <time>2018-07-14T08:16:01.000Z</time>
      </trkpt>
      <trkpt lat="46.154" lon="2.91609">
        <ele>673.68</ele>
        <time>2018-07-14T08:16:03.000Z</time>
      </trkpt>
      <trkpt lat="46.15405" lon="2.91623">
        <ele>674.38</ele>
        <time>2018-07-14T08:16:05.000Z</time>
      </trkpt>
      <trkpt lat="46.15411" lon="2.91638">
        <ele>674.81</ele>
        <time>2018-07-14T08:16:07.000Z</time>
      </trkpt>
      <trkpt lat="46.15418" lon="2.91654">
        <ele>675.4</ele>
        <time>2018-07-14T08:16:09.000Z</time>
      </trkpt>
      <trkpt lat="46.15424" lon="2.9167">
        <ele>675.82</ele>
        <time>2018-07-14T08:16:11.000Z</time>
      </trkpt>
      <trkpt lat="46.15431" lon="2.91687">
        <ele>675.79</ele>
        <time>2018-07-14T08:16:13.000Z</time>
      </trkpt>
      <trkpt lat="46.15439" lon="2.91703">
        <ele>675.72</ele>
        <time>2018-07-14T08:16:15.000Z</time>
      </trkpt>
      <trkpt lat="46.15446" lon="2.9172">
        <ele>674.8</ele>
        <time>2018-07-14T08:16:17.000Z</time>
      </trkpt>
      <trkpt lat="46.15453" lon="2.91737">
        <ele>674.47</ele>
        <time>2018-07-14T08:16:19.000Z</time>
      </trkpt>
      <trkpt lat="46.15462" lon="2.91754">
        <ele>673.96</ele>
        <time>2018-07-14T08:16:21.000Z</time>
      </trkpt>
      <trkpt lat="46.1547" lon="2.9177">
        <ele>674.01</ele>
        <time>2018-07-14T08:16:23.000Z</time>
      </trkpt>
      <trkpt lat="46.15479" lon="2.91788">
        <ele>673.81</ele>
        <time>2018-07-14T08:16:25.000Z</time>
      </trkpt>
      <trkpt lat="46.15489" lon="2.91806">
        <ele>673.92</ele>
        <time>2018-07-14T08:16:27.000Z</time>
      </trkpt>
      <trkpt lat="46.155" lon="2.91822">
        <ele>673.9</ele>
        <time>2018-07-14T08:16:29.000Z</time>
      </trkpt>
      <trkpt lat="46.15508" lon="2.91839">
        <ele>674.22</ele>
        <time>2018-07-14T08:16:31.000Z</time>
      </trkpt>
      <trkpt lat="46.15516" lon="2.91857">
        <ele>674.76</ele>
        <time>2018-07-14T08:16:33.000Z</time>
      </trkpt>
      <trkpt lat="46.15523" lon="2.91876">
        <ele>675.16</ele>
        <time>2018-07-14T08:16:35.000Z</time>
      </trkpt>
      <trkpt lat="46.1553" lon="2.91895">
        <ele>675.22</ele>
        <time>2018-07-14T08:16:37.000Z</time>
      </trkpt>
      <trkpt lat="46.15535" lon="2.91913">
        <ele>675.83</ele>
        <time>2018-07-14T08:16:39.000Z</time>
      </trkpt>
      <trkpt lat="46.15539" lon="2.91934">
        <ele>675.72</ele>
        <time>2018-07-14T08:16:41.000Z</time>
      </trkpt>
      <trkpt lat="46.15542" lon="2.91953">
        <ele>675.99</ele>
        <time>2018-07-14T08:16:43.000Z</time>
      </trkpt>
      <trkpt lat="46.15544" lon="2.91973">
        <ele>676.13</ele>
        <time>2018-07-14T08:16:45.000Z</time>
      </trkpt>
      <trkpt lat="46.15547" lon="2.91996">
        <ele>675.86</ele>
        <time>2018-07-14T08:16:47.000Z</time>
      </trkpt>
      <trkpt lat="46.1555" lon="2.92017">
        <ele>675.48</ele>
        <time>2018-07-14T08:16:49.000Z</time>
      </trkpt>
      <trkpt lat="46.15553" lon="2.92038">
        <ele>675.11</ele>
        <time>2018-07-14T08:16:51.000Z</time>
      </trkpt>
      <trkpt lat="46.15556" lon="2.92058">
        <ele>674.9</ele>
        <time>2018-07-14T08:16:53.000Z</time>
      </trkpt>
      <trkpt lat="46.15558" lon="2.9208">
        <ele>674.58</ele>
        <time>2018-07-14T08:16:55.000Z</time>
      </trkpt>
      <trkpt lat="46.15561" lon="2.92101">
        <ele>673.99</ele>
        <time>2018-07-14T08:16:57.000Z</time>
      </trkpt>
      <trkpt lat="46.15564" lon="2.92121">
        <ele>673.85</ele>
        <time>2018-07-14T08:16:59.000Z</time>
      </trkpt>
      <trkpt lat="46.15566" lon="2.92141">
        <ele>673.92</ele>
        <time>2018-07-14T08:17:01.000Z</time>
      </trkpt>
      <trkpt lat="46.15569" lon="2.92161">
        <ele>673.67</ele>
        <time>2018-07-14T08:17:03.000Z</time>
      </trkpt>
      <trkpt lat="46.15571" lon="2.92181">
        <ele>673.53</ele>
        <time>2018-07-14T08:17:05.000Z</time>
      </trkpt>
      <trkpt lat="46.15575" lon="2.92202">
        <ele>673.04</ele>
        <time>2018-07-14T08:17:07.000Z</time>
      </trkpt>
      <trkpt lat="46.15577" lon="2.92222">
        <ele>672.62</ele>
        <time>2018-07-14T08:17:09.000Z</time>
      </trkpt>
      <trkpt lat="46.1558" lon="2.92242">
        <ele>672.34</ele>
        <time>2018-07-14T08:17:11.000Z</time>
      </trkpt>
      <trkpt lat="46.15583" lon="2.92262">
        <ele>672.05</ele>
        <time>2018-07-14T08:17:13.000Z</time>
      </trkpt>
      <trkpt lat="46.15585" lon="2.92282">
        <ele>671.81</ele>
        <time>2018-07-14T08:17:15.000Z</time>
      </trkpt>
      <trkpt lat="46.15587" lon="2.92301">
        <ele>671.34</ele>
        <time>2018-07-14T08:17:17.000Z</time>
      </trkpt>
      <trkpt lat="46.1559" lon="2.9232">
        <ele>670.71</ele>
        <time>2018-07-14T08:17:19.000Z</time>
      </trkpt>
      <trkpt lat="46.15592" lon="2.92338">
        <ele>670.55</ele>
        <time>2018-07-14T08:17:21.000Z</time>
      </trkpt>
      <trkpt lat="46.15595" lon="2.92356">
        <ele>670.46</ele>
        <time>2018-07-14T08:17:23.000Z</time>
      </trkpt>
      <trkpt lat="46.15596" lon="2.92373">
        <ele>670.48</ele>
        <time>2018-07-14T08:17:25.000Z</time>
      </trkpt>
      <trkpt lat="46.15599" lon="2.92389">
        <ele>670.45</ele>
        <time>2018-07-14T08:17:27.000Z</time>
      </trkpt>
      <trkpt lat="46.15602" lon="2.92406">
        <ele>669.91</ele>
        <time>2018-07-14T08:17:29.000Z</time>
      </trkpt>
      <trkpt lat="46.15606" lon="2.92423">
        <ele>669.42</ele>
        <time>2018-07-14T08:17:31.000Z</time>
      </trkpt>
      <trkpt lat="46.15609" lon="2.92441">
        <ele>669.07</ele>
        <time>2018-07-14T08:17:33.000Z</time>
      </trkpt>
      <trkpt lat="46.15611" lon="2.92458">
        <ele>668.88</ele>
        <time>2018-07-14T08:17:35.000Z</time>
      </trkpt>
      <trkpt lat="46.15614" lon="2.92475">
        <ele>668.43</ele>
        <time>2018-07-14T08:17:37.000Z</time>
      </trkpt>
      <trkpt lat="46.15617" lon="2.92493">
        <ele>667.79</ele>
        <time>2018-07-14T08:17:39.000Z</time>
      </trkpt>
      <trkpt lat="46.15619" lon="2.9251">
        <ele>667.28</ele>
        <time>2018-07-14T08:17:41.000Z</time>
      </trkpt>
      <trkpt lat="46.15622" lon="2.92527">
        <ele>666.99</ele>
        <time>2018-07-14T08:17:43.000Z</time>
      </trkpt>
      <trkpt lat="46.15625" lon="2.92546">
        <ele>666.73</ele>
        <time>2018-07-14T08:17:45.000Z</time>
      </trkpt>
      <trkpt lat="46.15627" lon="2.92563">
        <ele>667.24</ele>
        <time>2018-07-14T08:17:47.000Z</time>
      </trkpt>
      <trkpt lat="46.15628" lon="2.92581">
        <ele>667.33</ele>
        <time>2018-07-14T08:17:49.000Z</time>
      </trkpt>
      <trkpt lat="46.1563" lon="2.92599">
        <ele>667.16</ele>
        <time>2018-07-14T08:17:51.000Z</time>
      </trkpt>
      <trkpt lat="46.15631" lon="2.92617">
        <ele>667.5</ele>
        <time>2018-07-14T08:17:53.000Z</time>
      </trkpt>
      <trkpt lat="46.15633" lon="2.92635">
        <ele>667.87</ele>
        <time>2018-07-14T08:17:55.000Z</time>
      </trkpt>
      <trkpt lat="46.15635" lon="2.92653">
        <ele>668.31</ele>
        <time>2018-07-14T08:17:57.000Z</time>
      </trkpt>
      <trkpt lat="46.15637" lon="2.92671">
        <ele>668.86</ele>
        <time>2018-07-14T08:17:59.000Z</time>
      </trkpt>
      <trkpt lat="46.1564" lon="2.92688">
        <ele>669.31</ele>
        <time>2018-07-14T08:18:01.000Z</time>
      </trkpt>
      <trkpt lat="46.15641" lon="2.92705">
        <ele>670.02</ele>
        <time>2018-07-14T08:18:03.000Z</time>
      </trkpt>
      <trkpt lat="46.15645" lon="2.92723">
        <ele>670.4</ele>
        <time>2018-07-14T08:18:05.000Z</time>
      </trkpt>
      <trkpt lat="46.15648" lon="2.9274">
        <ele>670.9</ele>
        <time>2018-07-14T08:18:07.000Z</time>
      </trkpt>
      <trkpt lat="46.1565" lon="2.92758">
        <ele>671.29</ele>
        <time>2018-07-14T08:18:09.000Z</time>
      </trkpt>
      <trkpt lat="46.15653" lon="2.92776">
        <ele>672.05</ele>
        <time>2018-07-14T08:18:11.000Z</time>
      </trkpt>
      <trkpt lat="46.15656" lon="2.92793">
        <ele>672.8</ele>
        <time>2018-07-14T08:18:13.000Z</time>
      </trkpt>
      <trkpt lat="46.15659" lon="2.92809">
        <ele>673.11</ele>
        <time>2018-07-14T08:18:15.000Z</time>
      </trkpt>
      <trkpt lat="46.15661" lon="2.92825">
        <ele>673.93</ele>
        <time>2018-07-14T08:18:17.000Z</time>
      </trkpt>
      <trkpt lat="46.15662" lon="2.9284">
        <ele>675.03</ele>
        <time>2018-07-14T08:18:19.000Z</time>
      </trkpt>
      <trkpt lat="46.15664" lon="2.92854">
        <ele>675.51</ele>
        <time>2018-07-14T08:18:21.000Z</time>
      </trkpt>
      <trkpt lat="46.15666" lon="2.92868">
        <ele>675.73</ele>
        <time>2018-07-14T08:18:23.000Z</time>
      </trkpt>
      <trkpt lat="46.15667" lon="2.92887">
        <ele>675.88</ele>
        <time>2018-07-14T08:18:26.000Z</time>
      </trkpt>
      <trkpt lat="46.15667" lon="2.92901">
        <ele>675.71</ele>
        <time>2018-07-14T08:18:28.000Z</time>
      </trkpt>
      <trkpt lat="46.15669" lon="2.92914">
        <ele>675.43</ele>
        <time>2018-07-14T08:18:30.000Z</time>
      </trkpt>
      <trkpt lat="46.1567" lon="2.92928">
        <ele>675.9</ele>
        <time>2018-07-14T08:18:32.000Z</time>
      </trkpt>
      <trkpt lat="46.15669" lon="2.92942">
        <ele>676.41</ele>
        <time>2018-07-14T08:18:34.000Z</time>
      </trkpt>
      <trkpt lat="46.1567" lon="2.92957">
        <ele>676.82</ele>
        <time>2018-07-14T08:18:36.000Z</time>
      </trkpt>
      <trkpt lat="46.1567" lon="2.92972">
        <ele>677.63</ele>
        <time>2018-07-14T08:18:38.000Z</time>
      </trkpt>
      <trkpt lat="46.15672" lon="2.92985">
        <ele>678.16</ele>
        <time>2018-07-14T08:18:40.000Z</time>
      </trkpt>
      <trkpt lat="46.15673" lon="2.93003">
        <ele>678.76</ele>
        <time>2018-07-14T08:18:43.000Z</time>
      </trkpt>
      <trkpt lat="46.15675" lon="2.93021">
        <ele>678.69</ele>
        <time>2018-07-14T08:18:46.000Z</time>
      </trkpt>
      <trkpt lat="46.15674" lon="2.93035">
        <ele>678.69</ele>
        <time>2018-07-14T08:18:48.000Z</time>
      </trkpt>
      <trkpt lat="46.15673" lon="2.93053">
        <ele>678.82</ele>
        <time>2018-07-14T08:18:51.000Z</time>
      </trkpt>
      <trkpt lat="46.15673" lon="2.93068">
        <ele>679.21</ele>
        <time>2018-07-14T08:18:53.000Z</time>
      </trkpt>
      <trkpt lat="46.15675" lon="2.93082">
        <ele>679.57</ele>
        <time>2018-07-14T08:18:55.000Z</time>
      </trkpt>
      <trkpt lat="46.15675" lon="2.93096">
        <ele>680.2</ele>
        <time>2018-07-14T08:18:57.000Z</time>
      </trkpt>
      <trkpt lat="46.15675" lon="2.93114">
        <ele>681.26</ele>
        <time>2018-07-14T08:19:00.000Z</time>
      </trkpt>
      <trkpt lat="46.15676" lon="2.93128">
        <ele>683</ele>
        <time>2018-07-14T08:19:03.000Z</time>
      </trkpt>
      <trkpt lat="46.1568" lon="2.93142">
        <ele>684.14</ele>
        <time>2018-07-14T08:19:06.000Z</time>
      </trkpt>
      <trkpt lat="46.15682" lon="2.93156">
        <ele>685.27</ele>
        <time>2018-07-14T08:19:09.000Z</time>
      </trkpt>
      <trkpt lat="46.15685" lon="2.93171">
        <ele>686.51</ele>
        <time>2018-07-14T08:19:12.000Z</time>
      </trkpt>
      <trkpt lat="46.15688" lon="2.93189">
        <ele>688.26</ele>
        <time>2018-07-14T08:19:15.000Z</time>
      </trkpt>
      <trkpt lat="46.15693" lon="2.93207">
        <ele>690.6</ele>
        <time>2018-07-14T08:19:18.000Z</time>
      </trkpt>
      <trkpt lat="46.15696" lon="2.93219">
        <ele>691.24</ele>
        <time>2018-07-14T08:19:20.000Z</time>
      </trkpt>
      <trkpt lat="46.15699" lon="2.93233">
        <ele>691.05</ele>
        <time>2018-07-14T08:19:22.000Z</time>
      </trkpt>
      <trkpt lat="46.15701" lon="2.93247">
        <ele>690.14</ele>
        <time>2018-07-14T08:19:24.000Z</time>
      </trkpt>
      <trkpt lat="46.15704" lon="2.9326">
        <ele>688.96</ele>
        <time>2018-07-14T08:19:26.000Z</time>
      </trkpt>
      <trkpt lat="46.15705" lon="2.93274">
        <ele>688.59</ele>
        <time>2018-07-14T08:19:28.000Z</time>
      </trkpt>
      <trkpt lat="46.15706" lon="2.93287">
        <ele>689.18</ele>
        <time>2018-07-14T08:19:30.000Z</time>
      </trkpt>
      <trkpt lat="46.15706" lon="2.93301">
        <ele>690.14</ele>
        <time>2018-07-14T08:19:32.000Z</time>
      </trkpt>
      <trkpt lat="46.15705" lon="2.93315">
        <ele>690.84</ele>
        <time>2018-07-14T08:19:34.000Z</time>
      </trkpt>
      <trkpt lat="46.15703" lon="2.93333">
        <ele>692.49</ele>
        <time>2018-07-14T08:19:37.000Z</time>
      </trkpt>
      <trkpt lat="46.15701" lon="2.93346">
        <ele>693.73</ele>
        <time>2018-07-14T08:19:39.000Z</time>
      </trkpt>
      <trkpt lat="46.157" lon="2.93364">
        <ele>694.6</ele>
        <time>2018-07-14T08:19:42.000Z</time>
      </trkpt>
      <trkpt lat="46.15701" lon="2.93384">
        <ele>694.71</ele>
        <time>2018-07-14T08:19:45.000Z</time>
      </trkpt>
      <trkpt lat="46.15701" lon="2.93398">
        <ele>694.16</ele>
        <time>2018-07-14T08:19:47.000Z</time>
      </trkpt>
      <trkpt lat="46.15701" lon="2.93412">
        <ele>694</ele>
        <time>2018-07-14T08:19:49.000Z</time>
      </trkpt>
      <trkpt lat="46.15701" lon="2.93426">
        <ele>693.76</ele>
        <time>2018-07-14T08:19:51.000Z</time>
      </trkpt>
      <trkpt lat="46.15701" lon="2.93445">
        <ele>693.87</ele>
        <time>2018-07-14T08:19:54.000Z</time>
      </trkpt>
      <trkpt lat="46.15702" lon="2.93464">
        <ele>694.05</ele>
        <time>2018-07-14T08:19:57.000Z</time>
      </trkpt>
      <trkpt lat="46.15704" lon="2.93481">
        <ele>694.42</ele>
        <time>2018-07-14T08:20:00.000Z</time>
      </trkpt>
      <trkpt lat="46.15707" lon="2.93499">
        <ele>694.59</ele>
        <time>2018-07-14T08:20:03.000Z</time>
      </trkpt>
      <trkpt lat="46.15712" lon="2.93513">
        <ele>694.73</ele>
        <time>2018-07-14T08:20:06.000Z</time>
      </trkpt>
      <trkpt lat="46.15719" lon="2.93528">
        <ele>695.26</ele>
        <time>2018-07-14T08:20:09.000Z</time>
      </trkpt>
      <trkpt lat="46.15727" lon="2.93544">
        <ele>695.66</ele>
        <time>2018-07-14T08:20:12.000Z</time>
      </trkpt>
      <trkpt lat="46.15735" lon="2.93557">
        <ele>696.44</ele>
        <time>2018-07-14T08:20:15.000Z</time>
      </trkpt>
      <trkpt lat="46.15743" lon="2.93569">
        <ele>697.57</ele>
        <time>2018-07-14T08:20:18.000Z</time>
      </trkpt>
      <trkpt lat="46.15752" lon="2.93582">
        <ele>699.23</ele>
        <time>2018-07-14T08:20:21.000Z</time>
      </trkpt>
      <trkpt lat="46.15761" lon="2.93594">
        <ele>701.18</ele>
        <time>2018-07-14T08:20:24.000Z</time>
      </trkpt>
      <trkpt lat="46.1577" lon="2.93607">
        <ele>703.11</ele>
        <time>2018-07-14T08:20:27.000Z</time>
      </trkpt>
      <trkpt lat="46.15775" lon="2.93621">
        <ele>705.64</ele>
        <time>2018-07-14T08:20:30.000Z</time>
      </trkpt>
      <trkpt lat="46.15779" lon="2.93638">
        <ele>706.75</ele>
        <time>2018-07-14T08:20:33.000Z</time>
      </trkpt>
      <trkpt lat="46.15783" lon="2.93652">
        <ele>707.54</ele>
        <time>2018-07-14T08:20:35.000Z</time>
      </trkpt>
      <trkpt lat="46.15787" lon="2.93664">
        <ele>708.7</ele>
        <time>2018-07-14T08:20:37.000Z</time>
      </trkpt>
      <trkpt lat="46.1579" lon="2.93677">
        <ele>708.94</ele>
        <time>2018-07-14T08:20:39.000Z</time>
      </trkpt>
      <trkpt lat="46.15792" lon="2.9369">
        <ele>708.99</ele>
        <time>2018-07-14T08:20:41.000Z</time>
      </trkpt>
      <trkpt lat="46.15794" lon="2.93708">
        <ele>709.22</ele>
        <time>2018-07-14T08:20:44.000Z</time>
      </trkpt>
      <trkpt lat="46.15796" lon="2.93726">
        <ele>709.3</ele>
        <time>2018-07-14T08:20:47.000Z</time>
      </trkpt>
      <trkpt lat="46.15794" lon="2.93743">
        <ele>709.54</ele>
        <time>2018-07-14T08:20:50.000Z</time>
      </trkpt>
      <trkpt lat="46.1579" lon="2.93759">
        <ele>709.68</ele>
        <time>2018-07-14T08:20:53.000Z</time>
      </trkpt>
      <trkpt lat="46.15786" lon="2.93774">
        <ele>709.99</ele>
        <time>2018-07-14T08:20:56.000Z</time>
      </trkpt>
      <trkpt lat="46.15784" lon="2.93791">
        <ele>709.69</ele>
        <time>2018-07-14T08:20:59.000Z</time>
      </trkpt>
      <trkpt lat="46.15783" lon="2.93808">
        <ele>709.26</ele>
        <time>2018-07-14T08:21:02.000Z</time>
      </trkpt>
      <trkpt lat="46.15784" lon="2.93825">
        <ele>709.47</ele>
        <time>2018-07-14T08:21:05.000Z</time>
      </trkpt>
      <trkpt lat="46.15786" lon="2.93843">
        <ele>710.19</ele>
        <time>2018-07-14T08:21:08.000Z</time>
      </trkpt>
      <trkpt lat="46.15787" lon="2.93859">
        <ele>712.31</ele>
        <time>2018-07-14T08:21:11.000Z</time>
      </trkpt>
      <trkpt lat="46.15789" lon="2.93873">
        <ele>714.41</ele>
        <time>2018-07-14T08:21:14.000Z</time>
      </trkpt>
      <trkpt lat="46.15793" lon="2.93888">
        <ele>716.25</ele>
        <time>2018-07-14T08:21:17.000Z</time>
      </trkpt>
      <trkpt lat="46.15798" lon="2.93905">
        <ele>717.25</ele>
        <time>2018-07-14T08:21:20.000Z</time>
      </trkpt>
      <trkpt lat="46.15802" lon="2.93917">
        <ele>717.54</ele>
        <time>2018-07-14T08:21:22.000Z</time>
      </trkpt>
      <trkpt lat="46.15807" lon="2.93929">
        <ele>717.58</ele>
        <time>2018-07-14T08:21:24.000Z</time>
      </trkpt>
      <trkpt lat="46.15816" lon="2.93944">
        <ele>717.88</ele>
        <time>2018-07-14T08:21:27.000Z</time>
      </trkpt>
      <trkpt lat="46.15822" lon="2.93953">
        <ele>718.19</ele>
        <time>2018-07-14T08:21:29.000Z</time>
      </trkpt>
      <trkpt lat="46.15831" lon="2.93967">
        <ele>718.67</ele>
        <time>2018-07-14T08:21:32.000Z</time>
      </trkpt>
      <trkpt lat="46.15839" lon="2.9398">
        <ele>719.72</ele>
        <time>2018-07-14T08:21:35.000Z</time>
      </trkpt>
      <trkpt lat="46.15845" lon="2.93992">
        <ele>720.69</ele>
        <time>2018-07-14T08:21:38.000Z</time>
      </trkpt>
      <trkpt lat="46.1585" lon="2.94005">
        <ele>721.29</ele>
        <time>2018-07-14T08:21:41.000Z</time>
      </trkpt>
      <trkpt lat="46.15857" lon="2.9402">
        <ele>721.95</ele>
        <time>2018-07-14T08:21:44.000Z</time>
      </trkpt>
      <trkpt lat="46.15862" lon="2.94032">
        <ele>722.69</ele>
        <time>2018-07-14T08:21:46.000Z</time>
      </trkpt>
      <trkpt lat="46.15867" lon="2.94044">
        <ele>723.83</ele>
        <time>2018-07-14T08:21:48.000Z</time>
      </trkpt>
      <trkpt lat="46.15871" lon="2.94056">
        <ele>724.77</ele>
        <time>2018-07-14T08:21:50.000Z</time>
      </trkpt>
      <trkpt lat="46.15878" lon="2.94072">
        <ele>726.05</ele>
        <time>2018-07-14T08:21:53.000Z</time>
      </trkpt>
      <trkpt lat="46.15882" lon="2.94087">
        <ele>728.4</ele>
        <time>2018-07-14T08:21:56.000Z</time>
      </trkpt>
      <trkpt lat="46.15888" lon="2.941">
        <ele>730.17</ele>
        <time>2018-07-14T08:21:59.000Z</time>
      </trkpt>
      <trkpt lat="46.15894" lon="2.94116">
        <ele>730.63</ele>
        <time>2018-07-14T08:22:02.000Z</time>
      </trkpt>
      <trkpt lat="46.15902" lon="2.94131">
        <ele>730.45</ele>
        <time>2018-07-14T08:22:05.000Z</time>
      </trkpt>
      <trkpt lat="46.1591" lon="2.94146">
        <ele>730.64</ele>
        <time>2018-07-14T08:22:08.000Z</time>
      </trkpt>
      <trkpt lat="46.15916" lon="2.94156">
        <ele>731.16</ele>
        <time>2018-07-14T08:22:10.000Z</time>
      </trkpt>
      <trkpt lat="46.15927" lon="2.94167">
        <ele>731.91</ele>
        <time>2018-07-14T08:22:13.000Z</time>
      </trkpt>
      <trkpt lat="46.15938" lon="2.94174">
        <ele>731.96</ele>
        <time>2018-07-14T08:22:16.000Z</time>
      </trkpt>
      <trkpt lat="46.1595" lon="2.9418">
        <ele>731.93</ele>
        <time>2018-07-14T08:22:19.000Z</time>
      </trkpt>
      <trkpt lat="46.15961" lon="2.94185">
        <ele>732.58</ele>
        <time>2018-07-14T08:22:22.000Z</time>
      </trkpt>
      <trkpt lat="46.15972" lon="2.94189">
        <ele>733.09</ele>
        <time>2018-07-14T08:22:25.000Z</time>
      </trkpt>
      <trkpt lat="46.15984" lon="2.94194">
        <ele>733.56</ele>
        <time>2018-07-14T08:22:28.000Z</time>
      </trkpt>
      <trkpt lat="46.15995" lon="2.942">
        <ele>734.58</ele>
        <time>2018-07-14T08:22:31.000Z</time>
      </trkpt>
      <trkpt lat="46.16006" lon="2.94204">
        <ele>735.86</ele>
        <time>2018-07-14T08:22:34.000Z</time>
      </trkpt>
      <trkpt lat="46.16018" lon="2.94208">
        <ele>737.43</ele>
        <time>2018-07-14T08:22:37.000Z</time>
      </trkpt>
      <trkpt lat="46.16029" lon="2.94212">
        <ele>738.13</ele>
        <time>2018-07-14T08:22:40.000Z</time>
      </trkpt>
      <trkpt lat="46.1604" lon="2.94215">
        <ele>738.6</ele>
        <time>2018-07-14T08:22:43.000Z</time>
      </trkpt>
      <trkpt lat="46.16051" lon="2.94218">
        <ele>739.03</ele>
        <time>2018-07-14T08:22:46.000Z</time>
      </trkpt>
      <trkpt lat="46.16063" lon="2.94223">
        <ele>739.64</ele>
        <time>2018-07-14T08:22:49.000Z</time>
      </trkpt>
      <trkpt lat="46.16075" lon="2.94227">
        <ele>740.41</ele>
        <time>2018-07-14T08:22:52.000Z</time>
      </trkpt>
      <trkpt lat="46.16087" lon="2.94231">
        <ele>741.37</ele>
        <time>2018-07-14T08:22:55.000Z</time>
      </trkpt>
      <trkpt lat="46.16097" lon="2.94234">
        <ele>741.93</ele>
        <time>2018-07-14T08:22:58.000Z</time>
      </trkpt>
      <trkpt lat="46.16107" lon="2.94239">
        <ele>742.76</ele>
        <time>2018-07-14T08:23:01.000Z</time>
      </trkpt>
      <trkpt lat="46.16118" lon="2.94241">
        <ele>742.64</ele>
        <time>2018-07-14T08:23:04.000Z</time>
      </trkpt>
      <trkpt lat="46.16129" lon="2.94242">
        <ele>742.7</ele>
        <time>2018-07-14T08:23:07.000Z</time>
      </trkpt>
      <trkpt lat="46.1614" lon="2.94242">
        <ele>742.78</ele>
        <time>2018-07-14T08:23:10.000Z</time>
      </trkpt>
      <trkpt lat="46.1615" lon="2.94243">
        <ele>743.27</ele>
        <time>2018-07-14T08:23:13.000Z</time>
      </trkpt>
      <trkpt lat="46.16162" lon="2.94242">
        <ele>743.58</ele>
        <time>2018-07-14T08:23:16.000Z</time>
      </trkpt>
      <trkpt lat="46.16175" lon="2.94241">
        <ele>744.33</ele>
        <time>2018-07-14T08:23:19.000Z</time>
      </trkpt>
      <trkpt lat="46.16185" lon="2.94241">
        <ele>744.91</ele>
        <time>2018-07-14T08:23:22.000Z</time>
      </trkpt>
      <trkpt lat="46.16197" lon="2.94239">
        <ele>745.64</ele>
        <time>2018-07-14T08:23:25.000Z</time>
      </trkpt>
      <trkpt lat="46.1621" lon="2.94239">
        <ele>745.8</ele>
        <time>2018-07-14T08:23:28.000Z</time>
      </trkpt>
      <trkpt lat="46.16222" lon="2.9424">
        <ele>746.12</ele>
        <time>2018-07-14T08:23:31.000Z</time>
      </trkpt>
      <trkpt lat="46.16234" lon="2.94241">
        <ele>746.89</ele>
        <time>2018-07-14T08:23:34.000Z</time>
      </trkpt>
      <trkpt lat="46.16245" lon="2.94242">
        <ele>747.7</ele>
        <time>2018-07-14T08:23:37.000Z</time>
      </trkpt>
      <trkpt lat="46.16256" lon="2.94241">
        <ele>748.52</ele>
        <time>2018-07-14T08:23:41.000Z</time>
      </trkpt>
      <trkpt lat="46.16266" lon="2.9424">
        <ele>749.44</ele>
        <time>2018-07-14T08:23:44.000Z</time>
      </trkpt>
      <trkpt lat="46.16278" lon="2.94236">
        <ele>750.33</ele>
        <time>2018-07-14T08:23:47.000Z</time>
      </trkpt>
      <trkpt lat="46.1629" lon="2.94234">
        <ele>750.73</ele>
        <time>2018-07-14T08:23:49.000Z</time>
      </trkpt>
      <trkpt lat="46.16301" lon="2.94234">
        <ele>751.45</ele>
        <time>2018-07-14T08:23:51.000Z</time>
      </trkpt>
      <trkpt lat="46.16311" lon="2.94235">
        <ele>752.46</ele>
        <time>2018-07-14T08:23:53.000Z</time>
      </trkpt>
      <trkpt lat="46.16321" lon="2.94237">
        <ele>753.41</ele>
        <time>2018-07-14T08:23:55.000Z</time>
      </trkpt>
      <trkpt lat="46.16332" lon="2.94241">
        <ele>754.3</ele>
        <time>2018-07-14T08:23:57.000Z</time>
      </trkpt>
      <trkpt lat="46.16343" lon="2.94242">
        <ele>754.98</ele>
        <time>2018-07-14T08:23:59.000Z</time>
      </trkpt>
      <trkpt lat="46.16352" lon="2.9424">
        <ele>755.4</ele>
        <time>2018-07-14T08:24:01.000Z</time>
      </trkpt>
      <trkpt lat="46.16365" lon="2.94239">
        <ele>756.36</ele>
        <time>2018-07-14T08:24:04.000Z</time>
      </trkpt>
      <trkpt lat="46.16376" lon="2.94245">
        <ele>757.09</ele>
        <time>2018-07-14T08:24:06.000Z</time>
      </trkpt>
      <trkpt lat="46.16385" lon="2.9425">
        <ele>757.71</ele>
        <time>2018-07-14T08:24:08.000Z</time>
      </trkpt>
      <trkpt lat="46.16394" lon="2.94255">
        <ele>758.28</ele>
        <time>2018-07-14T08:24:10.000Z</time>
      </trkpt>
      <trkpt lat="46.16404" lon="2.94262">
        <ele>759.23</ele>
        <time>2018-07-14T08:24:12.000Z</time>
      </trkpt>
      <trkpt lat="46.16414" lon="2.94269">
        <ele>760.09</ele>
        <time>2018-07-14T08:24:14.000Z</time>
      </trkpt>
      <trkpt lat="46.16424" lon="2.94279">
        <ele>760.66</ele>
        <time>2018-07-14T08:24:16.000Z</time>
      </trkpt>
      <trkpt lat="46.16434" lon="2.94287">
        <ele>761.38</ele>
        <time>2018-07-14T08:24:18.000Z</time>
      </trkpt>
      <trkpt lat="46.16444" lon="2.94293">
        <ele>761.84</ele>
        <time>2018-07-14T08:24:20.000Z</time>
      </trkpt>
      <trkpt lat="46.16453" lon="2.943">
        <ele>762.64</ele>
        <time>2018-07-14T08:24:22.000Z</time>
      </trkpt>
      <trkpt lat="46.16462" lon="2.94307">
        <ele>763.57</ele>
        <time>2018-07-14T08:24:24.000Z</time>
      </trkpt>
      <trkpt lat="46.1647" lon="2.94314">
        <ele>764.4</ele>
        <time>2018-07-14T08:24:26.000Z</time>
      </trkpt>
      <trkpt lat="46.16481" lon="2.94323">
        <ele>765.77</ele>
        <time>2018-07-14T08:24:29.000Z</time>
      </trkpt>
      <trkpt lat="46.1649" lon="2.94329">
        <ele>766.77</ele>
        <time>2018-07-14T08:24:31.000Z</time>
      </trkpt>
      <trkpt lat="46.16499" lon="2.94336">
        <ele>767.83</ele>
        <time>2018-07-14T08:24:33.000Z</time>
      </trkpt>
      <trkpt lat="46.16507" lon="2.94343">
        <ele>769.87</ele>
        <time>2018-07-14T08:24:35.000Z</time>
      </trkpt>
      <trkpt lat="46.16515" lon="2.9435">
        <ele>771.12</ele>
        <time>2018-07-14T08:24:37.000Z</time>
      </trkpt>
      <trkpt lat="46.16524" lon="2.94357">
        <ele>771.82</ele>
        <time>2018-07-14T08:24:39.000Z</time>
      </trkpt>
      <trkpt lat="46.16534" lon="2.94365">
        <ele>771.95</ele>
        <time>2018-07-14T08:24:41.000Z</time>
      </trkpt>
      <trkpt lat="46.16544" lon="2.94375">
        <ele>771.92</ele>
        <time>2018-07-14T08:24:43.000Z</time>
      </trkpt>
      <trkpt lat="46.16554" lon="2.94384">
        <ele>771.97</ele>
        <time>2018-07-14T08:24:45.000Z</time>
      </trkpt>
      <trkpt lat="46.16563" lon="2.94394">
        <ele>772.15</ele>
        <time>2018-07-14T08:24:47.000Z</time>
      </trkpt>
      <trkpt lat="46.16571" lon="2.94403">
        <ele>772.72</ele>
        <time>2018-07-14T08:24:49.000Z</time>
      </trkpt>
      <trkpt lat="46.1658" lon="2.94412">
        <ele>773.52</ele>
        <time>2018-07-14T08:24:51.000Z</time>
      </trkpt>
      <trkpt lat="46.1659" lon="2.94421">
        <ele>773.75</ele>
        <time>2018-07-14T08:24:53.000Z</time>
      </trkpt>
      <trkpt lat="46.16599" lon="2.9443">
        <ele>774.19</ele>
        <time>2018-07-14T08:24:55.000Z</time>
      </trkpt>
      <trkpt lat="46.16607" lon="2.94438">
        <ele>774.71</ele>
        <time>2018-07-14T08:24:57.000Z</time>
      </trkpt>
      <trkpt lat="46.16616" lon="2.94447">
        <ele>775.32</ele>
        <time>2018-07-14T08:24:59.000Z</time>
      </trkpt>
      <trkpt lat="46.16625" lon="2.94455">
        <ele>776.13</ele>
        <time>2018-07-14T08:25:01.000Z</time>
      </trkpt>
      <trkpt lat="46.16634" lon="2.94462">
        <ele>776.7</ele>
        <time>2018-07-14T08:25:03.000Z</time>
      </trkpt>
      <trkpt lat="46.16644" lon="2.94472">
        <ele>776.82</ele>
        <time>2018-07-14T08:25:05.000Z</time>
      </trkpt>
      <trkpt lat="46.16652" lon="2.9448">
        <ele>777.13</ele>
        <time>2018-07-14T08:25:07.000Z</time>
      </trkpt>
      <trkpt lat="46.1666" lon="2.94488">
        <ele>777.25</ele>
        <time>2018-07-14T08:25:09.000Z</time>
      </trkpt>
      <trkpt lat="46.16672" lon="2.94498">
        <ele>778.36</ele>
        <time>2018-07-14T08:25:12.000Z</time>
      </trkpt>
      <trkpt lat="46.16679" lon="2.94506">
        <ele>779.22</ele>
        <time>2018-07-14T08:25:14.000Z</time>
      </trkpt>
      <trkpt lat="46.16688" lon="2.94512">
        <ele>779.76</ele>
        <time>2018-07-14T08:25:16.000Z</time>
      </trkpt>
      <trkpt lat="46.16697" lon="2.94518">
        <ele>780.7</ele>
        <time>2018-07-14T08:25:18.000Z</time>
      </trkpt>
      <trkpt lat="46.16707" lon="2.94527">
        <ele>782.47</ele>
        <time>2018-07-14T08:25:21.000Z</time>
      </trkpt>
      <trkpt lat="46.1672" lon="2.94534">
        <ele>783.38</ele>
        <time>2018-07-14T08:25:24.000Z</time>
      </trkpt>
      <trkpt lat="46.16731" lon="2.94537">
        <ele>783.45</ele>
        <time>2018-07-14T08:25:26.000Z</time>
      </trkpt>
      <trkpt lat="46.1674" lon="2.94546">
        <ele>782.9</ele>
        <time>2018-07-14T08:25:28.000Z</time>
      </trkpt>
      <trkpt lat="46.16748" lon="2.94558">
        <ele>782.07</ele>
        <time>2018-07-14T08:25:30.000Z</time>
      </trkpt>
      <trkpt lat="46.16756" lon="2.94568">
        <ele>781.23</ele>
        <time>2018-07-14T08:25:32.000Z</time>
      </trkpt>
      <trkpt lat="46.16767" lon="2.94579">
        <ele>780.6</ele>
        <time>2018-07-14T08:25:35.000Z</time>
      </trkpt>
      <trkpt lat="46.16777" lon="2.94587">
        <ele>779.93</ele>
        <time>2018-07-14T08:25:37.000Z</time>
      </trkpt>
      <trkpt lat="46.16786" lon="2.94594">
        <ele>779.61</ele>
        <time>2018-07-14T08:25:39.000Z</time>
      </trkpt>
      <trkpt lat="46.16792" lon="2.94605">
        <ele>779.86</ele>
        <time>2018-07-14T08:25:41.000Z</time>
      </trkpt>
      <trkpt lat="46.16801" lon="2.9462">
        <ele>780.5</ele>
        <time>2018-07-14T08:25:43.000Z</time>
      </trkpt>
      <trkpt lat="46.1681" lon="2.94634">
        <ele>781.18</ele>
        <time>2018-07-14T08:25:46.000Z</time>
      </trkpt>
      <trkpt lat="46.16819" lon="2.94642">
        <ele>781.61</ele>
        <time>2018-07-14T08:25:48.000Z</time>
      </trkpt>
      <trkpt lat="46.1683" lon="2.94656">
        <ele>782.39</ele>
        <time>2018-07-14T08:25:50.000Z</time>
      </trkpt>
      <trkpt lat="46.16837" lon="2.94671">
        <ele>782.59</ele>
        <time>2018-07-14T08:25:52.000Z</time>
      </trkpt>
      <trkpt lat="46.16841" lon="2.94685">
        <ele>782.37</ele>
        <time>2018-07-14T08:25:54.000Z</time>
      </trkpt>
      <trkpt lat="46.16845" lon="2.94699">
        <ele>781.7</ele>
        <time>2018-07-14T08:25:56.000Z</time>
      </trkpt>
      <trkpt lat="46.16851" lon="2.94713">
        <ele>781.62</ele>
        <time>2018-07-14T08:25:58.000Z</time>
      </trkpt>
      <trkpt lat="46.16856" lon="2.94727">
        <ele>781.74</ele>
        <time>2018-07-14T08:26:00.000Z</time>
      </trkpt>
      <trkpt lat="46.16861" lon="2.94742">
        <ele>782.05</ele>
        <time>2018-07-14T08:26:02.000Z</time>
      </trkpt>
      <trkpt lat="46.16868" lon="2.94756">
        <ele>781.82</ele>
        <time>2018-07-14T08:26:04.000Z</time>
      </trkpt>
      <trkpt lat="46.16875" lon="2.9477">
        <ele>781.49</ele>
        <time>2018-07-14T08:26:06.000Z</time>
      </trkpt>
      <trkpt lat="46.16882" lon="2.94788">
        <ele>780.67</ele>
        <time>2018-07-14T08:26:08.000Z</time>
      </trkpt>
      <trkpt lat="46.1689" lon="2.94803">
        <ele>779.56</ele>
        <time>2018-07-14T08:26:10.000Z</time>
      </trkpt>
      <trkpt lat="46.16898" lon="2.94816">
        <ele>779.44</ele>
        <time>2018-07-14T08:26:12.000Z</time>
      </trkpt>
      <trkpt lat="46.16906" lon="2.94828">
        <ele>779.24</ele>
        <time>2018-07-14T08:26:14.000Z</time>
      </trkpt>
      <trkpt lat="46.16914" lon="2.9484">
        <ele>779.65</ele>
        <time>2018-07-14T08:26:16.000Z</time>
      </trkpt>
      <trkpt lat="46.16922" lon="2.94855">
        <ele>778.95</ele>
        <time>2018-07-14T08:26:18.000Z</time>
      </trkpt>
      <trkpt lat="46.16931" lon="2.94869">
        <ele>779.05</ele>
        <time>2018-07-14T08:26:20.000Z</time>
      </trkpt>
      <trkpt lat="46.16938" lon="2.94883">
        <ele>780.03</ele>
        <time>2018-07-14T08:26:22.000Z</time>
      </trkpt>
      <trkpt lat="46.16944" lon="2.94897">
        <ele>780.5</ele>
        <time>2018-07-14T08:26:24.000Z</time>
      </trkpt>
      <trkpt lat="46.16948" lon="2.94909">
        <ele>780.98</ele>
        <time>2018-07-14T08:26:26.000Z</time>
      </trkpt>
      <trkpt lat="46.16956" lon="2.94925">
        <ele>781.54</ele>
        <time>2018-07-14T08:26:29.000Z</time>
      </trkpt>
      <trkpt lat="46.16961" lon="2.94941">
        <ele>781.55</ele>
        <time>2018-07-14T08:26:31.000Z</time>
      </trkpt>
      <trkpt lat="46.1697" lon="2.94955">
        <ele>781.69</ele>
        <time>2018-07-14T08:26:33.000Z</time>
      </trkpt>
      <trkpt lat="46.16981" lon="2.94967">
        <ele>782.06</ele>
        <time>2018-07-14T08:26:35.000Z</time>
      </trkpt>
      <trkpt lat="46.16992" lon="2.9498">
        <ele>782.46</ele>
        <time>2018-07-14T08:26:37.000Z</time>
      </trkpt>
      <trkpt lat="46.17001" lon="2.94994">
        <ele>782.62</ele>
        <time>2018-07-14T08:26:39.000Z</time>
      </trkpt>
      <trkpt lat="46.17007" lon="2.95007">
        <ele>782.97</ele>
        <time>2018-07-14T08:26:41.000Z</time>
      </trkpt>
      <trkpt lat="46.17015" lon="2.95019">
        <ele>783.45</ele>
        <time>2018-07-14T08:26:43.000Z</time>
      </trkpt>
      <trkpt lat="46.17022" lon="2.95033">
        <ele>783.95</ele>
        <time>2018-07-14T08:26:45.000Z</time>
      </trkpt>
      <trkpt lat="46.17029" lon="2.95049">
        <ele>783.18</ele>
        <time>2018-07-14T08:26:47.000Z</time>
      </trkpt>
      <trkpt lat="46.1704" lon="2.9506">
        <ele>782.87</ele>
        <time>2018-07-14T08:26:49.000Z</time>
      </trkpt>
      <trkpt lat="46.1705" lon="2.95074">
        <ele>782.46</ele>
        <time>2018-07-14T08:26:51.000Z</time>
      </trkpt>
      <trkpt lat="46.1706" lon="2.95086">
        <ele>782.79</ele>
        <time>2018-07-14T08:26:53.000Z</time>
      </trkpt>
      <trkpt lat="46.17068" lon="2.95098">
        <ele>783.86</ele>
        <time>2018-07-14T08:26:55.000Z</time>
      </trkpt>
      <trkpt lat="46.17076" lon="2.95109">
        <ele>785.46</ele>
        <time>2018-07-14T08:26:57.000Z</time>
      </trkpt>
      <trkpt lat="46.17084" lon="2.95123">
        <ele>787.4</ele>
        <time>2018-07-14T08:26:59.000Z</time>
      </trkpt>
      <trkpt lat="46.17093" lon="2.95137">
        <ele>789.58</ele>
        <time>2018-07-14T08:27:01.000Z</time>
      </trkpt>
      <trkpt lat="46.17099" lon="2.95149">
        <ele>791.92</ele>
        <time>2018-07-14T08:27:03.000Z</time>
      </trkpt>
      <trkpt lat="46.17106" lon="2.95164">
        <ele>792.45</ele>
        <time>2018-07-14T08:27:05.000Z</time>
      </trkpt>
      <trkpt lat="46.17111" lon="2.95179">
        <ele>792.2</ele>
        <time>2018-07-14T08:27:07.000Z</time>
      </trkpt>
      <trkpt lat="46.17117" lon="2.95193">
        <ele>791.98</ele>
        <time>2018-07-14T08:27:09.000Z</time>
      </trkpt>
      <trkpt lat="46.17122" lon="2.95206">
        <ele>792.17</ele>
        <time>2018-07-14T08:27:11.000Z</time>
      </trkpt>
      <trkpt lat="46.17128" lon="2.95217">
        <ele>792.46</ele>
        <time>2018-07-14T08:27:13.000Z</time>
      </trkpt>
      <trkpt lat="46.17141" lon="2.95229">
        <ele>792.46</ele>
        <time>2018-07-14T08:27:16.000Z</time>
      </trkpt>
      <trkpt lat="46.17152" lon="2.95238">
        <ele>791.85</ele>
        <time>2018-07-14T08:27:18.000Z</time>
      </trkpt>
      <trkpt lat="46.1716" lon="2.95248">
        <ele>790.36</ele>
        <time>2018-07-14T08:27:20.000Z</time>
      </trkpt>
      <trkpt lat="46.17169" lon="2.95258">
        <ele>789.19</ele>
        <time>2018-07-14T08:27:22.000Z</time>
      </trkpt>
      <trkpt lat="46.1718" lon="2.95266">
        <ele>787.89</ele>
        <time>2018-07-14T08:27:24.000Z</time>
      </trkpt>
      <trkpt lat="46.17189" lon="2.95273">
        <ele>786.62</ele>
        <time>2018-07-14T08:27:26.000Z</time>
      </trkpt>
      <trkpt lat="46.17201" lon="2.95282">
        <ele>785.82</ele>
        <time>2018-07-14T08:27:29.000Z</time>
      </trkpt>
      <trkpt lat="46.17213" lon="2.95284">
        <ele>785.56</ele>
        <time>2018-07-14T08:27:31.000Z</time>
      </trkpt>
      <trkpt lat="46.17224" lon="2.95283">
        <ele>786.9</ele>
        <time>2018-07-14T08:27:33.000Z</time>
      </trkpt>
      <trkpt lat="46.17237" lon="2.95285">
        <ele>787.66</ele>
        <time>2018-07-14T08:27:35.000Z</time>
      </trkpt>
      <trkpt lat="46.17249" lon="2.95288">
        <ele>788.23</ele>
        <time>2018-07-14T08:27:37.000Z</time>
      </trkpt>
      <trkpt lat="46.17262" lon="2.95293">
        <ele>788.05</ele>
        <time>2018-07-14T08:27:39.000Z</time>
      </trkpt>
      <trkpt lat="46.17274" lon="2.95294">
        <ele>787.97</ele>
        <time>2018-07-14T08:27:41.000Z</time>
      </trkpt>
      <trkpt lat="46.17288" lon="2.95296">
        <ele>787.84</ele>
        <time>2018-07-14T08:27:43.000Z</time>
      </trkpt>
      <trkpt lat="46.173" lon="2.95301">
        <ele>788.59</ele>
        <time>2018-07-14T08:27:45.000Z</time>
      </trkpt>
      <trkpt lat="46.17308" lon="2.95315">
        <ele>790.5</ele>
        <time>2018-07-14T08:27:47.000Z</time>
      </trkpt>
      <trkpt lat="46.17316" lon="2.95329">
        <ele>791.49</ele>
        <time>2018-07-14T08:27:49.000Z</time>
      </trkpt>
      <trkpt lat="46.17316" lon="2.95349">
        <ele>794.25</ele>
        <time>2018-07-14T08:27:50.000Z</time>
      </trkpt>
      <trkpt lat="46.17319" lon="2.95363">
        <ele>795.81</ele>
        <time>2018-07-14T08:27:51.000Z</time>
      </trkpt>
      <trkpt lat="46.17326" lon="2.95381">
        <ele>797.51</ele>
        <time>2018-07-14T08:27:53.000Z</time>
      </trkpt>
      <trkpt lat="46.17333" lon="2.95399">
        <ele>798.02</ele>
        <time>2018-07-14T08:27:55.000Z</time>
      </trkpt>
      <trkpt lat="46.1734" lon="2.95416">
        <ele>798.14</ele>
        <time>2018-07-14T08:27:57.000Z</time>
      </trkpt>
      <trkpt lat="46.17344" lon="2.95434">
        <ele>798.35</ele>
        <time>2018-07-14T08:27:59.000Z</time>
      </trkpt>
      <trkpt lat="46.17347" lon="2.9545">
        <ele>798.92</ele>
        <time>2018-07-14T08:28:01.000Z</time>
      </trkpt>
      <trkpt lat="46.17351" lon="2.95466">
        <ele>799.75</ele>
        <time>2018-07-14T08:28:03.000Z</time>
      </trkpt>
      <trkpt lat="46.17354" lon="2.95482">
        <ele>800.52</ele>
        <time>2018-07-14T08:28:05.000Z</time>
      </trkpt>
      <trkpt lat="46.17357" lon="2.95499">
        <ele>801.21</ele>
        <time>2018-07-14T08:28:07.000Z</time>
      </trkpt>
      <trkpt lat="46.17362" lon="2.95515">
        <ele>802.32</ele>
        <time>2018-07-14T08:28:09.000Z</time>
      </trkpt>
      <trkpt lat="46.17363" lon="2.95531">
        <ele>802.81</ele>
        <time>2018-07-14T08:28:11.000Z</time>
      </trkpt>
      <trkpt lat="46.17369" lon="2.95546">
        <ele>803.79</ele>
        <time>2018-07-14T08:28:13.000Z</time>
      </trkpt>
      <trkpt lat="46.17373" lon="2.95562">
        <ele>804.49</ele>
        <time>2018-07-14T08:28:15.000Z</time>
      </trkpt>
      <trkpt lat="46.17377" lon="2.95579">
        <ele>804.61</ele>
        <time>2018-07-14T08:28:17.000Z</time>
      </trkpt>
      <trkpt lat="46.17381" lon="2.95592">
        <ele>804.68</ele>
        <time>2018-07-14T08:28:19.000Z</time>
      </trkpt>
      <trkpt lat="46.17391" lon="2.95605">
        <ele>805.22</ele>
        <time>2018-07-14T08:28:21.000Z</time>
      </trkpt>
      <trkpt lat="46.17399" lon="2.9562">
        <ele>805.66</ele>
        <time>2018-07-14T08:28:23.000Z</time>
      </trkpt>
      <trkpt lat="46.17407" lon="2.95635">
        <ele>806.27</ele>
        <time>2018-07-14T08:28:25.000Z</time>
      </trkpt>
      <trkpt lat="46.17417" lon="2.95648">
        <ele>806.7</ele>
        <time>2018-07-14T08:28:27.000Z</time>
      </trkpt>
      <trkpt lat="46.17429" lon="2.95659">
        <ele>806.79</ele>
        <time>2018-07-14T08:28:29.000Z</time>
      </trkpt>
      <trkpt lat="46.17441" lon="2.95669">
        <ele>806.23</ele>
        <time>2018-07-14T08:28:31.000Z</time>
      </trkpt>
      <trkpt lat="46.17449" lon="2.95682">
        <ele>804.1</ele>
        <time>2018-07-14T08:28:33.000Z</time>
      </trkpt>
      <trkpt lat="46.1746" lon="2.95693">
        <ele>803.36</ele>
        <time>2018-07-14T08:28:35.000Z</time>
      </trkpt>
      <trkpt lat="46.17471" lon="2.95706">
        <ele>803.55</ele>
        <time>2018-07-14T08:28:37.000Z</time>
      </trkpt>
      <trkpt lat="46.17483" lon="2.9572">
        <ele>803.52</ele>
        <time>2018-07-14T08:28:39.000Z</time>
      </trkpt>
      <trkpt lat="46.17496" lon="2.95736">
        <ele>803.77</ele>
        <time>2018-07-14T08:28:41.000Z</time>
      </trkpt>
      <trkpt lat="46.17507" lon="2.95754">
        <ele>804.44</ele>
        <time>2018-07-14T08:28:43.000Z</time>
      </trkpt>
      <trkpt lat="46.17514" lon="2.95765">
        <ele>804.31</ele>
        <time>2018-07-14T08:28:44.000Z</time>
      </trkpt>
      <trkpt lat="46.1752" lon="2.95778">
        <ele>804.08</ele>
        <time>2018-07-14T08:28:45.000Z</time>
      </trkpt>
      <trkpt lat="46.17525" lon="2.95791">
        <ele>803.5</ele>
        <time>2018-07-14T08:28:46.000Z</time>
      </trkpt>
      <trkpt lat="46.17529" lon="2.95803">
        <ele>802.78</ele>
        <time>2018-07-14T08:28:47.000Z</time>
      </trkpt>
      <trkpt lat="46.17532" lon="2.95816">
        <ele>802.14</ele>
        <time>2018-07-14T08:28:48.000Z</time>
      </trkpt>
      <trkpt lat="46.17537" lon="2.95838">
        <ele>801.47</ele>
        <time>2018-07-14T08:28:50.000Z</time>
      </trkpt>
      <trkpt lat="46.17542" lon="2.95861">
        <ele>801.5</ele>
        <time>2018-07-14T08:28:52.000Z</time>
      </trkpt>
      <trkpt lat="46.17548" lon="2.95883">
        <ele>801.49</ele>
        <time>2018-07-14T08:28:54.000Z</time>
      </trkpt>
      <trkpt lat="46.17553" lon="2.95905">
        <ele>801.56</ele>
        <time>2018-07-14T08:28:56.000Z</time>
      </trkpt>
      <trkpt lat="46.17557" lon="2.95928">
        <ele>801.4</ele>
        <time>2018-07-14T08:28:58.000Z</time>
      </trkpt>
      <trkpt lat="46.17561" lon="2.95951">
        <ele>801.85</ele>
        <time>2018-07-14T08:29:00.000Z</time>
      </trkpt>
      <trkpt lat="46.17565" lon="2.95976">
        <ele>801.89</ele>
        <time>2018-07-14T08:29:02.000Z</time>
      </trkpt>
      <trkpt lat="46.17568" lon="2.95989">
        <ele>801.63</ele>
        <time>2018-07-14T08:29:03.000Z</time>
      </trkpt>
      <trkpt lat="46.1757" lon="2.96002">
        <ele>801.43</ele>
        <time>2018-07-14T08:29:04.000Z</time>
      </trkpt>
      <trkpt lat="46.17575" lon="2.96027">
        <ele>800.63</ele>
        <time>2018-07-14T08:29:06.000Z</time>
      </trkpt>
      <trkpt lat="46.1758" lon="2.96051">
        <ele>800.46</ele>
        <time>2018-07-14T08:29:08.000Z</time>
      </trkpt>
      <trkpt lat="46.17587" lon="2.96073">
        <ele>800.75</ele>
        <time>2018-07-14T08:29:10.000Z</time>
      </trkpt>
      <trkpt lat="46.17596" lon="2.96095">
        <ele>801.4</ele>
        <time>2018-07-14T08:29:12.000Z</time>
      </trkpt>
      <trkpt lat="46.17604" lon="2.96117">
        <ele>800.64</ele>
        <time>2018-07-14T08:29:14.000Z</time>
      </trkpt>
      <trkpt lat="46.17609" lon="2.96129">
        <ele>800.03</ele>
        <time>2018-07-14T08:29:15.000Z</time>
      </trkpt>
      <trkpt lat="46.17614" lon="2.9614">
        <ele>799.62</ele>
        <time>2018-07-14T08:29:16.000Z</time>
      </trkpt>
      <trkpt lat="46.17619" lon="2.96151">
        <ele>798.79</ele>
        <time>2018-07-14T08:29:17.000Z</time>
      </trkpt>
      <trkpt lat="46.17625" lon="2.96162">
        <ele>798.37</ele>
        <time>2018-07-14T08:29:18.000Z</time>
      </trkpt>
      <trkpt lat="46.1763" lon="2.96172">
        <ele>798.04</ele>
        <time>2018-07-14T08:29:19.000Z</time>
      </trkpt>
      <trkpt lat="46.17635" lon="2.96183">
        <ele>797.74</ele>
        <time>2018-07-14T08:29:20.000Z</time>
      </trkpt>
      <trkpt lat="46.17645" lon="2.96203">
        <ele>797.57</ele>
        <time>2018-07-14T08:29:22.000Z</time>
      </trkpt>
      <trkpt lat="46.17651" lon="2.96214">
        <ele>797.21</ele>
        <time>2018-07-14T08:29:23.000Z</time>
      </trkpt>
      <trkpt lat="46.17657" lon="2.96224">
        <ele>796.88</ele>
        <time>2018-07-14T08:29:24.000Z</time>
      </trkpt>
      <trkpt lat="46.17667" lon="2.96243">
        <ele>796.49</ele>
        <time>2018-07-14T08:29:26.000Z</time>
      </trkpt>
      <trkpt lat="46.17679" lon="2.9626">
        <ele>796.53</ele>
        <time>2018-07-14T08:29:28.000Z</time>
      </trkpt>
      <trkpt lat="46.1769" lon="2.9628">
        <ele>795.72</ele>
        <time>2018-07-14T08:29:30.000Z</time>
      </trkpt>
      <trkpt lat="46.17695" lon="2.9629">
        <ele>794.93</ele>
        <time>2018-07-14T08:29:31.000Z</time>
      </trkpt>
      <trkpt lat="46.17704" lon="2.96309">
        <ele>793.6</ele>
        <time>2018-07-14T08:29:33.000Z</time>
      </trkpt>
      <trkpt lat="46.1771" lon="2.96326">
        <ele>785.65</ele>
        <time>2018-07-14T08:29:35.000Z</time>
      </trkpt>
      <trkpt lat="46.1772" lon="2.96331">
        <ele>775.86</ele>
        <time>2018-07-14T08:29:38.000Z</time>
      </trkpt>
      <trkpt lat="46.17728" lon="2.96323">
        <ele>773.1</ele>
        <time>2018-07-14T08:29:40.000Z</time>
      </trkpt>
      <trkpt lat="46.17736" lon="2.96311">
        <ele>772.32</ele>
        <time>2018-07-14T08:29:42.000Z</time>
      </trkpt>
      <trkpt lat="46.17744" lon="2.96297">
        <ele>772.1</ele>
        <time>2018-07-14T08:29:44.000Z</time>
      </trkpt>
      <trkpt lat="46.17754" lon="2.96281">
        <ele>771.95</ele>
        <time>2018-07-14T08:29:46.000Z</time>
      </trkpt>
      <trkpt lat="46.17764" lon="2.96262">
        <ele>772.26</ele>
        <time>2018-07-14T08:29:48.000Z</time>
      </trkpt>
      <trkpt lat="46.17774" lon="2.96244">
        <ele>771.37</ele>
        <time>2018-07-14T08:29:50.000Z</time>
      </trkpt>
      <trkpt lat="46.17786" lon="2.96227">
        <ele>770.46</ele>
        <time>2018-07-14T08:29:52.000Z</time>
      </trkpt>
      <trkpt lat="46.17798" lon="2.96209">
        <ele>769.74</ele>
        <time>2018-07-14T08:29:54.000Z</time>
      </trkpt>
      <trkpt lat="46.17804" lon="2.96199">
        <ele>769.46</ele>
        <time>2018-07-14T08:29:55.000Z</time>
      </trkpt>
      <trkpt lat="46.1781" lon="2.96188">
        <ele>769.27</ele>
        <time>2018-07-14T08:29:56.000Z</time>
      </trkpt>
      <trkpt lat="46.17817" lon="2.96176">
        <ele>769.14</ele>
        <time>2018-07-14T08:29:57.000Z</time>
      </trkpt>
      <trkpt lat="46.17823" lon="2.96164">
        <ele>769.08</ele>
        <time>2018-07-14T08:29:58.000Z</time>
      </trkpt>
      <trkpt lat="46.1783" lon="2.96152">
        <ele>768.94</ele>
        <time>2018-07-14T08:29:59.000Z</time>
      </trkpt>
      <trkpt lat="46.17837" lon="2.96139">
        <ele>768.7</ele>
        <time>2018-07-14T08:30:00.000Z</time>
      </trkpt>
      <trkpt lat="46.17844" lon="2.96126">
        <ele>768.51</ele>
        <time>2018-07-14T08:30:01.000Z</time>
      </trkpt>
      <trkpt lat="46.17851" lon="2.96113">
        <ele>768.41</ele>
        <time>2018-07-14T08:30:02.000Z</time>
      </trkpt>
      <trkpt lat="46.17857" lon="2.96099">
        <ele>768.3</ele>
        <time>2018-07-14T08:30:03.000Z</time>
      </trkpt>
      <trkpt lat="46.17864" lon="2.96085">
        <ele>768.12</ele>
        <time>2018-07-14T08:30:04.000Z</time>
      </trkpt>
      <trkpt lat="46.17872" lon="2.96071">
        <ele>767.93</ele>
        <time>2018-07-14T08:30:05.000Z</time>
      </trkpt>
      <trkpt lat="46.17879" lon="2.96058">
        <ele>767.71</ele>
        <time>2018-07-14T08:30:06.000Z</time>
      </trkpt>
      <trkpt lat="46.17886" lon="2.96045">
        <ele>767.48</ele>
        <time>2018-07-14T08:30:07.000Z</time>
      </trkpt>
      <trkpt lat="46.17894" lon="2.96032">
        <ele>767.26</ele>
        <time>2018-07-14T08:30:08.000Z</time>
      </trkpt>
      <trkpt lat="46.17901" lon="2.96018">
        <ele>766.96</ele>
        <time>2018-07-14T08:30:09.000Z</time>
      </trkpt>
      <trkpt lat="46.17909" lon="2.96004">
        <ele>766.73</ele>
        <time>2018-07-14T08:30:10.000Z</time>
      </trkpt>
      <trkpt lat="46.17916" lon="2.9599">
        <ele>766.45</ele>
        <time>2018-07-14T08:30:11.000Z</time>
      </trkpt>
      <trkpt lat="46.17924" lon="2.95975">
        <ele>766.11</ele>
        <time>2018-07-14T08:30:12.000Z</time>
      </trkpt>
      <trkpt lat="46.17932" lon="2.95961">
        <ele>765.69</ele>
        <time>2018-07-14T08:30:13.000Z</time>
      </trkpt>
      <trkpt lat="46.1794" lon="2.95946">
        <ele>765.32</ele>
        <time>2018-07-14T08:30:14.000Z</time>
      </trkpt>
      <trkpt lat="46.17948" lon="2.95932">
        <ele>764.89</ele>
        <time>2018-07-14T08:30:15.000Z</time>
      </trkpt>
      <trkpt lat="46.17956" lon="2.95918">
        <ele>764.28</ele>
        <time>2018-07-14T08:30:16.000Z</time>
      </trkpt>
      <trkpt lat="46.17965" lon="2.95904">
        <ele>763.84</ele>
        <time>2018-07-14T08:30:17.000Z</time>
      </trkpt>
      <trkpt lat="46.17973" lon="2.95888">
        <ele>763.53</ele>
        <time>2018-07-14T08:30:18.000Z</time>
      </trkpt>
      <trkpt lat="46.17982" lon="2.95872">
        <ele>762.99</ele>
        <time>2018-07-14T08:30:19.000Z</time>
      </trkpt>
      <trkpt lat="46.17992" lon="2.95856">
        <ele>762.47</ele>
        <time>2018-07-14T08:30:20.000Z</time>
      </trkpt>
      <trkpt lat="46.18" lon="2.95841">
        <ele>761.73</ele>
        <time>2018-07-14T08:30:21.000Z</time>
      </trkpt>
      <trkpt lat="46.18007" lon="2.95826">
        <ele>761.08</ele>
        <time>2018-07-14T08:30:22.000Z</time>
      </trkpt>
      <trkpt lat="46.18015" lon="2.95813">
        <ele>760.52</ele>
        <time>2018-07-14T08:30:23.000Z</time>
      </trkpt>
      <trkpt lat="46.18023" lon="2.95799">
        <ele>759.99</ele>
        <time>2018-07-14T08:30:24.000Z</time>
      </trkpt>
      <trkpt lat="46.18033" lon="2.95785">
        <ele>759.66</ele>
        <time>2018-07-14T08:30:25.000Z</time>
      </trkpt>
      <trkpt lat="46.18042" lon="2.95772">
        <ele>759.02</ele>
        <time>2018-07-14T08:30:26.000Z</time>
      </trkpt>
      <trkpt lat="46.18053" lon="2.95759">
        <ele>758.51</ele>
        <time>2018-07-14T08:30:27.000Z</time>
      </trkpt>
      <trkpt lat="46.18062" lon="2.95747">
        <ele>757.77</ele>
        <time>2018-07-14T08:30:28.000Z</time>
      </trkpt>
      <trkpt lat="46.18074" lon="2.95733">
        <ele>757.07</ele>
        <time>2018-07-14T08:30:29.000Z</time>
      </trkpt>
      <trkpt lat="46.18085" lon="2.9572">
        <ele>756.25</ele>
        <time>2018-07-14T08:30:30.000Z</time>
      </trkpt>
      <trkpt lat="46.18097" lon="2.95708">
        <ele>755.39</ele>
        <time>2018-07-14T08:30:31.000Z</time>
      </trkpt>
      <trkpt lat="46.1811" lon="2.95697">
        <ele>754.63</ele>
        <time>2018-07-14T08:30:32.000Z</time>
      </trkpt>
      <trkpt lat="46.18121" lon="2.95686">
        <ele>753.54</ele>
        <time>2018-07-14T08:30:33.000Z</time>
      </trkpt>
      <trkpt lat="46.18132" lon="2.95676">
        <ele>752.84</ele>
        <time>2018-07-14T08:30:34.000Z</time>
      </trkpt>
      <trkpt lat="46.18142" lon="2.95666">
        <ele>751.7</ele>
        <time>2018-07-14T08:30:35.000Z</time>
      </trkpt>
      <trkpt lat="46.18152" lon="2.95655">
        <ele>750.84</ele>
        <time>2018-07-14T08:30:36.000Z</time>
      </trkpt>
      <trkpt lat="46.18164" lon="2.95643">
        <ele>750.15</ele>
        <time>2018-07-14T08:30:37.000Z</time>
      </trkpt>
      <trkpt lat="46.18176" lon="2.95631">
        <ele>749.48</ele>
        <time>2018-07-14T08:30:38.000Z</time>
      </trkpt>
      <trkpt lat="46.18189" lon="2.95618">
        <ele>748.8</ele>
        <time>2018-07-14T08:30:39.000Z</time>
      </trkpt>
      <trkpt lat="46.18202" lon="2.95605">
        <ele>748.21</ele>
        <time>2018-07-14T08:30:40.000Z</time>
      </trkpt>
      <trkpt lat="46.18213" lon="2.95593">
        <ele>747.73</ele>
        <time>2018-07-14T08:30:41.000Z</time>
      </trkpt>
      <trkpt lat="46.18225" lon="2.95581">
        <ele>747.18</ele>
        <time>2018-07-14T08:30:42.000Z</time>
      </trkpt>
      <trkpt lat="46.18235" lon="2.95569">
        <ele>746.22</ele>
        <time>2018-07-14T08:30:43.000Z</time>
      </trkpt>
      <trkpt lat="46.18245" lon="2.95557">
        <ele>745.38</ele>
        <time>2018-07-14T08:30:44.000Z</time>
      </trkpt>
      <trkpt lat="46.18257" lon="2.95544">
        <ele>744.39</ele>
        <time>2018-07-14T08:30:45.000Z</time>
      </trkpt>
      <trkpt lat="46.18267" lon="2.95532">
        <ele>743.33</ele>
        <time>2018-07-14T08:30:46.000Z</time>
      </trkpt>
      <trkpt lat="46.18277" lon="2.9552">
        <ele>742.78</ele>
        <time>2018-07-14T08:30:47.000Z</time>
      </trkpt>
      <trkpt lat="46.18287" lon="2.95509">
        <ele>742.01</ele>
        <time>2018-07-14T08:30:48.000Z</time>
      </trkpt>
      <trkpt lat="46.18297" lon="2.95497">
        <ele>741.65</ele>
        <time>2018-07-14T08:30:49.000Z</time>
      </trkpt>
      <trkpt lat="46.18307" lon="2.95484">
        <ele>741.4</ele>
        <time>2018-07-14T08:30:50.000Z</time>
      </trkpt>
      <trkpt lat="46.18317" lon="2.95471">
        <ele>740.76</ele>
        <time>2018-07-14T08:30:51.000Z</time>
      </trkpt>
      <trkpt lat="46.18325" lon="2.95459">
        <ele>740.03</ele>
        <time>2018-07-14T08:30:52.000Z</time>
      </trkpt>
      <trkpt lat="46.1833" lon="2.95445">
        <ele>739.4</ele>
        <time>2018-07-14T08:30:53.000Z</time>
      </trkpt>
      <trkpt lat="46.18336" lon="2.95429">
        <ele>738.65</ele>
        <time>2018-07-14T08:30:54.000Z</time>
      </trkpt>
      <trkpt lat="46.1834" lon="2.95415">
        <ele>737.9</ele>
        <time>2018-07-14T08:30:55.000Z</time>
      </trkpt>
      <trkpt lat="46.18345" lon="2.95399">
        <ele>737.03</ele>
        <time>2018-07-14T08:30:56.000Z</time>
      </trkpt>
      <trkpt lat="46.18351" lon="2.95382">
        <ele>735.87</ele>
        <time>2018-07-14T08:30:57.000Z</time>
      </trkpt>
      <trkpt lat="46.18358" lon="2.95365">
        <ele>734.52</ele>
        <time>2018-07-14T08:30:58.000Z</time>
      </trkpt>
      <trkpt lat="46.18364" lon="2.95347">
        <ele>733.26</ele>
        <time>2018-07-14T08:30:59.000Z</time>
      </trkpt>
      <trkpt lat="46.18372" lon="2.95328">
        <ele>731.56</ele>
        <time>2018-07-14T08:31:00.000Z</time>
      </trkpt>
      <trkpt lat="46.18379" lon="2.95309">
        <ele>729.52</ele>
        <time>2018-07-14T08:31:01.000Z</time>
      </trkpt>
      <trkpt lat="46.18386" lon="2.95291">
        <ele>728.11</ele>
        <time>2018-07-14T08:31:02.000Z</time>
      </trkpt>
      <trkpt lat="46.18394" lon="2.95273">
        <ele>727.16</ele>
        <time>2018-07-14T08:31:03.000Z</time>
      </trkpt>
      <trkpt lat="46.18402" lon="2.95255">
        <ele>725.6</ele>
        <time>2018-07-14T08:31:04.000Z</time>
      </trkpt>
      <trkpt lat="46.18409" lon="2.95237">
        <ele>724.53</ele>
        <time>2018-07-14T08:31:05.000Z</time>
      </trkpt>
      <trkpt lat="46.18417" lon="2.95218">
        <ele>722.51</ele>
        <time>2018-07-14T08:31:06.000Z</time>
      </trkpt>
      <trkpt lat="46.18424" lon="2.952">
        <ele>721.01</ele>
        <time>2018-07-14T08:31:07.000Z</time>
      </trkpt>
      <trkpt lat="46.18432" lon="2.95181">
        <ele>719.35</ele>
        <time>2018-07-14T08:31:08.000Z</time>
      </trkpt>
      <trkpt lat="46.18438" lon="2.95163">
        <ele>718.09</ele>
        <time>2018-07-14T08:31:09.000Z</time>
      </trkpt>
      <trkpt lat="46.18444" lon="2.95144">
        <ele>717</ele>
        <time>2018-07-14T08:31:10.000Z</time>
      </trkpt>
      <trkpt lat="46.18448" lon="2.95125">
        <ele>715.96</ele>
        <time>2018-07-14T08:31:11.000Z</time>
      </trkpt>
      <trkpt lat="46.18451" lon="2.95105">
        <ele>714.97</ele>
        <time>2018-07-14T08:31:12.000Z</time>
      </trkpt>
      <trkpt lat="46.18452" lon="2.95085">
        <ele>713.86</ele>
        <time>2018-07-14T08:31:13.000Z</time>
      </trkpt>
      <trkpt lat="46.18453" lon="2.95064">
        <ele>712.96</ele>
        <time>2018-07-14T08:31:14.000Z</time>
      </trkpt>
      <trkpt lat="46.18454" lon="2.95044">
        <ele>712.46</ele>
        <time>2018-07-14T08:31:15.000Z</time>
      </trkpt>
      <trkpt lat="46.18455" lon="2.95024">
        <ele>711.62</ele>
        <time>2018-07-14T08:31:16.000Z</time>
      </trkpt>
      <trkpt lat="46.18456" lon="2.95004">
        <ele>710.81</ele>
        <time>2018-07-14T08:31:17.000Z</time>
      </trkpt>
      <trkpt lat="46.18457" lon="2.94984">
        <ele>710.05</ele>
        <time>2018-07-14T08:31:18.000Z</time>
      </trkpt>
      <trkpt lat="46.18457" lon="2.94965">
        <ele>709.48</ele>
        <time>2018-07-14T08:31:19.000Z</time>
      </trkpt>
      <trkpt lat="46.18457" lon="2.94945">
        <ele>708.96</ele>
        <time>2018-07-14T08:31:20.000Z</time>
      </trkpt>
      <trkpt lat="46.18458" lon="2.94925">
        <ele>708.4</ele>
        <time>2018-07-14T08:31:21.000Z</time>
      </trkpt>
      <trkpt lat="46.18458" lon="2.94905">
        <ele>707.86</ele>
        <time>2018-07-14T08:31:22.000Z</time>
      </trkpt>
      <trkpt lat="46.18458" lon="2.94885">
        <ele>707.3</ele>
        <time>2018-07-14T08:31:23.000Z</time>
      </trkpt>
      <trkpt lat="46.18459" lon="2.94866">
        <ele>706.7</ele>
        <time>2018-07-14T08:31:24.000Z</time>
      </trkpt>
      <trkpt lat="46.1846" lon="2.94845">
        <ele>706.05</ele>
        <time>2018-07-14T08:31:25.000Z</time>
      </trkpt>
      <trkpt lat="46.18461" lon="2.94825">
        <ele>705.43</ele>
        <time>2018-07-14T08:31:26.000Z</time>
      </trkpt>
      <trkpt lat="46.18463" lon="2.94803">
        <ele>703.92</ele>
        <time>2018-07-14T08:31:27.000Z</time>
      </trkpt>
      <trkpt lat="46.18465" lon="2.94782">
        <ele>702.66</ele>
        <time>2018-07-14T08:31:28.000Z</time>
      </trkpt>
      <trkpt lat="46.18467" lon="2.94761">
        <ele>702.04</ele>
        <time>2018-07-14T08:31:29.000Z</time>
      </trkpt>
      <trkpt lat="46.1847" lon="2.94741">
        <ele>700.64</ele>
        <time>2018-07-14T08:31:30.000Z</time>
      </trkpt>
      <trkpt lat="46.18472" lon="2.9472">
        <ele>699.19</ele>
        <time>2018-07-14T08:31:31.000Z</time>
      </trkpt>
      <trkpt lat="46.18473" lon="2.94699">
        <ele>697.66</ele>
        <time>2018-07-14T08:31:32.000Z</time>
      </trkpt>
      <trkpt lat="46.18475" lon="2.94679">
        <ele>696.2</ele>
        <time>2018-07-14T08:31:33.000Z</time>
      </trkpt>
      <trkpt lat="46.18476" lon="2.94659">
        <ele>695.03</ele>
        <time>2018-07-14T08:31:34.000Z</time>
      </trkpt>
      <trkpt lat="46.18476" lon="2.94639">
        <ele>694.16</ele>
        <time>2018-07-14T08:31:35.000Z</time>
      </trkpt>
      <trkpt lat="46.18477" lon="2.94618">
        <ele>693.17</ele>
        <time>2018-07-14T08:31:36.000Z</time>
      </trkpt>
      <trkpt lat="46.18477" lon="2.94598">
        <ele>691.66</ele>
        <time>2018-07-14T08:31:37.000Z</time>
      </trkpt>
      <trkpt lat="46.18478" lon="2.94578">
        <ele>689.57</ele>
        <time>2018-07-14T08:31:38.000Z</time>
      </trkpt>
      <trkpt lat="46.18481" lon="2.94558">
        <ele>686.46</ele>
        <time>2018-07-14T08:31:39.000Z</time>
      </trkpt>
      <trkpt lat="46.18482" lon="2.94539">
        <ele>684.51</ele>
        <time>2018-07-14T08:31:40.000Z</time>
      </trkpt>
      <trkpt lat="46.18483" lon="2.94521">
        <ele>682.18</ele>
        <time>2018-07-14T08:31:41.000Z</time>
      </trkpt>
      <trkpt lat="46.18483" lon="2.94503">
        <ele>680.57</ele>
        <time>2018-07-14T08:31:42.000Z</time>
      </trkpt>
      <trkpt lat="46.1848" lon="2.94486">
        <ele>678.87</ele>
        <time>2018-07-14T08:31:43.000Z</time>
      </trkpt>
      <trkpt lat="46.18476" lon="2.9447">
        <ele>677.72</ele>
        <time>2018-07-14T08:31:44.000Z</time>
      </trkpt>
      <trkpt lat="46.1847" lon="2.94456">
        <ele>676.82</ele>
        <time>2018-07-14T08:31:45.000Z</time>
      </trkpt>
      <trkpt lat="46.18462" lon="2.94443">
        <ele>675.62</ele>
        <time>2018-07-14T08:31:46.000Z</time>
      </trkpt>
      <trkpt lat="46.18454" lon="2.94431">
        <ele>674.79</ele>
        <time>2018-07-14T08:31:47.000Z</time>
      </trkpt>
      <trkpt lat="46.18444" lon="2.9442">
        <ele>674.02</ele>
        <time>2018-07-14T08:31:48.000Z</time>
      </trkpt>
      <trkpt lat="46.18435" lon="2.94409">
        <ele>673.33</ele>
        <time>2018-07-14T08:31:49.000Z</time>
      </trkpt>
      <trkpt lat="46.18427" lon="2.94398">
        <ele>672.54</ele>
        <time>2018-07-14T08:31:50.000Z</time>
      </trkpt>
      <trkpt lat="46.18417" lon="2.94388">
        <ele>671.75</ele>
        <time>2018-07-14T08:31:51.000Z</time>
      </trkpt>
      <trkpt lat="46.18409" lon="2.94377">
        <ele>671.11</ele>
        <time>2018-07-14T08:31:52.000Z</time>
      </trkpt>
      <trkpt lat="46.18401" lon="2.94364">
        <ele>670.41</ele>
        <time>2018-07-14T08:31:53.000Z</time>
      </trkpt>
      <trkpt lat="46.18395" lon="2.94352">
        <ele>669.64</ele>
        <time>2018-07-14T08:31:54.000Z</time>
      </trkpt>
      <trkpt lat="46.18389" lon="2.9434">
        <ele>668.61</ele>
        <time>2018-07-14T08:31:55.000Z</time>
      </trkpt>
      <trkpt lat="46.18386" lon="2.94327">
        <ele>667.55</ele>
        <time>2018-07-14T08:31:56.000Z</time>
      </trkpt>
      <trkpt lat="46.18383" lon="2.94313">
        <ele>666.58</ele>
        <time>2018-07-14T08:31:57.000Z</time>
      </trkpt>
      <trkpt lat="46.18383" lon="2.94299">
        <ele>665.44</ele>
        <time>2018-07-14T08:31:58.000Z</time>
      </trkpt>
      <trkpt lat="46.18385" lon="2.94284">
        <ele>664.44</ele>
        <time>2018-07-14T08:31:59.000Z</time>
      </trkpt>
      <trkpt lat="46.1839" lon="2.94268">
        <ele>663.69</ele>
        <time>2018-07-14T08:32:00.000Z</time>
      </trkpt>
      <trkpt lat="46.18396" lon="2.94251">
        <ele>663.24</ele>
        <time>2018-07-14T08:32:01.000Z</time>
      </trkpt>
      <trkpt lat="46.18402" lon="2.94234">
        <ele>662.63</ele>
        <time>2018-07-14T08:32:02.000Z</time>
      </trkpt>
      <trkpt lat="46.18406" lon="2.94217">
        <ele>661.88</ele>
        <time>2018-07-14T08:32:03.000Z</time>
      </trkpt>
      <trkpt lat="46.1841" lon="2.94201">
        <ele>660.99</ele>
        <time>2018-07-14T08:32:04.000Z</time>
      </trkpt>
      <trkpt lat="46.18413" lon="2.94184">
        <ele>660.06</ele>
        <time>2018-07-14T08:32:05.000Z</time>
      </trkpt>
      <trkpt lat="46.18416" lon="2.94167">
        <ele>659.05</ele>
        <time>2018-07-14T08:32:06.000Z</time>
      </trkpt>
      <trkpt lat="46.18418" lon="2.94151">
        <ele>658.32</ele>
        <time>2018-07-14T08:32:07.000Z</time>
      </trkpt>
      <trkpt lat="46.18421" lon="2.94134">
        <ele>657.48</ele>
        <time>2018-07-14T08:32:08.000Z</time>
      </trkpt>
      <trkpt lat="46.18424" lon="2.94118">
        <ele>656.67</ele>
        <time>2018-07-14T08:32:09.000Z</time>
      </trkpt>
      <trkpt lat="46.18426" lon="2.94102">
        <ele>655.95</ele>
        <time>2018-07-14T08:32:10.000Z</time>
      </trkpt>
      <trkpt lat="46.18428" lon="2.94086">
        <ele>655.23</ele>
        <time>2018-07-14T08:32:11.000Z</time>
      </trkpt>
      <trkpt lat="46.1843" lon="2.9407">
        <ele>654.62</ele>
        <time>2018-07-14T08:32:12.000Z</time>
      </trkpt>
      <trkpt lat="46.18432" lon="2.94054">
        <ele>654.1</ele>
        <time>2018-07-14T08:32:13.000Z</time>
      </trkpt>
      <trkpt lat="46.18435" lon="2.94038">
        <ele>653.63</ele>
        <time>2018-07-14T08:32:14.000Z</time>
      </trkpt>
      <trkpt lat="46.18437" lon="2.94023">
        <ele>653.31</ele>
        <time>2018-07-14T08:32:15.000Z</time>
      </trkpt>
      <trkpt lat="46.1844" lon="2.94008">
        <ele>652.81</ele>
        <time>2018-07-14T08:32:16.000Z</time>
      </trkpt>
      <trkpt lat="46.18442" lon="2.93995">
        <ele>652.13</ele>
        <time>2018-07-14T08:32:17.000Z</time>
      </trkpt>
      <trkpt lat="46.18444" lon="2.93982">
        <ele>651.47</ele>
        <time>2018-07-14T08:32:18.000Z</time>
      </trkpt>
      <trkpt lat="46.18445" lon="2.93967">
        <ele>650.18</ele>
        <time>2018-07-14T08:32:19.000Z</time>
      </trkpt>
      <trkpt lat="46.18444" lon="2.93953">
        <ele>649.44</ele>
        <time>2018-07-14T08:32:20.000Z</time>
      </trkpt>
      <trkpt lat="46.18443" lon="2.93939">
        <ele>649.06</ele>
        <time>2018-07-14T08:32:21.000Z</time>
      </trkpt>
      <trkpt lat="46.1844" lon="2.93926">
        <ele>648.64</ele>
        <time>2018-07-14T08:32:22.000Z</time>
      </trkpt>
      <trkpt lat="46.18435" lon="2.93914">
        <ele>648.53</ele>
        <time>2018-07-14T08:32:23.000Z</time>
      </trkpt>
      <trkpt lat="46.18428" lon="2.93903">
        <ele>648.58</ele>
        <time>2018-07-14T08:32:24.000Z</time>
      </trkpt>
      <trkpt lat="46.18421" lon="2.93894">
        <ele>649.38</ele>
        <time>2018-07-14T08:32:25.000Z</time>
      </trkpt>
      <trkpt lat="46.18414" lon="2.93885">
        <ele>649.43</ele>
        <time>2018-07-14T08:32:26.000Z</time>
      </trkpt>
      <trkpt lat="46.18407" lon="2.93875">
        <ele>649.31</ele>
        <time>2018-07-14T08:32:27.000Z</time>
      </trkpt>
      <trkpt lat="46.184" lon="2.93865">
        <ele>648.84</ele>
        <time>2018-07-14T08:32:28.000Z</time>
      </trkpt>
      <trkpt lat="46.18393" lon="2.93855">
        <ele>648.26</ele>
        <time>2018-07-14T08:32:29.000Z</time>
      </trkpt>
      <trkpt lat="46.18386" lon="2.93844">
        <ele>647.39</ele>
        <time>2018-07-14T08:32:30.000Z</time>
      </trkpt>
      <trkpt lat="46.1838" lon="2.93833">
        <ele>646.36</ele>
        <time>2018-07-14T08:32:31.000Z</time>
      </trkpt>
      <trkpt lat="46.18374" lon="2.93823">
        <ele>645.6</ele>
        <time>2018-07-14T08:32:32.000Z</time>
      </trkpt>
      <trkpt lat="46.18367" lon="2.93812">
        <ele>644.73</ele>
        <time>2018-07-14T08:32:33.000Z</time>
      </trkpt>
      <trkpt lat="46.1836" lon="2.93801">
        <ele>643.84</ele>
        <time>2018-07-14T08:32:34.000Z</time>
      </trkpt>
      <trkpt lat="46.18354" lon="2.93789">
        <ele>643.08</ele>
        <time>2018-07-14T08:32:35.000Z</time>
      </trkpt>
      <trkpt lat="46.18347" lon="2.93778">
        <ele>642.24</ele>
        <time>2018-07-14T08:32:36.000Z</time>
      </trkpt>
      <trkpt lat="46.18341" lon="2.93766">
        <ele>641.45</ele>
        <time>2018-07-14T08:32:37.000Z</time>
      </trkpt>
      <trkpt lat="46.18334" lon="2.93755">
        <ele>640.73</ele>
        <time>2018-07-14T08:32:38.000Z</time>
      </trkpt>
      <trkpt lat="46.18327" lon="2.93743">
        <ele>640.06</ele>
        <time>2018-07-14T08:32:39.000Z</time>
      </trkpt>
      <trkpt lat="46.1832" lon="2.93732">
        <ele>639.39</ele>
        <time>2018-07-14T08:32:40.000Z</time>
      </trkpt>
      <trkpt lat="46.18313" lon="2.9372">
        <ele>638.66</ele>
        <time>2018-07-14T08:32:41.000Z</time>
      </trkpt>
      <trkpt lat="46.18306" lon="2.93708">
        <ele>637.96</ele>
        <time>2018-07-14T08:32:42.000Z</time>
      </trkpt>
      <trkpt lat="46.18299" lon="2.93696">
        <ele>637.27</ele>
        <time>2018-07-14T08:32:43.000Z</time>
      </trkpt>
      <trkpt lat="46.18292" lon="2.93684">
        <ele>636.69</ele>
        <time>2018-07-14T08:32:44.000Z</time>
      </trkpt>
      <trkpt lat="46.18285" lon="2.93672">
        <ele>636.51</ele>
        <time>2018-07-14T08:32:45.000Z</time>
      </trkpt>
      <trkpt lat="46.18279" lon="2.93659">
        <ele>636.27</ele>
        <time>2018-07-14T08:32:46.000Z</time>
      </trkpt>
      <trkpt lat="46.18272" lon="2.93647">
        <ele>636.11</ele>
        <time>2018-07-14T08:32:47.000Z</time>
      </trkpt>
      <trkpt lat="46.18265" lon="2.93634">
        <ele>635.84</ele>
        <time>2018-07-14T08:32:48.000Z</time>
      </trkpt>
      <trkpt lat="46.18258" lon="2.93621">
        <ele>635.88</ele>
        <time>2018-07-14T08:32:49.000Z</time>
      </trkpt>
      <trkpt lat="46.18251" lon="2.93608">
        <ele>635.39</ele>
        <time>2018-07-14T08:32:50.000Z</time>
      </trkpt>
      <trkpt lat="46.18244" lon="2.93596">
        <ele>634.95</ele>
        <time>2018-07-14T08:32:51.000Z</time>
      </trkpt>
      <trkpt lat="46.18237" lon="2.93583">
        <ele>634.6</ele>
        <time>2018-07-14T08:32:52.000Z</time>
      </trkpt>
      <trkpt lat="46.1823" lon="2.9357">
        <ele>634.42</ele>
        <time>2018-07-14T08:32:53.000Z</time>
      </trkpt>
      <trkpt lat="46.18222" lon="2.93558">
        <ele>633.91</ele>
        <time>2018-07-14T08:32:54.000Z</time>
      </trkpt>
      <trkpt lat="46.18215" lon="2.93545">
        <ele>633.37</ele>
        <time>2018-07-14T08:32:55.000Z</time>
      </trkpt>
      <trkpt lat="46.18208" lon="2.93532">
        <ele>633.11</ele>
        <time>2018-07-14T08:32:56.000Z</time>
      </trkpt>
      <trkpt lat="46.18201" lon="2.93519">
        <ele>633.05</ele>
        <time>2018-07-14T08:32:57.000Z</time>
      </trkpt>
      <trkpt lat="46.18197" lon="2.93504">
        <ele>632.7</ele>
        <time>2018-07-14T08:32:58.000Z</time>
      </trkpt>
      <trkpt lat="46.18195" lon="2.93489">
        <ele>632.3</ele>
        <time>2018-07-14T08:32:59.000Z</time>
      </trkpt>
      <trkpt lat="46.18197" lon="2.93473">
        <ele>632.01</ele>
        <time>2018-07-14T08:33:00.000Z</time>
      </trkpt>
      <trkpt lat="46.182" lon="2.93456">
        <ele>631.49</ele>
        <time>2018-07-14T08:33:01.000Z</time>
      </trkpt>
      <trkpt lat="46.18204" lon="2.93441">
        <ele>630.84</ele>
        <time>2018-07-14T08:33:02.000Z</time>
      </trkpt>
      <trkpt lat="46.18208" lon="2.93426">
        <ele>630.23</ele>
        <time>2018-07-14T08:33:03.000Z</time>
      </trkpt>
      <trkpt lat="46.18212" lon="2.93412">
        <ele>629.71</ele>
        <time>2018-07-14T08:33:04.000Z</time>
      </trkpt>
      <trkpt lat="46.18215" lon="2.93397">
        <ele>629.14</ele>
        <time>2018-07-14T08:33:05.000Z</time>
      </trkpt>
      <trkpt lat="46.18217" lon="2.93381">
        <ele>628.5</ele>
        <time>2018-07-14T08:33:06.000Z</time>
      </trkpt>
      <trkpt lat="46.18218" lon="2.93367">
        <ele>627.84</ele>
        <time>2018-07-14T08:33:07.000Z</time>
      </trkpt>
      <trkpt lat="46.18219" lon="2.93352">
        <ele>627.18</ele>
        <time>2018-07-14T08:33:08.000Z</time>
      </trkpt>
      <trkpt lat="46.18219" lon="2.93337">
        <ele>626.55</ele>
        <time>2018-07-14T08:33:09.000Z</time>
      </trkpt>
      <trkpt lat="46.18219" lon="2.93324">
        <ele>625.93</ele>
        <time>2018-07-14T08:33:10.000Z</time>
      </trkpt>
      <trkpt lat="46.18218" lon="2.9331">
        <ele>625.57</ele>
        <time>2018-07-14T08:33:11.000Z</time>
      </trkpt>
      <trkpt lat="46.18218" lon="2.93296">
        <ele>625.39</ele>
        <time>2018-07-14T08:33:12.000Z</time>
      </trkpt>
      <trkpt lat="46.18219" lon="2.93282">
        <ele>625.2</ele>
        <time>2018-07-14T08:33:13.000Z</time>
      </trkpt>
      <trkpt lat="46.1822" lon="2.93269">
        <ele>625.01</ele>
        <time>2018-07-14T08:33:14.000Z</time>
      </trkpt>
      <trkpt lat="46.18228" lon="2.93247">
        <ele>624.84</ele>
        <time>2018-07-14T08:33:16.000Z</time>
      </trkpt>
      <trkpt lat="46.18237" lon="2.93241">
        <ele>624.48</ele>
        <time>2018-07-14T08:33:17.000Z</time>
      </trkpt>
      <trkpt lat="46.18247" lon="2.93237">
        <ele>624.29</ele>
        <time>2018-07-14T08:33:18.000Z</time>
      </trkpt>
      <trkpt lat="46.18266" lon="2.93234">
        <ele>624</ele>
        <time>2018-07-14T08:33:20.000Z</time>
      </trkpt>
      <trkpt lat="46.18276" lon="2.93234">
        <ele>623.83</ele>
        <time>2018-07-14T08:33:21.000Z</time>
      </trkpt>
      <trkpt lat="46.18293" lon="2.93234">
        <ele>622.99</ele>
        <time>2018-07-14T08:33:23.000Z</time>
      </trkpt>
      <trkpt lat="46.1831" lon="2.93231">
        <ele>621.46</ele>
        <time>2018-07-14T08:33:25.000Z</time>
      </trkpt>
      <trkpt lat="46.18326" lon="2.93226">
        <ele>620.41</ele>
        <time>2018-07-14T08:33:27.000Z</time>
      </trkpt>
      <trkpt lat="46.18342" lon="2.93217">
        <ele>619.45</ele>
        <time>2018-07-14T08:33:29.000Z</time>
      </trkpt>
      <trkpt lat="46.18358" lon="2.93208">
        <ele>618.54</ele>
        <time>2018-07-14T08:33:31.000Z</time>
      </trkpt>
      <trkpt lat="46.18366" lon="2.93204">
        <ele>618.21</ele>
        <time>2018-07-14T08:33:32.000Z</time>
      </trkpt>
      <trkpt lat="46.18383" lon="2.93193">
        <ele>617.5</ele>
        <time>2018-07-14T08:33:34.000Z</time>
      </trkpt>
      <trkpt lat="46.18398" lon="2.93183">
        <ele>616.84</ele>
        <time>2018-07-14T08:33:36.000Z</time>
      </trkpt>
      <trkpt lat="46.18406" lon="2.93177">
        <ele>616.56</ele>
        <time>2018-07-14T08:33:37.000Z</time>
      </trkpt>
      <trkpt lat="46.18421" lon="2.93165">
        <ele>615.93</ele>
        <time>2018-07-14T08:33:39.000Z</time>
      </trkpt>
      <trkpt lat="46.18434" lon="2.9315">
        <ele>615.22</ele>
        <time>2018-07-14T08:33:41.000Z</time>
      </trkpt>
      <trkpt lat="46.18444" lon="2.9313">
        <ele>614.5</ele>
        <time>2018-07-14T08:33:43.000Z</time>
      </trkpt>
      <trkpt lat="46.18453" lon="2.93105">
        <ele>613.65</ele>
        <time>2018-07-14T08:33:44.999Z</time>
      </trkpt>
      <trkpt lat="46.18456" lon="2.93093">
        <ele>613.33</ele>
        <time>2018-07-14T08:33:46.000Z</time>
      </trkpt>
      <trkpt lat="46.18461" lon="2.93069">
        <ele>613.68</ele>
        <time>2018-07-14T08:33:48.000Z</time>
      </trkpt>
      <trkpt lat="46.18466" lon="2.93046">
        <ele>613.85</ele>
        <time>2018-07-14T08:33:50.000Z</time>
      </trkpt>
      <trkpt lat="46.18473" lon="2.93023">
        <ele>613.58</ele>
        <time>2018-07-14T08:33:52.000Z</time>
      </trkpt>
      <trkpt lat="46.18483" lon="2.93002">
        <ele>612.91</ele>
        <time>2018-07-14T08:33:54.000Z</time>
      </trkpt>
      <trkpt lat="46.18497" lon="2.92986">
        <ele>612.29</ele>
        <time>2018-07-14T08:33:56.000Z</time>
      </trkpt>
      <trkpt lat="46.18512" lon="2.92973">
        <ele>611.58</ele>
        <time>2018-07-14T08:33:58.000Z</time>
      </trkpt>
      <trkpt lat="46.1852" lon="2.92967">
        <ele>611.27</ele>
        <time>2018-07-14T08:33:59.000Z</time>
      </trkpt>
      <trkpt lat="46.18537" lon="2.92957">
        <ele>610.99</ele>
        <time>2018-07-14T08:34:01.000Z</time>
      </trkpt>
      <trkpt lat="46.18546" lon="2.9295">
        <ele>610.86</ele>
        <time>2018-07-14T08:34:02.000Z</time>
      </trkpt>
      <trkpt lat="46.18555" lon="2.92945">
        <ele>611.23</ele>
        <time>2018-07-14T08:34:03.000Z</time>
      </trkpt>
      <trkpt lat="46.18565" lon="2.9294">
        <ele>611.41</ele>
        <time>2018-07-14T08:34:04.000Z</time>
      </trkpt>
      <trkpt lat="46.18584" lon="2.92928">
        <ele>612.58</ele>
        <time>2018-07-14T08:34:06.000Z</time>
      </trkpt>
      <trkpt lat="46.18593" lon="2.92921">
        <ele>612.97</ele>
        <time>2018-07-14T08:34:07.000Z</time>
      </trkpt>
      <trkpt lat="46.18611" lon="2.92906">
        <ele>614.1</ele>
        <time>2018-07-14T08:34:09.000Z</time>
      </trkpt>
      <trkpt lat="46.1862" lon="2.92899">
        <ele>614.5</ele>
        <time>2018-07-14T08:34:10.000Z</time>
      </trkpt>
      <trkpt lat="46.18638" lon="2.92885">
        <ele>615.37</ele>
        <time>2018-07-14T08:34:12.000Z</time>
      </trkpt>
      <trkpt lat="46.18647" lon="2.92877">
        <ele>615.39</ele>
        <time>2018-07-14T08:34:13.000Z</time>
      </trkpt>
      <trkpt lat="46.18656" lon="2.92869">
        <ele>615.29</ele>
        <time>2018-07-14T08:34:14.000Z</time>
      </trkpt>
      <trkpt lat="46.18665" lon="2.92862">
        <ele>615.16</ele>
        <time>2018-07-14T08:34:15.000Z</time>
      </trkpt>
      <trkpt lat="46.18684" lon="2.92846">
        <ele>614.64</ele>
        <time>2018-07-14T08:34:17.000Z</time>
      </trkpt>
      <trkpt lat="46.18694" lon="2.92839">
        <ele>614.1</ele>
        <time>2018-07-14T08:34:18.000Z</time>
      </trkpt>
      <trkpt lat="46.18714" lon="2.92823">
        <ele>612.92</ele>
        <time>2018-07-14T08:34:20.000Z</time>
      </trkpt>
      <trkpt lat="46.18724" lon="2.92815">
        <ele>612.48</ele>
        <time>2018-07-14T08:34:21.000Z</time>
      </trkpt>
      <trkpt lat="46.18734" lon="2.92807">
        <ele>611.9</ele>
        <time>2018-07-14T08:34:22.000Z</time>
      </trkpt>
      <trkpt lat="46.18745" lon="2.92799">
        <ele>611.4</ele>
        <time>2018-07-14T08:34:23.000Z</time>
      </trkpt>
      <trkpt lat="46.18755" lon="2.92792">
        <ele>610.95</ele>
        <time>2018-07-14T08:34:24.000Z</time>
      </trkpt>
      <trkpt lat="46.18765" lon="2.92783">
        <ele>610.6</ele>
        <time>2018-07-14T08:34:25.000Z</time>
      </trkpt>
      <trkpt lat="46.18775" lon="2.92775">
        <ele>610.09</ele>
        <time>2018-07-14T08:34:26.000Z</time>
      </trkpt>
      <trkpt lat="46.18785" lon="2.92767">
        <ele>609.54</ele>
        <time>2018-07-14T08:34:27.000Z</time>
      </trkpt>
      <trkpt lat="46.18795" lon="2.92759">
        <ele>609.05</ele>
        <time>2018-07-14T08:34:28.000Z</time>
      </trkpt>
      <trkpt lat="46.18816" lon="2.92743">
        <ele>607.8</ele>
        <time>2018-07-14T08:34:30.000Z</time>
      </trkpt>
      <trkpt lat="46.18826" lon="2.92736">
        <ele>606.92</ele>
        <time>2018-07-14T08:34:31.000Z</time>
      </trkpt>
      <trkpt lat="46.18847" lon="2.92721">
        <ele>605.25</ele>
        <time>2018-07-14T08:34:33.000Z</time>
      </trkpt>
      <trkpt lat="46.18866" lon="2.92706">
        <ele>603.48</ele>
        <time>2018-07-14T08:34:35.000Z</time>
      </trkpt>
      <trkpt lat="46.18885" lon="2.92692">
        <ele>602.52</ele>
        <time>2018-07-14T08:34:37.000Z</time>
      </trkpt>
      <trkpt lat="46.18895" lon="2.92684">
        <ele>602.09</ele>
        <time>2018-07-14T08:34:38.000Z</time>
      </trkpt>
      <trkpt lat="46.18905" lon="2.92677">
        <ele>601.68</ele>
        <time>2018-07-14T08:34:39.000Z</time>
      </trkpt>
      <trkpt lat="46.18924" lon="2.92664">
        <ele>600.93</ele>
        <time>2018-07-14T08:34:41.000Z</time>
      </trkpt>
      <trkpt lat="46.18942" lon="2.9265">
        <ele>599.96</ele>
        <time>2018-07-14T08:34:43.000Z</time>
      </trkpt>
      <trkpt lat="46.18951" lon="2.92643">
        <ele>599.44</ele>
        <time>2018-07-14T08:34:44.000Z</time>
      </trkpt>
      <trkpt lat="46.1896" lon="2.92636">
        <ele>598.97</ele>
        <time>2018-07-14T08:34:45.000Z</time>
      </trkpt>
      <trkpt lat="46.18969" lon="2.92628">
        <ele>598.52</ele>
        <time>2018-07-14T08:34:46.000Z</time>
      </trkpt>
      <trkpt lat="46.18987" lon="2.92614">
        <ele>597.67</ele>
        <time>2018-07-14T08:34:48.000Z</time>
      </trkpt>
      <trkpt lat="46.19005" lon="2.92599">
        <ele>596.77</ele>
        <time>2018-07-14T08:34:50.000Z</time>
      </trkpt>
      <trkpt lat="46.19024" lon="2.92584">
        <ele>595.78</ele>
        <time>2018-07-14T08:34:52.000Z</time>
      </trkpt>
      <trkpt lat="46.19033" lon="2.92576">
        <ele>595.43</ele>
        <time>2018-07-14T08:34:53.000Z</time>
      </trkpt>
      <trkpt lat="46.19043" lon="2.92569">
        <ele>594.87</ele>
        <time>2018-07-14T08:34:54.000Z</time>
      </trkpt>
      <trkpt lat="46.19062" lon="2.92555">
        <ele>593.89</ele>
        <time>2018-07-14T08:34:56.000Z</time>
      </trkpt>
      <trkpt lat="46.19072" lon="2.92548">
        <ele>593.46</ele>
        <time>2018-07-14T08:34:57.000Z</time>
      </trkpt>
      <trkpt lat="46.19081" lon="2.92541">
        <ele>592.98</ele>
        <time>2018-07-14T08:34:58.000Z</time>
      </trkpt>
      <trkpt lat="46.191" lon="2.92527">
        <ele>591.8</ele>
        <time>2018-07-14T08:35:00.000Z</time>
      </trkpt>
      <trkpt lat="46.19119" lon="2.92512">
        <ele>590.96</ele>
        <time>2018-07-14T08:35:02.000Z</time>
      </trkpt>
      <trkpt lat="46.19136" lon="2.92497">
        <ele>589.83</ele>
        <time>2018-07-14T08:35:04.000Z</time>
      </trkpt>
      <trkpt lat="46.19145" lon="2.92489">
        <ele>589.29</ele>
        <time>2018-07-14T08:35:05.000Z</time>
      </trkpt>
      <trkpt lat="46.19154" lon="2.92482">
        <ele>588.69</ele>
        <time>2018-07-14T08:35:06.000Z</time>
      </trkpt>
      <trkpt lat="46.19171" lon="2.92468">
        <ele>587.53</ele>
        <time>2018-07-14T08:35:08.000Z</time>
      </trkpt>
      <trkpt lat="46.1918" lon="2.92461">
        <ele>587.04</ele>
        <time>2018-07-14T08:35:09.000Z</time>
      </trkpt>
      <trkpt lat="46.19189" lon="2.92454">
        <ele>586.35</ele>
        <time>2018-07-14T08:35:10.000Z</time>
      </trkpt>
      <trkpt lat="46.19198" lon="2.92447">
        <ele>585.89</ele>
        <time>2018-07-14T08:35:11.000Z</time>
      </trkpt>
      <trkpt lat="46.19207" lon="2.9244">
        <ele>585.36</ele>
        <time>2018-07-14T08:35:12.000Z</time>
      </trkpt>
      <trkpt lat="46.19215" lon="2.92434">
        <ele>584.87</ele>
        <time>2018-07-14T08:35:13.000Z</time>
      </trkpt>
      <trkpt lat="46.19224" lon="2.92427">
        <ele>584.3</ele>
        <time>2018-07-14T08:35:14.000Z</time>
      </trkpt>
      <trkpt lat="46.19233" lon="2.9242">
        <ele>583.9</ele>
        <time>2018-07-14T08:35:15.000Z</time>
      </trkpt>
      <trkpt lat="46.19241" lon="2.92414">
        <ele>583.5</ele>
        <time>2018-07-14T08:35:16.000Z</time>
      </trkpt>
      <trkpt lat="46.1925" lon="2.92407">
        <ele>583.22</ele>
        <time>2018-07-14T08:35:17.000Z</time>
      </trkpt>
      <trkpt lat="46.19268" lon="2.92394">
        <ele>582.84</ele>
        <time>2018-07-14T08:35:19.000Z</time>
      </trkpt>
      <trkpt lat="46.19285" lon="2.92382">
        <ele>582.57</ele>
        <time>2018-07-14T08:35:21.000Z</time>
      </trkpt>
      <trkpt lat="46.19302" lon="2.92368">
        <ele>581.95</ele>
        <time>2018-07-14T08:35:23.000Z</time>
      </trkpt>
      <trkpt lat="46.19311" lon="2.92361">
        <ele>581.53</ele>
        <time>2018-07-14T08:35:24.000Z</time>
      </trkpt>
      <trkpt lat="46.1932" lon="2.92355">
        <ele>581.21</ele>
        <time>2018-07-14T08:35:25.000Z</time>
      </trkpt>
      <trkpt lat="46.19328" lon="2.92348">
        <ele>580.93</ele>
        <time>2018-07-14T08:35:26.000Z</time>
      </trkpt>
      <trkpt lat="46.19337" lon="2.92341">
        <ele>580.66</ele>
        <time>2018-07-14T08:35:27.000Z</time>
      </trkpt>
      <trkpt lat="46.19346" lon="2.92334">
        <ele>580.35</ele>
        <time>2018-07-14T08:35:28.000Z</time>
      </trkpt>
      <trkpt lat="46.19354" lon="2.92327">
        <ele>580.04</ele>
        <time>2018-07-14T08:35:29.000Z</time>
      </trkpt>
      <trkpt lat="46.19362" lon="2.9232">
        <ele>579.89</ele>
        <time>2018-07-14T08:35:30.000Z</time>
      </trkpt>
      <trkpt lat="46.19371" lon="2.92313">
        <ele>579.89</ele>
        <time>2018-07-14T08:35:31.000Z</time>
      </trkpt>
      <trkpt lat="46.1938" lon="2.92307">
        <ele>579.96</ele>
        <time>2018-07-14T08:35:32.000Z</time>
      </trkpt>
      <trkpt lat="46.19389" lon="2.923">
        <ele>579.99</ele>
        <time>2018-07-14T08:35:33.000Z</time>
      </trkpt>
      <trkpt lat="46.19397" lon="2.92294">
        <ele>580.08</ele>
        <time>2018-07-14T08:35:34.000Z</time>
      </trkpt>
      <trkpt lat="46.19406" lon="2.92287">
        <ele>580.11</ele>
        <time>2018-07-14T08:35:35.000Z</time>
      </trkpt>
      <trkpt lat="46.19424" lon="2.92273">
        <ele>579.88</ele>
        <time>2018-07-14T08:35:37.000Z</time>
      </trkpt>
      <trkpt lat="46.19441" lon="2.92259">
        <ele>579.39</ele>
        <time>2018-07-14T08:35:39.000Z</time>
      </trkpt>
      <trkpt lat="46.19449" lon="2.92253">
        <ele>579.09</ele>
        <time>2018-07-14T08:35:40.000Z</time>
      </trkpt>
      <trkpt lat="46.19458" lon="2.92247">
        <ele>578.88</ele>
        <time>2018-07-14T08:35:41.000Z</time>
      </trkpt>
      <trkpt lat="46.19466" lon="2.92241">
        <ele>578.75</ele>
        <time>2018-07-14T08:35:42.000Z</time>
      </trkpt>
      <trkpt lat="46.19474" lon="2.92234">
        <ele>578.61</ele>
        <time>2018-07-14T08:35:43.000Z</time>
      </trkpt>
      <trkpt lat="46.19482" lon="2.92227">
        <ele>578.52</ele>
        <time>2018-07-14T08:35:44.000Z</time>
      </trkpt>
      <trkpt lat="46.19491" lon="2.92221">
        <ele>578.42</ele>
        <time>2018-07-14T08:35:45.000Z</time>
      </trkpt>
      <trkpt lat="46.19499" lon="2.92214">
        <ele>578.43</ele>
        <time>2018-07-14T08:35:46.000Z</time>
      </trkpt>
      <trkpt lat="46.19507" lon="2.92208">
        <ele>578.45</ele>
        <time>2018-07-14T08:35:47.000Z</time>
      </trkpt>
      <trkpt lat="46.19515" lon="2.92201">
        <ele>578.49</ele>
        <time>2018-07-14T08:35:48.000Z</time>
      </trkpt>
      <trkpt lat="46.19523" lon="2.92195">
        <ele>578.44</ele>
        <time>2018-07-14T08:35:49.000Z</time>
      </trkpt>
      <trkpt lat="46.19532" lon="2.92188">
        <ele>578.42</ele>
        <time>2018-07-14T08:35:50.000Z</time>
      </trkpt>
      <trkpt lat="46.1954" lon="2.92182">
        <ele>578.44</ele>
        <time>2018-07-14T08:35:51.000Z</time>
      </trkpt>
      <trkpt lat="46.19548" lon="2.92176">
        <ele>578.41</ele>
        <time>2018-07-14T08:35:52.000Z</time>
      </trkpt>
      <trkpt lat="46.19557" lon="2.92169">
        <ele>578.34</ele>
        <time>2018-07-14T08:35:53.000Z</time>
      </trkpt>
      <trkpt lat="46.19566" lon="2.92163">
        <ele>578.02</ele>
        <time>2018-07-14T08:35:54.000Z</time>
      </trkpt>
      <trkpt lat="46.19575" lon="2.92156">
        <ele>577.84</ele>
        <time>2018-07-14T08:35:55.000Z</time>
      </trkpt>
      <trkpt lat="46.19585" lon="2.92149">
        <ele>577.56</ele>
        <time>2018-07-14T08:35:56.000Z</time>
      </trkpt>
      <trkpt lat="46.19602" lon="2.92138">
        <ele>577.31</ele>
        <time>2018-07-14T08:35:58.000Z</time>
      </trkpt>
      <trkpt lat="46.19611" lon="2.92132">
        <ele>576.96</ele>
        <time>2018-07-14T08:35:59.000Z</time>
      </trkpt>
      <trkpt lat="46.19621" lon="2.92126">
        <ele>576.57</ele>
        <time>2018-07-14T08:36:00.000Z</time>
      </trkpt>
      <trkpt lat="46.19632" lon="2.92122">
        <ele>576.16</ele>
        <time>2018-07-14T08:36:01.000Z</time>
      </trkpt>
      <trkpt lat="46.19642" lon="2.92118">
        <ele>575.87</ele>
        <time>2018-07-14T08:36:02.000Z</time>
      </trkpt>
      <trkpt lat="46.19653" lon="2.92115">
        <ele>575.54</ele>
        <time>2018-07-14T08:36:03.000Z</time>
      </trkpt>
      <trkpt lat="46.19664" lon="2.92111">
        <ele>575.12</ele>
        <time>2018-07-14T08:36:04.000Z</time>
      </trkpt>
      <trkpt lat="46.19675" lon="2.92108">
        <ele>574.52</ele>
        <time>2018-07-14T08:36:05.000Z</time>
      </trkpt>
      <trkpt lat="46.19687" lon="2.92105">
        <ele>574.1</ele>
        <time>2018-07-14T08:36:06.000Z</time>
      </trkpt>
      <trkpt lat="46.19698" lon="2.92102">
        <ele>573.63</ele>
        <time>2018-07-14T08:36:07.000Z</time>
      </trkpt>
      <trkpt lat="46.19709" lon="2.92099">
        <ele>573.12</ele>
        <time>2018-07-14T08:36:08.000Z</time>
      </trkpt>
      <trkpt lat="46.19719" lon="2.92096">
        <ele>572.67</ele>
        <time>2018-07-14T08:36:09.000Z</time>
      </trkpt>
      <trkpt lat="46.1973" lon="2.92093">
        <ele>572.18</ele>
        <time>2018-07-14T08:36:10.000Z</time>
      </trkpt>
      <trkpt lat="46.19741" lon="2.92091">
        <ele>571.72</ele>
        <time>2018-07-14T08:36:11.000Z</time>
      </trkpt>
      <trkpt lat="46.19752" lon="2.92088">
        <ele>571.32</ele>
        <time>2018-07-14T08:36:12.000Z</time>
      </trkpt>
      <trkpt lat="46.19762" lon="2.92087">
        <ele>570.97</ele>
        <time>2018-07-14T08:36:13.000Z</time>
      </trkpt>
      <trkpt lat="46.19773" lon="2.92087">
        <ele>570.54</ele>
        <time>2018-07-14T08:36:14.000Z</time>
      </trkpt>
      <trkpt lat="46.19783" lon="2.92088">
        <ele>570.12</ele>
        <time>2018-07-14T08:36:15.000Z</time>
      </trkpt>
      <trkpt lat="46.19794" lon="2.9209">
        <ele>569.75</ele>
        <time>2018-07-14T08:36:16.000Z</time>
      </trkpt>
      <trkpt lat="46.19805" lon="2.92093">
        <ele>569.45</ele>
        <time>2018-07-14T08:36:17.000Z</time>
      </trkpt>
      <trkpt lat="46.19815" lon="2.92099">
        <ele>569.09</ele>
        <time>2018-07-14T08:36:18.000Z</time>
      </trkpt>
      <trkpt lat="46.19826" lon="2.92105">
        <ele>568.73</ele>
        <time>2018-07-14T08:36:19.000Z</time>
      </trkpt>
      <trkpt lat="46.19836" lon="2.92112">
        <ele>568.28</ele>
        <time>2018-07-14T08:36:20.000Z</time>
      </trkpt>
      <trkpt lat="46.19846" lon="2.92119">
        <ele>567.77</ele>
        <time>2018-07-14T08:36:21.000Z</time>
      </trkpt>
      <trkpt lat="46.19856" lon="2.92125">
        <ele>567.23</ele>
        <time>2018-07-14T08:36:22.000Z</time>
      </trkpt>
      <trkpt lat="46.19867" lon="2.92131">
        <ele>566.76</ele>
        <time>2018-07-14T08:36:23.000Z</time>
      </trkpt>
      <trkpt lat="46.19877" lon="2.92138">
        <ele>566.3</ele>
        <time>2018-07-14T08:36:24.000Z</time>
      </trkpt>
      <trkpt lat="46.19887" lon="2.92144">
        <ele>565.82</ele>
        <time>2018-07-14T08:36:25.000Z</time>
      </trkpt>
      <trkpt lat="46.19898" lon="2.92151">
        <ele>565.21</ele>
        <time>2018-07-14T08:36:26.000Z</time>
      </trkpt>
      <trkpt lat="46.19908" lon="2.92157">
        <ele>564.51</ele>
        <time>2018-07-14T08:36:27.000Z</time>
      </trkpt>
      <trkpt lat="46.19919" lon="2.92163">
        <ele>563.91</ele>
        <time>2018-07-14T08:36:28.000Z</time>
      </trkpt>
      <trkpt lat="46.1993" lon="2.92168">
        <ele>563.34</ele>
        <time>2018-07-14T08:36:29.000Z</time>
      </trkpt>
      <trkpt lat="46.1994" lon="2.92174">
        <ele>562.71</ele>
        <time>2018-07-14T08:36:30.000Z</time>
      </trkpt>
      <trkpt lat="46.19951" lon="2.9218">
        <ele>562.08</ele>
        <time>2018-07-14T08:36:31.000Z</time>
      </trkpt>
      <trkpt lat="46.19962" lon="2.92186">
        <ele>561.62</ele>
        <time>2018-07-14T08:36:32.000Z</time>
      </trkpt>
      <trkpt lat="46.19973" lon="2.92191">
        <ele>561.13</ele>
        <time>2018-07-14T08:36:33.000Z</time>
      </trkpt>
      <trkpt lat="46.19983" lon="2.92197">
        <ele>560.67</ele>
        <time>2018-07-14T08:36:34.000Z</time>
      </trkpt>
      <trkpt lat="46.19994" lon="2.92203">
        <ele>560.07</ele>
        <time>2018-07-14T08:36:35.000Z</time>
      </trkpt>
      <trkpt lat="46.20005" lon="2.92209">
        <ele>559.28</ele>
        <time>2018-07-14T08:36:36.000Z</time>
      </trkpt>
      <trkpt lat="46.20016" lon="2.92214">
        <ele>558.63</ele>
        <time>2018-07-14T08:36:37.000Z</time>
      </trkpt>
      <trkpt lat="46.20026" lon="2.9222">
        <ele>558</ele>
        <time>2018-07-14T08:36:38.000Z</time>
      </trkpt>
      <trkpt lat="46.20038" lon="2.92226">
        <ele>557.28</ele>
        <time>2018-07-14T08:36:39.000Z</time>
      </trkpt>
      <trkpt lat="46.20048" lon="2.92231">
        <ele>556.74</ele>
        <time>2018-07-14T08:36:40.000Z</time>
      </trkpt>
      <trkpt lat="46.20059" lon="2.92237">
        <ele>556.1</ele>
        <time>2018-07-14T08:36:41.000Z</time>
      </trkpt>
      <trkpt lat="46.2007" lon="2.92242">
        <ele>555.54</ele>
        <time>2018-07-14T08:36:42.000Z</time>
      </trkpt>
      <trkpt lat="46.2008" lon="2.92248">
        <ele>555.08</ele>
        <time>2018-07-14T08:36:43.000Z</time>
      </trkpt>
      <trkpt lat="46.20091" lon="2.92253">
        <ele>554.64</ele>
        <time>2018-07-14T08:36:44.000Z</time>
      </trkpt>
      <trkpt lat="46.20101" lon="2.9226">
        <ele>554.21</ele>
        <time>2018-07-14T08:36:45.000Z</time>
      </trkpt>
      <trkpt lat="46.20112" lon="2.92266">
        <ele>553.83</ele>
        <time>2018-07-14T08:36:46.000Z</time>
      </trkpt>
      <trkpt lat="46.20122" lon="2.92272">
        <ele>553.37</ele>
        <time>2018-07-14T08:36:47.000Z</time>
      </trkpt>
      <trkpt lat="46.20132" lon="2.92279">
        <ele>552.77</ele>
        <time>2018-07-14T08:36:48.000Z</time>
      </trkpt>
      <trkpt lat="46.20143" lon="2.92285">
        <ele>552.1</ele>
        <time>2018-07-14T08:36:49.000Z</time>
      </trkpt>
      <trkpt lat="46.20154" lon="2.92291">
        <ele>551.36</ele>
        <time>2018-07-14T08:36:50.000Z</time>
      </trkpt>
      <trkpt lat="46.20165" lon="2.92297">
        <ele>550.7</ele>
        <time>2018-07-14T08:36:51.000Z</time>
      </trkpt>
      <trkpt lat="46.20175" lon="2.92303">
        <ele>549.91</ele>
        <time>2018-07-14T08:36:52.000Z</time>
      </trkpt>
      <trkpt lat="46.20186" lon="2.9231">
        <ele>549.27</ele>
        <time>2018-07-14T08:36:53.000Z</time>
      </trkpt>
      <trkpt lat="46.20196" lon="2.92316">
        <ele>548.63</ele>
        <time>2018-07-14T08:36:54.000Z</time>
      </trkpt>
      <trkpt lat="46.20207" lon="2.92321">
        <ele>548.08</ele>
        <time>2018-07-14T08:36:55.000Z</time>
      </trkpt>
      <trkpt lat="46.20217" lon="2.92325">
        <ele>547.48</ele>
        <time>2018-07-14T08:36:56.000Z</time>
      </trkpt>
      <trkpt lat="46.20228" lon="2.92327">
        <ele>546.92</ele>
        <time>2018-07-14T08:36:57.000Z</time>
      </trkpt>
      <trkpt lat="46.2024" lon="2.92328">
        <ele>546.3</ele>
        <time>2018-07-14T08:36:58.000Z</time>
      </trkpt>
      <trkpt lat="46.20252" lon="2.92326">
        <ele>545.61</ele>
        <time>2018-07-14T08:36:59.000Z</time>
      </trkpt>
      <trkpt lat="46.20264" lon="2.92324">
        <ele>545.17</ele>
        <time>2018-07-14T08:37:00.000Z</time>
      </trkpt>
      <trkpt lat="46.20276" lon="2.92321">
        <ele>544.71</ele>
        <time>2018-07-14T08:37:01.000Z</time>
      </trkpt>
      <trkpt lat="46.20288" lon="2.92317">
        <ele>544.22</ele>
        <time>2018-07-14T08:37:02.000Z</time>
      </trkpt>
      <trkpt lat="46.203" lon="2.92314">
        <ele>543.5</ele>
        <time>2018-07-14T08:37:03.000Z</time>
      </trkpt>
      <trkpt lat="46.20311" lon="2.92311">
        <ele>542.86</ele>
        <time>2018-07-14T08:37:04.000Z</time>
      </trkpt>
      <trkpt lat="46.20323" lon="2.92309">
        <ele>542.18</ele>
        <time>2018-07-14T08:37:05.000Z</time>
      </trkpt>
      <trkpt lat="46.20334" lon="2.92306">
        <ele>541.65</ele>
        <time>2018-07-14T08:37:06.000Z</time>
      </trkpt>
      <trkpt lat="46.20346" lon="2.92304">
        <ele>540.97</ele>
        <time>2018-07-14T08:37:07.000Z</time>
      </trkpt>
      <trkpt lat="46.20357" lon="2.92301">
        <ele>540.37</ele>
        <time>2018-07-14T08:37:08.000Z</time>
      </trkpt>
      <trkpt lat="46.20369" lon="2.92299">
        <ele>539.65</ele>
        <time>2018-07-14T08:37:09.000Z</time>
      </trkpt>
      <trkpt lat="46.2038" lon="2.92297">
        <ele>539.06</ele>
        <time>2018-07-14T08:37:10.000Z</time>
      </trkpt>
      <trkpt lat="46.20392" lon="2.92294">
        <ele>538.47</ele>
        <time>2018-07-14T08:37:11.000Z</time>
      </trkpt>
      <trkpt lat="46.20403" lon="2.92291">
        <ele>538.02</ele>
        <time>2018-07-14T08:37:12.000Z</time>
      </trkpt>
      <trkpt lat="46.20415" lon="2.92288">
        <ele>537.44</ele>
        <time>2018-07-14T08:37:13.000Z</time>
      </trkpt>
      <trkpt lat="46.20427" lon="2.92286">
        <ele>536.75</ele>
        <time>2018-07-14T08:37:14.000Z</time>
      </trkpt>
      <trkpt lat="46.20438" lon="2.92285">
        <ele>535.84</ele>
        <time>2018-07-14T08:37:15.000Z</time>
      </trkpt>
      <trkpt lat="46.2045" lon="2.92285">
        <ele>534.91</ele>
        <time>2018-07-14T08:37:16.000Z</time>
      </trkpt>
      <trkpt lat="46.20462" lon="2.92288">
        <ele>534.07</ele>
        <time>2018-07-14T08:37:17.000Z</time>
      </trkpt>
      <trkpt lat="46.20473" lon="2.92294">
        <ele>533.1</ele>
        <time>2018-07-14T08:37:18.000Z</time>
      </trkpt>
      <trkpt lat="46.20483" lon="2.92303">
        <ele>532.17</ele>
        <time>2018-07-14T08:37:19.000Z</time>
      </trkpt>
      <trkpt lat="46.20493" lon="2.92313">
        <ele>531.59</ele>
        <time>2018-07-14T08:37:20.000Z</time>
      </trkpt>
      <trkpt lat="46.20501" lon="2.92324">
        <ele>530.87</ele>
        <time>2018-07-14T08:37:21.000Z</time>
      </trkpt>
      <trkpt lat="46.2051" lon="2.92334">
        <ele>530.01</ele>
        <time>2018-07-14T08:37:22.000Z</time>
      </trkpt>
      <trkpt lat="46.20519" lon="2.92344">
        <ele>529.24</ele>
        <time>2018-07-14T08:37:23.000Z</time>
      </trkpt>
      <trkpt lat="46.20527" lon="2.92353">
        <ele>528.43</ele>
        <time>2018-07-14T08:37:24.000Z</time>
      </trkpt>
      <trkpt lat="46.20536" lon="2.92363">
        <ele>527.96</ele>
        <time>2018-07-14T08:37:25.000Z</time>
      </trkpt>
      <trkpt lat="46.20544" lon="2.92371">
        <ele>527.17</ele>
        <time>2018-07-14T08:37:26.000Z</time>
      </trkpt>
      <trkpt lat="46.20553" lon="2.9238">
        <ele>526.59</ele>
        <time>2018-07-14T08:37:27.000Z</time>
      </trkpt>
      <trkpt lat="46.20563" lon="2.92388">
        <ele>526.03</ele>
        <time>2018-07-14T08:37:28.000Z</time>
      </trkpt>
      <trkpt lat="46.20573" lon="2.92397">
        <ele>525.66</ele>
        <time>2018-07-14T08:37:29.000Z</time>
      </trkpt>
      <trkpt lat="46.20583" lon="2.92405">
        <ele>525.37</ele>
        <time>2018-07-14T08:37:30.000Z</time>
      </trkpt>
      <trkpt lat="46.20593" lon="2.92412">
        <ele>525</ele>
        <time>2018-07-14T08:37:31.000Z</time>
      </trkpt>
      <trkpt lat="46.20603" lon="2.92419">
        <ele>524.67</ele>
        <time>2018-07-14T08:37:32.000Z</time>
      </trkpt>
      <trkpt lat="46.20614" lon="2.92425">
        <ele>524.45</ele>
        <time>2018-07-14T08:37:33.000Z</time>
      </trkpt>
      <trkpt lat="46.20624" lon="2.9243">
        <ele>524.28</ele>
        <time>2018-07-14T08:37:34.000Z</time>
      </trkpt>
      <trkpt lat="46.20635" lon="2.92433">
        <ele>524.15</ele>
        <time>2018-07-14T08:37:35.000Z</time>
      </trkpt>
      <trkpt lat="46.20647" lon="2.92435">
        <ele>523.88</ele>
        <time>2018-07-14T08:37:36.000Z</time>
      </trkpt>
      <trkpt lat="46.20659" lon="2.92435">
        <ele>523.51</ele>
        <time>2018-07-14T08:37:37.000Z</time>
      </trkpt>
      <trkpt lat="46.20672" lon="2.92435">
        <ele>523.04</ele>
        <time>2018-07-14T08:37:38.000Z</time>
      </trkpt>
      <trkpt lat="46.20684" lon="2.92435">
        <ele>522.23</ele>
        <time>2018-07-14T08:37:39.000Z</time>
      </trkpt>
      <trkpt lat="46.20696" lon="2.92433">
        <ele>521.46</ele>
        <time>2018-07-14T08:37:40.000Z</time>
      </trkpt>
      <trkpt lat="46.20708" lon="2.92428">
        <ele>520.8</ele>
        <time>2018-07-14T08:37:41.000Z</time>
      </trkpt>
      <trkpt lat="46.20719" lon="2.9242">
        <ele>520.21</ele>
        <time>2018-07-14T08:37:42.000Z</time>
      </trkpt>
      <trkpt lat="46.20729" lon="2.92408">
        <ele>519.6</ele>
        <time>2018-07-14T08:37:43.000Z</time>
      </trkpt>
      <trkpt lat="46.20738" lon="2.92394">
        <ele>519.12</ele>
        <time>2018-07-14T08:37:44.000Z</time>
      </trkpt>
      <trkpt lat="46.20745" lon="2.9238">
        <ele>518.39</ele>
        <time>2018-07-14T08:37:45.000Z</time>
      </trkpt>
      <trkpt lat="46.20751" lon="2.92365">
        <ele>517.72</ele>
        <time>2018-07-14T08:37:46.000Z</time>
      </trkpt>
      <trkpt lat="46.20758" lon="2.9235">
        <ele>517.12</ele>
        <time>2018-07-14T08:37:47.000Z</time>
      </trkpt>
      <trkpt lat="46.20765" lon="2.92336">
        <ele>516.49</ele>
        <time>2018-07-14T08:37:48.000Z</time>
      </trkpt>
      <trkpt lat="46.20773" lon="2.92323">
        <ele>515.81</ele>
        <time>2018-07-14T08:37:49.000Z</time>
      </trkpt>
      <trkpt lat="46.20782" lon="2.92311">
        <ele>515.15</ele>
        <time>2018-07-14T08:37:50.000Z</time>
      </trkpt>
      <trkpt lat="46.20792" lon="2.92301">
        <ele>514.49</ele>
        <time>2018-07-14T08:37:51.000Z</time>
      </trkpt>
      <trkpt lat="46.20802" lon="2.92293">
        <ele>513.84</ele>
        <time>2018-07-14T08:37:52.000Z</time>
      </trkpt>
      <trkpt lat="46.20813" lon="2.92288">
        <ele>513.14</ele>
        <time>2018-07-14T08:37:53.000Z</time>
      </trkpt>
      <trkpt lat="46.20824" lon="2.92283">
        <ele>512.57</ele>
        <time>2018-07-14T08:37:54.000Z</time>
      </trkpt>
      <trkpt lat="46.20834" lon="2.92277">
        <ele>511.98</ele>
        <time>2018-07-14T08:37:55.000Z</time>
      </trkpt>
      <trkpt lat="46.20844" lon="2.92271">
        <ele>511.27</ele>
        <time>2018-07-14T08:37:56.000Z</time>
      </trkpt>
      <trkpt lat="46.20857" lon="2.92265">
        <ele>510.67</ele>
        <time>2018-07-14T08:37:57.000Z</time>
      </trkpt>
      <trkpt lat="46.20869" lon="2.92261">
        <ele>510.06</ele>
        <time>2018-07-14T08:37:58.000Z</time>
      </trkpt>
      <trkpt lat="46.20881" lon="2.9226">
        <ele>509.39</ele>
        <time>2018-07-14T08:37:59.000Z</time>
      </trkpt>
      <trkpt lat="46.20894" lon="2.92258">
        <ele>508.24</ele>
        <time>2018-07-14T08:38:00.000Z</time>
      </trkpt>
      <trkpt lat="46.20905" lon="2.92259">
        <ele>507.22</ele>
        <time>2018-07-14T08:38:01.000Z</time>
      </trkpt>
      <trkpt lat="46.20917" lon="2.92261">
        <ele>506.14</ele>
        <time>2018-07-14T08:38:02.000Z</time>
      </trkpt>
      <trkpt lat="46.2093" lon="2.92264">
        <ele>505.34</ele>
        <time>2018-07-14T08:38:03.000Z</time>
      </trkpt>
      <trkpt lat="46.20942" lon="2.92267">
        <ele>504.83</ele>
        <time>2018-07-14T08:38:04.000Z</time>
      </trkpt>
      <trkpt lat="46.20953" lon="2.92272">
        <ele>504.21</ele>
        <time>2018-07-14T08:38:05.000Z</time>
      </trkpt>
      <trkpt lat="46.20963" lon="2.92276">
        <ele>503.98</ele>
        <time>2018-07-14T08:38:06.000Z</time>
      </trkpt>
      <trkpt lat="46.20974" lon="2.92281">
        <ele>503.38</ele>
        <time>2018-07-14T08:38:07.000Z</time>
      </trkpt>
      <trkpt lat="46.20986" lon="2.92286">
        <ele>502.82</ele>
        <time>2018-07-14T08:38:08.000Z</time>
      </trkpt>
      <trkpt lat="46.20997" lon="2.92291">
        <ele>502.32</ele>
        <time>2018-07-14T08:38:09.000Z</time>
      </trkpt>
      <trkpt lat="46.21009" lon="2.92296">
        <ele>501.71</ele>
        <time>2018-07-14T08:38:10.000Z</time>
      </trkpt>
      <trkpt lat="46.21021" lon="2.923">
        <ele>501.14</ele>
        <time>2018-07-14T08:38:11.000Z</time>
      </trkpt>
      <trkpt lat="46.21032" lon="2.92303">
        <ele>500.53</ele>
        <time>2018-07-14T08:38:12.000Z</time>
      </trkpt>
      <trkpt lat="46.21044" lon="2.92305">
        <ele>499.8</ele>
        <time>2018-07-14T08:38:13.000Z</time>
      </trkpt>
      <trkpt lat="46.21055" lon="2.92302">
        <ele>499</ele>
        <time>2018-07-14T08:38:14.000Z</time>
      </trkpt>
      <trkpt lat="46.21065" lon="2.92295">
        <ele>498.11</ele>
        <time>2018-07-14T08:38:15.000Z</time>
      </trkpt>
      <trkpt lat="46.21073" lon="2.92281">
        <ele>497.27</ele>
        <time>2018-07-14T08:38:16.000Z</time>
      </trkpt>
      <trkpt lat="46.21079" lon="2.92266">
        <ele>496.65</ele>
        <time>2018-07-14T08:38:17.000Z</time>
      </trkpt>
      <trkpt lat="46.21082" lon="2.9225">
        <ele>495.76</ele>
        <time>2018-07-14T08:38:18.000Z</time>
      </trkpt>
      <trkpt lat="46.21082" lon="2.92234">
        <ele>495.29</ele>
        <time>2018-07-14T08:38:19.000Z</time>
      </trkpt>
      <trkpt lat="46.21084" lon="2.9222">
        <ele>494.57</ele>
        <time>2018-07-14T08:38:20.000Z</time>
      </trkpt>
      <trkpt lat="46.21085" lon="2.92205">
        <ele>493.63</ele>
        <time>2018-07-14T08:38:21.000Z</time>
      </trkpt>
      <trkpt lat="46.2109" lon="2.9219">
        <ele>492.81</ele>
        <time>2018-07-14T08:38:22.000Z</time>
      </trkpt>
      <trkpt lat="46.21096" lon="2.92176">
        <ele>492.22</ele>
        <time>2018-07-14T08:38:23.000Z</time>
      </trkpt>
      <trkpt lat="46.21103" lon="2.92166">
        <ele>491.51</ele>
        <time>2018-07-14T08:38:24.000Z</time>
      </trkpt>
      <trkpt lat="46.21112" lon="2.92156">
        <ele>490.85</ele>
        <time>2018-07-14T08:38:25.000Z</time>
      </trkpt>
      <trkpt lat="46.21122" lon="2.92147">
        <ele>490.25</ele>
        <time>2018-07-14T08:38:26.000Z</time>
      </trkpt>
      <trkpt lat="46.21132" lon="2.92138">
        <ele>489.61</ele>
        <time>2018-07-14T08:38:27.000Z</time>
      </trkpt>
      <trkpt lat="46.21142" lon="2.92131">
        <ele>489.03</ele>
        <time>2018-07-14T08:38:28.000Z</time>
      </trkpt>
      <trkpt lat="46.21153" lon="2.92125">
        <ele>488.44</ele>
        <time>2018-07-14T08:38:29.000Z</time>
      </trkpt>
      <trkpt lat="46.21163" lon="2.9212">
        <ele>487.73</ele>
        <time>2018-07-14T08:38:30.000Z</time>
      </trkpt>
      <trkpt lat="46.21174" lon="2.92115">
        <ele>487.28</ele>
        <time>2018-07-14T08:38:31.000Z</time>
      </trkpt>
      <trkpt lat="46.21185" lon="2.92111">
        <ele>486.51</ele>
        <time>2018-07-14T08:38:32.000Z</time>
      </trkpt>
      <trkpt lat="46.21195" lon="2.92106">
        <ele>485.91</ele>
        <time>2018-07-14T08:38:33.000Z</time>
      </trkpt>
      <trkpt lat="46.21204" lon="2.921">
        <ele>485.42</ele>
        <time>2018-07-14T08:38:34.000Z</time>
      </trkpt>
      <trkpt lat="46.21214" lon="2.92092">
        <ele>484.93</ele>
        <time>2018-07-14T08:38:35.000Z</time>
      </trkpt>
      <trkpt lat="46.21224" lon="2.92081">
        <ele>484.22</ele>
        <time>2018-07-14T08:38:36.000Z</time>
      </trkpt>
      <trkpt lat="46.21232" lon="2.92068">
        <ele>483.44</ele>
        <time>2018-07-14T08:38:37.000Z</time>
      </trkpt>
      <trkpt lat="46.21239" lon="2.92054">
        <ele>482.58</ele>
        <time>2018-07-14T08:38:38.000Z</time>
      </trkpt>
      <trkpt lat="46.21246" lon="2.92041">
        <ele>481.74</ele>
        <time>2018-07-14T08:38:39.000Z</time>
      </trkpt>
      <trkpt lat="46.21255" lon="2.92028">
        <ele>480.94</ele>
        <time>2018-07-14T08:38:40.000Z</time>
      </trkpt>
      <trkpt lat="46.21264" lon="2.92019">
        <ele>480.31</ele>
        <time>2018-07-14T08:38:41.000Z</time>
      </trkpt>
      <trkpt lat="46.21275" lon="2.92014">
        <ele>479.75</ele>
        <time>2018-07-14T08:38:42.000Z</time>
      </trkpt>
      <trkpt lat="46.21286" lon="2.92013">
        <ele>478.99</ele>
        <time>2018-07-14T08:38:43.000Z</time>
      </trkpt>
      <trkpt lat="46.21299" lon="2.92013">
        <ele>478.43</ele>
        <time>2018-07-14T08:38:44.000Z</time>
      </trkpt>
      <trkpt lat="46.21312" lon="2.92012">
        <ele>477.99</ele>
        <time>2018-07-14T08:38:45.000Z</time>
      </trkpt>
      <trkpt lat="46.21323" lon="2.9201">
        <ele>477.5</ele>
        <time>2018-07-14T08:38:46.000Z</time>
      </trkpt>
      <trkpt lat="46.21335" lon="2.92008">
        <ele>477.06</ele>
        <time>2018-07-14T08:38:47.000Z</time>
      </trkpt>
      <trkpt lat="46.21346" lon="2.92004">
        <ele>476.5</ele>
        <time>2018-07-14T08:38:48.000Z</time>
      </trkpt>
      <trkpt lat="46.21358" lon="2.91999">
        <ele>476.01</ele>
        <time>2018-07-14T08:38:49.000Z</time>
      </trkpt>
      <trkpt lat="46.21369" lon="2.91994">
        <ele>475.45</ele>
        <time>2018-07-14T08:38:50.000Z</time>
      </trkpt>
      <trkpt lat="46.2138" lon="2.91989">
        <ele>474.87</ele>
        <time>2018-07-14T08:38:51.000Z</time>
      </trkpt>
      <trkpt lat="46.21392" lon="2.91984">
        <ele>474.27</ele>
        <time>2018-07-14T08:38:52.000Z</time>
      </trkpt>
      <trkpt lat="46.21403" lon="2.91978">
        <ele>473.74</ele>
        <time>2018-07-14T08:38:53.000Z</time>
      </trkpt>
      <trkpt lat="46.21414" lon="2.91972">
        <ele>473.09</ele>
        <time>2018-07-14T08:38:54.000Z</time>
      </trkpt>
      <trkpt lat="46.21424" lon="2.91966">
        <ele>472.33</ele>
        <time>2018-07-14T08:38:55.000Z</time>
      </trkpt>
      <trkpt lat="46.21436" lon="2.91961">
        <ele>472.05</ele>
        <time>2018-07-14T08:38:56.000Z</time>
      </trkpt>
      <trkpt lat="46.21447" lon="2.91957">
        <ele>472.46</ele>
        <time>2018-07-14T08:38:57.000Z</time>
      </trkpt>
      <trkpt lat="46.21458" lon="2.91952">
        <ele>472.36</ele>
        <time>2018-07-14T08:38:58.000Z</time>
      </trkpt>
      <trkpt lat="46.21468" lon="2.91946">
        <ele>471.91</ele>
        <time>2018-07-14T08:38:59.000Z</time>
      </trkpt>
      <trkpt lat="46.21478" lon="2.91942">
        <ele>471.91</ele>
        <time>2018-07-14T08:39:00.000Z</time>
      </trkpt>
      <trkpt lat="46.21488" lon="2.91938">
        <ele>472.16</ele>
        <time>2018-07-14T08:39:01.000Z</time>
      </trkpt>
      <trkpt lat="46.21497" lon="2.91935">
        <ele>472.07</ele>
        <time>2018-07-14T08:39:02.000Z</time>
      </trkpt>
      <trkpt lat="46.21513" lon="2.91933">
        <ele>471.14</ele>
        <time>2018-07-14T08:39:04.000Z</time>
      </trkpt>
      <trkpt lat="46.21526" lon="2.91939">
        <ele>469.19</ele>
        <time>2018-07-14T08:39:06.000Z</time>
      </trkpt>
      <trkpt lat="46.21538" lon="2.9195">
        <ele>468</ele>
        <time>2018-07-14T08:39:08.000Z</time>
      </trkpt>
      <trkpt lat="46.21548" lon="2.91963">
        <ele>467.19</ele>
        <time>2018-07-14T08:39:10.000Z</time>
      </trkpt>
      <trkpt lat="46.21558" lon="2.91971">
        <ele>466.21</ele>
        <time>2018-07-14T08:39:12.000Z</time>
      </trkpt>
      <trkpt lat="46.2157" lon="2.91971">
        <ele>465.68</ele>
        <time>2018-07-14T08:39:15.000Z</time>
      </trkpt>
      <trkpt lat="46.2158" lon="2.91966">
        <ele>466.18</ele>
        <time>2018-07-14T08:39:17.000Z</time>
      </trkpt>
      <trkpt lat="46.21591" lon="2.91961">
        <ele>466.47</ele>
        <time>2018-07-14T08:39:19.000Z</time>
      </trkpt>
      <trkpt lat="46.21602" lon="2.91954">
        <ele>466.84</ele>
        <time>2018-07-14T08:39:21.000Z</time>
      </trkpt>
      <trkpt lat="46.21613" lon="2.91946">
        <ele>466.6</ele>
        <time>2018-07-14T08:39:23.000Z</time>
      </trkpt>
      <trkpt lat="46.21624" lon="2.9194">
        <ele>465.86</ele>
        <time>2018-07-14T08:39:25.000Z</time>
      </trkpt>
      <trkpt lat="46.21633" lon="2.91935">
        <ele>465.62</ele>
        <time>2018-07-14T08:39:27.000Z</time>
      </trkpt>
      <trkpt lat="46.21645" lon="2.91928">
        <ele>464.92</ele>
        <time>2018-07-14T08:39:30.000Z</time>
      </trkpt>
      <trkpt lat="46.21655" lon="2.91918">
        <ele>464.34</ele>
        <time>2018-07-14T08:39:34.000Z</time>
      </trkpt>
      <trkpt lat="46.21662" lon="2.91907">
        <ele>464.07</ele>
        <time>2018-07-14T08:39:37.000Z</time>
      </trkpt>
      <trkpt lat="46.21671" lon="2.91899">
        <ele>463.75</ele>
        <time>2018-07-14T08:39:40.000Z</time>
      </trkpt>
      <trkpt lat="46.21682" lon="2.91897">
        <ele>463.39</ele>
        <time>2018-07-14T08:39:43.000Z</time>
      </trkpt>
      <trkpt lat="46.21692" lon="2.91896">
        <ele>463</ele>
        <time>2018-07-14T08:39:45.000Z</time>
      </trkpt>
      <trkpt lat="46.21703" lon="2.91893">
        <ele>462.58</ele>
        <time>2018-07-14T08:39:47.000Z</time>
      </trkpt>
      <trkpt lat="46.21718" lon="2.9189">
        <ele>462.35</ele>
        <time>2018-07-14T08:39:49.000Z</time>
      </trkpt>
      <trkpt lat="46.2173" lon="2.91889">
        <ele>463.08</ele>
        <time>2018-07-14T08:39:50.000Z</time>
      </trkpt>
      <trkpt lat="46.21742" lon="2.9189">
        <ele>463.26</ele>
        <time>2018-07-14T08:39:52.000Z</time>
      </trkpt>
      <trkpt lat="46.21754" lon="2.91897">
        <ele>466.04</ele>
        <time>2018-07-14T08:39:55.000Z</time>
      </trkpt>
      <trkpt lat="46.21764" lon="2.91893">
        <ele>468.42</ele>
        <time>2018-07-14T08:39:57.000Z</time>
      </trkpt>
      <trkpt lat="46.21772" lon="2.91883">
        <ele>470.15</ele>
        <time>2018-07-14T08:39:59.000Z</time>
      </trkpt>
      <trkpt lat="46.2178" lon="2.91872">
        <ele>471.29</ele>
        <time>2018-07-14T08:40:01.000Z</time>
      </trkpt>
      <trkpt lat="46.21788" lon="2.91857">
        <ele>471.46</ele>
        <time>2018-07-14T08:40:04.000Z</time>
      </trkpt>
      <trkpt lat="46.21793" lon="2.91842">
        <ele>470.78</ele>
        <time>2018-07-14T08:40:07.000Z</time>
      </trkpt>
      <trkpt lat="46.21798" lon="2.91826">
        <ele>469.93</ele>
        <time>2018-07-14T08:40:10.000Z</time>
      </trkpt>
      <trkpt lat="46.21801" lon="2.91809">
        <ele>469.59</ele>
        <time>2018-07-14T08:40:13.000Z</time>
      </trkpt>
      <trkpt lat="46.21802" lon="2.91795">
        <ele>469.3</ele>
        <time>2018-07-14T08:40:15.000Z</time>
      </trkpt>
      <trkpt lat="46.21803" lon="2.91782">
        <ele>469.42</ele>
        <time>2018-07-14T08:40:17.000Z</time>
      </trkpt>
      <trkpt lat="46.21802" lon="2.91767">
        <ele>469.56</ele>
        <time>2018-07-14T08:40:19.000Z</time>
      </trkpt>
      <trkpt lat="46.21797" lon="2.91753">
        <ele>469.77</ele>
        <time>2018-07-14T08:40:21.000Z</time>
      </trkpt>
      <trkpt lat="46.21793" lon="2.91737">
        <ele>469.84</ele>
        <time>2018-07-14T08:40:23.000Z</time>
      </trkpt>
      <trkpt lat="46.21787" lon="2.9172">
        <ele>469.77</ele>
        <time>2018-07-14T08:40:26.000Z</time>
      </trkpt>
      <trkpt lat="46.21781" lon="2.91709">
        <ele>469.7</ele>
        <time>2018-07-14T08:40:28.000Z</time>
      </trkpt>
      <trkpt lat="46.21777" lon="2.91698">
        <ele>469.88</ele>
        <time>2018-07-14T08:40:30.000Z</time>
      </trkpt>
      <trkpt lat="46.21772" lon="2.91686">
        <ele>470.51</ele>
        <time>2018-07-14T08:40:32.000Z</time>
      </trkpt>
      <trkpt lat="46.21769" lon="2.91671">
        <ele>470.42</ele>
        <time>2018-07-14T08:40:34.000Z</time>
      </trkpt>
      <trkpt lat="46.21765" lon="2.91655">
        <ele>471.1</ele>
        <time>2018-07-14T08:40:37.000Z</time>
      </trkpt>
      <trkpt lat="46.21763" lon="2.91641">
        <ele>471.83</ele>
        <time>2018-07-14T08:40:40.000Z</time>
      </trkpt>
      <trkpt lat="46.21758" lon="2.91628">
        <ele>472.67</ele>
        <time>2018-07-14T08:40:43.000Z</time>
      </trkpt>
      <trkpt lat="46.21757" lon="2.91614">
        <ele>472.6</ele>
        <time>2018-07-14T08:40:46.000Z</time>
      </trkpt>
      <trkpt lat="46.21755" lon="2.91596">
        <ele>472.15</ele>
        <time>2018-07-14T08:40:49.000Z</time>
      </trkpt>
      <trkpt lat="46.2175" lon="2.91578">
        <ele>471.66</ele>
        <time>2018-07-14T08:40:52.000Z</time>
      </trkpt>
      <trkpt lat="46.21748" lon="2.91562">
        <ele>471.5</ele>
        <time>2018-07-14T08:40:55.000Z</time>
      </trkpt>
      <trkpt lat="46.21752" lon="2.91543">
        <ele>471.5</ele>
        <time>2018-07-14T08:40:58.000Z</time>
      </trkpt>
      <trkpt lat="46.21756" lon="2.91528">
        <ele>471.78</ele>
        <time>2018-07-14T08:41:01.000Z</time>
      </trkpt>
      <trkpt lat="46.21751" lon="2.91515">
        <ele>472.49</ele>
        <time>2018-07-14T08:41:04.000Z</time>
      </trkpt>
      <trkpt lat="46.21747" lon="2.91502">
        <ele>473.75</ele>
        <time>2018-07-14T08:41:07.000Z</time>
      </trkpt>
      <trkpt lat="46.21748" lon="2.91486">
        <ele>476.53</ele>
        <time>2018-07-14T08:41:11.000Z</time>
      </trkpt>
      <trkpt lat="46.21753" lon="2.91471">
        <ele>478.07</ele>
        <time>2018-07-14T08:41:15.000Z</time>
      </trkpt>
      <trkpt lat="46.21758" lon="2.91458">
        <ele>478.38</ele>
        <time>2018-07-14T08:41:18.000Z</time>
      </trkpt>
      <trkpt lat="46.21758" lon="2.9144">
        <ele>479</ele>
        <time>2018-07-14T08:41:21.000Z</time>
      </trkpt>
      <trkpt lat="46.21756" lon="2.91423">
        <ele>479.46</ele>
        <time>2018-07-14T08:41:24.000Z</time>
      </trkpt>
      <trkpt lat="46.21758" lon="2.91406">
        <ele>479.3</ele>
        <time>2018-07-14T08:41:27.000Z</time>
      </trkpt>
      <trkpt lat="46.21764" lon="2.91388">
        <ele>478.87</ele>
        <time>2018-07-14T08:41:30.000Z</time>
      </trkpt>
      <trkpt lat="46.21768" lon="2.91372">
        <ele>478.99</ele>
        <time>2018-07-14T08:41:33.000Z</time>
      </trkpt>
      <trkpt lat="46.2177" lon="2.91359">
        <ele>479.61</ele>
        <time>2018-07-14T08:41:36.000Z</time>
      </trkpt>
      <trkpt lat="46.21767" lon="2.91346">
        <ele>479.88</ele>
        <time>2018-07-14T08:41:39.000Z</time>
      </trkpt>
      <trkpt lat="46.21763" lon="2.91329">
        <ele>479.6</ele>
        <time>2018-07-14T08:41:42.000Z</time>
      </trkpt>
      <trkpt lat="46.21761" lon="2.91316">
        <ele>479.43</ele>
        <time>2018-07-14T08:41:44.000Z</time>
      </trkpt>
      <trkpt lat="46.21756" lon="2.91303">
        <ele>479.43</ele>
        <time>2018-07-14T08:41:46.000Z</time>
      </trkpt>
      <trkpt lat="46.21748" lon="2.91288">
        <ele>479.77</ele>
        <time>2018-07-14T08:41:49.000Z</time>
      </trkpt>
      <trkpt lat="46.2175" lon="2.91273">
        <ele>480.52</ele>
        <time>2018-07-14T08:41:51.000Z</time>
      </trkpt>
      <trkpt lat="46.21751" lon="2.9126">
        <ele>481.28</ele>
        <time>2018-07-14T08:41:53.000Z</time>
      </trkpt>
      <trkpt lat="46.21751" lon="2.91242">
        <ele>482.66</ele>
        <time>2018-07-14T08:41:56.000Z</time>
      </trkpt>
      <trkpt lat="46.21752" lon="2.91227">
        <ele>484.58</ele>
        <time>2018-07-14T08:41:59.000Z</time>
      </trkpt>
      <trkpt lat="46.21755" lon="2.91214">
        <ele>488.9</ele>
        <time>2018-07-14T08:42:03.000Z</time>
      </trkpt>
      <trkpt lat="46.21745" lon="2.91204">
        <ele>493.86</ele>
        <time>2018-07-14T08:42:07.000Z</time>
      </trkpt>
      <trkpt lat="46.21737" lon="2.9119">
        <ele>496.56</ele>
        <time>2018-07-14T08:42:10.000Z</time>
      </trkpt>
      <trkpt lat="46.2173" lon="2.9118">
        <ele>499.27</ele>
        <time>2018-07-14T08:42:13.000Z</time>
      </trkpt>
      <trkpt lat="46.21726" lon="2.91165">
        <ele>504.02</ele>
        <time>2018-07-14T08:42:17.000Z</time>
      </trkpt>
      <trkpt lat="46.21723" lon="2.91151">
        <ele>507.56</ele>
        <time>2018-07-14T08:42:20.000Z</time>
      </trkpt>
      <trkpt lat="46.21714" lon="2.91142">
        <ele>511.85</ele>
        <time>2018-07-14T08:42:23.000Z</time>
      </trkpt>
      <trkpt lat="46.21714" lon="2.91125">
        <ele>516.49</ele>
        <time>2018-07-14T08:42:26.000Z</time>
      </trkpt>
      <trkpt lat="46.21717" lon="2.91109">
        <ele>519.61</ele>
        <time>2018-07-14T08:42:28.000Z</time>
      </trkpt>
      <trkpt lat="46.21714" lon="2.91095">
        <ele>522.61</ele>
        <time>2018-07-14T08:42:30.000Z</time>
      </trkpt>
      <trkpt lat="46.21707" lon="2.9108">
        <ele>526.6</ele>
        <time>2018-07-14T08:42:33.000Z</time>
      </trkpt>
      <trkpt lat="46.21704" lon="2.91067">
        <ele>529.5</ele>
        <time>2018-07-14T08:42:35.000Z</time>
      </trkpt>
      <trkpt lat="46.21694" lon="2.91055">
        <ele>532.41</ele>
        <time>2018-07-14T08:42:38.000Z</time>
      </trkpt>
      <trkpt lat="46.21685" lon="2.91046">
        <ele>533.41</ele>
        <time>2018-07-14T08:42:40.000Z</time>
      </trkpt>
      <trkpt lat="46.21678" lon="2.91036">
        <ele>534.13</ele>
        <time>2018-07-14T08:42:42.000Z</time>
      </trkpt>
      <trkpt lat="46.21671" lon="2.91026">
        <ele>535.16</ele>
        <time>2018-07-14T08:42:44.000Z</time>
      </trkpt>
      <trkpt lat="46.2166" lon="2.91015">
        <ele>536.76</ele>
        <time>2018-07-14T08:42:47.000Z</time>
      </trkpt>
      <trkpt lat="46.21655" lon="2.91004">
        <ele>538.08</ele>
        <time>2018-07-14T08:42:49.000Z</time>
      </trkpt>
      <trkpt lat="46.21647" lon="2.90989">
        <ele>539.94</ele>
        <time>2018-07-14T08:42:52.000Z</time>
      </trkpt>
      <trkpt lat="46.21639" lon="2.90975">
        <ele>539.94</ele>
        <time>2018-07-14T08:42:54.000Z</time>
      </trkpt>
      <trkpt lat="46.21634" lon="2.90962">
        <ele>539.85</ele>
        <time>2018-07-14T08:42:56.000Z</time>
      </trkpt>
      <trkpt lat="46.21629" lon="2.90951">
        <ele>540.32</ele>
        <time>2018-07-14T08:42:58.000Z</time>
      </trkpt>
      <trkpt lat="46.21625" lon="2.90935">
        <ele>539.85</ele>
        <time>2018-07-14T08:43:01.000Z</time>
      </trkpt>
      <trkpt lat="46.21624" lon="2.90919">
        <ele>540.92</ele>
        <time>2018-07-14T08:43:04.000Z</time>
      </trkpt>
      <trkpt lat="46.21624" lon="2.90904">
        <ele>541.49</ele>
        <time>2018-07-14T08:43:07.000Z</time>
      </trkpt>
      <trkpt lat="46.21623" lon="2.90891">
        <ele>542.17</ele>
        <time>2018-07-14T08:43:10.000Z</time>
      </trkpt>
      <trkpt lat="46.21627" lon="2.90876">
        <ele>544.06</ele>
        <time>2018-07-14T08:43:14.000Z</time>
      </trkpt>
      <trkpt lat="46.21632" lon="2.90864">
        <ele>545.86</ele>
        <time>2018-07-14T08:43:17.000Z</time>
      </trkpt>
      <trkpt lat="46.21639" lon="2.90852">
        <ele>548.19</ele>
        <time>2018-07-14T08:43:20.000Z</time>
      </trkpt>
      <trkpt lat="46.21644" lon="2.90836">
        <ele>549.81</ele>
        <time>2018-07-14T08:43:23.000Z</time>
      </trkpt>
      <trkpt lat="46.2165" lon="2.90818">
        <ele>549.66</ele>
        <time>2018-07-14T08:43:26.000Z</time>
      </trkpt>
      <trkpt lat="46.21653" lon="2.90802">
        <ele>551.31</ele>
        <time>2018-07-14T08:43:29.000Z</time>
      </trkpt>
      <trkpt lat="46.21658" lon="2.90791">
        <ele>551.85</ele>
        <time>2018-07-14T08:43:31.000Z</time>
      </trkpt>
      <trkpt lat="46.21664" lon="2.90778">
        <ele>556.96</ele>
        <time>2018-07-14T08:43:34.000Z</time>
      </trkpt>
      <trkpt lat="46.21671" lon="2.90762">
        <ele>558.42</ele>
        <time>2018-07-14T08:43:37.000Z</time>
      </trkpt>
      <trkpt lat="46.21678" lon="2.90747">
        <ele>559.44</ele>
        <time>2018-07-14T08:43:40.000Z</time>
      </trkpt>
      <trkpt lat="46.21686" lon="2.90734">
        <ele>560.37</ele>
        <time>2018-07-14T08:43:43.000Z</time>
      </trkpt>
      <trkpt lat="46.21695" lon="2.90724">
        <ele>561.32</ele>
        <time>2018-07-14T08:43:46.000Z</time>
      </trkpt>
      <trkpt lat="46.21703" lon="2.90712">
        <ele>561.88</ele>
        <time>2018-07-14T08:43:49.000Z</time>
      </trkpt>
      <trkpt lat="46.2171" lon="2.90699">
        <ele>562.38</ele>
        <time>2018-07-14T08:43:52.000Z</time>
      </trkpt>
      <trkpt lat="46.21716" lon="2.90684">
        <ele>563.28</ele>
        <time>2018-07-14T08:43:55.000Z</time>
      </trkpt>
      <trkpt lat="46.21721" lon="2.90669">
        <ele>564.84</ele>
        <time>2018-07-14T08:43:58.000Z</time>
      </trkpt>
      <trkpt lat="46.21727" lon="2.90656">
        <ele>565.85</ele>
        <time>2018-07-14T08:44:01.000Z</time>
      </trkpt>
      <trkpt lat="46.21732" lon="2.90643">
        <ele>566.75</ele>
        <time>2018-07-14T08:44:04.000Z</time>
      </trkpt>
      <trkpt lat="46.21737" lon="2.90631">
        <ele>567.98</ele>
        <time>2018-07-14T08:44:06.000Z</time>
      </trkpt>
      <trkpt lat="46.2174" lon="2.90618">
        <ele>568.92</ele>
        <time>2018-07-14T08:44:08.000Z</time>
      </trkpt>
      <trkpt lat="46.21743" lon="2.90603">
        <ele>569.87</ele>
        <time>2018-07-14T08:44:10.000Z</time>
      </trkpt>
      <trkpt lat="46.21747" lon="2.9059">
        <ele>570.9</ele>
        <time>2018-07-14T08:44:12.000Z</time>
      </trkpt>
      <trkpt lat="46.21751" lon="2.90578">
        <ele>572.03</ele>
        <time>2018-07-14T08:44:14.000Z</time>
      </trkpt>
      <trkpt lat="46.21759" lon="2.90565">
        <ele>571.8</ele>
        <time>2018-07-14T08:44:16.000Z</time>
      </trkpt>
      <trkpt lat="46.21766" lon="2.9055">
        <ele>571.2</ele>
        <time>2018-07-14T08:44:18.000Z</time>
      </trkpt>
      <trkpt lat="46.21772" lon="2.90533">
        <ele>571.27</ele>
        <time>2018-07-14T08:44:20.000Z</time>
      </trkpt>
      <trkpt lat="46.21778" lon="2.90514">
        <ele>570.59</ele>
        <time>2018-07-14T08:44:22.000Z</time>
      </trkpt>
      <trkpt lat="46.21787" lon="2.90496">
        <ele>571</ele>
        <time>2018-07-14T08:44:24.000Z</time>
      </trkpt>
      <trkpt lat="46.21795" lon="2.90478">
        <ele>571.45</ele>
        <time>2018-07-14T08:44:26.000Z</time>
      </trkpt>
      <trkpt lat="46.21804" lon="2.90458">
        <ele>570.79</ele>
        <time>2018-07-14T08:44:28.000Z</time>
      </trkpt>
      <trkpt lat="46.21809" lon="2.90446">
        <ele>569.98</ele>
        <time>2018-07-14T08:44:29.000Z</time>
      </trkpt>
      <trkpt lat="46.21817" lon="2.90423">
        <ele>569.14</ele>
        <time>2018-07-14T08:44:31.000Z</time>
      </trkpt>
      <trkpt lat="46.21822" lon="2.90411">
        <ele>569.11</ele>
        <time>2018-07-14T08:44:32.000Z</time>
      </trkpt>
      <trkpt lat="46.21827" lon="2.90399">
        <ele>568.76</ele>
        <time>2018-07-14T08:44:33.000Z</time>
      </trkpt>
      <trkpt lat="46.21834" lon="2.90386">
        <ele>568.07</ele>
        <time>2018-07-14T08:44:34.000Z</time>
      </trkpt>
      <trkpt lat="46.21839" lon="2.90373">
        <ele>567.8</ele>
        <time>2018-07-14T08:44:35.000Z</time>
      </trkpt>
      <trkpt lat="46.21843" lon="2.90361">
        <ele>567.62</ele>
        <time>2018-07-14T08:44:36.000Z</time>
      </trkpt>
      <trkpt lat="46.21847" lon="2.90347">
        <ele>566.76</ele>
        <time>2018-07-14T08:44:37.000Z</time>
      </trkpt>
      <trkpt lat="46.21851" lon="2.90334">
        <ele>566.49</ele>
        <time>2018-07-14T08:44:38.000Z</time>
      </trkpt>
      <trkpt lat="46.21855" lon="2.90321">
        <ele>565.58</ele>
        <time>2018-07-14T08:44:39.000Z</time>
      </trkpt>
      <trkpt lat="46.21859" lon="2.90307">
        <ele>564.24</ele>
        <time>2018-07-14T08:44:40.000Z</time>
      </trkpt>
      <trkpt lat="46.21863" lon="2.90293">
        <ele>562.87</ele>
        <time>2018-07-14T08:44:41.000Z</time>
      </trkpt>
      <trkpt lat="46.21866" lon="2.90281">
        <ele>562.16</ele>
        <time>2018-07-14T08:44:42.000Z</time>
      </trkpt>
      <trkpt lat="46.21869" lon="2.90256">
        <ele>561.08</ele>
        <time>2018-07-14T08:44:44.000Z</time>
      </trkpt>
      <trkpt lat="46.21871" lon="2.90232">
        <ele>560</ele>
        <time>2018-07-14T08:44:46.000Z</time>
      </trkpt>
      <trkpt lat="46.21875" lon="2.90209">
        <ele>559.39</ele>
        <time>2018-07-14T08:44:48.000Z</time>
      </trkpt>
      <trkpt lat="46.21879" lon="2.90187">
        <ele>558.13</ele>
        <time>2018-07-14T08:44:50.000Z</time>
      </trkpt>
      <trkpt lat="46.21883" lon="2.90164">
        <ele>556.21</ele>
        <time>2018-07-14T08:44:52.000Z</time>
      </trkpt>
      <trkpt lat="46.21887" lon="2.90143">
        <ele>554.29</ele>
        <time>2018-07-14T08:44:54.000Z</time>
      </trkpt>
      <trkpt lat="46.2189" lon="2.90122">
        <ele>552.43</ele>
        <time>2018-07-14T08:44:56.000Z</time>
      </trkpt>
      <trkpt lat="46.21892" lon="2.90099">
        <ele>551.39</ele>
        <time>2018-07-14T08:44:58.000Z</time>
      </trkpt>
      <trkpt lat="46.21895" lon="2.90075">
        <ele>549.86</ele>
        <time>2018-07-14T08:45:00.000Z</time>
      </trkpt>
      <trkpt lat="46.21898" lon="2.9005">
        <ele>547.93</ele>
        <time>2018-07-14T08:45:02.000Z</time>
      </trkpt>
      <trkpt lat="46.21901" lon="2.90026">
        <ele>546.22</ele>
        <time>2018-07-14T08:45:04.000Z</time>
      </trkpt>
      <trkpt lat="46.21904" lon="2.90002">
        <ele>544.77</ele>
        <time>2018-07-14T08:45:06.000Z</time>
      </trkpt>
      <trkpt lat="46.21905" lon="2.89989">
        <ele>544.16</ele>
        <time>2018-07-14T08:45:07.000Z</time>
      </trkpt>
      <trkpt lat="46.21907" lon="2.89975">
        <ele>543.34</ele>
        <time>2018-07-14T08:45:08.000Z</time>
      </trkpt>
      <trkpt lat="46.21908" lon="2.89962">
        <ele>542.67</ele>
        <time>2018-07-14T08:45:09.000Z</time>
      </trkpt>
      <trkpt lat="46.21911" lon="2.89937">
        <ele>541.83</ele>
        <time>2018-07-14T08:45:11.000Z</time>
      </trkpt>
      <trkpt lat="46.21914" lon="2.89913">
        <ele>540.73</ele>
        <time>2018-07-14T08:45:13.000Z</time>
      </trkpt>
      <trkpt lat="46.21917" lon="2.8989">
        <ele>540.15</ele>
        <time>2018-07-14T08:45:15.000Z</time>
      </trkpt>
      <trkpt lat="46.2192" lon="2.89868">
        <ele>539.95</ele>
        <time>2018-07-14T08:45:17.000Z</time>
      </trkpt>
      <trkpt lat="46.21924" lon="2.89849">
        <ele>539.97</ele>
        <time>2018-07-14T08:45:19.000Z</time>
      </trkpt>
      <trkpt lat="46.21927" lon="2.8983">
        <ele>539.57</ele>
        <time>2018-07-14T08:45:21.000Z</time>
      </trkpt>
      <trkpt lat="46.21931" lon="2.89812">
        <ele>539.24</ele>
        <time>2018-07-14T08:45:23.000Z</time>
      </trkpt>
      <trkpt lat="46.21933" lon="2.89795">
        <ele>538.46</ele>
        <time>2018-07-14T08:45:25.000Z</time>
      </trkpt>
      <trkpt lat="46.21936" lon="2.89777">
        <ele>537.92</ele>
        <time>2018-07-14T08:45:27.000Z</time>
      </trkpt>
      <trkpt lat="46.21938" lon="2.8976">
        <ele>537.78</ele>
        <time>2018-07-14T08:45:29.000Z</time>
      </trkpt>
      <trkpt lat="46.21941" lon="2.89745">
        <ele>537.5</ele>
        <time>2018-07-14T08:45:31.000Z</time>
      </trkpt>
      <trkpt lat="46.21945" lon="2.89729">
        <ele>537.62</ele>
        <time>2018-07-14T08:45:33.000Z</time>
      </trkpt>
      <trkpt lat="46.21948" lon="2.89713">
        <ele>537.78</ele>
        <time>2018-07-14T08:45:35.000Z</time>
      </trkpt>
      <trkpt lat="46.21952" lon="2.89696">
        <ele>537.54</ele>
        <time>2018-07-14T08:45:37.000Z</time>
      </trkpt>
      <trkpt lat="46.21958" lon="2.89679">
        <ele>537.51</ele>
        <time>2018-07-14T08:45:39.000Z</time>
      </trkpt>
      <trkpt lat="46.21965" lon="2.89661">
        <ele>537.3</ele>
        <time>2018-07-14T08:45:41.000Z</time>
      </trkpt>
      <trkpt lat="46.21975" lon="2.89645">
        <ele>536.95</ele>
        <time>2018-07-14T08:45:43.000Z</time>
      </trkpt>
      <trkpt lat="46.21985" lon="2.8963">
        <ele>536.96</ele>
        <time>2018-07-14T08:45:45.000Z</time>
      </trkpt>
      <trkpt lat="46.21994" lon="2.89615">
        <ele>537.14</ele>
        <time>2018-07-14T08:45:47.000Z</time>
      </trkpt>
      <trkpt lat="46.22004" lon="2.89598">
        <ele>537.49</ele>
        <time>2018-07-14T08:45:49.000Z</time>
      </trkpt>
      <trkpt lat="46.22014" lon="2.8958">
        <ele>537.35</ele>
        <time>2018-07-14T08:45:51.000Z</time>
      </trkpt>
      <trkpt lat="46.22025" lon="2.89562">
        <ele>537.05</ele>
        <time>2018-07-14T08:45:53.000Z</time>
      </trkpt>
      <trkpt lat="46.22035" lon="2.89544">
        <ele>536.94</ele>
        <time>2018-07-14T08:45:55.000Z</time>
      </trkpt>
      <trkpt lat="46.22044" lon="2.89527">
        <ele>536.88</ele>
        <time>2018-07-14T08:45:57.000Z</time>
      </trkpt>
      <trkpt lat="46.22054" lon="2.89509">
        <ele>536.26</ele>
        <time>2018-07-14T08:45:59.000Z</time>
      </trkpt>
      <trkpt lat="46.22064" lon="2.89491">
        <ele>536.01</ele>
        <time>2018-07-14T08:46:01.000Z</time>
      </trkpt>
      <trkpt lat="46.22073" lon="2.89475">
        <ele>535.76</ele>
        <time>2018-07-14T08:46:03.000Z</time>
      </trkpt>
      <trkpt lat="46.22083" lon="2.89458">
        <ele>535.66</ele>
        <time>2018-07-14T08:46:05.000Z</time>
      </trkpt>
      <trkpt lat="46.22091" lon="2.89442">
        <ele>535.67</ele>
        <time>2018-07-14T08:46:07.000Z</time>
      </trkpt>
      <trkpt lat="46.22099" lon="2.89428">
        <ele>535.58</ele>
        <time>2018-07-14T08:46:09.000Z</time>
      </trkpt>
      <trkpt lat="46.22107" lon="2.89414">
        <ele>535.08</ele>
        <time>2018-07-14T08:46:11.000Z</time>
      </trkpt>
      <trkpt lat="46.22114" lon="2.89399">
        <ele>534.18</ele>
        <time>2018-07-14T08:46:13.000Z</time>
      </trkpt>
      <trkpt lat="46.22121" lon="2.89387">
        <ele>534.46</ele>
        <time>2018-07-14T08:46:15.000Z</time>
      </trkpt>
      <trkpt lat="46.22128" lon="2.89375">
        <ele>534.99</ele>
        <time>2018-07-14T08:46:17.000Z</time>
      </trkpt>
      <trkpt lat="46.22135" lon="2.89365">
        <ele>536.04</ele>
        <time>2018-07-14T08:46:19.000Z</time>
      </trkpt>
      <trkpt lat="46.22142" lon="2.89354">
        <ele>537.02</ele>
        <time>2018-07-14T08:46:21.000Z</time>
      </trkpt>
      <trkpt lat="46.2215" lon="2.89343">
        <ele>537.44</ele>
        <time>2018-07-14T08:46:23.000Z</time>
      </trkpt>
      <trkpt lat="46.22157" lon="2.89331">
        <ele>537.48</ele>
        <time>2018-07-14T08:46:25.000Z</time>
      </trkpt>
      <trkpt lat="46.22165" lon="2.89321">
        <ele>537.82</ele>
        <time>2018-07-14T08:46:27.000Z</time>
      </trkpt>
      <trkpt lat="46.22173" lon="2.8931">
        <ele>537.85</ele>
        <time>2018-07-14T08:46:29.000Z</time>
      </trkpt>
      <trkpt lat="46.22182" lon="2.893">
        <ele>537.88</ele>
        <time>2018-07-14T08:46:31.000Z</time>
      </trkpt>
      <trkpt lat="46.22188" lon="2.89289">
        <ele>538.45</ele>
        <time>2018-07-14T08:46:33.000Z</time>
      </trkpt>
      <trkpt lat="46.22194" lon="2.89278">
        <ele>538.96</ele>
        <time>2018-07-14T08:46:35.000Z</time>
      </trkpt>
      <trkpt lat="46.22201" lon="2.89268">
        <ele>539.82</ele>
        <time>2018-07-14T08:46:37.000Z</time>
      </trkpt>
      <trkpt lat="46.22208" lon="2.89257">
        <ele>540.71</ele>
        <time>2018-07-14T08:46:39.000Z</time>
      </trkpt>
      <trkpt lat="46.22215" lon="2.89247">
        <ele>542.45</ele>
        <time>2018-07-14T08:46:41.000Z</time>
      </trkpt>
      <trkpt lat="46.22221" lon="2.89236">
        <ele>543.31</ele>
        <time>2018-07-14T08:46:43.000Z</time>
      </trkpt>
      <trkpt lat="46.22229" lon="2.89219">
        <ele>545.43</ele>
        <time>2018-07-14T08:46:46.000Z</time>
      </trkpt>
      <trkpt lat="46.22234" lon="2.89207">
        <ele>545.86</ele>
        <time>2018-07-14T08:46:48.000Z</time>
      </trkpt>
      <trkpt lat="46.22238" lon="2.89192">
        <ele>546.25</ele>
        <time>2018-07-14T08:46:50.000Z</time>
      </trkpt>
      <trkpt lat="46.22242" lon="2.89177">
        <ele>546.94</ele>
        <time>2018-07-14T08:46:52.000Z</time>
      </trkpt>
      <trkpt lat="46.22245" lon="2.89162">
        <ele>547.54</ele>
        <time>2018-07-14T08:46:54.000Z</time>
      </trkpt>
      <trkpt lat="46.22248" lon="2.89144">
        <ele>547.93</ele>
        <time>2018-07-14T08:46:56.000Z</time>
      </trkpt>
      <trkpt lat="46.22251" lon="2.89128">
        <ele>548.31</ele>
        <time>2018-07-14T08:46:58.000Z</time>
      </trkpt>
      <trkpt lat="46.22252" lon="2.89111">
        <ele>548.12</ele>
        <time>2018-07-14T08:47:00.000Z</time>
      </trkpt>
      <trkpt lat="46.22254" lon="2.89095">
        <ele>547.99</ele>
        <time>2018-07-14T08:47:02.000Z</time>
      </trkpt>
      <trkpt lat="46.22257" lon="2.89077">
        <ele>547.76</ele>
        <time>2018-07-14T08:47:04.000Z</time>
      </trkpt>
      <trkpt lat="46.2226" lon="2.89059">
        <ele>547</ele>
        <time>2018-07-14T08:47:06.000Z</time>
      </trkpt>
      <trkpt lat="46.22264" lon="2.89041">
        <ele>545.75</ele>
        <time>2018-07-14T08:47:08.000Z</time>
      </trkpt>
      <trkpt lat="46.22268" lon="2.89022">
        <ele>544.74</ele>
        <time>2018-07-14T08:47:10.000Z</time>
      </trkpt>
      <trkpt lat="46.22271" lon="2.89004">
        <ele>544</ele>
        <time>2018-07-14T08:47:12.000Z</time>
      </trkpt>
      <trkpt lat="46.22274" lon="2.88986">
        <ele>543.31</ele>
        <time>2018-07-14T08:47:14.000Z</time>
      </trkpt>
      <trkpt lat="46.22278" lon="2.88967">
        <ele>542.86</ele>
        <time>2018-07-14T08:47:16.000Z</time>
      </trkpt>
      <trkpt lat="46.22282" lon="2.88948">
        <ele>542.58</ele>
        <time>2018-07-14T08:47:18.000Z</time>
      </trkpt>
      <trkpt lat="46.22286" lon="2.88927">
        <ele>542.59</ele>
        <time>2018-07-14T08:47:20.000Z</time>
      </trkpt>
      <trkpt lat="46.22289" lon="2.88906">
        <ele>543.04</ele>
        <time>2018-07-14T08:47:22.000Z</time>
      </trkpt>
      <trkpt lat="46.22293" lon="2.88884">
        <ele>542.6</ele>
        <time>2018-07-14T08:47:24.000Z</time>
      </trkpt>
      <trkpt lat="46.22297" lon="2.88862">
        <ele>542.16</ele>
        <time>2018-07-14T08:47:26.000Z</time>
      </trkpt>
      <trkpt lat="46.22301" lon="2.88839">
        <ele>541.88</ele>
        <time>2018-07-14T08:47:28.000Z</time>
      </trkpt>
      <trkpt lat="46.22306" lon="2.88816">
        <ele>541.69</ele>
        <time>2018-07-14T08:47:30.000Z</time>
      </trkpt>
      <trkpt lat="46.22312" lon="2.88793">
        <ele>541.35</ele>
        <time>2018-07-14T08:47:32.000Z</time>
      </trkpt>
      <trkpt lat="46.22318" lon="2.88771">
        <ele>540.74</ele>
        <time>2018-07-14T08:47:34.000Z</time>
      </trkpt>
      <trkpt lat="46.22324" lon="2.88749">
        <ele>540.85</ele>
        <time>2018-07-14T08:47:36.000Z</time>
      </trkpt>
      <trkpt lat="46.2233" lon="2.88728">
        <ele>540.93</ele>
        <time>2018-07-14T08:47:38.000Z</time>
      </trkpt>
      <trkpt lat="46.22336" lon="2.88707">
        <ele>540.91</ele>
        <time>2018-07-14T08:47:40.000Z</time>
      </trkpt>
      <trkpt lat="46.22342" lon="2.88685">
        <ele>540.73</ele>
        <time>2018-07-14T08:47:42.000Z</time>
      </trkpt>
      <trkpt lat="46.22348" lon="2.88665">
        <ele>540.52</ele>
        <time>2018-07-14T08:47:44.000Z</time>
      </trkpt>
      <trkpt lat="46.22354" lon="2.88644">
        <ele>540.61</ele>
        <time>2018-07-14T08:47:46.000Z</time>
      </trkpt>
      <trkpt lat="46.22361" lon="2.88622">
        <ele>540.8</ele>
        <time>2018-07-14T08:47:48.000Z</time>
      </trkpt>
      <trkpt lat="46.22368" lon="2.886">
        <ele>541.29</ele>
        <time>2018-07-14T08:47:50.000Z</time>
      </trkpt>
      <trkpt lat="46.22374" lon="2.88578">
        <ele>541.45</ele>
        <time>2018-07-14T08:47:52.000Z</time>
      </trkpt>
      <trkpt lat="46.22379" lon="2.88556">
        <ele>541.53</ele>
        <time>2018-07-14T08:47:54.000Z</time>
      </trkpt>
      <trkpt lat="46.22384" lon="2.88534">
        <ele>541.39</ele>
        <time>2018-07-14T08:47:56.000Z</time>
      </trkpt>
      <trkpt lat="46.22389" lon="2.88511">
        <ele>541.25</ele>
        <time>2018-07-14T08:47:58.000Z</time>
      </trkpt>
      <trkpt lat="46.22394" lon="2.88489">
        <ele>541.23</ele>
        <time>2018-07-14T08:48:00.000Z</time>
      </trkpt>
      <trkpt lat="46.22398" lon="2.88466">
        <ele>540.89</ele>
        <time>2018-07-14T08:48:02.000Z</time>
      </trkpt>
      <trkpt lat="46.22401" lon="2.88444">
        <ele>540.51</ele>
        <time>2018-07-14T08:48:04.000Z</time>
      </trkpt>
      <trkpt lat="46.22404" lon="2.88421">
        <ele>539.61</ele>
        <time>2018-07-14T08:48:06.000Z</time>
      </trkpt>
      <trkpt lat="46.22407" lon="2.88399">
        <ele>539.07</ele>
        <time>2018-07-14T08:48:08.000Z</time>
      </trkpt>
      <trkpt lat="46.22409" lon="2.88376">
        <ele>539.05</ele>
        <time>2018-07-14T08:48:10.000Z</time>
      </trkpt>
      <trkpt lat="46.22413" lon="2.88354">
        <ele>538.99</ele>
        <time>2018-07-14T08:48:12.000Z</time>
      </trkpt>
      <trkpt lat="46.22416" lon="2.88332">
        <ele>538.41</ele>
        <time>2018-07-14T08:48:14.000Z</time>
      </trkpt>
      <trkpt lat="46.22417" lon="2.88309">
        <ele>538.33</ele>
        <time>2018-07-14T08:48:16.000Z</time>
      </trkpt>
      <trkpt lat="46.2242" lon="2.88289">
        <ele>538.47</ele>
        <time>2018-07-14T08:48:18.000Z</time>
      </trkpt>
      <trkpt lat="46.22422" lon="2.88269">
        <ele>538.85</ele>
        <time>2018-07-14T08:48:20.000Z</time>
      </trkpt>
      <trkpt lat="46.22424" lon="2.8825">
        <ele>539.56</ele>
        <time>2018-07-14T08:48:22.000Z</time>
      </trkpt>
      <trkpt lat="46.22427" lon="2.88231">
        <ele>539.94</ele>
        <time>2018-07-14T08:48:24.000Z</time>
      </trkpt>
      <trkpt lat="46.2243" lon="2.8821">
        <ele>540.16</ele>
        <time>2018-07-14T08:48:26.000Z</time>
      </trkpt>
      <trkpt lat="46.22433" lon="2.8819">
        <ele>540.36</ele>
        <time>2018-07-14T08:48:28.000Z</time>
      </trkpt>
      <trkpt lat="46.22436" lon="2.88169">
        <ele>540.36</ele>
        <time>2018-07-14T08:48:30.000Z</time>
      </trkpt>
      <trkpt lat="46.22438" lon="2.88149">
        <ele>540.4</ele>
        <time>2018-07-14T08:48:32.000Z</time>
      </trkpt>
      <trkpt lat="46.22441" lon="2.88129">
        <ele>540.13</ele>
        <time>2018-07-14T08:48:34.000Z</time>
      </trkpt>
      <trkpt lat="46.22443" lon="2.8811">
        <ele>540.29</ele>
        <time>2018-07-14T08:48:36.000Z</time>
      </trkpt>
      <trkpt lat="46.22445" lon="2.8809">
        <ele>540.37</ele>
        <time>2018-07-14T08:48:38.000Z</time>
      </trkpt>
      <trkpt lat="46.22448" lon="2.8807">
        <ele>540.46</ele>
        <time>2018-07-14T08:48:40.000Z</time>
      </trkpt>
      <trkpt lat="46.2245" lon="2.88049">
        <ele>540.26</ele>
        <time>2018-07-14T08:48:42.000Z</time>
      </trkpt>
      <trkpt lat="46.22453" lon="2.88028">
        <ele>540.3</ele>
        <time>2018-07-14T08:48:44.000Z</time>
      </trkpt>
      <trkpt lat="46.22455" lon="2.88006">
        <ele>540.44</ele>
        <time>2018-07-14T08:48:46.000Z</time>
      </trkpt>
      <trkpt lat="46.22456" lon="2.87986">
        <ele>540.5</ele>
        <time>2018-07-14T08:48:48.000Z</time>
      </trkpt>
      <trkpt lat="46.22459" lon="2.87966">
        <ele>540.29</ele>
        <time>2018-07-14T08:48:50.000Z</time>
      </trkpt>
      <trkpt lat="46.22461" lon="2.87944">
        <ele>539.92</ele>
        <time>2018-07-14T08:48:52.000Z</time>
      </trkpt>
      <trkpt lat="46.22463" lon="2.87923">
        <ele>539.9</ele>
        <time>2018-07-14T08:48:54.000Z</time>
      </trkpt>
      <trkpt lat="46.22466" lon="2.87903">
        <ele>540.12</ele>
        <time>2018-07-14T08:48:56.000Z</time>
      </trkpt>
      <trkpt lat="46.22468" lon="2.87883">
        <ele>539.98</ele>
        <time>2018-07-14T08:48:58.000Z</time>
      </trkpt>
      <trkpt lat="46.2247" lon="2.87866">
        <ele>540.45</ele>
        <time>2018-07-14T08:49:00.000Z</time>
      </trkpt>
      <trkpt lat="46.22473" lon="2.8785">
        <ele>540.62</ele>
        <time>2018-07-14T08:49:02.000Z</time>
      </trkpt>
      <trkpt lat="46.22475" lon="2.87833">
        <ele>540.79</ele>
        <time>2018-07-14T08:49:04.000Z</time>
      </trkpt>
      <trkpt lat="46.22478" lon="2.87817">
        <ele>540.9</ele>
        <time>2018-07-14T08:49:06.000Z</time>
      </trkpt>
      <trkpt lat="46.22482" lon="2.87803">
        <ele>541.01</ele>
        <time>2018-07-14T08:49:08.000Z</time>
      </trkpt>
      <trkpt lat="46.22488" lon="2.87793">
        <ele>542.03</ele>
        <time>2018-07-14T08:49:10.000Z</time>
      </trkpt>
      <trkpt lat="46.22493" lon="2.87782">
        <ele>542.36</ele>
        <time>2018-07-14T08:49:12.000Z</time>
      </trkpt>
      <trkpt lat="46.22494" lon="2.87768">
        <ele>542</ele>
        <time>2018-07-14T08:49:14.000Z</time>
      </trkpt>
      <trkpt lat="46.22492" lon="2.87755">
        <ele>542.08</ele>
        <time>2018-07-14T08:49:16.000Z</time>
      </trkpt>
      <trkpt lat="46.22489" lon="2.87742">
        <ele>542.29</ele>
        <time>2018-07-14T08:49:18.000Z</time>
      </trkpt>
      <trkpt lat="46.22489" lon="2.87728">
        <ele>542.46</ele>
        <time>2018-07-14T08:49:20.000Z</time>
      </trkpt>
      <trkpt lat="46.2249" lon="2.87715">
        <ele>542.8</ele>
        <time>2018-07-14T08:49:22.000Z</time>
      </trkpt>
      <trkpt lat="46.22494" lon="2.87696">
        <ele>543.64</ele>
        <time>2018-07-14T08:49:25.000Z</time>
      </trkpt>
      <trkpt lat="46.22497" lon="2.87683">
        <ele>544.28</ele>
        <time>2018-07-14T08:49:27.000Z</time>
      </trkpt>
      <trkpt lat="46.22499" lon="2.87669">
        <ele>544.61</ele>
        <time>2018-07-14T08:49:29.000Z</time>
      </trkpt>
      <trkpt lat="46.225" lon="2.87655">
        <ele>545.31</ele>
        <time>2018-07-14T08:49:31.000Z</time>
      </trkpt>
      <trkpt lat="46.22502" lon="2.8764">
        <ele>546.02</ele>
        <time>2018-07-14T08:49:33.000Z</time>
      </trkpt>
      <trkpt lat="46.22503" lon="2.87625">
        <ele>546.5</ele>
        <time>2018-07-14T08:49:35.000Z</time>
      </trkpt>
      <trkpt lat="46.22504" lon="2.8761">
        <ele>546.9</ele>
        <time>2018-07-14T08:49:37.000Z</time>
      </trkpt>
      <trkpt lat="46.22506" lon="2.87596">
        <ele>547.4</ele>
        <time>2018-07-14T08:49:39.000Z</time>
      </trkpt>
      <trkpt lat="46.22508" lon="2.87583">
        <ele>548.02</ele>
        <time>2018-07-14T08:49:41.000Z</time>
      </trkpt>
      <trkpt lat="46.2251" lon="2.87569">
        <ele>548.34</ele>
        <time>2018-07-14T08:49:43.000Z</time>
      </trkpt>
      <trkpt lat="46.22513" lon="2.87555">
        <ele>548.93</ele>
        <time>2018-07-14T08:49:45.000Z</time>
      </trkpt>
      <trkpt lat="46.22517" lon="2.8754">
        <ele>549.59</ele>
        <time>2018-07-14T08:49:47.000Z</time>
      </trkpt>
      <trkpt lat="46.22519" lon="2.87524">
        <ele>550.49</ele>
        <time>2018-07-14T08:49:49.000Z</time>
      </trkpt>
      <trkpt lat="46.2252" lon="2.87509">
        <ele>551.03</ele>
        <time>2018-07-14T08:49:51.000Z</time>
      </trkpt>
      <trkpt lat="46.22522" lon="2.87496">
        <ele>551.52</ele>
        <time>2018-07-14T08:49:53.000Z</time>
      </trkpt>
      <trkpt lat="46.22523" lon="2.87478">
        <ele>552.02</ele>
        <time>2018-07-14T08:49:56.000Z</time>
      </trkpt>
      <trkpt lat="46.22524" lon="2.87458">
        <ele>552.68</ele>
        <time>2018-07-14T08:49:59.000Z</time>
      </trkpt>
      <trkpt lat="46.22526" lon="2.87445">
        <ele>552.97</ele>
        <time>2018-07-14T08:50:01.000Z</time>
      </trkpt>
      <trkpt lat="46.22527" lon="2.87429">
        <ele>553.86</ele>
        <time>2018-07-14T08:50:04.000Z</time>
      </trkpt>
      <trkpt lat="46.22529" lon="2.87412">
        <ele>554.57</ele>
        <time>2018-07-14T08:50:07.000Z</time>
      </trkpt>
      <trkpt lat="46.22531" lon="2.87396">
        <ele>555.8</ele>
        <time>2018-07-14T08:50:10.000Z</time>
      </trkpt>
      <trkpt lat="46.22535" lon="2.87379">
        <ele>557.03</ele>
        <time>2018-07-14T08:50:13.000Z</time>
      </trkpt>
      <trkpt lat="46.22541" lon="2.87361">
        <ele>558.4</ele>
        <time>2018-07-14T08:50:16.000Z</time>
      </trkpt>
      <trkpt lat="46.22542" lon="2.87341">
        <ele>559.98</ele>
        <time>2018-07-14T08:50:19.000Z</time>
      </trkpt>
      <trkpt lat="46.22542" lon="2.87324">
        <ele>561.16</ele>
        <time>2018-07-14T08:50:22.000Z</time>
      </trkpt>
      <trkpt lat="46.22545" lon="2.87305">
        <ele>562.46</ele>
        <time>2018-07-14T08:50:25.000Z</time>
      </trkpt>
      <trkpt lat="46.22548" lon="2.87286">
        <ele>563.64</ele>
        <time>2018-07-14T08:50:28.000Z</time>
      </trkpt>
      <trkpt lat="46.22551" lon="2.87273">
        <ele>564.05</ele>
        <time>2018-07-14T08:50:30.000Z</time>
      </trkpt>
      <trkpt lat="46.22554" lon="2.87258">
        <ele>564.3</ele>
        <time>2018-07-14T08:50:32.000Z</time>
      </trkpt>
      <trkpt lat="46.22557" lon="2.87243">
        <ele>564.79</ele>
        <time>2018-07-14T08:50:34.000Z</time>
      </trkpt>
      <trkpt lat="46.22559" lon="2.87229">
        <ele>565.22</ele>
        <time>2018-07-14T08:50:36.000Z</time>
      </trkpt>
      <trkpt lat="46.22565" lon="2.87214">
        <ele>566.19</ele>
        <time>2018-07-14T08:50:38.000Z</time>
      </trkpt>
      <trkpt lat="46.22571" lon="2.87198">
        <ele>566.58</ele>
        <time>2018-07-14T08:50:40.000Z</time>
      </trkpt>
      <trkpt lat="46.22573" lon="2.87184">
        <ele>567.74</ele>
        <time>2018-07-14T08:50:42.000Z</time>
      </trkpt>
      <trkpt lat="46.22572" lon="2.87171">
        <ele>570.67</ele>
        <time>2018-07-14T08:50:44.000Z</time>
      </trkpt>
      <trkpt lat="46.22571" lon="2.87157">
        <ele>573.17</ele>
        <time>2018-07-14T08:50:46.000Z</time>
      </trkpt>
      <trkpt lat="46.22572" lon="2.87141">
        <ele>574.8</ele>
        <time>2018-07-14T08:50:48.000Z</time>
      </trkpt>
      <trkpt lat="46.22573" lon="2.87124">
        <ele>575.52</ele>
        <time>2018-07-14T08:50:50.000Z</time>
      </trkpt>
      <trkpt lat="46.22574" lon="2.87108">
        <ele>575.85</ele>
        <time>2018-07-14T08:50:52.000Z</time>
      </trkpt>
      <trkpt lat="46.22576" lon="2.87092">
        <ele>575.72</ele>
        <time>2018-07-14T08:50:54.000Z</time>
      </trkpt>
      <trkpt lat="46.22579" lon="2.87073">
        <ele>576</ele>
        <time>2018-07-14T08:50:56.000Z</time>
      </trkpt>
      <trkpt lat="46.22584" lon="2.87053">
        <ele>575.36</ele>
        <time>2018-07-14T08:50:58.000Z</time>
      </trkpt>
      <trkpt lat="46.2259" lon="2.87034">
        <ele>574.48</ele>
        <time>2018-07-14T08:51:00.000Z</time>
      </trkpt>
      <trkpt lat="46.22597" lon="2.87016">
        <ele>573.89</ele>
        <time>2018-07-14T08:51:02.000Z</time>
      </trkpt>
      <trkpt lat="46.22604" lon="2.86999">
        <ele>573.54</ele>
        <time>2018-07-14T08:51:04.000Z</time>
      </trkpt>
      <trkpt lat="46.22611" lon="2.86982">
        <ele>573.43</ele>
        <time>2018-07-14T08:51:06.000Z</time>
      </trkpt>
      <trkpt lat="46.22618" lon="2.86967">
        <ele>573.98</ele>
        <time>2018-07-14T08:51:08.000Z</time>
      </trkpt>
      <trkpt lat="46.22625" lon="2.86952">
        <ele>574.65</ele>
        <time>2018-07-14T08:51:10.000Z</time>
      </trkpt>
      <trkpt lat="46.22633" lon="2.86938">
        <ele>575.16</ele>
        <time>2018-07-14T08:51:12.000Z</time>
      </trkpt>
      <trkpt lat="46.22641" lon="2.86925">
        <ele>575.82</ele>
        <time>2018-07-14T08:51:14.000Z</time>
      </trkpt>
      <trkpt lat="46.2265" lon="2.86911">
        <ele>576.5</ele>
        <time>2018-07-14T08:51:16.000Z</time>
      </trkpt>
      <trkpt lat="46.22658" lon="2.86898">
        <ele>576.55</ele>
        <time>2018-07-14T08:51:18.000Z</time>
      </trkpt>
      <trkpt lat="46.22667" lon="2.86885">
        <ele>576.84</ele>
        <time>2018-07-14T08:51:20.000Z</time>
      </trkpt>
      <trkpt lat="46.22676" lon="2.86871">
        <ele>577.34</ele>
        <time>2018-07-14T08:51:22.000Z</time>
      </trkpt>
      <trkpt lat="46.22684" lon="2.86858">
        <ele>577.71</ele>
        <time>2018-07-14T08:51:24.000Z</time>
      </trkpt>
      <trkpt lat="46.22693" lon="2.86845">
        <ele>578.14</ele>
        <time>2018-07-14T08:51:26.000Z</time>
      </trkpt>
      <trkpt lat="46.22703" lon="2.86832">
        <ele>578.47</ele>
        <time>2018-07-14T08:51:28.000Z</time>
      </trkpt>
      <trkpt lat="46.22712" lon="2.86816">
        <ele>579.27</ele>
        <time>2018-07-14T08:51:30.000Z</time>
      </trkpt>
      <trkpt lat="46.22721" lon="2.86801">
        <ele>579.22</ele>
        <time>2018-07-14T08:51:32.000Z</time>
      </trkpt>
      <trkpt lat="46.2273" lon="2.86787">
        <ele>579.56</ele>
        <time>2018-07-14T08:51:34.000Z</time>
      </trkpt>
      <trkpt lat="46.22738" lon="2.86771">
        <ele>580.3</ele>
        <time>2018-07-14T08:51:36.000Z</time>
      </trkpt>
      <trkpt lat="46.22745" lon="2.86757">
        <ele>581.15</ele>
        <time>2018-07-14T08:51:38.000Z</time>
      </trkpt>
      <trkpt lat="46.22748" lon="2.86742">
        <ele>582.6</ele>
        <time>2018-07-14T08:51:40.000Z</time>
      </trkpt>
      <trkpt lat="46.22751" lon="2.86728">
        <ele>583.33</ele>
        <time>2018-07-14T08:51:42.000Z</time>
      </trkpt>
      <trkpt lat="46.22754" lon="2.86713">
        <ele>583.65</ele>
        <time>2018-07-14T08:51:44.000Z</time>
      </trkpt>
      <trkpt lat="46.22755" lon="2.867">
        <ele>583.86</ele>
        <time>2018-07-14T08:51:46.000Z</time>
      </trkpt>
      <trkpt lat="46.22755" lon="2.86685">
        <ele>583.53</ele>
        <time>2018-07-14T08:51:48.000Z</time>
      </trkpt>
      <trkpt lat="46.22754" lon="2.86671">
        <ele>584.36</ele>
        <time>2018-07-14T08:51:50.000Z</time>
      </trkpt>
      <trkpt lat="46.22752" lon="2.86657">
        <ele>584.94</ele>
        <time>2018-07-14T08:51:52.000Z</time>
      </trkpt>
      <trkpt lat="46.22751" lon="2.86643">
        <ele>585.28</ele>
        <time>2018-07-14T08:51:54.000Z</time>
      </trkpt>
      <trkpt lat="46.22751" lon="2.86629">
        <ele>585.66</ele>
        <time>2018-07-14T08:51:56.000Z</time>
      </trkpt>
      <trkpt lat="46.22749" lon="2.86615">
        <ele>585.96</ele>
        <time>2018-07-14T08:51:58.000Z</time>
      </trkpt>
      <trkpt lat="46.22748" lon="2.86602">
        <ele>586.37</ele>
        <time>2018-07-14T08:52:00.000Z</time>
      </trkpt>
      <trkpt lat="46.22747" lon="2.86588">
        <ele>586.55</ele>
        <time>2018-07-14T08:52:02.000Z</time>
      </trkpt>
      <trkpt lat="46.22744" lon="2.86569">
        <ele>587.05</ele>
        <time>2018-07-14T08:52:05.000Z</time>
      </trkpt>
      <trkpt lat="46.22742" lon="2.86554">
        <ele>586.86</ele>
        <time>2018-07-14T08:52:07.000Z</time>
      </trkpt>
      <trkpt lat="46.22741" lon="2.8654">
        <ele>587.33</ele>
        <time>2018-07-14T08:52:09.000Z</time>
      </trkpt>
      <trkpt lat="46.2274" lon="2.86526">
        <ele>587.88</ele>
        <time>2018-07-14T08:52:11.000Z</time>
      </trkpt>
      <trkpt lat="46.22737" lon="2.86512">
        <ele>588.22</ele>
        <time>2018-07-14T08:52:13.000Z</time>
      </trkpt>
      <trkpt lat="46.22736" lon="2.86499">
        <ele>588.73</ele>
        <time>2018-07-14T08:52:15.000Z</time>
      </trkpt>
      <trkpt lat="46.22738" lon="2.86485">
        <ele>589.56</ele>
        <time>2018-07-14T08:52:17.000Z</time>
      </trkpt>
      <trkpt lat="46.22738" lon="2.86471">
        <ele>590.69</ele>
        <time>2018-07-14T08:52:19.000Z</time>
      </trkpt>
      <trkpt lat="46.2274" lon="2.86458">
        <ele>591.7</ele>
        <time>2018-07-14T08:52:21.000Z</time>
      </trkpt>
      <trkpt lat="46.22742" lon="2.86444">
        <ele>592.45</ele>
        <time>2018-07-14T08:52:23.000Z</time>
      </trkpt>
      <trkpt lat="46.22743" lon="2.8643">
        <ele>593.32</ele>
        <time>2018-07-14T08:52:25.000Z</time>
      </trkpt>
      <trkpt lat="46.22745" lon="2.86416">
        <ele>594.01</ele>
        <time>2018-07-14T08:52:27.000Z</time>
      </trkpt>
      <trkpt lat="46.22746" lon="2.86403">
        <ele>594.68</ele>
        <time>2018-07-14T08:52:29.000Z</time>
      </trkpt>
      <trkpt lat="46.22748" lon="2.86384">
        <ele>595.8</ele>
        <time>2018-07-14T08:52:32.000Z</time>
      </trkpt>
      <trkpt lat="46.22748" lon="2.86365">
        <ele>596.22</ele>
        <time>2018-07-14T08:52:35.000Z</time>
      </trkpt>
      <trkpt lat="46.22749" lon="2.86346">
        <ele>596.18</ele>
        <time>2018-07-14T08:52:38.000Z</time>
      </trkpt>
      <trkpt lat="46.22748" lon="2.86333">
        <ele>596.61</ele>
        <time>2018-07-14T08:52:40.000Z</time>
      </trkpt>
      <trkpt lat="46.22747" lon="2.86319">
        <ele>597.71</ele>
        <time>2018-07-14T08:52:42.000Z</time>
      </trkpt>
      <trkpt lat="46.22749" lon="2.86306">
        <ele>598.8</ele>
        <time>2018-07-14T08:52:44.000Z</time>
      </trkpt>
      <trkpt lat="46.2275" lon="2.86293">
        <ele>599.97</ele>
        <time>2018-07-14T08:52:46.000Z</time>
      </trkpt>
      <trkpt lat="46.22752" lon="2.86275">
        <ele>601.34</ele>
        <time>2018-07-14T08:52:49.000Z</time>
      </trkpt>
      <trkpt lat="46.22755" lon="2.86258">
        <ele>602.1</ele>
        <time>2018-07-14T08:52:52.000Z</time>
      </trkpt>
      <trkpt lat="46.22757" lon="2.86244">
        <ele>602.58</ele>
        <time>2018-07-14T08:52:54.000Z</time>
      </trkpt>
      <trkpt lat="46.22759" lon="2.86224">
        <ele>603.72</ele>
        <time>2018-07-14T08:52:57.000Z</time>
      </trkpt>
      <trkpt lat="46.22759" lon="2.86209">
        <ele>603.59</ele>
        <time>2018-07-14T08:52:59.000Z</time>
      </trkpt>
      <trkpt lat="46.22757" lon="2.86195">
        <ele>604.29</ele>
        <time>2018-07-14T08:53:01.000Z</time>
      </trkpt>
      <trkpt lat="46.22755" lon="2.8618">
        <ele>604.84</ele>
        <time>2018-07-14T08:53:03.000Z</time>
      </trkpt>
      <trkpt lat="46.22754" lon="2.86165">
        <ele>605.81</ele>
        <time>2018-07-14T08:53:05.000Z</time>
      </trkpt>
      <trkpt lat="46.22756" lon="2.86148">
        <ele>605.78</ele>
        <time>2018-07-14T08:53:07.000Z</time>
      </trkpt>
      <trkpt lat="46.22763" lon="2.86135">
        <ele>605.31</ele>
        <time>2018-07-14T08:53:09.000Z</time>
      </trkpt>
      <trkpt lat="46.22772" lon="2.86126">
        <ele>604.11</ele>
        <time>2018-07-14T08:53:11.000Z</time>
      </trkpt>
      <trkpt lat="46.22781" lon="2.8612">
        <ele>603.19</ele>
        <time>2018-07-14T08:53:13.000Z</time>
      </trkpt>
      <trkpt lat="46.2279" lon="2.86116">
        <ele>603.24</ele>
        <time>2018-07-14T08:53:15.000Z</time>
      </trkpt>
      <trkpt lat="46.228" lon="2.86104">
        <ele>604.18</ele>
        <time>2018-07-14T08:53:18.000Z</time>
      </trkpt>
      <trkpt lat="46.22804" lon="2.8609">
        <ele>604.54</ele>
        <time>2018-07-14T08:53:20.000Z</time>
      </trkpt>
      <trkpt lat="46.22808" lon="2.86074">
        <ele>605.09</ele>
        <time>2018-07-14T08:53:22.000Z</time>
      </trkpt>
      <trkpt lat="46.22814" lon="2.86061">
        <ele>605.74</ele>
        <time>2018-07-14T08:53:24.000Z</time>
      </trkpt>
      <trkpt lat="46.2282" lon="2.86045">
        <ele>605.61</ele>
        <time>2018-07-14T08:53:26.000Z</time>
      </trkpt>
      <trkpt lat="46.22822" lon="2.8603">
        <ele>605.89</ele>
        <time>2018-07-14T08:53:28.000Z</time>
      </trkpt>
      <trkpt lat="46.22822" lon="2.86015">
        <ele>605.81</ele>
        <time>2018-07-14T08:53:30.000Z</time>
      </trkpt>
      <trkpt lat="46.22822" lon="2.85998">
        <ele>605.89</ele>
        <time>2018-07-14T08:53:32.000Z</time>
      </trkpt>
      <trkpt lat="46.22823" lon="2.85982">
        <ele>606.25</ele>
        <time>2018-07-14T08:53:34.000Z</time>
      </trkpt>
      <trkpt lat="46.22826" lon="2.85966">
        <ele>606.37</ele>
        <time>2018-07-14T08:53:36.000Z</time>
      </trkpt>
      <trkpt lat="46.2283" lon="2.85949">
        <ele>606.4</ele>
        <time>2018-07-14T08:53:38.000Z</time>
      </trkpt>
      <trkpt lat="46.22834" lon="2.85931">
        <ele>606.72</ele>
        <time>2018-07-14T08:53:40.000Z</time>
      </trkpt>
      <trkpt lat="46.22836" lon="2.85912">
        <ele>607.02</ele>
        <time>2018-07-14T08:53:42.000Z</time>
      </trkpt>
      <trkpt lat="46.22837" lon="2.85892">
        <ele>607</ele>
        <time>2018-07-14T08:53:44.000Z</time>
      </trkpt>
      <trkpt lat="46.22836" lon="2.85872">
        <ele>606.86</ele>
        <time>2018-07-14T08:53:46.000Z</time>
      </trkpt>
      <trkpt lat="46.22837" lon="2.85851">
        <ele>606.5</ele>
        <time>2018-07-14T08:53:48.000Z</time>
      </trkpt>
      <trkpt lat="46.22837" lon="2.8583">
        <ele>606.24</ele>
        <time>2018-07-14T08:53:50.000Z</time>
      </trkpt>
      <trkpt lat="46.22837" lon="2.85808">
        <ele>605.73</ele>
        <time>2018-07-14T08:53:52.000Z</time>
      </trkpt>
      <trkpt lat="46.22837" lon="2.85783">
        <ele>605.28</ele>
        <time>2018-07-14T08:53:54.000Z</time>
      </trkpt>
      <trkpt lat="46.22837" lon="2.85757">
        <ele>604.52</ele>
        <time>2018-07-14T08:53:56.000Z</time>
      </trkpt>
      <trkpt lat="46.22837" lon="2.85743">
        <ele>604.17</ele>
        <time>2018-07-14T08:53:57.000Z</time>
      </trkpt>
      <trkpt lat="46.22837" lon="2.85729">
        <ele>603.58</ele>
        <time>2018-07-14T08:53:58.000Z</time>
      </trkpt>
      <trkpt lat="46.22837" lon="2.85714">
        <ele>602.92</ele>
        <time>2018-07-14T08:53:59.000Z</time>
      </trkpt>
      <trkpt lat="46.22838" lon="2.857">
        <ele>602.51</ele>
        <time>2018-07-14T08:54:00.000Z</time>
      </trkpt>
      <trkpt lat="46.22839" lon="2.85685">
        <ele>602.25</ele>
        <time>2018-07-14T08:54:01.000Z</time>
      </trkpt>
      <trkpt lat="46.22839" lon="2.85671">
        <ele>601.93</ele>
        <time>2018-07-14T08:54:02.000Z</time>
      </trkpt>
      <trkpt lat="46.2284" lon="2.85656">
        <ele>601.73</ele>
        <time>2018-07-14T08:54:03.000Z</time>
      </trkpt>
      <trkpt lat="46.22841" lon="2.8564">
        <ele>601.44</ele>
        <time>2018-07-14T08:54:04.000Z</time>
      </trkpt>
      <trkpt lat="46.22842" lon="2.85625">
        <ele>601.14</ele>
        <time>2018-07-14T08:54:05.000Z</time>
      </trkpt>
      <trkpt lat="46.22842" lon="2.85609">
        <ele>600.9</ele>
        <time>2018-07-14T08:54:06.000Z</time>
      </trkpt>
      <trkpt lat="46.22843" lon="2.85594">
        <ele>600.71</ele>
        <time>2018-07-14T08:54:07.000Z</time>
      </trkpt>
      <trkpt lat="46.22844" lon="2.85578">
        <ele>600.48</ele>
        <time>2018-07-14T08:54:08.000Z</time>
      </trkpt>
      <trkpt lat="46.22844" lon="2.85561">
        <ele>600.26</ele>
        <time>2018-07-14T08:54:09.000Z</time>
      </trkpt>
      <trkpt lat="46.22844" lon="2.85544">
        <ele>599.75</ele>
        <time>2018-07-14T08:54:10.000Z</time>
      </trkpt>
      <trkpt lat="46.22844" lon="2.85527">
        <ele>599</ele>
        <time>2018-07-14T08:54:11.000Z</time>
      </trkpt>
      <trkpt lat="46.22843" lon="2.85509">
        <ele>598.26</ele>
        <time>2018-07-14T08:54:12.000Z</time>
      </trkpt>
      <trkpt lat="46.22843" lon="2.85492">
        <ele>597.6</ele>
        <time>2018-07-14T08:54:13.000Z</time>
      </trkpt>
      <trkpt lat="46.22842" lon="2.85474">
        <ele>597.05</ele>
        <time>2018-07-14T08:54:14.000Z</time>
      </trkpt>
      <trkpt lat="46.22842" lon="2.85457">
        <ele>596.59</ele>
        <time>2018-07-14T08:54:15.000Z</time>
      </trkpt>
      <trkpt lat="46.22842" lon="2.8544">
        <ele>596.21</ele>
        <time>2018-07-14T08:54:16.000Z</time>
      </trkpt>
      <trkpt lat="46.22842" lon="2.85422">
        <ele>595.52</ele>
        <time>2018-07-14T08:54:17.000Z</time>
      </trkpt>
      <trkpt lat="46.22843" lon="2.85404">
        <ele>595</ele>
        <time>2018-07-14T08:54:18.000Z</time>
      </trkpt>
      <trkpt lat="46.22843" lon="2.85387">
        <ele>594.77</ele>
        <time>2018-07-14T08:54:19.000Z</time>
      </trkpt>
      <trkpt lat="46.22843" lon="2.8537">
        <ele>594.25</ele>
        <time>2018-07-14T08:54:20.000Z</time>
      </trkpt>
      <trkpt lat="46.22843" lon="2.85353">
        <ele>593.68</ele>
        <time>2018-07-14T08:54:21.000Z</time>
      </trkpt>
      <trkpt lat="46.22843" lon="2.85335">
        <ele>593.08</ele>
        <time>2018-07-14T08:54:22.000Z</time>
      </trkpt>
      <trkpt lat="46.22844" lon="2.85317">
        <ele>592.35</ele>
        <time>2018-07-14T08:54:23.000Z</time>
      </trkpt>
      <trkpt lat="46.22844" lon="2.85299">
        <ele>591.78</ele>
        <time>2018-07-14T08:54:24.000Z</time>
      </trkpt>
      <trkpt lat="46.22844" lon="2.85281">
        <ele>590.96</ele>
        <time>2018-07-14T08:54:25.000Z</time>
      </trkpt>
      <trkpt lat="46.22844" lon="2.85262">
        <ele>590.14</ele>
        <time>2018-07-14T08:54:26.000Z</time>
      </trkpt>
      <trkpt lat="46.22844" lon="2.85244">
        <ele>589.41</ele>
        <time>2018-07-14T08:54:27.000Z</time>
      </trkpt>
      <trkpt lat="46.22844" lon="2.85226">
        <ele>588.77</ele>
        <time>2018-07-14T08:54:28.000Z</time>
      </trkpt>
      <trkpt lat="46.22844" lon="2.85207">
        <ele>588.08</ele>
        <time>2018-07-14T08:54:29.000Z</time>
      </trkpt>
      <trkpt lat="46.22844" lon="2.85189">
        <ele>587.4</ele>
        <time>2018-07-14T08:54:30.000Z</time>
      </trkpt>
      <trkpt lat="46.22844" lon="2.85171">
        <ele>586.89</ele>
        <time>2018-07-14T08:54:31.000Z</time>
      </trkpt>
      <trkpt lat="46.22844" lon="2.85153">
        <ele>586.5</ele>
        <time>2018-07-14T08:54:32.000Z</time>
      </trkpt>
      <trkpt lat="46.22844" lon="2.85134">
        <ele>585.69</ele>
        <time>2018-07-14T08:54:33.000Z</time>
      </trkpt>
      <trkpt lat="46.22844" lon="2.85115">
        <ele>585.08</ele>
        <time>2018-07-14T08:54:34.000Z</time>
      </trkpt>
      <trkpt lat="46.22844" lon="2.85097">
        <ele>584.61</ele>
        <time>2018-07-14T08:54:35.000Z</time>
      </trkpt>
      <trkpt lat="46.22844" lon="2.85079">
        <ele>584.09</ele>
        <time>2018-07-14T08:54:36.000Z</time>
      </trkpt>
      <trkpt lat="46.22844" lon="2.8506">
        <ele>583.67</ele>
        <time>2018-07-14T08:54:37.000Z</time>
      </trkpt>
      <trkpt lat="46.22845" lon="2.85041">
        <ele>583.37</ele>
        <time>2018-07-14T08:54:38.000Z</time>
      </trkpt>
      <trkpt lat="46.22846" lon="2.85021">
        <ele>583.14</ele>
        <time>2018-07-14T08:54:39.000Z</time>
      </trkpt>
      <trkpt lat="46.22846" lon="2.85002">
        <ele>582.92</ele>
        <time>2018-07-14T08:54:40.000Z</time>
      </trkpt>
      <trkpt lat="46.22848" lon="2.84984">
        <ele>582.68</ele>
        <time>2018-07-14T08:54:41.000Z</time>
      </trkpt>
      <trkpt lat="46.2285" lon="2.84967">
        <ele>582.37</ele>
        <time>2018-07-14T08:54:42.000Z</time>
      </trkpt>
      <trkpt lat="46.22854" lon="2.8495">
        <ele>582.09</ele>
        <time>2018-07-14T08:54:43.000Z</time>
      </trkpt>
      <trkpt lat="46.22859" lon="2.84935">
        <ele>581.71</ele>
        <time>2018-07-14T08:54:44.000Z</time>
      </trkpt>
      <trkpt lat="46.22863" lon="2.84921">
        <ele>581.4</ele>
        <time>2018-07-14T08:54:45.000Z</time>
      </trkpt>
      <trkpt lat="46.22867" lon="2.84907">
        <ele>581.02</ele>
        <time>2018-07-14T08:54:46.000Z</time>
      </trkpt>
      <trkpt lat="46.22872" lon="2.84894">
        <ele>580.62</ele>
        <time>2018-07-14T08:54:47.000Z</time>
      </trkpt>
      <trkpt lat="46.22876" lon="2.84881">
        <ele>579.86</ele>
        <time>2018-07-14T08:54:48.000Z</time>
      </trkpt>
      <trkpt lat="46.2288" lon="2.8487">
        <ele>579.23</ele>
        <time>2018-07-14T08:54:49.000Z</time>
      </trkpt>
      <trkpt lat="46.22887" lon="2.84847">
        <ele>578.06</ele>
        <time>2018-07-14T08:54:51.000Z</time>
      </trkpt>
      <trkpt lat="46.22894" lon="2.84825">
        <ele>577.09</ele>
        <time>2018-07-14T08:54:53.000Z</time>
      </trkpt>
      <trkpt lat="46.229" lon="2.84805">
        <ele>576.26</ele>
        <time>2018-07-14T08:54:55.000Z</time>
      </trkpt>
      <trkpt lat="46.22905" lon="2.84786">
        <ele>575.61</ele>
        <time>2018-07-14T08:54:57.000Z</time>
      </trkpt>
      <trkpt lat="46.22911" lon="2.84769">
        <ele>575.12</ele>
        <time>2018-07-14T08:54:59.000Z</time>
      </trkpt>
      <trkpt lat="46.22915" lon="2.8475">
        <ele>574.32</ele>
        <time>2018-07-14T08:55:01.000Z</time>
      </trkpt>
      <trkpt lat="46.2292" lon="2.84732">
        <ele>573.75</ele>
        <time>2018-07-14T08:55:02.999Z</time>
      </trkpt>
      <trkpt lat="46.22925" lon="2.84718">
        <ele>573.06</ele>
        <time>2018-07-14T08:55:05.000Z</time>
      </trkpt>
      <trkpt lat="46.2293" lon="2.84705">
        <ele>572.35</ele>
        <time>2018-07-14T08:55:07.000Z</time>
      </trkpt>
      <trkpt lat="46.22935" lon="2.84691">
        <ele>571.85</ele>
        <time>2018-07-14T08:55:09.000Z</time>
      </trkpt>
      <trkpt lat="46.22943" lon="2.84676">
        <ele>571.28</ele>
        <time>2018-07-14T08:55:12.000Z</time>
      </trkpt>
      <trkpt lat="46.22948" lon="2.84663">
        <ele>570.68</ele>
        <time>2018-07-14T08:55:14.000Z</time>
      </trkpt>
      <trkpt lat="46.22953" lon="2.84649">
        <ele>570.19</ele>
        <time>2018-07-14T08:55:16.000Z</time>
      </trkpt>
      <trkpt lat="46.22958" lon="2.84634">
        <ele>569.82</ele>
        <time>2018-07-14T08:55:18.000Z</time>
      </trkpt>
      <trkpt lat="46.22963" lon="2.8462">
        <ele>569.66</ele>
        <time>2018-07-14T08:55:20.000Z</time>
      </trkpt>
      <trkpt lat="46.22968" lon="2.84607">
        <ele>569.61</ele>
        <time>2018-07-14T08:55:22.000Z</time>
      </trkpt>
      <trkpt lat="46.22972" lon="2.84595">
        <ele>569.68</ele>
        <time>2018-07-14T08:55:24.000Z</time>
      </trkpt>
      <trkpt lat="46.22977" lon="2.84582">
        <ele>569.42</ele>
        <time>2018-07-14T08:55:26.000Z</time>
      </trkpt>
      <trkpt lat="46.22981" lon="2.84566">
        <ele>568.92</ele>
        <time>2018-07-14T08:55:28.000Z</time>
      </trkpt>
      <trkpt lat="46.22985" lon="2.84552">
        <ele>568.87</ele>
        <time>2018-07-14T08:55:30.000Z</time>
      </trkpt>
      <trkpt lat="46.22989" lon="2.84539">
        <ele>569.16</ele>
        <time>2018-07-14T08:55:32.000Z</time>
      </trkpt>
      <trkpt lat="46.22994" lon="2.84526">
        <ele>568.9</ele>
        <time>2018-07-14T08:55:34.000Z</time>
      </trkpt>
      <trkpt lat="46.22994" lon="2.84512">
        <ele>569.84</ele>
        <time>2018-07-14T08:55:36.000Z</time>
      </trkpt>
      <trkpt lat="46.22995" lon="2.84492">
        <ele>572.25</ele>
        <time>2018-07-14T08:55:39.000Z</time>
      </trkpt>
      <trkpt lat="46.22995" lon="2.84478">
        <ele>573.72</ele>
        <time>2018-07-14T08:55:41.000Z</time>
      </trkpt>
      <trkpt lat="46.22996" lon="2.84458">
        <ele>575.36</ele>
        <time>2018-07-14T08:55:44.000Z</time>
      </trkpt>
      <trkpt lat="46.22997" lon="2.84441">
        <ele>575.24</ele>
        <time>2018-07-14T08:55:46.000Z</time>
      </trkpt>
      <trkpt lat="46.22997" lon="2.84423">
        <ele>575.56</ele>
        <time>2018-07-14T08:55:48.000Z</time>
      </trkpt>
      <trkpt lat="46.22997" lon="2.84405">
        <ele>575.7</ele>
        <time>2018-07-14T08:55:50.000Z</time>
      </trkpt>
      <trkpt lat="46.22997" lon="2.84387">
        <ele>575.61</ele>
        <time>2018-07-14T08:55:52.000Z</time>
      </trkpt>
      <trkpt lat="46.22996" lon="2.84369">
        <ele>575.62</ele>
        <time>2018-07-14T08:55:54.000Z</time>
      </trkpt>
      <trkpt lat="46.22996" lon="2.84353">
        <ele>575.44</ele>
        <time>2018-07-14T08:55:56.000Z</time>
      </trkpt>
      <trkpt lat="46.22996" lon="2.84335">
        <ele>575.28</ele>
        <time>2018-07-14T08:55:58.000Z</time>
      </trkpt>
      <trkpt lat="46.22995" lon="2.84319">
        <ele>575.2</ele>
        <time>2018-07-14T08:56:00.000Z</time>
      </trkpt>
      <trkpt lat="46.22995" lon="2.84301">
        <ele>574.92</ele>
        <time>2018-07-14T08:56:02.000Z</time>
      </trkpt>
      <trkpt lat="46.22995" lon="2.84284">
        <ele>574.6</ele>
        <time>2018-07-14T08:56:04.000Z</time>
      </trkpt>
      <trkpt lat="46.22994" lon="2.84265">
        <ele>574.3</ele>
        <time>2018-07-14T08:56:06.000Z</time>
      </trkpt>
      <trkpt lat="46.22993" lon="2.84244">
        <ele>573.59</ele>
        <time>2018-07-14T08:56:08.000Z</time>
      </trkpt>
      <trkpt lat="46.22993" lon="2.84224">
        <ele>572.9</ele>
        <time>2018-07-14T08:56:10.000Z</time>
      </trkpt>
      <trkpt lat="46.22992" lon="2.84206">
        <ele>572.43</ele>
        <time>2018-07-14T08:56:12.000Z</time>
      </trkpt>
      <trkpt lat="46.22992" lon="2.84186">
        <ele>572.42</ele>
        <time>2018-07-14T08:56:14.000Z</time>
      </trkpt>
      <trkpt lat="46.22991" lon="2.84162">
        <ele>572.42</ele>
        <time>2018-07-14T08:56:16.000Z</time>
      </trkpt>
      <trkpt lat="46.2299" lon="2.84139">
        <ele>572.78</ele>
        <time>2018-07-14T08:56:18.000Z</time>
      </trkpt>
      <trkpt lat="46.22989" lon="2.84114">
        <ele>572.73</ele>
        <time>2018-07-14T08:56:20.000Z</time>
      </trkpt>
      <trkpt lat="46.22989" lon="2.84089">
        <ele>573.03</ele>
        <time>2018-07-14T08:56:22.000Z</time>
      </trkpt>
      <trkpt lat="46.22989" lon="2.84063">
        <ele>573.08</ele>
        <time>2018-07-14T08:56:24.000Z</time>
      </trkpt>
      <trkpt lat="46.22989" lon="2.8405">
        <ele>572.88</ele>
        <time>2018-07-14T08:56:25.000Z</time>
      </trkpt>
      <trkpt lat="46.22987" lon="2.84037">
        <ele>572.93</ele>
        <time>2018-07-14T08:56:26.000Z</time>
      </trkpt>
      <trkpt lat="46.22987" lon="2.84024">
        <ele>573.16</ele>
        <time>2018-07-14T08:56:27.000Z</time>
      </trkpt>
      <trkpt lat="46.22986" lon="2.84011">
        <ele>573.23</ele>
        <time>2018-07-14T08:56:28.000Z</time>
      </trkpt>
      <trkpt lat="46.22985" lon="2.83997">
        <ele>573.13</ele>
        <time>2018-07-14T08:56:29.000Z</time>
      </trkpt>
      <trkpt lat="46.22984" lon="2.83983">
        <ele>572.96</ele>
        <time>2018-07-14T08:56:30.000Z</time>
      </trkpt>
      <trkpt lat="46.22984" lon="2.83968">
        <ele>572.8</ele>
        <time>2018-07-14T08:56:31.000Z</time>
      </trkpt>
      <trkpt lat="46.22984" lon="2.83955">
        <ele>572.81</ele>
        <time>2018-07-14T08:56:32.000Z</time>
      </trkpt>
      <trkpt lat="46.22985" lon="2.83941">
        <ele>573.18</ele>
        <time>2018-07-14T08:56:33.000Z</time>
      </trkpt>
      <trkpt lat="46.22987" lon="2.83928">
        <ele>573.48</ele>
        <time>2018-07-14T08:56:34.000Z</time>
      </trkpt>
      <trkpt lat="46.2299" lon="2.83914">
        <ele>573.7</ele>
        <time>2018-07-14T08:56:35.000Z</time>
      </trkpt>
      <trkpt lat="46.22994" lon="2.839">
        <ele>573.91</ele>
        <time>2018-07-14T08:56:36.000Z</time>
      </trkpt>
      <trkpt lat="46.22998" lon="2.83886">
        <ele>574.09</ele>
        <time>2018-07-14T08:56:37.000Z</time>
      </trkpt>
      <trkpt lat="46.23002" lon="2.83871">
        <ele>574.15</ele>
        <time>2018-07-14T08:56:38.000Z</time>
      </trkpt>
      <trkpt lat="46.23006" lon="2.83855">
        <ele>574.25</ele>
        <time>2018-07-14T08:56:39.000Z</time>
      </trkpt>
      <trkpt lat="46.2301" lon="2.8384">
        <ele>574.41</ele>
        <time>2018-07-14T08:56:40.000Z</time>
      </trkpt>
      <trkpt lat="46.23015" lon="2.83825">
        <ele>574.56</ele>
        <time>2018-07-14T08:56:41.000Z</time>
      </trkpt>
      <trkpt lat="46.23019" lon="2.83809">
        <ele>574.47</ele>
        <time>2018-07-14T08:56:42.000Z</time>
      </trkpt>
      <trkpt lat="46.23025" lon="2.83794">
        <ele>574.43</ele>
        <time>2018-07-14T08:56:43.000Z</time>
      </trkpt>
      <trkpt lat="46.23029" lon="2.83778">
        <ele>574.51</ele>
        <time>2018-07-14T08:56:44.000Z</time>
      </trkpt>
      <trkpt lat="46.23034" lon="2.83762">
        <ele>574.46</ele>
        <time>2018-07-14T08:56:45.000Z</time>
      </trkpt>
      <trkpt lat="46.23039" lon="2.83747">
        <ele>574.33</ele>
        <time>2018-07-14T08:56:46.000Z</time>
      </trkpt>
      <trkpt lat="46.23043" lon="2.83732">
        <ele>574.54</ele>
        <time>2018-07-14T08:56:47.000Z</time>
      </trkpt>
      <trkpt lat="46.23048" lon="2.83717">
        <ele>574.53</ele>
        <time>2018-07-14T08:56:48.000Z</time>
      </trkpt>
      <trkpt lat="46.23052" lon="2.83701">
        <ele>574.52</ele>
        <time>2018-07-14T08:56:49.000Z</time>
      </trkpt>
      <trkpt lat="46.23057" lon="2.83686">
        <ele>574.41</ele>
        <time>2018-07-14T08:56:50.000Z</time>
      </trkpt>
      <trkpt lat="46.23061" lon="2.83671">
        <ele>574.34</ele>
        <time>2018-07-14T08:56:51.000Z</time>
      </trkpt>
      <trkpt lat="46.23066" lon="2.83655">
        <ele>574.39</ele>
        <time>2018-07-14T08:56:52.000Z</time>
      </trkpt>
      <trkpt lat="46.2307" lon="2.83639">
        <ele>574.4</ele>
        <time>2018-07-14T08:56:53.000Z</time>
      </trkpt>
      <trkpt lat="46.23074" lon="2.83623">
        <ele>574.41</ele>
        <time>2018-07-14T08:56:54.000Z</time>
      </trkpt>
      <trkpt lat="46.23078" lon="2.83607">
        <ele>574.2</ele>
        <time>2018-07-14T08:56:55.000Z</time>
      </trkpt>
      <trkpt lat="46.23082" lon="2.8359">
        <ele>573.8</ele>
        <time>2018-07-14T08:56:56.000Z</time>
      </trkpt>
      <trkpt lat="46.23086" lon="2.83572">
        <ele>572.94</ele>
        <time>2018-07-14T08:56:57.000Z</time>
      </trkpt>
      <trkpt lat="46.2309" lon="2.83555">
        <ele>572.56</ele>
        <time>2018-07-14T08:56:58.000Z</time>
      </trkpt>
      <trkpt lat="46.23095" lon="2.83539">
        <ele>572.13</ele>
        <time>2018-07-14T08:56:59.000Z</time>
      </trkpt>
      <trkpt lat="46.231" lon="2.83524">
        <ele>571.98</ele>
        <time>2018-07-14T08:57:00.000Z</time>
      </trkpt>
      <trkpt lat="46.23106" lon="2.8351">
        <ele>571.88</ele>
        <time>2018-07-14T08:57:01.000Z</time>
      </trkpt>
      <trkpt lat="46.23113" lon="2.83497">
        <ele>571.82</ele>
        <time>2018-07-14T08:57:02.000Z</time>
      </trkpt>
      <trkpt lat="46.23121" lon="2.83483">
        <ele>571.57</ele>
        <time>2018-07-14T08:57:03.000Z</time>
      </trkpt>
      <trkpt lat="46.23128" lon="2.83469">
        <ele>571.26</ele>
        <time>2018-07-14T08:57:04.000Z</time>
      </trkpt>
      <trkpt lat="46.23133" lon="2.83453">
        <ele>570.63</ele>
        <time>2018-07-14T08:57:05.000Z</time>
      </trkpt>
      <trkpt lat="46.23139" lon="2.83438">
        <ele>569.8</ele>
        <time>2018-07-14T08:57:06.000Z</time>
      </trkpt>
      <trkpt lat="46.23142" lon="2.83421">
        <ele>568.49</ele>
        <time>2018-07-14T08:57:07.000Z</time>
      </trkpt>
      <trkpt lat="46.23142" lon="2.83402">
        <ele>567.59</ele>
        <time>2018-07-14T08:57:08.000Z</time>
      </trkpt>
      <trkpt lat="46.2314" lon="2.83384">
        <ele>567.09</ele>
        <time>2018-07-14T08:57:09.000Z</time>
      </trkpt>
      <trkpt lat="46.23137" lon="2.83365">
        <ele>566.74</ele>
        <time>2018-07-14T08:57:10.000Z</time>
      </trkpt>
      <trkpt lat="46.23135" lon="2.83347">
        <ele>566.57</ele>
        <time>2018-07-14T08:57:11.000Z</time>
      </trkpt>
      <trkpt lat="46.23134" lon="2.83329">
        <ele>566.26</ele>
        <time>2018-07-14T08:57:12.000Z</time>
      </trkpt>
      <trkpt lat="46.23134" lon="2.83311">
        <ele>566.19</ele>
        <time>2018-07-14T08:57:13.000Z</time>
      </trkpt>
      <trkpt lat="46.23134" lon="2.83293">
        <ele>566.18</ele>
        <time>2018-07-14T08:57:14.000Z</time>
      </trkpt>
      <trkpt lat="46.23134" lon="2.83276">
        <ele>566.09</ele>
        <time>2018-07-14T08:57:15.000Z</time>
      </trkpt>
      <trkpt lat="46.23134" lon="2.8326">
        <ele>565.85</ele>
        <time>2018-07-14T08:57:16.000Z</time>
      </trkpt>
      <trkpt lat="46.2314" lon="2.83241">
        <ele>565.48</ele>
        <time>2018-07-14T08:57:18.000Z</time>
      </trkpt>
      <trkpt lat="46.23149" lon="2.83231">
        <ele>565.21</ele>
        <time>2018-07-14T08:57:19.000Z</time>
      </trkpt>
      <trkpt lat="46.23161" lon="2.83219">
        <ele>565.03</ele>
        <time>2018-07-14T08:57:20.000Z</time>
      </trkpt>
      <trkpt lat="46.23175" lon="2.83208">
        <ele>564.89</ele>
        <time>2018-07-14T08:57:21.000Z</time>
      </trkpt>
      <trkpt lat="46.23189" lon="2.83198">
        <ele>564.89</ele>
        <time>2018-07-14T08:57:22.000Z</time>
      </trkpt>
      <trkpt lat="46.23203" lon="2.83189">
        <ele>564.85</ele>
        <time>2018-07-14T08:57:23.000Z</time>
      </trkpt>
      <trkpt lat="46.23218" lon="2.83179">
        <ele>564.87</ele>
        <time>2018-07-14T08:57:24.000Z</time>
      </trkpt>
      <trkpt lat="46.23233" lon="2.83169">
        <ele>564.62</ele>
        <time>2018-07-14T08:57:25.000Z</time>
      </trkpt>
      <trkpt lat="46.23245" lon="2.83157">
        <ele>564.2</ele>
        <time>2018-07-14T08:57:26.000Z</time>
      </trkpt>
      <trkpt lat="46.23258" lon="2.83146">
        <ele>563.94</ele>
        <time>2018-07-14T08:57:27.000Z</time>
      </trkpt>
      <trkpt lat="46.23271" lon="2.83134">
        <ele>563.56</ele>
        <time>2018-07-14T08:57:28.000Z</time>
      </trkpt>
      <trkpt lat="46.23282" lon="2.83124">
        <ele>563.2</ele>
        <time>2018-07-14T08:57:29.000Z</time>
      </trkpt>
      <trkpt lat="46.23294" lon="2.83115">
        <ele>563.05</ele>
        <time>2018-07-14T08:57:30.000Z</time>
      </trkpt>
      <trkpt lat="46.23305" lon="2.83109">
        <ele>562.61</ele>
        <time>2018-07-14T08:57:31.000Z</time>
      </trkpt>
      <trkpt lat="46.23317" lon="2.83102">
        <ele>562.34</ele>
        <time>2018-07-14T08:57:32.000Z</time>
      </trkpt>
      <trkpt lat="46.23329" lon="2.83095">
        <ele>561.89</ele>
        <time>2018-07-14T08:57:33.000Z</time>
      </trkpt>
      <trkpt lat="46.23341" lon="2.83088">
        <ele>561.24</ele>
        <time>2018-07-14T08:57:34.000Z</time>
      </trkpt>
      <trkpt lat="46.23352" lon="2.83079">
        <ele>559.18</ele>
        <time>2018-07-14T08:57:35.000Z</time>
      </trkpt>
      <trkpt lat="46.23363" lon="2.83077">
        <ele>558.14</ele>
        <time>2018-07-14T08:57:36.000Z</time>
      </trkpt>
      <trkpt lat="46.23375" lon="2.83076">
        <ele>557.13</ele>
        <time>2018-07-14T08:57:37.000Z</time>
      </trkpt>
      <trkpt lat="46.23386" lon="2.8308">
        <ele>556.94</ele>
        <time>2018-07-14T08:57:38.000Z</time>
      </trkpt>
      <trkpt lat="46.23397" lon="2.83085">
        <ele>556.64</ele>
        <time>2018-07-14T08:57:39.000Z</time>
      </trkpt>
      <trkpt lat="46.23409" lon="2.83088">
        <ele>555.99</ele>
        <time>2018-07-14T08:57:40.000Z</time>
      </trkpt>
      <trkpt lat="46.2342" lon="2.83091">
        <ele>555.1</ele>
        <time>2018-07-14T08:57:41.000Z</time>
      </trkpt>
      <trkpt lat="46.23431" lon="2.83094">
        <ele>554.51</ele>
        <time>2018-07-14T08:57:42.000Z</time>
      </trkpt>
      <trkpt lat="46.23441" lon="2.83095">
        <ele>553.28</ele>
        <time>2018-07-14T08:57:43.000Z</time>
      </trkpt>
      <trkpt lat="46.23451" lon="2.83096">
        <ele>552.01</ele>
        <time>2018-07-14T08:57:44.000Z</time>
      </trkpt>
      <trkpt lat="46.2346" lon="2.83095">
        <ele>551.34</ele>
        <time>2018-07-14T08:57:45.000Z</time>
      </trkpt>
      <trkpt lat="46.2347" lon="2.83094">
        <ele>550.68</ele>
        <time>2018-07-14T08:57:46.000Z</time>
      </trkpt>
      <trkpt lat="46.2348" lon="2.83092">
        <ele>550.22</ele>
        <time>2018-07-14T08:57:47.000Z</time>
      </trkpt>
      <trkpt lat="46.23489" lon="2.83088">
        <ele>549.47</ele>
        <time>2018-07-14T08:57:48.000Z</time>
      </trkpt>
      <trkpt lat="46.23497" lon="2.83083">
        <ele>548.84</ele>
        <time>2018-07-14T08:57:49.000Z</time>
      </trkpt>
      <trkpt lat="46.23506" lon="2.83078">
        <ele>548.26</ele>
        <time>2018-07-14T08:57:50.000Z</time>
      </trkpt>
      <trkpt lat="46.23521" lon="2.83066">
        <ele>547.31</ele>
        <time>2018-07-14T08:57:52.000Z</time>
      </trkpt>
      <trkpt lat="46.23535" lon="2.83055">
        <ele>546.45</ele>
        <time>2018-07-14T08:57:54.000Z</time>
      </trkpt>
      <trkpt lat="46.23548" lon="2.83042">
        <ele>545.72</ele>
        <time>2018-07-14T08:57:56.000Z</time>
      </trkpt>
      <trkpt lat="46.23558" lon="2.83027">
        <ele>545.06</ele>
        <time>2018-07-14T08:57:58.000Z</time>
      </trkpt>
      <trkpt lat="46.23567" lon="2.83009">
        <ele>544.38</ele>
        <time>2018-07-14T08:58:00.000Z</time>
      </trkpt>
      <trkpt lat="46.23573" lon="2.8299">
        <ele>543.73</ele>
        <time>2018-07-14T08:58:02.000Z</time>
      </trkpt>
      <trkpt lat="46.23576" lon="2.82971">
        <ele>543.04</ele>
        <time>2018-07-14T08:58:04.000Z</time>
      </trkpt>
      <trkpt lat="46.23579" lon="2.82952">
        <ele>542.55</ele>
        <time>2018-07-14T08:58:06.000Z</time>
      </trkpt>
      <trkpt lat="46.23581" lon="2.82934">
        <ele>541.92</ele>
        <time>2018-07-14T08:58:08.000Z</time>
      </trkpt>
      <trkpt lat="46.23583" lon="2.82913">
        <ele>541.65</ele>
        <time>2018-07-14T08:58:10.000Z</time>
      </trkpt>
      <trkpt lat="46.23586" lon="2.82895">
        <ele>541.19</ele>
        <time>2018-07-14T08:58:12.000Z</time>
      </trkpt>
      <trkpt lat="46.23589" lon="2.82877">
        <ele>540.73</ele>
        <time>2018-07-14T08:58:14.000Z</time>
      </trkpt>
      <trkpt lat="46.2359" lon="2.82858">
        <ele>540.51</ele>
        <time>2018-07-14T08:58:16.000Z</time>
      </trkpt>
      <trkpt lat="46.23591" lon="2.82842">
        <ele>540.16</ele>
        <time>2018-07-14T08:58:18.000Z</time>
      </trkpt>
      <trkpt lat="46.23592" lon="2.82826">
        <ele>539.78</ele>
        <time>2018-07-14T08:58:20.000Z</time>
      </trkpt>
      <trkpt lat="46.23593" lon="2.82812">
        <ele>539.82</ele>
        <time>2018-07-14T08:58:22.000Z</time>
      </trkpt>
      <trkpt lat="46.23595" lon="2.82797">
        <ele>540.06</ele>
        <time>2018-07-14T08:58:24.000Z</time>
      </trkpt>
      <trkpt lat="46.23598" lon="2.82782">
        <ele>540.55</ele>
        <time>2018-07-14T08:58:26.000Z</time>
      </trkpt>
      <trkpt lat="46.23601" lon="2.82766">
        <ele>541.17</ele>
        <time>2018-07-14T08:58:28.000Z</time>
      </trkpt>
      <trkpt lat="46.23604" lon="2.8275">
        <ele>541.5</ele>
        <time>2018-07-14T08:58:30.000Z</time>
      </trkpt>
      <trkpt lat="46.23608" lon="2.82735">
        <ele>541.85</ele>
        <time>2018-07-14T08:58:32.000Z</time>
      </trkpt>
      <trkpt lat="46.23614" lon="2.82719">
        <ele>541.96</ele>
        <time>2018-07-14T08:58:34.000Z</time>
      </trkpt>
      <trkpt lat="46.23621" lon="2.82705">
        <ele>542.63</ele>
        <time>2018-07-14T08:58:36.000Z</time>
      </trkpt>
      <trkpt lat="46.23631" lon="2.82692">
        <ele>542.8</ele>
        <time>2018-07-14T08:58:38.000Z</time>
      </trkpt>
      <trkpt lat="46.23641" lon="2.82681">
        <ele>543.47</ele>
        <time>2018-07-14T08:58:40.000Z</time>
      </trkpt>
      <trkpt lat="46.23652" lon="2.82669">
        <ele>544.09</ele>
        <time>2018-07-14T08:58:42.000Z</time>
      </trkpt>
      <trkpt lat="46.23665" lon="2.82654">
        <ele>544.53</ele>
        <time>2018-07-14T08:58:44.000Z</time>
      </trkpt>
      <trkpt lat="46.23677" lon="2.82638">
        <ele>544.88</ele>
        <time>2018-07-14T08:58:46.000Z</time>
      </trkpt>
      <trkpt lat="46.23691" lon="2.82621">
        <ele>545.17</ele>
        <time>2018-07-14T08:58:48.000Z</time>
      </trkpt>
      <trkpt lat="46.23698" lon="2.82612">
        <ele>545.26</ele>
        <time>2018-07-14T08:58:49.000Z</time>
      </trkpt>
      <trkpt lat="46.23706" lon="2.82602">
        <ele>545.37</ele>
        <time>2018-07-14T08:58:50.000Z</time>
      </trkpt>
      <trkpt lat="46.23714" lon="2.82593">
        <ele>545.53</ele>
        <time>2018-07-14T08:58:51.000Z</time>
      </trkpt>
      <trkpt lat="46.23722" lon="2.82584">
        <ele>545.73</ele>
        <time>2018-07-14T08:58:52.000Z</time>
      </trkpt>
      <trkpt lat="46.23731" lon="2.82574">
        <ele>545.96</ele>
        <time>2018-07-14T08:58:53.000Z</time>
      </trkpt>
      <trkpt lat="46.2374" lon="2.82564">
        <ele>545.91</ele>
        <time>2018-07-14T08:58:54.000Z</time>
      </trkpt>
      <trkpt lat="46.23748" lon="2.82553">
        <ele>545.94</ele>
        <time>2018-07-14T08:58:55.000Z</time>
      </trkpt>
      <trkpt lat="46.23756" lon="2.82542">
        <ele>546.03</ele>
        <time>2018-07-14T08:58:56.000Z</time>
      </trkpt>
      <trkpt lat="46.23765" lon="2.82531">
        <ele>546.07</ele>
        <time>2018-07-14T08:58:57.000Z</time>
      </trkpt>
      <trkpt lat="46.23773" lon="2.8252">
        <ele>546.07</ele>
        <time>2018-07-14T08:58:58.000Z</time>
      </trkpt>
      <trkpt lat="46.23782" lon="2.82508">
        <ele>546.08</ele>
        <time>2018-07-14T08:58:59.000Z</time>
      </trkpt>
      <trkpt lat="46.2379" lon="2.82497">
        <ele>546.2</ele>
        <time>2018-07-14T08:59:00.000Z</time>
      </trkpt>
      <trkpt lat="46.23798" lon="2.82486">
        <ele>546.21</ele>
        <time>2018-07-14T08:59:01.000Z</time>
      </trkpt>
      <trkpt lat="46.23807" lon="2.82474">
        <ele>545.82</ele>
        <time>2018-07-14T08:59:02.000Z</time>
      </trkpt>
      <trkpt lat="46.23815" lon="2.82463">
        <ele>545.9</ele>
        <time>2018-07-14T08:59:03.000Z</time>
      </trkpt>
      <trkpt lat="46.23823" lon="2.82452">
        <ele>545.88</ele>
        <time>2018-07-14T08:59:04.000Z</time>
      </trkpt>
      <trkpt lat="46.23831" lon="2.82441">
        <ele>545.73</ele>
        <time>2018-07-14T08:59:05.000Z</time>
      </trkpt>
      <trkpt lat="46.23839" lon="2.8243">
        <ele>545.78</ele>
        <time>2018-07-14T08:59:06.000Z</time>
      </trkpt>
      <trkpt lat="46.23847" lon="2.82418">
        <ele>545.73</ele>
        <time>2018-07-14T08:59:07.000Z</time>
      </trkpt>
      <trkpt lat="46.23855" lon="2.82407">
        <ele>545.89</ele>
        <time>2018-07-14T08:59:08.000Z</time>
      </trkpt>
      <trkpt lat="46.23863" lon="2.82394">
        <ele>546.08</ele>
        <time>2018-07-14T08:59:09.000Z</time>
      </trkpt>
      <trkpt lat="46.23871" lon="2.82383">
        <ele>545.86</ele>
        <time>2018-07-14T08:59:10.000Z</time>
      </trkpt>
      <trkpt lat="46.23878" lon="2.82373">
        <ele>545.75</ele>
        <time>2018-07-14T08:59:11.000Z</time>
      </trkpt>
      <trkpt lat="46.23886" lon="2.82363">
        <ele>545.35</ele>
        <time>2018-07-14T08:59:12.000Z</time>
      </trkpt>
      <trkpt lat="46.23893" lon="2.82352">
        <ele>545.09</ele>
        <time>2018-07-14T08:59:13.000Z</time>
      </trkpt>
      <trkpt lat="46.23901" lon="2.82342">
        <ele>544.81</ele>
        <time>2018-07-14T08:59:14.000Z</time>
      </trkpt>
      <trkpt lat="46.23909" lon="2.82331">
        <ele>544.66</ele>
        <time>2018-07-14T08:59:15.000Z</time>
      </trkpt>
      <trkpt lat="46.23917" lon="2.8232">
        <ele>544.57</ele>
        <time>2018-07-14T08:59:16.000Z</time>
      </trkpt>
      <trkpt lat="46.23924" lon="2.8231">
        <ele>544.54</ele>
        <time>2018-07-14T08:59:17.000Z</time>
      </trkpt>
      <trkpt lat="46.23932" lon="2.823">
        <ele>544.79</ele>
        <time>2018-07-14T08:59:18.000Z</time>
      </trkpt>
      <trkpt lat="46.2394" lon="2.8229">
        <ele>544.86</ele>
        <time>2018-07-14T08:59:19.000Z</time>
      </trkpt>
      <trkpt lat="46.23947" lon="2.82281">
        <ele>545.09</ele>
        <time>2018-07-14T08:59:20.000Z</time>
      </trkpt>
      <trkpt lat="46.23954" lon="2.82272">
        <ele>545.5</ele>
        <time>2018-07-14T08:59:21.000Z</time>
      </trkpt>
      <trkpt lat="46.23962" lon="2.82263">
        <ele>545.86</ele>
        <time>2018-07-14T08:59:22.000Z</time>
      </trkpt>
      <trkpt lat="46.2397" lon="2.82254">
        <ele>546.05</ele>
        <time>2018-07-14T08:59:23.000Z</time>
      </trkpt>
      <trkpt lat="46.23978" lon="2.82245">
        <ele>546.13</ele>
        <time>2018-07-14T08:59:24.000Z</time>
      </trkpt>
      <trkpt lat="46.23986" lon="2.82236">
        <ele>546.33</ele>
        <time>2018-07-14T08:59:25.000Z</time>
      </trkpt>
      <trkpt lat="46.23993" lon="2.82226">
        <ele>546.22</ele>
        <time>2018-07-14T08:59:26.000Z</time>
      </trkpt>
      <trkpt lat="46.24001" lon="2.82217">
        <ele>545.9</ele>
        <time>2018-07-14T08:59:27.000Z</time>
      </trkpt>
      <trkpt lat="46.24009" lon="2.82208">
        <ele>545.67</ele>
        <time>2018-07-14T08:59:28.000Z</time>
      </trkpt>
      <trkpt lat="46.24016" lon="2.82199">
        <ele>545.34</ele>
        <time>2018-07-14T08:59:29.000Z</time>
      </trkpt>
      <trkpt lat="46.24023" lon="2.8219">
        <ele>545.17</ele>
        <time>2018-07-14T08:59:30.000Z</time>
      </trkpt>
      <trkpt lat="46.24031" lon="2.8218">
        <ele>545.08</ele>
        <time>2018-07-14T08:59:31.000Z</time>
      </trkpt>
      <trkpt lat="46.2404" lon="2.82169">
        <ele>544.78</ele>
        <time>2018-07-14T08:59:32.000Z</time>
      </trkpt>
      <trkpt lat="46.24048" lon="2.82158">
        <ele>544.33</ele>
        <time>2018-07-14T08:59:33.000Z</time>
      </trkpt>
      <trkpt lat="46.24057" lon="2.82147">
        <ele>543.84</ele>
        <time>2018-07-14T08:59:34.000Z</time>
      </trkpt>
      <trkpt lat="46.24065" lon="2.82136">
        <ele>543.47</ele>
        <time>2018-07-14T08:59:35.000Z</time>
      </trkpt>
      <trkpt lat="46.24074" lon="2.82126">
        <ele>543.19</ele>
        <time>2018-07-14T08:59:36.000Z</time>
      </trkpt>
      <trkpt lat="46.24083" lon="2.82115">
        <ele>542.72</ele>
        <time>2018-07-14T08:59:37.000Z</time>
      </trkpt>
      <trkpt lat="46.24091" lon="2.82104">
        <ele>542.43</ele>
        <time>2018-07-14T08:59:38.000Z</time>
      </trkpt>
      <trkpt lat="46.241" lon="2.82092">
        <ele>542.42</ele>
        <time>2018-07-14T08:59:39.000Z</time>
      </trkpt>
      <trkpt lat="46.24109" lon="2.82081">
        <ele>542.12</ele>
        <time>2018-07-14T08:59:40.000Z</time>
      </trkpt>
      <trkpt lat="46.24118" lon="2.82068">
        <ele>541.93</ele>
        <time>2018-07-14T08:59:41.000Z</time>
      </trkpt>
      <trkpt lat="46.24126" lon="2.82057">
        <ele>541.5</ele>
        <time>2018-07-14T08:59:42.000Z</time>
      </trkpt>
      <trkpt lat="46.24135" lon="2.82046">
        <ele>541.19</ele>
        <time>2018-07-14T08:59:43.000Z</time>
      </trkpt>
      <trkpt lat="46.24143" lon="2.82035">
        <ele>540.98</ele>
        <time>2018-07-14T08:59:44.000Z</time>
      </trkpt>
      <trkpt lat="46.24151" lon="2.82024">
        <ele>540.71</ele>
        <time>2018-07-14T08:59:45.000Z</time>
      </trkpt>
      <trkpt lat="46.24159" lon="2.82013">
        <ele>540.52</ele>
        <time>2018-07-14T08:59:46.000Z</time>
      </trkpt>
      <trkpt lat="46.24167" lon="2.82002">
        <ele>540.36</ele>
        <time>2018-07-14T08:59:47.000Z</time>
      </trkpt>
      <trkpt lat="46.24174" lon="2.81992">
        <ele>540.13</ele>
        <time>2018-07-14T08:59:48.000Z</time>
      </trkpt>
      <trkpt lat="46.24181" lon="2.81982">
        <ele>539.96</ele>
        <time>2018-07-14T08:59:49.000Z</time>
      </trkpt>
      <trkpt lat="46.24189" lon="2.81971">
        <ele>539.66</ele>
        <time>2018-07-14T08:59:50.000Z</time>
      </trkpt>
      <trkpt lat="46.24196" lon="2.81959">
        <ele>539.3</ele>
        <time>2018-07-14T08:59:51.000Z</time>
      </trkpt>
      <trkpt lat="46.24204" lon="2.81947">
        <ele>538.83</ele>
        <time>2018-07-14T08:59:52.000Z</time>
      </trkpt>
      <trkpt lat="46.24213" lon="2.81936">
        <ele>538.39</ele>
        <time>2018-07-14T08:59:53.000Z</time>
      </trkpt>
      <trkpt lat="46.24221" lon="2.81924">
        <ele>537.98</ele>
        <time>2018-07-14T08:59:54.000Z</time>
      </trkpt>
      <trkpt lat="46.24229" lon="2.81912">
        <ele>537.62</ele>
        <time>2018-07-14T08:59:55.000Z</time>
      </trkpt>
      <trkpt lat="46.24238" lon="2.81899">
        <ele>537.16</ele>
        <time>2018-07-14T08:59:56.000Z</time>
      </trkpt>
      <trkpt lat="46.24247" lon="2.81888">
        <ele>536.54</ele>
        <time>2018-07-14T08:59:57.000Z</time>
      </trkpt>
      <trkpt lat="46.24256" lon="2.81878">
        <ele>535.61</ele>
        <time>2018-07-14T08:59:58.000Z</time>
      </trkpt>
      <trkpt lat="46.24264" lon="2.81868">
        <ele>535.15</ele>
        <time>2018-07-14T08:59:59.000Z</time>
      </trkpt>
      <trkpt lat="46.24271" lon="2.81858">
        <ele>534.71</ele>
        <time>2018-07-14T09:00:00.000Z</time>
      </trkpt>
      <trkpt lat="46.24279" lon="2.81847">
        <ele>534.34</ele>
        <time>2018-07-14T09:00:01.000Z</time>
      </trkpt>
      <trkpt lat="46.24286" lon="2.81837">
        <ele>533.86</ele>
        <time>2018-07-14T09:00:02.000Z</time>
      </trkpt>
      <trkpt lat="46.24294" lon="2.81828">
        <ele>533.31</ele>
        <time>2018-07-14T09:00:03.000Z</time>
      </trkpt>
      <trkpt lat="46.243" lon="2.81819">
        <ele>533.13</ele>
        <time>2018-07-14T09:00:04.000Z</time>
      </trkpt>
      <trkpt lat="46.24307" lon="2.81809">
        <ele>533.11</ele>
        <time>2018-07-14T09:00:05.000Z</time>
      </trkpt>
      <trkpt lat="46.24313" lon="2.818">
        <ele>533.1</ele>
        <time>2018-07-14T09:00:06.000Z</time>
      </trkpt>
      <trkpt lat="46.24326" lon="2.81782">
        <ele>532.92</ele>
        <time>2018-07-14T09:00:08.000Z</time>
      </trkpt>
      <trkpt lat="46.24337" lon="2.81766">
        <ele>532.31</ele>
        <time>2018-07-14T09:00:10.000Z</time>
      </trkpt>
      <trkpt lat="46.24349" lon="2.81748">
        <ele>531.41</ele>
        <time>2018-07-14T09:00:12.000Z</time>
      </trkpt>
      <trkpt lat="46.24361" lon="2.81731">
        <ele>530.66</ele>
        <time>2018-07-14T09:00:14.000Z</time>
      </trkpt>
      <trkpt lat="46.24371" lon="2.81712">
        <ele>529.33</ele>
        <time>2018-07-14T09:00:16.000Z</time>
      </trkpt>
      <trkpt lat="46.24382" lon="2.81693">
        <ele>527.49</ele>
        <time>2018-07-14T09:00:18.000Z</time>
      </trkpt>
      <trkpt lat="46.24392" lon="2.81671">
        <ele>526.14</ele>
        <time>2018-07-14T09:00:20.000Z</time>
      </trkpt>
      <trkpt lat="46.24404" lon="2.8165">
        <ele>525.17</ele>
        <time>2018-07-14T09:00:22.000Z</time>
      </trkpt>
      <trkpt lat="46.2441" lon="2.8164">
        <ele>524.81</ele>
        <time>2018-07-14T09:00:23.000Z</time>
      </trkpt>
      <trkpt lat="46.24423" lon="2.81621">
        <ele>524.35</ele>
        <time>2018-07-14T09:00:25.000Z</time>
      </trkpt>
      <trkpt lat="46.24435" lon="2.81604">
        <ele>523.82</ele>
        <time>2018-07-14T09:00:27.000Z</time>
      </trkpt>
      <trkpt lat="46.24448" lon="2.81588">
        <ele>523.69</ele>
        <time>2018-07-14T09:00:29.000Z</time>
      </trkpt>
      <trkpt lat="46.24461" lon="2.81573">
        <ele>523.88</ele>
        <time>2018-07-14T09:00:31.000Z</time>
      </trkpt>
      <trkpt lat="46.24474" lon="2.8156">
        <ele>524.56</ele>
        <time>2018-07-14T09:00:33.000Z</time>
      </trkpt>
      <trkpt lat="46.24485" lon="2.81547">
        <ele>524.92</ele>
        <time>2018-07-14T09:00:35.000Z</time>
      </trkpt>
      <trkpt lat="46.24496" lon="2.81531">
        <ele>524.86</ele>
        <time>2018-07-14T09:00:37.000Z</time>
      </trkpt>
      <trkpt lat="46.24508" lon="2.81515">
        <ele>524.31</ele>
        <time>2018-07-14T09:00:39.000Z</time>
      </trkpt>
      <trkpt lat="46.24518" lon="2.81502">
        <ele>524.95</ele>
        <time>2018-07-14T09:00:41.000Z</time>
      </trkpt>
      <trkpt lat="46.2453" lon="2.81487">
        <ele>525.27</ele>
        <time>2018-07-14T09:00:43.000Z</time>
      </trkpt>
      <trkpt lat="46.24542" lon="2.81473">
        <ele>525.61</ele>
        <time>2018-07-14T09:00:45.000Z</time>
      </trkpt>
      <trkpt lat="46.24554" lon="2.81459">
        <ele>526.66</ele>
        <time>2018-07-14T09:00:47.000Z</time>
      </trkpt>
      <trkpt lat="46.24565" lon="2.81444">
        <ele>527.06</ele>
        <time>2018-07-14T09:00:49.000Z</time>
      </trkpt>
      <trkpt lat="46.24576" lon="2.8143">
        <ele>527.35</ele>
        <time>2018-07-14T09:00:51.000Z</time>
      </trkpt>
      <trkpt lat="46.24587" lon="2.81417">
        <ele>527.84</ele>
        <time>2018-07-14T09:00:53.000Z</time>
      </trkpt>
      <trkpt lat="46.24598" lon="2.81402">
        <ele>528.5</ele>
        <time>2018-07-14T09:00:55.000Z</time>
      </trkpt>
      <trkpt lat="46.24609" lon="2.81387">
        <ele>529.38</ele>
        <time>2018-07-14T09:00:57.000Z</time>
      </trkpt>
      <trkpt lat="46.2462" lon="2.81372">
        <ele>529.72</ele>
        <time>2018-07-14T09:00:59.000Z</time>
      </trkpt>
      <trkpt lat="46.24632" lon="2.81356">
        <ele>529.78</ele>
        <time>2018-07-14T09:01:01.000Z</time>
      </trkpt>
      <trkpt lat="46.24643" lon="2.81337">
        <ele>529.7</ele>
        <time>2018-07-14T09:01:03.000Z</time>
      </trkpt>
      <trkpt lat="46.24656" lon="2.81319">
        <ele>529.21</ele>
        <time>2018-07-14T09:01:05.000Z</time>
      </trkpt>
      <trkpt lat="46.24668" lon="2.81301">
        <ele>528.52</ele>
        <time>2018-07-14T09:01:07.000Z</time>
      </trkpt>
      <trkpt lat="46.2468" lon="2.81283">
        <ele>527.98</ele>
        <time>2018-07-14T09:01:09.000Z</time>
      </trkpt>
      <trkpt lat="46.24692" lon="2.81264">
        <ele>527.79</ele>
        <time>2018-07-14T09:01:11.000Z</time>
      </trkpt>
      <trkpt lat="46.24704" lon="2.81246">
        <ele>527.24</ele>
        <time>2018-07-14T09:01:13.000Z</time>
      </trkpt>
      <trkpt lat="46.24711" lon="2.81236">
        <ele>526.8</ele>
        <time>2018-07-14T09:01:14.000Z</time>
      </trkpt>
      <trkpt lat="46.24717" lon="2.81226">
        <ele>526.45</ele>
        <time>2018-07-14T09:01:15.000Z</time>
      </trkpt>
      <trkpt lat="46.24723" lon="2.81216">
        <ele>526.13</ele>
        <time>2018-07-14T09:01:16.000Z</time>
      </trkpt>
      <trkpt lat="46.2473" lon="2.81206">
        <ele>526.08</ele>
        <time>2018-07-14T09:01:17.000Z</time>
      </trkpt>
      <trkpt lat="46.24736" lon="2.81195">
        <ele>525.93</ele>
        <time>2018-07-14T09:01:18.000Z</time>
      </trkpt>
      <trkpt lat="46.24741" lon="2.81184">
        <ele>526.04</ele>
        <time>2018-07-14T09:01:19.000Z</time>
      </trkpt>
      <trkpt lat="46.24745" lon="2.8117">
        <ele>526.02</ele>
        <time>2018-07-14T09:01:20.000Z</time>
      </trkpt>
      <trkpt lat="46.24748" lon="2.81156">
        <ele>526.04</ele>
        <time>2018-07-14T09:01:21.000Z</time>
      </trkpt>
      <trkpt lat="46.24751" lon="2.81141">
        <ele>526.38</ele>
        <time>2018-07-14T09:01:22.000Z</time>
      </trkpt>
      <trkpt lat="46.24754" lon="2.81125">
        <ele>526.4</ele>
        <time>2018-07-14T09:01:23.000Z</time>
      </trkpt>
      <trkpt lat="46.24756" lon="2.81112">
        <ele>526.08</ele>
        <time>2018-07-14T09:01:24.000Z</time>
      </trkpt>
      <trkpt lat="46.24758" lon="2.81098">
        <ele>525.91</ele>
        <time>2018-07-14T09:01:25.000Z</time>
      </trkpt>
      <trkpt lat="46.24762" lon="2.81083">
        <ele>525.72</ele>
        <time>2018-07-14T09:01:26.000Z</time>
      </trkpt>
      <trkpt lat="46.24766" lon="2.81068">
        <ele>525.39</ele>
        <time>2018-07-14T09:01:27.000Z</time>
      </trkpt>
      <trkpt lat="46.24771" lon="2.81054">
        <ele>525.3</ele>
        <time>2018-07-14T09:01:28.000Z</time>
      </trkpt>
      <trkpt lat="46.24775" lon="2.81039">
        <ele>525.41</ele>
        <time>2018-07-14T09:01:29.000Z</time>
      </trkpt>
      <trkpt lat="46.24779" lon="2.81026">
        <ele>525.72</ele>
        <time>2018-07-14T09:01:30.000Z</time>
      </trkpt>
      <trkpt lat="46.24786" lon="2.81013">
        <ele>525.91</ele>
        <time>2018-07-14T09:01:31.000Z</time>
      </trkpt>
      <trkpt lat="46.24791" lon="2.81">
        <ele>525.82</ele>
        <time>2018-07-14T09:01:32.000Z</time>
      </trkpt>
      <trkpt lat="46.24797" lon="2.80989">
        <ele>525.73</ele>
        <time>2018-07-14T09:01:33.000Z</time>
      </trkpt>
      <trkpt lat="46.24802" lon="2.80977">
        <ele>525.53</ele>
        <time>2018-07-14T09:01:34.000Z</time>
      </trkpt>
      <trkpt lat="46.24809" lon="2.80966">
        <ele>525.21</ele>
        <time>2018-07-14T09:01:35.000Z</time>
      </trkpt>
      <trkpt lat="46.24814" lon="2.80956">
        <ele>524.86</ele>
        <time>2018-07-14T09:01:36.000Z</time>
      </trkpt>
      <trkpt lat="46.24823" lon="2.80936">
        <ele>524.95</ele>
        <time>2018-07-14T09:01:38.000Z</time>
      </trkpt>
      <trkpt lat="46.24832" lon="2.80919">
        <ele>525.1</ele>
        <time>2018-07-14T09:01:40.000Z</time>
      </trkpt>
      <trkpt lat="46.24838" lon="2.80901">
        <ele>525.52</ele>
        <time>2018-07-14T09:01:42.000Z</time>
      </trkpt>
      <trkpt lat="46.24846" lon="2.80882">
        <ele>525.75</ele>
        <time>2018-07-14T09:01:44.000Z</time>
      </trkpt>
      <trkpt lat="46.24852" lon="2.80863">
        <ele>525.84</ele>
        <time>2018-07-14T09:01:46.000Z</time>
      </trkpt>
      <trkpt lat="46.2486" lon="2.80845">
        <ele>526</ele>
        <time>2018-07-14T09:01:48.000Z</time>
      </trkpt>
      <trkpt lat="46.24868" lon="2.80828">
        <ele>526.51</ele>
        <time>2018-07-14T09:01:50.000Z</time>
      </trkpt>
      <trkpt lat="46.24876" lon="2.80812">
        <ele>527.05</ele>
        <time>2018-07-14T09:01:52.000Z</time>
      </trkpt>
      <trkpt lat="46.24884" lon="2.80793">
        <ele>527.29</ele>
        <time>2018-07-14T09:01:54.000Z</time>
      </trkpt>
      <trkpt lat="46.24892" lon="2.80776">
        <ele>527.34</ele>
        <time>2018-07-14T09:01:56.000Z</time>
      </trkpt>
      <trkpt lat="46.24901" lon="2.80759">
        <ele>527.34</ele>
        <time>2018-07-14T09:01:58.000Z</time>
      </trkpt>
      <trkpt lat="46.24913" lon="2.80744">
        <ele>527.41</ele>
        <time>2018-07-14T09:02:00.000Z</time>
      </trkpt>
      <trkpt lat="46.24926" lon="2.80729">
        <ele>527.51</ele>
        <time>2018-07-14T09:02:02.000Z</time>
      </trkpt>
      <trkpt lat="46.24941" lon="2.80722">
        <ele>527.61</ele>
        <time>2018-07-14T09:02:04.000Z</time>
      </trkpt>
      <trkpt lat="46.24958" lon="2.80722">
        <ele>528.44</ele>
        <time>2018-07-14T09:02:06.000Z</time>
      </trkpt>
      <trkpt lat="46.24974" lon="2.80716">
        <ele>528.44</ele>
        <time>2018-07-14T09:02:08.000Z</time>
      </trkpt>
      <trkpt lat="46.24989" lon="2.80708">
        <ele>528.5</ele>
        <time>2018-07-14T09:02:10.000Z</time>
      </trkpt>
      <trkpt lat="46.25002" lon="2.80702">
        <ele>528.58</ele>
        <time>2018-07-14T09:02:12.000Z</time>
      </trkpt>
      <trkpt lat="46.25016" lon="2.80695">
        <ele>528.62</ele>
        <time>2018-07-14T09:02:14.000Z</time>
      </trkpt>
      <trkpt lat="46.2503" lon="2.80689">
        <ele>528.4</ele>
        <time>2018-07-14T09:02:16.000Z</time>
      </trkpt>
      <trkpt lat="46.25045" lon="2.80681">
        <ele>528.23</ele>
        <time>2018-07-14T09:02:18.000Z</time>
      </trkpt>
      <trkpt lat="46.25058" lon="2.80673">
        <ele>528.59</ele>
        <time>2018-07-14T09:02:20.000Z</time>
      </trkpt>
      <trkpt lat="46.25072" lon="2.80665">
        <ele>528.45</ele>
        <time>2018-07-14T09:02:22.000Z</time>
      </trkpt>
      <trkpt lat="46.25086" lon="2.80658">
        <ele>528.12</ele>
        <time>2018-07-14T09:02:24.000Z</time>
      </trkpt>
      <trkpt lat="46.251" lon="2.80651">
        <ele>527.84</ele>
        <time>2018-07-14T09:02:26.000Z</time>
      </trkpt>
      <trkpt lat="46.25113" lon="2.80644">
        <ele>527.71</ele>
        <time>2018-07-14T09:02:28.000Z</time>
      </trkpt>
      <trkpt lat="46.25126" lon="2.80635">
        <ele>527.3</ele>
        <time>2018-07-14T09:02:30.000Z</time>
      </trkpt>
      <trkpt lat="46.2514" lon="2.80625">
        <ele>527.6</ele>
        <time>2018-07-14T09:02:32.000Z</time>
      </trkpt>
      <trkpt lat="46.25155" lon="2.80617">
        <ele>527.56</ele>
        <time>2018-07-14T09:02:34.000Z</time>
      </trkpt>
      <trkpt lat="46.25172" lon="2.80607">
        <ele>526.53</ele>
        <time>2018-07-14T09:02:36.000Z</time>
      </trkpt>
      <trkpt lat="46.25188" lon="2.80598">
        <ele>525.8</ele>
        <time>2018-07-14T09:02:38.000Z</time>
      </trkpt>
      <trkpt lat="46.25198" lon="2.80593">
        <ele>524.82</ele>
        <time>2018-07-14T09:02:39.000Z</time>
      </trkpt>
      <trkpt lat="46.25208" lon="2.80587">
        <ele>523.75</ele>
        <time>2018-07-14T09:02:40.000Z</time>
      </trkpt>
      <trkpt lat="46.25218" lon="2.80582">
        <ele>522.52</ele>
        <time>2018-07-14T09:02:41.000Z</time>
      </trkpt>
      <trkpt lat="46.25229" lon="2.80577">
        <ele>521.19</ele>
        <time>2018-07-14T09:02:42.000Z</time>
      </trkpt>
      <trkpt lat="46.25239" lon="2.80572">
        <ele>520.84</ele>
        <time>2018-07-14T09:02:43.000Z</time>
      </trkpt>
      <trkpt lat="46.25249" lon="2.80567">
        <ele>520.54</ele>
        <time>2018-07-14T09:02:44.000Z</time>
      </trkpt>
      <trkpt lat="46.2526" lon="2.80562">
        <ele>520.06</ele>
        <time>2018-07-14T09:02:45.000Z</time>
      </trkpt>
      <trkpt lat="46.2527" lon="2.80557">
        <ele>519.51</ele>
        <time>2018-07-14T09:02:46.000Z</time>
      </trkpt>
      <trkpt lat="46.2528" lon="2.80552">
        <ele>519.29</ele>
        <time>2018-07-14T09:02:47.000Z</time>
      </trkpt>
      <trkpt lat="46.2529" lon="2.80547">
        <ele>519.08</ele>
        <time>2018-07-14T09:02:48.000Z</time>
      </trkpt>
      <trkpt lat="46.25301" lon="2.80542">
        <ele>518.79</ele>
        <time>2018-07-14T09:02:49.000Z</time>
      </trkpt>
      <trkpt lat="46.25311" lon="2.80536">
        <ele>518.58</ele>
        <time>2018-07-14T09:02:50.000Z</time>
      </trkpt>
      <trkpt lat="46.25321" lon="2.80531">
        <ele>518.5</ele>
        <time>2018-07-14T09:02:51.000Z</time>
      </trkpt>
      <trkpt lat="46.25331" lon="2.80525">
        <ele>518.39</ele>
        <time>2018-07-14T09:02:52.000Z</time>
      </trkpt>
      <trkpt lat="46.25341" lon="2.8052">
        <ele>518.24</ele>
        <time>2018-07-14T09:02:53.000Z</time>
      </trkpt>
      <trkpt lat="46.25351" lon="2.80515">
        <ele>517.95</ele>
        <time>2018-07-14T09:02:54.000Z</time>
      </trkpt>
      <trkpt lat="46.25362" lon="2.8051">
        <ele>517.46</ele>
        <time>2018-07-14T09:02:55.000Z</time>
      </trkpt>
      <trkpt lat="46.25372" lon="2.80505">
        <ele>517.16</ele>
        <time>2018-07-14T09:02:56.000Z</time>
      </trkpt>
      <trkpt lat="46.25383" lon="2.80499">
        <ele>516.69</ele>
        <time>2018-07-14T09:02:57.000Z</time>
      </trkpt>
      <trkpt lat="46.25393" lon="2.80494">
        <ele>516.26</ele>
        <time>2018-07-14T09:02:58.000Z</time>
      </trkpt>
      <trkpt lat="46.25404" lon="2.80488">
        <ele>516.03</ele>
        <time>2018-07-14T09:02:59.000Z</time>
      </trkpt>
      <trkpt lat="46.25414" lon="2.80484">
        <ele>515.84</ele>
        <time>2018-07-14T09:03:00.000Z</time>
      </trkpt>
      <trkpt lat="46.25423" lon="2.80479">
        <ele>515.96</ele>
        <time>2018-07-14T09:03:01.000Z</time>
      </trkpt>
      <trkpt lat="46.25434" lon="2.80474">
        <ele>515.78</ele>
        <time>2018-07-14T09:03:02.000Z</time>
      </trkpt>
      <trkpt lat="46.25444" lon="2.80469">
        <ele>515.61</ele>
        <time>2018-07-14T09:03:03.000Z</time>
      </trkpt>
      <trkpt lat="46.25454" lon="2.80464">
        <ele>515.54</ele>
        <time>2018-07-14T09:03:04.000Z</time>
      </trkpt>
      <trkpt lat="46.25464" lon="2.8046">
        <ele>515.29</ele>
        <time>2018-07-14T09:03:05.000Z</time>
      </trkpt>
      <trkpt lat="46.25473" lon="2.80455">
        <ele>515.16</ele>
        <time>2018-07-14T09:03:06.000Z</time>
      </trkpt>
      <trkpt lat="46.25483" lon="2.8045">
        <ele>515.03</ele>
        <time>2018-07-14T09:03:07.000Z</time>
      </trkpt>
      <trkpt lat="46.25494" lon="2.80444">
        <ele>514.68</ele>
        <time>2018-07-14T09:03:08.000Z</time>
      </trkpt>
      <trkpt lat="46.25504" lon="2.80438">
        <ele>514.51</ele>
        <time>2018-07-14T09:03:09.000Z</time>
      </trkpt>
      <trkpt lat="46.25514" lon="2.80433">
        <ele>514.46</ele>
        <time>2018-07-14T09:03:10.000Z</time>
      </trkpt>
      <trkpt lat="46.25523" lon="2.80428">
        <ele>514.36</ele>
        <time>2018-07-14T09:03:11.000Z</time>
      </trkpt>
      <trkpt lat="46.25533" lon="2.80423">
        <ele>514.46</ele>
        <time>2018-07-14T09:03:12.000Z</time>
      </trkpt>
      <trkpt lat="46.25542" lon="2.80417">
        <ele>514.4</ele>
        <time>2018-07-14T09:03:13.000Z</time>
      </trkpt>
      <trkpt lat="46.25551" lon="2.80412">
        <ele>514.33</ele>
        <time>2018-07-14T09:03:14.000Z</time>
      </trkpt>
      <trkpt lat="46.2556" lon="2.80407">
        <ele>514.38</ele>
        <time>2018-07-14T09:03:15.000Z</time>
      </trkpt>
      <trkpt lat="46.2557" lon="2.80403">
        <ele>514.46</ele>
        <time>2018-07-14T09:03:16.000Z</time>
      </trkpt>
      <trkpt lat="46.25579" lon="2.80398">
        <ele>514.18</ele>
        <time>2018-07-14T09:03:17.000Z</time>
      </trkpt>
      <trkpt lat="46.25588" lon="2.80393">
        <ele>513.94</ele>
        <time>2018-07-14T09:03:18.000Z</time>
      </trkpt>
      <trkpt lat="46.25597" lon="2.80387">
        <ele>513.75</ele>
        <time>2018-07-14T09:03:19.000Z</time>
      </trkpt>
      <trkpt lat="46.25606" lon="2.80382">
        <ele>513.39</ele>
        <time>2018-07-14T09:03:20.000Z</time>
      </trkpt>
      <trkpt lat="46.25615" lon="2.80376">
        <ele>512.89</ele>
        <time>2018-07-14T09:03:21.000Z</time>
      </trkpt>
      <trkpt lat="46.25625" lon="2.80371">
        <ele>512.55</ele>
        <time>2018-07-14T09:03:22.000Z</time>
      </trkpt>
      <trkpt lat="46.25634" lon="2.80365">
        <ele>512.25</ele>
        <time>2018-07-14T09:03:23.000Z</time>
      </trkpt>
      <trkpt lat="46.25644" lon="2.80359">
        <ele>511.87</ele>
        <time>2018-07-14T09:03:24.000Z</time>
      </trkpt>
      <trkpt lat="46.25653" lon="2.80353">
        <ele>511.5</ele>
        <time>2018-07-14T09:03:25.000Z</time>
      </trkpt>
      <trkpt lat="46.25662" lon="2.80348">
        <ele>511.4</ele>
        <time>2018-07-14T09:03:26.000Z</time>
      </trkpt>
      <trkpt lat="46.2567" lon="2.80343">
        <ele>511.31</ele>
        <time>2018-07-14T09:03:27.000Z</time>
      </trkpt>
      <trkpt lat="46.25687" lon="2.80333">
        <ele>511.33</ele>
        <time>2018-07-14T09:03:29.000Z</time>
      </trkpt>
      <trkpt lat="46.25695" lon="2.80328">
        <ele>511.43</ele>
        <time>2018-07-14T09:03:30.000Z</time>
      </trkpt>
      <trkpt lat="46.25705" lon="2.80324">
        <ele>511.62</ele>
        <time>2018-07-14T09:03:31.000Z</time>
      </trkpt>
      <trkpt lat="46.25714" lon="2.8032">
        <ele>511.75</ele>
        <time>2018-07-14T09:03:32.000Z</time>
      </trkpt>
      <trkpt lat="46.25724" lon="2.80315">
        <ele>511.79</ele>
        <time>2018-07-14T09:03:33.000Z</time>
      </trkpt>
      <trkpt lat="46.25733" lon="2.80311">
        <ele>512.01</ele>
        <time>2018-07-14T09:03:34.000Z</time>
      </trkpt>
      <trkpt lat="46.25742" lon="2.80306">
        <ele>511.92</ele>
        <time>2018-07-14T09:03:35.000Z</time>
      </trkpt>
      <trkpt lat="46.25752" lon="2.80301">
        <ele>511.74</ele>
        <time>2018-07-14T09:03:36.000Z</time>
      </trkpt>
      <trkpt lat="46.25762" lon="2.80297">
        <ele>511.09</ele>
        <time>2018-07-14T09:03:37.000Z</time>
      </trkpt>
      <trkpt lat="46.25771" lon="2.80292">
        <ele>510.63</ele>
        <time>2018-07-14T09:03:38.000Z</time>
      </trkpt>
      <trkpt lat="46.25781" lon="2.80287">
        <ele>510.22</ele>
        <time>2018-07-14T09:03:39.000Z</time>
      </trkpt>
      <trkpt lat="46.2579" lon="2.80282">
        <ele>509.86</ele>
        <time>2018-07-14T09:03:40.000Z</time>
      </trkpt>
      <trkpt lat="46.25799" lon="2.80277">
        <ele>509.48</ele>
        <time>2018-07-14T09:03:41.000Z</time>
      </trkpt>
      <trkpt lat="46.25808" lon="2.80273">
        <ele>509.13</ele>
        <time>2018-07-14T09:03:42.000Z</time>
      </trkpt>
      <trkpt lat="46.25818" lon="2.80268">
        <ele>508.47</ele>
        <time>2018-07-14T09:03:43.000Z</time>
      </trkpt>
      <trkpt lat="46.25827" lon="2.80263">
        <ele>507.88</ele>
        <time>2018-07-14T09:03:44.000Z</time>
      </trkpt>
      <trkpt lat="46.25837" lon="2.80257">
        <ele>507.39</ele>
        <time>2018-07-14T09:03:45.000Z</time>
      </trkpt>
      <trkpt lat="46.25846" lon="2.80252">
        <ele>506.88</ele>
        <time>2018-07-14T09:03:46.000Z</time>
      </trkpt>
      <trkpt lat="46.25855" lon="2.80247">
        <ele>506.6</ele>
        <time>2018-07-14T09:03:47.000Z</time>
      </trkpt>
      <trkpt lat="46.25865" lon="2.80242">
        <ele>506.33</ele>
        <time>2018-07-14T09:03:48.000Z</time>
      </trkpt>
      <trkpt lat="46.25874" lon="2.80237">
        <ele>506.14</ele>
        <time>2018-07-14T09:03:49.000Z</time>
      </trkpt>
      <trkpt lat="46.25884" lon="2.80232">
        <ele>505.95</ele>
        <time>2018-07-14T09:03:50.000Z</time>
      </trkpt>
      <trkpt lat="46.25893" lon="2.80227">
        <ele>505.73</ele>
        <time>2018-07-14T09:03:51.000Z</time>
      </trkpt>
      <trkpt lat="46.25903" lon="2.80222">
        <ele>505.53</ele>
        <time>2018-07-14T09:03:52.000Z</time>
      </trkpt>
      <trkpt lat="46.25914" lon="2.80217">
        <ele>505.17</ele>
        <time>2018-07-14T09:03:53.000Z</time>
      </trkpt>
      <trkpt lat="46.25925" lon="2.80211">
        <ele>504.82</ele>
        <time>2018-07-14T09:03:54.000Z</time>
      </trkpt>
      <trkpt lat="46.25935" lon="2.80205">
        <ele>504.38</ele>
        <time>2018-07-14T09:03:55.000Z</time>
      </trkpt>
      <trkpt lat="46.25946" lon="2.80199">
        <ele>503.96</ele>
        <time>2018-07-14T09:03:56.000Z</time>
      </trkpt>
      <trkpt lat="46.25957" lon="2.80193">
        <ele>503.42</ele>
        <time>2018-07-14T09:03:57.000Z</time>
      </trkpt>
      <trkpt lat="46.25967" lon="2.80186">
        <ele>502.7</ele>
        <time>2018-07-14T09:03:58.000Z</time>
      </trkpt>
      <trkpt lat="46.25978" lon="2.80177">
        <ele>502.21</ele>
        <time>2018-07-14T09:03:59.000Z</time>
      </trkpt>
      <trkpt lat="46.25988" lon="2.80168">
        <ele>501.72</ele>
        <time>2018-07-14T09:04:00.000Z</time>
      </trkpt>
      <trkpt lat="46.25998" lon="2.80159">
        <ele>501.38</ele>
        <time>2018-07-14T09:04:01.000Z</time>
      </trkpt>
      <trkpt lat="46.26009" lon="2.80149">
        <ele>501.07</ele>
        <time>2018-07-14T09:04:02.000Z</time>
      </trkpt>
      <trkpt lat="46.26019" lon="2.8014">
        <ele>500.43</ele>
        <time>2018-07-14T09:04:03.000Z</time>
      </trkpt>
      <trkpt lat="46.26029" lon="2.80131">
        <ele>499.8</ele>
        <time>2018-07-14T09:04:04.000Z</time>
      </trkpt>
      <trkpt lat="46.26039" lon="2.80122">
        <ele>499.02</ele>
        <time>2018-07-14T09:04:05.000Z</time>
      </trkpt>
      <trkpt lat="46.26049" lon="2.80113">
        <ele>498.67</ele>
        <time>2018-07-14T09:04:06.000Z</time>
      </trkpt>
      <trkpt lat="46.26059" lon="2.80104">
        <ele>498.06</ele>
        <time>2018-07-14T09:04:07.000Z</time>
      </trkpt>
      <trkpt lat="46.26069" lon="2.80095">
        <ele>497.39</ele>
        <time>2018-07-14T09:04:08.000Z</time>
      </trkpt>
      <trkpt lat="46.26079" lon="2.80086">
        <ele>496.58</ele>
        <time>2018-07-14T09:04:09.000Z</time>
      </trkpt>
      <trkpt lat="46.26088" lon="2.80078">
        <ele>495.91</ele>
        <time>2018-07-14T09:04:10.000Z</time>
      </trkpt>
      <trkpt lat="46.26098" lon="2.80069">
        <ele>495.4</ele>
        <time>2018-07-14T09:04:11.000Z</time>
      </trkpt>
      <trkpt lat="46.26107" lon="2.80061">
        <ele>494.89</ele>
        <time>2018-07-14T09:04:12.000Z</time>
      </trkpt>
      <trkpt lat="46.26116" lon="2.80054">
        <ele>494.39</ele>
        <time>2018-07-14T09:04:13.000Z</time>
      </trkpt>
      <trkpt lat="46.26124" lon="2.80046">
        <ele>494.12</ele>
        <time>2018-07-14T09:04:14.000Z</time>
      </trkpt>
      <trkpt lat="46.26133" lon="2.80038">
        <ele>493.85</ele>
        <time>2018-07-14T09:04:15.000Z</time>
      </trkpt>
      <trkpt lat="46.26141" lon="2.80031">
        <ele>493.48</ele>
        <time>2018-07-14T09:04:16.000Z</time>
      </trkpt>
      <trkpt lat="46.26149" lon="2.80024">
        <ele>493.28</ele>
        <time>2018-07-14T09:04:17.000Z</time>
      </trkpt>
      <trkpt lat="46.26157" lon="2.80017">
        <ele>493.08</ele>
        <time>2018-07-14T09:04:18.000Z</time>
      </trkpt>
      <trkpt lat="46.26164" lon="2.80009">
        <ele>492.95</ele>
        <time>2018-07-14T09:04:19.000Z</time>
      </trkpt>
      <trkpt lat="46.26172" lon="2.80002">
        <ele>492.81</ele>
        <time>2018-07-14T09:04:20.000Z</time>
      </trkpt>
      <trkpt lat="46.2618" lon="2.79995">
        <ele>492.77</ele>
        <time>2018-07-14T09:04:21.000Z</time>
      </trkpt>
      <trkpt lat="46.26196" lon="2.79982">
        <ele>492.53</ele>
        <time>2018-07-14T09:04:23.000Z</time>
      </trkpt>
      <trkpt lat="46.2621" lon="2.79969">
        <ele>491.81</ele>
        <time>2018-07-14T09:04:25.000Z</time>
      </trkpt>
      <trkpt lat="46.26226" lon="2.79955">
        <ele>491.35</ele>
        <time>2018-07-14T09:04:27.000Z</time>
      </trkpt>
      <trkpt lat="46.26241" lon="2.7994">
        <ele>490.84</ele>
        <time>2018-07-14T09:04:29.000Z</time>
      </trkpt>
      <trkpt lat="46.26255" lon="2.79926">
        <ele>490.35</ele>
        <time>2018-07-14T09:04:31.000Z</time>
      </trkpt>
      <trkpt lat="46.26263" lon="2.79919">
        <ele>490.25</ele>
        <time>2018-07-14T09:04:32.000Z</time>
      </trkpt>
      <trkpt lat="46.26271" lon="2.79911">
        <ele>490</ele>
        <time>2018-07-14T09:04:33.000Z</time>
      </trkpt>
      <trkpt lat="46.2628" lon="2.79904">
        <ele>489.67</ele>
        <time>2018-07-14T09:04:34.000Z</time>
      </trkpt>
      <trkpt lat="46.26288" lon="2.79896">
        <ele>489.51</ele>
        <time>2018-07-14T09:04:35.000Z</time>
      </trkpt>
      <trkpt lat="46.26295" lon="2.79888">
        <ele>489.35</ele>
        <time>2018-07-14T09:04:36.000Z</time>
      </trkpt>
      <trkpt lat="46.26308" lon="2.79875">
        <ele>489.24</ele>
        <time>2018-07-14T09:04:38.000Z</time>
      </trkpt>
      <trkpt lat="46.26322" lon="2.79863">
        <ele>489.21</ele>
        <time>2018-07-14T09:04:40.000Z</time>
      </trkpt>
      <trkpt lat="46.26336" lon="2.79852">
        <ele>488.63</ele>
        <time>2018-07-14T09:04:42.000Z</time>
      </trkpt>
      <trkpt lat="46.26352" lon="2.79841">
        <ele>488.21</ele>
        <time>2018-07-14T09:04:44.000Z</time>
      </trkpt>
      <trkpt lat="46.26366" lon="2.79831">
        <ele>488.01</ele>
        <time>2018-07-14T09:04:46.000Z</time>
      </trkpt>
      <trkpt lat="46.2638" lon="2.79818">
        <ele>487.8</ele>
        <time>2018-07-14T09:04:48.000Z</time>
      </trkpt>
      <trkpt lat="46.26394" lon="2.79804">
        <ele>487.65</ele>
        <time>2018-07-14T09:04:50.000Z</time>
      </trkpt>
      <trkpt lat="46.26409" lon="2.7979">
        <ele>487.81</ele>
        <time>2018-07-14T09:04:52.000Z</time>
      </trkpt>
      <trkpt lat="46.26424" lon="2.79777">
        <ele>487.5</ele>
        <time>2018-07-14T09:04:54.000Z</time>
      </trkpt>
      <trkpt lat="46.26438" lon="2.79764">
        <ele>487.35</ele>
        <time>2018-07-14T09:04:56.000Z</time>
      </trkpt>
      <trkpt lat="46.26453" lon="2.7975">
        <ele>487.31</ele>
        <time>2018-07-14T09:04:58.000Z</time>
      </trkpt>
      <trkpt lat="46.26468" lon="2.79736">
        <ele>487.24</ele>
        <time>2018-07-14T09:05:00.000Z</time>
      </trkpt>
      <trkpt lat="46.26476" lon="2.79729">
        <ele>487.2</ele>
        <time>2018-07-14T09:05:01.000Z</time>
      </trkpt>
      <trkpt lat="46.26484" lon="2.79723">
        <ele>486.91</ele>
        <time>2018-07-14T09:05:02.000Z</time>
      </trkpt>
      <trkpt lat="46.26493" lon="2.79715">
        <ele>486.51</ele>
        <time>2018-07-14T09:05:03.000Z</time>
      </trkpt>
      <trkpt lat="46.26501" lon="2.79708">
        <ele>486.29</ele>
        <time>2018-07-14T09:05:04.000Z</time>
      </trkpt>
      <trkpt lat="46.2651" lon="2.797">
        <ele>485.91</ele>
        <time>2018-07-14T09:05:05.000Z</time>
      </trkpt>
      <trkpt lat="46.26519" lon="2.79692">
        <ele>485.73</ele>
        <time>2018-07-14T09:05:06.000Z</time>
      </trkpt>
      <trkpt lat="46.26527" lon="2.79684">
        <ele>485.42</ele>
        <time>2018-07-14T09:05:07.000Z</time>
      </trkpt>
      <trkpt lat="46.26536" lon="2.79676">
        <ele>485.14</ele>
        <time>2018-07-14T09:05:08.000Z</time>
      </trkpt>
      <trkpt lat="46.26545" lon="2.79669">
        <ele>484.89</ele>
        <time>2018-07-14T09:05:09.000Z</time>
      </trkpt>
      <trkpt lat="46.26553" lon="2.79662">
        <ele>484.51</ele>
        <time>2018-07-14T09:05:10.000Z</time>
      </trkpt>
      <trkpt lat="46.26561" lon="2.79654">
        <ele>484.04</ele>
        <time>2018-07-14T09:05:11.000Z</time>
      </trkpt>
      <trkpt lat="46.2657" lon="2.79646">
        <ele>483.58</ele>
        <time>2018-07-14T09:05:12.000Z</time>
      </trkpt>
      <trkpt lat="46.26579" lon="2.79638">
        <ele>483.38</ele>
        <time>2018-07-14T09:05:13.000Z</time>
      </trkpt>
      <trkpt lat="46.26588" lon="2.7963">
        <ele>482.83</ele>
        <time>2018-07-14T09:05:14.000Z</time>
      </trkpt>
      <trkpt lat="46.26597" lon="2.79621">
        <ele>482.3</ele>
        <time>2018-07-14T09:05:15.000Z</time>
      </trkpt>
      <trkpt lat="46.26606" lon="2.79612">
        <ele>481.78</ele>
        <time>2018-07-14T09:05:16.000Z</time>
      </trkpt>
      <trkpt lat="46.26616" lon="2.79604">
        <ele>481.26</ele>
        <time>2018-07-14T09:05:17.000Z</time>
      </trkpt>
      <trkpt lat="46.26625" lon="2.79595">
        <ele>480.7</ele>
        <time>2018-07-14T09:05:18.000Z</time>
      </trkpt>
      <trkpt lat="46.26634" lon="2.79587">
        <ele>480.16</ele>
        <time>2018-07-14T09:05:19.000Z</time>
      </trkpt>
      <trkpt lat="46.26643" lon="2.7958">
        <ele>479.77</ele>
        <time>2018-07-14T09:05:20.000Z</time>
      </trkpt>
      <trkpt lat="46.26651" lon="2.79572">
        <ele>479.4</ele>
        <time>2018-07-14T09:05:21.000Z</time>
      </trkpt>
      <trkpt lat="46.26659" lon="2.79565">
        <ele>479.28</ele>
        <time>2018-07-14T09:05:22.000Z</time>
      </trkpt>
      <trkpt lat="46.26667" lon="2.79557">
        <ele>478.91</ele>
        <time>2018-07-14T09:05:23.000Z</time>
      </trkpt>
      <trkpt lat="46.26675" lon="2.7955">
        <ele>478.97</ele>
        <time>2018-07-14T09:05:24.000Z</time>
      </trkpt>
      <trkpt lat="46.2669" lon="2.79536">
        <ele>479.13</ele>
        <time>2018-07-14T09:05:26.000Z</time>
      </trkpt>
      <trkpt lat="46.26705" lon="2.79521">
        <ele>478.87</ele>
        <time>2018-07-14T09:05:28.000Z</time>
      </trkpt>
      <trkpt lat="46.2672" lon="2.79508">
        <ele>479.06</ele>
        <time>2018-07-14T09:05:30.000Z</time>
      </trkpt>
      <trkpt lat="46.26735" lon="2.79496">
        <ele>479.22</ele>
        <time>2018-07-14T09:05:32.000Z</time>
      </trkpt>
      <trkpt lat="46.26743" lon="2.79489">
        <ele>479.34</ele>
        <time>2018-07-14T09:05:33.000Z</time>
      </trkpt>
      <trkpt lat="46.26751" lon="2.79482">
        <ele>479.37</ele>
        <time>2018-07-14T09:05:34.000Z</time>
      </trkpt>
      <trkpt lat="46.26759" lon="2.79476">
        <ele>479.29</ele>
        <time>2018-07-14T09:05:35.000Z</time>
      </trkpt>
      <trkpt lat="46.26767" lon="2.79469">
        <ele>479.25</ele>
        <time>2018-07-14T09:05:36.000Z</time>
      </trkpt>
      <trkpt lat="46.26775" lon="2.79461">
        <ele>479.25</ele>
        <time>2018-07-14T09:05:37.000Z</time>
      </trkpt>
      <trkpt lat="46.26784" lon="2.79454">
        <ele>479.25</ele>
        <time>2018-07-14T09:05:38.000Z</time>
      </trkpt>
      <trkpt lat="46.26793" lon="2.79447">
        <ele>479.21</ele>
        <time>2018-07-14T09:05:39.000Z</time>
      </trkpt>
      <trkpt lat="46.26801" lon="2.79439">
        <ele>479.12</ele>
        <time>2018-07-14T09:05:40.000Z</time>
      </trkpt>
      <trkpt lat="46.26811" lon="2.79433">
        <ele>479.08</ele>
        <time>2018-07-14T09:05:41.000Z</time>
      </trkpt>
      <trkpt lat="46.26821" lon="2.79427">
        <ele>479.63</ele>
        <time>2018-07-14T09:05:42.000Z</time>
      </trkpt>
      <trkpt lat="46.26831" lon="2.79421">
        <ele>479.99</ele>
        <time>2018-07-14T09:05:43.000Z</time>
      </trkpt>
      <trkpt lat="46.26841" lon="2.79416">
        <ele>479.87</ele>
        <time>2018-07-14T09:05:44.000Z</time>
      </trkpt>
      <trkpt lat="46.26851" lon="2.79413">
        <ele>480.03</ele>
        <time>2018-07-14T09:05:45.000Z</time>
      </trkpt>
      <trkpt lat="46.26862" lon="2.79411">
        <ele>480.18</ele>
        <time>2018-07-14T09:05:46.000Z</time>
      </trkpt>
      <trkpt lat="46.26872" lon="2.79409">
        <ele>480.17</ele>
        <time>2018-07-14T09:05:47.000Z</time>
      </trkpt>
      <trkpt lat="46.26883" lon="2.79409">
        <ele>479.99</ele>
        <time>2018-07-14T09:05:48.000Z</time>
      </trkpt>
      <trkpt lat="46.26895" lon="2.79408">
        <ele>479.79</ele>
        <time>2018-07-14T09:05:49.000Z</time>
      </trkpt>
      <trkpt lat="46.26906" lon="2.79408">
        <ele>479.55</ele>
        <time>2018-07-14T09:05:50.000Z</time>
      </trkpt>
      <trkpt lat="46.26918" lon="2.79409">
        <ele>479.36</ele>
        <time>2018-07-14T09:05:51.000Z</time>
      </trkpt>
      <trkpt lat="46.26929" lon="2.79409">
        <ele>479.14</ele>
        <time>2018-07-14T09:05:52.000Z</time>
      </trkpt>
      <trkpt lat="46.2694" lon="2.79408">
        <ele>478.85</ele>
        <time>2018-07-14T09:05:53.000Z</time>
      </trkpt>
      <trkpt lat="46.26952" lon="2.79407">
        <ele>478.49</ele>
        <time>2018-07-14T09:05:54.000Z</time>
      </trkpt>
      <trkpt lat="46.26963" lon="2.79407">
        <ele>478.19</ele>
        <time>2018-07-14T09:05:55.000Z</time>
      </trkpt>
      <trkpt lat="46.26974" lon="2.79406">
        <ele>477.8</ele>
        <time>2018-07-14T09:05:56.000Z</time>
      </trkpt>
      <trkpt lat="46.26985" lon="2.79406">
        <ele>477.52</ele>
        <time>2018-07-14T09:05:57.000Z</time>
      </trkpt>
      <trkpt lat="46.26996" lon="2.79406">
        <ele>477.14</ele>
        <time>2018-07-14T09:05:58.000Z</time>
      </trkpt>
      <trkpt lat="46.27007" lon="2.79405">
        <ele>476.84</ele>
        <time>2018-07-14T09:05:59.000Z</time>
      </trkpt>
      <trkpt lat="46.27018" lon="2.79405">
        <ele>476.52</ele>
        <time>2018-07-14T09:06:00.000Z</time>
      </trkpt>
      <trkpt lat="46.27028" lon="2.79405">
        <ele>476.22</ele>
        <time>2018-07-14T09:06:01.000Z</time>
      </trkpt>
      <trkpt lat="46.27039" lon="2.79405">
        <ele>476.12</ele>
        <time>2018-07-14T09:06:02.000Z</time>
      </trkpt>
      <trkpt lat="46.2705" lon="2.79404">
        <ele>475.72</ele>
        <time>2018-07-14T09:06:03.000Z</time>
      </trkpt>
      <trkpt lat="46.2706" lon="2.79404">
        <ele>475.44</ele>
        <time>2018-07-14T09:06:04.000Z</time>
      </trkpt>
      <trkpt lat="46.27071" lon="2.79404">
        <ele>475.1</ele>
        <time>2018-07-14T09:06:05.000Z</time>
      </trkpt>
      <trkpt lat="46.27082" lon="2.79404">
        <ele>474.74</ele>
        <time>2018-07-14T09:06:06.000Z</time>
      </trkpt>
      <trkpt lat="46.27092" lon="2.79403">
        <ele>474.38</ele>
        <time>2018-07-14T09:06:07.000Z</time>
      </trkpt>
      <trkpt lat="46.27103" lon="2.79401">
        <ele>474.03</ele>
        <time>2018-07-14T09:06:08.000Z</time>
      </trkpt>
      <trkpt lat="46.27114" lon="2.794">
        <ele>473.51</ele>
        <time>2018-07-14T09:06:09.000Z</time>
      </trkpt>
      <trkpt lat="46.27125" lon="2.79398">
        <ele>472.71</ele>
        <time>2018-07-14T09:06:10.000Z</time>
      </trkpt>
      <trkpt lat="46.27136" lon="2.79397">
        <ele>472.4</ele>
        <time>2018-07-14T09:06:11.000Z</time>
      </trkpt>
      <trkpt lat="46.27147" lon="2.79397">
        <ele>472.02</ele>
        <time>2018-07-14T09:06:12.000Z</time>
      </trkpt>
      <trkpt lat="46.27158" lon="2.79397">
        <ele>471.26</ele>
        <time>2018-07-14T09:06:13.000Z</time>
      </trkpt>
      <trkpt lat="46.27169" lon="2.79397">
        <ele>470.04</ele>
        <time>2018-07-14T09:06:14.000Z</time>
      </trkpt>
      <trkpt lat="46.27181" lon="2.79398">
        <ele>469.32</ele>
        <time>2018-07-14T09:06:15.000Z</time>
      </trkpt>
      <trkpt lat="46.27192" lon="2.79398">
        <ele>468.79</ele>
        <time>2018-07-14T09:06:16.000Z</time>
      </trkpt>
      <trkpt lat="46.27203" lon="2.794">
        <ele>468.66</ele>
        <time>2018-07-14T09:06:17.000Z</time>
      </trkpt>
      <trkpt lat="46.27214" lon="2.79403">
        <ele>468.21</ele>
        <time>2018-07-14T09:06:18.000Z</time>
      </trkpt>
      <trkpt lat="46.27225" lon="2.79405">
        <ele>467.81</ele>
        <time>2018-07-14T09:06:19.000Z</time>
      </trkpt>
      <trkpt lat="46.27236" lon="2.79407">
        <ele>467.51</ele>
        <time>2018-07-14T09:06:20.000Z</time>
      </trkpt>
      <trkpt lat="46.27248" lon="2.79409">
        <ele>466.96</ele>
        <time>2018-07-14T09:06:21.000Z</time>
      </trkpt>
      <trkpt lat="46.2726" lon="2.7941">
        <ele>466.61</ele>
        <time>2018-07-14T09:06:22.000Z</time>
      </trkpt>
      <trkpt lat="46.27272" lon="2.79411">
        <ele>466.14</ele>
        <time>2018-07-14T09:06:23.000Z</time>
      </trkpt>
      <trkpt lat="46.27285" lon="2.79413">
        <ele>465.58</ele>
        <time>2018-07-14T09:06:24.000Z</time>
      </trkpt>
      <trkpt lat="46.27297" lon="2.79414">
        <ele>464.9</ele>
        <time>2018-07-14T09:06:25.000Z</time>
      </trkpt>
      <trkpt lat="46.27309" lon="2.79417">
        <ele>464.41</ele>
        <time>2018-07-14T09:06:26.000Z</time>
      </trkpt>
      <trkpt lat="46.27321" lon="2.79418">
        <ele>464.02</ele>
        <time>2018-07-14T09:06:27.000Z</time>
      </trkpt>
      <trkpt lat="46.27333" lon="2.79416">
        <ele>463.68</ele>
        <time>2018-07-14T09:06:28.000Z</time>
      </trkpt>
      <trkpt lat="46.27345" lon="2.79411">
        <ele>463.43</ele>
        <time>2018-07-14T09:06:29.000Z</time>
      </trkpt>
      <trkpt lat="46.27356" lon="2.79404">
        <ele>463.1</ele>
        <time>2018-07-14T09:06:30.000Z</time>
      </trkpt>
      <trkpt lat="46.27366" lon="2.79395">
        <ele>462.66</ele>
        <time>2018-07-14T09:06:31.000Z</time>
      </trkpt>
      <trkpt lat="46.27377" lon="2.79386">
        <ele>462.3</ele>
        <time>2018-07-14T09:06:32.000Z</time>
      </trkpt>
      <trkpt lat="46.27386" lon="2.79377">
        <ele>461.72</ele>
        <time>2018-07-14T09:06:33.000Z</time>
      </trkpt>
      <trkpt lat="46.27395" lon="2.79364">
        <ele>460.3</ele>
        <time>2018-07-14T09:06:34.000Z</time>
      </trkpt>
      <trkpt lat="46.27401" lon="2.7935">
        <ele>459.19</ele>
        <time>2018-07-14T09:06:35.000Z</time>
      </trkpt>
      <trkpt lat="46.27407" lon="2.79334">
        <ele>457.79</ele>
        <time>2018-07-14T09:06:36.000Z</time>
      </trkpt>
      <trkpt lat="46.27413" lon="2.79316">
        <ele>456.74</ele>
        <time>2018-07-14T09:06:37.000Z</time>
      </trkpt>
      <trkpt lat="46.27417" lon="2.79298">
        <ele>455.69</ele>
        <time>2018-07-14T09:06:38.000Z</time>
      </trkpt>
      <trkpt lat="46.27421" lon="2.79281">
        <ele>454.72</ele>
        <time>2018-07-14T09:06:39.000Z</time>
      </trkpt>
      <trkpt lat="46.27419" lon="2.79263">
        <ele>453.38</ele>
        <time>2018-07-14T09:06:40.000Z</time>
      </trkpt>
      <trkpt lat="46.27421" lon="2.79247">
        <ele>452.6</ele>
        <time>2018-07-14T09:06:41.000Z</time>
      </trkpt>
      <trkpt lat="46.27425" lon="2.79232">
        <ele>452.02</ele>
        <time>2018-07-14T09:06:42.000Z</time>
      </trkpt>
      <trkpt lat="46.27433" lon="2.79219">
        <ele>451.38</ele>
        <time>2018-07-14T09:06:43.000Z</time>
      </trkpt>
      <trkpt lat="46.27441" lon="2.79206">
        <ele>450.48</ele>
        <time>2018-07-14T09:06:44.000Z</time>
      </trkpt>
      <trkpt lat="46.27448" lon="2.79193">
        <ele>449.57</ele>
        <time>2018-07-14T09:06:45.000Z</time>
      </trkpt>
      <trkpt lat="46.27458" lon="2.79182">
        <ele>448.88</ele>
        <time>2018-07-14T09:06:46.000Z</time>
      </trkpt>
      <trkpt lat="46.27468" lon="2.79172">
        <ele>448.32</ele>
        <time>2018-07-14T09:06:47.000Z</time>
      </trkpt>
      <trkpt lat="46.27478" lon="2.79162">
        <ele>448.05</ele>
        <time>2018-07-14T09:06:48.000Z</time>
      </trkpt>
      <trkpt lat="46.27488" lon="2.79152">
        <ele>447.46</ele>
        <time>2018-07-14T09:06:49.000Z</time>
      </trkpt>
      <trkpt lat="46.27497" lon="2.79142">
        <ele>446.71</ele>
        <time>2018-07-14T09:06:50.000Z</time>
      </trkpt>
      <trkpt lat="46.27506" lon="2.79132">
        <ele>446.25</ele>
        <time>2018-07-14T09:06:51.000Z</time>
      </trkpt>
      <trkpt lat="46.27515" lon="2.79122">
        <ele>445.83</ele>
        <time>2018-07-14T09:06:52.000Z</time>
      </trkpt>
      <trkpt lat="46.27526" lon="2.79112">
        <ele>445.37</ele>
        <time>2018-07-14T09:06:53.000Z</time>
      </trkpt>
      <trkpt lat="46.27536" lon="2.79101">
        <ele>444.95</ele>
        <time>2018-07-14T09:06:54.000Z</time>
      </trkpt>
      <trkpt lat="46.27546" lon="2.7909">
        <ele>444.39</ele>
        <time>2018-07-14T09:06:55.000Z</time>
      </trkpt>
      <trkpt lat="46.27556" lon="2.79079">
        <ele>443.58</ele>
        <time>2018-07-14T09:06:56.000Z</time>
      </trkpt>
      <trkpt lat="46.27567" lon="2.79068">
        <ele>442.69</ele>
        <time>2018-07-14T09:06:57.000Z</time>
      </trkpt>
      <trkpt lat="46.27579" lon="2.79059">
        <ele>441.94</ele>
        <time>2018-07-14T09:06:58.000Z</time>
      </trkpt>
      <trkpt lat="46.27589" lon="2.79051">
        <ele>441.33</ele>
        <time>2018-07-14T09:06:59.000Z</time>
      </trkpt>
      <trkpt lat="46.276" lon="2.79042">
        <ele>440.73</ele>
        <time>2018-07-14T09:07:00.000Z</time>
      </trkpt>
      <trkpt lat="46.27611" lon="2.79031">
        <ele>440.1</ele>
        <time>2018-07-14T09:07:01.000Z</time>
      </trkpt>
      <trkpt lat="46.27621" lon="2.79023">
        <ele>439.56</ele>
        <time>2018-07-14T09:07:02.000Z</time>
      </trkpt>
      <trkpt lat="46.27631" lon="2.79015">
        <ele>439.08</ele>
        <time>2018-07-14T09:07:03.000Z</time>
      </trkpt>
      <trkpt lat="46.27642" lon="2.79007">
        <ele>438.57</ele>
        <time>2018-07-14T09:07:04.000Z</time>
      </trkpt>
      <trkpt lat="46.27654" lon="2.78999">
        <ele>438.06</ele>
        <time>2018-07-14T09:07:05.000Z</time>
      </trkpt>
      <trkpt lat="46.27665" lon="2.7899">
        <ele>437.36</ele>
        <time>2018-07-14T09:07:06.000Z</time>
      </trkpt>
      <trkpt lat="46.27676" lon="2.78981">
        <ele>436.78</ele>
        <time>2018-07-14T09:07:07.000Z</time>
      </trkpt>
      <trkpt lat="46.27688" lon="2.78972">
        <ele>436.26</ele>
        <time>2018-07-14T09:07:08.000Z</time>
      </trkpt>
      <trkpt lat="46.27699" lon="2.78964">
        <ele>435.78</ele>
        <time>2018-07-14T09:07:09.000Z</time>
      </trkpt>
      <trkpt lat="46.2771" lon="2.78955">
        <ele>435.16</ele>
        <time>2018-07-14T09:07:10.000Z</time>
      </trkpt>
      <trkpt lat="46.27721" lon="2.78945">
        <ele>434.61</ele>
        <time>2018-07-14T09:07:11.000Z</time>
      </trkpt>
      <trkpt lat="46.27733" lon="2.78935">
        <ele>433.91</ele>
        <time>2018-07-14T09:07:12.000Z</time>
      </trkpt>
      <trkpt lat="46.27744" lon="2.78923">
        <ele>432.92</ele>
        <time>2018-07-14T09:07:13.000Z</time>
      </trkpt>
      <trkpt lat="46.27756" lon="2.78911">
        <ele>431.24</ele>
        <time>2018-07-14T09:07:14.000Z</time>
      </trkpt>
      <trkpt lat="46.27766" lon="2.78898">
        <ele>429.63</ele>
        <time>2018-07-14T09:07:15.000Z</time>
      </trkpt>
      <trkpt lat="46.27776" lon="2.78885">
        <ele>428.17</ele>
        <time>2018-07-14T09:07:16.000Z</time>
      </trkpt>
      <trkpt lat="46.27786" lon="2.78872">
        <ele>427.06</ele>
        <time>2018-07-14T09:07:17.000Z</time>
      </trkpt>
      <trkpt lat="46.27795" lon="2.78859">
        <ele>426.15</ele>
        <time>2018-07-14T09:07:18.000Z</time>
      </trkpt>
      <trkpt lat="46.27803" lon="2.78847">
        <ele>425.39</ele>
        <time>2018-07-14T09:07:19.000Z</time>
      </trkpt>
      <trkpt lat="46.27812" lon="2.78834">
        <ele>424.69</ele>
        <time>2018-07-14T09:07:20.000Z</time>
      </trkpt>
      <trkpt lat="46.27821" lon="2.7882">
        <ele>423.99</ele>
        <time>2018-07-14T09:07:21.000Z</time>
      </trkpt>
      <trkpt lat="46.27829" lon="2.78808">
        <ele>423.38</ele>
        <time>2018-07-14T09:07:22.000Z</time>
      </trkpt>
      <trkpt lat="46.27838" lon="2.78796">
        <ele>422.53</ele>
        <time>2018-07-14T09:07:23.000Z</time>
      </trkpt>
      <trkpt lat="46.27846" lon="2.78785">
        <ele>421.84</ele>
        <time>2018-07-14T09:07:24.000Z</time>
      </trkpt>
      <trkpt lat="46.27853" lon="2.78774">
        <ele>421.13</ele>
        <time>2018-07-14T09:07:25.000Z</time>
      </trkpt>
      <trkpt lat="46.27861" lon="2.78763">
        <ele>420.53</ele>
        <time>2018-07-14T09:07:26.000Z</time>
      </trkpt>
      <trkpt lat="46.27868" lon="2.78751">
        <ele>419.99</ele>
        <time>2018-07-14T09:07:27.000Z</time>
      </trkpt>
      <trkpt lat="46.27876" lon="2.7874">
        <ele>419.27</ele>
        <time>2018-07-14T09:07:28.000Z</time>
      </trkpt>
      <trkpt lat="46.27884" lon="2.78729">
        <ele>418.77</ele>
        <time>2018-07-14T09:07:29.000Z</time>
      </trkpt>
      <trkpt lat="46.2789" lon="2.7872">
        <ele>418.33</ele>
        <time>2018-07-14T09:07:30.000Z</time>
      </trkpt>
      <trkpt lat="46.27897" lon="2.78711">
        <ele>417.74</ele>
        <time>2018-07-14T09:07:31.000Z</time>
      </trkpt>
      <trkpt lat="46.2791" lon="2.78695">
        <ele>416.77</ele>
        <time>2018-07-14T09:07:33.000Z</time>
      </trkpt>
      <trkpt lat="46.2792" lon="2.7868">
        <ele>415.8</ele>
        <time>2018-07-14T09:07:35.000Z</time>
      </trkpt>
      <trkpt lat="46.2793" lon="2.78667">
        <ele>415.1</ele>
        <time>2018-07-14T09:07:37.000Z</time>
      </trkpt>
      <trkpt lat="46.27939" lon="2.78653">
        <ele>414.1</ele>
        <time>2018-07-14T09:07:39.000Z</time>
      </trkpt>
      <trkpt lat="46.27948" lon="2.78642">
        <ele>413.05</ele>
        <time>2018-07-14T09:07:41.000Z</time>
      </trkpt>
      <trkpt lat="46.27957" lon="2.7863">
        <ele>412.35</ele>
        <time>2018-07-14T09:07:43.000Z</time>
      </trkpt>
      <trkpt lat="46.27965" lon="2.7862">
        <ele>411.97</ele>
        <time>2018-07-14T09:07:45.000Z</time>
      </trkpt>
      <trkpt lat="46.27973" lon="2.78609">
        <ele>411.22</ele>
        <time>2018-07-14T09:07:47.000Z</time>
      </trkpt>
      <trkpt lat="46.27982" lon="2.78596">
        <ele>410.69</ele>
        <time>2018-07-14T09:07:49.000Z</time>
      </trkpt>
      <trkpt lat="46.2799" lon="2.78584">
        <ele>409.9</ele>
        <time>2018-07-14T09:07:51.000Z</time>
      </trkpt>
      <trkpt lat="46.27998" lon="2.78572">
        <ele>409.36</ele>
        <time>2018-07-14T09:07:53.000Z</time>
      </trkpt>
      <trkpt lat="46.28006" lon="2.78557">
        <ele>408.97</ele>
        <time>2018-07-14T09:07:55.000Z</time>
      </trkpt>
      <trkpt lat="46.28013" lon="2.78538">
        <ele>409.29</ele>
        <time>2018-07-14T09:07:57.000Z</time>
      </trkpt>
      <trkpt lat="46.28016" lon="2.78523">
        <ele>409.94</ele>
        <time>2018-07-14T09:07:59.000Z</time>
      </trkpt>
      <trkpt lat="46.28019" lon="2.78506">
        <ele>409.81</ele>
        <time>2018-07-14T09:08:01.000Z</time>
      </trkpt>
      <trkpt lat="46.2802" lon="2.78487">
        <ele>409.77</ele>
        <time>2018-07-14T09:08:03.000Z</time>
      </trkpt>
      <trkpt lat="46.2802" lon="2.78468">
        <ele>409.76</ele>
        <time>2018-07-14T09:08:05.000Z</time>
      </trkpt>
      <trkpt lat="46.28022" lon="2.78449">
        <ele>409.8</ele>
        <time>2018-07-14T09:08:07.000Z</time>
      </trkpt>
      <trkpt lat="46.28024" lon="2.7843">
        <ele>409.82</ele>
        <time>2018-07-14T09:08:09.000Z</time>
      </trkpt>
      <trkpt lat="46.28027" lon="2.78412">
        <ele>410.03</ele>
        <time>2018-07-14T09:08:11.000Z</time>
      </trkpt>
      <trkpt lat="46.2803" lon="2.78393">
        <ele>409.88</ele>
        <time>2018-07-14T09:08:13.000Z</time>
      </trkpt>
      <trkpt lat="46.28032" lon="2.78373">
        <ele>410.25</ele>
        <time>2018-07-14T09:08:15.000Z</time>
      </trkpt>
      <trkpt lat="46.28034" lon="2.78352">
        <ele>410.34</ele>
        <time>2018-07-14T09:08:17.000Z</time>
      </trkpt>
      <trkpt lat="46.28037" lon="2.78332">
        <ele>410.24</ele>
        <time>2018-07-14T09:08:19.000Z</time>
      </trkpt>
      <trkpt lat="46.28039" lon="2.78313">
        <ele>409.93</ele>
        <time>2018-07-14T09:08:21.000Z</time>
      </trkpt>
      <trkpt lat="46.28041" lon="2.78297">
        <ele>409.19</ele>
        <time>2018-07-14T09:08:23.000Z</time>
      </trkpt>
      <trkpt lat="46.28044" lon="2.78281">
        <ele>408.55</ele>
        <time>2018-07-14T09:08:25.000Z</time>
      </trkpt>
      <trkpt lat="46.28046" lon="2.78263">
        <ele>407.95</ele>
        <time>2018-07-14T09:08:27.000Z</time>
      </trkpt>
      <trkpt lat="46.28045" lon="2.78244">
        <ele>407.53</ele>
        <time>2018-07-14T09:08:29.000Z</time>
      </trkpt>
      <trkpt lat="46.28045" lon="2.78226">
        <ele>407.51</ele>
        <time>2018-07-14T09:08:31.000Z</time>
      </trkpt>
      <trkpt lat="46.28046" lon="2.78207">
        <ele>407.92</ele>
        <time>2018-07-14T09:08:33.000Z</time>
      </trkpt>
      <trkpt lat="46.28049" lon="2.78185">
        <ele>408.73</ele>
        <time>2018-07-14T09:08:35.000Z</time>
      </trkpt>
      <trkpt lat="46.28051" lon="2.78166">
        <ele>409.8</ele>
        <time>2018-07-14T09:08:37.000Z</time>
      </trkpt>
      <trkpt lat="46.28053" lon="2.78148">
        <ele>410.82</ele>
        <time>2018-07-14T09:08:39.000Z</time>
      </trkpt>
      <trkpt lat="46.28055" lon="2.78131">
        <ele>411.78</ele>
        <time>2018-07-14T09:08:41.000Z</time>
      </trkpt>
      <trkpt lat="46.28053" lon="2.78111">
        <ele>412.23</ele>
        <time>2018-07-14T09:08:43.000Z</time>
      </trkpt>
      <trkpt lat="46.28052" lon="2.7809">
        <ele>412.38</ele>
        <time>2018-07-14T09:08:45.000Z</time>
      </trkpt>
      <trkpt lat="46.28052" lon="2.78069">
        <ele>412.73</ele>
        <time>2018-07-14T09:08:47.000Z</time>
      </trkpt>
      <trkpt lat="46.28054" lon="2.78047">
        <ele>412.78</ele>
        <time>2018-07-14T09:08:49.000Z</time>
      </trkpt>
      <trkpt lat="46.28059" lon="2.78028">
        <ele>412.87</ele>
        <time>2018-07-14T09:08:51.000Z</time>
      </trkpt>
      <trkpt lat="46.28068" lon="2.78009">
        <ele>412.75</ele>
        <time>2018-07-14T09:08:53.000Z</time>
      </trkpt>
      <trkpt lat="46.28074" lon="2.77992">
        <ele>413.03</ele>
        <time>2018-07-14T09:08:55.000Z</time>
      </trkpt>
      <trkpt lat="46.28078" lon="2.77976">
        <ele>414.02</ele>
        <time>2018-07-14T09:08:57.000Z</time>
      </trkpt>
      <trkpt lat="46.28077" lon="2.7796">
        <ele>415.63</ele>
        <time>2018-07-14T09:08:59.000Z</time>
      </trkpt>
      <trkpt lat="46.28078" lon="2.77943">
        <ele>416.67</ele>
        <time>2018-07-14T09:09:01.000Z</time>
      </trkpt>
      <trkpt lat="46.28084" lon="2.77927">
        <ele>417.56</ele>
        <time>2018-07-14T09:09:03.000Z</time>
      </trkpt>
      <trkpt lat="46.28091" lon="2.7791">
        <ele>418.4</ele>
        <time>2018-07-14T09:09:05.000Z</time>
      </trkpt>
      <trkpt lat="46.281" lon="2.77901">
        <ele>418.3</ele>
        <time>2018-07-14T09:09:06.000Z</time>
      </trkpt>
      <trkpt lat="46.28106" lon="2.77886">
        <ele>418.92</ele>
        <time>2018-07-14T09:09:08.000Z</time>
      </trkpt>
      <trkpt lat="46.28111" lon="2.77867">
        <ele>418.45</ele>
        <time>2018-07-14T09:09:10.000Z</time>
      </trkpt>
      <trkpt lat="46.28119" lon="2.77846">
        <ele>418.82</ele>
        <time>2018-07-14T09:09:12.000Z</time>
      </trkpt>
      <trkpt lat="46.28126" lon="2.77825">
        <ele>420.76</ele>
        <time>2018-07-14T09:09:14.000Z</time>
      </trkpt>
      <trkpt lat="46.28133" lon="2.77806">
        <ele>421.6</ele>
        <time>2018-07-14T09:09:16.000Z</time>
      </trkpt>
      <trkpt lat="46.28144" lon="2.77786">
        <ele>421.86</ele>
        <time>2018-07-14T09:09:18.000Z</time>
      </trkpt>
      <trkpt lat="46.28151" lon="2.77777">
        <ele>421.85</ele>
        <time>2018-07-14T09:09:19.000Z</time>
      </trkpt>
      <trkpt lat="46.2816" lon="2.77759">
        <ele>421.87</ele>
        <time>2018-07-14T09:09:21.000Z</time>
      </trkpt>
      <trkpt lat="46.28167" lon="2.77741">
        <ele>422.37</ele>
        <time>2018-07-14T09:09:23.000Z</time>
      </trkpt>
      <trkpt lat="46.28174" lon="2.77723">
        <ele>422.85</ele>
        <time>2018-07-14T09:09:25.000Z</time>
      </trkpt>
      <trkpt lat="46.28181" lon="2.77705">
        <ele>422.33</ele>
        <time>2018-07-14T09:09:27.000Z</time>
      </trkpt>
      <trkpt lat="46.28189" lon="2.77688">
        <ele>422.17</ele>
        <time>2018-07-14T09:09:29.000Z</time>
      </trkpt>
      <trkpt lat="46.28196" lon="2.77671">
        <ele>422.97</ele>
        <time>2018-07-14T09:09:31.000Z</time>
      </trkpt>
      <trkpt lat="46.28203" lon="2.77654">
        <ele>423.44</ele>
        <time>2018-07-14T09:09:33.000Z</time>
      </trkpt>
      <trkpt lat="46.28211" lon="2.77639">
        <ele>424.44</ele>
        <time>2018-07-14T09:09:35.000Z</time>
      </trkpt>
      <trkpt lat="46.28218" lon="2.77622">
        <ele>425.48</ele>
        <time>2018-07-14T09:09:37.000Z</time>
      </trkpt>
      <trkpt lat="46.28225" lon="2.77605">
        <ele>426.19</ele>
        <time>2018-07-14T09:09:39.000Z</time>
      </trkpt>
      <trkpt lat="46.28233" lon="2.77588">
        <ele>426.3</ele>
        <time>2018-07-14T09:09:41.000Z</time>
      </trkpt>
      <trkpt lat="46.2824" lon="2.77569">
        <ele>426.59</ele>
        <time>2018-07-14T09:09:43.000Z</time>
      </trkpt>
      <trkpt lat="46.28247" lon="2.77549">
        <ele>427.19</ele>
        <time>2018-07-14T09:09:45.000Z</time>
      </trkpt>
      <trkpt lat="46.28253" lon="2.7753">
        <ele>427.66</ele>
        <time>2018-07-14T09:09:47.000Z</time>
      </trkpt>
      <trkpt lat="46.28261" lon="2.77512">
        <ele>428.01</ele>
        <time>2018-07-14T09:09:49.000Z</time>
      </trkpt>
      <trkpt lat="46.28269" lon="2.77494">
        <ele>427.86</ele>
        <time>2018-07-14T09:09:51.000Z</time>
      </trkpt>
      <trkpt lat="46.28277" lon="2.77475">
        <ele>428.29</ele>
        <time>2018-07-14T09:09:53.000Z</time>
      </trkpt>
      <trkpt lat="46.28285" lon="2.77456">
        <ele>428.3</ele>
        <time>2018-07-14T09:09:55.000Z</time>
      </trkpt>
      <trkpt lat="46.28294" lon="2.77439">
        <ele>428.23</ele>
        <time>2018-07-14T09:09:57.000Z</time>
      </trkpt>
      <trkpt lat="46.28302" lon="2.77423">
        <ele>428.22</ele>
        <time>2018-07-14T09:09:59.000Z</time>
      </trkpt>
      <trkpt lat="46.2831" lon="2.77404">
        <ele>427.93</ele>
        <time>2018-07-14T09:10:01.000Z</time>
      </trkpt>
      <trkpt lat="46.28319" lon="2.77384">
        <ele>427.82</ele>
        <time>2018-07-14T09:10:03.000Z</time>
      </trkpt>
      <trkpt lat="46.28328" lon="2.77365">
        <ele>427.93</ele>
        <time>2018-07-14T09:10:05.000Z</time>
      </trkpt>
      <trkpt lat="46.28335" lon="2.77347">
        <ele>428.58</ele>
        <time>2018-07-14T09:10:07.000Z</time>
      </trkpt>
      <trkpt lat="46.28343" lon="2.7733">
        <ele>429.1</ele>
        <time>2018-07-14T09:10:09.000Z</time>
      </trkpt>
      <trkpt lat="46.28351" lon="2.77312">
        <ele>429.36</ele>
        <time>2018-07-14T09:10:11.000Z</time>
      </trkpt>
      <trkpt lat="46.28359" lon="2.77294">
        <ele>430.16</ele>
        <time>2018-07-14T09:10:13.000Z</time>
      </trkpt>
      <trkpt lat="46.28369" lon="2.77275">
        <ele>430.68</ele>
        <time>2018-07-14T09:10:15.000Z</time>
      </trkpt>
      <trkpt lat="46.28378" lon="2.77257">
        <ele>431.3</ele>
        <time>2018-07-14T09:10:17.000Z</time>
      </trkpt>
      <trkpt lat="46.28387" lon="2.77238">
        <ele>431.66</ele>
        <time>2018-07-14T09:10:19.000Z</time>
      </trkpt>
      <trkpt lat="46.28396" lon="2.77219">
        <ele>431.75</ele>
        <time>2018-07-14T09:10:21.000Z</time>
      </trkpt>
      <trkpt lat="46.28404" lon="2.77199">
        <ele>431.76</ele>
        <time>2018-07-14T09:10:23.000Z</time>
      </trkpt>
      <trkpt lat="46.28412" lon="2.77179">
        <ele>431.64</ele>
        <time>2018-07-14T09:10:25.000Z</time>
      </trkpt>
      <trkpt lat="46.2842" lon="2.77159">
        <ele>431.59</ele>
        <time>2018-07-14T09:10:27.000Z</time>
      </trkpt>
      <trkpt lat="46.28427" lon="2.77141">
        <ele>431.55</ele>
        <time>2018-07-14T09:10:29.000Z</time>
      </trkpt>
      <trkpt lat="46.28434" lon="2.77122">
        <ele>431.4</ele>
        <time>2018-07-14T09:10:31.000Z</time>
      </trkpt>
      <trkpt lat="46.28443" lon="2.77102">
        <ele>430.93</ele>
        <time>2018-07-14T09:10:33.000Z</time>
      </trkpt>
      <trkpt lat="46.28452" lon="2.7708">
        <ele>430.84</ele>
        <time>2018-07-14T09:10:35.000Z</time>
      </trkpt>
      <trkpt lat="46.28462" lon="2.77059">
        <ele>430.38</ele>
        <time>2018-07-14T09:10:37.000Z</time>
      </trkpt>
      <trkpt lat="46.2847" lon="2.77038">
        <ele>430.16</ele>
        <time>2018-07-14T09:10:39.000Z</time>
      </trkpt>
      <trkpt lat="46.2848" lon="2.77017">
        <ele>429.97</ele>
        <time>2018-07-14T09:10:41.000Z</time>
      </trkpt>
      <trkpt lat="46.28485" lon="2.77006">
        <ele>429.96</ele>
        <time>2018-07-14T09:10:42.000Z</time>
      </trkpt>
      <trkpt lat="46.2849" lon="2.76995">
        <ele>429.91</ele>
        <time>2018-07-14T09:10:43.000Z</time>
      </trkpt>
      <trkpt lat="46.28496" lon="2.76984">
        <ele>429.65</ele>
        <time>2018-07-14T09:10:44.000Z</time>
      </trkpt>
      <trkpt lat="46.28501" lon="2.76973">
        <ele>429.12</ele>
        <time>2018-07-14T09:10:45.000Z</time>
      </trkpt>
      <trkpt lat="46.28507" lon="2.76962">
        <ele>428.54</ele>
        <time>2018-07-14T09:10:46.000Z</time>
      </trkpt>
      <trkpt lat="46.28511" lon="2.76949">
        <ele>428.39</ele>
        <time>2018-07-14T09:10:47.000Z</time>
      </trkpt>
      <trkpt lat="46.28516" lon="2.76937">
        <ele>428.27</ele>
        <time>2018-07-14T09:10:48.000Z</time>
      </trkpt>
      <trkpt lat="46.28521" lon="2.76924">
        <ele>428.03</ele>
        <time>2018-07-14T09:10:49.000Z</time>
      </trkpt>
      <trkpt lat="46.28525" lon="2.76912">
        <ele>427.72</ele>
        <time>2018-07-14T09:10:50.000Z</time>
      </trkpt>
      <trkpt lat="46.28531" lon="2.76898">
        <ele>427.09</ele>
        <time>2018-07-14T09:10:51.000Z</time>
      </trkpt>
      <trkpt lat="46.28535" lon="2.76883">
        <ele>426.7</ele>
        <time>2018-07-14T09:10:52.000Z</time>
      </trkpt>
      <trkpt lat="46.28539" lon="2.76869">
        <ele>426.47</ele>
        <time>2018-07-14T09:10:53.000Z</time>
      </trkpt>
      <trkpt lat="46.28543" lon="2.76854">
        <ele>425.81</ele>
        <time>2018-07-14T09:10:54.000Z</time>
      </trkpt>
      <trkpt lat="46.28547" lon="2.7684">
        <ele>425.27</ele>
        <time>2018-07-14T09:10:55.000Z</time>
      </trkpt>
      <trkpt lat="46.2855" lon="2.76825">
        <ele>424.59</ele>
        <time>2018-07-14T09:10:56.000Z</time>
      </trkpt>
      <trkpt lat="46.28552" lon="2.7681">
        <ele>423.94</ele>
        <time>2018-07-14T09:10:57.000Z</time>
      </trkpt>
      <trkpt lat="46.28555" lon="2.76797">
        <ele>423.21</ele>
        <time>2018-07-14T09:10:58.000Z</time>
      </trkpt>
      <trkpt lat="46.28557" lon="2.76784">
        <ele>422.37</ele>
        <time>2018-07-14T09:10:59.000Z</time>
      </trkpt>
      <trkpt lat="46.2856" lon="2.76771">
        <ele>421.89</ele>
        <time>2018-07-14T09:11:00.000Z</time>
      </trkpt>
      <trkpt lat="46.28563" lon="2.76759">
        <ele>421.41</ele>
        <time>2018-07-14T09:11:01.000Z</time>
      </trkpt>
      <trkpt lat="46.2857" lon="2.76734">
        <ele>420.74</ele>
        <time>2018-07-14T09:11:03.000Z</time>
      </trkpt>
      <trkpt lat="46.28573" lon="2.76721">
        <ele>420.51</ele>
        <time>2018-07-14T09:11:04.000Z</time>
      </trkpt>
      <trkpt lat="46.28576" lon="2.76708">
        <ele>420.22</ele>
        <time>2018-07-14T09:11:05.000Z</time>
      </trkpt>
      <trkpt lat="46.28579" lon="2.76695">
        <ele>419.88</ele>
        <time>2018-07-14T09:11:06.000Z</time>
      </trkpt>
      <trkpt lat="46.28581" lon="2.76682">
        <ele>419.45</ele>
        <time>2018-07-14T09:11:07.000Z</time>
      </trkpt>
      <trkpt lat="46.28584" lon="2.76668">
        <ele>418.94</ele>
        <time>2018-07-14T09:11:08.000Z</time>
      </trkpt>
      <trkpt lat="46.28586" lon="2.76654">
        <ele>418.34</ele>
        <time>2018-07-14T09:11:09.000Z</time>
      </trkpt>
      <trkpt lat="46.28589" lon="2.76639">
        <ele>417.68</ele>
        <time>2018-07-14T09:11:10.000Z</time>
      </trkpt>
      <trkpt lat="46.28591" lon="2.76625">
        <ele>417.29</ele>
        <time>2018-07-14T09:11:11.000Z</time>
      </trkpt>
      <trkpt lat="46.28593" lon="2.76611">
        <ele>416.81</ele>
        <time>2018-07-14T09:11:12.000Z</time>
      </trkpt>
      <trkpt lat="46.28596" lon="2.76597">
        <ele>416.53</ele>
        <time>2018-07-14T09:11:13.000Z</time>
      </trkpt>
      <trkpt lat="46.28598" lon="2.76583">
        <ele>416.16</ele>
        <time>2018-07-14T09:11:14.000Z</time>
      </trkpt>
      <trkpt lat="46.286" lon="2.76569">
        <ele>415.93</ele>
        <time>2018-07-14T09:11:15.000Z</time>
      </trkpt>
      <trkpt lat="46.28603" lon="2.76555">
        <ele>415.59</ele>
        <time>2018-07-14T09:11:16.000Z</time>
      </trkpt>
      <trkpt lat="46.28606" lon="2.7654">
        <ele>415.41</ele>
        <time>2018-07-14T09:11:17.000Z</time>
      </trkpt>
      <trkpt lat="46.28608" lon="2.76525">
        <ele>415.04</ele>
        <time>2018-07-14T09:11:18.000Z</time>
      </trkpt>
      <trkpt lat="46.28611" lon="2.7651">
        <ele>414.47</ele>
        <time>2018-07-14T09:11:19.000Z</time>
      </trkpt>
      <trkpt lat="46.28614" lon="2.76495">
        <ele>413.95</ele>
        <time>2018-07-14T09:11:20.000Z</time>
      </trkpt>
      <trkpt lat="46.28616" lon="2.76481">
        <ele>413.64</ele>
        <time>2018-07-14T09:11:21.000Z</time>
      </trkpt>
      <trkpt lat="46.28619" lon="2.76466">
        <ele>413.17</ele>
        <time>2018-07-14T09:11:22.000Z</time>
      </trkpt>
      <trkpt lat="46.28623" lon="2.76452">
        <ele>412.7</ele>
        <time>2018-07-14T09:11:23.000Z</time>
      </trkpt>
      <trkpt lat="46.28626" lon="2.76438">
        <ele>412.31</ele>
        <time>2018-07-14T09:11:24.000Z</time>
      </trkpt>
      <trkpt lat="46.28629" lon="2.76425">
        <ele>412.06</ele>
        <time>2018-07-14T09:11:25.000Z</time>
      </trkpt>
      <trkpt lat="46.28632" lon="2.7641">
        <ele>411.6</ele>
        <time>2018-07-14T09:11:26.000Z</time>
      </trkpt>
      <trkpt lat="46.28637" lon="2.76396">
        <ele>410.94</ele>
        <time>2018-07-14T09:11:27.000Z</time>
      </trkpt>
      <trkpt lat="46.28641" lon="2.7638">
        <ele>409.99</ele>
        <time>2018-07-14T09:11:28.000Z</time>
      </trkpt>
      <trkpt lat="46.28645" lon="2.76364">
        <ele>409.28</ele>
        <time>2018-07-14T09:11:29.000Z</time>
      </trkpt>
      <trkpt lat="46.28649" lon="2.76348">
        <ele>408.41</ele>
        <time>2018-07-14T09:11:30.000Z</time>
      </trkpt>
      <trkpt lat="46.28653" lon="2.76333">
        <ele>407.31</ele>
        <time>2018-07-14T09:11:31.000Z</time>
      </trkpt>
      <trkpt lat="46.28657" lon="2.76317">
        <ele>406.53</ele>
        <time>2018-07-14T09:11:32.000Z</time>
      </trkpt>
      <trkpt lat="46.2866" lon="2.76301">
        <ele>405.66</ele>
        <time>2018-07-14T09:11:33.000Z</time>
      </trkpt>
      <trkpt lat="46.28663" lon="2.76285">
        <ele>405</ele>
        <time>2018-07-14T09:11:34.000Z</time>
      </trkpt>
      <trkpt lat="46.28666" lon="2.76269">
        <ele>404.38</ele>
        <time>2018-07-14T09:11:35.000Z</time>
      </trkpt>
      <trkpt lat="46.28669" lon="2.76253">
        <ele>403.88</ele>
        <time>2018-07-14T09:11:36.000Z</time>
      </trkpt>
      <trkpt lat="46.28673" lon="2.76238">
        <ele>403.37</ele>
        <time>2018-07-14T09:11:37.000Z</time>
      </trkpt>
      <trkpt lat="46.28676" lon="2.76223">
        <ele>402.91</ele>
        <time>2018-07-14T09:11:38.000Z</time>
      </trkpt>
      <trkpt lat="46.28678" lon="2.76207">
        <ele>402.51</ele>
        <time>2018-07-14T09:11:39.000Z</time>
      </trkpt>
      <trkpt lat="46.28682" lon="2.76192">
        <ele>401.85</ele>
        <time>2018-07-14T09:11:40.000Z</time>
      </trkpt>
      <trkpt lat="46.28685" lon="2.76177">
        <ele>401.43</ele>
        <time>2018-07-14T09:11:41.000Z</time>
      </trkpt>
      <trkpt lat="46.28688" lon="2.76163">
        <ele>401.12</ele>
        <time>2018-07-14T09:11:42.000Z</time>
      </trkpt>
      <trkpt lat="46.28691" lon="2.7615">
        <ele>400.84</ele>
        <time>2018-07-14T09:11:43.000Z</time>
      </trkpt>
      <trkpt lat="46.28694" lon="2.76137">
        <ele>400.28</ele>
        <time>2018-07-14T09:11:44.000Z</time>
      </trkpt>
      <trkpt lat="46.28696" lon="2.76123">
        <ele>399.91</ele>
        <time>2018-07-14T09:11:45.000Z</time>
      </trkpt>
      <trkpt lat="46.28699" lon="2.76109">
        <ele>399.54</ele>
        <time>2018-07-14T09:11:46.000Z</time>
      </trkpt>
      <trkpt lat="46.28702" lon="2.76095">
        <ele>399.25</ele>
        <time>2018-07-14T09:11:47.000Z</time>
      </trkpt>
      <trkpt lat="46.28705" lon="2.76081">
        <ele>398.89</ele>
        <time>2018-07-14T09:11:48.000Z</time>
      </trkpt>
      <trkpt lat="46.28708" lon="2.76068">
        <ele>398.56</ele>
        <time>2018-07-14T09:11:49.000Z</time>
      </trkpt>
      <trkpt lat="46.2871" lon="2.76055">
        <ele>398.35</ele>
        <time>2018-07-14T09:11:50.000Z</time>
      </trkpt>
      <trkpt lat="46.28716" lon="2.76031">
        <ele>398.09</ele>
        <time>2018-07-14T09:11:52.000Z</time>
      </trkpt>
      <trkpt lat="46.2872" lon="2.76009">
        <ele>397.25</ele>
        <time>2018-07-14T09:11:54.000Z</time>
      </trkpt>
      <trkpt lat="46.28725" lon="2.75988">
        <ele>396.97</ele>
        <time>2018-07-14T09:11:56.000Z</time>
      </trkpt>
      <trkpt lat="46.2873" lon="2.75967">
        <ele>397.14</ele>
        <time>2018-07-14T09:11:58.000Z</time>
      </trkpt>
      <trkpt lat="46.28733" lon="2.75947">
        <ele>397.42</ele>
        <time>2018-07-14T09:12:00.000Z</time>
      </trkpt>
      <trkpt lat="46.28739" lon="2.75929">
        <ele>397.44</ele>
        <time>2018-07-14T09:12:02.000Z</time>
      </trkpt>
      <trkpt lat="46.28743" lon="2.75911">
        <ele>397.57</ele>
        <time>2018-07-14T09:12:04.000Z</time>
      </trkpt>
      <trkpt lat="46.28746" lon="2.75892">
        <ele>397.64</ele>
        <time>2018-07-14T09:12:06.000Z</time>
      </trkpt>
      <trkpt lat="46.28749" lon="2.75875">
        <ele>397.25</ele>
        <time>2018-07-14T09:12:08.000Z</time>
      </trkpt>
      <trkpt lat="46.28753" lon="2.75857">
        <ele>397</ele>
        <time>2018-07-14T09:12:10.000Z</time>
      </trkpt>
      <trkpt lat="46.28757" lon="2.75837">
        <ele>397.47</ele>
        <time>2018-07-14T09:12:12.000Z</time>
      </trkpt>
      <trkpt lat="46.28762" lon="2.75816">
        <ele>397.75</ele>
        <time>2018-07-14T09:12:14.000Z</time>
      </trkpt>
      <trkpt lat="46.28765" lon="2.75797">
        <ele>398.25</ele>
        <time>2018-07-14T09:12:16.000Z</time>
      </trkpt>
      <trkpt lat="46.2877" lon="2.75777">
        <ele>398.35</ele>
        <time>2018-07-14T09:12:18.000Z</time>
      </trkpt>
      <trkpt lat="46.28773" lon="2.75757">
        <ele>398.25</ele>
        <time>2018-07-14T09:12:20.000Z</time>
      </trkpt>
      <trkpt lat="46.28782" lon="2.7574">
        <ele>397.8</ele>
        <time>2018-07-14T09:12:22.000Z</time>
      </trkpt>
      <trkpt lat="46.28782" lon="2.75722">
        <ele>397.87</ele>
        <time>2018-07-14T09:12:24.000Z</time>
      </trkpt>
      <trkpt lat="46.28783" lon="2.75704">
        <ele>397.88</ele>
        <time>2018-07-14T09:12:26.000Z</time>
      </trkpt>
      <trkpt lat="46.28787" lon="2.75687">
        <ele>397.74</ele>
        <time>2018-07-14T09:12:28.000Z</time>
      </trkpt>
      <trkpt lat="46.28791" lon="2.75669">
        <ele>397.69</ele>
        <time>2018-07-14T09:12:30.000Z</time>
      </trkpt>
      <trkpt lat="46.28796" lon="2.75652">
        <ele>398.04</ele>
        <time>2018-07-14T09:12:32.000Z</time>
      </trkpt>
      <trkpt lat="46.28801" lon="2.75635">
        <ele>398.33</ele>
        <time>2018-07-14T09:12:34.000Z</time>
      </trkpt>
      <trkpt lat="46.28806" lon="2.75618">
        <ele>398.77</ele>
        <time>2018-07-14T09:12:36.000Z</time>
      </trkpt>
      <trkpt lat="46.2881" lon="2.75602">
        <ele>399.27</ele>
        <time>2018-07-14T09:12:38.000Z</time>
      </trkpt>
      <trkpt lat="46.28814" lon="2.75586">
        <ele>399.76</ele>
        <time>2018-07-14T09:12:40.000Z</time>
      </trkpt>
      <trkpt lat="46.28817" lon="2.75571">
        <ele>399.95</ele>
        <time>2018-07-14T09:12:42.000Z</time>
      </trkpt>
      <trkpt lat="46.28822" lon="2.75553">
        <ele>400.03</ele>
        <time>2018-07-14T09:12:44.000Z</time>
      </trkpt>
      <trkpt lat="46.28827" lon="2.75535">
        <ele>400.34</ele>
        <time>2018-07-14T09:12:46.000Z</time>
      </trkpt>
      <trkpt lat="46.28832" lon="2.75523">
        <ele>400.98</ele>
        <time>2018-07-14T09:12:48.000Z</time>
      </trkpt>
      <trkpt lat="46.28843" lon="2.75518">
        <ele>401.58</ele>
        <time>2018-07-14T09:12:50.000Z</time>
      </trkpt>
      <trkpt lat="46.28853" lon="2.75508">
        <ele>402.13</ele>
        <time>2018-07-14T09:12:52.000Z</time>
      </trkpt>
      <trkpt lat="46.28859" lon="2.75492">
        <ele>401.99</ele>
        <time>2018-07-14T09:12:54.000Z</time>
      </trkpt>
      <trkpt lat="46.28859" lon="2.75475">
        <ele>402.57</ele>
        <time>2018-07-14T09:12:56.000Z</time>
      </trkpt>
      <trkpt lat="46.28854" lon="2.7546">
        <ele>403.52</ele>
        <time>2018-07-14T09:12:58.000Z</time>
      </trkpt>
      <trkpt lat="46.28851" lon="2.75444">
        <ele>403.99</ele>
        <time>2018-07-14T09:13:00.000Z</time>
      </trkpt>
      <trkpt lat="46.28848" lon="2.75428">
        <ele>405</ele>
        <time>2018-07-14T09:13:02.000Z</time>
      </trkpt>
      <trkpt lat="46.2885" lon="2.7541">
        <ele>405.66</ele>
        <time>2018-07-14T09:13:04.000Z</time>
      </trkpt>
      <trkpt lat="46.28851" lon="2.75391">
        <ele>406.04</ele>
        <time>2018-07-14T09:13:06.000Z</time>
      </trkpt>
      <trkpt lat="46.28854" lon="2.75372">
        <ele>406.19</ele>
        <time>2018-07-14T09:13:08.000Z</time>
      </trkpt>
      <trkpt lat="46.28857" lon="2.75354">
        <ele>406.37</ele>
        <time>2018-07-14T09:13:10.000Z</time>
      </trkpt>
      <trkpt lat="46.28861" lon="2.75337">
        <ele>406.27</ele>
        <time>2018-07-14T09:13:12.000Z</time>
      </trkpt>
      <trkpt lat="46.28864" lon="2.75319">
        <ele>406.24</ele>
        <time>2018-07-14T09:13:14.000Z</time>
      </trkpt>
      <trkpt lat="46.28868" lon="2.75302">
        <ele>406.24</ele>
        <time>2018-07-14T09:13:16.000Z</time>
      </trkpt>
      <trkpt lat="46.28873" lon="2.75285">
        <ele>406.1</ele>
        <time>2018-07-14T09:13:18.000Z</time>
      </trkpt>
      <trkpt lat="46.28878" lon="2.75268">
        <ele>406.24</ele>
        <time>2018-07-14T09:13:20.000Z</time>
      </trkpt>
      <trkpt lat="46.28884" lon="2.75255">
        <ele>406.58</ele>
        <time>2018-07-14T09:13:22.000Z</time>
      </trkpt>
      <trkpt lat="46.28891" lon="2.75243">
        <ele>407.13</ele>
        <time>2018-07-14T09:13:24.000Z</time>
      </trkpt>
      <trkpt lat="46.28899" lon="2.75232">
        <ele>407.56</ele>
        <time>2018-07-14T09:13:26.000Z</time>
      </trkpt>
      <trkpt lat="46.28907" lon="2.75219">
        <ele>408.01</ele>
        <time>2018-07-14T09:13:28.000Z</time>
      </trkpt>
      <trkpt lat="46.28915" lon="2.75206">
        <ele>408.44</ele>
        <time>2018-07-14T09:13:30.000Z</time>
      </trkpt>
      <trkpt lat="46.28923" lon="2.75191">
        <ele>409.15</ele>
        <time>2018-07-14T09:13:32.000Z</time>
      </trkpt>
      <trkpt lat="46.2893" lon="2.75174">
        <ele>410.09</ele>
        <time>2018-07-14T09:13:34.000Z</time>
      </trkpt>
      <trkpt lat="46.28936" lon="2.75161">
        <ele>410.82</ele>
        <time>2018-07-14T09:13:36.000Z</time>
      </trkpt>
      <trkpt lat="46.28943" lon="2.7515">
        <ele>411.45</ele>
        <time>2018-07-14T09:13:38.000Z</time>
      </trkpt>
      <trkpt lat="46.2895" lon="2.75137">
        <ele>412.31</ele>
        <time>2018-07-14T09:13:40.000Z</time>
      </trkpt>
      <trkpt lat="46.28956" lon="2.75125">
        <ele>413.62</ele>
        <time>2018-07-14T09:13:42.000Z</time>
      </trkpt>
      <trkpt lat="46.28962" lon="2.75111">
        <ele>414.44</ele>
        <time>2018-07-14T09:13:44.000Z</time>
      </trkpt>
      <trkpt lat="46.28968" lon="2.75099">
        <ele>415.42</ele>
        <time>2018-07-14T09:13:46.000Z</time>
      </trkpt>
      <trkpt lat="46.28975" lon="2.75086">
        <ele>416.37</ele>
        <time>2018-07-14T09:13:48.000Z</time>
      </trkpt>
      <trkpt lat="46.28981" lon="2.75071">
        <ele>417.16</ele>
        <time>2018-07-14T09:13:50.000Z</time>
      </trkpt>
      <trkpt lat="46.28988" lon="2.75058">
        <ele>417.61</ele>
        <time>2018-07-14T09:13:52.000Z</time>
      </trkpt>
      <trkpt lat="46.28995" lon="2.75045">
        <ele>417.62</ele>
        <time>2018-07-14T09:13:54.000Z</time>
      </trkpt>
      <trkpt lat="46.28997" lon="2.75032">
        <ele>417.61</ele>
        <time>2018-07-14T09:13:56.000Z</time>
      </trkpt>
      <trkpt lat="46.28997" lon="2.75018">
        <ele>417.95</ele>
        <time>2018-07-14T09:13:58.000Z</time>
      </trkpt>
      <trkpt lat="46.28994" lon="2.75001">
        <ele>418.21</ele>
        <time>2018-07-14T09:14:00.000Z</time>
      </trkpt>
      <trkpt lat="46.28991" lon="2.74982">
        <ele>418.71</ele>
        <time>2018-07-14T09:14:02.000Z</time>
      </trkpt>
      <trkpt lat="46.28987" lon="2.74965">
        <ele>419.33</ele>
        <time>2018-07-14T09:14:04.000Z</time>
      </trkpt>
      <trkpt lat="46.28983" lon="2.7495">
        <ele>420.03</ele>
        <time>2018-07-14T09:14:06.000Z</time>
      </trkpt>
      <trkpt lat="46.2898" lon="2.74937">
        <ele>420.87</ele>
        <time>2018-07-14T09:14:08.000Z</time>
      </trkpt>
      <trkpt lat="46.28978" lon="2.74923">
        <ele>421.81</ele>
        <time>2018-07-14T09:14:10.000Z</time>
      </trkpt>
      <trkpt lat="46.28976" lon="2.74905">
        <ele>422.92</ele>
        <time>2018-07-14T09:14:12.000Z</time>
      </trkpt>
      <trkpt lat="46.28976" lon="2.74892">
        <ele>424.1</ele>
        <time>2018-07-14T09:14:14.000Z</time>
      </trkpt>
      <trkpt lat="46.28975" lon="2.74879">
        <ele>424.86</ele>
        <time>2018-07-14T09:14:16.000Z</time>
      </trkpt>
      <trkpt lat="46.28972" lon="2.74862">
        <ele>425.44</ele>
        <time>2018-07-14T09:14:18.000Z</time>
      </trkpt>
      <trkpt lat="46.28967" lon="2.74846">
        <ele>426.02</ele>
        <time>2018-07-14T09:14:20.000Z</time>
      </trkpt>
      <trkpt lat="46.28962" lon="2.7483">
        <ele>426.77</ele>
        <time>2018-07-14T09:14:22.000Z</time>
      </trkpt>
      <trkpt lat="46.28958" lon="2.74814">
        <ele>427.43</ele>
        <time>2018-07-14T09:14:24.000Z</time>
      </trkpt>
      <trkpt lat="46.28956" lon="2.74796">
        <ele>427.93</ele>
        <time>2018-07-14T09:14:26.000Z</time>
      </trkpt>
      <trkpt lat="46.28955" lon="2.74775">
        <ele>428.86</ele>
        <time>2018-07-14T09:14:28.000Z</time>
      </trkpt>
      <trkpt lat="46.28952" lon="2.74756">
        <ele>429.44</ele>
        <time>2018-07-14T09:14:30.000Z</time>
      </trkpt>
      <trkpt lat="46.28943" lon="2.74737">
        <ele>429.58</ele>
        <time>2018-07-14T09:14:32.000Z</time>
      </trkpt>
      <trkpt lat="46.28939" lon="2.7472">
        <ele>429.79</ele>
        <time>2018-07-14T09:14:34.000Z</time>
      </trkpt>
      <trkpt lat="46.28936" lon="2.74707">
        <ele>430.25</ele>
        <time>2018-07-14T09:14:36.000Z</time>
      </trkpt>
      <trkpt lat="46.28935" lon="2.74688">
        <ele>430.58</ele>
        <time>2018-07-14T09:14:39.000Z</time>
      </trkpt>
      <trkpt lat="46.28934" lon="2.74673">
        <ele>430.52</ele>
        <time>2018-07-14T09:14:41.000Z</time>
      </trkpt>
      <trkpt lat="46.28936" lon="2.74656">
        <ele>430.79</ele>
        <time>2018-07-14T09:14:43.000Z</time>
      </trkpt>
      <trkpt lat="46.28934" lon="2.74639">
        <ele>431.02</ele>
        <time>2018-07-14T09:14:45.000Z</time>
      </trkpt>
      <trkpt lat="46.2893" lon="2.74621">
        <ele>431.37</ele>
        <time>2018-07-14T09:14:47.000Z</time>
      </trkpt>
      <trkpt lat="46.28926" lon="2.74604">
        <ele>431.48</ele>
        <time>2018-07-14T09:14:49.000Z</time>
      </trkpt>
      <trkpt lat="46.28922" lon="2.74586">
        <ele>431.85</ele>
        <time>2018-07-14T09:14:51.000Z</time>
      </trkpt>
      <trkpt lat="46.28933" lon="2.74579">
        <ele>430.73</ele>
        <time>2018-07-14T09:14:52.000Z</time>
      </trkpt>
      <trkpt lat="46.2892" lon="2.7456">
        <ele>431.82</ele>
        <time>2018-07-14T09:14:54.000Z</time>
      </trkpt>
      <trkpt lat="46.28914" lon="2.74541">
        <ele>432.56</ele>
        <time>2018-07-14T09:14:56.000Z</time>
      </trkpt>
      <trkpt lat="46.28909" lon="2.74526">
        <ele>433.46</ele>
        <time>2018-07-14T09:14:58.000Z</time>
      </trkpt>
      <trkpt lat="46.28906" lon="2.7451">
        <ele>433.76</ele>
        <time>2018-07-14T09:15:00.000Z</time>
      </trkpt>
      <trkpt lat="46.28903" lon="2.74494">
        <ele>434.28</ele>
        <time>2018-07-14T09:15:02.000Z</time>
      </trkpt>
      <trkpt lat="46.28899" lon="2.7448">
        <ele>435.11</ele>
        <time>2018-07-14T09:15:04.000Z</time>
      </trkpt>
      <trkpt lat="46.28896" lon="2.74464">
        <ele>436.11</ele>
        <time>2018-07-14T09:15:06.000Z</time>
      </trkpt>
      <trkpt lat="46.28893" lon="2.74447">
        <ele>437.4</ele>
        <time>2018-07-14T09:15:08.000Z</time>
      </trkpt>
      <trkpt lat="46.2889" lon="2.74431">
        <ele>438.27</ele>
        <time>2018-07-14T09:15:10.000Z</time>
      </trkpt>
      <trkpt lat="46.28888" lon="2.74415">
        <ele>438.32</ele>
        <time>2018-07-14T09:15:12.000Z</time>
      </trkpt>
      <trkpt lat="46.28876" lon="2.74399">
        <ele>436.18</ele>
        <time>2018-07-14T09:15:14.000Z</time>
      </trkpt>
      <trkpt lat="46.28874" lon="2.74383">
        <ele>436.57</ele>
        <time>2018-07-14T09:15:16.000Z</time>
      </trkpt>
      <trkpt lat="46.28871" lon="2.74366">
        <ele>437.69</ele>
        <time>2018-07-14T09:15:18.000Z</time>
      </trkpt>
      <trkpt lat="46.28873" lon="2.7435">
        <ele>438.38</ele>
        <time>2018-07-14T09:15:20.000Z</time>
      </trkpt>
      <trkpt lat="46.28876" lon="2.74335">
        <ele>438.89</ele>
        <time>2018-07-14T09:15:22.000Z</time>
      </trkpt>
      <trkpt lat="46.28877" lon="2.74321">
        <ele>440</ele>
        <time>2018-07-14T09:15:24.000Z</time>
      </trkpt>
      <trkpt lat="46.28873" lon="2.74304">
        <ele>439.97</ele>
        <time>2018-07-14T09:15:26.000Z</time>
      </trkpt>
      <trkpt lat="46.28882" lon="2.74295">
        <ele>441.3</ele>
        <time>2018-07-14T09:15:27.000Z</time>
      </trkpt>
      <trkpt lat="46.28884" lon="2.74279">
        <ele>441.08</ele>
        <time>2018-07-14T09:15:29.000Z</time>
      </trkpt>
      <trkpt lat="46.28891" lon="2.74262">
        <ele>437.97</ele>
        <time>2018-07-14T09:15:32.000Z</time>
      </trkpt>
      <trkpt lat="46.28901" lon="2.7425">
        <ele>437.34</ele>
        <time>2018-07-14T09:15:34.000Z</time>
      </trkpt>
      <trkpt lat="46.28911" lon="2.74238">
        <ele>437.61</ele>
        <time>2018-07-14T09:15:36.000Z</time>
      </trkpt>
      <trkpt lat="46.28919" lon="2.74224">
        <ele>438.69</ele>
        <time>2018-07-14T09:15:38.000Z</time>
      </trkpt>
      <trkpt lat="46.28928" lon="2.74207">
        <ele>439.39</ele>
        <time>2018-07-14T09:15:40.000Z</time>
      </trkpt>
      <trkpt lat="46.28936" lon="2.74191">
        <ele>440.12</ele>
        <time>2018-07-14T09:15:42.000Z</time>
      </trkpt>
      <trkpt lat="46.28946" lon="2.74177">
        <ele>441.16</ele>
        <time>2018-07-14T09:15:44.000Z</time>
      </trkpt>
      <trkpt lat="46.28958" lon="2.74164">
        <ele>441.78</ele>
        <time>2018-07-14T09:15:46.000Z</time>
      </trkpt>
      <trkpt lat="46.2897" lon="2.7415">
        <ele>443.17</ele>
        <time>2018-07-14T09:15:48.000Z</time>
      </trkpt>
      <trkpt lat="46.28985" lon="2.7414">
        <ele>443.68</ele>
        <time>2018-07-14T09:15:50.000Z</time>
      </trkpt>
      <trkpt lat="46.28998" lon="2.7413">
        <ele>444.45</ele>
        <time>2018-07-14T09:15:52.000Z</time>
      </trkpt>
      <trkpt lat="46.2901" lon="2.74119">
        <ele>445.36</ele>
        <time>2018-07-14T09:15:54.000Z</time>
      </trkpt>
      <trkpt lat="46.29025" lon="2.74112">
        <ele>446.22</ele>
        <time>2018-07-14T09:15:56.000Z</time>
      </trkpt>
      <trkpt lat="46.29039" lon="2.74107">
        <ele>447.16</ele>
        <time>2018-07-14T09:15:58.000Z</time>
      </trkpt>
      <trkpt lat="46.29054" lon="2.74105">
        <ele>447.46</ele>
        <time>2018-07-14T09:16:00.000Z</time>
      </trkpt>
      <trkpt lat="46.29068" lon="2.74104">
        <ele>447.76</ele>
        <time>2018-07-14T09:16:02.000Z</time>
      </trkpt>
      <trkpt lat="46.29083" lon="2.74098">
        <ele>448.83</ele>
        <time>2018-07-14T09:16:04.000Z</time>
      </trkpt>
      <trkpt lat="46.29098" lon="2.74093">
        <ele>449.75</ele>
        <time>2018-07-14T09:16:06.000Z</time>
      </trkpt>
      <trkpt lat="46.29114" lon="2.74089">
        <ele>449.96</ele>
        <time>2018-07-14T09:16:08.000Z</time>
      </trkpt>
      <trkpt lat="46.29123" lon="2.74086">
        <ele>449.7</ele>
        <time>2018-07-14T09:16:09.000Z</time>
      </trkpt>
      <trkpt lat="46.29132" lon="2.74082">
        <ele>449.34</ele>
        <time>2018-07-14T09:16:10.000Z</time>
      </trkpt>
      <trkpt lat="46.29149" lon="2.74075">
        <ele>449.33</ele>
        <time>2018-07-14T09:16:12.000Z</time>
      </trkpt>
      <trkpt lat="46.29165" lon="2.74069">
        <ele>449.57</ele>
        <time>2018-07-14T09:16:14.000Z</time>
      </trkpt>
      <trkpt lat="46.29181" lon="2.74064">
        <ele>450.71</ele>
        <time>2018-07-14T09:16:15.999Z</time>
      </trkpt>
      <trkpt lat="46.29195" lon="2.74061">
        <ele>451.91</ele>
        <time>2018-07-14T09:16:18.000Z</time>
      </trkpt>
      <trkpt lat="46.2921" lon="2.74058">
        <ele>452.79</ele>
        <time>2018-07-14T09:16:20.000Z</time>
      </trkpt>
      <trkpt lat="46.29224" lon="2.7405">
        <ele>452.62</ele>
        <time>2018-07-14T09:16:22.000Z</time>
      </trkpt>
      <trkpt lat="46.29232" lon="2.74045">
        <ele>450.58</ele>
        <time>2018-07-14T09:16:23.000Z</time>
      </trkpt>
      <trkpt lat="46.29242" lon="2.74039">
        <ele>446.76</ele>
        <time>2018-07-14T09:16:24.000Z</time>
      </trkpt>
      <trkpt lat="46.2925" lon="2.74033">
        <ele>446.27</ele>
        <time>2018-07-14T09:16:25.000Z</time>
      </trkpt>
      <trkpt lat="46.29265" lon="2.74021">
        <ele>446.48</ele>
        <time>2018-07-14T09:16:27.000Z</time>
      </trkpt>
      <trkpt lat="46.2928" lon="2.74009">
        <ele>446.88</ele>
        <time>2018-07-14T09:16:29.000Z</time>
      </trkpt>
      <trkpt lat="46.29295" lon="2.73999">
        <ele>447.85</ele>
        <time>2018-07-14T09:16:31.000Z</time>
      </trkpt>
      <trkpt lat="46.29311" lon="2.73989">
        <ele>448.83</ele>
        <time>2018-07-14T09:16:33.000Z</time>
      </trkpt>
      <trkpt lat="46.29326" lon="2.73979">
        <ele>449.64</ele>
        <time>2018-07-14T09:16:35.000Z</time>
      </trkpt>
      <trkpt lat="46.29339" lon="2.73964">
        <ele>449.99</ele>
        <time>2018-07-14T09:16:37.000Z</time>
      </trkpt>
      <trkpt lat="46.29351" lon="2.73952">
        <ele>450.57</ele>
        <time>2018-07-14T09:16:39.000Z</time>
      </trkpt>
      <trkpt lat="46.29365" lon="2.73942">
        <ele>450.53</ele>
        <time>2018-07-14T09:16:41.000Z</time>
      </trkpt>
      <trkpt lat="46.29381" lon="2.73931">
        <ele>450.3</ele>
        <time>2018-07-14T09:16:43.000Z</time>
      </trkpt>
      <trkpt lat="46.2939" lon="2.73925">
        <ele>450.25</ele>
        <time>2018-07-14T09:16:44.000Z</time>
      </trkpt>
      <trkpt lat="46.29398" lon="2.7392">
        <ele>450.1</ele>
        <time>2018-07-14T09:16:45.000Z</time>
      </trkpt>
      <trkpt lat="46.29407" lon="2.73914">
        <ele>449.77</ele>
        <time>2018-07-14T09:16:46.000Z</time>
      </trkpt>
      <trkpt lat="46.29415" lon="2.73908">
        <ele>449.56</ele>
        <time>2018-07-14T09:16:47.000Z</time>
      </trkpt>
      <trkpt lat="46.29424" lon="2.73902">
        <ele>449.31</ele>
        <time>2018-07-14T09:16:48.000Z</time>
      </trkpt>
      <trkpt lat="46.29433" lon="2.73895">
        <ele>448.93</ele>
        <time>2018-07-14T09:16:49.000Z</time>
      </trkpt>
      <trkpt lat="46.29442" lon="2.73888">
        <ele>448.58</ele>
        <time>2018-07-14T09:16:50.000Z</time>
      </trkpt>
      <trkpt lat="46.29451" lon="2.73881">
        <ele>447.78</ele>
        <time>2018-07-14T09:16:51.000Z</time>
      </trkpt>
      <trkpt lat="46.2946" lon="2.73874">
        <ele>447.67</ele>
        <time>2018-07-14T09:16:52.000Z</time>
      </trkpt>
      <trkpt lat="46.29469" lon="2.73866">
        <ele>447.03</ele>
        <time>2018-07-14T09:16:53.000Z</time>
      </trkpt>
      <trkpt lat="46.29479" lon="2.73859">
        <ele>446.58</ele>
        <time>2018-07-14T09:16:54.000Z</time>
      </trkpt>
      <trkpt lat="46.29488" lon="2.73852">
        <ele>446.29</ele>
        <time>2018-07-14T09:16:55.000Z</time>
      </trkpt>
      <trkpt lat="46.29498" lon="2.73844">
        <ele>445.95</ele>
        <time>2018-07-14T09:16:56.000Z</time>
      </trkpt>
      <trkpt lat="46.29508" lon="2.73836">
        <ele>445.78</ele>
        <time>2018-07-14T09:16:57.000Z</time>
      </trkpt>
      <trkpt lat="46.29518" lon="2.73829">
        <ele>445.74</ele>
        <time>2018-07-14T09:16:58.000Z</time>
      </trkpt>
      <trkpt lat="46.29528" lon="2.73819">
        <ele>445.72</ele>
        <time>2018-07-14T09:16:59.000Z</time>
      </trkpt>
      <trkpt lat="46.29537" lon="2.73809">
        <ele>445.72</ele>
        <time>2018-07-14T09:17:00.000Z</time>
      </trkpt>
      <trkpt lat="46.29546" lon="2.738">
        <ele>445.58</ele>
        <time>2018-07-14T09:17:01.000Z</time>
      </trkpt>
      <trkpt lat="46.29553" lon="2.73791">
        <ele>445.54</ele>
        <time>2018-07-14T09:17:02.000Z</time>
      </trkpt>
      <trkpt lat="46.29561" lon="2.73781">
        <ele>445.82</ele>
        <time>2018-07-14T09:17:03.000Z</time>
      </trkpt>
      <trkpt lat="46.29569" lon="2.73772">
        <ele>445.95</ele>
        <time>2018-07-14T09:17:04.000Z</time>
      </trkpt>
      <trkpt lat="46.29577" lon="2.73762">
        <ele>446.05</ele>
        <time>2018-07-14T09:17:05.000Z</time>
      </trkpt>
      <trkpt lat="46.29591" lon="2.73747">
        <ele>446.68</ele>
        <time>2018-07-14T09:17:07.000Z</time>
      </trkpt>
      <trkpt lat="46.296" lon="2.73742">
        <ele>446.14</ele>
        <time>2018-07-14T09:17:08.000Z</time>
      </trkpt>
      <trkpt lat="46.29613" lon="2.73738">
        <ele>447.2</ele>
        <time>2018-07-14T09:17:10.000Z</time>
      </trkpt>
      <trkpt lat="46.29625" lon="2.73726">
        <ele>446.16</ele>
        <time>2018-07-14T09:17:12.000Z</time>
      </trkpt>
      <trkpt lat="46.29638" lon="2.73712">
        <ele>446.07</ele>
        <time>2018-07-14T09:17:14.000Z</time>
      </trkpt>
      <trkpt lat="46.29651" lon="2.73698">
        <ele>446.15</ele>
        <time>2018-07-14T09:17:16.000Z</time>
      </trkpt>
      <trkpt lat="46.29665" lon="2.73684">
        <ele>446.2</ele>
        <time>2018-07-14T09:17:18.000Z</time>
      </trkpt>
      <trkpt lat="46.2968" lon="2.73672">
        <ele>445.54</ele>
        <time>2018-07-14T09:17:20.000Z</time>
      </trkpt>
      <trkpt lat="46.29687" lon="2.73665">
        <ele>444.8</ele>
        <time>2018-07-14T09:17:21.000Z</time>
      </trkpt>
      <trkpt lat="46.29701" lon="2.73653">
        <ele>444.58</ele>
        <time>2018-07-14T09:17:23.000Z</time>
      </trkpt>
      <trkpt lat="46.29716" lon="2.7364">
        <ele>444.26</ele>
        <time>2018-07-14T09:17:25.000Z</time>
      </trkpt>
      <trkpt lat="46.29724" lon="2.73633">
        <ele>444.08</ele>
        <time>2018-07-14T09:17:26.000Z</time>
      </trkpt>
      <trkpt lat="46.29733" lon="2.73627">
        <ele>443.88</ele>
        <time>2018-07-14T09:17:27.000Z</time>
      </trkpt>
      <trkpt lat="46.2974" lon="2.73619">
        <ele>443.7</ele>
        <time>2018-07-14T09:17:28.000Z</time>
      </trkpt>
      <trkpt lat="46.29748" lon="2.73612">
        <ele>443.73</ele>
        <time>2018-07-14T09:17:29.000Z</time>
      </trkpt>
      <trkpt lat="46.29756" lon="2.73605">
        <ele>443.77</ele>
        <time>2018-07-14T09:17:30.000Z</time>
      </trkpt>
      <trkpt lat="46.29764" lon="2.73598">
        <ele>443.61</ele>
        <time>2018-07-14T09:17:31.000Z</time>
      </trkpt>
      <trkpt lat="46.29772" lon="2.73592">
        <ele>443.29</ele>
        <time>2018-07-14T09:17:32.000Z</time>
      </trkpt>
      <trkpt lat="46.29787" lon="2.73578">
        <ele>442.84</ele>
        <time>2018-07-14T09:17:34.000Z</time>
      </trkpt>
      <trkpt lat="46.29803" lon="2.73565">
        <ele>442.35</ele>
        <time>2018-07-14T09:17:36.000Z</time>
      </trkpt>
      <trkpt lat="46.29811" lon="2.73559">
        <ele>441.66</ele>
        <time>2018-07-14T09:17:37.000Z</time>
      </trkpt>
      <trkpt lat="46.2982" lon="2.73554">
        <ele>438.83</ele>
        <time>2018-07-14T09:17:38.000Z</time>
      </trkpt>
      <trkpt lat="46.2983" lon="2.73548">
        <ele>435.98</ele>
        <time>2018-07-14T09:17:39.000Z</time>
      </trkpt>
      <trkpt lat="46.29839" lon="2.73541">
        <ele>433.92</ele>
        <time>2018-07-14T09:17:40.000Z</time>
      </trkpt>
      <trkpt lat="46.29846" lon="2.73534">
        <ele>432.82</ele>
        <time>2018-07-14T09:17:41.000Z</time>
      </trkpt>
      <trkpt lat="46.29854" lon="2.73527">
        <ele>431.63</ele>
        <time>2018-07-14T09:17:42.000Z</time>
      </trkpt>
      <trkpt lat="46.29869" lon="2.73514">
        <ele>429.62</ele>
        <time>2018-07-14T09:17:44.000Z</time>
      </trkpt>
      <trkpt lat="46.29883" lon="2.735">
        <ele>427.89</ele>
        <time>2018-07-14T09:17:46.000Z</time>
      </trkpt>
      <trkpt lat="46.29898" lon="2.73486">
        <ele>426.35</ele>
        <time>2018-07-14T09:17:48.000Z</time>
      </trkpt>
      <trkpt lat="46.29912" lon="2.73473">
        <ele>425.22</ele>
        <time>2018-07-14T09:17:50.000Z</time>
      </trkpt>
      <trkpt lat="46.29926" lon="2.73458">
        <ele>423.09</ele>
        <time>2018-07-14T09:17:52.000Z</time>
      </trkpt>
      <trkpt lat="46.29939" lon="2.73445">
        <ele>422.1</ele>
        <time>2018-07-14T09:17:54.000Z</time>
      </trkpt>
      <trkpt lat="46.29952" lon="2.73434">
        <ele>420.65</ele>
        <time>2018-07-14T09:17:56.000Z</time>
      </trkpt>
      <trkpt lat="46.29961" lon="2.73427">
        <ele>419.81</ele>
        <time>2018-07-14T09:17:58.000Z</time>
      </trkpt>
      <trkpt lat="46.29972" lon="2.73417">
        <ele>419.53</ele>
        <time>2018-07-14T09:18:01.000Z</time>
      </trkpt>
      <trkpt lat="46.2998" lon="2.7341">
        <ele>419.45</ele>
        <time>2018-07-14T09:18:03.000Z</time>
      </trkpt>
      <trkpt lat="46.29992" lon="2.73415">
        <ele>419.11</ele>
        <time>2018-07-14T09:18:06.000Z</time>
      </trkpt>
      <trkpt lat="46.29996" lon="2.73433">
        <ele>418.34</ele>
        <time>2018-07-14T09:18:08.000Z</time>
      </trkpt>
      <trkpt lat="46.29996" lon="2.73455">
        <ele>417.75</ele>
        <time>2018-07-14T09:18:10.000Z</time>
      </trkpt>
      <trkpt lat="46.29993" lon="2.73479">
        <ele>417.23</ele>
        <time>2018-07-14T09:18:12.000Z</time>
      </trkpt>
      <trkpt lat="46.29994" lon="2.73504">
        <ele>416.48</ele>
        <time>2018-07-14T09:18:14.000Z</time>
      </trkpt>
      <trkpt lat="46.29996" lon="2.73529">
        <ele>415.65</ele>
        <time>2018-07-14T09:18:16.000Z</time>
      </trkpt>
      <trkpt lat="46.29998" lon="2.73552">
        <ele>414.87</ele>
        <time>2018-07-14T09:18:18.000Z</time>
      </trkpt>
      <trkpt lat="46.3" lon="2.73575">
        <ele>414.37</ele>
        <time>2018-07-14T09:18:20.000Z</time>
      </trkpt>
      <trkpt lat="46.3" lon="2.73597">
        <ele>414.29</ele>
        <time>2018-07-14T09:18:22.000Z</time>
      </trkpt>
      <trkpt lat="46.30001" lon="2.7362">
        <ele>414.3</ele>
        <time>2018-07-14T09:18:24.000Z</time>
      </trkpt>
      <trkpt lat="46.30001" lon="2.73643">
        <ele>414.46</ele>
        <time>2018-07-14T09:18:26.000Z</time>
      </trkpt>
      <trkpt lat="46.30002" lon="2.73668">
        <ele>414.41</ele>
        <time>2018-07-14T09:18:28.000Z</time>
      </trkpt>
      <trkpt lat="46.30004" lon="2.73693">
        <ele>414.07</ele>
        <time>2018-07-14T09:18:30.000Z</time>
      </trkpt>
      <trkpt lat="46.30006" lon="2.73717">
        <ele>413.7</ele>
        <time>2018-07-14T09:18:32.000Z</time>
      </trkpt>
      <trkpt lat="46.30008" lon="2.73742">
        <ele>412.89</ele>
        <time>2018-07-14T09:18:34.000Z</time>
      </trkpt>
      <trkpt lat="46.30011" lon="2.73767">
        <ele>412.21</ele>
        <time>2018-07-14T09:18:36.000Z</time>
      </trkpt>
      <trkpt lat="46.30014" lon="2.73791">
        <ele>411.69</ele>
        <time>2018-07-14T09:18:38.000Z</time>
      </trkpt>
      <trkpt lat="46.30016" lon="2.73817">
        <ele>411.32</ele>
        <time>2018-07-14T09:18:40.000Z</time>
      </trkpt>
      <trkpt lat="46.30018" lon="2.73841">
        <ele>410.85</ele>
        <time>2018-07-14T09:18:42.000Z</time>
      </trkpt>
      <trkpt lat="46.3002" lon="2.73865">
        <ele>410.39</ele>
        <time>2018-07-14T09:18:44.000Z</time>
      </trkpt>
      <trkpt lat="46.30021" lon="2.73888">
        <ele>409.59</ele>
        <time>2018-07-14T09:18:46.000Z</time>
      </trkpt>
      <trkpt lat="46.30021" lon="2.73911">
        <ele>408.95</ele>
        <time>2018-07-14T09:18:48.000Z</time>
      </trkpt>
      <trkpt lat="46.30022" lon="2.73934">
        <ele>408.41</ele>
        <time>2018-07-14T09:18:50.000Z</time>
      </trkpt>
      <trkpt lat="46.30022" lon="2.73958">
        <ele>407.85</ele>
        <time>2018-07-14T09:18:52.000Z</time>
      </trkpt>
      <trkpt lat="46.30023" lon="2.7398">
        <ele>407.78</ele>
        <time>2018-07-14T09:18:54.000Z</time>
      </trkpt>
      <trkpt lat="46.30027" lon="2.73998">
        <ele>407.72</ele>
        <time>2018-07-14T09:18:56.000Z</time>
      </trkpt>
      <trkpt lat="46.30032" lon="2.74016">
        <ele>408.1</ele>
        <time>2018-07-14T09:18:58.000Z</time>
      </trkpt>
      <trkpt lat="46.30038" lon="2.74033">
        <ele>408.57</ele>
        <time>2018-07-14T09:19:00.000Z</time>
      </trkpt>
      <trkpt lat="46.30043" lon="2.7405">
        <ele>408.71</ele>
        <time>2018-07-14T09:19:02.000Z</time>
      </trkpt>
      <trkpt lat="46.30048" lon="2.74066">
        <ele>408.77</ele>
        <time>2018-07-14T09:19:04.000Z</time>
      </trkpt>
      <trkpt lat="46.30053" lon="2.74082">
        <ele>408.95</ele>
        <time>2018-07-14T09:19:06.000Z</time>
      </trkpt>
      <trkpt lat="46.30056" lon="2.74098">
        <ele>408.63</ele>
        <time>2018-07-14T09:19:08.000Z</time>
      </trkpt>
      <trkpt lat="46.3006" lon="2.74116">
        <ele>408.09</ele>
        <time>2018-07-14T09:19:10.000Z</time>
      </trkpt>
      <trkpt lat="46.30064" lon="2.74136">
        <ele>407.58</ele>
        <time>2018-07-14T09:19:12.000Z</time>
      </trkpt>
      <trkpt lat="46.30067" lon="2.74154">
        <ele>406.62</ele>
        <time>2018-07-14T09:19:14.000Z</time>
      </trkpt>
      <trkpt lat="46.30071" lon="2.74173">
        <ele>406.24</ele>
        <time>2018-07-14T09:19:16.000Z</time>
      </trkpt>
      <trkpt lat="46.30074" lon="2.74192">
        <ele>406.1</ele>
        <time>2018-07-14T09:19:18.000Z</time>
      </trkpt>
      <trkpt lat="46.30076" lon="2.74211">
        <ele>407.04</ele>
        <time>2018-07-14T09:19:20.000Z</time>
      </trkpt>
      <trkpt lat="46.30079" lon="2.74229">
        <ele>407.58</ele>
        <time>2018-07-14T09:19:22.000Z</time>
      </trkpt>
      <trkpt lat="46.30082" lon="2.74248">
        <ele>407.97</ele>
        <time>2018-07-14T09:19:24.000Z</time>
      </trkpt>
      <trkpt lat="46.30084" lon="2.74265">
        <ele>408.3</ele>
        <time>2018-07-14T09:19:26.000Z</time>
      </trkpt>
      <trkpt lat="46.30085" lon="2.74282">
        <ele>408.35</ele>
        <time>2018-07-14T09:19:28.000Z</time>
      </trkpt>
      <trkpt lat="46.30087" lon="2.74298">
        <ele>408.77</ele>
        <time>2018-07-14T09:19:30.000Z</time>
      </trkpt>
      <trkpt lat="46.30089" lon="2.74315">
        <ele>409.32</ele>
        <time>2018-07-14T09:19:32.000Z</time>
      </trkpt>
      <trkpt lat="46.30093" lon="2.74333">
        <ele>409.59</ele>
        <time>2018-07-14T09:19:34.000Z</time>
      </trkpt>
      <trkpt lat="46.30096" lon="2.7435">
        <ele>410.04</ele>
        <time>2018-07-14T09:19:36.000Z</time>
      </trkpt>
      <trkpt lat="46.30098" lon="2.74368">
        <ele>410.7</ele>
        <time>2018-07-14T09:19:38.000Z</time>
      </trkpt>
      <trkpt lat="46.301" lon="2.74387">
        <ele>411.47</ele>
        <time>2018-07-14T09:19:40.000Z</time>
      </trkpt>
      <trkpt lat="46.30102" lon="2.74405">
        <ele>412.12</ele>
        <time>2018-07-14T09:19:42.000Z</time>
      </trkpt>
      <trkpt lat="46.30104" lon="2.74423">
        <ele>413.43</ele>
        <time>2018-07-14T09:19:44.000Z</time>
      </trkpt>
      <trkpt lat="46.30106" lon="2.74441">
        <ele>414.29</ele>
        <time>2018-07-14T09:19:46.000Z</time>
      </trkpt>
      <trkpt lat="46.30108" lon="2.74459">
        <ele>415.31</ele>
        <time>2018-07-14T09:19:48.000Z</time>
      </trkpt>
      <trkpt lat="46.30109" lon="2.74478">
        <ele>416.18</ele>
        <time>2018-07-14T09:19:50.000Z</time>
      </trkpt>
      <trkpt lat="46.30112" lon="2.74497">
        <ele>416.26</ele>
        <time>2018-07-14T09:19:52.000Z</time>
      </trkpt>
      <trkpt lat="46.30115" lon="2.74517">
        <ele>416.33</ele>
        <time>2018-07-14T09:19:54.000Z</time>
      </trkpt>
      <trkpt lat="46.30117" lon="2.74536">
        <ele>416.29</ele>
        <time>2018-07-14T09:19:56.000Z</time>
      </trkpt>
      <trkpt lat="46.30118" lon="2.74555">
        <ele>416.3</ele>
        <time>2018-07-14T09:19:58.000Z</time>
      </trkpt>
      <trkpt lat="46.30119" lon="2.74575">
        <ele>416.09</ele>
        <time>2018-07-14T09:20:00.000Z</time>
      </trkpt>
      <trkpt lat="46.3012" lon="2.74594">
        <ele>416.43</ele>
        <time>2018-07-14T09:20:02.000Z</time>
      </trkpt>
      <trkpt lat="46.30119" lon="2.74611">
        <ele>417.33</ele>
        <time>2018-07-14T09:20:04.000Z</time>
      </trkpt>
      <trkpt lat="46.30119" lon="2.74628">
        <ele>418.25</ele>
        <time>2018-07-14T09:20:06.000Z</time>
      </trkpt>
      <trkpt lat="46.30125" lon="2.74639">
        <ele>419.17</ele>
        <time>2018-07-14T09:20:08.000Z</time>
      </trkpt>
      <trkpt lat="46.30136" lon="2.74642">
        <ele>419.87</ele>
        <time>2018-07-14T09:20:10.000Z</time>
      </trkpt>
      <trkpt lat="46.30148" lon="2.74641">
        <ele>420.79</ele>
        <time>2018-07-14T09:20:12.000Z</time>
      </trkpt>
      <trkpt lat="46.30161" lon="2.74642">
        <ele>421.51</ele>
        <time>2018-07-14T09:20:14.000Z</time>
      </trkpt>
      <trkpt lat="46.30173" lon="2.74647">
        <ele>421.8</ele>
        <time>2018-07-14T09:20:16.000Z</time>
      </trkpt>
      <trkpt lat="46.30187" lon="2.74653">
        <ele>421.76</ele>
        <time>2018-07-14T09:20:18.000Z</time>
      </trkpt>
      <trkpt lat="46.302" lon="2.7466">
        <ele>421.77</ele>
        <time>2018-07-14T09:20:20.000Z</time>
      </trkpt>
      <trkpt lat="46.30214" lon="2.74669">
        <ele>421.85</ele>
        <time>2018-07-14T09:20:22.000Z</time>
      </trkpt>
      <trkpt lat="46.30227" lon="2.74679">
        <ele>421.87</ele>
        <time>2018-07-14T09:20:24.000Z</time>
      </trkpt>
      <trkpt lat="46.30239" lon="2.74688">
        <ele>422.11</ele>
        <time>2018-07-14T09:20:26.000Z</time>
      </trkpt>
      <trkpt lat="46.30254" lon="2.74698">
        <ele>421.32</ele>
        <time>2018-07-14T09:20:28.000Z</time>
      </trkpt>
      <trkpt lat="46.30268" lon="2.74706">
        <ele>421.93</ele>
        <time>2018-07-14T09:20:30.000Z</time>
      </trkpt>
      <trkpt lat="46.30281" lon="2.74713">
        <ele>422.58</ele>
        <time>2018-07-14T09:20:32.000Z</time>
      </trkpt>
      <trkpt lat="46.30293" lon="2.7472">
        <ele>423.18</ele>
        <time>2018-07-14T09:20:34.000Z</time>
      </trkpt>
      <trkpt lat="46.30304" lon="2.74727">
        <ele>423.28</ele>
        <time>2018-07-14T09:20:36.000Z</time>
      </trkpt>
      <trkpt lat="46.30316" lon="2.74734">
        <ele>422.74</ele>
        <time>2018-07-14T09:20:38.000Z</time>
      </trkpt>
      <trkpt lat="46.30325" lon="2.74743">
        <ele>422.58</ele>
        <time>2018-07-14T09:20:40.000Z</time>
      </trkpt>
      <trkpt lat="46.30333" lon="2.74754">
        <ele>422.07</ele>
        <time>2018-07-14T09:20:42.000Z</time>
      </trkpt>
      <trkpt lat="46.30342" lon="2.74764">
        <ele>421.29</ele>
        <time>2018-07-14T09:20:44.000Z</time>
      </trkpt>
      <trkpt lat="46.30353" lon="2.74768">
        <ele>420.93</ele>
        <time>2018-07-14T09:20:46.000Z</time>
      </trkpt>
      <trkpt lat="46.30364" lon="2.74765">
        <ele>420.91</ele>
        <time>2018-07-14T09:20:48.000Z</time>
      </trkpt>
      <trkpt lat="46.30375" lon="2.74763">
        <ele>420.98</ele>
        <time>2018-07-14T09:20:50.000Z</time>
      </trkpt>
      <trkpt lat="46.30384" lon="2.74768">
        <ele>421.92</ele>
        <time>2018-07-14T09:20:52.000Z</time>
      </trkpt>
      <trkpt lat="46.30393" lon="2.74775">
        <ele>422.48</ele>
        <time>2018-07-14T09:20:54.000Z</time>
      </trkpt>
      <trkpt lat="46.30402" lon="2.74783">
        <ele>422.75</ele>
        <time>2018-07-14T09:20:56.000Z</time>
      </trkpt>
      <trkpt lat="46.3041" lon="2.7479">
        <ele>422.86</ele>
        <time>2018-07-14T09:20:58.000Z</time>
      </trkpt>
      <trkpt lat="46.3042" lon="2.748">
        <ele>423.23</ele>
        <time>2018-07-14T09:21:01.000Z</time>
      </trkpt>
      <trkpt lat="46.30431" lon="2.7481">
        <ele>423.5</ele>
        <time>2018-07-14T09:21:04.000Z</time>
      </trkpt>
      <trkpt lat="46.30442" lon="2.74817">
        <ele>423.92</ele>
        <time>2018-07-14T09:21:07.000Z</time>
      </trkpt>
      <trkpt lat="46.30454" lon="2.74823">
        <ele>424.47</ele>
        <time>2018-07-14T09:21:10.000Z</time>
      </trkpt>
      <trkpt lat="46.30463" lon="2.74832">
        <ele>424.9</ele>
        <time>2018-07-14T09:21:13.000Z</time>
      </trkpt>
      <trkpt lat="46.30475" lon="2.74841">
        <ele>425.35</ele>
        <time>2018-07-14T09:21:16.000Z</time>
      </trkpt>
      <trkpt lat="46.30483" lon="2.74849">
        <ele>425.36</ele>
        <time>2018-07-14T09:21:18.000Z</time>
      </trkpt>
      <trkpt lat="46.30489" lon="2.74859">
        <ele>425.68</ele>
        <time>2018-07-14T09:21:20.000Z</time>
      </trkpt>
      <trkpt lat="46.30495" lon="2.74874">
        <ele>426.82</ele>
        <time>2018-07-14T09:21:23.000Z</time>
      </trkpt>
      <trkpt lat="46.30502" lon="2.74888">
        <ele>427.73</ele>
        <time>2018-07-14T09:21:26.000Z</time>
      </trkpt>
      <trkpt lat="46.30507" lon="2.74899">
        <ele>427.7</ele>
        <time>2018-07-14T09:21:28.000Z</time>
      </trkpt>
      <trkpt lat="46.30513" lon="2.74916">
        <ele>426.82</ele>
        <time>2018-07-14T09:21:31.000Z</time>
      </trkpt>
      <trkpt lat="46.3052" lon="2.74925">
        <ele>426.58</ele>
        <time>2018-07-14T09:21:33.000Z</time>
      </trkpt>
      <trkpt lat="46.30525" lon="2.74937">
        <ele>426.25</ele>
        <time>2018-07-14T09:21:35.000Z</time>
      </trkpt>
      <trkpt lat="46.30533" lon="2.7495">
        <ele>426.42</ele>
        <time>2018-07-14T09:21:38.000Z</time>
      </trkpt>
      <trkpt lat="46.30541" lon="2.74964">
        <ele>427.38</ele>
        <time>2018-07-14T09:21:41.000Z</time>
      </trkpt>
      <trkpt lat="46.30547" lon="2.7498">
        <ele>428.46</ele>
        <time>2018-07-14T09:21:44.000Z</time>
      </trkpt>
      <trkpt lat="46.30554" lon="2.74997">
        <ele>429.29</ele>
        <time>2018-07-14T09:21:47.000Z</time>
      </trkpt>
      <trkpt lat="46.30559" lon="2.75007">
        <ele>429.65</ele>
        <time>2018-07-14T09:21:49.000Z</time>
      </trkpt>
      <trkpt lat="46.30564" lon="2.75019">
        <ele>430.09</ele>
        <time>2018-07-14T09:21:51.000Z</time>
      </trkpt>
      <trkpt lat="46.30568" lon="2.75031">
        <ele>430.48</ele>
        <time>2018-07-14T09:21:53.000Z</time>
      </trkpt>
      <trkpt lat="46.30573" lon="2.75044">
        <ele>430.42</ele>
        <time>2018-07-14T09:21:55.000Z</time>
      </trkpt>
      <trkpt lat="46.30578" lon="2.75056">
        <ele>430.56</ele>
        <time>2018-07-14T09:21:57.000Z</time>
      </trkpt>
      <trkpt lat="46.30585" lon="2.75073">
        <ele>431.07</ele>
        <time>2018-07-14T09:22:00.000Z</time>
      </trkpt>
      <trkpt lat="46.30591" lon="2.75084">
        <ele>431.47</ele>
        <time>2018-07-14T09:22:02.000Z</time>
      </trkpt>
      <trkpt lat="46.306" lon="2.75097">
        <ele>431.07</ele>
        <time>2018-07-14T09:22:04.000Z</time>
      </trkpt>
      <trkpt lat="46.30609" lon="2.7511">
        <ele>430.32</ele>
        <time>2018-07-14T09:22:06.000Z</time>
      </trkpt>
      <trkpt lat="46.30618" lon="2.75125">
        <ele>429.35</ele>
        <time>2018-07-14T09:22:08.000Z</time>
      </trkpt>
      <trkpt lat="46.30627" lon="2.7514">
        <ele>428.76</ele>
        <time>2018-07-14T09:22:10.000Z</time>
      </trkpt>
      <trkpt lat="46.30633" lon="2.75158">
        <ele>428.5</ele>
        <time>2018-07-14T09:22:12.000Z</time>
      </trkpt>
      <trkpt lat="46.30639" lon="2.75177">
        <ele>428.48</ele>
        <time>2018-07-14T09:22:14.000Z</time>
      </trkpt>
      <trkpt lat="46.30644" lon="2.75196">
        <ele>428.31</ele>
        <time>2018-07-14T09:22:16.000Z</time>
      </trkpt>
      <trkpt lat="46.30648" lon="2.75214">
        <ele>428.61</ele>
        <time>2018-07-14T09:22:18.000Z</time>
      </trkpt>
      <trkpt lat="46.30652" lon="2.75233">
        <ele>429.16</ele>
        <time>2018-07-14T09:22:20.000Z</time>
      </trkpt>
      <trkpt lat="46.30658" lon="2.75252">
        <ele>430.62</ele>
        <time>2018-07-14T09:22:22.000Z</time>
      </trkpt>
      <trkpt lat="46.30667" lon="2.75272">
        <ele>431.82</ele>
        <time>2018-07-14T09:22:24.000Z</time>
      </trkpt>
      <trkpt lat="46.30675" lon="2.7528">
        <ele>431.76</ele>
        <time>2018-07-14T09:22:25.000Z</time>
      </trkpt>
      <trkpt lat="46.30684" lon="2.75289">
        <ele>431.36</ele>
        <time>2018-07-14T09:22:26.000Z</time>
      </trkpt>
      <trkpt lat="46.30692" lon="2.75295">
        <ele>431.79</ele>
        <time>2018-07-14T09:22:27.000Z</time>
      </trkpt>
      <trkpt lat="46.30701" lon="2.75301">
        <ele>432.05</ele>
        <time>2018-07-14T09:22:28.000Z</time>
      </trkpt>
      <trkpt lat="46.30711" lon="2.75306">
        <ele>431.58</ele>
        <time>2018-07-14T09:22:29.000Z</time>
      </trkpt>
      <trkpt lat="46.30719" lon="2.7531">
        <ele>431.52</ele>
        <time>2018-07-14T09:22:30.000Z</time>
      </trkpt>
      <trkpt lat="46.30729" lon="2.75314">
        <ele>431.27</ele>
        <time>2018-07-14T09:22:31.000Z</time>
      </trkpt>
      <trkpt lat="46.30738" lon="2.75319">
        <ele>430.87</ele>
        <time>2018-07-14T09:22:32.000Z</time>
      </trkpt>
      <trkpt lat="46.30747" lon="2.75323">
        <ele>430.68</ele>
        <time>2018-07-14T09:22:33.000Z</time>
      </trkpt>
      <trkpt lat="46.30756" lon="2.75328">
        <ele>430.4</ele>
        <time>2018-07-14T09:22:34.000Z</time>
      </trkpt>
      <trkpt lat="46.30765" lon="2.75332">
        <ele>430.08</ele>
        <time>2018-07-14T09:22:35.000Z</time>
      </trkpt>
      <trkpt lat="46.30774" lon="2.75337">
        <ele>429.74</ele>
        <time>2018-07-14T09:22:36.000Z</time>
      </trkpt>
      <trkpt lat="46.30784" lon="2.75341">
        <ele>429.33</ele>
        <time>2018-07-14T09:22:37.000Z</time>
      </trkpt>
      <trkpt lat="46.30794" lon="2.75345">
        <ele>428.65</ele>
        <time>2018-07-14T09:22:38.000Z</time>
      </trkpt>
      <trkpt lat="46.30803" lon="2.75349">
        <ele>428.26</ele>
        <time>2018-07-14T09:22:39.000Z</time>
      </trkpt>
      <trkpt lat="46.30813" lon="2.75354">
        <ele>427.45</ele>
        <time>2018-07-14T09:22:40.000Z</time>
      </trkpt>
      <trkpt lat="46.30823" lon="2.75358">
        <ele>426.73</ele>
        <time>2018-07-14T09:22:41.000Z</time>
      </trkpt>
      <trkpt lat="46.30832" lon="2.75363">
        <ele>426.03</ele>
        <time>2018-07-14T09:22:42.000Z</time>
      </trkpt>
      <trkpt lat="46.30841" lon="2.75367">
        <ele>425.52</ele>
        <time>2018-07-14T09:22:43.000Z</time>
      </trkpt>
      <trkpt lat="46.30851" lon="2.75371">
        <ele>425.32</ele>
        <time>2018-07-14T09:22:44.000Z</time>
      </trkpt>
      <trkpt lat="46.3086" lon="2.75374">
        <ele>425.09</ele>
        <time>2018-07-14T09:22:45.000Z</time>
      </trkpt>
      <trkpt lat="46.3087" lon="2.75376">
        <ele>424.89</ele>
        <time>2018-07-14T09:22:46.000Z</time>
      </trkpt>
      <trkpt lat="46.30879" lon="2.75377">
        <ele>424.69</ele>
        <time>2018-07-14T09:22:47.000Z</time>
      </trkpt>
      <trkpt lat="46.30889" lon="2.75378">
        <ele>424.56</ele>
        <time>2018-07-14T09:22:48.000Z</time>
      </trkpt>
      <trkpt lat="46.30904" lon="2.7538">
        <ele>423.86</ele>
        <time>2018-07-14T09:22:50.000Z</time>
      </trkpt>
      <trkpt lat="46.30914" lon="2.75382">
        <ele>422.84</ele>
        <time>2018-07-14T09:22:52.000Z</time>
      </trkpt>
      <trkpt lat="46.30926" lon="2.75386">
        <ele>422.37</ele>
        <time>2018-07-14T09:22:54.000Z</time>
      </trkpt>
      <trkpt lat="46.30939" lon="2.75391">
        <ele>422.12</ele>
        <time>2018-07-14T09:22:56.000Z</time>
      </trkpt>
      <trkpt lat="46.30949" lon="2.75401">
        <ele>421.92</ele>
        <time>2018-07-14T09:22:58.000Z</time>
      </trkpt>
      <trkpt lat="46.30963" lon="2.75411">
        <ele>421.51</ele>
        <time>2018-07-14T09:23:00.000Z</time>
      </trkpt>
      <trkpt lat="46.30979" lon="2.75421">
        <ele>420.98</ele>
        <time>2018-07-14T09:23:02.000Z</time>
      </trkpt>
      <trkpt lat="46.30994" lon="2.7543">
        <ele>419.92</ele>
        <time>2018-07-14T09:23:04.000Z</time>
      </trkpt>
      <trkpt lat="46.3101" lon="2.75432">
        <ele>418.76</ele>
        <time>2018-07-14T09:23:06.000Z</time>
      </trkpt>
      <trkpt lat="46.31026" lon="2.75425">
        <ele>417.58</ele>
        <time>2018-07-14T09:23:08.000Z</time>
      </trkpt>
      <trkpt lat="46.31041" lon="2.75412">
        <ele>417.23</ele>
        <time>2018-07-14T09:23:10.000Z</time>
      </trkpt>
      <trkpt lat="46.31056" lon="2.75403">
        <ele>416.5</ele>
        <time>2018-07-14T09:23:12.000Z</time>
      </trkpt>
      <trkpt lat="46.3107" lon="2.75399">
        <ele>415.98</ele>
        <time>2018-07-14T09:23:14.000Z</time>
      </trkpt>
      <trkpt lat="46.3108" lon="2.75398">
        <ele>415.42</ele>
        <time>2018-07-14T09:23:16.000Z</time>
      </trkpt>
      <trkpt lat="46.31088" lon="2.75391">
        <ele>413.45</ele>
        <time>2018-07-14T09:23:21.000Z</time>
      </trkpt>
      <trkpt lat="46.31098" lon="2.75384">
        <ele>412.92</ele>
        <time>2018-07-14T09:23:27.000Z</time>
      </trkpt>
      <trkpt lat="46.31108" lon="2.75383">
        <ele>413.16</ele>
        <time>2018-07-14T09:23:30.000Z</time>
      </trkpt>
      <trkpt lat="46.31117" lon="2.75385">
        <ele>413.33</ele>
        <time>2018-07-14T09:23:35.000Z</time>
      </trkpt>
    </trkseg>
  </trk>
</gpx>